<?xml version="1.0" encoding="UTF-8" standalone="no" ?>
<gpx xmlns="http://www.topografix.com/GPX/1/1" xmlns:xsi="http://www.w3.org/2001/XMLSchema-instance" xsi:schemaLocation="http://www.topografix.com/GPX/1/1 http://www.topografix.com/GPX/1/1/gpx.xsd" version="1.1" creator="VisuGPX - https://www.visugpx.com">
  <metadata>
    <name>Le Menil les Granges</name>
    <desc><![CDATA[Départ depuis le parking du parcours de santé ]]></desc>
  </metadata>
  <trk>
    <name><![CDATA[Le Menil Randonnée]]></name>
    <extensions>
      <line xmlns="http://www.topografix.com/GPX/gpx_style/0/2">
        <color>0000FF</color>
        <width>4</width>
      </line>
    </extensions>
    <trkseg>
      <trkpt lat="47.91387" lon="6.80117">
        <ele>611.4</ele>
        <time>2022-09-02T06:03:59Z</time>
      </trkpt>
      <trkpt lat="47.91387" lon="6.80118">
        <ele>611.5</ele>
        <time>2022-09-02T06:04:01Z</time>
      </trkpt>
      <trkpt lat="47.91386" lon="6.80118">
        <ele>611.4</ele>
        <time>2022-09-02T06:04:02Z</time>
      </trkpt>
      <trkpt lat="47.91385" lon="6.80119">
        <ele>611.4</ele>
        <time>2022-09-02T06:04:04Z</time>
      </trkpt>
      <trkpt lat="47.91384" lon="6.80119">
        <ele>611.3</ele>
        <time>2022-09-02T06:04:05Z</time>
      </trkpt>
      <trkpt lat="47.91383" lon="6.80119">
        <ele>611.2</ele>
        <time>2022-09-02T06:04:06Z</time>
      </trkpt>
      <trkpt lat="47.91382" lon="6.8012">
        <ele>611.1</ele>
        <time>2022-09-02T06:04:07Z</time>
      </trkpt>
      <trkpt lat="47.91381" lon="6.8012">
        <ele>611</ele>
        <time>2022-09-02T06:04:08Z</time>
      </trkpt>
      <trkpt lat="47.9138" lon="6.8012">
        <ele>610.9</ele>
        <time>2022-09-02T06:04:09Z</time>
      </trkpt>
      <trkpt lat="47.91379" lon="6.80121">
        <ele>610.9</ele>
        <time>2022-09-02T06:04:10Z</time>
      </trkpt>
      <trkpt lat="47.91378" lon="6.80121">
        <ele>610.8</ele>
        <time>2022-09-02T06:04:11Z</time>
      </trkpt>
      <trkpt lat="47.91377" lon="6.80121">
        <ele>610.6</ele>
        <time>2022-09-02T06:04:12Z</time>
      </trkpt>
      <trkpt lat="47.91376" lon="6.80122">
        <ele>610.6</ele>
        <time>2022-09-02T06:04:13Z</time>
      </trkpt>
      <trkpt lat="47.91375" lon="6.80122">
        <ele>610.5</ele>
        <time>2022-09-02T06:04:15Z</time>
      </trkpt>
      <trkpt lat="47.91374" lon="6.80123">
        <ele>610.4</ele>
        <time>2022-09-02T06:04:16Z</time>
      </trkpt>
      <trkpt lat="47.91373" lon="6.80123">
        <ele>610.3</ele>
        <time>2022-09-02T06:04:17Z</time>
      </trkpt>
      <trkpt lat="47.91372" lon="6.80123">
        <ele>610.2</ele>
        <time>2022-09-02T06:04:18Z</time>
      </trkpt>
      <trkpt lat="47.91371" lon="6.80123">
        <ele>610.1</ele>
        <time>2022-09-02T06:04:19Z</time>
      </trkpt>
      <trkpt lat="47.9137" lon="6.80124">
        <ele>610</ele>
        <time>2022-09-02T06:04:20Z</time>
      </trkpt>
      <trkpt lat="47.91369" lon="6.80124">
        <ele>609.9</ele>
        <time>2022-09-02T06:04:21Z</time>
      </trkpt>
      <trkpt lat="47.91368" lon="6.80124">
        <ele>609.8</ele>
        <time>2022-09-02T06:04:22Z</time>
      </trkpt>
      <trkpt lat="47.91367" lon="6.80124">
        <ele>609.7</ele>
        <time>2022-09-02T06:04:23Z</time>
      </trkpt>
      <trkpt lat="47.91366" lon="6.80124">
        <ele>609.5</ele>
        <time>2022-09-02T06:04:25Z</time>
      </trkpt>
      <trkpt lat="47.91365" lon="6.80124">
        <ele>609.4</ele>
        <time>2022-09-02T06:04:26Z</time>
      </trkpt>
      <trkpt lat="47.91364" lon="6.80125">
        <ele>609.4</ele>
        <time>2022-09-02T06:04:28Z</time>
      </trkpt>
      <trkpt lat="47.91363" lon="6.80125">
        <ele>609.2</ele>
        <time>2022-09-02T06:04:29Z</time>
      </trkpt>
      <trkpt lat="47.91362" lon="6.80126">
        <ele>609.2</ele>
        <time>2022-09-02T06:04:30Z</time>
      </trkpt>
      <trkpt lat="47.91361" lon="6.80127">
        <ele>609.1</ele>
        <time>2022-09-02T06:04:32Z</time>
      </trkpt>
      <trkpt lat="47.9136" lon="6.80128">
        <ele>609.1</ele>
        <time>2022-09-02T06:04:33Z</time>
      </trkpt>
      <trkpt lat="47.9136" lon="6.80129">
        <ele>609.1</ele>
        <time>2022-09-02T06:04:34Z</time>
      </trkpt>
      <trkpt lat="47.91359" lon="6.8013">
        <ele>609.1</ele>
        <time>2022-09-02T06:04:35Z</time>
      </trkpt>
      <trkpt lat="47.91358" lon="6.80131">
        <ele>609</ele>
        <time>2022-09-02T06:04:36Z</time>
      </trkpt>
      <trkpt lat="47.91357" lon="6.80131">
        <ele>608.8</ele>
        <time>2022-09-02T06:04:37Z</time>
      </trkpt>
      <trkpt lat="47.91357" lon="6.80132">
        <ele>608.9</ele>
        <time>2022-09-02T06:04:38Z</time>
      </trkpt>
      <trkpt lat="47.91356" lon="6.80133">
        <ele>608.8</ele>
        <time>2022-09-02T06:04:39Z</time>
      </trkpt>
      <trkpt lat="47.91355" lon="6.80134">
        <ele>608.8</ele>
        <time>2022-09-02T06:04:40Z</time>
      </trkpt>
      <trkpt lat="47.91355" lon="6.80135">
        <ele>608.8</ele>
        <time>2022-09-02T06:04:41Z</time>
      </trkpt>
      <trkpt lat="47.91354" lon="6.80136">
        <ele>608.8</ele>
        <time>2022-09-02T06:04:42Z</time>
      </trkpt>
      <trkpt lat="47.91353" lon="6.80137">
        <ele>608.7</ele>
        <time>2022-09-02T06:04:43Z</time>
      </trkpt>
      <trkpt lat="47.91353" lon="6.80138">
        <ele>608.8</ele>
        <time>2022-09-02T06:04:44Z</time>
      </trkpt>
      <trkpt lat="47.91352" lon="6.80139">
        <ele>608.7</ele>
        <time>2022-09-02T06:04:45Z</time>
      </trkpt>
      <trkpt lat="47.91352" lon="6.8014">
        <ele>608.7</ele>
        <time>2022-09-02T06:04:46Z</time>
      </trkpt>
      <trkpt lat="47.91351" lon="6.8014">
        <ele>608.6</ele>
        <time>2022-09-02T06:04:47Z</time>
      </trkpt>
      <trkpt lat="47.91351" lon="6.80141">
        <ele>608.6</ele>
        <time>2022-09-02T06:04:48Z</time>
      </trkpt>
      <trkpt lat="47.9135" lon="6.80142">
        <ele>608.5</ele>
        <time>2022-09-02T06:04:49Z</time>
      </trkpt>
      <trkpt lat="47.9135" lon="6.80143">
        <ele>608.5</ele>
        <time>2022-09-02T06:04:50Z</time>
      </trkpt>
      <trkpt lat="47.91349" lon="6.80144">
        <ele>608.4</ele>
        <time>2022-09-02T06:04:51Z</time>
      </trkpt>
      <trkpt lat="47.91348" lon="6.80146">
        <ele>608.2</ele>
        <time>2022-09-02T06:04:52Z</time>
      </trkpt>
      <trkpt lat="47.91347" lon="6.80147">
        <ele>608.1</ele>
        <time>2022-09-02T06:04:53Z</time>
      </trkpt>
      <trkpt lat="47.91347" lon="6.80148">
        <ele>608.1</ele>
        <time>2022-09-02T06:04:54Z</time>
      </trkpt>
      <trkpt lat="47.91346" lon="6.80149">
        <ele>608</ele>
        <time>2022-09-02T06:04:55Z</time>
      </trkpt>
      <trkpt lat="47.91346" lon="6.8015">
        <ele>608</ele>
        <time>2022-09-02T06:04:56Z</time>
      </trkpt>
      <trkpt lat="47.91345" lon="6.80151">
        <ele>607.9</ele>
        <time>2022-09-02T06:04:57Z</time>
      </trkpt>
      <trkpt lat="47.91344" lon="6.80152">
        <ele>607.7</ele>
        <time>2022-09-02T06:04:58Z</time>
      </trkpt>
      <trkpt lat="47.91344" lon="6.80153">
        <ele>607.7</ele>
        <time>2022-09-02T06:04:59Z</time>
      </trkpt>
      <trkpt lat="47.91343" lon="6.80154">
        <ele>607.6</ele>
        <time>2022-09-02T06:05:00Z</time>
      </trkpt>
      <trkpt lat="47.91342" lon="6.80156">
        <ele>607.4</ele>
        <time>2022-09-02T06:05:01Z</time>
      </trkpt>
      <trkpt lat="47.91341" lon="6.80156">
        <ele>607.3</ele>
        <time>2022-09-02T06:05:02Z</time>
      </trkpt>
      <trkpt lat="47.91339" lon="6.80157">
        <ele>606.9</ele>
        <time>2022-09-02T06:05:03Z</time>
      </trkpt>
      <trkpt lat="47.91338" lon="6.80158">
        <ele>606.8</ele>
        <time>2022-09-02T06:05:04Z</time>
      </trkpt>
      <trkpt lat="47.91337" lon="6.80159">
        <ele>606.6</ele>
        <time>2022-09-02T06:05:05Z</time>
      </trkpt>
      <trkpt lat="47.91336" lon="6.80159">
        <ele>606.5</ele>
        <time>2022-09-02T06:05:06Z</time>
      </trkpt>
      <trkpt lat="47.91335" lon="6.8016">
        <ele>606.3</ele>
        <time>2022-09-02T06:05:07Z</time>
      </trkpt>
      <trkpt lat="47.91334" lon="6.80161">
        <ele>606.1</ele>
        <time>2022-09-02T06:05:08Z</time>
      </trkpt>
      <trkpt lat="47.91333" lon="6.80161">
        <ele>605.9</ele>
        <time>2022-09-02T06:05:09Z</time>
      </trkpt>
      <trkpt lat="47.91332" lon="6.80162">
        <ele>605.8</ele>
        <time>2022-09-02T06:05:10Z</time>
      </trkpt>
      <trkpt lat="47.91331" lon="6.80163">
        <ele>605.7</ele>
        <time>2022-09-02T06:05:11Z</time>
      </trkpt>
      <trkpt lat="47.9133" lon="6.80165">
        <ele>605.5</ele>
        <time>2022-09-02T06:05:12Z</time>
      </trkpt>
      <trkpt lat="47.91329" lon="6.80166">
        <ele>605.4</ele>
        <time>2022-09-02T06:05:13Z</time>
      </trkpt>
      <trkpt lat="47.91329" lon="6.80167">
        <ele>605.4</ele>
        <time>2022-09-02T06:05:14Z</time>
      </trkpt>
      <trkpt lat="47.91328" lon="6.80168">
        <ele>605.4</ele>
        <time>2022-09-02T06:05:15Z</time>
      </trkpt>
      <trkpt lat="47.91327" lon="6.80168">
        <ele>605.2</ele>
        <time>2022-09-02T06:05:16Z</time>
      </trkpt>
      <trkpt lat="47.91326" lon="6.80169">
        <ele>605.2</ele>
        <time>2022-09-02T06:05:17Z</time>
      </trkpt>
      <trkpt lat="47.91325" lon="6.8017">
        <ele>605.2</ele>
        <time>2022-09-02T06:05:18Z</time>
      </trkpt>
      <trkpt lat="47.91324" lon="6.8017">
        <ele>605</ele>
        <time>2022-09-02T06:05:19Z</time>
      </trkpt>
      <trkpt lat="47.91323" lon="6.80171">
        <ele>605</ele>
        <time>2022-09-02T06:05:20Z</time>
      </trkpt>
      <trkpt lat="47.91322" lon="6.80171">
        <ele>604.8</ele>
        <time>2022-09-02T06:05:21Z</time>
      </trkpt>
      <trkpt lat="47.91321" lon="6.80172">
        <ele>604.8</ele>
        <time>2022-09-02T06:05:22Z</time>
      </trkpt>
      <trkpt lat="47.9132" lon="6.80172">
        <ele>604.7</ele>
        <time>2022-09-02T06:05:23Z</time>
      </trkpt>
      <trkpt lat="47.91319" lon="6.80173">
        <ele>604.6</ele>
        <time>2022-09-02T06:05:24Z</time>
      </trkpt>
      <trkpt lat="47.91318" lon="6.80173">
        <ele>604.5</ele>
        <time>2022-09-02T06:05:25Z</time>
      </trkpt>
      <trkpt lat="47.91317" lon="6.80174">
        <ele>604.4</ele>
        <time>2022-09-02T06:05:26Z</time>
      </trkpt>
      <trkpt lat="47.91316" lon="6.80175">
        <ele>604.4</ele>
        <time>2022-09-02T06:05:27Z</time>
      </trkpt>
      <trkpt lat="47.91315" lon="6.80176">
        <ele>604.4</ele>
        <time>2022-09-02T06:05:29Z</time>
      </trkpt>
      <trkpt lat="47.91314" lon="6.80177">
        <ele>604.3</ele>
        <time>2022-09-02T06:05:30Z</time>
      </trkpt>
      <trkpt lat="47.91313" lon="6.80178">
        <ele>604.3</ele>
        <time>2022-09-02T06:05:31Z</time>
      </trkpt>
      <trkpt lat="47.91312" lon="6.80178">
        <ele>604.2</ele>
        <time>2022-09-02T06:05:32Z</time>
      </trkpt>
      <trkpt lat="47.91311" lon="6.80179">
        <ele>604.1</ele>
        <time>2022-09-02T06:05:33Z</time>
      </trkpt>
      <trkpt lat="47.9131" lon="6.80179">
        <ele>604</ele>
        <time>2022-09-02T06:05:34Z</time>
      </trkpt>
      <trkpt lat="47.91308" lon="6.8018">
        <ele>603.8</ele>
        <time>2022-09-02T06:05:35Z</time>
      </trkpt>
      <trkpt lat="47.91307" lon="6.80181">
        <ele>603.8</ele>
        <time>2022-09-02T06:05:36Z</time>
      </trkpt>
      <trkpt lat="47.91306" lon="6.80181">
        <ele>603.6</ele>
        <time>2022-09-02T06:05:37Z</time>
      </trkpt>
      <trkpt lat="47.91305" lon="6.80182">
        <ele>603.6</ele>
        <time>2022-09-02T06:05:38Z</time>
      </trkpt>
      <trkpt lat="47.91304" lon="6.80183">
        <ele>603.5</ele>
        <time>2022-09-02T06:05:39Z</time>
      </trkpt>
      <trkpt lat="47.91303" lon="6.80183">
        <ele>603.4</ele>
        <time>2022-09-02T06:05:40Z</time>
      </trkpt>
      <trkpt lat="47.91302" lon="6.80183">
        <ele>603.3</ele>
        <time>2022-09-02T06:05:41Z</time>
      </trkpt>
      <trkpt lat="47.91301" lon="6.80184">
        <ele>603.2</ele>
        <time>2022-09-02T06:05:42Z</time>
      </trkpt>
      <trkpt lat="47.913" lon="6.80184">
        <ele>603.1</ele>
        <time>2022-09-02T06:05:43Z</time>
      </trkpt>
      <trkpt lat="47.91299" lon="6.80184">
        <ele>602.9</ele>
        <time>2022-09-02T06:05:44Z</time>
      </trkpt>
      <trkpt lat="47.91298" lon="6.80184">
        <ele>602.8</ele>
        <time>2022-09-02T06:05:46Z</time>
      </trkpt>
      <trkpt lat="47.91297" lon="6.80184">
        <ele>602.6</ele>
        <time>2022-09-02T06:05:47Z</time>
      </trkpt>
      <trkpt lat="47.91296" lon="6.80184">
        <ele>602.5</ele>
        <time>2022-09-02T06:05:48Z</time>
      </trkpt>
      <trkpt lat="47.91295" lon="6.80184">
        <ele>602.4</ele>
        <time>2022-09-02T06:05:49Z</time>
      </trkpt>
      <trkpt lat="47.91294" lon="6.80184">
        <ele>602.2</ele>
        <time>2022-09-02T06:05:51Z</time>
      </trkpt>
      <trkpt lat="47.91293" lon="6.80184">
        <ele>602.1</ele>
        <time>2022-09-02T06:05:52Z</time>
      </trkpt>
      <trkpt lat="47.91292" lon="6.80184">
        <ele>601.9</ele>
        <time>2022-09-02T06:05:53Z</time>
      </trkpt>
      <trkpt lat="47.91291" lon="6.80184">
        <ele>601.8</ele>
        <time>2022-09-02T06:05:54Z</time>
      </trkpt>
      <trkpt lat="47.91289" lon="6.80183">
        <ele>601.4</ele>
        <time>2022-09-02T06:05:55Z</time>
      </trkpt>
      <trkpt lat="47.91288" lon="6.80183">
        <ele>601.2</ele>
        <time>2022-09-02T06:05:56Z</time>
      </trkpt>
      <trkpt lat="47.91287" lon="6.80183">
        <ele>601.1</ele>
        <time>2022-09-02T06:05:57Z</time>
      </trkpt>
      <trkpt lat="47.91286" lon="6.80183">
        <ele>600.9</ele>
        <time>2022-09-02T06:05:58Z</time>
      </trkpt>
      <trkpt lat="47.91285" lon="6.80184">
        <ele>600.9</ele>
        <time>2022-09-02T06:05:59Z</time>
      </trkpt>
      <trkpt lat="47.91284" lon="6.80184">
        <ele>600.8</ele>
        <time>2022-09-02T06:06:00Z</time>
      </trkpt>
      <trkpt lat="47.91283" lon="6.80184">
        <ele>600.6</ele>
        <time>2022-09-02T06:06:01Z</time>
      </trkpt>
      <trkpt lat="47.91282" lon="6.80184">
        <ele>600.5</ele>
        <time>2022-09-02T06:06:02Z</time>
      </trkpt>
      <trkpt lat="47.91281" lon="6.80184">
        <ele>600.3</ele>
        <time>2022-09-02T06:06:04Z</time>
      </trkpt>
      <trkpt lat="47.9128" lon="6.80184">
        <ele>600.2</ele>
        <time>2022-09-02T06:06:05Z</time>
      </trkpt>
      <trkpt lat="47.91279" lon="6.80184">
        <ele>600</ele>
        <time>2022-09-02T06:06:06Z</time>
      </trkpt>
      <trkpt lat="47.91279" lon="6.80185">
        <ele>600.2</ele>
        <time>2022-09-02T06:06:07Z</time>
      </trkpt>
      <trkpt lat="47.91278" lon="6.80185">
        <ele>600</ele>
        <time>2022-09-02T06:06:08Z</time>
      </trkpt>
      <trkpt lat="47.91277" lon="6.80185">
        <ele>599.8</ele>
        <time>2022-09-02T06:06:09Z</time>
      </trkpt>
      <trkpt lat="47.91276" lon="6.80185">
        <ele>599.7</ele>
        <time>2022-09-02T06:06:11Z</time>
      </trkpt>
      <trkpt lat="47.91275" lon="6.80185">
        <ele>599.5</ele>
        <time>2022-09-02T06:06:12Z</time>
      </trkpt>
      <trkpt lat="47.91274" lon="6.80185">
        <ele>599.3</ele>
        <time>2022-09-02T06:06:13Z</time>
      </trkpt>
      <trkpt lat="47.91273" lon="6.80186">
        <ele>599.3</ele>
        <time>2022-09-02T06:06:14Z</time>
      </trkpt>
      <trkpt lat="47.91272" lon="6.80186">
        <ele>599.1</ele>
        <time>2022-09-02T06:06:15Z</time>
      </trkpt>
      <trkpt lat="47.91271" lon="6.80186">
        <ele>598.9</ele>
        <time>2022-09-02T06:06:16Z</time>
      </trkpt>
      <trkpt lat="47.9127" lon="6.80187">
        <ele>598.9</ele>
        <time>2022-09-02T06:06:17Z</time>
      </trkpt>
      <trkpt lat="47.91269" lon="6.80187">
        <ele>598.7</ele>
        <time>2022-09-02T06:06:19Z</time>
      </trkpt>
      <trkpt lat="47.91268" lon="6.80188">
        <ele>598.6</ele>
        <time>2022-09-02T06:06:20Z</time>
      </trkpt>
      <trkpt lat="47.91267" lon="6.80188">
        <ele>598.5</ele>
        <time>2022-09-02T06:06:21Z</time>
      </trkpt>
      <trkpt lat="47.91266" lon="6.80189">
        <ele>598.4</ele>
        <time>2022-09-02T06:06:22Z</time>
      </trkpt>
      <trkpt lat="47.91265" lon="6.80189">
        <ele>598.2</ele>
        <time>2022-09-02T06:06:23Z</time>
      </trkpt>
      <trkpt lat="47.91264" lon="6.80189">
        <ele>598</ele>
        <time>2022-09-02T06:06:24Z</time>
      </trkpt>
      <trkpt lat="47.91263" lon="6.80189">
        <ele>597.9</ele>
        <time>2022-09-02T06:06:25Z</time>
      </trkpt>
      <trkpt lat="47.91262" lon="6.80189">
        <ele>597.7</ele>
        <time>2022-09-02T06:06:26Z</time>
      </trkpt>
      <trkpt lat="47.91261" lon="6.80189">
        <ele>597.5</ele>
        <time>2022-09-02T06:06:27Z</time>
      </trkpt>
      <trkpt lat="47.9126" lon="6.80189">
        <ele>597.3</ele>
        <time>2022-09-02T06:06:28Z</time>
      </trkpt>
      <trkpt lat="47.91259" lon="6.80189">
        <ele>597.2</ele>
        <time>2022-09-02T06:06:29Z</time>
      </trkpt>
      <trkpt lat="47.91257" lon="6.8019">
        <ele>596.9</ele>
        <time>2022-09-02T06:06:30Z</time>
      </trkpt>
      <trkpt lat="47.91256" lon="6.8019">
        <ele>596.7</ele>
        <time>2022-09-02T06:06:31Z</time>
      </trkpt>
      <trkpt lat="47.91255" lon="6.80189">
        <ele>596.5</ele>
        <time>2022-09-02T06:06:32Z</time>
      </trkpt>
      <trkpt lat="47.91254" lon="6.80189">
        <ele>596.3</ele>
        <time>2022-09-02T06:06:33Z</time>
      </trkpt>
      <trkpt lat="47.91253" lon="6.80189">
        <ele>596.1</ele>
        <time>2022-09-02T06:06:34Z</time>
      </trkpt>
      <trkpt lat="47.91252" lon="6.8019">
        <ele>596</ele>
        <time>2022-09-02T06:06:35Z</time>
      </trkpt>
      <trkpt lat="47.91251" lon="6.8019">
        <ele>595.9</ele>
        <time>2022-09-02T06:06:36Z</time>
      </trkpt>
      <trkpt lat="47.9125" lon="6.8019">
        <ele>595.7</ele>
        <time>2022-09-02T06:06:37Z</time>
      </trkpt>
      <trkpt lat="47.91249" lon="6.80191">
        <ele>595.6</ele>
        <time>2022-09-02T06:06:38Z</time>
      </trkpt>
      <trkpt lat="47.91248" lon="6.80192">
        <ele>595.5</ele>
        <time>2022-09-02T06:06:40Z</time>
      </trkpt>
      <trkpt lat="47.91247" lon="6.80193">
        <ele>595.5</ele>
        <time>2022-09-02T06:06:41Z</time>
      </trkpt>
      <trkpt lat="47.91247" lon="6.80194">
        <ele>595.5</ele>
        <time>2022-09-02T06:06:42Z</time>
      </trkpt>
      <trkpt lat="47.91246" lon="6.80194">
        <ele>595.4</ele>
        <time>2022-09-02T06:06:43Z</time>
      </trkpt>
      <trkpt lat="47.91245" lon="6.80195">
        <ele>595.3</ele>
        <time>2022-09-02T06:06:44Z</time>
      </trkpt>
      <trkpt lat="47.91244" lon="6.80196">
        <ele>595.3</ele>
        <time>2022-09-02T06:06:45Z</time>
      </trkpt>
      <trkpt lat="47.91243" lon="6.80197">
        <ele>595.3</ele>
        <time>2022-09-02T06:06:46Z</time>
      </trkpt>
      <trkpt lat="47.91242" lon="6.80197">
        <ele>595.1</ele>
        <time>2022-09-02T06:06:47Z</time>
      </trkpt>
      <trkpt lat="47.91241" lon="6.80198">
        <ele>595.1</ele>
        <time>2022-09-02T06:06:48Z</time>
      </trkpt>
      <trkpt lat="47.9124" lon="6.80199">
        <ele>595.1</ele>
        <time>2022-09-02T06:06:49Z</time>
      </trkpt>
      <trkpt lat="47.91239" lon="6.802">
        <ele>595</ele>
        <time>2022-09-02T06:06:51Z</time>
      </trkpt>
      <trkpt lat="47.91239" lon="6.80201">
        <ele>595.1</ele>
        <time>2022-09-02T06:06:52Z</time>
      </trkpt>
      <trkpt lat="47.91239" lon="6.80202">
        <ele>595.2</ele>
        <time>2022-09-02T06:06:53Z</time>
      </trkpt>
      <trkpt lat="47.91238" lon="6.80203">
        <ele>595.2</ele>
        <time>2022-09-02T06:06:54Z</time>
      </trkpt>
      <trkpt lat="47.91238" lon="6.80204">
        <ele>595.3</ele>
        <time>2022-09-02T06:06:55Z</time>
      </trkpt>
      <trkpt lat="47.91237" lon="6.80205">
        <ele>595.3</ele>
        <time>2022-09-02T06:06:56Z</time>
      </trkpt>
      <trkpt lat="47.91236" lon="6.80206">
        <ele>595.2</ele>
        <time>2022-09-02T06:06:57Z</time>
      </trkpt>
      <trkpt lat="47.91235" lon="6.80208">
        <ele>595.3</ele>
        <time>2022-09-02T06:06:58Z</time>
      </trkpt>
      <trkpt lat="47.91234" lon="6.80209">
        <ele>595.3</ele>
        <time>2022-09-02T06:06:59Z</time>
      </trkpt>
      <trkpt lat="47.91233" lon="6.8021">
        <ele>595.2</ele>
        <time>2022-09-02T06:07:00Z</time>
      </trkpt>
      <trkpt lat="47.91231" lon="6.80211">
        <ele>595.1</ele>
        <time>2022-09-02T06:07:01Z</time>
      </trkpt>
      <trkpt lat="47.91231" lon="6.80212">
        <ele>595.2</ele>
        <time>2022-09-02T06:07:02Z</time>
      </trkpt>
      <trkpt lat="47.9123" lon="6.80214">
        <ele>595.2</ele>
        <time>2022-09-02T06:07:03Z</time>
      </trkpt>
      <trkpt lat="47.91229" lon="6.80215">
        <ele>595.2</ele>
        <time>2022-09-02T06:07:04Z</time>
      </trkpt>
      <trkpt lat="47.91228" lon="6.80216">
        <ele>595.2</ele>
        <time>2022-09-02T06:07:05Z</time>
      </trkpt>
      <trkpt lat="47.91228" lon="6.80217">
        <ele>595.3</ele>
        <time>2022-09-02T06:07:06Z</time>
      </trkpt>
      <trkpt lat="47.91227" lon="6.80218">
        <ele>595.2</ele>
        <time>2022-09-02T06:07:07Z</time>
      </trkpt>
      <trkpt lat="47.91227" lon="6.80219">
        <ele>595.3</ele>
        <time>2022-09-02T06:07:08Z</time>
      </trkpt>
      <trkpt lat="47.91226" lon="6.8022">
        <ele>595.3</ele>
        <time>2022-09-02T06:07:09Z</time>
      </trkpt>
      <trkpt lat="47.91226" lon="6.80222">
        <ele>595.5</ele>
        <time>2022-09-02T06:07:10Z</time>
      </trkpt>
      <trkpt lat="47.91226" lon="6.80223">
        <ele>595.6</ele>
        <time>2022-09-02T06:07:11Z</time>
      </trkpt>
      <trkpt lat="47.91225" lon="6.80224">
        <ele>595.6</ele>
        <time>2022-09-02T06:07:12Z</time>
      </trkpt>
      <trkpt lat="47.91225" lon="6.80226">
        <ele>595.8</ele>
        <time>2022-09-02T06:07:13Z</time>
      </trkpt>
      <trkpt lat="47.91224" lon="6.80227">
        <ele>595.8</ele>
        <time>2022-09-02T06:07:14Z</time>
      </trkpt>
      <trkpt lat="47.91224" lon="6.80228">
        <ele>595.9</ele>
        <time>2022-09-02T06:07:15Z</time>
      </trkpt>
      <trkpt lat="47.91223" lon="6.80229">
        <ele>595.9</ele>
        <time>2022-09-02T06:07:16Z</time>
      </trkpt>
      <trkpt lat="47.91222" lon="6.8023">
        <ele>595.8</ele>
        <time>2022-09-02T06:07:17Z</time>
      </trkpt>
      <trkpt lat="47.91221" lon="6.80231">
        <ele>595.7</ele>
        <time>2022-09-02T06:07:18Z</time>
      </trkpt>
      <trkpt lat="47.9122" lon="6.80232">
        <ele>595.5</ele>
        <time>2022-09-02T06:07:19Z</time>
      </trkpt>
      <trkpt lat="47.91219" lon="6.80233">
        <ele>595.4</ele>
        <time>2022-09-02T06:07:20Z</time>
      </trkpt>
      <trkpt lat="47.91218" lon="6.80234">
        <ele>595.2</ele>
        <time>2022-09-02T06:07:21Z</time>
      </trkpt>
      <trkpt lat="47.91217" lon="6.80235">
        <ele>595.1</ele>
        <time>2022-09-02T06:07:22Z</time>
      </trkpt>
      <trkpt lat="47.91216" lon="6.80236">
        <ele>594.9</ele>
        <time>2022-09-02T06:07:23Z</time>
      </trkpt>
      <trkpt lat="47.91215" lon="6.80236">
        <ele>594.7</ele>
        <time>2022-09-02T06:07:24Z</time>
      </trkpt>
      <trkpt lat="47.91214" lon="6.80237">
        <ele>594.5</ele>
        <time>2022-09-02T06:07:25Z</time>
      </trkpt>
      <trkpt lat="47.91213" lon="6.80237">
        <ele>594.3</ele>
        <time>2022-09-02T06:07:26Z</time>
      </trkpt>
      <trkpt lat="47.91212" lon="6.80238">
        <ele>594.1</ele>
        <time>2022-09-02T06:07:27Z</time>
      </trkpt>
      <trkpt lat="47.91211" lon="6.80238">
        <ele>593.8</ele>
        <time>2022-09-02T06:07:28Z</time>
      </trkpt>
      <trkpt lat="47.9121" lon="6.80239">
        <ele>593.6</ele>
        <time>2022-09-02T06:07:29Z</time>
      </trkpt>
      <trkpt lat="47.91208" lon="6.80239">
        <ele>593.1</ele>
        <time>2022-09-02T06:07:30Z</time>
      </trkpt>
      <trkpt lat="47.91207" lon="6.80239">
        <ele>592.9</ele>
        <time>2022-09-02T06:07:31Z</time>
      </trkpt>
      <trkpt lat="47.91206" lon="6.8024">
        <ele>592.7</ele>
        <time>2022-09-02T06:07:32Z</time>
      </trkpt>
      <trkpt lat="47.91205" lon="6.8024">
        <ele>592.4</ele>
        <time>2022-09-02T06:07:33Z</time>
      </trkpt>
      <trkpt lat="47.91204" lon="6.8024">
        <ele>592.1</ele>
        <time>2022-09-02T06:07:35Z</time>
      </trkpt>
      <trkpt lat="47.91203" lon="6.8024">
        <ele>591.9</ele>
        <time>2022-09-02T06:07:37Z</time>
      </trkpt>
      <trkpt lat="47.91202" lon="6.80239">
        <ele>591.6</ele>
        <time>2022-09-02T06:07:39Z</time>
      </trkpt>
      <trkpt lat="47.91201" lon="6.80239">
        <ele>591.3</ele>
        <time>2022-09-02T06:07:40Z</time>
      </trkpt>
      <trkpt lat="47.91201" lon="6.80238">
        <ele>591.3</ele>
        <time>2022-09-02T06:07:41Z</time>
      </trkpt>
      <trkpt lat="47.912" lon="6.80238">
        <ele>591</ele>
        <time>2022-09-02T06:07:42Z</time>
      </trkpt>
      <trkpt lat="47.91199" lon="6.80237">
        <ele>590.7</ele>
        <time>2022-09-02T06:07:43Z</time>
      </trkpt>
      <trkpt lat="47.91198" lon="6.80236">
        <ele>590.4</ele>
        <time>2022-09-02T06:07:44Z</time>
      </trkpt>
      <trkpt lat="47.91197" lon="6.80234">
        <ele>590.1</ele>
        <time>2022-09-02T06:07:45Z</time>
      </trkpt>
      <trkpt lat="47.91196" lon="6.80233">
        <ele>589.8</ele>
        <time>2022-09-02T06:07:46Z</time>
      </trkpt>
      <trkpt lat="47.91196" lon="6.80232">
        <ele>589.7</ele>
        <time>2022-09-02T06:07:47Z</time>
      </trkpt>
      <trkpt lat="47.91195" lon="6.8023">
        <ele>589.4</ele>
        <time>2022-09-02T06:07:48Z</time>
      </trkpt>
      <trkpt lat="47.91194" lon="6.80229">
        <ele>589.1</ele>
        <time>2022-09-02T06:07:49Z</time>
      </trkpt>
      <trkpt lat="47.91194" lon="6.80228">
        <ele>589.1</ele>
        <time>2022-09-02T06:07:50Z</time>
      </trkpt>
      <trkpt lat="47.91193" lon="6.80226">
        <ele>588.8</ele>
        <time>2022-09-02T06:07:51Z</time>
      </trkpt>
      <trkpt lat="47.91193" lon="6.80225">
        <ele>588.7</ele>
        <time>2022-09-02T06:07:52Z</time>
      </trkpt>
      <trkpt lat="47.91193" lon="6.80224">
        <ele>588.7</ele>
        <time>2022-09-02T06:07:53Z</time>
      </trkpt>
      <trkpt lat="47.91192" lon="6.80222">
        <ele>588.4</ele>
        <time>2022-09-02T06:07:54Z</time>
      </trkpt>
      <trkpt lat="47.91192" lon="6.80221">
        <ele>588.3</ele>
        <time>2022-09-02T06:07:55Z</time>
      </trkpt>
      <trkpt lat="47.91192" lon="6.8022">
        <ele>588.3</ele>
        <time>2022-09-02T06:07:56Z</time>
      </trkpt>
      <trkpt lat="47.91192" lon="6.80219">
        <ele>588.2</ele>
        <time>2022-09-02T06:07:57Z</time>
      </trkpt>
      <trkpt lat="47.91192" lon="6.80218">
        <ele>588.2</ele>
        <time>2022-09-02T06:07:58Z</time>
      </trkpt>
      <trkpt lat="47.91192" lon="6.80217">
        <ele>588.1</ele>
        <time>2022-09-02T06:07:59Z</time>
      </trkpt>
      <trkpt lat="47.91191" lon="6.80215">
        <ele>587.7</ele>
        <time>2022-09-02T06:08:00Z</time>
      </trkpt>
      <trkpt lat="47.91191" lon="6.80214">
        <ele>587.6</ele>
        <time>2022-09-02T06:08:01Z</time>
      </trkpt>
      <trkpt lat="47.91191" lon="6.80213">
        <ele>587.6</ele>
        <time>2022-09-02T06:08:02Z</time>
      </trkpt>
      <trkpt lat="47.91191" lon="6.80211">
        <ele>587.4</ele>
        <time>2022-09-02T06:08:03Z</time>
      </trkpt>
      <trkpt lat="47.9119" lon="6.8021">
        <ele>587</ele>
        <time>2022-09-02T06:08:04Z</time>
      </trkpt>
      <trkpt lat="47.9119" lon="6.80209">
        <ele>586.9</ele>
        <time>2022-09-02T06:08:05Z</time>
      </trkpt>
      <trkpt lat="47.9119" lon="6.80208">
        <ele>586.9</ele>
        <time>2022-09-02T06:08:06Z</time>
      </trkpt>
      <trkpt lat="47.9119" lon="6.80206">
        <ele>586.7</ele>
        <time>2022-09-02T06:08:07Z</time>
      </trkpt>
      <trkpt lat="47.9119" lon="6.80205">
        <ele>586.7</ele>
        <time>2022-09-02T06:08:08Z</time>
      </trkpt>
      <trkpt lat="47.9119" lon="6.80204">
        <ele>586.6</ele>
        <time>2022-09-02T06:08:09Z</time>
      </trkpt>
      <trkpt lat="47.9119" lon="6.80203">
        <ele>586.5</ele>
        <time>2022-09-02T06:08:12Z</time>
      </trkpt>
      <trkpt lat="47.91189" lon="6.80203">
        <ele>586.1</ele>
        <time>2022-09-02T06:08:13Z</time>
      </trkpt>
      <trkpt lat="47.91189" lon="6.80202">
        <ele>586</ele>
        <time>2022-09-02T06:08:14Z</time>
      </trkpt>
      <trkpt lat="47.91188" lon="6.80201">
        <ele>585.5</ele>
        <time>2022-09-02T06:08:16Z</time>
      </trkpt>
      <trkpt lat="47.91188" lon="6.802">
        <ele>585.5</ele>
        <time>2022-09-02T06:08:17Z</time>
      </trkpt>
      <trkpt lat="47.91187" lon="6.802">
        <ele>585</ele>
        <time>2022-09-02T06:08:18Z</time>
      </trkpt>
      <trkpt lat="47.91186" lon="6.802">
        <ele>584.6</ele>
        <time>2022-09-02T06:08:19Z</time>
      </trkpt>
      <trkpt lat="47.91186" lon="6.80201">
        <ele>584.7</ele>
        <time>2022-09-02T06:08:20Z</time>
      </trkpt>
      <trkpt lat="47.91185" lon="6.80201">
        <ele>584.3</ele>
        <time>2022-09-02T06:08:21Z</time>
      </trkpt>
      <trkpt lat="47.91185" lon="6.80202">
        <ele>584.4</ele>
        <time>2022-09-02T06:08:22Z</time>
      </trkpt>
      <trkpt lat="47.91184" lon="6.80202">
        <ele>584</ele>
        <time>2022-09-02T06:08:23Z</time>
      </trkpt>
      <trkpt lat="47.91183" lon="6.80203">
        <ele>583.7</ele>
        <time>2022-09-02T06:08:24Z</time>
      </trkpt>
      <trkpt lat="47.91182" lon="6.80203">
        <ele>583.3</ele>
        <time>2022-09-02T06:08:25Z</time>
      </trkpt>
      <trkpt lat="47.91181" lon="6.80204">
        <ele>583.1</ele>
        <time>2022-09-02T06:08:26Z</time>
      </trkpt>
      <trkpt lat="47.91181" lon="6.80205">
        <ele>583.2</ele>
        <time>2022-09-02T06:08:27Z</time>
      </trkpt>
      <trkpt lat="47.9118" lon="6.80205">
        <ele>582.8</ele>
        <time>2022-09-02T06:08:28Z</time>
      </trkpt>
      <trkpt lat="47.9118" lon="6.80206">
        <ele>583</ele>
        <time>2022-09-02T06:08:29Z</time>
      </trkpt>
      <trkpt lat="47.91179" lon="6.80207">
        <ele>582.7</ele>
        <time>2022-09-02T06:08:30Z</time>
      </trkpt>
      <trkpt lat="47.91179" lon="6.80208">
        <ele>582.9</ele>
        <time>2022-09-02T06:08:31Z</time>
      </trkpt>
      <trkpt lat="47.91178" lon="6.80209">
        <ele>582.7</ele>
        <time>2022-09-02T06:08:32Z</time>
      </trkpt>
      <trkpt lat="47.91178" lon="6.8021">
        <ele>582.9</ele>
        <time>2022-09-02T06:08:33Z</time>
      </trkpt>
      <trkpt lat="47.91177" lon="6.80212">
        <ele>582.8</ele>
        <time>2022-09-02T06:08:34Z</time>
      </trkpt>
      <trkpt lat="47.91177" lon="6.80213">
        <ele>583</ele>
        <time>2022-09-02T06:08:35Z</time>
      </trkpt>
      <trkpt lat="47.91176" lon="6.80214">
        <ele>582.9</ele>
        <time>2022-09-02T06:08:36Z</time>
      </trkpt>
      <trkpt lat="47.91176" lon="6.80215">
        <ele>583.1</ele>
        <time>2022-09-02T06:08:37Z</time>
      </trkpt>
      <trkpt lat="47.91176" lon="6.80216">
        <ele>583.2</ele>
        <time>2022-09-02T06:08:38Z</time>
      </trkpt>
      <trkpt lat="47.91175" lon="6.80217">
        <ele>583.1</ele>
        <time>2022-09-02T06:08:39Z</time>
      </trkpt>
      <trkpt lat="47.91175" lon="6.80218">
        <ele>583.3</ele>
        <time>2022-09-02T06:08:40Z</time>
      </trkpt>
      <trkpt lat="47.91175" lon="6.8022">
        <ele>583.7</ele>
        <time>2022-09-02T06:08:41Z</time>
      </trkpt>
      <trkpt lat="47.91174" lon="6.80221">
        <ele>583.6</ele>
        <time>2022-09-02T06:08:42Z</time>
      </trkpt>
      <trkpt lat="47.91173" lon="6.80222">
        <ele>583.6</ele>
        <time>2022-09-02T06:08:44Z</time>
      </trkpt>
      <trkpt lat="47.91173" lon="6.80223">
        <ele>583.6</ele>
        <time>2022-09-02T06:08:45Z</time>
      </trkpt>
      <trkpt lat="47.91172" lon="6.80224">
        <ele>583.5</ele>
        <time>2022-09-02T06:08:46Z</time>
      </trkpt>
      <trkpt lat="47.91172" lon="6.80225">
        <ele>583.5</ele>
        <time>2022-09-02T06:08:47Z</time>
      </trkpt>
      <trkpt lat="47.91171" lon="6.80225">
        <ele>583.3</ele>
        <time>2022-09-02T06:08:48Z</time>
      </trkpt>
      <trkpt lat="47.91171" lon="6.80226">
        <ele>583.3</ele>
        <time>2022-09-02T06:08:49Z</time>
      </trkpt>
      <trkpt lat="47.9117" lon="6.80227">
        <ele>583.2</ele>
        <time>2022-09-02T06:08:50Z</time>
      </trkpt>
      <trkpt lat="47.91169" lon="6.80227">
        <ele>582.9</ele>
        <time>2022-09-02T06:08:51Z</time>
      </trkpt>
      <trkpt lat="47.91169" lon="6.80228">
        <ele>583</ele>
        <time>2022-09-02T06:08:52Z</time>
      </trkpt>
      <trkpt lat="47.91168" lon="6.80228">
        <ele>582.7</ele>
        <time>2022-09-02T06:08:53Z</time>
      </trkpt>
      <trkpt lat="47.91167" lon="6.80229">
        <ele>582.6</ele>
        <time>2022-09-02T06:08:54Z</time>
      </trkpt>
      <trkpt lat="47.91166" lon="6.8023">
        <ele>582.5</ele>
        <time>2022-09-02T06:08:55Z</time>
      </trkpt>
      <trkpt lat="47.91165" lon="6.80231">
        <ele>582.4</ele>
        <time>2022-09-02T06:08:57Z</time>
      </trkpt>
      <trkpt lat="47.91165" lon="6.80232">
        <ele>582.5</ele>
        <time>2022-09-02T06:08:58Z</time>
      </trkpt>
      <trkpt lat="47.91164" lon="6.80233">
        <ele>582.4</ele>
        <time>2022-09-02T06:08:59Z</time>
      </trkpt>
      <trkpt lat="47.91164" lon="6.80234">
        <ele>582.5</ele>
        <time>2022-09-02T06:09:00Z</time>
      </trkpt>
      <trkpt lat="47.91163" lon="6.80235">
        <ele>582.4</ele>
        <time>2022-09-02T06:09:01Z</time>
      </trkpt>
      <trkpt lat="47.91162" lon="6.80235">
        <ele>582.3</ele>
        <time>2022-09-02T06:09:02Z</time>
      </trkpt>
      <trkpt lat="47.91161" lon="6.80236">
        <ele>582.2</ele>
        <time>2022-09-02T06:09:03Z</time>
      </trkpt>
      <trkpt lat="47.9116" lon="6.80236">
        <ele>582</ele>
        <time>2022-09-02T06:09:04Z</time>
      </trkpt>
      <trkpt lat="47.91158" lon="6.80236">
        <ele>581.7</ele>
        <time>2022-09-02T06:09:05Z</time>
      </trkpt>
      <trkpt lat="47.91157" lon="6.80236">
        <ele>581.6</ele>
        <time>2022-09-02T06:09:06Z</time>
      </trkpt>
      <trkpt lat="47.91156" lon="6.80235">
        <ele>581.4</ele>
        <time>2022-09-02T06:09:07Z</time>
      </trkpt>
      <trkpt lat="47.91155" lon="6.80234">
        <ele>581.2</ele>
        <time>2022-09-02T06:09:30Z</time>
      </trkpt>
      <trkpt lat="47.91154" lon="6.80234">
        <ele>581.1</ele>
        <time>2022-09-02T06:09:32Z</time>
      </trkpt>
      <trkpt lat="47.91154" lon="6.80233">
        <ele>581.1</ele>
        <time>2022-09-02T06:09:33Z</time>
      </trkpt>
      <trkpt lat="47.91153" lon="6.80233">
        <ele>580.9</ele>
        <time>2022-09-02T06:09:34Z</time>
      </trkpt>
      <trkpt lat="47.91153" lon="6.80232">
        <ele>580.9</ele>
        <time>2022-09-02T06:09:35Z</time>
      </trkpt>
      <trkpt lat="47.91152" lon="6.80231">
        <ele>580.7</ele>
        <time>2022-09-02T06:09:36Z</time>
      </trkpt>
      <trkpt lat="47.91151" lon="6.80231">
        <ele>580.6</ele>
        <time>2022-09-02T06:09:37Z</time>
      </trkpt>
      <trkpt lat="47.91151" lon="6.8023">
        <ele>580.6</ele>
        <time>2022-09-02T06:09:38Z</time>
      </trkpt>
      <trkpt lat="47.9115" lon="6.80229">
        <ele>580.4</ele>
        <time>2022-09-02T06:09:39Z</time>
      </trkpt>
      <trkpt lat="47.91149" lon="6.80229">
        <ele>580.3</ele>
        <time>2022-09-02T06:09:40Z</time>
      </trkpt>
      <trkpt lat="47.91149" lon="6.80228">
        <ele>580.2</ele>
        <time>2022-09-02T06:09:41Z</time>
      </trkpt>
      <trkpt lat="47.91148" lon="6.80227">
        <ele>580.1</ele>
        <time>2022-09-02T06:09:42Z</time>
      </trkpt>
      <trkpt lat="47.91147" lon="6.80226">
        <ele>580</ele>
        <time>2022-09-02T06:09:43Z</time>
      </trkpt>
      <trkpt lat="47.91146" lon="6.80225">
        <ele>579.8</ele>
        <time>2022-09-02T06:09:45Z</time>
      </trkpt>
      <trkpt lat="47.91145" lon="6.80224">
        <ele>579.7</ele>
        <time>2022-09-02T06:09:46Z</time>
      </trkpt>
      <trkpt lat="47.91145" lon="6.80223">
        <ele>579.7</ele>
        <time>2022-09-02T06:09:47Z</time>
      </trkpt>
      <trkpt lat="47.91144" lon="6.80221">
        <ele>579.6</ele>
        <time>2022-09-02T06:09:48Z</time>
      </trkpt>
      <trkpt lat="47.91144" lon="6.8022">
        <ele>579.6</ele>
        <time>2022-09-02T06:09:49Z</time>
      </trkpt>
      <trkpt lat="47.91143" lon="6.80218">
        <ele>579.5</ele>
        <time>2022-09-02T06:09:50Z</time>
      </trkpt>
      <trkpt lat="47.91143" lon="6.80217">
        <ele>579.6</ele>
        <time>2022-09-02T06:09:51Z</time>
      </trkpt>
      <trkpt lat="47.91143" lon="6.80216">
        <ele>579.6</ele>
        <time>2022-09-02T06:09:52Z</time>
      </trkpt>
      <trkpt lat="47.91143" lon="6.80214">
        <ele>579.6</ele>
        <time>2022-09-02T06:09:53Z</time>
      </trkpt>
      <trkpt lat="47.91143" lon="6.80212">
        <ele>579.7</ele>
        <time>2022-09-02T06:09:54Z</time>
      </trkpt>
      <trkpt lat="47.91144" lon="6.8021">
        <ele>579.7</ele>
        <time>2022-09-02T06:09:55Z</time>
      </trkpt>
      <trkpt lat="47.91144" lon="6.80209">
        <ele>579.7</ele>
        <time>2022-09-02T06:09:56Z</time>
      </trkpt>
      <trkpt lat="47.91144" lon="6.80207">
        <ele>579.7</ele>
        <time>2022-09-02T06:09:57Z</time>
      </trkpt>
      <trkpt lat="47.91145" lon="6.80206">
        <ele>579.7</ele>
        <time>2022-09-02T06:09:58Z</time>
      </trkpt>
      <trkpt lat="47.91145" lon="6.80205">
        <ele>579.7</ele>
        <time>2022-09-02T06:09:59Z</time>
      </trkpt>
      <trkpt lat="47.91146" lon="6.80204">
        <ele>579.6</ele>
        <time>2022-09-02T06:10:00Z</time>
      </trkpt>
      <trkpt lat="47.91146" lon="6.80203">
        <ele>579.6</ele>
        <time>2022-09-02T06:10:01Z</time>
      </trkpt>
      <trkpt lat="47.91146" lon="6.80202">
        <ele>579.5</ele>
        <time>2022-09-02T06:10:02Z</time>
      </trkpt>
      <trkpt lat="47.91147" lon="6.80201">
        <ele>579.4</ele>
        <time>2022-09-02T06:10:03Z</time>
      </trkpt>
      <trkpt lat="47.91148" lon="6.80198">
        <ele>579.2</ele>
        <time>2022-09-02T06:10:35Z</time>
      </trkpt>
      <trkpt lat="47.91149" lon="6.80197">
        <ele>578.9</ele>
        <time>2022-09-02T06:10:36Z</time>
      </trkpt>
      <trkpt lat="47.91149" lon="6.80196">
        <ele>578.9</ele>
        <time>2022-09-02T06:10:37Z</time>
      </trkpt>
      <trkpt lat="47.9115" lon="6.80195">
        <ele>578.6</ele>
        <time>2022-09-02T06:10:38Z</time>
      </trkpt>
      <trkpt lat="47.9115" lon="6.80194">
        <ele>578.6</ele>
        <time>2022-09-02T06:10:39Z</time>
      </trkpt>
      <trkpt lat="47.9115" lon="6.80193">
        <ele>578.6</ele>
        <time>2022-09-02T06:10:40Z</time>
      </trkpt>
      <trkpt lat="47.9115" lon="6.80192">
        <ele>578.5</ele>
        <time>2022-09-02T06:10:41Z</time>
      </trkpt>
      <trkpt lat="47.91151" lon="6.8019">
        <ele>578.2</ele>
        <time>2022-09-02T06:10:42Z</time>
      </trkpt>
      <trkpt lat="47.91151" lon="6.80189">
        <ele>578.2</ele>
        <time>2022-09-02T06:10:43Z</time>
      </trkpt>
      <trkpt lat="47.91151" lon="6.80188">
        <ele>578.2</ele>
        <time>2022-09-02T06:10:44Z</time>
      </trkpt>
      <trkpt lat="47.91151" lon="6.80187">
        <ele>578.2</ele>
        <time>2022-09-02T06:10:45Z</time>
      </trkpt>
      <trkpt lat="47.91151" lon="6.80185">
        <ele>578.1</ele>
        <time>2022-09-02T06:10:46Z</time>
      </trkpt>
      <trkpt lat="47.91151" lon="6.80184">
        <ele>578.1</ele>
        <time>2022-09-02T06:10:47Z</time>
      </trkpt>
      <trkpt lat="47.9115" lon="6.80183">
        <ele>578.3</ele>
        <time>2022-09-02T06:10:48Z</time>
      </trkpt>
      <trkpt lat="47.9115" lon="6.80181">
        <ele>578.2</ele>
        <time>2022-09-02T06:10:49Z</time>
      </trkpt>
      <trkpt lat="47.91149" lon="6.8018">
        <ele>578.4</ele>
        <time>2022-09-02T06:10:50Z</time>
      </trkpt>
      <trkpt lat="47.91148" lon="6.80178">
        <ele>578.6</ele>
        <time>2022-09-02T06:10:51Z</time>
      </trkpt>
      <trkpt lat="47.91147" lon="6.80177">
        <ele>578.9</ele>
        <time>2022-09-02T06:10:52Z</time>
      </trkpt>
      <trkpt lat="47.91146" lon="6.80175">
        <ele>579.1</ele>
        <time>2022-09-02T06:10:53Z</time>
      </trkpt>
      <trkpt lat="47.91145" lon="6.80173">
        <ele>579.3</ele>
        <time>2022-09-02T06:10:54Z</time>
      </trkpt>
      <trkpt lat="47.91144" lon="6.80172">
        <ele>579.6</ele>
        <time>2022-09-02T06:10:55Z</time>
      </trkpt>
      <trkpt lat="47.91143" lon="6.8017">
        <ele>579.9</ele>
        <time>2022-09-02T06:10:56Z</time>
      </trkpt>
      <trkpt lat="47.91142" lon="6.80169">
        <ele>580.1</ele>
        <time>2022-09-02T06:10:57Z</time>
      </trkpt>
      <trkpt lat="47.91141" lon="6.80168">
        <ele>580.4</ele>
        <time>2022-09-02T06:10:58Z</time>
      </trkpt>
      <trkpt lat="47.91141" lon="6.80167">
        <ele>580.4</ele>
        <time>2022-09-02T06:10:59Z</time>
      </trkpt>
      <trkpt lat="47.9114" lon="6.80166">
        <ele>580.6</ele>
        <time>2022-09-02T06:11:00Z</time>
      </trkpt>
      <trkpt lat="47.91139" lon="6.80165">
        <ele>580.8</ele>
        <time>2022-09-02T06:11:01Z</time>
      </trkpt>
      <trkpt lat="47.91139" lon="6.80164">
        <ele>580.8</ele>
        <time>2022-09-02T06:11:02Z</time>
      </trkpt>
      <trkpt lat="47.91138" lon="6.80163">
        <ele>581</ele>
        <time>2022-09-02T06:11:03Z</time>
      </trkpt>
      <trkpt lat="47.91138" lon="6.80162">
        <ele>580.9</ele>
        <time>2022-09-02T06:11:04Z</time>
      </trkpt>
      <trkpt lat="47.91138" lon="6.80161">
        <ele>580.8</ele>
        <time>2022-09-02T06:11:05Z</time>
      </trkpt>
      <trkpt lat="47.91137" lon="6.8016">
        <ele>581</ele>
        <time>2022-09-02T06:11:06Z</time>
      </trkpt>
      <trkpt lat="47.91137" lon="6.80159">
        <ele>581</ele>
        <time>2022-09-02T06:11:07Z</time>
      </trkpt>
      <trkpt lat="47.91137" lon="6.80158">
        <ele>580.9</ele>
        <time>2022-09-02T06:11:08Z</time>
      </trkpt>
      <trkpt lat="47.91136" lon="6.80157">
        <ele>581.1</ele>
        <time>2022-09-02T06:11:09Z</time>
      </trkpt>
      <trkpt lat="47.91136" lon="6.80156">
        <ele>581.1</ele>
        <time>2022-09-02T06:11:10Z</time>
      </trkpt>
      <trkpt lat="47.91135" lon="6.80155">
        <ele>581.3</ele>
        <time>2022-09-02T06:11:11Z</time>
      </trkpt>
      <trkpt lat="47.91135" lon="6.80154">
        <ele>581.3</ele>
        <time>2022-09-02T06:11:12Z</time>
      </trkpt>
      <trkpt lat="47.91135" lon="6.80153">
        <ele>581.2</ele>
        <time>2022-09-02T06:11:13Z</time>
      </trkpt>
      <trkpt lat="47.91135" lon="6.80151">
        <ele>581.1</ele>
        <time>2022-09-02T06:11:14Z</time>
      </trkpt>
      <trkpt lat="47.91135" lon="6.80149">
        <ele>581</ele>
        <time>2022-09-02T06:11:15Z</time>
      </trkpt>
      <trkpt lat="47.91134" lon="6.80148">
        <ele>581.2</ele>
        <time>2022-09-02T06:11:16Z</time>
      </trkpt>
      <trkpt lat="47.91134" lon="6.80146">
        <ele>581.1</ele>
        <time>2022-09-02T06:11:17Z</time>
      </trkpt>
      <trkpt lat="47.91134" lon="6.80144">
        <ele>581</ele>
        <time>2022-09-02T06:11:18Z</time>
      </trkpt>
      <trkpt lat="47.91134" lon="6.80142">
        <ele>580.9</ele>
        <time>2022-09-02T06:11:19Z</time>
      </trkpt>
      <trkpt lat="47.91133" lon="6.8014">
        <ele>581.2</ele>
        <time>2022-09-02T06:11:20Z</time>
      </trkpt>
      <trkpt lat="47.91133" lon="6.80138">
        <ele>581.1</ele>
        <time>2022-09-02T06:11:21Z</time>
      </trkpt>
      <trkpt lat="47.91133" lon="6.80136">
        <ele>581.2</ele>
        <time>2022-09-02T06:11:22Z</time>
      </trkpt>
      <trkpt lat="47.91133" lon="6.80134">
        <ele>581.2</ele>
        <time>2022-09-02T06:11:23Z</time>
      </trkpt>
      <trkpt lat="47.91132" lon="6.80133">
        <ele>581.6</ele>
        <time>2022-09-02T06:11:24Z</time>
      </trkpt>
      <trkpt lat="47.91132" lon="6.80131">
        <ele>581.6</ele>
        <time>2022-09-02T06:11:25Z</time>
      </trkpt>
      <trkpt lat="47.91132" lon="6.8013">
        <ele>581.6</ele>
        <time>2022-09-02T06:11:26Z</time>
      </trkpt>
      <trkpt lat="47.91131" lon="6.80128">
        <ele>582</ele>
        <time>2022-09-02T06:11:27Z</time>
      </trkpt>
      <trkpt lat="47.9113" lon="6.80127">
        <ele>582.4</ele>
        <time>2022-09-02T06:11:28Z</time>
      </trkpt>
      <trkpt lat="47.9113" lon="6.80126">
        <ele>582.4</ele>
        <time>2022-09-02T06:11:29Z</time>
      </trkpt>
      <trkpt lat="47.91129" lon="6.80124">
        <ele>582.7</ele>
        <time>2022-09-02T06:11:30Z</time>
      </trkpt>
      <trkpt lat="47.91129" lon="6.80123">
        <ele>582.7</ele>
        <time>2022-09-02T06:11:31Z</time>
      </trkpt>
      <trkpt lat="47.91128" lon="6.80122">
        <ele>583.1</ele>
        <time>2022-09-02T06:11:32Z</time>
      </trkpt>
      <trkpt lat="47.91128" lon="6.80121">
        <ele>583.1</ele>
        <time>2022-09-02T06:11:33Z</time>
      </trkpt>
      <trkpt lat="47.91128" lon="6.80119">
        <ele>583.1</ele>
        <time>2022-09-02T06:11:34Z</time>
      </trkpt>
      <trkpt lat="47.91128" lon="6.80118">
        <ele>583.1</ele>
        <time>2022-09-02T06:11:35Z</time>
      </trkpt>
      <trkpt lat="47.91128" lon="6.80116">
        <ele>583.1</ele>
        <time>2022-09-02T06:11:36Z</time>
      </trkpt>
      <trkpt lat="47.91128" lon="6.80114">
        <ele>583.1</ele>
        <time>2022-09-02T06:11:37Z</time>
      </trkpt>
      <trkpt lat="47.91128" lon="6.80113">
        <ele>583.1</ele>
        <time>2022-09-02T06:11:38Z</time>
      </trkpt>
      <trkpt lat="47.91128" lon="6.80111">
        <ele>583.1</ele>
        <time>2022-09-02T06:11:39Z</time>
      </trkpt>
      <trkpt lat="47.91128" lon="6.8011">
        <ele>583.1</ele>
        <time>2022-09-02T06:11:40Z</time>
      </trkpt>
      <trkpt lat="47.91127" lon="6.80109">
        <ele>583.4</ele>
        <time>2022-09-02T06:11:41Z</time>
      </trkpt>
      <trkpt lat="47.91127" lon="6.80107">
        <ele>583.3</ele>
        <time>2022-09-02T06:11:42Z</time>
      </trkpt>
      <trkpt lat="47.91127" lon="6.80106">
        <ele>583.3</ele>
        <time>2022-09-02T06:11:43Z</time>
      </trkpt>
      <trkpt lat="47.91126" lon="6.80105">
        <ele>583.6</ele>
        <time>2022-09-02T06:11:44Z</time>
      </trkpt>
      <trkpt lat="47.91126" lon="6.80104">
        <ele>583.6</ele>
        <time>2022-09-02T06:11:45Z</time>
      </trkpt>
      <trkpt lat="47.91126" lon="6.80103">
        <ele>583.5</ele>
        <time>2022-09-02T06:11:47Z</time>
      </trkpt>
      <trkpt lat="47.91125" lon="6.80102">
        <ele>583.8</ele>
        <time>2022-09-02T06:11:48Z</time>
      </trkpt>
      <trkpt lat="47.91125" lon="6.80101">
        <ele>583.8</ele>
        <time>2022-09-02T06:11:49Z</time>
      </trkpt>
      <trkpt lat="47.91124" lon="6.801">
        <ele>584.1</ele>
        <time>2022-09-02T06:11:51Z</time>
      </trkpt>
      <trkpt lat="47.91124" lon="6.80099">
        <ele>584.1</ele>
        <time>2022-09-02T06:11:52Z</time>
      </trkpt>
      <trkpt lat="47.91123" lon="6.80098">
        <ele>584.4</ele>
        <time>2022-09-02T06:11:53Z</time>
      </trkpt>
      <trkpt lat="47.91122" lon="6.80097">
        <ele>584.8</ele>
        <time>2022-09-02T06:11:54Z</time>
      </trkpt>
      <trkpt lat="47.91122" lon="6.80095">
        <ele>584.8</ele>
        <time>2022-09-02T06:11:55Z</time>
      </trkpt>
      <trkpt lat="47.91122" lon="6.80094">
        <ele>584.8</ele>
        <time>2022-09-02T06:11:56Z</time>
      </trkpt>
      <trkpt lat="47.91121" lon="6.80094">
        <ele>585.1</ele>
        <time>2022-09-02T06:11:57Z</time>
      </trkpt>
      <trkpt lat="47.91121" lon="6.80093">
        <ele>585.1</ele>
        <time>2022-09-02T06:11:58Z</time>
      </trkpt>
      <trkpt lat="47.9112" lon="6.80092">
        <ele>585.5</ele>
        <time>2022-09-02T06:11:59Z</time>
      </trkpt>
      <trkpt lat="47.9112" lon="6.80091">
        <ele>585.5</ele>
        <time>2022-09-02T06:12:00Z</time>
      </trkpt>
      <trkpt lat="47.9112" lon="6.8009">
        <ele>585.5</ele>
        <time>2022-09-02T06:12:01Z</time>
      </trkpt>
      <trkpt lat="47.91119" lon="6.80089">
        <ele>585.8</ele>
        <time>2022-09-02T06:12:02Z</time>
      </trkpt>
      <trkpt lat="47.91119" lon="6.80088">
        <ele>585.9</ele>
        <time>2022-09-02T06:12:03Z</time>
      </trkpt>
      <trkpt lat="47.91118" lon="6.80088">
        <ele>586.2</ele>
        <time>2022-09-02T06:12:04Z</time>
      </trkpt>
      <trkpt lat="47.91118" lon="6.80087">
        <ele>586.2</ele>
        <time>2022-09-02T06:12:05Z</time>
      </trkpt>
      <trkpt lat="47.91117" lon="6.80087">
        <ele>586.6</ele>
        <time>2022-09-02T06:12:06Z</time>
      </trkpt>
      <trkpt lat="47.91116" lon="6.80087">
        <ele>587</ele>
        <time>2022-09-02T06:12:07Z</time>
      </trkpt>
      <trkpt lat="47.91115" lon="6.80086">
        <ele>587.4</ele>
        <time>2022-09-02T06:12:08Z</time>
      </trkpt>
      <trkpt lat="47.91114" lon="6.80086">
        <ele>587.8</ele>
        <time>2022-09-02T06:12:09Z</time>
      </trkpt>
      <trkpt lat="47.91113" lon="6.80086">
        <ele>588.2</ele>
        <time>2022-09-02T06:12:11Z</time>
      </trkpt>
      <trkpt lat="47.91112" lon="6.80086">
        <ele>588.6</ele>
        <time>2022-09-02T06:12:12Z</time>
      </trkpt>
      <trkpt lat="47.91111" lon="6.80086">
        <ele>588.9</ele>
        <time>2022-09-02T06:12:13Z</time>
      </trkpt>
      <trkpt lat="47.91111" lon="6.80085">
        <ele>589</ele>
        <time>2022-09-02T06:12:14Z</time>
      </trkpt>
      <trkpt lat="47.9111" lon="6.80085">
        <ele>589.1</ele>
        <time>2022-09-02T06:12:15Z</time>
      </trkpt>
      <trkpt lat="47.91109" lon="6.80085">
        <ele>589.2</ele>
        <time>2022-09-02T06:12:16Z</time>
      </trkpt>
      <trkpt lat="47.91108" lon="6.80085">
        <ele>589.4</ele>
        <time>2022-09-02T06:12:17Z</time>
      </trkpt>
      <trkpt lat="47.91108" lon="6.80084">
        <ele>589.4</ele>
        <time>2022-09-02T06:12:18Z</time>
      </trkpt>
      <trkpt lat="47.91107" lon="6.80084">
        <ele>589.6</ele>
        <time>2022-09-02T06:12:19Z</time>
      </trkpt>
      <trkpt lat="47.91106" lon="6.80084">
        <ele>589.7</ele>
        <time>2022-09-02T06:12:20Z</time>
      </trkpt>
      <trkpt lat="47.91105" lon="6.80084">
        <ele>589.9</ele>
        <time>2022-09-02T06:12:22Z</time>
      </trkpt>
      <trkpt lat="47.91104" lon="6.80083">
        <ele>590</ele>
        <time>2022-09-02T06:12:24Z</time>
      </trkpt>
      <trkpt lat="47.91103" lon="6.80083">
        <ele>590.2</ele>
        <time>2022-09-02T06:12:25Z</time>
      </trkpt>
      <trkpt lat="47.91102" lon="6.80083">
        <ele>590.3</ele>
        <time>2022-09-02T06:12:27Z</time>
      </trkpt>
      <trkpt lat="47.91101" lon="6.80083">
        <ele>590.5</ele>
        <time>2022-09-02T06:12:29Z</time>
      </trkpt>
      <trkpt lat="47.911" lon="6.80083">
        <ele>590.6</ele>
        <time>2022-09-02T06:12:30Z</time>
      </trkpt>
      <trkpt lat="47.911" lon="6.80082">
        <ele>590.6</ele>
        <time>2022-09-02T06:12:31Z</time>
      </trkpt>
      <trkpt lat="47.91099" lon="6.80082">
        <ele>590.7</ele>
        <time>2022-09-02T06:12:32Z</time>
      </trkpt>
      <trkpt lat="47.91098" lon="6.80082">
        <ele>590.9</ele>
        <time>2022-09-02T06:12:33Z</time>
      </trkpt>
      <trkpt lat="47.91097" lon="6.80082">
        <ele>591</ele>
        <time>2022-09-02T06:12:35Z</time>
      </trkpt>
      <trkpt lat="47.91096" lon="6.80081">
        <ele>591.2</ele>
        <time>2022-09-02T06:12:36Z</time>
      </trkpt>
      <trkpt lat="47.91095" lon="6.80081">
        <ele>591.3</ele>
        <time>2022-09-02T06:12:37Z</time>
      </trkpt>
      <trkpt lat="47.91094" lon="6.80082">
        <ele>591.5</ele>
        <time>2022-09-02T06:12:39Z</time>
      </trkpt>
      <trkpt lat="47.91093" lon="6.80082">
        <ele>591.6</ele>
        <time>2022-09-02T06:12:40Z</time>
      </trkpt>
      <trkpt lat="47.91092" lon="6.80082">
        <ele>591.8</ele>
        <time>2022-09-02T06:12:42Z</time>
      </trkpt>
      <trkpt lat="47.91091" lon="6.80082">
        <ele>591.9</ele>
        <time>2022-09-02T06:12:43Z</time>
      </trkpt>
      <trkpt lat="47.9109" lon="6.80082">
        <ele>592</ele>
        <time>2022-09-02T06:12:44Z</time>
      </trkpt>
      <trkpt lat="47.91089" lon="6.80082">
        <ele>592.2</ele>
        <time>2022-09-02T06:12:46Z</time>
      </trkpt>
      <trkpt lat="47.91088" lon="6.80082">
        <ele>592.3</ele>
        <time>2022-09-02T06:12:47Z</time>
      </trkpt>
      <trkpt lat="47.91087" lon="6.80082">
        <ele>592.5</ele>
        <time>2022-09-02T06:12:48Z</time>
      </trkpt>
      <trkpt lat="47.91086" lon="6.80082">
        <ele>592.6</ele>
        <time>2022-09-02T06:12:49Z</time>
      </trkpt>
      <trkpt lat="47.91085" lon="6.80083">
        <ele>592.8</ele>
        <time>2022-09-02T06:12:50Z</time>
      </trkpt>
      <trkpt lat="47.91084" lon="6.80083">
        <ele>592.9</ele>
        <time>2022-09-02T06:12:51Z</time>
      </trkpt>
      <trkpt lat="47.91083" lon="6.80083">
        <ele>593</ele>
        <time>2022-09-02T06:12:53Z</time>
      </trkpt>
      <trkpt lat="47.91082" lon="6.80084">
        <ele>593.2</ele>
        <time>2022-09-02T06:12:54Z</time>
      </trkpt>
      <trkpt lat="47.91081" lon="6.80084">
        <ele>593.3</ele>
        <time>2022-09-02T06:12:55Z</time>
      </trkpt>
      <trkpt lat="47.9108" lon="6.80084">
        <ele>593.5</ele>
        <time>2022-09-02T06:12:56Z</time>
      </trkpt>
      <trkpt lat="47.91079" lon="6.80083">
        <ele>593.6</ele>
        <time>2022-09-02T06:12:57Z</time>
      </trkpt>
      <trkpt lat="47.91078" lon="6.80082">
        <ele>593.8</ele>
        <time>2022-09-02T06:12:59Z</time>
      </trkpt>
      <trkpt lat="47.91077" lon="6.80082">
        <ele>593.9</ele>
        <time>2022-09-02T06:13:00Z</time>
      </trkpt>
      <trkpt lat="47.91077" lon="6.80081">
        <ele>593.9</ele>
        <time>2022-09-02T06:13:01Z</time>
      </trkpt>
      <trkpt lat="47.91076" lon="6.80081">
        <ele>594.1</ele>
        <time>2022-09-02T06:13:02Z</time>
      </trkpt>
      <trkpt lat="47.91075" lon="6.80081">
        <ele>594.2</ele>
        <time>2022-09-02T06:13:03Z</time>
      </trkpt>
      <trkpt lat="47.91074" lon="6.80081">
        <ele>594.3</ele>
        <time>2022-09-02T06:13:04Z</time>
      </trkpt>
      <trkpt lat="47.91073" lon="6.8008">
        <ele>594.5</ele>
        <time>2022-09-02T06:13:06Z</time>
      </trkpt>
      <trkpt lat="47.91072" lon="6.8008">
        <ele>594.6</ele>
        <time>2022-09-02T06:13:07Z</time>
      </trkpt>
      <trkpt lat="47.91071" lon="6.8008">
        <ele>594.8</ele>
        <time>2022-09-02T06:13:08Z</time>
      </trkpt>
      <trkpt lat="47.91071" lon="6.80079">
        <ele>594.8</ele>
        <time>2022-09-02T06:13:09Z</time>
      </trkpt>
      <trkpt lat="47.9107" lon="6.80079">
        <ele>594.9</ele>
        <time>2022-09-02T06:13:10Z</time>
      </trkpt>
      <trkpt lat="47.91069" lon="6.80078">
        <ele>595.1</ele>
        <time>2022-09-02T06:13:11Z</time>
      </trkpt>
      <trkpt lat="47.91068" lon="6.80078">
        <ele>595.2</ele>
        <time>2022-09-02T06:13:12Z</time>
      </trkpt>
      <trkpt lat="47.91067" lon="6.80077">
        <ele>595.4</ele>
        <time>2022-09-02T06:13:13Z</time>
      </trkpt>
      <trkpt lat="47.91067" lon="6.80076">
        <ele>595.4</ele>
        <time>2022-09-02T06:13:14Z</time>
      </trkpt>
      <trkpt lat="47.91066" lon="6.80076">
        <ele>595.5</ele>
        <time>2022-09-02T06:13:15Z</time>
      </trkpt>
      <trkpt lat="47.91065" lon="6.80075">
        <ele>595.6</ele>
        <time>2022-09-02T06:13:16Z</time>
      </trkpt>
      <trkpt lat="47.91064" lon="6.80075">
        <ele>595.8</ele>
        <time>2022-09-02T06:13:17Z</time>
      </trkpt>
      <trkpt lat="47.91063" lon="6.80074">
        <ele>595.9</ele>
        <time>2022-09-02T06:13:18Z</time>
      </trkpt>
      <trkpt lat="47.91062" lon="6.80074">
        <ele>596.1</ele>
        <time>2022-09-02T06:13:19Z</time>
      </trkpt>
      <trkpt lat="47.91061" lon="6.80073">
        <ele>596.2</ele>
        <time>2022-09-02T06:13:20Z</time>
      </trkpt>
      <trkpt lat="47.91061" lon="6.80072">
        <ele>596.2</ele>
        <time>2022-09-02T06:13:21Z</time>
      </trkpt>
      <trkpt lat="47.9106" lon="6.80071">
        <ele>596.4</ele>
        <time>2022-09-02T06:13:22Z</time>
      </trkpt>
      <trkpt lat="47.91059" lon="6.8007">
        <ele>596.5</ele>
        <time>2022-09-02T06:13:23Z</time>
      </trkpt>
      <trkpt lat="47.91059" lon="6.80069">
        <ele>596.5</ele>
        <time>2022-09-02T06:13:24Z</time>
      </trkpt>
      <trkpt lat="47.91058" lon="6.80069">
        <ele>596.6</ele>
        <time>2022-09-02T06:13:25Z</time>
      </trkpt>
      <trkpt lat="47.91058" lon="6.80068">
        <ele>596.6</ele>
        <time>2022-09-02T06:13:26Z</time>
      </trkpt>
      <trkpt lat="47.91057" lon="6.80067">
        <ele>596.8</ele>
        <time>2022-09-02T06:13:29Z</time>
      </trkpt>
      <trkpt lat="47.91057" lon="6.80066">
        <ele>596.8</ele>
        <time>2022-09-02T06:13:31Z</time>
      </trkpt>
      <trkpt lat="47.91057" lon="6.80065">
        <ele>596.8</ele>
        <time>2022-09-02T06:13:32Z</time>
      </trkpt>
      <trkpt lat="47.91058" lon="6.80064">
        <ele>596.6</ele>
        <time>2022-09-02T06:13:33Z</time>
      </trkpt>
      <trkpt lat="47.91058" lon="6.80062">
        <ele>596.6</ele>
        <time>2022-09-02T06:13:34Z</time>
      </trkpt>
      <trkpt lat="47.91058" lon="6.80061">
        <ele>596.6</ele>
        <time>2022-09-02T06:13:35Z</time>
      </trkpt>
      <trkpt lat="47.91058" lon="6.80059">
        <ele>596.6</ele>
        <time>2022-09-02T06:13:36Z</time>
      </trkpt>
      <trkpt lat="47.91058" lon="6.80057">
        <ele>596.6</ele>
        <time>2022-09-02T06:13:37Z</time>
      </trkpt>
      <trkpt lat="47.91058" lon="6.80056">
        <ele>596.6</ele>
        <time>2022-09-02T06:13:38Z</time>
      </trkpt>
      <trkpt lat="47.91058" lon="6.80054">
        <ele>596.7</ele>
        <time>2022-09-02T06:13:39Z</time>
      </trkpt>
      <trkpt lat="47.91058" lon="6.80053">
        <ele>596.7</ele>
        <time>2022-09-02T06:13:40Z</time>
      </trkpt>
      <trkpt lat="47.91059" lon="6.80051">
        <ele>596.6</ele>
        <time>2022-09-02T06:13:41Z</time>
      </trkpt>
      <trkpt lat="47.91059" lon="6.8005">
        <ele>596.7</ele>
        <time>2022-09-02T06:13:42Z</time>
      </trkpt>
      <trkpt lat="47.91059" lon="6.80049">
        <ele>596.7</ele>
        <time>2022-09-02T06:13:43Z</time>
      </trkpt>
      <trkpt lat="47.91059" lon="6.80047">
        <ele>596.8</ele>
        <time>2022-09-02T06:13:44Z</time>
      </trkpt>
      <trkpt lat="47.9106" lon="6.80046">
        <ele>596.6</ele>
        <time>2022-09-02T06:13:45Z</time>
      </trkpt>
      <trkpt lat="47.9106" lon="6.80044">
        <ele>596.7</ele>
        <time>2022-09-02T06:13:46Z</time>
      </trkpt>
      <trkpt lat="47.9106" lon="6.80043">
        <ele>596.7</ele>
        <time>2022-09-02T06:13:47Z</time>
      </trkpt>
      <trkpt lat="47.9106" lon="6.80041">
        <ele>596.8</ele>
        <time>2022-09-02T06:13:48Z</time>
      </trkpt>
      <trkpt lat="47.91061" lon="6.8004">
        <ele>596.7</ele>
        <time>2022-09-02T06:13:49Z</time>
      </trkpt>
      <trkpt lat="47.91061" lon="6.80038">
        <ele>596.7</ele>
        <time>2022-09-02T06:13:50Z</time>
      </trkpt>
      <trkpt lat="47.91061" lon="6.80037">
        <ele>596.8</ele>
        <time>2022-09-02T06:13:51Z</time>
      </trkpt>
      <trkpt lat="47.91061" lon="6.80036">
        <ele>596.8</ele>
        <time>2022-09-02T06:13:52Z</time>
      </trkpt>
      <trkpt lat="47.91061" lon="6.80034">
        <ele>596.8</ele>
        <time>2022-09-02T06:13:53Z</time>
      </trkpt>
      <trkpt lat="47.91062" lon="6.80033">
        <ele>596.7</ele>
        <time>2022-09-02T06:13:54Z</time>
      </trkpt>
      <trkpt lat="47.91062" lon="6.80032">
        <ele>596.7</ele>
        <time>2022-09-02T06:13:55Z</time>
      </trkpt>
      <trkpt lat="47.91062" lon="6.80031">
        <ele>596.8</ele>
        <time>2022-09-02T06:13:56Z</time>
      </trkpt>
      <trkpt lat="47.91062" lon="6.80029">
        <ele>596.8</ele>
        <time>2022-09-02T06:13:57Z</time>
      </trkpt>
      <trkpt lat="47.91062" lon="6.80028">
        <ele>596.8</ele>
        <time>2022-09-02T06:13:58Z</time>
      </trkpt>
      <trkpt lat="47.91062" lon="6.80026">
        <ele>596.8</ele>
        <time>2022-09-02T06:13:59Z</time>
      </trkpt>
      <trkpt lat="47.91062" lon="6.80025">
        <ele>596.7</ele>
        <time>2022-09-02T06:14:00Z</time>
      </trkpt>
      <trkpt lat="47.91062" lon="6.80023">
        <ele>596.7</ele>
        <time>2022-09-02T06:14:01Z</time>
      </trkpt>
      <trkpt lat="47.91062" lon="6.80021">
        <ele>596.6</ele>
        <time>2022-09-02T06:14:02Z</time>
      </trkpt>
      <trkpt lat="47.91062" lon="6.8002">
        <ele>596.6</ele>
        <time>2022-09-02T06:14:03Z</time>
      </trkpt>
      <trkpt lat="47.91062" lon="6.80018">
        <ele>596.5</ele>
        <time>2022-09-02T06:14:04Z</time>
      </trkpt>
      <trkpt lat="47.91062" lon="6.80017">
        <ele>596.5</ele>
        <time>2022-09-02T06:14:05Z</time>
      </trkpt>
      <trkpt lat="47.91062" lon="6.80015">
        <ele>596.4</ele>
        <time>2022-09-02T06:14:06Z</time>
      </trkpt>
      <trkpt lat="47.91062" lon="6.80014">
        <ele>596.3</ele>
        <time>2022-09-02T06:14:07Z</time>
      </trkpt>
      <trkpt lat="47.91062" lon="6.80012">
        <ele>596.3</ele>
        <time>2022-09-02T06:14:08Z</time>
      </trkpt>
      <trkpt lat="47.91062" lon="6.80011">
        <ele>596.2</ele>
        <time>2022-09-02T06:14:09Z</time>
      </trkpt>
      <trkpt lat="47.91062" lon="6.80009">
        <ele>596.2</ele>
        <time>2022-09-02T06:14:10Z</time>
      </trkpt>
      <trkpt lat="47.91062" lon="6.80008">
        <ele>596.1</ele>
        <time>2022-09-02T06:14:11Z</time>
      </trkpt>
      <trkpt lat="47.91062" lon="6.80006">
        <ele>596.1</ele>
        <time>2022-09-02T06:14:12Z</time>
      </trkpt>
      <trkpt lat="47.91062" lon="6.80005">
        <ele>596</ele>
        <time>2022-09-02T06:14:13Z</time>
      </trkpt>
      <trkpt lat="47.91063" lon="6.80003">
        <ele>595.8</ele>
        <time>2022-09-02T06:14:14Z</time>
      </trkpt>
      <trkpt lat="47.91063" lon="6.80001">
        <ele>595.7</ele>
        <time>2022-09-02T06:14:15Z</time>
      </trkpt>
      <trkpt lat="47.91063" lon="6.8">
        <ele>595.7</ele>
        <time>2022-09-02T06:14:17Z</time>
      </trkpt>
      <trkpt lat="47.91063" lon="6.79999">
        <ele>595.6</ele>
        <time>2022-09-02T06:14:18Z</time>
      </trkpt>
      <trkpt lat="47.91063" lon="6.79997">
        <ele>595.6</ele>
        <time>2022-09-02T06:14:19Z</time>
      </trkpt>
      <trkpt lat="47.91063" lon="6.79996">
        <ele>595.5</ele>
        <time>2022-09-02T06:14:20Z</time>
      </trkpt>
      <trkpt lat="47.91063" lon="6.79995">
        <ele>595.5</ele>
        <time>2022-09-02T06:14:21Z</time>
      </trkpt>
      <trkpt lat="47.91062" lon="6.79993">
        <ele>595.6</ele>
        <time>2022-09-02T06:14:22Z</time>
      </trkpt>
      <trkpt lat="47.91062" lon="6.79992">
        <ele>595.6</ele>
        <time>2022-09-02T06:14:23Z</time>
      </trkpt>
      <trkpt lat="47.91062" lon="6.7999">
        <ele>595.5</ele>
        <time>2022-09-02T06:14:24Z</time>
      </trkpt>
      <trkpt lat="47.91062" lon="6.79989">
        <ele>595.4</ele>
        <time>2022-09-02T06:14:25Z</time>
      </trkpt>
      <trkpt lat="47.91062" lon="6.79987">
        <ele>595.4</ele>
        <time>2022-09-02T06:14:26Z</time>
      </trkpt>
      <trkpt lat="47.91062" lon="6.79986">
        <ele>595.3</ele>
        <time>2022-09-02T06:14:27Z</time>
      </trkpt>
      <trkpt lat="47.91062" lon="6.79984">
        <ele>595.3</ele>
        <time>2022-09-02T06:14:28Z</time>
      </trkpt>
      <trkpt lat="47.91062" lon="6.79983">
        <ele>595.2</ele>
        <time>2022-09-02T06:14:29Z</time>
      </trkpt>
      <trkpt lat="47.91062" lon="6.79982">
        <ele>595.2</ele>
        <time>2022-09-02T06:14:30Z</time>
      </trkpt>
      <trkpt lat="47.91062" lon="6.79981">
        <ele>595.2</ele>
        <time>2022-09-02T06:14:31Z</time>
      </trkpt>
      <trkpt lat="47.91062" lon="6.79979">
        <ele>595.1</ele>
        <time>2022-09-02T06:14:32Z</time>
      </trkpt>
      <trkpt lat="47.91062" lon="6.79978">
        <ele>595</ele>
        <time>2022-09-02T06:14:33Z</time>
      </trkpt>
      <trkpt lat="47.91062" lon="6.79977">
        <ele>595</ele>
        <time>2022-09-02T06:14:34Z</time>
      </trkpt>
      <trkpt lat="47.91061" lon="6.79976">
        <ele>595.2</ele>
        <time>2022-09-02T06:14:35Z</time>
      </trkpt>
      <trkpt lat="47.91061" lon="6.79974">
        <ele>595.1</ele>
        <time>2022-09-02T06:14:36Z</time>
      </trkpt>
      <trkpt lat="47.91061" lon="6.79973">
        <ele>595</ele>
        <time>2022-09-02T06:14:37Z</time>
      </trkpt>
      <trkpt lat="47.91061" lon="6.79972">
        <ele>595</ele>
        <time>2022-09-02T06:14:38Z</time>
      </trkpt>
      <trkpt lat="47.91061" lon="6.7997">
        <ele>595</ele>
        <time>2022-09-02T06:14:39Z</time>
      </trkpt>
      <trkpt lat="47.91061" lon="6.79969">
        <ele>594.9</ele>
        <time>2022-09-02T06:14:40Z</time>
      </trkpt>
      <trkpt lat="47.91061" lon="6.79968">
        <ele>594.9</ele>
        <time>2022-09-02T06:14:41Z</time>
      </trkpt>
      <trkpt lat="47.91061" lon="6.79966">
        <ele>594.8</ele>
        <time>2022-09-02T06:14:42Z</time>
      </trkpt>
      <trkpt lat="47.91062" lon="6.79965">
        <ele>594.6</ele>
        <time>2022-09-02T06:14:43Z</time>
      </trkpt>
      <trkpt lat="47.91062" lon="6.79964">
        <ele>594.6</ele>
        <time>2022-09-02T06:14:44Z</time>
      </trkpt>
      <trkpt lat="47.91062" lon="6.79962">
        <ele>594.6</ele>
        <time>2022-09-02T06:14:45Z</time>
      </trkpt>
      <trkpt lat="47.91062" lon="6.79961">
        <ele>594.5</ele>
        <time>2022-09-02T06:14:46Z</time>
      </trkpt>
      <trkpt lat="47.91062" lon="6.79959">
        <ele>594.5</ele>
        <time>2022-09-02T06:14:47Z</time>
      </trkpt>
      <trkpt lat="47.91062" lon="6.79958">
        <ele>594.4</ele>
        <time>2022-09-02T06:14:48Z</time>
      </trkpt>
      <trkpt lat="47.91062" lon="6.79957">
        <ele>594.4</ele>
        <time>2022-09-02T06:14:49Z</time>
      </trkpt>
      <trkpt lat="47.91062" lon="6.79955">
        <ele>594.4</ele>
        <time>2022-09-02T06:14:50Z</time>
      </trkpt>
      <trkpt lat="47.91062" lon="6.79954">
        <ele>594.3</ele>
        <time>2022-09-02T06:14:51Z</time>
      </trkpt>
      <trkpt lat="47.91062" lon="6.79953">
        <ele>594.3</ele>
        <time>2022-09-02T06:14:52Z</time>
      </trkpt>
      <trkpt lat="47.91061" lon="6.79952">
        <ele>594.4</ele>
        <time>2022-09-02T06:14:53Z</time>
      </trkpt>
      <trkpt lat="47.91061" lon="6.7995">
        <ele>594.4</ele>
        <time>2022-09-02T06:14:54Z</time>
      </trkpt>
      <trkpt lat="47.91061" lon="6.79949">
        <ele>594.3</ele>
        <time>2022-09-02T06:14:56Z</time>
      </trkpt>
      <trkpt lat="47.9106" lon="6.79949">
        <ele>594.5</ele>
        <time>2022-09-02T06:14:58Z</time>
      </trkpt>
      <trkpt lat="47.9106" lon="6.7995">
        <ele>594.5</ele>
        <time>2022-09-02T06:15:00Z</time>
      </trkpt>
      <trkpt lat="47.91059" lon="6.7995">
        <ele>594.7</ele>
        <time>2022-09-02T06:15:01Z</time>
      </trkpt>
      <trkpt lat="47.91059" lon="6.79951">
        <ele>594.7</ele>
        <time>2022-09-02T06:15:02Z</time>
      </trkpt>
      <trkpt lat="47.91059" lon="6.79952">
        <ele>594.7</ele>
        <time>2022-09-02T06:15:03Z</time>
      </trkpt>
      <trkpt lat="47.91058" lon="6.79953">
        <ele>594.9</ele>
        <time>2022-09-02T06:15:04Z</time>
      </trkpt>
      <trkpt lat="47.91058" lon="6.79954">
        <ele>595</ele>
        <time>2022-09-02T06:15:05Z</time>
      </trkpt>
      <trkpt lat="47.91057" lon="6.79955">
        <ele>595.2</ele>
        <time>2022-09-02T06:15:06Z</time>
      </trkpt>
      <trkpt lat="47.91057" lon="6.79956">
        <ele>595.2</ele>
        <time>2022-09-02T06:15:07Z</time>
      </trkpt>
      <trkpt lat="47.91056" lon="6.79957">
        <ele>595.4</ele>
        <time>2022-09-02T06:15:08Z</time>
      </trkpt>
      <trkpt lat="47.91056" lon="6.79958">
        <ele>595.4</ele>
        <time>2022-09-02T06:15:09Z</time>
      </trkpt>
      <trkpt lat="47.91055" lon="6.79959">
        <ele>595.7</ele>
        <time>2022-09-02T06:15:10Z</time>
      </trkpt>
      <trkpt lat="47.91054" lon="6.7996">
        <ele>596</ele>
        <time>2022-09-02T06:15:11Z</time>
      </trkpt>
      <trkpt lat="47.91054" lon="6.79961">
        <ele>596</ele>
        <time>2022-09-02T06:15:12Z</time>
      </trkpt>
      <trkpt lat="47.91053" lon="6.79962">
        <ele>596.3</ele>
        <time>2022-09-02T06:15:13Z</time>
      </trkpt>
      <trkpt lat="47.91052" lon="6.79963">
        <ele>596.6</ele>
        <time>2022-09-02T06:15:14Z</time>
      </trkpt>
      <trkpt lat="47.91052" lon="6.79964">
        <ele>596.6</ele>
        <time>2022-09-02T06:15:15Z</time>
      </trkpt>
      <trkpt lat="47.91051" lon="6.79965">
        <ele>596.9</ele>
        <time>2022-09-02T06:15:16Z</time>
      </trkpt>
      <trkpt lat="47.9105" lon="6.79966">
        <ele>597.2</ele>
        <time>2022-09-02T06:15:17Z</time>
      </trkpt>
      <trkpt lat="47.91049" lon="6.79967">
        <ele>597.5</ele>
        <time>2022-09-02T06:15:19Z</time>
      </trkpt>
      <trkpt lat="47.91048" lon="6.79968">
        <ele>597.8</ele>
        <time>2022-09-02T06:15:20Z</time>
      </trkpt>
      <trkpt lat="47.91048" lon="6.79969">
        <ele>597.8</ele>
        <time>2022-09-02T06:15:21Z</time>
      </trkpt>
      <trkpt lat="47.91048" lon="6.7997">
        <ele>597.8</ele>
        <time>2022-09-02T06:15:22Z</time>
      </trkpt>
      <trkpt lat="47.91047" lon="6.79971">
        <ele>598.1</ele>
        <time>2022-09-02T06:15:23Z</time>
      </trkpt>
      <trkpt lat="47.91047" lon="6.79972">
        <ele>598.2</ele>
        <time>2022-09-02T06:15:24Z</time>
      </trkpt>
      <trkpt lat="47.91046" lon="6.79973">
        <ele>598.4</ele>
        <time>2022-09-02T06:15:25Z</time>
      </trkpt>
      <trkpt lat="47.91046" lon="6.79975">
        <ele>598.5</ele>
        <time>2022-09-02T06:15:26Z</time>
      </trkpt>
      <trkpt lat="47.91045" lon="6.79976">
        <ele>598.8</ele>
        <time>2022-09-02T06:15:27Z</time>
      </trkpt>
      <trkpt lat="47.91044" lon="6.79977">
        <ele>599.1</ele>
        <time>2022-09-02T06:15:28Z</time>
      </trkpt>
      <trkpt lat="47.91044" lon="6.79978">
        <ele>599.1</ele>
        <time>2022-09-02T06:15:29Z</time>
      </trkpt>
      <trkpt lat="47.91043" lon="6.79979">
        <ele>599.4</ele>
        <time>2022-09-02T06:15:30Z</time>
      </trkpt>
      <trkpt lat="47.91042" lon="6.7998">
        <ele>599.7</ele>
        <time>2022-09-02T06:15:31Z</time>
      </trkpt>
      <trkpt lat="47.91041" lon="6.79981">
        <ele>600</ele>
        <time>2022-09-02T06:15:33Z</time>
      </trkpt>
      <trkpt lat="47.9104" lon="6.79982">
        <ele>600.3</ele>
        <time>2022-09-02T06:15:35Z</time>
      </trkpt>
      <trkpt lat="47.91039" lon="6.79982">
        <ele>600.5</ele>
        <time>2022-09-02T06:15:36Z</time>
      </trkpt>
      <trkpt lat="47.91039" lon="6.79983">
        <ele>600.6</ele>
        <time>2022-09-02T06:15:37Z</time>
      </trkpt>
      <trkpt lat="47.91038" lon="6.79983">
        <ele>600.8</ele>
        <time>2022-09-02T06:15:38Z</time>
      </trkpt>
      <trkpt lat="47.91038" lon="6.79984">
        <ele>600.8</ele>
        <time>2022-09-02T06:15:39Z</time>
      </trkpt>
      <trkpt lat="47.91037" lon="6.79985">
        <ele>601.1</ele>
        <time>2022-09-02T06:15:41Z</time>
      </trkpt>
      <trkpt lat="47.91037" lon="6.79986">
        <ele>601.2</ele>
        <time>2022-09-02T06:15:42Z</time>
      </trkpt>
      <trkpt lat="47.91036" lon="6.79986">
        <ele>601.4</ele>
        <time>2022-09-02T06:15:43Z</time>
      </trkpt>
      <trkpt lat="47.91036" lon="6.79987">
        <ele>601.5</ele>
        <time>2022-09-02T06:15:44Z</time>
      </trkpt>
      <trkpt lat="47.91035" lon="6.79987">
        <ele>601.7</ele>
        <time>2022-09-02T06:15:45Z</time>
      </trkpt>
      <trkpt lat="47.91034" lon="6.79988">
        <ele>602</ele>
        <time>2022-09-02T06:15:46Z</time>
      </trkpt>
      <trkpt lat="47.91033" lon="6.79989">
        <ele>602.3</ele>
        <time>2022-09-02T06:15:48Z</time>
      </trkpt>
      <trkpt lat="47.91033" lon="6.7999">
        <ele>602.3</ele>
        <time>2022-09-02T06:15:49Z</time>
      </trkpt>
      <trkpt lat="47.91032" lon="6.7999">
        <ele>602.6</ele>
        <time>2022-09-02T06:15:50Z</time>
      </trkpt>
      <trkpt lat="47.91032" lon="6.79991">
        <ele>602.6</ele>
        <time>2022-09-02T06:15:51Z</time>
      </trkpt>
      <trkpt lat="47.91031" lon="6.79992">
        <ele>602.9</ele>
        <time>2022-09-02T06:15:52Z</time>
      </trkpt>
      <trkpt lat="47.9103" lon="6.79993">
        <ele>603.2</ele>
        <time>2022-09-02T06:15:54Z</time>
      </trkpt>
      <trkpt lat="47.91029" lon="6.79996">
        <ele>603.5</ele>
        <time>2022-09-02T06:16:25Z</time>
      </trkpt>
      <trkpt lat="47.91028" lon="6.79997">
        <ele>603.8</ele>
        <time>2022-09-02T06:16:26Z</time>
      </trkpt>
      <trkpt lat="47.91027" lon="6.79998">
        <ele>604.2</ele>
        <time>2022-09-02T06:16:27Z</time>
      </trkpt>
      <trkpt lat="47.91027" lon="6.79999">
        <ele>604.2</ele>
        <time>2022-09-02T06:16:28Z</time>
      </trkpt>
      <trkpt lat="47.91026" lon="6.8">
        <ele>604.5</ele>
        <time>2022-09-02T06:16:29Z</time>
      </trkpt>
      <trkpt lat="47.91026" lon="6.80001">
        <ele>604.5</ele>
        <time>2022-09-02T06:16:30Z</time>
      </trkpt>
      <trkpt lat="47.91025" lon="6.80001">
        <ele>604.8</ele>
        <time>2022-09-02T06:16:31Z</time>
      </trkpt>
      <trkpt lat="47.91025" lon="6.80002">
        <ele>604.8</ele>
        <time>2022-09-02T06:16:32Z</time>
      </trkpt>
      <trkpt lat="47.91024" lon="6.80003">
        <ele>605.1</ele>
        <time>2022-09-02T06:16:33Z</time>
      </trkpt>
      <trkpt lat="47.91024" lon="6.80004">
        <ele>605.1</ele>
        <time>2022-09-02T06:16:34Z</time>
      </trkpt>
      <trkpt lat="47.91023" lon="6.80005">
        <ele>605.3</ele>
        <time>2022-09-02T06:16:35Z</time>
      </trkpt>
      <trkpt lat="47.91023" lon="6.80006">
        <ele>605.3</ele>
        <time>2022-09-02T06:16:36Z</time>
      </trkpt>
      <trkpt lat="47.91022" lon="6.80007">
        <ele>605.6</ele>
        <time>2022-09-02T06:16:37Z</time>
      </trkpt>
      <trkpt lat="47.91022" lon="6.80008">
        <ele>605.6</ele>
        <time>2022-09-02T06:16:38Z</time>
      </trkpt>
      <trkpt lat="47.91022" lon="6.80009">
        <ele>605.6</ele>
        <time>2022-09-02T06:16:39Z</time>
      </trkpt>
      <trkpt lat="47.91021" lon="6.8001">
        <ele>605.9</ele>
        <time>2022-09-02T06:16:40Z</time>
      </trkpt>
      <trkpt lat="47.91021" lon="6.80011">
        <ele>605.9</ele>
        <time>2022-09-02T06:16:41Z</time>
      </trkpt>
      <trkpt lat="47.9102" lon="6.80012">
        <ele>606.1</ele>
        <time>2022-09-02T06:16:42Z</time>
      </trkpt>
      <trkpt lat="47.9102" lon="6.80013">
        <ele>606.1</ele>
        <time>2022-09-02T06:16:43Z</time>
      </trkpt>
      <trkpt lat="47.91019" lon="6.80014">
        <ele>606.4</ele>
        <time>2022-09-02T06:16:44Z</time>
      </trkpt>
      <trkpt lat="47.91018" lon="6.80015">
        <ele>606.6</ele>
        <time>2022-09-02T06:16:45Z</time>
      </trkpt>
      <trkpt lat="47.91017" lon="6.80016">
        <ele>606.9</ele>
        <time>2022-09-02T06:16:46Z</time>
      </trkpt>
      <trkpt lat="47.91017" lon="6.80017">
        <ele>606.9</ele>
        <time>2022-09-02T06:16:47Z</time>
      </trkpt>
      <trkpt lat="47.91016" lon="6.80018">
        <ele>607.1</ele>
        <time>2022-09-02T06:16:48Z</time>
      </trkpt>
      <trkpt lat="47.91015" lon="6.80019">
        <ele>607.4</ele>
        <time>2022-09-02T06:16:49Z</time>
      </trkpt>
      <trkpt lat="47.91014" lon="6.80019">
        <ele>607.6</ele>
        <time>2022-09-02T06:16:50Z</time>
      </trkpt>
      <trkpt lat="47.91013" lon="6.8002">
        <ele>607.9</ele>
        <time>2022-09-02T06:16:51Z</time>
      </trkpt>
      <trkpt lat="47.91012" lon="6.80021">
        <ele>608.1</ele>
        <time>2022-09-02T06:16:53Z</time>
      </trkpt>
      <trkpt lat="47.91011" lon="6.80021">
        <ele>608.4</ele>
        <time>2022-09-02T06:16:54Z</time>
      </trkpt>
      <trkpt lat="47.9101" lon="6.80022">
        <ele>608.6</ele>
        <time>2022-09-02T06:16:56Z</time>
      </trkpt>
      <trkpt lat="47.9101" lon="6.80023">
        <ele>608.6</ele>
        <time>2022-09-02T06:16:58Z</time>
      </trkpt>
      <trkpt lat="47.91009" lon="6.80023">
        <ele>608.8</ele>
        <time>2022-09-02T06:16:59Z</time>
      </trkpt>
      <trkpt lat="47.91008" lon="6.80024">
        <ele>609.1</ele>
        <time>2022-09-02T06:17:00Z</time>
      </trkpt>
      <trkpt lat="47.91007" lon="6.80025">
        <ele>609.3</ele>
        <time>2022-09-02T06:17:02Z</time>
      </trkpt>
      <trkpt lat="47.91007" lon="6.80026">
        <ele>609.3</ele>
        <time>2022-09-02T06:17:03Z</time>
      </trkpt>
      <trkpt lat="47.91006" lon="6.80026">
        <ele>609.5</ele>
        <time>2022-09-02T06:17:04Z</time>
      </trkpt>
      <trkpt lat="47.91005" lon="6.80027">
        <ele>609.8</ele>
        <time>2022-09-02T06:17:05Z</time>
      </trkpt>
      <trkpt lat="47.91004" lon="6.80028">
        <ele>610</ele>
        <time>2022-09-02T06:17:06Z</time>
      </trkpt>
      <trkpt lat="47.91003" lon="6.80029">
        <ele>610.2</ele>
        <time>2022-09-02T06:17:08Z</time>
      </trkpt>
      <trkpt lat="47.91002" lon="6.8003">
        <ele>610.5</ele>
        <time>2022-09-02T06:17:10Z</time>
      </trkpt>
      <trkpt lat="47.91001" lon="6.80031">
        <ele>610.7</ele>
        <time>2022-09-02T06:17:11Z</time>
      </trkpt>
      <trkpt lat="47.91" lon="6.80032">
        <ele>611</ele>
        <time>2022-09-02T06:17:13Z</time>
      </trkpt>
      <trkpt lat="47.90999" lon="6.80033">
        <ele>611.3</ele>
        <time>2022-09-02T06:17:14Z</time>
      </trkpt>
      <trkpt lat="47.90998" lon="6.80033">
        <ele>611.6</ele>
        <time>2022-09-02T06:17:15Z</time>
      </trkpt>
      <trkpt lat="47.90997" lon="6.80034">
        <ele>611.9</ele>
        <time>2022-09-02T06:17:16Z</time>
      </trkpt>
      <trkpt lat="47.90996" lon="6.80035">
        <ele>612.2</ele>
        <time>2022-09-02T06:17:18Z</time>
      </trkpt>
      <trkpt lat="47.90995" lon="6.80036">
        <ele>612.5</ele>
        <time>2022-09-02T06:17:19Z</time>
      </trkpt>
      <trkpt lat="47.90995" lon="6.80037">
        <ele>612.5</ele>
        <time>2022-09-02T06:17:20Z</time>
      </trkpt>
      <trkpt lat="47.90994" lon="6.80037">
        <ele>612.8</ele>
        <time>2022-09-02T06:17:21Z</time>
      </trkpt>
      <trkpt lat="47.90993" lon="6.80038">
        <ele>613.1</ele>
        <time>2022-09-02T06:17:22Z</time>
      </trkpt>
      <trkpt lat="47.90993" lon="6.80039">
        <ele>613.1</ele>
        <time>2022-09-02T06:17:23Z</time>
      </trkpt>
      <trkpt lat="47.90992" lon="6.8004">
        <ele>613.3</ele>
        <time>2022-09-02T06:17:24Z</time>
      </trkpt>
      <trkpt lat="47.90991" lon="6.80041">
        <ele>613.6</ele>
        <time>2022-09-02T06:17:26Z</time>
      </trkpt>
      <trkpt lat="47.90991" lon="6.80042">
        <ele>613.6</ele>
        <time>2022-09-02T06:17:27Z</time>
      </trkpt>
      <trkpt lat="47.9099" lon="6.80043">
        <ele>613.8</ele>
        <time>2022-09-02T06:17:29Z</time>
      </trkpt>
      <trkpt lat="47.90989" lon="6.80044">
        <ele>614.1</ele>
        <time>2022-09-02T06:17:30Z</time>
      </trkpt>
      <trkpt lat="47.90989" lon="6.80045">
        <ele>614.1</ele>
        <time>2022-09-02T06:17:32Z</time>
      </trkpt>
      <trkpt lat="47.90988" lon="6.80045">
        <ele>614.4</ele>
        <time>2022-09-02T06:17:33Z</time>
      </trkpt>
      <trkpt lat="47.90987" lon="6.80046">
        <ele>614.6</ele>
        <time>2022-09-02T06:17:34Z</time>
      </trkpt>
      <trkpt lat="47.90987" lon="6.80047">
        <ele>614.6</ele>
        <time>2022-09-02T06:17:35Z</time>
      </trkpt>
      <trkpt lat="47.90987" lon="6.80048">
        <ele>614.5</ele>
        <time>2022-09-02T06:17:36Z</time>
      </trkpt>
      <trkpt lat="47.90986" lon="6.80049">
        <ele>614.8</ele>
        <time>2022-09-02T06:17:37Z</time>
      </trkpt>
      <trkpt lat="47.90986" lon="6.8005">
        <ele>614.7</ele>
        <time>2022-09-02T06:17:38Z</time>
      </trkpt>
      <trkpt lat="47.90985" lon="6.80051">
        <ele>615</ele>
        <time>2022-09-02T06:17:39Z</time>
      </trkpt>
      <trkpt lat="47.90984" lon="6.80052">
        <ele>615.2</ele>
        <time>2022-09-02T06:17:41Z</time>
      </trkpt>
      <trkpt lat="47.90983" lon="6.80053">
        <ele>615.4</ele>
        <time>2022-09-02T06:17:42Z</time>
      </trkpt>
      <trkpt lat="47.90983" lon="6.80054">
        <ele>615.4</ele>
        <time>2022-09-02T06:17:43Z</time>
      </trkpt>
      <trkpt lat="47.90982" lon="6.80054">
        <ele>615.6</ele>
        <time>2022-09-02T06:17:44Z</time>
      </trkpt>
      <trkpt lat="47.90981" lon="6.80055">
        <ele>615.8</ele>
        <time>2022-09-02T06:17:45Z</time>
      </trkpt>
      <trkpt lat="47.9098" lon="6.80056">
        <ele>616</ele>
        <time>2022-09-02T06:17:47Z</time>
      </trkpt>
      <trkpt lat="47.90979" lon="6.80057">
        <ele>616.3</ele>
        <time>2022-09-02T06:17:49Z</time>
      </trkpt>
      <trkpt lat="47.90978" lon="6.80058">
        <ele>616.5</ele>
        <time>2022-09-02T06:17:51Z</time>
      </trkpt>
      <trkpt lat="47.90978" lon="6.80059">
        <ele>616.5</ele>
        <time>2022-09-02T06:17:52Z</time>
      </trkpt>
      <trkpt lat="47.90977" lon="6.80059">
        <ele>616.8</ele>
        <time>2022-09-02T06:17:53Z</time>
      </trkpt>
      <trkpt lat="47.90976" lon="6.8006">
        <ele>617</ele>
        <time>2022-09-02T06:17:54Z</time>
      </trkpt>
      <trkpt lat="47.90975" lon="6.80061">
        <ele>617.3</ele>
        <time>2022-09-02T06:17:55Z</time>
      </trkpt>
      <trkpt lat="47.90974" lon="6.80062">
        <ele>617.5</ele>
        <time>2022-09-02T06:17:57Z</time>
      </trkpt>
      <trkpt lat="47.90973" lon="6.80062">
        <ele>617.8</ele>
        <time>2022-09-02T06:17:58Z</time>
      </trkpt>
      <trkpt lat="47.90972" lon="6.80063">
        <ele>618.1</ele>
        <time>2022-09-02T06:18:00Z</time>
      </trkpt>
      <trkpt lat="47.90971" lon="6.80063">
        <ele>618.4</ele>
        <time>2022-09-02T06:18:01Z</time>
      </trkpt>
      <trkpt lat="47.9097" lon="6.80064">
        <ele>618.7</ele>
        <time>2022-09-02T06:18:03Z</time>
      </trkpt>
      <trkpt lat="47.90969" lon="6.80065">
        <ele>619</ele>
        <time>2022-09-02T06:18:05Z</time>
      </trkpt>
      <trkpt lat="47.90969" lon="6.80066">
        <ele>619</ele>
        <time>2022-09-02T06:18:06Z</time>
      </trkpt>
      <trkpt lat="47.90968" lon="6.80066">
        <ele>619.3</ele>
        <time>2022-09-02T06:18:07Z</time>
      </trkpt>
      <trkpt lat="47.90968" lon="6.80067">
        <ele>619.2</ele>
        <time>2022-09-02T06:18:08Z</time>
      </trkpt>
      <trkpt lat="47.90967" lon="6.80068">
        <ele>619.5</ele>
        <time>2022-09-02T06:18:09Z</time>
      </trkpt>
      <trkpt lat="47.90966" lon="6.80068">
        <ele>619.8</ele>
        <time>2022-09-02T06:18:10Z</time>
      </trkpt>
      <trkpt lat="47.90965" lon="6.80069">
        <ele>620.1</ele>
        <time>2022-09-02T06:18:11Z</time>
      </trkpt>
      <trkpt lat="47.90964" lon="6.80069">
        <ele>620.4</ele>
        <time>2022-09-02T06:18:19Z</time>
      </trkpt>
      <trkpt lat="47.90962" lon="6.80069">
        <ele>621</ele>
        <time>2022-09-02T06:18:20Z</time>
      </trkpt>
      <trkpt lat="47.90961" lon="6.80069">
        <ele>621.2</ele>
        <time>2022-09-02T06:18:21Z</time>
      </trkpt>
      <trkpt lat="47.9096" lon="6.8007">
        <ele>621.5</ele>
        <time>2022-09-02T06:18:22Z</time>
      </trkpt>
      <trkpt lat="47.90959" lon="6.8007">
        <ele>621.8</ele>
        <time>2022-09-02T06:18:23Z</time>
      </trkpt>
      <trkpt lat="47.90958" lon="6.8007">
        <ele>622.1</ele>
        <time>2022-09-02T06:18:24Z</time>
      </trkpt>
      <trkpt lat="47.90957" lon="6.8007">
        <ele>622.4</ele>
        <time>2022-09-02T06:18:26Z</time>
      </trkpt>
      <trkpt lat="47.90956" lon="6.80071">
        <ele>622.6</ele>
        <time>2022-09-02T06:18:27Z</time>
      </trkpt>
      <trkpt lat="47.90955" lon="6.80071">
        <ele>622.9</ele>
        <time>2022-09-02T06:18:29Z</time>
      </trkpt>
      <trkpt lat="47.90954" lon="6.80072">
        <ele>623.1</ele>
        <time>2022-09-02T06:18:30Z</time>
      </trkpt>
      <trkpt lat="47.90953" lon="6.80072">
        <ele>623.4</ele>
        <time>2022-09-02T06:18:45Z</time>
      </trkpt>
      <trkpt lat="47.90952" lon="6.80073">
        <ele>623.6</ele>
        <time>2022-09-02T06:18:46Z</time>
      </trkpt>
      <trkpt lat="47.90951" lon="6.80073">
        <ele>623.9</ele>
        <time>2022-09-02T06:18:48Z</time>
      </trkpt>
      <trkpt lat="47.9095" lon="6.80074">
        <ele>624.1</ele>
        <time>2022-09-02T06:18:49Z</time>
      </trkpt>
      <trkpt lat="47.90949" lon="6.80074">
        <ele>624.4</ele>
        <time>2022-09-02T06:18:51Z</time>
      </trkpt>
      <trkpt lat="47.90948" lon="6.80073">
        <ele>624.8</ele>
        <time>2022-09-02T06:18:52Z</time>
      </trkpt>
      <trkpt lat="47.90947" lon="6.80073">
        <ele>625</ele>
        <time>2022-09-02T06:18:53Z</time>
      </trkpt>
      <trkpt lat="47.90946" lon="6.80073">
        <ele>625.3</ele>
        <time>2022-09-02T06:18:55Z</time>
      </trkpt>
      <trkpt lat="47.90945" lon="6.80072">
        <ele>625.7</ele>
        <time>2022-09-02T06:18:56Z</time>
      </trkpt>
      <trkpt lat="47.90944" lon="6.80072">
        <ele>626</ele>
        <time>2022-09-02T06:18:58Z</time>
      </trkpt>
      <trkpt lat="47.90943" lon="6.80072">
        <ele>626.3</ele>
        <time>2022-09-02T06:19:01Z</time>
      </trkpt>
      <trkpt lat="47.90942" lon="6.80072">
        <ele>626.6</ele>
        <time>2022-09-02T06:19:03Z</time>
      </trkpt>
      <trkpt lat="47.90941" lon="6.80072">
        <ele>626.9</ele>
        <time>2022-09-02T06:19:04Z</time>
      </trkpt>
      <trkpt lat="47.9094" lon="6.80072">
        <ele>627.2</ele>
        <time>2022-09-02T06:19:05Z</time>
      </trkpt>
      <trkpt lat="47.90939" lon="6.80073">
        <ele>627.4</ele>
        <time>2022-09-02T06:19:06Z</time>
      </trkpt>
      <trkpt lat="47.90938" lon="6.80073">
        <ele>627.7</ele>
        <time>2022-09-02T06:19:07Z</time>
      </trkpt>
      <trkpt lat="47.90937" lon="6.80073">
        <ele>628</ele>
        <time>2022-09-02T06:19:08Z</time>
      </trkpt>
      <trkpt lat="47.90936" lon="6.80074">
        <ele>628.2</ele>
        <time>2022-09-02T06:19:10Z</time>
      </trkpt>
      <trkpt lat="47.90935" lon="6.80074">
        <ele>628.5</ele>
        <time>2022-09-02T06:19:11Z</time>
      </trkpt>
      <trkpt lat="47.90934" lon="6.80074">
        <ele>628.8</ele>
        <time>2022-09-02T06:19:13Z</time>
      </trkpt>
      <trkpt lat="47.9093" lon="6.80075">
        <ele>629.9</ele>
        <time>2022-09-02T06:19:34Z</time>
      </trkpt>
      <trkpt lat="47.90928" lon="6.80075">
        <ele>630.5</ele>
        <time>2022-09-02T06:19:35Z</time>
      </trkpt>
      <trkpt lat="47.90926" lon="6.80076">
        <ele>631</ele>
        <time>2022-09-02T06:19:36Z</time>
      </trkpt>
      <trkpt lat="47.90925" lon="6.80076">
        <ele>631.3</ele>
        <time>2022-09-02T06:19:37Z</time>
      </trkpt>
      <trkpt lat="47.90924" lon="6.80076">
        <ele>631.6</ele>
        <time>2022-09-02T06:19:38Z</time>
      </trkpt>
      <trkpt lat="47.90923" lon="6.80076">
        <ele>631.9</ele>
        <time>2022-09-02T06:19:39Z</time>
      </trkpt>
      <trkpt lat="47.90922" lon="6.80077">
        <ele>632.1</ele>
        <time>2022-09-02T06:19:40Z</time>
      </trkpt>
      <trkpt lat="47.90921" lon="6.80077">
        <ele>632.4</ele>
        <time>2022-09-02T06:19:42Z</time>
      </trkpt>
      <trkpt lat="47.9092" lon="6.80078">
        <ele>632.6</ele>
        <time>2022-09-02T06:19:43Z</time>
      </trkpt>
      <trkpt lat="47.90919" lon="6.80079">
        <ele>632.8</ele>
        <time>2022-09-02T06:19:45Z</time>
      </trkpt>
      <trkpt lat="47.90918" lon="6.80079">
        <ele>633.1</ele>
        <time>2022-09-02T06:19:47Z</time>
      </trkpt>
      <trkpt lat="47.90917" lon="6.8008">
        <ele>633.3</ele>
        <time>2022-09-02T06:19:49Z</time>
      </trkpt>
      <trkpt lat="47.90916" lon="6.8008">
        <ele>633.5</ele>
        <time>2022-09-02T06:19:50Z</time>
      </trkpt>
      <trkpt lat="47.90915" lon="6.8008">
        <ele>633.8</ele>
        <time>2022-09-02T06:19:52Z</time>
      </trkpt>
      <trkpt lat="47.90914" lon="6.80081">
        <ele>633.9</ele>
        <time>2022-09-02T06:19:53Z</time>
      </trkpt>
      <trkpt lat="47.90913" lon="6.80081">
        <ele>634.2</ele>
        <time>2022-09-02T06:19:55Z</time>
      </trkpt>
      <trkpt lat="47.90912" lon="6.80081">
        <ele>634.4</ele>
        <time>2022-09-02T06:19:57Z</time>
      </trkpt>
      <trkpt lat="47.90911" lon="6.80081">
        <ele>634.7</ele>
        <time>2022-09-02T06:19:58Z</time>
      </trkpt>
      <trkpt lat="47.9091" lon="6.80081">
        <ele>635</ele>
        <time>2022-09-02T06:19:59Z</time>
      </trkpt>
      <trkpt lat="47.90909" lon="6.80082">
        <ele>635.1</ele>
        <time>2022-09-02T06:20:01Z</time>
      </trkpt>
      <trkpt lat="47.90908" lon="6.80082">
        <ele>635.3</ele>
        <time>2022-09-02T06:20:02Z</time>
      </trkpt>
      <trkpt lat="47.90907" lon="6.80083">
        <ele>635.5</ele>
        <time>2022-09-02T06:20:04Z</time>
      </trkpt>
      <trkpt lat="47.90906" lon="6.80083">
        <ele>635.7</ele>
        <time>2022-09-02T06:20:05Z</time>
      </trkpt>
      <trkpt lat="47.90905" lon="6.80084">
        <ele>635.9</ele>
        <time>2022-09-02T06:20:07Z</time>
      </trkpt>
      <trkpt lat="47.90904" lon="6.80084">
        <ele>636.1</ele>
        <time>2022-09-02T06:20:08Z</time>
      </trkpt>
      <trkpt lat="47.90903" lon="6.80084">
        <ele>636.4</ele>
        <time>2022-09-02T06:20:09Z</time>
      </trkpt>
      <trkpt lat="47.90902" lon="6.80084">
        <ele>636.6</ele>
        <time>2022-09-02T06:20:11Z</time>
      </trkpt>
      <trkpt lat="47.90901" lon="6.80085">
        <ele>636.8</ele>
        <time>2022-09-02T06:20:12Z</time>
      </trkpt>
      <trkpt lat="47.909" lon="6.80085">
        <ele>637.1</ele>
        <time>2022-09-02T06:20:14Z</time>
      </trkpt>
      <trkpt lat="47.909" lon="6.80086">
        <ele>637</ele>
        <time>2022-09-02T06:20:15Z</time>
      </trkpt>
      <trkpt lat="47.90899" lon="6.80086">
        <ele>637.2</ele>
        <time>2022-09-02T06:20:16Z</time>
      </trkpt>
      <trkpt lat="47.90898" lon="6.80086">
        <ele>637.5</ele>
        <time>2022-09-02T06:20:17Z</time>
      </trkpt>
      <trkpt lat="47.90898" lon="6.80087">
        <ele>637.4</ele>
        <time>2022-09-02T06:20:18Z</time>
      </trkpt>
      <trkpt lat="47.90897" lon="6.80087">
        <ele>637.6</ele>
        <time>2022-09-02T06:20:19Z</time>
      </trkpt>
      <trkpt lat="47.90896" lon="6.80087">
        <ele>637.9</ele>
        <time>2022-09-02T06:20:20Z</time>
      </trkpt>
      <trkpt lat="47.90895" lon="6.80087">
        <ele>638.1</ele>
        <time>2022-09-02T06:20:21Z</time>
      </trkpt>
      <trkpt lat="47.90894" lon="6.80087">
        <ele>638.4</ele>
        <time>2022-09-02T06:20:23Z</time>
      </trkpt>
      <trkpt lat="47.90893" lon="6.80088">
        <ele>638.5</ele>
        <time>2022-09-02T06:20:24Z</time>
      </trkpt>
      <trkpt lat="47.90892" lon="6.80088">
        <ele>638.7</ele>
        <time>2022-09-02T06:20:25Z</time>
      </trkpt>
      <trkpt lat="47.90892" lon="6.80089">
        <ele>638.6</ele>
        <time>2022-09-02T06:22:18Z</time>
      </trkpt>
      <trkpt lat="47.90892" lon="6.8009">
        <ele>638.5</ele>
        <time>2022-09-02T06:22:20Z</time>
      </trkpt>
      <trkpt lat="47.90891" lon="6.8009">
        <ele>638.8</ele>
        <time>2022-09-02T06:22:21Z</time>
      </trkpt>
      <trkpt lat="47.90891" lon="6.80091">
        <ele>638.7</ele>
        <time>2022-09-02T06:22:22Z</time>
      </trkpt>
      <trkpt lat="47.9089" lon="6.80092">
        <ele>638.8</ele>
        <time>2022-09-02T06:22:23Z</time>
      </trkpt>
      <trkpt lat="47.90889" lon="6.80092">
        <ele>639</ele>
        <time>2022-09-02T06:22:24Z</time>
      </trkpt>
      <trkpt lat="47.90888" lon="6.80093">
        <ele>639.1</ele>
        <time>2022-09-02T06:22:25Z</time>
      </trkpt>
      <trkpt lat="47.90887" lon="6.80093">
        <ele>639.3</ele>
        <time>2022-09-02T06:22:26Z</time>
      </trkpt>
      <trkpt lat="47.90886" lon="6.80094">
        <ele>639.3</ele>
        <time>2022-09-02T06:22:27Z</time>
      </trkpt>
      <trkpt lat="47.90885" lon="6.80094">
        <ele>639.5</ele>
        <time>2022-09-02T06:22:28Z</time>
      </trkpt>
      <trkpt lat="47.90884" lon="6.80094">
        <ele>639.6</ele>
        <time>2022-09-02T06:22:29Z</time>
      </trkpt>
      <trkpt lat="47.90883" lon="6.80095">
        <ele>639.7</ele>
        <time>2022-09-02T06:22:30Z</time>
      </trkpt>
      <trkpt lat="47.90882" lon="6.80095">
        <ele>639.8</ele>
        <time>2022-09-02T06:22:31Z</time>
      </trkpt>
      <trkpt lat="47.90881" lon="6.80095">
        <ele>640</ele>
        <time>2022-09-02T06:22:32Z</time>
      </trkpt>
      <trkpt lat="47.9088" lon="6.80095">
        <ele>640.2</ele>
        <time>2022-09-02T06:22:33Z</time>
      </trkpt>
      <trkpt lat="47.90879" lon="6.80096">
        <ele>640.2</ele>
        <time>2022-09-02T06:22:34Z</time>
      </trkpt>
      <trkpt lat="47.90878" lon="6.80096">
        <ele>640.4</ele>
        <time>2022-09-02T06:22:35Z</time>
      </trkpt>
      <trkpt lat="47.90876" lon="6.80096">
        <ele>640.7</ele>
        <time>2022-09-02T06:22:36Z</time>
      </trkpt>
      <trkpt lat="47.90875" lon="6.80097">
        <ele>640.8</ele>
        <time>2022-09-02T06:22:38Z</time>
      </trkpt>
      <trkpt lat="47.90874" lon="6.80097">
        <ele>640.9</ele>
        <time>2022-09-02T06:22:39Z</time>
      </trkpt>
      <trkpt lat="47.90873" lon="6.80097">
        <ele>641.1</ele>
        <time>2022-09-02T06:22:40Z</time>
      </trkpt>
      <trkpt lat="47.90872" lon="6.80098">
        <ele>641.2</ele>
        <time>2022-09-02T06:22:41Z</time>
      </trkpt>
      <trkpt lat="47.90871" lon="6.80098">
        <ele>641.3</ele>
        <time>2022-09-02T06:22:42Z</time>
      </trkpt>
      <trkpt lat="47.9087" lon="6.80098">
        <ele>641.5</ele>
        <time>2022-09-02T06:22:43Z</time>
      </trkpt>
      <trkpt lat="47.90869" lon="6.80099">
        <ele>641.6</ele>
        <time>2022-09-02T06:22:44Z</time>
      </trkpt>
      <trkpt lat="47.90868" lon="6.80099">
        <ele>641.7</ele>
        <time>2022-09-02T06:22:45Z</time>
      </trkpt>
      <trkpt lat="47.90867" lon="6.801">
        <ele>641.8</ele>
        <time>2022-09-02T06:22:46Z</time>
      </trkpt>
      <trkpt lat="47.90866" lon="6.801">
        <ele>642</ele>
        <time>2022-09-02T06:22:47Z</time>
      </trkpt>
      <trkpt lat="47.90864" lon="6.801">
        <ele>642.3</ele>
        <time>2022-09-02T06:22:48Z</time>
      </trkpt>
      <trkpt lat="47.90863" lon="6.80101">
        <ele>642.4</ele>
        <time>2022-09-02T06:22:49Z</time>
      </trkpt>
      <trkpt lat="47.90862" lon="6.80101">
        <ele>642.6</ele>
        <time>2022-09-02T06:22:50Z</time>
      </trkpt>
      <trkpt lat="47.90861" lon="6.80101">
        <ele>642.7</ele>
        <time>2022-09-02T06:22:51Z</time>
      </trkpt>
      <trkpt lat="47.9086" lon="6.80102">
        <ele>642.8</ele>
        <time>2022-09-02T06:22:52Z</time>
      </trkpt>
      <trkpt lat="47.90859" lon="6.80102">
        <ele>642.9</ele>
        <time>2022-09-02T06:22:53Z</time>
      </trkpt>
      <trkpt lat="47.90858" lon="6.80102">
        <ele>643</ele>
        <time>2022-09-02T06:22:54Z</time>
      </trkpt>
      <trkpt lat="47.90857" lon="6.80103">
        <ele>643.1</ele>
        <time>2022-09-02T06:22:55Z</time>
      </trkpt>
      <trkpt lat="47.90856" lon="6.80104">
        <ele>643.1</ele>
        <time>2022-09-02T06:22:56Z</time>
      </trkpt>
      <trkpt lat="47.90855" lon="6.80104">
        <ele>643.2</ele>
        <time>2022-09-02T06:22:57Z</time>
      </trkpt>
      <trkpt lat="47.90854" lon="6.80105">
        <ele>643.3</ele>
        <time>2022-09-02T06:22:58Z</time>
      </trkpt>
      <trkpt lat="47.90853" lon="6.80105">
        <ele>643.4</ele>
        <time>2022-09-02T06:22:59Z</time>
      </trkpt>
      <trkpt lat="47.90852" lon="6.80106">
        <ele>643.4</ele>
        <time>2022-09-02T06:23:00Z</time>
      </trkpt>
      <trkpt lat="47.90851" lon="6.80106">
        <ele>643.5</ele>
        <time>2022-09-02T06:23:01Z</time>
      </trkpt>
      <trkpt lat="47.9085" lon="6.80107">
        <ele>643.6</ele>
        <time>2022-09-02T06:23:02Z</time>
      </trkpt>
      <trkpt lat="47.90849" lon="6.80107">
        <ele>643.7</ele>
        <time>2022-09-02T06:23:03Z</time>
      </trkpt>
      <trkpt lat="47.90848" lon="6.80108">
        <ele>643.7</ele>
        <time>2022-09-02T06:23:04Z</time>
      </trkpt>
      <trkpt lat="47.90847" lon="6.80108">
        <ele>643.8</ele>
        <time>2022-09-02T06:23:05Z</time>
      </trkpt>
      <trkpt lat="47.90846" lon="6.80109">
        <ele>643.8</ele>
        <time>2022-09-02T06:23:06Z</time>
      </trkpt>
      <trkpt lat="47.90845" lon="6.80109">
        <ele>643.9</ele>
        <time>2022-09-02T06:23:07Z</time>
      </trkpt>
      <trkpt lat="47.90844" lon="6.8011">
        <ele>644</ele>
        <time>2022-09-02T06:23:08Z</time>
      </trkpt>
      <trkpt lat="47.90843" lon="6.8011">
        <ele>644.1</ele>
        <time>2022-09-02T06:23:09Z</time>
      </trkpt>
      <trkpt lat="47.90842" lon="6.80111">
        <ele>644.1</ele>
        <time>2022-09-02T06:23:10Z</time>
      </trkpt>
      <trkpt lat="47.90842" lon="6.80112">
        <ele>644</ele>
        <time>2022-09-02T06:23:11Z</time>
      </trkpt>
      <trkpt lat="47.90841" lon="6.80112">
        <ele>644.1</ele>
        <time>2022-09-02T06:23:12Z</time>
      </trkpt>
      <trkpt lat="47.9084" lon="6.80113">
        <ele>644.1</ele>
        <time>2022-09-02T06:23:13Z</time>
      </trkpt>
      <trkpt lat="47.90839" lon="6.80114">
        <ele>644.2</ele>
        <time>2022-09-02T06:23:14Z</time>
      </trkpt>
      <trkpt lat="47.90838" lon="6.80114">
        <ele>644.3</ele>
        <time>2022-09-02T06:23:15Z</time>
      </trkpt>
      <trkpt lat="47.90837" lon="6.80114">
        <ele>644.4</ele>
        <time>2022-09-02T06:23:16Z</time>
      </trkpt>
      <trkpt lat="47.90836" lon="6.80115">
        <ele>644.4</ele>
        <time>2022-09-02T06:23:17Z</time>
      </trkpt>
      <trkpt lat="47.90835" lon="6.80115">
        <ele>644.5</ele>
        <time>2022-09-02T06:23:18Z</time>
      </trkpt>
      <trkpt lat="47.90834" lon="6.80115">
        <ele>644.6</ele>
        <time>2022-09-02T06:23:20Z</time>
      </trkpt>
      <trkpt lat="47.90833" lon="6.80116">
        <ele>644.7</ele>
        <time>2022-09-02T06:23:21Z</time>
      </trkpt>
      <trkpt lat="47.90832" lon="6.80116">
        <ele>644.9</ele>
        <time>2022-09-02T06:23:22Z</time>
      </trkpt>
      <trkpt lat="47.90831" lon="6.80116">
        <ele>645.1</ele>
        <time>2022-09-02T06:23:23Z</time>
      </trkpt>
      <trkpt lat="47.90831" lon="6.80117">
        <ele>645</ele>
        <time>2022-09-02T06:23:24Z</time>
      </trkpt>
      <trkpt lat="47.9083" lon="6.80117">
        <ele>645.2</ele>
        <time>2022-09-02T06:23:25Z</time>
      </trkpt>
      <trkpt lat="47.90829" lon="6.80118">
        <ele>645.3</ele>
        <time>2022-09-02T06:23:26Z</time>
      </trkpt>
      <trkpt lat="47.90828" lon="6.80118">
        <ele>645.5</ele>
        <time>2022-09-02T06:23:27Z</time>
      </trkpt>
      <trkpt lat="47.90827" lon="6.80119">
        <ele>645.6</ele>
        <time>2022-09-02T06:23:28Z</time>
      </trkpt>
      <trkpt lat="47.90826" lon="6.80119">
        <ele>645.8</ele>
        <time>2022-09-02T06:23:29Z</time>
      </trkpt>
      <trkpt lat="47.90826" lon="6.8012">
        <ele>645.8</ele>
        <time>2022-09-02T06:23:30Z</time>
      </trkpt>
      <trkpt lat="47.90825" lon="6.80121">
        <ele>645.9</ele>
        <time>2022-09-02T06:23:31Z</time>
      </trkpt>
      <trkpt lat="47.90824" lon="6.80121">
        <ele>646.1</ele>
        <time>2022-09-02T06:23:32Z</time>
      </trkpt>
      <trkpt lat="47.90823" lon="6.80122">
        <ele>646.2</ele>
        <time>2022-09-02T06:23:33Z</time>
      </trkpt>
      <trkpt lat="47.90822" lon="6.80123">
        <ele>646.4</ele>
        <time>2022-09-02T06:23:35Z</time>
      </trkpt>
      <trkpt lat="47.90821" lon="6.80124">
        <ele>646.5</ele>
        <time>2022-09-02T06:23:36Z</time>
      </trkpt>
      <trkpt lat="47.9082" lon="6.80124">
        <ele>646.7</ele>
        <time>2022-09-02T06:23:37Z</time>
      </trkpt>
      <trkpt lat="47.90819" lon="6.80125">
        <ele>646.8</ele>
        <time>2022-09-02T06:23:38Z</time>
      </trkpt>
      <trkpt lat="47.90818" lon="6.80125">
        <ele>647</ele>
        <time>2022-09-02T06:23:39Z</time>
      </trkpt>
      <trkpt lat="47.90817" lon="6.80126">
        <ele>647.2</ele>
        <time>2022-09-02T06:23:40Z</time>
      </trkpt>
      <trkpt lat="47.90816" lon="6.80127">
        <ele>647.3</ele>
        <time>2022-09-02T06:23:41Z</time>
      </trkpt>
      <trkpt lat="47.90815" lon="6.80127">
        <ele>647.5</ele>
        <time>2022-09-02T06:23:42Z</time>
      </trkpt>
      <trkpt lat="47.90815" lon="6.80128">
        <ele>647.5</ele>
        <time>2022-09-02T06:23:43Z</time>
      </trkpt>
      <trkpt lat="47.90814" lon="6.80128">
        <ele>647.7</ele>
        <time>2022-09-02T06:23:44Z</time>
      </trkpt>
      <trkpt lat="47.90813" lon="6.80129">
        <ele>647.8</ele>
        <time>2022-09-02T06:23:45Z</time>
      </trkpt>
      <trkpt lat="47.90812" lon="6.80129">
        <ele>648</ele>
        <time>2022-09-02T06:23:46Z</time>
      </trkpt>
      <trkpt lat="47.90811" lon="6.8013">
        <ele>648.2</ele>
        <time>2022-09-02T06:23:47Z</time>
      </trkpt>
      <trkpt lat="47.90811" lon="6.80131">
        <ele>648.2</ele>
        <time>2022-09-02T06:23:48Z</time>
      </trkpt>
      <trkpt lat="47.9081" lon="6.80131">
        <ele>648.4</ele>
        <time>2022-09-02T06:23:49Z</time>
      </trkpt>
      <trkpt lat="47.90809" lon="6.80132">
        <ele>648.5</ele>
        <time>2022-09-02T06:23:50Z</time>
      </trkpt>
      <trkpt lat="47.90809" lon="6.80133">
        <ele>648.5</ele>
        <time>2022-09-02T06:23:51Z</time>
      </trkpt>
      <trkpt lat="47.90808" lon="6.80133">
        <ele>648.7</ele>
        <time>2022-09-02T06:23:52Z</time>
      </trkpt>
      <trkpt lat="47.90808" lon="6.80134">
        <ele>648.7</ele>
        <time>2022-09-02T06:23:53Z</time>
      </trkpt>
      <trkpt lat="47.90807" lon="6.80135">
        <ele>648.8</ele>
        <time>2022-09-02T06:23:54Z</time>
      </trkpt>
      <trkpt lat="47.90806" lon="6.80136">
        <ele>649</ele>
        <time>2022-09-02T06:23:56Z</time>
      </trkpt>
      <trkpt lat="47.90805" lon="6.80137">
        <ele>649.2</ele>
        <time>2022-09-02T06:23:58Z</time>
      </trkpt>
      <trkpt lat="47.90804" lon="6.80138">
        <ele>649.4</ele>
        <time>2022-09-02T06:24:00Z</time>
      </trkpt>
      <trkpt lat="47.90803" lon="6.80138">
        <ele>649.7</ele>
        <time>2022-09-02T06:24:01Z</time>
      </trkpt>
      <trkpt lat="47.90802" lon="6.80139">
        <ele>649.9</ele>
        <time>2022-09-02T06:24:02Z</time>
      </trkpt>
      <trkpt lat="47.90801" lon="6.80139">
        <ele>650.1</ele>
        <time>2022-09-02T06:24:03Z</time>
      </trkpt>
      <trkpt lat="47.90801" lon="6.8014">
        <ele>650.1</ele>
        <time>2022-09-02T06:24:04Z</time>
      </trkpt>
      <trkpt lat="47.908" lon="6.80141">
        <ele>650.3</ele>
        <time>2022-09-02T06:24:05Z</time>
      </trkpt>
      <trkpt lat="47.90799" lon="6.80141">
        <ele>650.6</ele>
        <time>2022-09-02T06:24:06Z</time>
      </trkpt>
      <trkpt lat="47.90798" lon="6.80142">
        <ele>650.8</ele>
        <time>2022-09-02T06:24:07Z</time>
      </trkpt>
      <trkpt lat="47.90798" lon="6.80143">
        <ele>650.8</ele>
        <time>2022-09-02T06:24:08Z</time>
      </trkpt>
      <trkpt lat="47.90797" lon="6.80143">
        <ele>651.1</ele>
        <time>2022-09-02T06:24:09Z</time>
      </trkpt>
      <trkpt lat="47.90796" lon="6.80144">
        <ele>651.3</ele>
        <time>2022-09-02T06:24:10Z</time>
      </trkpt>
      <trkpt lat="47.90796" lon="6.80145">
        <ele>651.3</ele>
        <time>2022-09-02T06:24:11Z</time>
      </trkpt>
      <trkpt lat="47.90795" lon="6.80145">
        <ele>651.5</ele>
        <time>2022-09-02T06:24:12Z</time>
      </trkpt>
      <trkpt lat="47.90795" lon="6.80146">
        <ele>651.5</ele>
        <time>2022-09-02T06:24:13Z</time>
      </trkpt>
      <trkpt lat="47.90794" lon="6.80146">
        <ele>651.8</ele>
        <time>2022-09-02T06:24:14Z</time>
      </trkpt>
      <trkpt lat="47.90793" lon="6.80147">
        <ele>652</ele>
        <time>2022-09-02T06:24:15Z</time>
      </trkpt>
      <trkpt lat="47.90793" lon="6.80148">
        <ele>652</ele>
        <time>2022-09-02T06:24:16Z</time>
      </trkpt>
      <trkpt lat="47.90792" lon="6.80148">
        <ele>652.2</ele>
        <time>2022-09-02T06:24:17Z</time>
      </trkpt>
      <trkpt lat="47.90792" lon="6.80149">
        <ele>652.2</ele>
        <time>2022-09-02T06:24:18Z</time>
      </trkpt>
      <trkpt lat="47.90791" lon="6.8015">
        <ele>652.5</ele>
        <time>2022-09-02T06:24:19Z</time>
      </trkpt>
      <trkpt lat="47.9079" lon="6.8015">
        <ele>652.7</ele>
        <time>2022-09-02T06:24:20Z</time>
      </trkpt>
      <trkpt lat="47.9079" lon="6.80151">
        <ele>652.7</ele>
        <time>2022-09-02T06:24:21Z</time>
      </trkpt>
      <trkpt lat="47.90789" lon="6.80151">
        <ele>653</ele>
        <time>2022-09-02T06:24:22Z</time>
      </trkpt>
      <trkpt lat="47.90788" lon="6.80151">
        <ele>653.3</ele>
        <time>2022-09-02T06:24:23Z</time>
      </trkpt>
      <trkpt lat="47.90787" lon="6.80152">
        <ele>653.5</ele>
        <time>2022-09-02T06:24:24Z</time>
      </trkpt>
      <trkpt lat="47.90786" lon="6.80152">
        <ele>653.8</ele>
        <time>2022-09-02T06:24:26Z</time>
      </trkpt>
      <trkpt lat="47.90785" lon="6.80152">
        <ele>654.1</ele>
        <time>2022-09-02T06:24:27Z</time>
      </trkpt>
      <trkpt lat="47.90784" lon="6.80152">
        <ele>654.3</ele>
        <time>2022-09-02T06:24:28Z</time>
      </trkpt>
      <trkpt lat="47.90784" lon="6.80151">
        <ele>654.3</ele>
        <time>2022-09-02T06:24:29Z</time>
      </trkpt>
      <trkpt lat="47.90783" lon="6.80151">
        <ele>654.6</ele>
        <time>2022-09-02T06:24:30Z</time>
      </trkpt>
      <trkpt lat="47.90782" lon="6.80151">
        <ele>654.9</ele>
        <time>2022-09-02T06:24:31Z</time>
      </trkpt>
      <trkpt lat="47.90781" lon="6.80151">
        <ele>655.1</ele>
        <time>2022-09-02T06:24:32Z</time>
      </trkpt>
      <trkpt lat="47.9078" lon="6.8015">
        <ele>655.4</ele>
        <time>2022-09-02T06:24:33Z</time>
      </trkpt>
      <trkpt lat="47.90779" lon="6.8015">
        <ele>655.7</ele>
        <time>2022-09-02T06:24:34Z</time>
      </trkpt>
      <trkpt lat="47.90778" lon="6.8015">
        <ele>655.9</ele>
        <time>2022-09-02T06:24:35Z</time>
      </trkpt>
      <trkpt lat="47.90777" lon="6.80149">
        <ele>656.2</ele>
        <time>2022-09-02T06:24:36Z</time>
      </trkpt>
      <trkpt lat="47.90776" lon="6.80148">
        <ele>656.4</ele>
        <time>2022-09-02T06:24:37Z</time>
      </trkpt>
      <trkpt lat="47.90776" lon="6.80147">
        <ele>656.4</ele>
        <time>2022-09-02T06:24:38Z</time>
      </trkpt>
      <trkpt lat="47.90775" lon="6.80146">
        <ele>656.7</ele>
        <time>2022-09-02T06:24:39Z</time>
      </trkpt>
      <trkpt lat="47.90775" lon="6.80145">
        <ele>656.7</ele>
        <time>2022-09-02T06:24:40Z</time>
      </trkpt>
      <trkpt lat="47.90774" lon="6.80144">
        <ele>656.9</ele>
        <time>2022-09-02T06:24:41Z</time>
      </trkpt>
      <trkpt lat="47.90774" lon="6.80143">
        <ele>656.9</ele>
        <time>2022-09-02T06:24:42Z</time>
      </trkpt>
      <trkpt lat="47.90773" lon="6.80142">
        <ele>657.2</ele>
        <time>2022-09-02T06:24:43Z</time>
      </trkpt>
      <trkpt lat="47.90773" lon="6.8014">
        <ele>657.2</ele>
        <time>2022-09-02T06:24:44Z</time>
      </trkpt>
      <trkpt lat="47.90773" lon="6.80139">
        <ele>657.2</ele>
        <time>2022-09-02T06:24:45Z</time>
      </trkpt>
      <trkpt lat="47.90773" lon="6.80138">
        <ele>657.2</ele>
        <time>2022-09-02T06:24:46Z</time>
      </trkpt>
      <trkpt lat="47.90772" lon="6.80136">
        <ele>657.5</ele>
        <time>2022-09-02T06:24:47Z</time>
      </trkpt>
      <trkpt lat="47.90772" lon="6.80135">
        <ele>657.5</ele>
        <time>2022-09-02T06:24:48Z</time>
      </trkpt>
      <trkpt lat="47.90772" lon="6.80134">
        <ele>657.5</ele>
        <time>2022-09-02T06:24:49Z</time>
      </trkpt>
      <trkpt lat="47.90772" lon="6.80132">
        <ele>657.5</ele>
        <time>2022-09-02T06:24:50Z</time>
      </trkpt>
      <trkpt lat="47.90772" lon="6.80131">
        <ele>657.5</ele>
        <time>2022-09-02T06:24:51Z</time>
      </trkpt>
      <trkpt lat="47.90771" lon="6.80129">
        <ele>657.7</ele>
        <time>2022-09-02T06:24:52Z</time>
      </trkpt>
      <trkpt lat="47.90771" lon="6.80128">
        <ele>657.7</ele>
        <time>2022-09-02T06:24:53Z</time>
      </trkpt>
      <trkpt lat="47.90771" lon="6.80127">
        <ele>657.7</ele>
        <time>2022-09-02T06:24:54Z</time>
      </trkpt>
      <trkpt lat="47.90771" lon="6.80125">
        <ele>657.7</ele>
        <time>2022-09-02T06:24:55Z</time>
      </trkpt>
      <trkpt lat="47.9077" lon="6.80124">
        <ele>658</ele>
        <time>2022-09-02T06:24:56Z</time>
      </trkpt>
      <trkpt lat="47.9077" lon="6.80123">
        <ele>658</ele>
        <time>2022-09-02T06:24:57Z</time>
      </trkpt>
      <trkpt lat="47.9077" lon="6.80121">
        <ele>658</ele>
        <time>2022-09-02T06:24:58Z</time>
      </trkpt>
      <trkpt lat="47.90769" lon="6.8012">
        <ele>658.2</ele>
        <time>2022-09-02T06:24:59Z</time>
      </trkpt>
      <trkpt lat="47.90769" lon="6.80118">
        <ele>658.2</ele>
        <time>2022-09-02T06:25:00Z</time>
      </trkpt>
      <trkpt lat="47.90769" lon="6.80117">
        <ele>658.2</ele>
        <time>2022-09-02T06:25:01Z</time>
      </trkpt>
      <trkpt lat="47.90768" lon="6.80116">
        <ele>658.5</ele>
        <time>2022-09-02T06:25:02Z</time>
      </trkpt>
      <trkpt lat="47.90768" lon="6.80115">
        <ele>658.5</ele>
        <time>2022-09-02T06:25:03Z</time>
      </trkpt>
      <trkpt lat="47.90767" lon="6.80113">
        <ele>658.7</ele>
        <time>2022-09-02T06:25:04Z</time>
      </trkpt>
      <trkpt lat="47.90767" lon="6.80112">
        <ele>658.7</ele>
        <time>2022-09-02T06:25:05Z</time>
      </trkpt>
      <trkpt lat="47.90767" lon="6.8011">
        <ele>658.8</ele>
        <time>2022-09-02T06:25:06Z</time>
      </trkpt>
      <trkpt lat="47.90767" lon="6.80109">
        <ele>658.8</ele>
        <time>2022-09-02T06:25:07Z</time>
      </trkpt>
      <trkpt lat="47.90766" lon="6.80108">
        <ele>659.1</ele>
        <time>2022-09-02T06:25:08Z</time>
      </trkpt>
      <trkpt lat="47.90766" lon="6.80106">
        <ele>659.2</ele>
        <time>2022-09-02T06:25:09Z</time>
      </trkpt>
      <trkpt lat="47.90766" lon="6.80105">
        <ele>659.2</ele>
        <time>2022-09-02T06:25:10Z</time>
      </trkpt>
      <trkpt lat="47.90766" lon="6.80103">
        <ele>659.3</ele>
        <time>2022-09-02T06:25:11Z</time>
      </trkpt>
      <trkpt lat="47.90765" lon="6.80102">
        <ele>659.5</ele>
        <time>2022-09-02T06:25:12Z</time>
      </trkpt>
      <trkpt lat="47.90765" lon="6.801">
        <ele>659.6</ele>
        <time>2022-09-02T06:25:13Z</time>
      </trkpt>
      <trkpt lat="47.90765" lon="6.80099">
        <ele>659.7</ele>
        <time>2022-09-02T06:25:14Z</time>
      </trkpt>
      <trkpt lat="47.90765" lon="6.80098">
        <ele>659.7</ele>
        <time>2022-09-02T06:25:15Z</time>
      </trkpt>
      <trkpt lat="47.90764" lon="6.80096">
        <ele>660</ele>
        <time>2022-09-02T06:25:16Z</time>
      </trkpt>
      <trkpt lat="47.90764" lon="6.80095">
        <ele>660.1</ele>
        <time>2022-09-02T06:25:17Z</time>
      </trkpt>
      <trkpt lat="47.90764" lon="6.80094">
        <ele>660.1</ele>
        <time>2022-09-02T06:25:18Z</time>
      </trkpt>
      <trkpt lat="47.90763" lon="6.80092">
        <ele>660.4</ele>
        <time>2022-09-02T06:25:19Z</time>
      </trkpt>
      <trkpt lat="47.90763" lon="6.80091">
        <ele>660.4</ele>
        <time>2022-09-02T06:25:20Z</time>
      </trkpt>
      <trkpt lat="47.90763" lon="6.80089">
        <ele>660.5</ele>
        <time>2022-09-02T06:25:21Z</time>
      </trkpt>
      <trkpt lat="47.90763" lon="6.80088">
        <ele>660.6</ele>
        <time>2022-09-02T06:25:22Z</time>
      </trkpt>
      <trkpt lat="47.90762" lon="6.80086">
        <ele>660.9</ele>
        <time>2022-09-02T06:25:23Z</time>
      </trkpt>
      <trkpt lat="47.90762" lon="6.80085">
        <ele>660.9</ele>
        <time>2022-09-02T06:25:24Z</time>
      </trkpt>
      <trkpt lat="47.90762" lon="6.80083">
        <ele>661</ele>
        <time>2022-09-02T06:25:25Z</time>
      </trkpt>
      <trkpt lat="47.90762" lon="6.80082">
        <ele>661</ele>
        <time>2022-09-02T06:25:26Z</time>
      </trkpt>
      <trkpt lat="47.90762" lon="6.8008">
        <ele>661.1</ele>
        <time>2022-09-02T06:25:27Z</time>
      </trkpt>
      <trkpt lat="47.90761" lon="6.80079">
        <ele>661.4</ele>
        <time>2022-09-02T06:25:28Z</time>
      </trkpt>
      <trkpt lat="47.90761" lon="6.80078">
        <ele>661.5</ele>
        <time>2022-09-02T06:25:29Z</time>
      </trkpt>
      <trkpt lat="47.90761" lon="6.80076">
        <ele>661.6</ele>
        <time>2022-09-02T06:25:30Z</time>
      </trkpt>
      <trkpt lat="47.90761" lon="6.80075">
        <ele>661.6</ele>
        <time>2022-09-02T06:25:31Z</time>
      </trkpt>
      <trkpt lat="47.90761" lon="6.80074">
        <ele>661.7</ele>
        <time>2022-09-02T06:25:32Z</time>
      </trkpt>
      <trkpt lat="47.90761" lon="6.80072">
        <ele>661.8</ele>
        <time>2022-09-02T06:25:33Z</time>
      </trkpt>
      <trkpt lat="47.90761" lon="6.8007">
        <ele>661.9</ele>
        <time>2022-09-02T06:25:34Z</time>
      </trkpt>
      <trkpt lat="47.90761" lon="6.80069">
        <ele>661.9</ele>
        <time>2022-09-02T06:25:35Z</time>
      </trkpt>
      <trkpt lat="47.90761" lon="6.80067">
        <ele>662</ele>
        <time>2022-09-02T06:25:36Z</time>
      </trkpt>
      <trkpt lat="47.90761" lon="6.80066">
        <ele>662.1</ele>
        <time>2022-09-02T06:25:37Z</time>
      </trkpt>
      <trkpt lat="47.90761" lon="6.80064">
        <ele>662.2</ele>
        <time>2022-09-02T06:25:38Z</time>
      </trkpt>
      <trkpt lat="47.90761" lon="6.80062">
        <ele>662.3</ele>
        <time>2022-09-02T06:25:39Z</time>
      </trkpt>
      <trkpt lat="47.90761" lon="6.80061">
        <ele>662.4</ele>
        <time>2022-09-02T06:25:40Z</time>
      </trkpt>
      <trkpt lat="47.90761" lon="6.8006">
        <ele>662.4</ele>
        <time>2022-09-02T06:25:41Z</time>
      </trkpt>
      <trkpt lat="47.90761" lon="6.80058">
        <ele>662.5</ele>
        <time>2022-09-02T06:25:42Z</time>
      </trkpt>
      <trkpt lat="47.90761" lon="6.80057">
        <ele>662.6</ele>
        <time>2022-09-02T06:25:43Z</time>
      </trkpt>
      <trkpt lat="47.90761" lon="6.80055">
        <ele>662.7</ele>
        <time>2022-09-02T06:25:44Z</time>
      </trkpt>
      <trkpt lat="47.90761" lon="6.80054">
        <ele>662.7</ele>
        <time>2022-09-02T06:25:45Z</time>
      </trkpt>
      <trkpt lat="47.90761" lon="6.80053">
        <ele>662.8</ele>
        <time>2022-09-02T06:25:46Z</time>
      </trkpt>
      <trkpt lat="47.90761" lon="6.80051">
        <ele>663</ele>
        <time>2022-09-02T06:25:47Z</time>
      </trkpt>
      <trkpt lat="47.90761" lon="6.8005">
        <ele>663</ele>
        <time>2022-09-02T06:25:48Z</time>
      </trkpt>
      <trkpt lat="47.90761" lon="6.80048">
        <ele>663.2</ele>
        <time>2022-09-02T06:25:49Z</time>
      </trkpt>
      <trkpt lat="47.90761" lon="6.80046">
        <ele>663.3</ele>
        <time>2022-09-02T06:25:50Z</time>
      </trkpt>
      <trkpt lat="47.90761" lon="6.80045">
        <ele>663.4</ele>
        <time>2022-09-02T06:25:51Z</time>
      </trkpt>
      <trkpt lat="47.90761" lon="6.80043">
        <ele>663.5</ele>
        <time>2022-09-02T06:25:52Z</time>
      </trkpt>
      <trkpt lat="47.90761" lon="6.80042">
        <ele>663.6</ele>
        <time>2022-09-02T06:25:53Z</time>
      </trkpt>
      <trkpt lat="47.90761" lon="6.80041">
        <ele>663.7</ele>
        <time>2022-09-02T06:25:54Z</time>
      </trkpt>
      <trkpt lat="47.90761" lon="6.80039">
        <ele>663.8</ele>
        <time>2022-09-02T06:25:55Z</time>
      </trkpt>
      <trkpt lat="47.90761" lon="6.80038">
        <ele>663.9</ele>
        <time>2022-09-02T06:25:56Z</time>
      </trkpt>
      <trkpt lat="47.90761" lon="6.80036">
        <ele>664</ele>
        <time>2022-09-02T06:25:57Z</time>
      </trkpt>
      <trkpt lat="47.90761" lon="6.80035">
        <ele>664.1</ele>
        <time>2022-09-02T06:25:58Z</time>
      </trkpt>
      <trkpt lat="47.9076" lon="6.80034">
        <ele>664.4</ele>
        <time>2022-09-02T06:25:59Z</time>
      </trkpt>
      <trkpt lat="47.9076" lon="6.80032">
        <ele>664.5</ele>
        <time>2022-09-02T06:26:00Z</time>
      </trkpt>
      <trkpt lat="47.9076" lon="6.80031">
        <ele>664.6</ele>
        <time>2022-09-02T06:26:01Z</time>
      </trkpt>
      <trkpt lat="47.9076" lon="6.80029">
        <ele>664.8</ele>
        <time>2022-09-02T06:26:02Z</time>
      </trkpt>
      <trkpt lat="47.9076" lon="6.80028">
        <ele>664.8</ele>
        <time>2022-09-02T06:26:03Z</time>
      </trkpt>
      <trkpt lat="47.9076" lon="6.80027">
        <ele>664.9</ele>
        <time>2022-09-02T06:26:04Z</time>
      </trkpt>
      <trkpt lat="47.9076" lon="6.80025">
        <ele>664.9</ele>
        <time>2022-09-02T06:26:05Z</time>
      </trkpt>
      <trkpt lat="47.9076" lon="6.80024">
        <ele>665</ele>
        <time>2022-09-02T06:26:06Z</time>
      </trkpt>
      <trkpt lat="47.90759" lon="6.80023">
        <ele>665.2</ele>
        <time>2022-09-02T06:26:07Z</time>
      </trkpt>
      <trkpt lat="47.90759" lon="6.80021">
        <ele>665.3</ele>
        <time>2022-09-02T06:26:08Z</time>
      </trkpt>
      <trkpt lat="47.90759" lon="6.8002">
        <ele>665.3</ele>
        <time>2022-09-02T06:26:09Z</time>
      </trkpt>
      <trkpt lat="47.90759" lon="6.80019">
        <ele>665.4</ele>
        <time>2022-09-02T06:26:10Z</time>
      </trkpt>
      <trkpt lat="47.90758" lon="6.80017">
        <ele>665.7</ele>
        <time>2022-09-02T06:26:11Z</time>
      </trkpt>
      <trkpt lat="47.90758" lon="6.80016">
        <ele>665.7</ele>
        <time>2022-09-02T06:26:12Z</time>
      </trkpt>
      <trkpt lat="47.90758" lon="6.80014">
        <ele>665.8</ele>
        <time>2022-09-02T06:26:13Z</time>
      </trkpt>
      <trkpt lat="47.90757" lon="6.80013">
        <ele>666</ele>
        <time>2022-09-02T06:26:14Z</time>
      </trkpt>
      <trkpt lat="47.90757" lon="6.80011">
        <ele>666.1</ele>
        <time>2022-09-02T06:26:15Z</time>
      </trkpt>
      <trkpt lat="47.90757" lon="6.8001">
        <ele>666.1</ele>
        <time>2022-09-02T06:26:16Z</time>
      </trkpt>
      <trkpt lat="47.90756" lon="6.80008">
        <ele>666.4</ele>
        <time>2022-09-02T06:26:17Z</time>
      </trkpt>
      <trkpt lat="47.90756" lon="6.80007">
        <ele>666.5</ele>
        <time>2022-09-02T06:26:18Z</time>
      </trkpt>
      <trkpt lat="47.90755" lon="6.80006">
        <ele>666.7</ele>
        <time>2022-09-02T06:26:19Z</time>
      </trkpt>
      <trkpt lat="47.90755" lon="6.80005">
        <ele>666.7</ele>
        <time>2022-09-02T06:26:20Z</time>
      </trkpt>
      <trkpt lat="47.90754" lon="6.80003">
        <ele>667</ele>
        <time>2022-09-02T06:26:21Z</time>
      </trkpt>
      <trkpt lat="47.90754" lon="6.80002">
        <ele>667.1</ele>
        <time>2022-09-02T06:26:22Z</time>
      </trkpt>
      <trkpt lat="47.90753" lon="6.80001">
        <ele>667.3</ele>
        <time>2022-09-02T06:26:23Z</time>
      </trkpt>
      <trkpt lat="47.90753" lon="6.8">
        <ele>667.4</ele>
        <time>2022-09-02T06:26:24Z</time>
      </trkpt>
      <trkpt lat="47.90752" lon="6.79998">
        <ele>667.6</ele>
        <time>2022-09-02T06:26:25Z</time>
      </trkpt>
      <trkpt lat="47.90752" lon="6.79997">
        <ele>667.6</ele>
        <time>2022-09-02T06:26:26Z</time>
      </trkpt>
      <trkpt lat="47.90751" lon="6.79996">
        <ele>667.8</ele>
        <time>2022-09-02T06:26:27Z</time>
      </trkpt>
      <trkpt lat="47.90751" lon="6.79995">
        <ele>667.8</ele>
        <time>2022-09-02T06:26:28Z</time>
      </trkpt>
      <trkpt lat="47.9075" lon="6.79994">
        <ele>668</ele>
        <time>2022-09-02T06:26:29Z</time>
      </trkpt>
      <trkpt lat="47.9075" lon="6.79992">
        <ele>668</ele>
        <time>2022-09-02T06:26:30Z</time>
      </trkpt>
      <trkpt lat="47.90749" lon="6.79991">
        <ele>668.2</ele>
        <time>2022-09-02T06:26:31Z</time>
      </trkpt>
      <trkpt lat="47.90749" lon="6.7999">
        <ele>668.2</ele>
        <time>2022-09-02T06:26:32Z</time>
      </trkpt>
      <trkpt lat="47.90748" lon="6.79988">
        <ele>668.5</ele>
        <time>2022-09-02T06:26:33Z</time>
      </trkpt>
      <trkpt lat="47.90748" lon="6.79987">
        <ele>668.5</ele>
        <time>2022-09-02T06:26:34Z</time>
      </trkpt>
      <trkpt lat="47.90747" lon="6.79986">
        <ele>668.7</ele>
        <time>2022-09-02T06:26:35Z</time>
      </trkpt>
      <trkpt lat="47.90747" lon="6.79984">
        <ele>668.7</ele>
        <time>2022-09-02T06:26:36Z</time>
      </trkpt>
      <trkpt lat="47.90746" lon="6.79983">
        <ele>668.9</ele>
        <time>2022-09-02T06:26:37Z</time>
      </trkpt>
      <trkpt lat="47.90746" lon="6.79982">
        <ele>668.9</ele>
        <time>2022-09-02T06:26:38Z</time>
      </trkpt>
      <trkpt lat="47.90745" lon="6.7998">
        <ele>669.1</ele>
        <time>2022-09-02T06:26:39Z</time>
      </trkpt>
      <trkpt lat="47.90745" lon="6.79979">
        <ele>669.1</ele>
        <time>2022-09-02T06:26:40Z</time>
      </trkpt>
      <trkpt lat="47.90744" lon="6.79978">
        <ele>669.3</ele>
        <time>2022-09-02T06:26:41Z</time>
      </trkpt>
      <trkpt lat="47.90743" lon="6.79977">
        <ele>669.6</ele>
        <time>2022-09-02T06:26:42Z</time>
      </trkpt>
      <trkpt lat="47.90743" lon="6.79976">
        <ele>669.5</ele>
        <time>2022-09-02T06:26:43Z</time>
      </trkpt>
      <trkpt lat="47.90742" lon="6.79974">
        <ele>669.7</ele>
        <time>2022-09-02T06:26:44Z</time>
      </trkpt>
      <trkpt lat="47.90742" lon="6.79973">
        <ele>669.7</ele>
        <time>2022-09-02T06:26:45Z</time>
      </trkpt>
      <trkpt lat="47.90741" lon="6.79972">
        <ele>669.9</ele>
        <time>2022-09-02T06:26:46Z</time>
      </trkpt>
      <trkpt lat="47.90741" lon="6.79971">
        <ele>670</ele>
        <time>2022-09-02T06:26:47Z</time>
      </trkpt>
      <trkpt lat="47.90741" lon="6.79969">
        <ele>670</ele>
        <time>2022-09-02T06:26:48Z</time>
      </trkpt>
      <trkpt lat="47.9074" lon="6.79968">
        <ele>670.2</ele>
        <time>2022-09-02T06:26:49Z</time>
      </trkpt>
      <trkpt lat="47.9074" lon="6.79967">
        <ele>670.2</ele>
        <time>2022-09-02T06:26:50Z</time>
      </trkpt>
      <trkpt lat="47.90739" lon="6.79966">
        <ele>670.4</ele>
        <time>2022-09-02T06:26:51Z</time>
      </trkpt>
      <trkpt lat="47.90739" lon="6.79965">
        <ele>670.4</ele>
        <time>2022-09-02T06:26:52Z</time>
      </trkpt>
      <trkpt lat="47.90738" lon="6.79963">
        <ele>670.5</ele>
        <time>2022-09-02T06:26:53Z</time>
      </trkpt>
      <trkpt lat="47.90737" lon="6.79961">
        <ele>670.7</ele>
        <time>2022-09-02T06:26:59Z</time>
      </trkpt>
      <trkpt lat="47.90736" lon="6.7996">
        <ele>670.8</ele>
        <time>2022-09-02T06:27:01Z</time>
      </trkpt>
      <trkpt lat="47.90735" lon="6.7996">
        <ele>670.9</ele>
        <time>2022-09-02T06:27:03Z</time>
      </trkpt>
      <trkpt lat="47.90734" lon="6.79959">
        <ele>671</ele>
        <time>2022-09-02T06:27:05Z</time>
      </trkpt>
      <trkpt lat="47.90733" lon="6.79959">
        <ele>671.2</ele>
        <time>2022-09-02T06:27:06Z</time>
      </trkpt>
      <trkpt lat="47.90732" lon="6.7996">
        <ele>671.3</ele>
        <time>2022-09-02T06:27:07Z</time>
      </trkpt>
      <trkpt lat="47.90731" lon="6.7996">
        <ele>671.5</ele>
        <time>2022-09-02T06:27:08Z</time>
      </trkpt>
      <trkpt lat="47.9073" lon="6.7996">
        <ele>671.6</ele>
        <time>2022-09-02T06:27:09Z</time>
      </trkpt>
      <trkpt lat="47.90729" lon="6.7996">
        <ele>671.8</ele>
        <time>2022-09-02T06:27:10Z</time>
      </trkpt>
      <trkpt lat="47.90728" lon="6.7996">
        <ele>671.9</ele>
        <time>2022-09-02T06:27:11Z</time>
      </trkpt>
      <trkpt lat="47.90728" lon="6.79961">
        <ele>672</ele>
        <time>2022-09-02T06:27:12Z</time>
      </trkpt>
      <trkpt lat="47.90727" lon="6.79962">
        <ele>672.2</ele>
        <time>2022-09-02T06:27:13Z</time>
      </trkpt>
      <trkpt lat="47.90727" lon="6.79963">
        <ele>672.3</ele>
        <time>2022-09-02T06:27:14Z</time>
      </trkpt>
      <trkpt lat="47.90727" lon="6.79964">
        <ele>672.3</ele>
        <time>2022-09-02T06:27:15Z</time>
      </trkpt>
      <trkpt lat="47.90727" lon="6.79965">
        <ele>672.4</ele>
        <time>2022-09-02T06:27:16Z</time>
      </trkpt>
      <trkpt lat="47.90727" lon="6.79967">
        <ele>672.6</ele>
        <time>2022-09-02T06:27:17Z</time>
      </trkpt>
      <trkpt lat="47.90728" lon="6.79968">
        <ele>672.5</ele>
        <time>2022-09-02T06:27:18Z</time>
      </trkpt>
      <trkpt lat="47.90728" lon="6.7997">
        <ele>672.6</ele>
        <time>2022-09-02T06:27:19Z</time>
      </trkpt>
      <trkpt lat="47.90728" lon="6.79971">
        <ele>672.7</ele>
        <time>2022-09-02T06:27:20Z</time>
      </trkpt>
      <trkpt lat="47.90728" lon="6.79973">
        <ele>672.8</ele>
        <time>2022-09-02T06:27:21Z</time>
      </trkpt>
      <trkpt lat="47.90728" lon="6.79974">
        <ele>672.8</ele>
        <time>2022-09-02T06:27:22Z</time>
      </trkpt>
      <trkpt lat="47.90729" lon="6.79976">
        <ele>672.6</ele>
        <time>2022-09-02T06:27:23Z</time>
      </trkpt>
      <trkpt lat="47.90729" lon="6.79977">
        <ele>672.7</ele>
        <time>2022-09-02T06:27:24Z</time>
      </trkpt>
      <trkpt lat="47.90729" lon="6.79978">
        <ele>672.7</ele>
        <time>2022-09-02T06:27:25Z</time>
      </trkpt>
      <trkpt lat="47.90729" lon="6.7998">
        <ele>672.7</ele>
        <time>2022-09-02T06:27:26Z</time>
      </trkpt>
      <trkpt lat="47.9073" lon="6.79981">
        <ele>672.5</ele>
        <time>2022-09-02T06:27:27Z</time>
      </trkpt>
      <trkpt lat="47.9073" lon="6.79982">
        <ele>672.6</ele>
        <time>2022-09-02T06:27:28Z</time>
      </trkpt>
      <trkpt lat="47.9073" lon="6.79983">
        <ele>672.6</ele>
        <time>2022-09-02T06:27:29Z</time>
      </trkpt>
      <trkpt lat="47.9073" lon="6.79985">
        <ele>672.7</ele>
        <time>2022-09-02T06:27:30Z</time>
      </trkpt>
      <trkpt lat="47.9073" lon="6.79986">
        <ele>672.7</ele>
        <time>2022-09-02T06:27:31Z</time>
      </trkpt>
      <trkpt lat="47.9073" lon="6.79987">
        <ele>672.7</ele>
        <time>2022-09-02T06:27:32Z</time>
      </trkpt>
      <trkpt lat="47.90729" lon="6.79989">
        <ele>673</ele>
        <time>2022-09-02T06:27:33Z</time>
      </trkpt>
      <trkpt lat="47.90729" lon="6.7999">
        <ele>673</ele>
        <time>2022-09-02T06:27:34Z</time>
      </trkpt>
      <trkpt lat="47.90729" lon="6.79991">
        <ele>673</ele>
        <time>2022-09-02T06:27:35Z</time>
      </trkpt>
      <trkpt lat="47.90729" lon="6.79992">
        <ele>673.1</ele>
        <time>2022-09-02T06:27:36Z</time>
      </trkpt>
      <trkpt lat="47.90729" lon="6.79993">
        <ele>673.1</ele>
        <time>2022-09-02T06:27:37Z</time>
      </trkpt>
      <trkpt lat="47.90729" lon="6.79995">
        <ele>673.2</ele>
        <time>2022-09-02T06:27:38Z</time>
      </trkpt>
      <trkpt lat="47.90728" lon="6.79996">
        <ele>673.4</ele>
        <time>2022-09-02T06:27:39Z</time>
      </trkpt>
      <trkpt lat="47.90728" lon="6.79997">
        <ele>673.5</ele>
        <time>2022-09-02T06:27:40Z</time>
      </trkpt>
      <trkpt lat="47.90727" lon="6.79998">
        <ele>673.7</ele>
        <time>2022-09-02T06:27:41Z</time>
      </trkpt>
      <trkpt lat="47.90727" lon="6.79999">
        <ele>673.8</ele>
        <time>2022-09-02T06:27:42Z</time>
      </trkpt>
      <trkpt lat="47.90727" lon="6.80001">
        <ele>673.7</ele>
        <time>2022-09-02T06:27:43Z</time>
      </trkpt>
      <trkpt lat="47.90726" lon="6.80002">
        <ele>673.9</ele>
        <time>2022-09-02T06:27:44Z</time>
      </trkpt>
      <trkpt lat="47.90726" lon="6.80003">
        <ele>673.8</ele>
        <time>2022-09-02T06:27:45Z</time>
      </trkpt>
      <trkpt lat="47.90725" lon="6.80004">
        <ele>674</ele>
        <time>2022-09-02T06:27:46Z</time>
      </trkpt>
      <trkpt lat="47.90725" lon="6.80005">
        <ele>674</ele>
        <time>2022-09-02T06:27:47Z</time>
      </trkpt>
      <trkpt lat="47.90724" lon="6.80006">
        <ele>674.1</ele>
        <time>2022-09-02T06:27:48Z</time>
      </trkpt>
      <trkpt lat="47.90723" lon="6.80008">
        <ele>674.2</ele>
        <time>2022-09-02T06:27:49Z</time>
      </trkpt>
      <trkpt lat="47.90722" lon="6.80009">
        <ele>674.4</ele>
        <time>2022-09-02T06:27:50Z</time>
      </trkpt>
      <trkpt lat="47.90721" lon="6.8001">
        <ele>674.6</ele>
        <time>2022-09-02T06:27:51Z</time>
      </trkpt>
      <trkpt lat="47.9072" lon="6.80011">
        <ele>674.7</ele>
        <time>2022-09-02T06:27:52Z</time>
      </trkpt>
      <trkpt lat="47.90719" lon="6.80012">
        <ele>674.9</ele>
        <time>2022-09-02T06:27:53Z</time>
      </trkpt>
      <trkpt lat="47.90718" lon="6.80013">
        <ele>675.1</ele>
        <time>2022-09-02T06:27:54Z</time>
      </trkpt>
      <trkpt lat="47.90718" lon="6.80014">
        <ele>675</ele>
        <time>2022-09-02T06:27:55Z</time>
      </trkpt>
      <trkpt lat="47.90717" lon="6.80015">
        <ele>675.1</ele>
        <time>2022-09-02T06:27:56Z</time>
      </trkpt>
      <trkpt lat="47.90716" lon="6.80016">
        <ele>675.3</ele>
        <time>2022-09-02T06:27:57Z</time>
      </trkpt>
      <trkpt lat="47.90715" lon="6.80017">
        <ele>675.4</ele>
        <time>2022-09-02T06:27:58Z</time>
      </trkpt>
      <trkpt lat="47.90715" lon="6.80018">
        <ele>675.4</ele>
        <time>2022-09-02T06:27:59Z</time>
      </trkpt>
      <trkpt lat="47.90714" lon="6.80019">
        <ele>675.5</ele>
        <time>2022-09-02T06:28:00Z</time>
      </trkpt>
      <trkpt lat="47.90713" lon="6.80019">
        <ele>675.7</ele>
        <time>2022-09-02T06:28:01Z</time>
      </trkpt>
      <trkpt lat="47.90712" lon="6.8002">
        <ele>675.9</ele>
        <time>2022-09-02T06:28:02Z</time>
      </trkpt>
      <trkpt lat="47.90712" lon="6.80021">
        <ele>675.8</ele>
        <time>2022-09-02T06:28:03Z</time>
      </trkpt>
      <trkpt lat="47.90711" lon="6.80022">
        <ele>675.9</ele>
        <time>2022-09-02T06:28:04Z</time>
      </trkpt>
      <trkpt lat="47.9071" lon="6.80023">
        <ele>676.1</ele>
        <time>2022-09-02T06:28:05Z</time>
      </trkpt>
      <trkpt lat="47.90709" lon="6.80024">
        <ele>676.2</ele>
        <time>2022-09-02T06:28:06Z</time>
      </trkpt>
      <trkpt lat="47.90709" lon="6.80025">
        <ele>676.1</ele>
        <time>2022-09-02T06:28:07Z</time>
      </trkpt>
      <trkpt lat="47.90708" lon="6.80026">
        <ele>676.2</ele>
        <time>2022-09-02T06:28:08Z</time>
      </trkpt>
      <trkpt lat="47.90707" lon="6.80026">
        <ele>676.5</ele>
        <time>2022-09-02T06:28:09Z</time>
      </trkpt>
      <trkpt lat="47.90706" lon="6.80027">
        <ele>676.6</ele>
        <time>2022-09-02T06:28:10Z</time>
      </trkpt>
      <trkpt lat="47.90705" lon="6.80028">
        <ele>676.7</ele>
        <time>2022-09-02T06:28:11Z</time>
      </trkpt>
      <trkpt lat="47.90704" lon="6.80029">
        <ele>676.8</ele>
        <time>2022-09-02T06:28:12Z</time>
      </trkpt>
      <trkpt lat="47.90703" lon="6.8003">
        <ele>677</ele>
        <time>2022-09-02T06:28:13Z</time>
      </trkpt>
      <trkpt lat="47.90702" lon="6.80031">
        <ele>677.1</ele>
        <time>2022-09-02T06:28:15Z</time>
      </trkpt>
      <trkpt lat="47.90701" lon="6.80032">
        <ele>677.3</ele>
        <time>2022-09-02T06:28:16Z</time>
      </trkpt>
      <trkpt lat="47.907" lon="6.80033">
        <ele>677.4</ele>
        <time>2022-09-02T06:28:17Z</time>
      </trkpt>
      <trkpt lat="47.90699" lon="6.80034">
        <ele>677.6</ele>
        <time>2022-09-02T06:28:18Z</time>
      </trkpt>
      <trkpt lat="47.90698" lon="6.80035">
        <ele>677.7</ele>
        <time>2022-09-02T06:28:19Z</time>
      </trkpt>
      <trkpt lat="47.90697" lon="6.80036">
        <ele>677.9</ele>
        <time>2022-09-02T06:28:21Z</time>
      </trkpt>
      <trkpt lat="47.90696" lon="6.80037">
        <ele>678</ele>
        <time>2022-09-02T06:28:22Z</time>
      </trkpt>
      <trkpt lat="47.90695" lon="6.80038">
        <ele>678.1</ele>
        <time>2022-09-02T06:28:23Z</time>
      </trkpt>
      <trkpt lat="47.90694" lon="6.80039">
        <ele>678.3</ele>
        <time>2022-09-02T06:28:24Z</time>
      </trkpt>
      <trkpt lat="47.90693" lon="6.8004">
        <ele>678.5</ele>
        <time>2022-09-02T06:28:25Z</time>
      </trkpt>
      <trkpt lat="47.90692" lon="6.80041">
        <ele>678.7</ele>
        <time>2022-09-02T06:28:26Z</time>
      </trkpt>
      <trkpt lat="47.90692" lon="6.80042">
        <ele>678.6</ele>
        <time>2022-09-02T06:28:27Z</time>
      </trkpt>
      <trkpt lat="47.90691" lon="6.80043">
        <ele>678.8</ele>
        <time>2022-09-02T06:28:28Z</time>
      </trkpt>
      <trkpt lat="47.9069" lon="6.80044">
        <ele>679</ele>
        <time>2022-09-02T06:28:29Z</time>
      </trkpt>
      <trkpt lat="47.9069" lon="6.80045">
        <ele>678.9</ele>
        <time>2022-09-02T06:28:30Z</time>
      </trkpt>
      <trkpt lat="47.90689" lon="6.80046">
        <ele>679.1</ele>
        <time>2022-09-02T06:28:31Z</time>
      </trkpt>
      <trkpt lat="47.90688" lon="6.80047">
        <ele>679.3</ele>
        <time>2022-09-02T06:29:10Z</time>
      </trkpt>
      <trkpt lat="47.90688" lon="6.80048">
        <ele>679.3</ele>
        <time>2022-09-02T06:29:12Z</time>
      </trkpt>
      <trkpt lat="47.90687" lon="6.80049">
        <ele>679.5</ele>
        <time>2022-09-02T06:29:13Z</time>
      </trkpt>
      <trkpt lat="47.90687" lon="6.8005">
        <ele>679.4</ele>
        <time>2022-09-02T06:29:15Z</time>
      </trkpt>
      <trkpt lat="47.90686" lon="6.80051">
        <ele>679.7</ele>
        <time>2022-09-02T06:29:16Z</time>
      </trkpt>
      <trkpt lat="47.90685" lon="6.80052">
        <ele>679.9</ele>
        <time>2022-09-02T06:29:17Z</time>
      </trkpt>
      <trkpt lat="47.90685" lon="6.80053">
        <ele>679.8</ele>
        <time>2022-09-02T06:29:18Z</time>
      </trkpt>
      <trkpt lat="47.90684" lon="6.80054">
        <ele>680.1</ele>
        <time>2022-09-02T06:29:19Z</time>
      </trkpt>
      <trkpt lat="47.90684" lon="6.80055">
        <ele>680</ele>
        <time>2022-09-02T06:29:20Z</time>
      </trkpt>
      <trkpt lat="47.90683" lon="6.80056">
        <ele>680.3</ele>
        <time>2022-09-02T06:29:21Z</time>
      </trkpt>
      <trkpt lat="47.90683" lon="6.80057">
        <ele>680.3</ele>
        <time>2022-09-02T06:29:22Z</time>
      </trkpt>
      <trkpt lat="47.90682" lon="6.80058">
        <ele>680.6</ele>
        <time>2022-09-02T06:29:23Z</time>
      </trkpt>
      <trkpt lat="47.90681" lon="6.80059">
        <ele>680.9</ele>
        <time>2022-09-02T06:29:24Z</time>
      </trkpt>
      <trkpt lat="47.90681" lon="6.8006">
        <ele>680.9</ele>
        <time>2022-09-02T06:29:25Z</time>
      </trkpt>
      <trkpt lat="47.9068" lon="6.80061">
        <ele>681.2</ele>
        <time>2022-09-02T06:29:27Z</time>
      </trkpt>
      <trkpt lat="47.9068" lon="6.80063">
        <ele>681.2</ele>
        <time>2022-09-02T06:29:28Z</time>
      </trkpt>
      <trkpt lat="47.90679" lon="6.80064">
        <ele>681.4</ele>
        <time>2022-09-02T06:29:29Z</time>
      </trkpt>
      <trkpt lat="47.90678" lon="6.80065">
        <ele>681.7</ele>
        <time>2022-09-02T06:29:30Z</time>
      </trkpt>
      <trkpt lat="47.90678" lon="6.80066">
        <ele>681.7</ele>
        <time>2022-09-02T06:29:31Z</time>
      </trkpt>
      <trkpt lat="47.90677" lon="6.80067">
        <ele>682</ele>
        <time>2022-09-02T06:29:32Z</time>
      </trkpt>
      <trkpt lat="47.90677" lon="6.80068">
        <ele>682</ele>
        <time>2022-09-02T06:29:33Z</time>
      </trkpt>
      <trkpt lat="47.90676" lon="6.80069">
        <ele>682.3</ele>
        <time>2022-09-02T06:29:34Z</time>
      </trkpt>
      <trkpt lat="47.90676" lon="6.8007">
        <ele>682.3</ele>
        <time>2022-09-02T06:29:35Z</time>
      </trkpt>
      <trkpt lat="47.90675" lon="6.80071">
        <ele>682.6</ele>
        <time>2022-09-02T06:29:36Z</time>
      </trkpt>
      <trkpt lat="47.90675" lon="6.80072">
        <ele>682.6</ele>
        <time>2022-09-02T06:29:37Z</time>
      </trkpt>
      <trkpt lat="47.90675" lon="6.80073">
        <ele>682.6</ele>
        <time>2022-09-02T06:29:38Z</time>
      </trkpt>
      <trkpt lat="47.90674" lon="6.80074">
        <ele>682.9</ele>
        <time>2022-09-02T06:29:39Z</time>
      </trkpt>
      <trkpt lat="47.90674" lon="6.80076">
        <ele>682.9</ele>
        <time>2022-09-02T06:29:40Z</time>
      </trkpt>
      <trkpt lat="47.90673" lon="6.80077">
        <ele>683.2</ele>
        <time>2022-09-02T06:29:41Z</time>
      </trkpt>
      <trkpt lat="47.90673" lon="6.80078">
        <ele>683.2</ele>
        <time>2022-09-02T06:29:42Z</time>
      </trkpt>
      <trkpt lat="47.90672" lon="6.80079">
        <ele>683.5</ele>
        <time>2022-09-02T06:29:43Z</time>
      </trkpt>
      <trkpt lat="47.90672" lon="6.8008">
        <ele>683.5</ele>
        <time>2022-09-02T06:29:44Z</time>
      </trkpt>
      <trkpt lat="47.90671" lon="6.80082">
        <ele>683.8</ele>
        <time>2022-09-02T06:29:45Z</time>
      </trkpt>
      <trkpt lat="47.90671" lon="6.80083">
        <ele>683.8</ele>
        <time>2022-09-02T06:29:46Z</time>
      </trkpt>
      <trkpt lat="47.9067" lon="6.80084">
        <ele>684</ele>
        <time>2022-09-02T06:29:47Z</time>
      </trkpt>
      <trkpt lat="47.9067" lon="6.80085">
        <ele>684</ele>
        <time>2022-09-02T06:29:48Z</time>
      </trkpt>
      <trkpt lat="47.9067" lon="6.80087">
        <ele>684</ele>
        <time>2022-09-02T06:29:49Z</time>
      </trkpt>
      <trkpt lat="47.90669" lon="6.80088">
        <ele>684.3</ele>
        <time>2022-09-02T06:29:50Z</time>
      </trkpt>
      <trkpt lat="47.90669" lon="6.8009">
        <ele>684.3</ele>
        <time>2022-09-02T06:29:51Z</time>
      </trkpt>
      <trkpt lat="47.90669" lon="6.80091">
        <ele>684.3</ele>
        <time>2022-09-02T06:29:52Z</time>
      </trkpt>
      <trkpt lat="47.90669" lon="6.80093">
        <ele>684.3</ele>
        <time>2022-09-02T06:29:53Z</time>
      </trkpt>
      <trkpt lat="47.90668" lon="6.80094">
        <ele>684.6</ele>
        <time>2022-09-02T06:29:54Z</time>
      </trkpt>
      <trkpt lat="47.90668" lon="6.80095">
        <ele>684.6</ele>
        <time>2022-09-02T06:29:55Z</time>
      </trkpt>
      <trkpt lat="47.90668" lon="6.80096">
        <ele>684.6</ele>
        <time>2022-09-02T06:29:56Z</time>
      </trkpt>
      <trkpt lat="47.90668" lon="6.80098">
        <ele>684.6</ele>
        <time>2022-09-02T06:29:57Z</time>
      </trkpt>
      <trkpt lat="47.90668" lon="6.80099">
        <ele>684.6</ele>
        <time>2022-09-02T06:29:58Z</time>
      </trkpt>
      <trkpt lat="47.90668" lon="6.801">
        <ele>684.6</ele>
        <time>2022-09-02T06:30:10Z</time>
      </trkpt>
      <trkpt lat="47.90667" lon="6.801">
        <ele>684.9</ele>
        <time>2022-09-02T06:30:11Z</time>
      </trkpt>
      <trkpt lat="47.90667" lon="6.80101">
        <ele>684.9</ele>
        <time>2022-09-02T06:30:12Z</time>
      </trkpt>
      <trkpt lat="47.90667" lon="6.80102">
        <ele>684.9</ele>
        <time>2022-09-02T06:30:13Z</time>
      </trkpt>
      <trkpt lat="47.90667" lon="6.80103">
        <ele>684.9</ele>
        <time>2022-09-02T06:30:14Z</time>
      </trkpt>
      <trkpt lat="47.90666" lon="6.80104">
        <ele>685.2</ele>
        <time>2022-09-02T06:30:15Z</time>
      </trkpt>
      <trkpt lat="47.90666" lon="6.80105">
        <ele>685.2</ele>
        <time>2022-09-02T06:30:16Z</time>
      </trkpt>
      <trkpt lat="47.90665" lon="6.80106">
        <ele>685.5</ele>
        <time>2022-09-02T06:30:17Z</time>
      </trkpt>
      <trkpt lat="47.90665" lon="6.80108">
        <ele>685.5</ele>
        <time>2022-09-02T06:30:18Z</time>
      </trkpt>
      <trkpt lat="47.90665" lon="6.80109">
        <ele>685.5</ele>
        <time>2022-09-02T06:30:19Z</time>
      </trkpt>
      <trkpt lat="47.90664" lon="6.80111">
        <ele>685.9</ele>
        <time>2022-09-02T06:30:20Z</time>
      </trkpt>
      <trkpt lat="47.90664" lon="6.80112">
        <ele>685.9</ele>
        <time>2022-09-02T06:30:21Z</time>
      </trkpt>
      <trkpt lat="47.90664" lon="6.80114">
        <ele>685.9</ele>
        <time>2022-09-02T06:30:22Z</time>
      </trkpt>
      <trkpt lat="47.90663" lon="6.80115">
        <ele>686.2</ele>
        <time>2022-09-02T06:30:23Z</time>
      </trkpt>
      <trkpt lat="47.90663" lon="6.80117">
        <ele>686.2</ele>
        <time>2022-09-02T06:30:24Z</time>
      </trkpt>
      <trkpt lat="47.90663" lon="6.80118">
        <ele>686.2</ele>
        <time>2022-09-02T06:30:25Z</time>
      </trkpt>
      <trkpt lat="47.90663" lon="6.8012">
        <ele>686.2</ele>
        <time>2022-09-02T06:30:26Z</time>
      </trkpt>
      <trkpt lat="47.90662" lon="6.80121">
        <ele>686.5</ele>
        <time>2022-09-02T06:30:27Z</time>
      </trkpt>
      <trkpt lat="47.90662" lon="6.80123">
        <ele>686.5</ele>
        <time>2022-09-02T06:30:28Z</time>
      </trkpt>
      <trkpt lat="47.90662" lon="6.80124">
        <ele>686.5</ele>
        <time>2022-09-02T06:30:29Z</time>
      </trkpt>
      <trkpt lat="47.90661" lon="6.80125">
        <ele>686.8</ele>
        <time>2022-09-02T06:30:30Z</time>
      </trkpt>
      <trkpt lat="47.90661" lon="6.80127">
        <ele>686.8</ele>
        <time>2022-09-02T06:30:31Z</time>
      </trkpt>
      <trkpt lat="47.9066" lon="6.80128">
        <ele>687.2</ele>
        <time>2022-09-02T06:30:32Z</time>
      </trkpt>
      <trkpt lat="47.9066" lon="6.8013">
        <ele>687.2</ele>
        <time>2022-09-02T06:30:33Z</time>
      </trkpt>
      <trkpt lat="47.9066" lon="6.80131">
        <ele>687.2</ele>
        <time>2022-09-02T06:30:34Z</time>
      </trkpt>
      <trkpt lat="47.90659" lon="6.80133">
        <ele>687.5</ele>
        <time>2022-09-02T06:30:35Z</time>
      </trkpt>
      <trkpt lat="47.90659" lon="6.80134">
        <ele>687.5</ele>
        <time>2022-09-02T06:30:36Z</time>
      </trkpt>
      <trkpt lat="47.90658" lon="6.80136">
        <ele>687.8</ele>
        <time>2022-09-02T06:30:37Z</time>
      </trkpt>
      <trkpt lat="47.90658" lon="6.80137">
        <ele>687.8</ele>
        <time>2022-09-02T06:30:38Z</time>
      </trkpt>
      <trkpt lat="47.90657" lon="6.80139">
        <ele>688.1</ele>
        <time>2022-09-02T06:30:39Z</time>
      </trkpt>
      <trkpt lat="47.90657" lon="6.80141">
        <ele>688.2</ele>
        <time>2022-09-02T06:30:40Z</time>
      </trkpt>
      <trkpt lat="47.90657" lon="6.80142">
        <ele>688.2</ele>
        <time>2022-09-02T06:30:41Z</time>
      </trkpt>
      <trkpt lat="47.90656" lon="6.80144">
        <ele>688.6</ele>
        <time>2022-09-02T06:30:42Z</time>
      </trkpt>
      <trkpt lat="47.90656" lon="6.80145">
        <ele>688.6</ele>
        <time>2022-09-02T06:30:43Z</time>
      </trkpt>
      <trkpt lat="47.90656" lon="6.80147">
        <ele>688.6</ele>
        <time>2022-09-02T06:30:44Z</time>
      </trkpt>
      <trkpt lat="47.90655" lon="6.80148">
        <ele>689</ele>
        <time>2022-09-02T06:30:45Z</time>
      </trkpt>
      <trkpt lat="47.90655" lon="6.80149">
        <ele>689</ele>
        <time>2022-09-02T06:30:46Z</time>
      </trkpt>
      <trkpt lat="47.90655" lon="6.80151">
        <ele>689</ele>
        <time>2022-09-02T06:30:47Z</time>
      </trkpt>
      <trkpt lat="47.90655" lon="6.80152">
        <ele>689.1</ele>
        <time>2022-09-02T06:30:48Z</time>
      </trkpt>
      <trkpt lat="47.90654" lon="6.80153">
        <ele>689.4</ele>
        <time>2022-09-02T06:30:49Z</time>
      </trkpt>
      <trkpt lat="47.90654" lon="6.80155">
        <ele>689.4</ele>
        <time>2022-09-02T06:30:50Z</time>
      </trkpt>
      <trkpt lat="47.90654" lon="6.80156">
        <ele>689.4</ele>
        <time>2022-09-02T06:30:51Z</time>
      </trkpt>
      <trkpt lat="47.90654" lon="6.80157">
        <ele>689.5</ele>
        <time>2022-09-02T06:30:52Z</time>
      </trkpt>
      <trkpt lat="47.90653" lon="6.80159">
        <ele>689.8</ele>
        <time>2022-09-02T06:30:53Z</time>
      </trkpt>
      <trkpt lat="47.90653" lon="6.80161">
        <ele>689.8</ele>
        <time>2022-09-02T06:30:54Z</time>
      </trkpt>
      <trkpt lat="47.90653" lon="6.80162">
        <ele>689.9</ele>
        <time>2022-09-02T06:30:55Z</time>
      </trkpt>
      <trkpt lat="47.90652" lon="6.80164">
        <ele>690.2</ele>
        <time>2022-09-02T06:30:56Z</time>
      </trkpt>
      <trkpt lat="47.90652" lon="6.80165">
        <ele>690.2</ele>
        <time>2022-09-02T06:30:57Z</time>
      </trkpt>
      <trkpt lat="47.90652" lon="6.80167">
        <ele>690.2</ele>
        <time>2022-09-02T06:30:58Z</time>
      </trkpt>
      <trkpt lat="47.90652" lon="6.80168">
        <ele>690.2</ele>
        <time>2022-09-02T06:30:59Z</time>
      </trkpt>
      <trkpt lat="47.90652" lon="6.80169">
        <ele>690.3</ele>
        <time>2022-09-02T06:31:00Z</time>
      </trkpt>
      <trkpt lat="47.90652" lon="6.80171">
        <ele>690.3</ele>
        <time>2022-09-02T06:31:01Z</time>
      </trkpt>
      <trkpt lat="47.90651" lon="6.80172">
        <ele>690.6</ele>
        <time>2022-09-02T06:31:02Z</time>
      </trkpt>
      <trkpt lat="47.90651" lon="6.80174">
        <ele>690.7</ele>
        <time>2022-09-02T06:31:03Z</time>
      </trkpt>
      <trkpt lat="47.90651" lon="6.80175">
        <ele>690.7</ele>
        <time>2022-09-02T06:31:04Z</time>
      </trkpt>
      <trkpt lat="47.90651" lon="6.80177">
        <ele>690.7</ele>
        <time>2022-09-02T06:31:05Z</time>
      </trkpt>
      <trkpt lat="47.90651" lon="6.80178">
        <ele>690.7</ele>
        <time>2022-09-02T06:31:06Z</time>
      </trkpt>
      <trkpt lat="47.90651" lon="6.80179">
        <ele>690.8</ele>
        <time>2022-09-02T06:31:07Z</time>
      </trkpt>
      <trkpt lat="47.90651" lon="6.80181">
        <ele>690.8</ele>
        <time>2022-09-02T06:31:08Z</time>
      </trkpt>
      <trkpt lat="47.90651" lon="6.80182">
        <ele>690.8</ele>
        <time>2022-09-02T06:31:09Z</time>
      </trkpt>
      <trkpt lat="47.90651" lon="6.80183">
        <ele>690.8</ele>
        <time>2022-09-02T06:31:10Z</time>
      </trkpt>
      <trkpt lat="47.9065" lon="6.80185">
        <ele>691.2</ele>
        <time>2022-09-02T06:31:11Z</time>
      </trkpt>
      <trkpt lat="47.9065" lon="6.80186">
        <ele>691.2</ele>
        <time>2022-09-02T06:31:12Z</time>
      </trkpt>
      <trkpt lat="47.9065" lon="6.80187">
        <ele>691.2</ele>
        <time>2022-09-02T06:31:13Z</time>
      </trkpt>
      <trkpt lat="47.9065" lon="6.80189">
        <ele>691.3</ele>
        <time>2022-09-02T06:31:14Z</time>
      </trkpt>
      <trkpt lat="47.9065" lon="6.8019">
        <ele>691.3</ele>
        <time>2022-09-02T06:31:15Z</time>
      </trkpt>
      <trkpt lat="47.9065" lon="6.80191">
        <ele>691.3</ele>
        <time>2022-09-02T06:31:16Z</time>
      </trkpt>
      <trkpt lat="47.9065" lon="6.80193">
        <ele>691.4</ele>
        <time>2022-09-02T06:31:17Z</time>
      </trkpt>
      <trkpt lat="47.9065" lon="6.80194">
        <ele>691.4</ele>
        <time>2022-09-02T06:31:18Z</time>
      </trkpt>
      <trkpt lat="47.9065" lon="6.80196">
        <ele>691.5</ele>
        <time>2022-09-02T06:31:19Z</time>
      </trkpt>
      <trkpt lat="47.9065" lon="6.80197">
        <ele>691.6</ele>
        <time>2022-09-02T06:31:20Z</time>
      </trkpt>
      <trkpt lat="47.9065" lon="6.80199">
        <ele>691.8</ele>
        <time>2022-09-02T06:31:21Z</time>
      </trkpt>
      <trkpt lat="47.90649" lon="6.802">
        <ele>692.2</ele>
        <time>2022-09-02T06:31:22Z</time>
      </trkpt>
      <trkpt lat="47.90649" lon="6.80202">
        <ele>692.3</ele>
        <time>2022-09-02T06:31:23Z</time>
      </trkpt>
      <trkpt lat="47.90649" lon="6.80203">
        <ele>692.4</ele>
        <time>2022-09-02T06:31:24Z</time>
      </trkpt>
      <trkpt lat="47.9065" lon="6.80204">
        <ele>692.2</ele>
        <time>2022-09-02T06:31:25Z</time>
      </trkpt>
      <trkpt lat="47.9065" lon="6.80206">
        <ele>692.3</ele>
        <time>2022-09-02T06:31:26Z</time>
      </trkpt>
      <trkpt lat="47.9065" lon="6.80207">
        <ele>692.4</ele>
        <time>2022-09-02T06:31:27Z</time>
      </trkpt>
      <trkpt lat="47.9065" lon="6.80209">
        <ele>692.6</ele>
        <time>2022-09-02T06:31:28Z</time>
      </trkpt>
      <trkpt lat="47.9065" lon="6.8021">
        <ele>692.6</ele>
        <time>2022-09-02T06:31:29Z</time>
      </trkpt>
      <trkpt lat="47.9065" lon="6.80212">
        <ele>692.8</ele>
        <time>2022-09-02T06:31:30Z</time>
      </trkpt>
      <trkpt lat="47.9065" lon="6.80213">
        <ele>692.9</ele>
        <time>2022-09-02T06:31:31Z</time>
      </trkpt>
      <trkpt lat="47.90651" lon="6.80215">
        <ele>692.7</ele>
        <time>2022-09-02T06:31:32Z</time>
      </trkpt>
      <trkpt lat="47.90651" lon="6.80216">
        <ele>692.7</ele>
        <time>2022-09-02T06:31:33Z</time>
      </trkpt>
      <trkpt lat="47.90651" lon="6.80218">
        <ele>692.9</ele>
        <time>2022-09-02T06:31:34Z</time>
      </trkpt>
      <trkpt lat="47.90651" lon="6.80219">
        <ele>693</ele>
        <time>2022-09-02T06:31:35Z</time>
      </trkpt>
      <trkpt lat="47.90651" lon="6.8022">
        <ele>693</ele>
        <time>2022-09-02T06:31:36Z</time>
      </trkpt>
      <trkpt lat="47.90651" lon="6.80222">
        <ele>693.2</ele>
        <time>2022-09-02T06:31:37Z</time>
      </trkpt>
      <trkpt lat="47.90651" lon="6.80223">
        <ele>693.3</ele>
        <time>2022-09-02T06:31:38Z</time>
      </trkpt>
      <trkpt lat="47.9065" lon="6.80225">
        <ele>693.8</ele>
        <time>2022-09-02T06:31:39Z</time>
      </trkpt>
      <trkpt lat="47.9065" lon="6.80226">
        <ele>693.9</ele>
        <time>2022-09-02T06:31:40Z</time>
      </trkpt>
      <trkpt lat="47.9065" lon="6.80228">
        <ele>694.1</ele>
        <time>2022-09-02T06:31:41Z</time>
      </trkpt>
      <trkpt lat="47.9065" lon="6.80229">
        <ele>694.1</ele>
        <time>2022-09-02T06:31:42Z</time>
      </trkpt>
      <trkpt lat="47.9065" lon="6.8023">
        <ele>694.2</ele>
        <time>2022-09-02T06:31:43Z</time>
      </trkpt>
      <trkpt lat="47.9065" lon="6.80232">
        <ele>694.4</ele>
        <time>2022-09-02T06:31:44Z</time>
      </trkpt>
      <trkpt lat="47.9065" lon="6.80233">
        <ele>694.5</ele>
        <time>2022-09-02T06:31:45Z</time>
      </trkpt>
      <trkpt lat="47.9065" lon="6.80235">
        <ele>694.6</ele>
        <time>2022-09-02T06:31:46Z</time>
      </trkpt>
      <trkpt lat="47.9065" lon="6.80236">
        <ele>694.7</ele>
        <time>2022-09-02T06:31:47Z</time>
      </trkpt>
      <trkpt lat="47.9065" lon="6.80238">
        <ele>694.8</ele>
        <time>2022-09-02T06:31:48Z</time>
      </trkpt>
      <trkpt lat="47.9065" lon="6.80239">
        <ele>694.9</ele>
        <time>2022-09-02T06:31:49Z</time>
      </trkpt>
      <trkpt lat="47.90651" lon="6.80241">
        <ele>694.6</ele>
        <time>2022-09-02T06:31:50Z</time>
      </trkpt>
      <trkpt lat="47.90651" lon="6.80242">
        <ele>694.7</ele>
        <time>2022-09-02T06:31:51Z</time>
      </trkpt>
      <trkpt lat="47.90651" lon="6.80244">
        <ele>694.9</ele>
        <time>2022-09-02T06:31:52Z</time>
      </trkpt>
      <trkpt lat="47.90652" lon="6.80245">
        <ele>694.5</ele>
        <time>2022-09-02T06:31:53Z</time>
      </trkpt>
      <trkpt lat="47.90652" lon="6.80247">
        <ele>694.6</ele>
        <time>2022-09-02T06:31:54Z</time>
      </trkpt>
      <trkpt lat="47.90652" lon="6.80248">
        <ele>694.7</ele>
        <time>2022-09-02T06:31:55Z</time>
      </trkpt>
      <trkpt lat="47.90653" lon="6.8025">
        <ele>694.4</ele>
        <time>2022-09-02T06:31:56Z</time>
      </trkpt>
      <trkpt lat="47.90653" lon="6.80251">
        <ele>694.5</ele>
        <time>2022-09-02T06:31:57Z</time>
      </trkpt>
      <trkpt lat="47.90654" lon="6.80252">
        <ele>694.1</ele>
        <time>2022-09-02T06:31:58Z</time>
      </trkpt>
      <trkpt lat="47.90654" lon="6.80254">
        <ele>694.2</ele>
        <time>2022-09-02T06:31:59Z</time>
      </trkpt>
      <trkpt lat="47.90654" lon="6.80255">
        <ele>694.3</ele>
        <time>2022-09-02T06:32:00Z</time>
      </trkpt>
      <trkpt lat="47.90654" lon="6.80256">
        <ele>694.4</ele>
        <time>2022-09-02T06:32:01Z</time>
      </trkpt>
      <trkpt lat="47.90654" lon="6.80257">
        <ele>694.4</ele>
        <time>2022-09-02T06:32:02Z</time>
      </trkpt>
      <trkpt lat="47.90654" lon="6.80259">
        <ele>694.6</ele>
        <time>2022-09-02T06:32:03Z</time>
      </trkpt>
      <trkpt lat="47.90654" lon="6.8026">
        <ele>694.6</ele>
        <time>2022-09-02T06:32:04Z</time>
      </trkpt>
      <trkpt lat="47.90654" lon="6.80261">
        <ele>694.7</ele>
        <time>2022-09-02T06:32:05Z</time>
      </trkpt>
      <trkpt lat="47.90654" lon="6.80263">
        <ele>694.9</ele>
        <time>2022-09-02T06:32:06Z</time>
      </trkpt>
      <trkpt lat="47.90654" lon="6.80264">
        <ele>694.9</ele>
        <time>2022-09-02T06:32:07Z</time>
      </trkpt>
      <trkpt lat="47.90654" lon="6.80266">
        <ele>695.1</ele>
        <time>2022-09-02T06:32:08Z</time>
      </trkpt>
      <trkpt lat="47.90654" lon="6.80267">
        <ele>695.2</ele>
        <time>2022-09-02T06:32:09Z</time>
      </trkpt>
      <trkpt lat="47.90654" lon="6.80268">
        <ele>695.2</ele>
        <time>2022-09-02T06:32:10Z</time>
      </trkpt>
      <trkpt lat="47.90654" lon="6.8027">
        <ele>695.4</ele>
        <time>2022-09-02T06:32:11Z</time>
      </trkpt>
      <trkpt lat="47.90653" lon="6.80271">
        <ele>695.9</ele>
        <time>2022-09-02T06:32:12Z</time>
      </trkpt>
      <trkpt lat="47.90653" lon="6.80273">
        <ele>696.1</ele>
        <time>2022-09-02T06:32:13Z</time>
      </trkpt>
      <trkpt lat="47.90653" lon="6.80274">
        <ele>696.1</ele>
        <time>2022-09-02T06:32:14Z</time>
      </trkpt>
      <trkpt lat="47.90653" lon="6.80276">
        <ele>696.3</ele>
        <time>2022-09-02T06:32:15Z</time>
      </trkpt>
      <trkpt lat="47.90653" lon="6.80277">
        <ele>696.3</ele>
        <time>2022-09-02T06:32:16Z</time>
      </trkpt>
      <trkpt lat="47.90653" lon="6.80278">
        <ele>696.4</ele>
        <time>2022-09-02T06:32:17Z</time>
      </trkpt>
      <trkpt lat="47.90653" lon="6.80279">
        <ele>696.5</ele>
        <time>2022-09-02T06:32:18Z</time>
      </trkpt>
      <trkpt lat="47.90653" lon="6.80281">
        <ele>696.7</ele>
        <time>2022-09-02T06:32:19Z</time>
      </trkpt>
      <trkpt lat="47.90652" lon="6.80282">
        <ele>697.3</ele>
        <time>2022-09-02T06:32:20Z</time>
      </trkpt>
      <trkpt lat="47.90652" lon="6.80283">
        <ele>697.4</ele>
        <time>2022-09-02T06:32:21Z</time>
      </trkpt>
      <trkpt lat="47.90652" lon="6.80284">
        <ele>697.5</ele>
        <time>2022-09-02T06:32:22Z</time>
      </trkpt>
      <trkpt lat="47.90652" lon="6.80286">
        <ele>697.8</ele>
        <time>2022-09-02T06:32:23Z</time>
      </trkpt>
      <trkpt lat="47.90652" lon="6.80287">
        <ele>697.9</ele>
        <time>2022-09-02T06:32:24Z</time>
      </trkpt>
      <trkpt lat="47.90652" lon="6.80288">
        <ele>698</ele>
        <time>2022-09-02T06:32:25Z</time>
      </trkpt>
      <trkpt lat="47.90652" lon="6.80289">
        <ele>698.1</ele>
        <time>2022-09-02T06:32:26Z</time>
      </trkpt>
      <trkpt lat="47.90652" lon="6.8029">
        <ele>698.2</ele>
        <time>2022-09-02T06:32:27Z</time>
      </trkpt>
      <trkpt lat="47.90652" lon="6.80292">
        <ele>698.4</ele>
        <time>2022-09-02T06:32:28Z</time>
      </trkpt>
      <trkpt lat="47.90652" lon="6.80293">
        <ele>698.5</ele>
        <time>2022-09-02T06:32:29Z</time>
      </trkpt>
      <trkpt lat="47.90652" lon="6.80295">
        <ele>698.8</ele>
        <time>2022-09-02T06:32:30Z</time>
      </trkpt>
      <trkpt lat="47.90652" lon="6.80297">
        <ele>699</ele>
        <time>2022-09-02T06:32:31Z</time>
      </trkpt>
      <trkpt lat="47.90652" lon="6.80298">
        <ele>699.1</ele>
        <time>2022-09-02T06:32:32Z</time>
      </trkpt>
      <trkpt lat="47.90652" lon="6.80299">
        <ele>699.2</ele>
        <time>2022-09-02T06:32:33Z</time>
      </trkpt>
      <trkpt lat="47.90652" lon="6.80301">
        <ele>699.4</ele>
        <time>2022-09-02T06:32:34Z</time>
      </trkpt>
      <trkpt lat="47.90652" lon="6.80302">
        <ele>699.5</ele>
        <time>2022-09-02T06:32:35Z</time>
      </trkpt>
      <trkpt lat="47.90652" lon="6.80303">
        <ele>699.6</ele>
        <time>2022-09-02T06:32:36Z</time>
      </trkpt>
      <trkpt lat="47.90653" lon="6.80304">
        <ele>699.2</ele>
        <time>2022-09-02T06:32:37Z</time>
      </trkpt>
      <trkpt lat="47.90653" lon="6.80306">
        <ele>699.4</ele>
        <time>2022-09-02T06:32:38Z</time>
      </trkpt>
      <trkpt lat="47.90653" lon="6.80307">
        <ele>699.5</ele>
        <time>2022-09-02T06:32:39Z</time>
      </trkpt>
      <trkpt lat="47.90653" lon="6.80308">
        <ele>699.6</ele>
        <time>2022-09-02T06:32:40Z</time>
      </trkpt>
      <trkpt lat="47.90653" lon="6.80309">
        <ele>699.7</ele>
        <time>2022-09-02T06:32:41Z</time>
      </trkpt>
      <trkpt lat="47.90653" lon="6.80311">
        <ele>699.9</ele>
        <time>2022-09-02T06:32:42Z</time>
      </trkpt>
      <trkpt lat="47.90653" lon="6.80312">
        <ele>700</ele>
        <time>2022-09-02T06:32:43Z</time>
      </trkpt>
      <trkpt lat="47.90653" lon="6.80314">
        <ele>700.1</ele>
        <time>2022-09-02T06:32:44Z</time>
      </trkpt>
      <trkpt lat="47.90653" lon="6.80315">
        <ele>700.2</ele>
        <time>2022-09-02T06:32:45Z</time>
      </trkpt>
      <trkpt lat="47.90654" lon="6.80316">
        <ele>699.8</ele>
        <time>2022-09-02T06:32:46Z</time>
      </trkpt>
      <trkpt lat="47.90654" lon="6.80318">
        <ele>700</ele>
        <time>2022-09-02T06:32:47Z</time>
      </trkpt>
      <trkpt lat="47.90654" lon="6.80319">
        <ele>700.1</ele>
        <time>2022-09-02T06:32:48Z</time>
      </trkpt>
      <trkpt lat="47.90653" lon="6.8032">
        <ele>700.7</ele>
        <time>2022-09-02T06:32:49Z</time>
      </trkpt>
      <trkpt lat="47.90653" lon="6.80321">
        <ele>700.8</ele>
        <time>2022-09-02T06:32:50Z</time>
      </trkpt>
      <trkpt lat="47.90653" lon="6.80323">
        <ele>701</ele>
        <time>2022-09-02T06:32:51Z</time>
      </trkpt>
      <trkpt lat="47.90653" lon="6.80324">
        <ele>701</ele>
        <time>2022-09-02T06:32:52Z</time>
      </trkpt>
      <trkpt lat="47.90653" lon="6.80325">
        <ele>701.1</ele>
        <time>2022-09-02T06:32:53Z</time>
      </trkpt>
      <trkpt lat="47.90653" lon="6.80326">
        <ele>701.2</ele>
        <time>2022-09-02T06:32:54Z</time>
      </trkpt>
      <trkpt lat="47.90653" lon="6.80328">
        <ele>701.4</ele>
        <time>2022-09-02T06:32:55Z</time>
      </trkpt>
      <trkpt lat="47.90653" lon="6.80329">
        <ele>701.5</ele>
        <time>2022-09-02T06:32:56Z</time>
      </trkpt>
      <trkpt lat="47.90653" lon="6.8033">
        <ele>701.6</ele>
        <time>2022-09-02T06:32:57Z</time>
      </trkpt>
      <trkpt lat="47.90653" lon="6.80331">
        <ele>701.7</ele>
        <time>2022-09-02T06:32:58Z</time>
      </trkpt>
      <trkpt lat="47.90653" lon="6.80332">
        <ele>701.8</ele>
        <time>2022-09-02T06:32:59Z</time>
      </trkpt>
      <trkpt lat="47.90653" lon="6.80334">
        <ele>702</ele>
        <time>2022-09-02T06:33:00Z</time>
      </trkpt>
      <trkpt lat="47.90653" lon="6.80335">
        <ele>702.1</ele>
        <time>2022-09-02T06:33:01Z</time>
      </trkpt>
      <trkpt lat="47.90653" lon="6.80337">
        <ele>702.3</ele>
        <time>2022-09-02T06:33:02Z</time>
      </trkpt>
      <trkpt lat="47.90653" lon="6.80338">
        <ele>702.4</ele>
        <time>2022-09-02T06:33:03Z</time>
      </trkpt>
      <trkpt lat="47.90653" lon="6.8034">
        <ele>702.6</ele>
        <time>2022-09-02T06:33:04Z</time>
      </trkpt>
      <trkpt lat="47.90653" lon="6.80341">
        <ele>702.7</ele>
        <time>2022-09-02T06:33:05Z</time>
      </trkpt>
      <trkpt lat="47.90653" lon="6.80343">
        <ele>702.9</ele>
        <time>2022-09-02T06:33:06Z</time>
      </trkpt>
      <trkpt lat="47.90653" lon="6.80344">
        <ele>703</ele>
        <time>2022-09-02T06:33:07Z</time>
      </trkpt>
      <trkpt lat="47.90653" lon="6.80346">
        <ele>703.3</ele>
        <time>2022-09-02T06:33:08Z</time>
      </trkpt>
      <trkpt lat="47.90653" lon="6.80347">
        <ele>703.4</ele>
        <time>2022-09-02T06:33:09Z</time>
      </trkpt>
      <trkpt lat="47.90653" lon="6.80349">
        <ele>703.6</ele>
        <time>2022-09-02T06:33:10Z</time>
      </trkpt>
      <trkpt lat="47.90653" lon="6.8035">
        <ele>703.7</ele>
        <time>2022-09-02T06:33:11Z</time>
      </trkpt>
      <trkpt lat="47.90653" lon="6.80351">
        <ele>703.8</ele>
        <time>2022-09-02T06:33:12Z</time>
      </trkpt>
      <trkpt lat="47.90653" lon="6.80353">
        <ele>704</ele>
        <time>2022-09-02T06:33:13Z</time>
      </trkpt>
      <trkpt lat="47.90653" lon="6.80354">
        <ele>704.1</ele>
        <time>2022-09-02T06:33:14Z</time>
      </trkpt>
      <trkpt lat="47.90653" lon="6.80355">
        <ele>704.2</ele>
        <time>2022-09-02T06:33:15Z</time>
      </trkpt>
      <trkpt lat="47.90653" lon="6.80357">
        <ele>704.4</ele>
        <time>2022-09-02T06:33:16Z</time>
      </trkpt>
      <trkpt lat="47.90654" lon="6.80358">
        <ele>704</ele>
        <time>2022-09-02T06:33:17Z</time>
      </trkpt>
      <trkpt lat="47.90654" lon="6.8036">
        <ele>704.3</ele>
        <time>2022-09-02T06:33:18Z</time>
      </trkpt>
      <trkpt lat="47.90654" lon="6.80361">
        <ele>704.4</ele>
        <time>2022-09-02T06:33:19Z</time>
      </trkpt>
      <trkpt lat="47.90654" lon="6.80363">
        <ele>704.8</ele>
        <time>2022-09-02T06:33:20Z</time>
      </trkpt>
      <trkpt lat="47.90655" lon="6.80364">
        <ele>704.5</ele>
        <time>2022-09-02T06:33:21Z</time>
      </trkpt>
      <trkpt lat="47.90655" lon="6.80365">
        <ele>704.7</ele>
        <time>2022-09-02T06:33:22Z</time>
      </trkpt>
      <trkpt lat="47.90656" lon="6.80367">
        <ele>704.7</ele>
        <time>2022-09-02T06:33:23Z</time>
      </trkpt>
      <trkpt lat="47.90656" lon="6.80368">
        <ele>704.9</ele>
        <time>2022-09-02T06:33:24Z</time>
      </trkpt>
      <trkpt lat="47.90656" lon="6.80369">
        <ele>705.2</ele>
        <time>2022-09-02T06:33:25Z</time>
      </trkpt>
      <trkpt lat="47.90657" lon="6.80371">
        <ele>705.2</ele>
        <time>2022-09-02T06:33:26Z</time>
      </trkpt>
      <trkpt lat="47.90657" lon="6.80372">
        <ele>705.4</ele>
        <time>2022-09-02T06:33:27Z</time>
      </trkpt>
      <trkpt lat="47.90657" lon="6.80374">
        <ele>705.9</ele>
        <time>2022-09-02T06:33:28Z</time>
      </trkpt>
      <trkpt lat="47.90657" lon="6.80375">
        <ele>706.2</ele>
        <time>2022-09-02T06:33:29Z</time>
      </trkpt>
      <trkpt lat="47.90657" lon="6.80377">
        <ele>706.6</ele>
        <time>2022-09-02T06:33:30Z</time>
      </trkpt>
      <trkpt lat="47.90657" lon="6.80379">
        <ele>707.1</ele>
        <time>2022-09-02T06:33:31Z</time>
      </trkpt>
      <trkpt lat="47.90658" lon="6.8038">
        <ele>707</ele>
        <time>2022-09-02T06:33:32Z</time>
      </trkpt>
      <trkpt lat="47.90658" lon="6.80382">
        <ele>707.5</ele>
        <time>2022-09-02T06:33:33Z</time>
      </trkpt>
      <trkpt lat="47.90659" lon="6.80383">
        <ele>707.4</ele>
        <time>2022-09-02T06:33:34Z</time>
      </trkpt>
      <trkpt lat="47.90659" lon="6.80385">
        <ele>707.9</ele>
        <time>2022-09-02T06:33:35Z</time>
      </trkpt>
      <trkpt lat="47.90659" lon="6.80386">
        <ele>708.2</ele>
        <time>2022-09-02T06:33:36Z</time>
      </trkpt>
      <trkpt lat="47.90659" lon="6.80388">
        <ele>708.7</ele>
        <time>2022-09-02T06:33:37Z</time>
      </trkpt>
      <trkpt lat="47.90659" lon="6.80389">
        <ele>708.9</ele>
        <time>2022-09-02T06:33:38Z</time>
      </trkpt>
      <trkpt lat="47.90659" lon="6.80391">
        <ele>708.9</ele>
        <time>2022-09-02T06:33:39Z</time>
      </trkpt>
      <trkpt lat="47.90659" lon="6.80393">
        <ele>708.9</ele>
        <time>2022-09-02T06:33:40Z</time>
      </trkpt>
      <trkpt lat="47.90659" lon="6.80394">
        <ele>708.8</ele>
        <time>2022-09-02T06:33:41Z</time>
      </trkpt>
      <trkpt lat="47.90659" lon="6.80396">
        <ele>708.8</ele>
        <time>2022-09-02T06:33:42Z</time>
      </trkpt>
      <trkpt lat="47.90658" lon="6.80397">
        <ele>709.1</ele>
        <time>2022-09-02T06:33:43Z</time>
      </trkpt>
      <trkpt lat="47.90658" lon="6.80399">
        <ele>709</ele>
        <time>2022-09-02T06:33:44Z</time>
      </trkpt>
      <trkpt lat="47.90658" lon="6.804">
        <ele>709</ele>
        <time>2022-09-02T06:33:45Z</time>
      </trkpt>
      <trkpt lat="47.90658" lon="6.80402">
        <ele>709</ele>
        <time>2022-09-02T06:33:46Z</time>
      </trkpt>
      <trkpt lat="47.90657" lon="6.80403">
        <ele>709.3</ele>
        <time>2022-09-02T06:33:47Z</time>
      </trkpt>
      <trkpt lat="47.90657" lon="6.80405">
        <ele>709.3</ele>
        <time>2022-09-02T06:33:48Z</time>
      </trkpt>
      <trkpt lat="47.90657" lon="6.80406">
        <ele>709.2</ele>
        <time>2022-09-02T06:33:49Z</time>
      </trkpt>
      <trkpt lat="47.90656" lon="6.80408">
        <ele>709.5</ele>
        <time>2022-09-02T06:33:50Z</time>
      </trkpt>
      <trkpt lat="47.90656" lon="6.80409">
        <ele>709.5</ele>
        <time>2022-09-02T06:33:51Z</time>
      </trkpt>
      <trkpt lat="47.90656" lon="6.80411">
        <ele>709.5</ele>
        <time>2022-09-02T06:33:52Z</time>
      </trkpt>
      <trkpt lat="47.90655" lon="6.80412">
        <ele>709.8</ele>
        <time>2022-09-02T06:33:53Z</time>
      </trkpt>
      <trkpt lat="47.90655" lon="6.80413">
        <ele>709.8</ele>
        <time>2022-09-02T06:33:54Z</time>
      </trkpt>
      <trkpt lat="47.90655" lon="6.80415">
        <ele>709.8</ele>
        <time>2022-09-02T06:33:55Z</time>
      </trkpt>
      <trkpt lat="47.90655" lon="6.80416">
        <ele>709.8</ele>
        <time>2022-09-02T06:33:56Z</time>
      </trkpt>
      <trkpt lat="47.90654" lon="6.80418">
        <ele>710.1</ele>
        <time>2022-09-02T06:33:57Z</time>
      </trkpt>
      <trkpt lat="47.90654" lon="6.80419">
        <ele>710.1</ele>
        <time>2022-09-02T06:33:58Z</time>
      </trkpt>
      <trkpt lat="47.90654" lon="6.80421">
        <ele>710</ele>
        <time>2022-09-02T06:33:59Z</time>
      </trkpt>
      <trkpt lat="47.90653" lon="6.80422">
        <ele>710.3</ele>
        <time>2022-09-02T06:34:00Z</time>
      </trkpt>
      <trkpt lat="47.90653" lon="6.80423">
        <ele>710.3</ele>
        <time>2022-09-02T06:34:01Z</time>
      </trkpt>
      <trkpt lat="47.90653" lon="6.80425">
        <ele>710.3</ele>
        <time>2022-09-02T06:34:02Z</time>
      </trkpt>
      <trkpt lat="47.90652" lon="6.80426">
        <ele>710.6</ele>
        <time>2022-09-02T06:34:03Z</time>
      </trkpt>
      <trkpt lat="47.90652" lon="6.80427">
        <ele>710.6</ele>
        <time>2022-09-02T06:34:04Z</time>
      </trkpt>
      <trkpt lat="47.90652" lon="6.80428">
        <ele>710.6</ele>
        <time>2022-09-02T06:34:05Z</time>
      </trkpt>
      <trkpt lat="47.90651" lon="6.8043">
        <ele>710.9</ele>
        <time>2022-09-02T06:34:06Z</time>
      </trkpt>
      <trkpt lat="47.90651" lon="6.80431">
        <ele>710.9</ele>
        <time>2022-09-02T06:34:07Z</time>
      </trkpt>
      <trkpt lat="47.9065" lon="6.80432">
        <ele>711.2</ele>
        <time>2022-09-02T06:34:08Z</time>
      </trkpt>
      <trkpt lat="47.9065" lon="6.80433">
        <ele>711.2</ele>
        <time>2022-09-02T06:34:09Z</time>
      </trkpt>
      <trkpt lat="47.9065" lon="6.80434">
        <ele>711.2</ele>
        <time>2022-09-02T06:34:10Z</time>
      </trkpt>
      <trkpt lat="47.9065" lon="6.80436">
        <ele>711.1</ele>
        <time>2022-09-02T06:34:11Z</time>
      </trkpt>
      <trkpt lat="47.9065" lon="6.80437">
        <ele>711.1</ele>
        <time>2022-09-02T06:34:12Z</time>
      </trkpt>
      <trkpt lat="47.90649" lon="6.80438">
        <ele>711.4</ele>
        <time>2022-09-02T06:34:13Z</time>
      </trkpt>
      <trkpt lat="47.90649" lon="6.8044">
        <ele>711.4</ele>
        <time>2022-09-02T06:34:14Z</time>
      </trkpt>
      <trkpt lat="47.90649" lon="6.80441">
        <ele>711.4</ele>
        <time>2022-09-02T06:34:15Z</time>
      </trkpt>
      <trkpt lat="47.90648" lon="6.80443">
        <ele>711.7</ele>
        <time>2022-09-02T06:34:16Z</time>
      </trkpt>
      <trkpt lat="47.90648" lon="6.80444">
        <ele>711.7</ele>
        <time>2022-09-02T06:34:17Z</time>
      </trkpt>
      <trkpt lat="47.90647" lon="6.80445">
        <ele>712.1</ele>
        <time>2022-09-02T06:34:18Z</time>
      </trkpt>
      <trkpt lat="47.90646" lon="6.80448">
        <ele>712.4</ele>
        <time>2022-09-02T06:34:39Z</time>
      </trkpt>
      <trkpt lat="47.90646" lon="6.80449">
        <ele>712.4</ele>
        <time>2022-09-02T06:34:40Z</time>
      </trkpt>
      <trkpt lat="47.90646" lon="6.8045">
        <ele>712.4</ele>
        <time>2022-09-02T06:34:41Z</time>
      </trkpt>
      <trkpt lat="47.90646" lon="6.80451">
        <ele>712.4</ele>
        <time>2022-09-02T06:34:42Z</time>
      </trkpt>
      <trkpt lat="47.90645" lon="6.80452">
        <ele>712.7</ele>
        <time>2022-09-02T06:34:43Z</time>
      </trkpt>
      <trkpt lat="47.90645" lon="6.80453">
        <ele>712.7</ele>
        <time>2022-09-02T06:34:44Z</time>
      </trkpt>
      <trkpt lat="47.90645" lon="6.80454">
        <ele>712.7</ele>
        <time>2022-09-02T06:34:45Z</time>
      </trkpt>
      <trkpt lat="47.90644" lon="6.80455">
        <ele>713.1</ele>
        <time>2022-09-02T06:34:46Z</time>
      </trkpt>
      <trkpt lat="47.90644" lon="6.80457">
        <ele>713.1</ele>
        <time>2022-09-02T06:34:47Z</time>
      </trkpt>
      <trkpt lat="47.90643" lon="6.80458">
        <ele>713.4</ele>
        <time>2022-09-02T06:34:48Z</time>
      </trkpt>
      <trkpt lat="47.90643" lon="6.8046">
        <ele>713.4</ele>
        <time>2022-09-02T06:34:49Z</time>
      </trkpt>
      <trkpt lat="47.90642" lon="6.80461">
        <ele>713.8</ele>
        <time>2022-09-02T06:34:50Z</time>
      </trkpt>
      <trkpt lat="47.90642" lon="6.80462">
        <ele>713.8</ele>
        <time>2022-09-02T06:34:51Z</time>
      </trkpt>
      <trkpt lat="47.90641" lon="6.80463">
        <ele>714.2</ele>
        <time>2022-09-02T06:34:52Z</time>
      </trkpt>
      <trkpt lat="47.90641" lon="6.80464">
        <ele>714.2</ele>
        <time>2022-09-02T06:34:53Z</time>
      </trkpt>
      <trkpt lat="47.90641" lon="6.80466">
        <ele>714.2</ele>
        <time>2022-09-02T06:34:54Z</time>
      </trkpt>
      <trkpt lat="47.9064" lon="6.80467">
        <ele>714.6</ele>
        <time>2022-09-02T06:34:55Z</time>
      </trkpt>
      <trkpt lat="47.9064" lon="6.80468">
        <ele>714.6</ele>
        <time>2022-09-02T06:34:56Z</time>
      </trkpt>
      <trkpt lat="47.90639" lon="6.80469">
        <ele>715</ele>
        <time>2022-09-02T06:34:57Z</time>
      </trkpt>
      <trkpt lat="47.90639" lon="6.80471">
        <ele>715</ele>
        <time>2022-09-02T06:34:58Z</time>
      </trkpt>
      <trkpt lat="47.90639" lon="6.80472">
        <ele>715</ele>
        <time>2022-09-02T06:34:59Z</time>
      </trkpt>
      <trkpt lat="47.90638" lon="6.80473">
        <ele>715.3</ele>
        <time>2022-09-02T06:35:00Z</time>
      </trkpt>
      <trkpt lat="47.90638" lon="6.80475">
        <ele>715.3</ele>
        <time>2022-09-02T06:35:01Z</time>
      </trkpt>
      <trkpt lat="47.90638" lon="6.80476">
        <ele>715.2</ele>
        <time>2022-09-02T06:35:02Z</time>
      </trkpt>
      <trkpt lat="47.90637" lon="6.80477">
        <ele>715.6</ele>
        <time>2022-09-02T06:35:03Z</time>
      </trkpt>
      <trkpt lat="47.90637" lon="6.80479">
        <ele>715.5</ele>
        <time>2022-09-02T06:35:04Z</time>
      </trkpt>
      <trkpt lat="47.90636" lon="6.8048">
        <ele>715.9</ele>
        <time>2022-09-02T06:35:05Z</time>
      </trkpt>
      <trkpt lat="47.90636" lon="6.80481">
        <ele>715.8</ele>
        <time>2022-09-02T06:35:06Z</time>
      </trkpt>
      <trkpt lat="47.90636" lon="6.80483">
        <ele>715.8</ele>
        <time>2022-09-02T06:35:07Z</time>
      </trkpt>
      <trkpt lat="47.90635" lon="6.80484">
        <ele>716.1</ele>
        <time>2022-09-02T06:35:08Z</time>
      </trkpt>
      <trkpt lat="47.90635" lon="6.80486">
        <ele>716</ele>
        <time>2022-09-02T06:35:09Z</time>
      </trkpt>
      <trkpt lat="47.90635" lon="6.80487">
        <ele>716</ele>
        <time>2022-09-02T06:35:10Z</time>
      </trkpt>
      <trkpt lat="47.90635" lon="6.80489">
        <ele>715.9</ele>
        <time>2022-09-02T06:35:11Z</time>
      </trkpt>
      <trkpt lat="47.90635" lon="6.8049">
        <ele>715.9</ele>
        <time>2022-09-02T06:35:12Z</time>
      </trkpt>
      <trkpt lat="47.90634" lon="6.80492">
        <ele>716.2</ele>
        <time>2022-09-02T06:35:13Z</time>
      </trkpt>
      <trkpt lat="47.90634" lon="6.80493">
        <ele>716.2</ele>
        <time>2022-09-02T06:35:14Z</time>
      </trkpt>
      <trkpt lat="47.90634" lon="6.80494">
        <ele>716.2</ele>
        <time>2022-09-02T06:35:15Z</time>
      </trkpt>
      <trkpt lat="47.90633" lon="6.80496">
        <ele>716.5</ele>
        <time>2022-09-02T06:35:16Z</time>
      </trkpt>
      <trkpt lat="47.90633" lon="6.80497">
        <ele>716.4</ele>
        <time>2022-09-02T06:35:17Z</time>
      </trkpt>
      <trkpt lat="47.90632" lon="6.80499">
        <ele>716.8</ele>
        <time>2022-09-02T06:35:18Z</time>
      </trkpt>
      <trkpt lat="47.90632" lon="6.805">
        <ele>716.7</ele>
        <time>2022-09-02T06:35:19Z</time>
      </trkpt>
      <trkpt lat="47.90631" lon="6.80501">
        <ele>717.1</ele>
        <time>2022-09-02T06:35:20Z</time>
      </trkpt>
      <trkpt lat="47.90631" lon="6.80503">
        <ele>717</ele>
        <time>2022-09-02T06:35:21Z</time>
      </trkpt>
      <trkpt lat="47.9063" lon="6.80504">
        <ele>717.4</ele>
        <time>2022-09-02T06:35:22Z</time>
      </trkpt>
      <trkpt lat="47.9063" lon="6.80506">
        <ele>717.3</ele>
        <time>2022-09-02T06:35:23Z</time>
      </trkpt>
      <trkpt lat="47.90629" lon="6.80507">
        <ele>717.7</ele>
        <time>2022-09-02T06:35:24Z</time>
      </trkpt>
      <trkpt lat="47.90629" lon="6.80509">
        <ele>717.6</ele>
        <time>2022-09-02T06:35:25Z</time>
      </trkpt>
      <trkpt lat="47.90629" lon="6.8051">
        <ele>717.6</ele>
        <time>2022-09-02T06:35:26Z</time>
      </trkpt>
      <trkpt lat="47.90628" lon="6.80512">
        <ele>717.9</ele>
        <time>2022-09-02T06:35:27Z</time>
      </trkpt>
      <trkpt lat="47.90628" lon="6.80513">
        <ele>717.8</ele>
        <time>2022-09-02T06:35:28Z</time>
      </trkpt>
      <trkpt lat="47.90627" lon="6.80515">
        <ele>718.2</ele>
        <time>2022-09-02T06:35:29Z</time>
      </trkpt>
      <trkpt lat="47.90627" lon="6.80516">
        <ele>718.1</ele>
        <time>2022-09-02T06:35:30Z</time>
      </trkpt>
      <trkpt lat="47.90627" lon="6.80517">
        <ele>718.1</ele>
        <time>2022-09-02T06:35:31Z</time>
      </trkpt>
      <trkpt lat="47.90626" lon="6.80519">
        <ele>718.4</ele>
        <time>2022-09-02T06:35:32Z</time>
      </trkpt>
      <trkpt lat="47.90626" lon="6.8052">
        <ele>718.4</ele>
        <time>2022-09-02T06:35:33Z</time>
      </trkpt>
      <trkpt lat="47.90626" lon="6.80521">
        <ele>718.3</ele>
        <time>2022-09-02T06:35:34Z</time>
      </trkpt>
      <trkpt lat="47.90625" lon="6.80523">
        <ele>718.7</ele>
        <time>2022-09-02T06:35:35Z</time>
      </trkpt>
      <trkpt lat="47.90625" lon="6.80524">
        <ele>718.6</ele>
        <time>2022-09-02T06:35:36Z</time>
      </trkpt>
      <trkpt lat="47.90624" lon="6.80525">
        <ele>719</ele>
        <time>2022-09-02T06:35:37Z</time>
      </trkpt>
      <trkpt lat="47.90624" lon="6.80527">
        <ele>718.9</ele>
        <time>2022-09-02T06:35:38Z</time>
      </trkpt>
      <trkpt lat="47.90623" lon="6.80528">
        <ele>719.3</ele>
        <time>2022-09-02T06:35:39Z</time>
      </trkpt>
      <trkpt lat="47.90622" lon="6.80529">
        <ele>719.6</ele>
        <time>2022-09-02T06:35:40Z</time>
      </trkpt>
      <trkpt lat="47.90622" lon="6.80531">
        <ele>719.5</ele>
        <time>2022-09-02T06:35:41Z</time>
      </trkpt>
      <trkpt lat="47.90621" lon="6.80532">
        <ele>719.8</ele>
        <time>2022-09-02T06:35:42Z</time>
      </trkpt>
      <trkpt lat="47.90621" lon="6.80534">
        <ele>719.6</ele>
        <time>2022-09-02T06:35:43Z</time>
      </trkpt>
      <trkpt lat="47.9062" lon="6.80535">
        <ele>720</ele>
        <time>2022-09-02T06:35:44Z</time>
      </trkpt>
      <trkpt lat="47.9062" lon="6.80537">
        <ele>719.8</ele>
        <time>2022-09-02T06:35:45Z</time>
      </trkpt>
      <trkpt lat="47.90619" lon="6.80538">
        <ele>720.1</ele>
        <time>2022-09-02T06:35:46Z</time>
      </trkpt>
      <trkpt lat="47.90619" lon="6.80539">
        <ele>720.1</ele>
        <time>2022-09-02T06:35:47Z</time>
      </trkpt>
      <trkpt lat="47.90618" lon="6.8054">
        <ele>720.4</ele>
        <time>2022-09-02T06:35:48Z</time>
      </trkpt>
      <trkpt lat="47.90618" lon="6.80542">
        <ele>720.2</ele>
        <time>2022-09-02T06:35:49Z</time>
      </trkpt>
      <trkpt lat="47.90617" lon="6.80543">
        <ele>720.6</ele>
        <time>2022-09-02T06:35:50Z</time>
      </trkpt>
      <trkpt lat="47.90617" lon="6.80544">
        <ele>720.5</ele>
        <time>2022-09-02T06:35:51Z</time>
      </trkpt>
      <trkpt lat="47.90617" lon="6.80546">
        <ele>720.4</ele>
        <time>2022-09-02T06:35:52Z</time>
      </trkpt>
      <trkpt lat="47.90616" lon="6.80547">
        <ele>720.7</ele>
        <time>2022-09-02T06:35:53Z</time>
      </trkpt>
      <trkpt lat="47.90616" lon="6.80549">
        <ele>720.5</ele>
        <time>2022-09-02T06:35:54Z</time>
      </trkpt>
      <trkpt lat="47.90615" lon="6.8055">
        <ele>720.9</ele>
        <time>2022-09-02T06:35:55Z</time>
      </trkpt>
      <trkpt lat="47.90615" lon="6.80552">
        <ele>720.7</ele>
        <time>2022-09-02T06:35:56Z</time>
      </trkpt>
      <trkpt lat="47.90614" lon="6.80553">
        <ele>721</ele>
        <time>2022-09-02T06:35:57Z</time>
      </trkpt>
      <trkpt lat="47.90614" lon="6.80554">
        <ele>721</ele>
        <time>2022-09-02T06:35:58Z</time>
      </trkpt>
      <trkpt lat="47.90613" lon="6.80555">
        <ele>721.3</ele>
        <time>2022-09-02T06:35:59Z</time>
      </trkpt>
      <trkpt lat="47.90612" lon="6.80557">
        <ele>721.5</ele>
        <time>2022-09-02T06:36:00Z</time>
      </trkpt>
      <trkpt lat="47.90612" lon="6.80558">
        <ele>721.5</ele>
        <time>2022-09-02T06:36:01Z</time>
      </trkpt>
      <trkpt lat="47.90611" lon="6.80559">
        <ele>721.8</ele>
        <time>2022-09-02T06:36:02Z</time>
      </trkpt>
      <trkpt lat="47.90611" lon="6.8056">
        <ele>721.7</ele>
        <time>2022-09-02T06:36:03Z</time>
      </trkpt>
      <trkpt lat="47.9061" lon="6.80562">
        <ele>722</ele>
        <time>2022-09-02T06:36:04Z</time>
      </trkpt>
      <trkpt lat="47.9061" lon="6.80563">
        <ele>721.9</ele>
        <time>2022-09-02T06:36:05Z</time>
      </trkpt>
      <trkpt lat="47.90609" lon="6.80564">
        <ele>722.3</ele>
        <time>2022-09-02T06:36:06Z</time>
      </trkpt>
      <trkpt lat="47.90609" lon="6.80565">
        <ele>722.2</ele>
        <time>2022-09-02T06:36:07Z</time>
      </trkpt>
      <trkpt lat="47.90608" lon="6.80566">
        <ele>722.5</ele>
        <time>2022-09-02T06:36:08Z</time>
      </trkpt>
      <trkpt lat="47.90608" lon="6.80567">
        <ele>722.5</ele>
        <time>2022-09-02T06:36:09Z</time>
      </trkpt>
      <trkpt lat="47.90608" lon="6.80569">
        <ele>722.3</ele>
        <time>2022-09-02T06:36:10Z</time>
      </trkpt>
      <trkpt lat="47.90607" lon="6.8057">
        <ele>722.7</ele>
        <time>2022-09-02T06:36:11Z</time>
      </trkpt>
      <trkpt lat="47.90607" lon="6.80571">
        <ele>722.6</ele>
        <time>2022-09-02T06:36:12Z</time>
      </trkpt>
      <trkpt lat="47.90606" lon="6.80572">
        <ele>722.9</ele>
        <time>2022-09-02T06:36:13Z</time>
      </trkpt>
      <trkpt lat="47.90606" lon="6.80573">
        <ele>722.8</ele>
        <time>2022-09-02T06:36:14Z</time>
      </trkpt>
      <trkpt lat="47.90605" lon="6.80575">
        <ele>723.1</ele>
        <time>2022-09-02T06:36:15Z</time>
      </trkpt>
      <trkpt lat="47.90605" lon="6.80576">
        <ele>723</ele>
        <time>2022-09-02T06:36:16Z</time>
      </trkpt>
      <trkpt lat="47.90604" lon="6.80577">
        <ele>723.3</ele>
        <time>2022-09-02T06:36:17Z</time>
      </trkpt>
      <trkpt lat="47.90603" lon="6.80578">
        <ele>723.7</ele>
        <time>2022-09-02T06:36:18Z</time>
      </trkpt>
      <trkpt lat="47.90603" lon="6.8058">
        <ele>723.5</ele>
        <time>2022-09-02T06:36:19Z</time>
      </trkpt>
      <trkpt lat="47.90602" lon="6.80581">
        <ele>723.8</ele>
        <time>2022-09-02T06:36:20Z</time>
      </trkpt>
      <trkpt lat="47.90602" lon="6.80582">
        <ele>723.7</ele>
        <time>2022-09-02T06:36:21Z</time>
      </trkpt>
      <trkpt lat="47.90601" lon="6.80583">
        <ele>724</ele>
        <time>2022-09-02T06:36:22Z</time>
      </trkpt>
      <trkpt lat="47.90601" lon="6.80584">
        <ele>723.9</ele>
        <time>2022-09-02T06:36:23Z</time>
      </trkpt>
      <trkpt lat="47.906" lon="6.80585">
        <ele>724.2</ele>
        <time>2022-09-02T06:36:24Z</time>
      </trkpt>
      <trkpt lat="47.906" lon="6.80586">
        <ele>724.1</ele>
        <time>2022-09-02T06:36:25Z</time>
      </trkpt>
      <trkpt lat="47.90599" lon="6.80587">
        <ele>724.3</ele>
        <time>2022-09-02T06:36:26Z</time>
      </trkpt>
      <trkpt lat="47.90598" lon="6.80589">
        <ele>724.5</ele>
        <time>2022-09-02T06:36:27Z</time>
      </trkpt>
      <trkpt lat="47.90598" lon="6.8059">
        <ele>724.4</ele>
        <time>2022-09-02T06:36:28Z</time>
      </trkpt>
      <trkpt lat="47.90597" lon="6.80591">
        <ele>724.6</ele>
        <time>2022-09-02T06:36:29Z</time>
      </trkpt>
      <trkpt lat="47.90596" lon="6.80592">
        <ele>724.9</ele>
        <time>2022-09-02T06:36:30Z</time>
      </trkpt>
      <trkpt lat="47.90596" lon="6.80594">
        <ele>724.6</ele>
        <time>2022-09-02T06:36:31Z</time>
      </trkpt>
      <trkpt lat="47.90595" lon="6.80595">
        <ele>724.9</ele>
        <time>2022-09-02T06:36:32Z</time>
      </trkpt>
      <trkpt lat="47.90594" lon="6.80596">
        <ele>725.1</ele>
        <time>2022-09-02T06:36:33Z</time>
      </trkpt>
      <trkpt lat="47.90593" lon="6.80597">
        <ele>725.4</ele>
        <time>2022-09-02T06:36:34Z</time>
      </trkpt>
      <trkpt lat="47.90593" lon="6.80598">
        <ele>725.2</ele>
        <time>2022-09-02T06:36:35Z</time>
      </trkpt>
      <trkpt lat="47.90592" lon="6.80599">
        <ele>725.5</ele>
        <time>2022-09-02T06:36:45Z</time>
      </trkpt>
      <trkpt lat="47.90591" lon="6.806">
        <ele>725.7</ele>
        <time>2022-09-02T06:36:46Z</time>
      </trkpt>
      <trkpt lat="47.9059" lon="6.80601">
        <ele>726</ele>
        <time>2022-09-02T06:36:48Z</time>
      </trkpt>
      <trkpt lat="47.9059" lon="6.80602">
        <ele>725.8</ele>
        <time>2022-09-02T06:36:49Z</time>
      </trkpt>
      <trkpt lat="47.90589" lon="6.80602">
        <ele>726.2</ele>
        <time>2022-09-02T06:36:50Z</time>
      </trkpt>
      <trkpt lat="47.90588" lon="6.80603">
        <ele>726.4</ele>
        <time>2022-09-02T06:36:51Z</time>
      </trkpt>
      <trkpt lat="47.90588" lon="6.80604">
        <ele>726.3</ele>
        <time>2022-09-02T06:36:52Z</time>
      </trkpt>
      <trkpt lat="47.90587" lon="6.80605">
        <ele>726.5</ele>
        <time>2022-09-02T06:36:53Z</time>
      </trkpt>
      <trkpt lat="47.90586" lon="6.80606">
        <ele>726.8</ele>
        <time>2022-09-02T06:36:54Z</time>
      </trkpt>
      <trkpt lat="47.90585" lon="6.80607">
        <ele>727</ele>
        <time>2022-09-02T06:36:55Z</time>
      </trkpt>
      <trkpt lat="47.90584" lon="6.80608">
        <ele>727.2</ele>
        <time>2022-09-02T06:36:57Z</time>
      </trkpt>
      <trkpt lat="47.90583" lon="6.80609">
        <ele>727.4</ele>
        <time>2022-09-02T06:36:58Z</time>
      </trkpt>
      <trkpt lat="47.90582" lon="6.8061">
        <ele>727.6</ele>
        <time>2022-09-02T06:36:59Z</time>
      </trkpt>
      <trkpt lat="47.90582" lon="6.80611">
        <ele>727.5</ele>
        <time>2022-09-02T06:37:00Z</time>
      </trkpt>
      <trkpt lat="47.90581" lon="6.80612">
        <ele>727.6</ele>
        <time>2022-09-02T06:37:01Z</time>
      </trkpt>
      <trkpt lat="47.9058" lon="6.80613">
        <ele>727.8</ele>
        <time>2022-09-02T06:37:02Z</time>
      </trkpt>
      <trkpt lat="47.90579" lon="6.80614">
        <ele>727.9</ele>
        <time>2022-09-02T06:37:03Z</time>
      </trkpt>
      <trkpt lat="47.90578" lon="6.80615">
        <ele>728.1</ele>
        <time>2022-09-02T06:37:04Z</time>
      </trkpt>
      <trkpt lat="47.90577" lon="6.80616">
        <ele>728.2</ele>
        <time>2022-09-02T06:37:05Z</time>
      </trkpt>
      <trkpt lat="47.90576" lon="6.80616">
        <ele>728.6</ele>
        <time>2022-09-02T06:37:06Z</time>
      </trkpt>
      <trkpt lat="47.90576" lon="6.80617">
        <ele>728.4</ele>
        <time>2022-09-02T06:37:07Z</time>
      </trkpt>
      <trkpt lat="47.90575" lon="6.80618">
        <ele>728.5</ele>
        <time>2022-09-02T06:37:08Z</time>
      </trkpt>
      <trkpt lat="47.90574" lon="6.80619">
        <ele>728.7</ele>
        <time>2022-09-02T06:37:09Z</time>
      </trkpt>
      <trkpt lat="47.90573" lon="6.8062">
        <ele>728.8</ele>
        <time>2022-09-02T06:37:10Z</time>
      </trkpt>
      <trkpt lat="47.90573" lon="6.80621">
        <ele>728.6</ele>
        <time>2022-09-02T06:37:11Z</time>
      </trkpt>
      <trkpt lat="47.90572" lon="6.80622">
        <ele>728.7</ele>
        <time>2022-09-02T06:37:12Z</time>
      </trkpt>
      <trkpt lat="47.90571" lon="6.80623">
        <ele>728.9</ele>
        <time>2022-09-02T06:37:13Z</time>
      </trkpt>
      <trkpt lat="47.90571" lon="6.80624">
        <ele>728.7</ele>
        <time>2022-09-02T06:37:14Z</time>
      </trkpt>
      <trkpt lat="47.9057" lon="6.80625">
        <ele>728.8</ele>
        <time>2022-09-02T06:37:15Z</time>
      </trkpt>
      <trkpt lat="47.90569" lon="6.80625">
        <ele>729.2</ele>
        <time>2022-09-02T06:37:16Z</time>
      </trkpt>
      <trkpt lat="47.90568" lon="6.80626">
        <ele>729.3</ele>
        <time>2022-09-02T06:37:17Z</time>
      </trkpt>
      <trkpt lat="47.90567" lon="6.80629">
        <ele>729</ele>
        <time>2022-09-02T06:37:40Z</time>
      </trkpt>
      <trkpt lat="47.90567" lon="6.8063">
        <ele>728.8</ele>
        <time>2022-09-02T06:37:42Z</time>
      </trkpt>
      <trkpt lat="47.90566" lon="6.80631">
        <ele>728.9</ele>
        <time>2022-09-02T06:37:43Z</time>
      </trkpt>
      <trkpt lat="47.90566" lon="6.80632">
        <ele>728.7</ele>
        <time>2022-09-02T06:37:44Z</time>
      </trkpt>
      <trkpt lat="47.90565" lon="6.80633">
        <ele>728.9</ele>
        <time>2022-09-02T06:38:41Z</time>
      </trkpt>
      <trkpt lat="47.90564" lon="6.80634">
        <ele>729</ele>
        <time>2022-09-02T06:38:43Z</time>
      </trkpt>
      <trkpt lat="47.90564" lon="6.80635">
        <ele>728.8</ele>
        <time>2022-09-02T06:38:45Z</time>
      </trkpt>
      <trkpt lat="47.90563" lon="6.80636">
        <ele>728.9</ele>
        <time>2022-09-02T06:38:46Z</time>
      </trkpt>
      <trkpt lat="47.90562" lon="6.80636">
        <ele>729.3</ele>
        <time>2022-09-02T06:38:47Z</time>
      </trkpt>
      <trkpt lat="47.90561" lon="6.80637">
        <ele>729.4</ele>
        <time>2022-09-02T06:38:48Z</time>
      </trkpt>
      <trkpt lat="47.90561" lon="6.80638">
        <ele>729.2</ele>
        <time>2022-09-02T06:38:49Z</time>
      </trkpt>
      <trkpt lat="47.9056" lon="6.80639">
        <ele>729.4</ele>
        <time>2022-09-02T06:38:50Z</time>
      </trkpt>
      <trkpt lat="47.90559" lon="6.8064">
        <ele>729.6</ele>
        <time>2022-09-02T06:38:51Z</time>
      </trkpt>
      <trkpt lat="47.90558" lon="6.80641">
        <ele>729.8</ele>
        <time>2022-09-02T06:38:52Z</time>
      </trkpt>
      <trkpt lat="47.90557" lon="6.80642">
        <ele>730</ele>
        <time>2022-09-02T06:38:53Z</time>
      </trkpt>
      <trkpt lat="47.90556" lon="6.80643">
        <ele>730.2</ele>
        <time>2022-09-02T06:38:54Z</time>
      </trkpt>
      <trkpt lat="47.90555" lon="6.80644">
        <ele>730.5</ele>
        <time>2022-09-02T06:38:55Z</time>
      </trkpt>
      <trkpt lat="47.90554" lon="6.80645">
        <ele>730.8</ele>
        <time>2022-09-02T06:38:57Z</time>
      </trkpt>
      <trkpt lat="47.90554" lon="6.80646">
        <ele>730.6</ele>
        <time>2022-09-02T06:38:58Z</time>
      </trkpt>
      <trkpt lat="47.90553" lon="6.80647">
        <ele>730.9</ele>
        <time>2022-09-02T06:38:59Z</time>
      </trkpt>
      <trkpt lat="47.90552" lon="6.80648">
        <ele>731.2</ele>
        <time>2022-09-02T06:39:00Z</time>
      </trkpt>
      <trkpt lat="47.90551" lon="6.80648">
        <ele>731.6</ele>
        <time>2022-09-02T06:39:01Z</time>
      </trkpt>
      <trkpt lat="47.90551" lon="6.80649">
        <ele>731.5</ele>
        <time>2022-09-02T06:39:02Z</time>
      </trkpt>
      <trkpt lat="47.9055" lon="6.8065">
        <ele>731.7</ele>
        <time>2022-09-02T06:39:03Z</time>
      </trkpt>
      <trkpt lat="47.90549" lon="6.80651">
        <ele>732</ele>
        <time>2022-09-02T06:39:04Z</time>
      </trkpt>
      <trkpt lat="47.90548" lon="6.80652">
        <ele>732.2</ele>
        <time>2022-09-02T06:39:05Z</time>
      </trkpt>
      <trkpt lat="47.90548" lon="6.80653">
        <ele>732.1</ele>
        <time>2022-09-02T06:39:06Z</time>
      </trkpt>
      <trkpt lat="47.90547" lon="6.80654">
        <ele>732.4</ele>
        <time>2022-09-02T06:39:07Z</time>
      </trkpt>
      <trkpt lat="47.90546" lon="6.80655">
        <ele>732.6</ele>
        <time>2022-09-02T06:39:08Z</time>
      </trkpt>
      <trkpt lat="47.90546" lon="6.80657">
        <ele>732.3</ele>
        <time>2022-09-02T06:39:09Z</time>
      </trkpt>
      <trkpt lat="47.90545" lon="6.80658">
        <ele>732.5</ele>
        <time>2022-09-02T06:39:10Z</time>
      </trkpt>
      <trkpt lat="47.90544" lon="6.80659">
        <ele>732.8</ele>
        <time>2022-09-02T06:39:11Z</time>
      </trkpt>
      <trkpt lat="47.90543" lon="6.8066">
        <ele>733</ele>
        <time>2022-09-02T06:39:12Z</time>
      </trkpt>
      <trkpt lat="47.90542" lon="6.80661">
        <ele>733.3</ele>
        <time>2022-09-02T06:39:14Z</time>
      </trkpt>
      <trkpt lat="47.90542" lon="6.80662">
        <ele>733.1</ele>
        <time>2022-09-02T06:39:15Z</time>
      </trkpt>
      <trkpt lat="47.90541" lon="6.80663">
        <ele>733.4</ele>
        <time>2022-09-02T06:39:16Z</time>
      </trkpt>
      <trkpt lat="47.90541" lon="6.80664">
        <ele>733.2</ele>
        <time>2022-09-02T06:39:17Z</time>
      </trkpt>
      <trkpt lat="47.9054" lon="6.80665">
        <ele>733.4</ele>
        <time>2022-09-02T06:39:18Z</time>
      </trkpt>
      <trkpt lat="47.9054" lon="6.80666">
        <ele>733.3</ele>
        <time>2022-09-02T06:39:19Z</time>
      </trkpt>
      <trkpt lat="47.90539" lon="6.80667">
        <ele>733.5</ele>
        <time>2022-09-02T06:39:20Z</time>
      </trkpt>
      <trkpt lat="47.90539" lon="6.80668">
        <ele>733.3</ele>
        <time>2022-09-02T06:39:21Z</time>
      </trkpt>
      <trkpt lat="47.90538" lon="6.80669">
        <ele>733.5</ele>
        <time>2022-09-02T06:39:22Z</time>
      </trkpt>
      <trkpt lat="47.90537" lon="6.8067">
        <ele>733.7</ele>
        <time>2022-09-02T06:39:23Z</time>
      </trkpt>
      <trkpt lat="47.90537" lon="6.80671">
        <ele>733.6</ele>
        <time>2022-09-02T06:39:24Z</time>
      </trkpt>
      <trkpt lat="47.90536" lon="6.80672">
        <ele>733.8</ele>
        <time>2022-09-02T06:39:25Z</time>
      </trkpt>
      <trkpt lat="47.90536" lon="6.80673">
        <ele>733.6</ele>
        <time>2022-09-02T06:39:26Z</time>
      </trkpt>
      <trkpt lat="47.90535" lon="6.80674">
        <ele>733.8</ele>
        <time>2022-09-02T06:39:27Z</time>
      </trkpt>
      <trkpt lat="47.90534" lon="6.80674">
        <ele>734.2</ele>
        <time>2022-09-02T06:39:28Z</time>
      </trkpt>
      <trkpt lat="47.90534" lon="6.80675">
        <ele>734</ele>
        <time>2022-09-02T06:39:29Z</time>
      </trkpt>
      <trkpt lat="47.90533" lon="6.80676">
        <ele>734.3</ele>
        <time>2022-09-02T06:39:30Z</time>
      </trkpt>
      <trkpt lat="47.90532" lon="6.80677">
        <ele>734.5</ele>
        <time>2022-09-02T06:39:31Z</time>
      </trkpt>
      <trkpt lat="47.90531" lon="6.80678">
        <ele>734.7</ele>
        <time>2022-09-02T06:39:32Z</time>
      </trkpt>
      <trkpt lat="47.90531" lon="6.80679">
        <ele>734.5</ele>
        <time>2022-09-02T06:39:33Z</time>
      </trkpt>
      <trkpt lat="47.9053" lon="6.8068">
        <ele>734.7</ele>
        <time>2022-09-02T06:39:34Z</time>
      </trkpt>
      <trkpt lat="47.90529" lon="6.80681">
        <ele>734.9</ele>
        <time>2022-09-02T06:39:35Z</time>
      </trkpt>
      <trkpt lat="47.90528" lon="6.80682">
        <ele>735.2</ele>
        <time>2022-09-02T06:39:36Z</time>
      </trkpt>
      <trkpt lat="47.90527" lon="6.80683">
        <ele>735.4</ele>
        <time>2022-09-02T06:39:37Z</time>
      </trkpt>
      <trkpt lat="47.90527" lon="6.80684">
        <ele>735.2</ele>
        <time>2022-09-02T06:39:38Z</time>
      </trkpt>
      <trkpt lat="47.90526" lon="6.80684">
        <ele>735.6</ele>
        <time>2022-09-02T06:39:39Z</time>
      </trkpt>
      <trkpt lat="47.90525" lon="6.80685">
        <ele>735.8</ele>
        <time>2022-09-02T06:39:40Z</time>
      </trkpt>
      <trkpt lat="47.90525" lon="6.80686">
        <ele>735.6</ele>
        <time>2022-09-02T06:39:41Z</time>
      </trkpt>
      <trkpt lat="47.90524" lon="6.80686">
        <ele>736</ele>
        <time>2022-09-02T06:39:42Z</time>
      </trkpt>
      <trkpt lat="47.90523" lon="6.80687">
        <ele>736.2</ele>
        <time>2022-09-02T06:39:43Z</time>
      </trkpt>
      <trkpt lat="47.90523" lon="6.80688">
        <ele>736.1</ele>
        <time>2022-09-02T06:39:44Z</time>
      </trkpt>
      <trkpt lat="47.90522" lon="6.80689">
        <ele>736.3</ele>
        <time>2022-09-02T06:39:45Z</time>
      </trkpt>
      <trkpt lat="47.90521" lon="6.80689">
        <ele>736.7</ele>
        <time>2022-09-02T06:39:46Z</time>
      </trkpt>
      <trkpt lat="47.9052" lon="6.8069">
        <ele>736.9</ele>
        <time>2022-09-02T06:39:47Z</time>
      </trkpt>
      <trkpt lat="47.9052" lon="6.80691">
        <ele>736.7</ele>
        <time>2022-09-02T06:39:48Z</time>
      </trkpt>
      <trkpt lat="47.90519" lon="6.80692">
        <ele>736.9</ele>
        <time>2022-09-02T06:39:49Z</time>
      </trkpt>
      <trkpt lat="47.90518" lon="6.80692">
        <ele>737.3</ele>
        <time>2022-09-02T06:39:50Z</time>
      </trkpt>
      <trkpt lat="47.90517" lon="6.80693">
        <ele>737.5</ele>
        <time>2022-09-02T06:39:51Z</time>
      </trkpt>
      <trkpt lat="47.90517" lon="6.80694">
        <ele>737.3</ele>
        <time>2022-09-02T06:39:52Z</time>
      </trkpt>
      <trkpt lat="47.90516" lon="6.80695">
        <ele>737.6</ele>
        <time>2022-09-02T06:39:53Z</time>
      </trkpt>
      <trkpt lat="47.90515" lon="6.80696">
        <ele>737.8</ele>
        <time>2022-09-02T06:39:54Z</time>
      </trkpt>
      <trkpt lat="47.90514" lon="6.80697">
        <ele>738</ele>
        <time>2022-09-02T06:39:55Z</time>
      </trkpt>
      <trkpt lat="47.90514" lon="6.80698">
        <ele>737.9</ele>
        <time>2022-09-02T06:39:56Z</time>
      </trkpt>
      <trkpt lat="47.90513" lon="6.80699">
        <ele>738.1</ele>
        <time>2022-09-02T06:39:57Z</time>
      </trkpt>
      <trkpt lat="47.90512" lon="6.807">
        <ele>738.3</ele>
        <time>2022-09-02T06:39:58Z</time>
      </trkpt>
      <trkpt lat="47.90511" lon="6.80701">
        <ele>738.6</ele>
        <time>2022-09-02T06:39:59Z</time>
      </trkpt>
      <trkpt lat="47.90511" lon="6.80702">
        <ele>738.4</ele>
        <time>2022-09-02T06:40:00Z</time>
      </trkpt>
      <trkpt lat="47.9051" lon="6.80703">
        <ele>738.6</ele>
        <time>2022-09-02T06:40:01Z</time>
      </trkpt>
      <trkpt lat="47.90509" lon="6.80704">
        <ele>738.8</ele>
        <time>2022-09-02T06:40:02Z</time>
      </trkpt>
      <trkpt lat="47.90509" lon="6.80705">
        <ele>738.7</ele>
        <time>2022-09-02T06:40:03Z</time>
      </trkpt>
      <trkpt lat="47.90508" lon="6.80706">
        <ele>738.9</ele>
        <time>2022-09-02T06:40:04Z</time>
      </trkpt>
      <trkpt lat="47.90507" lon="6.80707">
        <ele>739.1</ele>
        <time>2022-09-02T06:40:05Z</time>
      </trkpt>
      <trkpt lat="47.90507" lon="6.80708">
        <ele>738.9</ele>
        <time>2022-09-02T06:40:06Z</time>
      </trkpt>
      <trkpt lat="47.90506" lon="6.80709">
        <ele>739.1</ele>
        <time>2022-09-02T06:40:07Z</time>
      </trkpt>
      <trkpt lat="47.90505" lon="6.8071">
        <ele>739.3</ele>
        <time>2022-09-02T06:40:08Z</time>
      </trkpt>
      <trkpt lat="47.90504" lon="6.80711">
        <ele>739.5</ele>
        <time>2022-09-02T06:40:09Z</time>
      </trkpt>
      <trkpt lat="47.90504" lon="6.80712">
        <ele>739.3</ele>
        <time>2022-09-02T06:40:10Z</time>
      </trkpt>
      <trkpt lat="47.90503" lon="6.80713">
        <ele>739.5</ele>
        <time>2022-09-02T06:40:11Z</time>
      </trkpt>
      <trkpt lat="47.90502" lon="6.80714">
        <ele>739.7</ele>
        <time>2022-09-02T06:40:12Z</time>
      </trkpt>
      <trkpt lat="47.90501" lon="6.80715">
        <ele>739.9</ele>
        <time>2022-09-02T06:40:13Z</time>
      </trkpt>
      <trkpt lat="47.90501" lon="6.80716">
        <ele>739.8</ele>
        <time>2022-09-02T06:40:14Z</time>
      </trkpt>
      <trkpt lat="47.905" lon="6.80716">
        <ele>740.1</ele>
        <time>2022-09-02T06:40:15Z</time>
      </trkpt>
      <trkpt lat="47.90499" lon="6.80717">
        <ele>740.3</ele>
        <time>2022-09-02T06:40:16Z</time>
      </trkpt>
      <trkpt lat="47.90498" lon="6.80718">
        <ele>740.4</ele>
        <time>2022-09-02T06:40:17Z</time>
      </trkpt>
      <trkpt lat="47.90497" lon="6.80719">
        <ele>740.6</ele>
        <time>2022-09-02T06:40:18Z</time>
      </trkpt>
      <trkpt lat="47.90497" lon="6.8072">
        <ele>740.4</ele>
        <time>2022-09-02T06:40:19Z</time>
      </trkpt>
      <trkpt lat="47.90496" lon="6.8072">
        <ele>740.7</ele>
        <time>2022-09-02T06:40:20Z</time>
      </trkpt>
      <trkpt lat="47.90495" lon="6.80721">
        <ele>740.9</ele>
        <time>2022-09-02T06:40:21Z</time>
      </trkpt>
      <trkpt lat="47.90494" lon="6.80722">
        <ele>741</ele>
        <time>2022-09-02T06:40:22Z</time>
      </trkpt>
      <trkpt lat="47.90493" lon="6.80722">
        <ele>741.3</ele>
        <time>2022-09-02T06:40:23Z</time>
      </trkpt>
      <trkpt lat="47.90492" lon="6.80723">
        <ele>741.5</ele>
        <time>2022-09-02T06:40:24Z</time>
      </trkpt>
      <trkpt lat="47.90491" lon="6.80724">
        <ele>741.6</ele>
        <time>2022-09-02T06:40:25Z</time>
      </trkpt>
      <trkpt lat="47.9049" lon="6.80725">
        <ele>741.7</ele>
        <time>2022-09-02T06:40:26Z</time>
      </trkpt>
      <trkpt lat="47.9049" lon="6.80726">
        <ele>741.6</ele>
        <time>2022-09-02T06:40:27Z</time>
      </trkpt>
      <trkpt lat="47.90489" lon="6.80727">
        <ele>741.7</ele>
        <time>2022-09-02T06:40:28Z</time>
      </trkpt>
      <trkpt lat="47.90488" lon="6.80728">
        <ele>741.8</ele>
        <time>2022-09-02T06:40:29Z</time>
      </trkpt>
      <trkpt lat="47.90487" lon="6.80729">
        <ele>742</ele>
        <time>2022-09-02T06:40:30Z</time>
      </trkpt>
      <trkpt lat="47.90487" lon="6.8073">
        <ele>741.8</ele>
        <time>2022-09-02T06:40:31Z</time>
      </trkpt>
      <trkpt lat="47.90486" lon="6.8073">
        <ele>742.1</ele>
        <time>2022-09-02T06:40:32Z</time>
      </trkpt>
      <trkpt lat="47.90486" lon="6.80731">
        <ele>742</ele>
        <time>2022-09-02T06:40:33Z</time>
      </trkpt>
      <trkpt lat="47.90485" lon="6.80732">
        <ele>742.1</ele>
        <time>2022-09-02T06:40:34Z</time>
      </trkpt>
      <trkpt lat="47.90484" lon="6.80733">
        <ele>742.2</ele>
        <time>2022-09-02T06:40:35Z</time>
      </trkpt>
      <trkpt lat="47.90484" lon="6.80734">
        <ele>742.1</ele>
        <time>2022-09-02T06:40:36Z</time>
      </trkpt>
      <trkpt lat="47.90483" lon="6.80735">
        <ele>742.2</ele>
        <time>2022-09-02T06:40:37Z</time>
      </trkpt>
      <trkpt lat="47.90482" lon="6.80735">
        <ele>742.5</ele>
        <time>2022-09-02T06:40:38Z</time>
      </trkpt>
      <trkpt lat="47.90481" lon="6.80736">
        <ele>742.7</ele>
        <time>2022-09-02T06:40:39Z</time>
      </trkpt>
      <trkpt lat="47.90481" lon="6.80737">
        <ele>742.5</ele>
        <time>2022-09-02T06:40:40Z</time>
      </trkpt>
      <trkpt lat="47.9048" lon="6.80738">
        <ele>742.6</ele>
        <time>2022-09-02T06:40:41Z</time>
      </trkpt>
      <trkpt lat="47.90479" lon="6.80739">
        <ele>742.8</ele>
        <time>2022-09-02T06:40:42Z</time>
      </trkpt>
      <trkpt lat="47.90478" lon="6.8074">
        <ele>742.9</ele>
        <time>2022-09-02T06:40:43Z</time>
      </trkpt>
      <trkpt lat="47.90477" lon="6.8074">
        <ele>743.3</ele>
        <time>2022-09-02T06:40:44Z</time>
      </trkpt>
      <trkpt lat="47.90476" lon="6.80741">
        <ele>743.4</ele>
        <time>2022-09-02T06:40:45Z</time>
      </trkpt>
      <trkpt lat="47.90475" lon="6.80742">
        <ele>743.5</ele>
        <time>2022-09-02T06:40:46Z</time>
      </trkpt>
      <trkpt lat="47.90474" lon="6.80742">
        <ele>743.9</ele>
        <time>2022-09-02T06:40:47Z</time>
      </trkpt>
      <trkpt lat="47.90473" lon="6.80743">
        <ele>744</ele>
        <time>2022-09-02T06:40:48Z</time>
      </trkpt>
      <trkpt lat="47.90472" lon="6.80744">
        <ele>744.2</ele>
        <time>2022-09-02T06:40:49Z</time>
      </trkpt>
      <trkpt lat="47.90471" lon="6.80745">
        <ele>744.3</ele>
        <time>2022-09-02T06:40:50Z</time>
      </trkpt>
      <trkpt lat="47.9047" lon="6.80746">
        <ele>744.5</ele>
        <time>2022-09-02T06:40:52Z</time>
      </trkpt>
      <trkpt lat="47.90469" lon="6.80747">
        <ele>744.7</ele>
        <time>2022-09-02T06:40:53Z</time>
      </trkpt>
      <trkpt lat="47.90468" lon="6.80747">
        <ele>745</ele>
        <time>2022-09-02T06:40:54Z</time>
      </trkpt>
      <trkpt lat="47.90468" lon="6.80748">
        <ele>744.9</ele>
        <time>2022-09-02T06:40:55Z</time>
      </trkpt>
      <trkpt lat="47.90467" lon="6.80749">
        <ele>745.1</ele>
        <time>2022-09-02T06:40:56Z</time>
      </trkpt>
      <trkpt lat="47.90466" lon="6.8075">
        <ele>745.2</ele>
        <time>2022-09-02T06:40:57Z</time>
      </trkpt>
      <trkpt lat="47.90465" lon="6.80751">
        <ele>745.4</ele>
        <time>2022-09-02T06:40:58Z</time>
      </trkpt>
      <trkpt lat="47.90464" lon="6.80752">
        <ele>745.7</ele>
        <time>2022-09-02T06:41:00Z</time>
      </trkpt>
      <trkpt lat="47.90463" lon="6.80753">
        <ele>745.9</ele>
        <time>2022-09-02T06:41:01Z</time>
      </trkpt>
      <trkpt lat="47.90462" lon="6.80754">
        <ele>746.1</ele>
        <time>2022-09-02T06:41:02Z</time>
      </trkpt>
      <trkpt lat="47.90461" lon="6.80755">
        <ele>746.2</ele>
        <time>2022-09-02T06:41:03Z</time>
      </trkpt>
      <trkpt lat="47.90461" lon="6.80756">
        <ele>746.1</ele>
        <time>2022-09-02T06:41:04Z</time>
      </trkpt>
      <trkpt lat="47.9046" lon="6.80757">
        <ele>746.3</ele>
        <time>2022-09-02T06:41:05Z</time>
      </trkpt>
      <trkpt lat="47.90459" lon="6.80757">
        <ele>746.6</ele>
        <time>2022-09-02T06:41:06Z</time>
      </trkpt>
      <trkpt lat="47.90458" lon="6.80758">
        <ele>746.8</ele>
        <time>2022-09-02T06:41:07Z</time>
      </trkpt>
      <trkpt lat="47.90458" lon="6.80759">
        <ele>746.7</ele>
        <time>2022-09-02T06:41:08Z</time>
      </trkpt>
      <trkpt lat="47.90457" lon="6.8076">
        <ele>746.8</ele>
        <time>2022-09-02T06:41:09Z</time>
      </trkpt>
      <trkpt lat="47.90456" lon="6.80761">
        <ele>747</ele>
        <time>2022-09-02T06:41:10Z</time>
      </trkpt>
      <trkpt lat="47.90456" lon="6.80762">
        <ele>746.9</ele>
        <time>2022-09-02T06:41:11Z</time>
      </trkpt>
      <trkpt lat="47.90454" lon="6.80764">
        <ele>747.2</ele>
        <time>2022-09-02T06:41:48Z</time>
      </trkpt>
      <trkpt lat="47.90454" lon="6.80765">
        <ele>747</ele>
        <time>2022-09-02T06:41:49Z</time>
      </trkpt>
      <trkpt lat="47.90453" lon="6.80766">
        <ele>747.2</ele>
        <time>2022-09-02T06:41:50Z</time>
      </trkpt>
      <trkpt lat="47.90453" lon="6.80767">
        <ele>747</ele>
        <time>2022-09-02T06:41:51Z</time>
      </trkpt>
      <trkpt lat="47.90452" lon="6.80767">
        <ele>747.4</ele>
        <time>2022-09-02T06:41:52Z</time>
      </trkpt>
      <trkpt lat="47.90451" lon="6.80768">
        <ele>747.6</ele>
        <time>2022-09-02T06:41:53Z</time>
      </trkpt>
      <trkpt lat="47.9045" lon="6.80768">
        <ele>747.9</ele>
        <time>2022-09-02T06:41:54Z</time>
      </trkpt>
      <trkpt lat="47.90449" lon="6.80769">
        <ele>748.1</ele>
        <time>2022-09-02T06:41:55Z</time>
      </trkpt>
      <trkpt lat="47.90448" lon="6.80769">
        <ele>748.4</ele>
        <time>2022-09-02T06:41:56Z</time>
      </trkpt>
      <trkpt lat="47.90447" lon="6.8077">
        <ele>748.5</ele>
        <time>2022-09-02T06:41:57Z</time>
      </trkpt>
      <trkpt lat="47.90446" lon="6.80771">
        <ele>748.7</ele>
        <time>2022-09-02T06:41:58Z</time>
      </trkpt>
      <trkpt lat="47.90445" lon="6.80772">
        <ele>748.9</ele>
        <time>2022-09-02T06:41:59Z</time>
      </trkpt>
      <trkpt lat="47.90445" lon="6.80773">
        <ele>748.7</ele>
        <time>2022-09-02T06:42:00Z</time>
      </trkpt>
      <trkpt lat="47.90444" lon="6.80774">
        <ele>748.8</ele>
        <time>2022-09-02T06:42:01Z</time>
      </trkpt>
      <trkpt lat="47.90443" lon="6.80775">
        <ele>748.8</ele>
        <time>2022-09-02T06:42:02Z</time>
      </trkpt>
      <trkpt lat="47.90442" lon="6.80776">
        <ele>748.8</ele>
        <time>2022-09-02T06:42:03Z</time>
      </trkpt>
      <trkpt lat="47.90441" lon="6.80777">
        <ele>748.8</ele>
        <time>2022-09-02T06:42:04Z</time>
      </trkpt>
      <trkpt lat="47.9044" lon="6.80778">
        <ele>748.8</ele>
        <time>2022-09-02T06:42:51Z</time>
      </trkpt>
      <trkpt lat="47.9044" lon="6.80779">
        <ele>748.6</ele>
        <time>2022-09-02T06:42:52Z</time>
      </trkpt>
      <trkpt lat="47.90439" lon="6.80779">
        <ele>748.8</ele>
        <time>2022-09-02T06:42:53Z</time>
      </trkpt>
      <trkpt lat="47.90438" lon="6.8078">
        <ele>748.9</ele>
        <time>2022-09-02T06:42:54Z</time>
      </trkpt>
      <trkpt lat="47.90438" lon="6.80781">
        <ele>748.8</ele>
        <time>2022-09-02T06:42:55Z</time>
      </trkpt>
      <trkpt lat="47.90437" lon="6.80781">
        <ele>749</ele>
        <time>2022-09-02T06:42:56Z</time>
      </trkpt>
      <trkpt lat="47.90436" lon="6.80782">
        <ele>749.1</ele>
        <time>2022-09-02T06:42:57Z</time>
      </trkpt>
      <trkpt lat="47.90435" lon="6.80783">
        <ele>749.1</ele>
        <time>2022-09-02T06:42:58Z</time>
      </trkpt>
      <trkpt lat="47.90434" lon="6.80784">
        <ele>749.2</ele>
        <time>2022-09-02T06:42:59Z</time>
      </trkpt>
      <trkpt lat="47.90433" lon="6.80785">
        <ele>749.3</ele>
        <time>2022-09-02T06:43:00Z</time>
      </trkpt>
      <trkpt lat="47.90432" lon="6.80786">
        <ele>749.5</ele>
        <time>2022-09-02T06:43:01Z</time>
      </trkpt>
      <trkpt lat="47.90431" lon="6.80787">
        <ele>749.6</ele>
        <time>2022-09-02T06:43:02Z</time>
      </trkpt>
      <trkpt lat="47.9043" lon="6.80788">
        <ele>749.7</ele>
        <time>2022-09-02T06:43:03Z</time>
      </trkpt>
      <trkpt lat="47.90429" lon="6.80788">
        <ele>749.9</ele>
        <time>2022-09-02T06:43:04Z</time>
      </trkpt>
      <trkpt lat="47.90429" lon="6.80789">
        <ele>749.8</ele>
        <time>2022-09-02T06:43:05Z</time>
      </trkpt>
      <trkpt lat="47.90428" lon="6.8079">
        <ele>750</ele>
        <time>2022-09-02T06:43:06Z</time>
      </trkpt>
      <trkpt lat="47.90427" lon="6.8079">
        <ele>750.2</ele>
        <time>2022-09-02T06:43:07Z</time>
      </trkpt>
      <trkpt lat="47.90426" lon="6.80791">
        <ele>750.4</ele>
        <time>2022-09-02T06:43:08Z</time>
      </trkpt>
      <trkpt lat="47.90425" lon="6.80792">
        <ele>750.5</ele>
        <time>2022-09-02T06:43:09Z</time>
      </trkpt>
      <trkpt lat="47.90424" lon="6.80792">
        <ele>750.8</ele>
        <time>2022-09-02T06:43:10Z</time>
      </trkpt>
      <trkpt lat="47.90424" lon="6.80793">
        <ele>750.7</ele>
        <time>2022-09-02T06:43:11Z</time>
      </trkpt>
      <trkpt lat="47.90423" lon="6.80794">
        <ele>750.9</ele>
        <time>2022-09-02T06:43:12Z</time>
      </trkpt>
      <trkpt lat="47.90422" lon="6.80795">
        <ele>751.1</ele>
        <time>2022-09-02T06:43:13Z</time>
      </trkpt>
      <trkpt lat="47.90421" lon="6.80796">
        <ele>751.3</ele>
        <time>2022-09-02T06:43:14Z</time>
      </trkpt>
      <trkpt lat="47.90421" lon="6.80797">
        <ele>751.2</ele>
        <time>2022-09-02T06:43:15Z</time>
      </trkpt>
      <trkpt lat="47.9042" lon="6.80798">
        <ele>751.4</ele>
        <time>2022-09-02T06:43:16Z</time>
      </trkpt>
      <trkpt lat="47.90419" lon="6.80799">
        <ele>751.6</ele>
        <time>2022-09-02T06:43:17Z</time>
      </trkpt>
      <trkpt lat="47.90418" lon="6.808">
        <ele>751.8</ele>
        <time>2022-09-02T06:43:18Z</time>
      </trkpt>
      <trkpt lat="47.90417" lon="6.80801">
        <ele>752.1</ele>
        <time>2022-09-02T06:43:20Z</time>
      </trkpt>
      <trkpt lat="47.90416" lon="6.80802">
        <ele>752.2</ele>
        <time>2022-09-02T06:43:21Z</time>
      </trkpt>
      <trkpt lat="47.90415" lon="6.80802">
        <ele>752.4</ele>
        <time>2022-09-02T06:43:22Z</time>
      </trkpt>
      <trkpt lat="47.90415" lon="6.80803">
        <ele>752.3</ele>
        <time>2022-09-02T06:43:23Z</time>
      </trkpt>
      <trkpt lat="47.90414" lon="6.80804">
        <ele>752.4</ele>
        <time>2022-09-02T06:43:24Z</time>
      </trkpt>
      <trkpt lat="47.90413" lon="6.80804">
        <ele>752.5</ele>
        <time>2022-09-02T06:43:25Z</time>
      </trkpt>
      <trkpt lat="47.90412" lon="6.80805">
        <ele>752.5</ele>
        <time>2022-09-02T06:43:26Z</time>
      </trkpt>
      <trkpt lat="47.90411" lon="6.80805">
        <ele>752.7</ele>
        <time>2022-09-02T06:43:27Z</time>
      </trkpt>
      <trkpt lat="47.9041" lon="6.80806">
        <ele>752.6</ele>
        <time>2022-09-02T06:43:28Z</time>
      </trkpt>
      <trkpt lat="47.90409" lon="6.80806">
        <ele>752.7</ele>
        <time>2022-09-02T06:43:29Z</time>
      </trkpt>
      <trkpt lat="47.90408" lon="6.80807">
        <ele>752.6</ele>
        <time>2022-09-02T06:43:30Z</time>
      </trkpt>
      <trkpt lat="47.90407" lon="6.80808">
        <ele>752.6</ele>
        <time>2022-09-02T06:43:31Z</time>
      </trkpt>
      <trkpt lat="47.90406" lon="6.80808">
        <ele>752.7</ele>
        <time>2022-09-02T06:43:32Z</time>
      </trkpt>
      <trkpt lat="47.90405" lon="6.80809">
        <ele>752.6</ele>
        <time>2022-09-02T06:43:33Z</time>
      </trkpt>
      <trkpt lat="47.90404" lon="6.8081">
        <ele>752.5</ele>
        <time>2022-09-02T06:43:34Z</time>
      </trkpt>
      <trkpt lat="47.90403" lon="6.80811">
        <ele>752.5</ele>
        <time>2022-09-02T06:43:35Z</time>
      </trkpt>
      <trkpt lat="47.90401" lon="6.80812">
        <ele>752.6</ele>
        <time>2022-09-02T06:43:36Z</time>
      </trkpt>
      <trkpt lat="47.904" lon="6.80812">
        <ele>752.7</ele>
        <time>2022-09-02T06:43:37Z</time>
      </trkpt>
      <trkpt lat="47.90399" lon="6.80813">
        <ele>752.7</ele>
        <time>2022-09-02T06:43:38Z</time>
      </trkpt>
      <trkpt lat="47.90398" lon="6.80814">
        <ele>752.7</ele>
        <time>2022-09-02T06:43:39Z</time>
      </trkpt>
      <trkpt lat="47.90397" lon="6.80814">
        <ele>752.9</ele>
        <time>2022-09-02T06:43:40Z</time>
      </trkpt>
      <trkpt lat="47.90396" lon="6.80815">
        <ele>752.9</ele>
        <time>2022-09-02T06:43:41Z</time>
      </trkpt>
      <trkpt lat="47.90395" lon="6.80816">
        <ele>752.9</ele>
        <time>2022-09-02T06:43:42Z</time>
      </trkpt>
      <trkpt lat="47.90394" lon="6.80817">
        <ele>752.9</ele>
        <time>2022-09-02T06:43:43Z</time>
      </trkpt>
      <trkpt lat="47.90393" lon="6.80818">
        <ele>752.9</ele>
        <time>2022-09-02T06:43:44Z</time>
      </trkpt>
      <trkpt lat="47.90392" lon="6.80819">
        <ele>753</ele>
        <time>2022-09-02T06:43:45Z</time>
      </trkpt>
      <trkpt lat="47.90391" lon="6.8082">
        <ele>753.1</ele>
        <time>2022-09-02T06:43:46Z</time>
      </trkpt>
      <trkpt lat="47.9039" lon="6.80821">
        <ele>753.1</ele>
        <time>2022-09-02T06:43:47Z</time>
      </trkpt>
      <trkpt lat="47.90389" lon="6.80822">
        <ele>753.2</ele>
        <time>2022-09-02T06:43:48Z</time>
      </trkpt>
      <trkpt lat="47.90388" lon="6.80824">
        <ele>753.3</ele>
        <time>2022-09-02T06:43:49Z</time>
      </trkpt>
      <trkpt lat="47.90387" lon="6.80825">
        <ele>753.4</ele>
        <time>2022-09-02T06:43:50Z</time>
      </trkpt>
      <trkpt lat="47.90386" lon="6.80826">
        <ele>753.6</ele>
        <time>2022-09-02T06:43:51Z</time>
      </trkpt>
      <trkpt lat="47.90385" lon="6.80827">
        <ele>753.8</ele>
        <time>2022-09-02T06:43:52Z</time>
      </trkpt>
      <trkpt lat="47.90384" lon="6.80828">
        <ele>754</ele>
        <time>2022-09-02T06:43:53Z</time>
      </trkpt>
      <trkpt lat="47.90384" lon="6.80829">
        <ele>753.9</ele>
        <time>2022-09-02T06:43:54Z</time>
      </trkpt>
      <trkpt lat="47.90383" lon="6.80829">
        <ele>754.2</ele>
        <time>2022-09-02T06:43:55Z</time>
      </trkpt>
      <trkpt lat="47.90382" lon="6.8083">
        <ele>754.3</ele>
        <time>2022-09-02T06:43:56Z</time>
      </trkpt>
      <trkpt lat="47.90382" lon="6.80831">
        <ele>754.2</ele>
        <time>2022-09-02T06:43:57Z</time>
      </trkpt>
      <trkpt lat="47.90381" lon="6.80832">
        <ele>754.4</ele>
        <time>2022-09-02T06:43:58Z</time>
      </trkpt>
      <trkpt lat="47.9038" lon="6.80833">
        <ele>754.6</ele>
        <time>2022-09-02T06:43:59Z</time>
      </trkpt>
      <trkpt lat="47.90379" lon="6.80834">
        <ele>754.8</ele>
        <time>2022-09-02T06:44:00Z</time>
      </trkpt>
      <trkpt lat="47.90379" lon="6.80835">
        <ele>754.7</ele>
        <time>2022-09-02T06:44:01Z</time>
      </trkpt>
      <trkpt lat="47.90378" lon="6.80836">
        <ele>754.9</ele>
        <time>2022-09-02T06:44:02Z</time>
      </trkpt>
      <trkpt lat="47.90378" lon="6.80838">
        <ele>754.7</ele>
        <time>2022-09-02T06:44:03Z</time>
      </trkpt>
      <trkpt lat="47.90378" lon="6.80839">
        <ele>754.6</ele>
        <time>2022-09-02T06:44:04Z</time>
      </trkpt>
      <trkpt lat="47.90378" lon="6.8084">
        <ele>754.5</ele>
        <time>2022-09-02T06:44:05Z</time>
      </trkpt>
      <trkpt lat="47.90377" lon="6.80841">
        <ele>754.7</ele>
        <time>2022-09-02T06:44:06Z</time>
      </trkpt>
      <trkpt lat="47.90377" lon="6.80843">
        <ele>754.5</ele>
        <time>2022-09-02T06:44:07Z</time>
      </trkpt>
      <trkpt lat="47.90377" lon="6.80844">
        <ele>754.4</ele>
        <time>2022-09-02T06:44:08Z</time>
      </trkpt>
      <trkpt lat="47.90376" lon="6.80845">
        <ele>754.6</ele>
        <time>2022-09-02T06:44:09Z</time>
      </trkpt>
      <trkpt lat="47.90376" lon="6.80846">
        <ele>754.6</ele>
        <time>2022-09-02T06:44:10Z</time>
      </trkpt>
      <trkpt lat="47.90375" lon="6.80847">
        <ele>754.8</ele>
        <time>2022-09-02T06:44:11Z</time>
      </trkpt>
      <trkpt lat="47.90375" lon="6.80848">
        <ele>754.7</ele>
        <time>2022-09-02T06:44:12Z</time>
      </trkpt>
      <trkpt lat="47.90374" lon="6.8085">
        <ele>754.8</ele>
        <time>2022-09-02T06:44:13Z</time>
      </trkpt>
      <trkpt lat="47.90374" lon="6.80851">
        <ele>754.7</ele>
        <time>2022-09-02T06:44:14Z</time>
      </trkpt>
      <trkpt lat="47.90374" lon="6.80852">
        <ele>754.6</ele>
        <time>2022-09-02T06:44:15Z</time>
      </trkpt>
      <trkpt lat="47.90373" lon="6.80854">
        <ele>754.8</ele>
        <time>2022-09-02T06:44:16Z</time>
      </trkpt>
      <trkpt lat="47.90373" lon="6.80855">
        <ele>754.7</ele>
        <time>2022-09-02T06:44:17Z</time>
      </trkpt>
      <trkpt lat="47.90372" lon="6.80856">
        <ele>754.9</ele>
        <time>2022-09-02T06:44:18Z</time>
      </trkpt>
      <trkpt lat="47.90371" lon="6.80858">
        <ele>755.1</ele>
        <time>2022-09-02T06:44:19Z</time>
      </trkpt>
      <trkpt lat="47.90371" lon="6.80859">
        <ele>755</ele>
        <time>2022-09-02T06:44:20Z</time>
      </trkpt>
      <trkpt lat="47.9037" lon="6.8086">
        <ele>755.2</ele>
        <time>2022-09-02T06:44:21Z</time>
      </trkpt>
      <trkpt lat="47.9037" lon="6.80862">
        <ele>755.1</ele>
        <time>2022-09-02T06:44:22Z</time>
      </trkpt>
      <trkpt lat="47.9037" lon="6.80863">
        <ele>755.1</ele>
        <time>2022-09-02T06:44:23Z</time>
      </trkpt>
      <trkpt lat="47.90369" lon="6.80865">
        <ele>755.4</ele>
        <time>2022-09-02T06:44:24Z</time>
      </trkpt>
      <trkpt lat="47.90369" lon="6.80866">
        <ele>755.4</ele>
        <time>2022-09-02T06:44:25Z</time>
      </trkpt>
      <trkpt lat="47.90368" lon="6.80867">
        <ele>755.8</ele>
        <time>2022-09-02T06:44:26Z</time>
      </trkpt>
      <trkpt lat="47.90368" lon="6.80869">
        <ele>755.8</ele>
        <time>2022-09-02T06:44:27Z</time>
      </trkpt>
      <trkpt lat="47.90367" lon="6.8087">
        <ele>756.1</ele>
        <time>2022-09-02T06:44:28Z</time>
      </trkpt>
      <trkpt lat="47.90367" lon="6.80871">
        <ele>756.1</ele>
        <time>2022-09-02T06:44:29Z</time>
      </trkpt>
      <trkpt lat="47.90366" lon="6.80872">
        <ele>756.4</ele>
        <time>2022-09-02T06:44:30Z</time>
      </trkpt>
      <trkpt lat="47.90366" lon="6.80874">
        <ele>756.4</ele>
        <time>2022-09-02T06:44:31Z</time>
      </trkpt>
      <trkpt lat="47.90365" lon="6.80875">
        <ele>756.7</ele>
        <time>2022-09-02T06:44:32Z</time>
      </trkpt>
      <trkpt lat="47.90365" lon="6.80876">
        <ele>756.7</ele>
        <time>2022-09-02T06:44:33Z</time>
      </trkpt>
      <trkpt lat="47.90365" lon="6.80878">
        <ele>756.7</ele>
        <time>2022-09-02T06:44:34Z</time>
      </trkpt>
      <trkpt lat="47.90364" lon="6.80879">
        <ele>757.1</ele>
        <time>2022-09-02T06:44:35Z</time>
      </trkpt>
      <trkpt lat="47.90364" lon="6.8088">
        <ele>757.1</ele>
        <time>2022-09-02T06:44:36Z</time>
      </trkpt>
      <trkpt lat="47.90364" lon="6.80882">
        <ele>757.1</ele>
        <time>2022-09-02T06:44:37Z</time>
      </trkpt>
      <trkpt lat="47.90364" lon="6.80883">
        <ele>757.1</ele>
        <time>2022-09-02T06:44:38Z</time>
      </trkpt>
      <trkpt lat="47.90364" lon="6.80884">
        <ele>757.1</ele>
        <time>2022-09-02T06:44:39Z</time>
      </trkpt>
      <trkpt lat="47.90364" lon="6.80886">
        <ele>757.1</ele>
        <time>2022-09-02T06:44:40Z</time>
      </trkpt>
      <trkpt lat="47.90364" lon="6.80887">
        <ele>757.1</ele>
        <time>2022-09-02T06:44:41Z</time>
      </trkpt>
      <trkpt lat="47.90364" lon="6.80889">
        <ele>757.1</ele>
        <time>2022-09-02T06:44:42Z</time>
      </trkpt>
      <trkpt lat="47.90364" lon="6.8089">
        <ele>757</ele>
        <time>2022-09-02T06:44:43Z</time>
      </trkpt>
      <trkpt lat="47.90364" lon="6.80891">
        <ele>757</ele>
        <time>2022-09-02T06:44:44Z</time>
      </trkpt>
      <trkpt lat="47.90363" lon="6.80893">
        <ele>757.2</ele>
        <time>2022-09-02T06:44:45Z</time>
      </trkpt>
      <trkpt lat="47.90363" lon="6.80894">
        <ele>757.2</ele>
        <time>2022-09-02T06:44:46Z</time>
      </trkpt>
      <trkpt lat="47.90363" lon="6.80895">
        <ele>757.2</ele>
        <time>2022-09-02T06:44:47Z</time>
      </trkpt>
      <trkpt lat="47.90362" lon="6.80896">
        <ele>757.4</ele>
        <time>2022-09-02T06:44:48Z</time>
      </trkpt>
      <trkpt lat="47.90362" lon="6.80897">
        <ele>757.4</ele>
        <time>2022-09-02T06:44:49Z</time>
      </trkpt>
      <trkpt lat="47.90361" lon="6.80899">
        <ele>757.7</ele>
        <time>2022-09-02T06:44:50Z</time>
      </trkpt>
      <trkpt lat="47.90361" lon="6.809">
        <ele>757.6</ele>
        <time>2022-09-02T06:44:51Z</time>
      </trkpt>
      <trkpt lat="47.9036" lon="6.80901">
        <ele>757.9</ele>
        <time>2022-09-02T06:44:52Z</time>
      </trkpt>
      <trkpt lat="47.9036" lon="6.80902">
        <ele>757.9</ele>
        <time>2022-09-02T06:44:53Z</time>
      </trkpt>
      <trkpt lat="47.90359" lon="6.80903">
        <ele>758.2</ele>
        <time>2022-09-02T06:44:54Z</time>
      </trkpt>
      <trkpt lat="47.90359" lon="6.80904">
        <ele>758.2</ele>
        <time>2022-09-02T06:44:55Z</time>
      </trkpt>
      <trkpt lat="47.90358" lon="6.80906">
        <ele>758.4</ele>
        <time>2022-09-02T06:44:56Z</time>
      </trkpt>
      <trkpt lat="47.90357" lon="6.80907">
        <ele>758.7</ele>
        <time>2022-09-02T06:44:57Z</time>
      </trkpt>
      <trkpt lat="47.90357" lon="6.80908">
        <ele>758.7</ele>
        <time>2022-09-02T06:44:58Z</time>
      </trkpt>
      <trkpt lat="47.90356" lon="6.80909">
        <ele>759</ele>
        <time>2022-09-02T06:44:59Z</time>
      </trkpt>
      <trkpt lat="47.90356" lon="6.80911">
        <ele>758.9</ele>
        <time>2022-09-02T06:45:00Z</time>
      </trkpt>
      <trkpt lat="47.90355" lon="6.80912">
        <ele>759.2</ele>
        <time>2022-09-02T06:45:01Z</time>
      </trkpt>
      <trkpt lat="47.90354" lon="6.80913">
        <ele>759.5</ele>
        <time>2022-09-02T06:45:02Z</time>
      </trkpt>
      <trkpt lat="47.90354" lon="6.80914">
        <ele>759.4</ele>
        <time>2022-09-02T06:45:03Z</time>
      </trkpt>
      <trkpt lat="47.90353" lon="6.80915">
        <ele>759.7</ele>
        <time>2022-09-02T06:45:04Z</time>
      </trkpt>
      <trkpt lat="47.90353" lon="6.80916">
        <ele>759.7</ele>
        <time>2022-09-02T06:45:05Z</time>
      </trkpt>
      <trkpt lat="47.90352" lon="6.80917">
        <ele>759.9</ele>
        <time>2022-09-02T06:45:06Z</time>
      </trkpt>
      <trkpt lat="47.90352" lon="6.80918">
        <ele>759.9</ele>
        <time>2022-09-02T06:45:07Z</time>
      </trkpt>
      <trkpt lat="47.90351" lon="6.80919">
        <ele>760.2</ele>
        <time>2022-09-02T06:45:08Z</time>
      </trkpt>
      <trkpt lat="47.90351" lon="6.8092">
        <ele>760.1</ele>
        <time>2022-09-02T06:45:09Z</time>
      </trkpt>
      <trkpt lat="47.9035" lon="6.80922">
        <ele>760.3</ele>
        <time>2022-09-02T06:45:10Z</time>
      </trkpt>
      <trkpt lat="47.90349" lon="6.80923">
        <ele>760.6</ele>
        <time>2022-09-02T06:45:11Z</time>
      </trkpt>
      <trkpt lat="47.90349" lon="6.80924">
        <ele>760.5</ele>
        <time>2022-09-02T06:45:12Z</time>
      </trkpt>
      <trkpt lat="47.90348" lon="6.80925">
        <ele>760.8</ele>
        <time>2022-09-02T06:45:13Z</time>
      </trkpt>
      <trkpt lat="47.90347" lon="6.80926">
        <ele>761.1</ele>
        <time>2022-09-02T06:45:14Z</time>
      </trkpt>
      <trkpt lat="47.90346" lon="6.80927">
        <ele>761.3</ele>
        <time>2022-09-02T06:45:15Z</time>
      </trkpt>
      <trkpt lat="47.90346" lon="6.80928">
        <ele>761.3</ele>
        <time>2022-09-02T06:45:16Z</time>
      </trkpt>
      <trkpt lat="47.90345" lon="6.80929">
        <ele>761.5</ele>
        <time>2022-09-02T06:45:17Z</time>
      </trkpt>
      <trkpt lat="47.90345" lon="6.80931">
        <ele>761.4</ele>
        <time>2022-09-02T06:45:18Z</time>
      </trkpt>
      <trkpt lat="47.90344" lon="6.80932">
        <ele>761.7</ele>
        <time>2022-09-02T06:45:19Z</time>
      </trkpt>
      <trkpt lat="47.90344" lon="6.80933">
        <ele>761.6</ele>
        <time>2022-09-02T06:45:20Z</time>
      </trkpt>
      <trkpt lat="47.90344" lon="6.80935">
        <ele>761.5</ele>
        <time>2022-09-02T06:45:21Z</time>
      </trkpt>
      <trkpt lat="47.90343" lon="6.80936">
        <ele>761.7</ele>
        <time>2022-09-02T06:45:22Z</time>
      </trkpt>
      <trkpt lat="47.90343" lon="6.80937">
        <ele>761.7</ele>
        <time>2022-09-02T06:45:23Z</time>
      </trkpt>
      <trkpt lat="47.90342" lon="6.80938">
        <ele>761.9</ele>
        <time>2022-09-02T06:45:24Z</time>
      </trkpt>
      <trkpt lat="47.90342" lon="6.8094">
        <ele>761.8</ele>
        <time>2022-09-02T06:45:25Z</time>
      </trkpt>
      <trkpt lat="47.90341" lon="6.80941">
        <ele>762</ele>
        <time>2022-09-02T06:45:26Z</time>
      </trkpt>
      <trkpt lat="47.90341" lon="6.80942">
        <ele>761.9</ele>
        <time>2022-09-02T06:45:27Z</time>
      </trkpt>
      <trkpt lat="47.9034" lon="6.80943">
        <ele>762.2</ele>
        <time>2022-09-02T06:45:28Z</time>
      </trkpt>
      <trkpt lat="47.9034" lon="6.80945">
        <ele>762</ele>
        <time>2022-09-02T06:45:29Z</time>
      </trkpt>
      <trkpt lat="47.9034" lon="6.80946">
        <ele>762</ele>
        <time>2022-09-02T06:45:30Z</time>
      </trkpt>
      <trkpt lat="47.9034" lon="6.80947">
        <ele>761.9</ele>
        <time>2022-09-02T06:45:31Z</time>
      </trkpt>
      <trkpt lat="47.90339" lon="6.80948">
        <ele>762.1</ele>
        <time>2022-09-02T06:45:32Z</time>
      </trkpt>
      <trkpt lat="47.90339" lon="6.8095">
        <ele>762</ele>
        <time>2022-09-02T06:45:33Z</time>
      </trkpt>
      <trkpt lat="47.90339" lon="6.80951">
        <ele>761.9</ele>
        <time>2022-09-02T06:45:34Z</time>
      </trkpt>
      <trkpt lat="47.90338" lon="6.80952">
        <ele>762.2</ele>
        <time>2022-09-02T06:45:35Z</time>
      </trkpt>
      <trkpt lat="47.90338" lon="6.80954">
        <ele>762</ele>
        <time>2022-09-02T06:45:36Z</time>
      </trkpt>
      <trkpt lat="47.90338" lon="6.80955">
        <ele>762</ele>
        <time>2022-09-02T06:45:37Z</time>
      </trkpt>
      <trkpt lat="47.90337" lon="6.80956">
        <ele>762.2</ele>
        <time>2022-09-02T06:45:38Z</time>
      </trkpt>
      <trkpt lat="47.90337" lon="6.80958">
        <ele>762</ele>
        <time>2022-09-02T06:45:39Z</time>
      </trkpt>
      <trkpt lat="47.90336" lon="6.80959">
        <ele>762.2</ele>
        <time>2022-09-02T06:45:40Z</time>
      </trkpt>
      <trkpt lat="47.90336" lon="6.8096">
        <ele>762.2</ele>
        <time>2022-09-02T06:45:41Z</time>
      </trkpt>
      <trkpt lat="47.90335" lon="6.80962">
        <ele>762.3</ele>
        <time>2022-09-02T06:45:42Z</time>
      </trkpt>
      <trkpt lat="47.90335" lon="6.80963">
        <ele>762.2</ele>
        <time>2022-09-02T06:45:43Z</time>
      </trkpt>
      <trkpt lat="47.90334" lon="6.80964">
        <ele>762.4</ele>
        <time>2022-09-02T06:45:44Z</time>
      </trkpt>
      <trkpt lat="47.90333" lon="6.80966">
        <ele>762.5</ele>
        <time>2022-09-02T06:45:45Z</time>
      </trkpt>
      <trkpt lat="47.90333" lon="6.80967">
        <ele>762.5</ele>
        <time>2022-09-02T06:45:46Z</time>
      </trkpt>
      <trkpt lat="47.90332" lon="6.80968">
        <ele>762.7</ele>
        <time>2022-09-02T06:45:47Z</time>
      </trkpt>
      <trkpt lat="47.90331" lon="6.8097">
        <ele>762.8</ele>
        <time>2022-09-02T06:45:48Z</time>
      </trkpt>
      <trkpt lat="47.90331" lon="6.80971">
        <ele>762.7</ele>
        <time>2022-09-02T06:45:49Z</time>
      </trkpt>
      <trkpt lat="47.9033" lon="6.80972">
        <ele>762.9</ele>
        <time>2022-09-02T06:45:50Z</time>
      </trkpt>
      <trkpt lat="47.90329" lon="6.80973">
        <ele>763.1</ele>
        <time>2022-09-02T06:45:51Z</time>
      </trkpt>
      <trkpt lat="47.90329" lon="6.80975">
        <ele>763</ele>
        <time>2022-09-02T06:45:52Z</time>
      </trkpt>
      <trkpt lat="47.90328" lon="6.80976">
        <ele>763.2</ele>
        <time>2022-09-02T06:45:53Z</time>
      </trkpt>
      <trkpt lat="47.90327" lon="6.80977">
        <ele>763.3</ele>
        <time>2022-09-02T06:45:54Z</time>
      </trkpt>
      <trkpt lat="47.90326" lon="6.80978">
        <ele>763.5</ele>
        <time>2022-09-02T06:45:55Z</time>
      </trkpt>
      <trkpt lat="47.90326" lon="6.80979">
        <ele>763.5</ele>
        <time>2022-09-02T06:45:56Z</time>
      </trkpt>
      <trkpt lat="47.90325" lon="6.80981">
        <ele>763.6</ele>
        <time>2022-09-02T06:45:57Z</time>
      </trkpt>
      <trkpt lat="47.90324" lon="6.80982">
        <ele>763.8</ele>
        <time>2022-09-02T06:45:58Z</time>
      </trkpt>
      <trkpt lat="47.90324" lon="6.80983">
        <ele>763.7</ele>
        <time>2022-09-02T06:45:59Z</time>
      </trkpt>
      <trkpt lat="47.90323" lon="6.80984">
        <ele>763.9</ele>
        <time>2022-09-02T06:46:00Z</time>
      </trkpt>
      <trkpt lat="47.90322" lon="6.80986">
        <ele>764</ele>
        <time>2022-09-02T06:46:01Z</time>
      </trkpt>
      <trkpt lat="47.90322" lon="6.80987">
        <ele>763.9</ele>
        <time>2022-09-02T06:46:02Z</time>
      </trkpt>
      <trkpt lat="47.90321" lon="6.80988">
        <ele>764</ele>
        <time>2022-09-02T06:46:03Z</time>
      </trkpt>
      <trkpt lat="47.90321" lon="6.80989">
        <ele>764</ele>
        <time>2022-09-02T06:46:04Z</time>
      </trkpt>
      <trkpt lat="47.9032" lon="6.80991">
        <ele>764</ele>
        <time>2022-09-02T06:46:05Z</time>
      </trkpt>
      <trkpt lat="47.9032" lon="6.80992">
        <ele>764</ele>
        <time>2022-09-02T06:46:06Z</time>
      </trkpt>
      <trkpt lat="47.90319" lon="6.80994">
        <ele>764</ele>
        <time>2022-09-02T06:46:07Z</time>
      </trkpt>
      <trkpt lat="47.90319" lon="6.80995">
        <ele>763.9</ele>
        <time>2022-09-02T06:46:08Z</time>
      </trkpt>
      <trkpt lat="47.90318" lon="6.80996">
        <ele>764.1</ele>
        <time>2022-09-02T06:46:09Z</time>
      </trkpt>
      <trkpt lat="47.90318" lon="6.80998">
        <ele>763.9</ele>
        <time>2022-09-02T06:46:10Z</time>
      </trkpt>
      <trkpt lat="47.90318" lon="6.80999">
        <ele>763.8</ele>
        <time>2022-09-02T06:46:11Z</time>
      </trkpt>
      <trkpt lat="47.90317" lon="6.81001">
        <ele>763.9</ele>
        <time>2022-09-02T06:46:12Z</time>
      </trkpt>
      <trkpt lat="47.90317" lon="6.81002">
        <ele>763.8</ele>
        <time>2022-09-02T06:46:13Z</time>
      </trkpt>
      <trkpt lat="47.90316" lon="6.81003">
        <ele>763.9</ele>
        <time>2022-09-02T06:46:14Z</time>
      </trkpt>
      <trkpt lat="47.90316" lon="6.81005">
        <ele>763.7</ele>
        <time>2022-09-02T06:46:15Z</time>
      </trkpt>
      <trkpt lat="47.90315" lon="6.81006">
        <ele>763.8</ele>
        <time>2022-09-02T06:46:16Z</time>
      </trkpt>
      <trkpt lat="47.90315" lon="6.81008">
        <ele>763.6</ele>
        <time>2022-09-02T06:46:17Z</time>
      </trkpt>
      <trkpt lat="47.90314" lon="6.81009">
        <ele>763.7</ele>
        <time>2022-09-02T06:46:18Z</time>
      </trkpt>
      <trkpt lat="47.90314" lon="6.81011">
        <ele>763.6</ele>
        <time>2022-09-02T06:46:19Z</time>
      </trkpt>
      <trkpt lat="47.90313" lon="6.81012">
        <ele>763.7</ele>
        <time>2022-09-02T06:46:20Z</time>
      </trkpt>
      <trkpt lat="47.90313" lon="6.81013">
        <ele>763.6</ele>
        <time>2022-09-02T06:46:21Z</time>
      </trkpt>
      <trkpt lat="47.90313" lon="6.81015">
        <ele>763.4</ele>
        <time>2022-09-02T06:46:22Z</time>
      </trkpt>
      <trkpt lat="47.90312" lon="6.81016">
        <ele>763.6</ele>
        <time>2022-09-02T06:46:23Z</time>
      </trkpt>
      <trkpt lat="47.90312" lon="6.81017">
        <ele>763.5</ele>
        <time>2022-09-02T06:46:24Z</time>
      </trkpt>
      <trkpt lat="47.90312" lon="6.81019">
        <ele>763.3</ele>
        <time>2022-09-02T06:46:25Z</time>
      </trkpt>
      <trkpt lat="47.90312" lon="6.81021">
        <ele>763.2</ele>
        <time>2022-09-02T06:46:26Z</time>
      </trkpt>
      <trkpt lat="47.90312" lon="6.81022">
        <ele>763.1</ele>
        <time>2022-09-02T06:46:27Z</time>
      </trkpt>
      <trkpt lat="47.90312" lon="6.81024">
        <ele>762.9</ele>
        <time>2022-09-02T06:46:28Z</time>
      </trkpt>
      <trkpt lat="47.90312" lon="6.81026">
        <ele>762.8</ele>
        <time>2022-09-02T06:46:29Z</time>
      </trkpt>
      <trkpt lat="47.90311" lon="6.81027">
        <ele>762.9</ele>
        <time>2022-09-02T06:46:30Z</time>
      </trkpt>
      <trkpt lat="47.90311" lon="6.81029">
        <ele>762.9</ele>
        <time>2022-09-02T06:46:31Z</time>
      </trkpt>
      <trkpt lat="47.90311" lon="6.8103">
        <ele>762.9</ele>
        <time>2022-09-02T06:46:32Z</time>
      </trkpt>
      <trkpt lat="47.90311" lon="6.81032">
        <ele>763</ele>
        <time>2022-09-02T06:46:33Z</time>
      </trkpt>
      <trkpt lat="47.90311" lon="6.81034">
        <ele>763.1</ele>
        <time>2022-09-02T06:46:34Z</time>
      </trkpt>
      <trkpt lat="47.90311" lon="6.81035">
        <ele>763.2</ele>
        <time>2022-09-02T06:46:35Z</time>
      </trkpt>
      <trkpt lat="47.90311" lon="6.81037">
        <ele>763.3</ele>
        <time>2022-09-02T06:46:36Z</time>
      </trkpt>
      <trkpt lat="47.90311" lon="6.81038">
        <ele>763.3</ele>
        <time>2022-09-02T06:46:37Z</time>
      </trkpt>
      <trkpt lat="47.90311" lon="6.8104">
        <ele>763.4</ele>
        <time>2022-09-02T06:46:38Z</time>
      </trkpt>
      <trkpt lat="47.90312" lon="6.81041">
        <ele>763.3</ele>
        <time>2022-09-02T06:46:39Z</time>
      </trkpt>
      <trkpt lat="47.90312" lon="6.81043">
        <ele>763.4</ele>
        <time>2022-09-02T06:46:40Z</time>
      </trkpt>
      <trkpt lat="47.90312" lon="6.81044">
        <ele>763.5</ele>
        <time>2022-09-02T06:46:41Z</time>
      </trkpt>
      <trkpt lat="47.90313" lon="6.81046">
        <ele>763.4</ele>
        <time>2022-09-02T06:46:42Z</time>
      </trkpt>
      <trkpt lat="47.90313" lon="6.81047">
        <ele>763.5</ele>
        <time>2022-09-02T06:46:43Z</time>
      </trkpt>
      <trkpt lat="47.90313" lon="6.81049">
        <ele>763.6</ele>
        <time>2022-09-02T06:46:44Z</time>
      </trkpt>
      <trkpt lat="47.90314" lon="6.8105">
        <ele>763.5</ele>
        <time>2022-09-02T06:46:45Z</time>
      </trkpt>
      <trkpt lat="47.90314" lon="6.81052">
        <ele>763.6</ele>
        <time>2022-09-02T06:46:46Z</time>
      </trkpt>
      <trkpt lat="47.90315" lon="6.81053">
        <ele>763.5</ele>
        <time>2022-09-02T06:46:47Z</time>
      </trkpt>
      <trkpt lat="47.90315" lon="6.81054">
        <ele>763.5</ele>
        <time>2022-09-02T06:46:48Z</time>
      </trkpt>
      <trkpt lat="47.90316" lon="6.81055">
        <ele>763.5</ele>
        <time>2022-09-02T06:46:49Z</time>
      </trkpt>
      <trkpt lat="47.90317" lon="6.81057">
        <ele>763.5</ele>
        <time>2022-09-02T06:46:50Z</time>
      </trkpt>
      <trkpt lat="47.90317" lon="6.81058">
        <ele>763.7</ele>
        <time>2022-09-02T06:46:51Z</time>
      </trkpt>
      <trkpt lat="47.90318" lon="6.81059">
        <ele>763.6</ele>
        <time>2022-09-02T06:46:52Z</time>
      </trkpt>
      <trkpt lat="47.90319" lon="6.8106">
        <ele>763.6</ele>
        <time>2022-09-02T06:46:53Z</time>
      </trkpt>
      <trkpt lat="47.9032" lon="6.81061">
        <ele>763.6</ele>
        <time>2022-09-02T06:46:54Z</time>
      </trkpt>
      <trkpt lat="47.90321" lon="6.81063">
        <ele>763.7</ele>
        <time>2022-09-02T06:46:55Z</time>
      </trkpt>
      <trkpt lat="47.90321" lon="6.81064">
        <ele>763.8</ele>
        <time>2022-09-02T06:46:56Z</time>
      </trkpt>
      <trkpt lat="47.90322" lon="6.81065">
        <ele>763.8</ele>
        <time>2022-09-02T06:46:57Z</time>
      </trkpt>
      <trkpt lat="47.90322" lon="6.81067">
        <ele>764</ele>
        <time>2022-09-02T06:46:58Z</time>
      </trkpt>
      <trkpt lat="47.90323" lon="6.81068">
        <ele>764</ele>
        <time>2022-09-02T06:46:59Z</time>
      </trkpt>
      <trkpt lat="47.90323" lon="6.8107">
        <ele>764.2</ele>
        <time>2022-09-02T06:47:00Z</time>
      </trkpt>
      <trkpt lat="47.90324" lon="6.81071">
        <ele>764.2</ele>
        <time>2022-09-02T06:47:01Z</time>
      </trkpt>
      <trkpt lat="47.90325" lon="6.81072">
        <ele>764.2</ele>
        <time>2022-09-02T06:47:02Z</time>
      </trkpt>
      <trkpt lat="47.90325" lon="6.81074">
        <ele>764.4</ele>
        <time>2022-09-02T06:47:03Z</time>
      </trkpt>
      <trkpt lat="47.90326" lon="6.81075">
        <ele>764.3</ele>
        <time>2022-09-02T06:47:04Z</time>
      </trkpt>
      <trkpt lat="47.90326" lon="6.81076">
        <ele>764.5</ele>
        <time>2022-09-02T06:47:05Z</time>
      </trkpt>
      <trkpt lat="47.90327" lon="6.81077">
        <ele>764.4</ele>
        <time>2022-09-02T06:47:06Z</time>
      </trkpt>
      <trkpt lat="47.90328" lon="6.81078">
        <ele>764.3</ele>
        <time>2022-09-02T06:47:07Z</time>
      </trkpt>
      <trkpt lat="47.90328" lon="6.8108">
        <ele>764.6</ele>
        <time>2022-09-02T06:47:08Z</time>
      </trkpt>
      <trkpt lat="47.90329" lon="6.81081">
        <ele>764.5</ele>
        <time>2022-09-02T06:47:09Z</time>
      </trkpt>
      <trkpt lat="47.90329" lon="6.81082">
        <ele>764.6</ele>
        <time>2022-09-02T06:47:10Z</time>
      </trkpt>
      <trkpt lat="47.9033" lon="6.81084">
        <ele>764.6</ele>
        <time>2022-09-02T06:47:11Z</time>
      </trkpt>
      <trkpt lat="47.9033" lon="6.81085">
        <ele>764.7</ele>
        <time>2022-09-02T06:47:12Z</time>
      </trkpt>
      <trkpt lat="47.90331" lon="6.81087">
        <ele>764.7</ele>
        <time>2022-09-02T06:47:13Z</time>
      </trkpt>
      <trkpt lat="47.90331" lon="6.81088">
        <ele>764.7</ele>
        <time>2022-09-02T06:47:14Z</time>
      </trkpt>
      <trkpt lat="47.90332" lon="6.81089">
        <ele>764.6</ele>
        <time>2022-09-02T06:47:15Z</time>
      </trkpt>
      <trkpt lat="47.90333" lon="6.81091">
        <ele>764.6</ele>
        <time>2022-09-02T06:47:16Z</time>
      </trkpt>
      <trkpt lat="47.90333" lon="6.81092">
        <ele>764.7</ele>
        <time>2022-09-02T06:47:17Z</time>
      </trkpt>
      <trkpt lat="47.90334" lon="6.81094">
        <ele>764.7</ele>
        <time>2022-09-02T06:47:18Z</time>
      </trkpt>
      <trkpt lat="47.90335" lon="6.81095">
        <ele>764.8</ele>
        <time>2022-09-02T06:47:19Z</time>
      </trkpt>
      <trkpt lat="47.90335" lon="6.81096">
        <ele>764.9</ele>
        <time>2022-09-02T06:47:20Z</time>
      </trkpt>
      <trkpt lat="47.90336" lon="6.81098">
        <ele>765</ele>
        <time>2022-09-02T06:47:21Z</time>
      </trkpt>
      <trkpt lat="47.90336" lon="6.81099">
        <ele>765</ele>
        <time>2022-09-02T06:47:22Z</time>
      </trkpt>
      <trkpt lat="47.90337" lon="6.811">
        <ele>765.1</ele>
        <time>2022-09-02T06:47:23Z</time>
      </trkpt>
      <trkpt lat="47.90338" lon="6.81101">
        <ele>765.1</ele>
        <time>2022-09-02T06:47:24Z</time>
      </trkpt>
      <trkpt lat="47.90338" lon="6.81103">
        <ele>765.2</ele>
        <time>2022-09-02T06:47:25Z</time>
      </trkpt>
      <trkpt lat="47.90339" lon="6.81104">
        <ele>765.3</ele>
        <time>2022-09-02T06:47:26Z</time>
      </trkpt>
      <trkpt lat="47.9034" lon="6.81105">
        <ele>765.3</ele>
        <time>2022-09-02T06:47:27Z</time>
      </trkpt>
      <trkpt lat="47.9034" lon="6.81106">
        <ele>765.4</ele>
        <time>2022-09-02T06:47:28Z</time>
      </trkpt>
      <trkpt lat="47.90341" lon="6.81108">
        <ele>765.5</ele>
        <time>2022-09-02T06:47:29Z</time>
      </trkpt>
      <trkpt lat="47.90342" lon="6.81109">
        <ele>765.5</ele>
        <time>2022-09-02T06:47:30Z</time>
      </trkpt>
      <trkpt lat="47.90342" lon="6.8111">
        <ele>765.6</ele>
        <time>2022-09-02T06:47:31Z</time>
      </trkpt>
      <trkpt lat="47.90343" lon="6.81111">
        <ele>765.6</ele>
        <time>2022-09-02T06:47:32Z</time>
      </trkpt>
      <trkpt lat="47.90344" lon="6.81113">
        <ele>765.7</ele>
        <time>2022-09-02T06:47:33Z</time>
      </trkpt>
      <trkpt lat="47.90344" lon="6.81114">
        <ele>765.8</ele>
        <time>2022-09-02T06:47:34Z</time>
      </trkpt>
      <trkpt lat="47.90345" lon="6.81115">
        <ele>765.8</ele>
        <time>2022-09-02T06:47:35Z</time>
      </trkpt>
      <trkpt lat="47.90345" lon="6.81117">
        <ele>765.9</ele>
        <time>2022-09-02T06:47:36Z</time>
      </trkpt>
      <trkpt lat="47.90345" lon="6.81118">
        <ele>765.9</ele>
        <time>2022-09-02T06:47:37Z</time>
      </trkpt>
      <trkpt lat="47.90346" lon="6.81119">
        <ele>766</ele>
        <time>2022-09-02T06:47:38Z</time>
      </trkpt>
      <trkpt lat="47.90346" lon="6.81121">
        <ele>766.1</ele>
        <time>2022-09-02T06:47:39Z</time>
      </trkpt>
      <trkpt lat="47.90346" lon="6.81122">
        <ele>766.1</ele>
        <time>2022-09-02T06:47:40Z</time>
      </trkpt>
      <trkpt lat="47.90347" lon="6.81123">
        <ele>766.1</ele>
        <time>2022-09-02T06:47:41Z</time>
      </trkpt>
      <trkpt lat="47.90347" lon="6.81125">
        <ele>766.3</ele>
        <time>2022-09-02T06:47:42Z</time>
      </trkpt>
      <trkpt lat="47.90348" lon="6.81126">
        <ele>766.3</ele>
        <time>2022-09-02T06:47:43Z</time>
      </trkpt>
      <trkpt lat="47.90348" lon="6.81127">
        <ele>766.3</ele>
        <time>2022-09-02T06:47:44Z</time>
      </trkpt>
      <trkpt lat="47.90348" lon="6.81129">
        <ele>766.5</ele>
        <time>2022-09-02T06:47:45Z</time>
      </trkpt>
      <trkpt lat="47.90349" lon="6.8113">
        <ele>766.5</ele>
        <time>2022-09-02T06:47:46Z</time>
      </trkpt>
      <trkpt lat="47.90349" lon="6.81131">
        <ele>766.6</ele>
        <time>2022-09-02T06:47:47Z</time>
      </trkpt>
      <trkpt lat="47.9035" lon="6.81133">
        <ele>766.7</ele>
        <time>2022-09-02T06:47:48Z</time>
      </trkpt>
      <trkpt lat="47.9035" lon="6.81134">
        <ele>766.7</ele>
        <time>2022-09-02T06:47:49Z</time>
      </trkpt>
      <trkpt lat="47.9035" lon="6.81136">
        <ele>766.8</ele>
        <time>2022-09-02T06:47:50Z</time>
      </trkpt>
      <trkpt lat="47.90351" lon="6.81137">
        <ele>766.9</ele>
        <time>2022-09-02T06:47:51Z</time>
      </trkpt>
      <trkpt lat="47.90351" lon="6.81139">
        <ele>767</ele>
        <time>2022-09-02T06:47:52Z</time>
      </trkpt>
      <trkpt lat="47.90351" lon="6.81141">
        <ele>767.2</ele>
        <time>2022-09-02T06:47:53Z</time>
      </trkpt>
      <trkpt lat="47.90352" lon="6.81142">
        <ele>767.3</ele>
        <time>2022-09-02T06:47:54Z</time>
      </trkpt>
      <trkpt lat="47.90352" lon="6.81144">
        <ele>767.4</ele>
        <time>2022-09-02T06:47:55Z</time>
      </trkpt>
      <trkpt lat="47.90352" lon="6.81145">
        <ele>767.5</ele>
        <time>2022-09-02T06:47:56Z</time>
      </trkpt>
      <trkpt lat="47.90353" lon="6.81146">
        <ele>767.6</ele>
        <time>2022-09-02T06:47:57Z</time>
      </trkpt>
      <trkpt lat="47.90353" lon="6.81148">
        <ele>767.8</ele>
        <time>2022-09-02T06:47:58Z</time>
      </trkpt>
      <trkpt lat="47.90354" lon="6.81149">
        <ele>767.8</ele>
        <time>2022-09-02T06:47:59Z</time>
      </trkpt>
      <trkpt lat="47.90354" lon="6.81151">
        <ele>768</ele>
        <time>2022-09-02T06:48:00Z</time>
      </trkpt>
      <trkpt lat="47.90354" lon="6.81152">
        <ele>768.1</ele>
        <time>2022-09-02T06:48:01Z</time>
      </trkpt>
      <trkpt lat="47.90355" lon="6.81154">
        <ele>768.2</ele>
        <time>2022-09-02T06:48:02Z</time>
      </trkpt>
      <trkpt lat="47.90355" lon="6.81155">
        <ele>768.3</ele>
        <time>2022-09-02T06:48:03Z</time>
      </trkpt>
      <trkpt lat="47.90356" lon="6.81157">
        <ele>768.4</ele>
        <time>2022-09-02T06:48:04Z</time>
      </trkpt>
      <trkpt lat="47.90356" lon="6.81158">
        <ele>768.5</ele>
        <time>2022-09-02T06:48:05Z</time>
      </trkpt>
      <trkpt lat="47.90356" lon="6.8116">
        <ele>768.7</ele>
        <time>2022-09-02T06:48:06Z</time>
      </trkpt>
      <trkpt lat="47.90357" lon="6.81161">
        <ele>768.7</ele>
        <time>2022-09-02T06:48:07Z</time>
      </trkpt>
      <trkpt lat="47.90357" lon="6.81163">
        <ele>768.9</ele>
        <time>2022-09-02T06:48:08Z</time>
      </trkpt>
      <trkpt lat="47.90358" lon="6.81164">
        <ele>768.9</ele>
        <time>2022-09-02T06:48:09Z</time>
      </trkpt>
      <trkpt lat="47.90358" lon="6.81165">
        <ele>769</ele>
        <time>2022-09-02T06:48:10Z</time>
      </trkpt>
      <trkpt lat="47.90359" lon="6.81167">
        <ele>769.1</ele>
        <time>2022-09-02T06:48:11Z</time>
      </trkpt>
      <trkpt lat="47.90359" lon="6.81168">
        <ele>769.1</ele>
        <time>2022-09-02T06:48:12Z</time>
      </trkpt>
      <trkpt lat="47.9036" lon="6.8117">
        <ele>769.2</ele>
        <time>2022-09-02T06:48:13Z</time>
      </trkpt>
      <trkpt lat="47.9036" lon="6.81171">
        <ele>769.2</ele>
        <time>2022-09-02T06:48:14Z</time>
      </trkpt>
      <trkpt lat="47.90361" lon="6.81172">
        <ele>769.2</ele>
        <time>2022-09-02T06:48:15Z</time>
      </trkpt>
      <trkpt lat="47.90361" lon="6.81174">
        <ele>769.3</ele>
        <time>2022-09-02T06:48:16Z</time>
      </trkpt>
      <trkpt lat="47.90361" lon="6.81175">
        <ele>769.3</ele>
        <time>2022-09-02T06:48:17Z</time>
      </trkpt>
      <trkpt lat="47.90362" lon="6.81177">
        <ele>769.2</ele>
        <time>2022-09-02T06:48:18Z</time>
      </trkpt>
      <trkpt lat="47.90362" lon="6.81178">
        <ele>769.3</ele>
        <time>2022-09-02T06:48:19Z</time>
      </trkpt>
      <trkpt lat="47.90363" lon="6.81179">
        <ele>769.1</ele>
        <time>2022-09-02T06:48:20Z</time>
      </trkpt>
      <trkpt lat="47.90363" lon="6.81181">
        <ele>769.2</ele>
        <time>2022-09-02T06:48:21Z</time>
      </trkpt>
      <trkpt lat="47.90364" lon="6.81182">
        <ele>769.1</ele>
        <time>2022-09-02T06:48:22Z</time>
      </trkpt>
      <trkpt lat="47.90364" lon="6.81183">
        <ele>769.1</ele>
        <time>2022-09-02T06:48:23Z</time>
      </trkpt>
      <trkpt lat="47.90365" lon="6.81185">
        <ele>769.1</ele>
        <time>2022-09-02T06:48:24Z</time>
      </trkpt>
      <trkpt lat="47.90365" lon="6.81186">
        <ele>769.1</ele>
        <time>2022-09-02T06:48:25Z</time>
      </trkpt>
      <trkpt lat="47.90366" lon="6.81187">
        <ele>769</ele>
        <time>2022-09-02T06:48:26Z</time>
      </trkpt>
      <trkpt lat="47.90367" lon="6.81189">
        <ele>768.9</ele>
        <time>2022-09-02T06:48:27Z</time>
      </trkpt>
      <trkpt lat="47.90367" lon="6.8119">
        <ele>769</ele>
        <time>2022-09-02T06:48:28Z</time>
      </trkpt>
      <trkpt lat="47.90368" lon="6.81191">
        <ele>768.9</ele>
        <time>2022-09-02T06:48:29Z</time>
      </trkpt>
      <trkpt lat="47.90369" lon="6.81193">
        <ele>768.8</ele>
        <time>2022-09-02T06:48:30Z</time>
      </trkpt>
      <trkpt lat="47.90369" lon="6.81194">
        <ele>768.8</ele>
        <time>2022-09-02T06:48:31Z</time>
      </trkpt>
      <trkpt lat="47.9037" lon="6.81195">
        <ele>768.8</ele>
        <time>2022-09-02T06:48:32Z</time>
      </trkpt>
      <trkpt lat="47.9037" lon="6.81197">
        <ele>769.1</ele>
        <time>2022-09-02T06:48:33Z</time>
      </trkpt>
      <trkpt lat="47.90371" lon="6.81198">
        <ele>769</ele>
        <time>2022-09-02T06:48:34Z</time>
      </trkpt>
      <trkpt lat="47.90371" lon="6.81199">
        <ele>769.2</ele>
        <time>2022-09-02T06:48:35Z</time>
      </trkpt>
      <trkpt lat="47.90371" lon="6.81201">
        <ele>769.4</ele>
        <time>2022-09-02T06:48:36Z</time>
      </trkpt>
      <trkpt lat="47.90372" lon="6.81202">
        <ele>769.4</ele>
        <time>2022-09-02T06:48:37Z</time>
      </trkpt>
      <trkpt lat="47.90372" lon="6.81204">
        <ele>769.7</ele>
        <time>2022-09-02T06:48:38Z</time>
      </trkpt>
      <trkpt lat="47.90373" lon="6.81205">
        <ele>769.6</ele>
        <time>2022-09-02T06:48:39Z</time>
      </trkpt>
      <trkpt lat="47.90374" lon="6.81206">
        <ele>769.6</ele>
        <time>2022-09-02T06:48:40Z</time>
      </trkpt>
      <trkpt lat="47.90374" lon="6.81208">
        <ele>769.9</ele>
        <time>2022-09-02T06:48:41Z</time>
      </trkpt>
      <trkpt lat="47.90375" lon="6.81209">
        <ele>769.8</ele>
        <time>2022-09-02T06:48:42Z</time>
      </trkpt>
      <trkpt lat="47.90376" lon="6.8121">
        <ele>769.8</ele>
        <time>2022-09-02T06:48:43Z</time>
      </trkpt>
      <trkpt lat="47.90376" lon="6.81212">
        <ele>770</ele>
        <time>2022-09-02T06:48:44Z</time>
      </trkpt>
      <trkpt lat="47.90377" lon="6.81213">
        <ele>770</ele>
        <time>2022-09-02T06:48:45Z</time>
      </trkpt>
      <trkpt lat="47.90378" lon="6.81215">
        <ele>770.1</ele>
        <time>2022-09-02T06:48:46Z</time>
      </trkpt>
      <trkpt lat="47.90378" lon="6.81216">
        <ele>770.2</ele>
        <time>2022-09-02T06:48:47Z</time>
      </trkpt>
      <trkpt lat="47.90379" lon="6.81217">
        <ele>770.1</ele>
        <time>2022-09-02T06:48:48Z</time>
      </trkpt>
      <trkpt lat="47.9038" lon="6.81219">
        <ele>770.2</ele>
        <time>2022-09-02T06:48:49Z</time>
      </trkpt>
      <trkpt lat="47.9038" lon="6.8122">
        <ele>770.3</ele>
        <time>2022-09-02T06:48:50Z</time>
      </trkpt>
      <trkpt lat="47.90381" lon="6.81221">
        <ele>770.3</ele>
        <time>2022-09-02T06:48:51Z</time>
      </trkpt>
      <trkpt lat="47.90382" lon="6.81223">
        <ele>770.3</ele>
        <time>2022-09-02T06:48:52Z</time>
      </trkpt>
      <trkpt lat="47.90382" lon="6.81224">
        <ele>770.4</ele>
        <time>2022-09-02T06:48:53Z</time>
      </trkpt>
      <trkpt lat="47.90383" lon="6.81225">
        <ele>770.4</ele>
        <time>2022-09-02T06:48:54Z</time>
      </trkpt>
      <trkpt lat="47.90383" lon="6.81227">
        <ele>770.6</ele>
        <time>2022-09-02T06:48:55Z</time>
      </trkpt>
      <trkpt lat="47.90384" lon="6.81228">
        <ele>770.5</ele>
        <time>2022-09-02T06:48:56Z</time>
      </trkpt>
      <trkpt lat="47.90384" lon="6.81229">
        <ele>770.7</ele>
        <time>2022-09-02T06:48:57Z</time>
      </trkpt>
      <trkpt lat="47.90385" lon="6.81231">
        <ele>770.7</ele>
        <time>2022-09-02T06:48:58Z</time>
      </trkpt>
      <trkpt lat="47.90385" lon="6.81232">
        <ele>770.8</ele>
        <time>2022-09-02T06:48:59Z</time>
      </trkpt>
      <trkpt lat="47.90386" lon="6.81233">
        <ele>770.7</ele>
        <time>2022-09-02T06:49:00Z</time>
      </trkpt>
      <trkpt lat="47.90387" lon="6.81235">
        <ele>770.8</ele>
        <time>2022-09-02T06:49:01Z</time>
      </trkpt>
      <trkpt lat="47.90387" lon="6.81236">
        <ele>770.9</ele>
        <time>2022-09-02T06:49:02Z</time>
      </trkpt>
      <trkpt lat="47.90388" lon="6.81238">
        <ele>770.9</ele>
        <time>2022-09-02T06:49:03Z</time>
      </trkpt>
      <trkpt lat="47.90388" lon="6.81239">
        <ele>771</ele>
        <time>2022-09-02T06:49:04Z</time>
      </trkpt>
      <trkpt lat="47.90389" lon="6.8124">
        <ele>770.9</ele>
        <time>2022-09-02T06:49:05Z</time>
      </trkpt>
      <trkpt lat="47.90389" lon="6.81242">
        <ele>771.1</ele>
        <time>2022-09-02T06:49:06Z</time>
      </trkpt>
      <trkpt lat="47.9039" lon="6.81243">
        <ele>771</ele>
        <time>2022-09-02T06:49:07Z</time>
      </trkpt>
      <trkpt lat="47.90391" lon="6.81244">
        <ele>770.8</ele>
        <time>2022-09-02T06:49:08Z</time>
      </trkpt>
      <trkpt lat="47.90391" lon="6.81245">
        <ele>770.9</ele>
        <time>2022-09-02T06:49:09Z</time>
      </trkpt>
      <trkpt lat="47.90392" lon="6.81247">
        <ele>770.9</ele>
        <time>2022-09-02T06:49:10Z</time>
      </trkpt>
      <trkpt lat="47.90393" lon="6.81248">
        <ele>770.7</ele>
        <time>2022-09-02T06:49:11Z</time>
      </trkpt>
      <trkpt lat="47.90393" lon="6.8125">
        <ele>771</ele>
        <time>2022-09-02T06:49:12Z</time>
      </trkpt>
      <trkpt lat="47.90394" lon="6.81251">
        <ele>770.8</ele>
        <time>2022-09-02T06:49:13Z</time>
      </trkpt>
      <trkpt lat="47.90394" lon="6.81253">
        <ele>770.9</ele>
        <time>2022-09-02T06:49:14Z</time>
      </trkpt>
      <trkpt lat="47.90395" lon="6.81254">
        <ele>770.8</ele>
        <time>2022-09-02T06:49:15Z</time>
      </trkpt>
      <trkpt lat="47.90395" lon="6.81256">
        <ele>770.9</ele>
        <time>2022-09-02T06:49:16Z</time>
      </trkpt>
      <trkpt lat="47.90396" lon="6.81257">
        <ele>770.8</ele>
        <time>2022-09-02T06:49:17Z</time>
      </trkpt>
      <trkpt lat="47.90396" lon="6.81259">
        <ele>770.9</ele>
        <time>2022-09-02T06:49:18Z</time>
      </trkpt>
      <trkpt lat="47.90397" lon="6.8126">
        <ele>770.8</ele>
        <time>2022-09-02T06:49:19Z</time>
      </trkpt>
      <trkpt lat="47.90398" lon="6.81261">
        <ele>770.6</ele>
        <time>2022-09-02T06:49:20Z</time>
      </trkpt>
      <trkpt lat="47.90398" lon="6.81262">
        <ele>770.7</ele>
        <time>2022-09-02T06:49:21Z</time>
      </trkpt>
      <trkpt lat="47.90398" lon="6.81263">
        <ele>770.8</ele>
        <time>2022-09-02T06:49:24Z</time>
      </trkpt>
      <trkpt lat="47.90398" lon="6.81264">
        <ele>770.9</ele>
        <time>2022-09-02T06:49:26Z</time>
      </trkpt>
      <trkpt lat="47.90399" lon="6.81265">
        <ele>770.7</ele>
        <time>2022-09-02T06:49:27Z</time>
      </trkpt>
      <trkpt lat="47.90399" lon="6.81266">
        <ele>770.8</ele>
        <time>2022-09-02T06:49:28Z</time>
      </trkpt>
      <trkpt lat="47.90399" lon="6.81267">
        <ele>770.9</ele>
        <time>2022-09-02T06:49:29Z</time>
      </trkpt>
      <trkpt lat="47.904" lon="6.81268">
        <ele>770.8</ele>
        <time>2022-09-02T06:49:30Z</time>
      </trkpt>
      <trkpt lat="47.904" lon="6.81269">
        <ele>770.8</ele>
        <time>2022-09-02T06:49:31Z</time>
      </trkpt>
      <trkpt lat="47.90401" lon="6.81271">
        <ele>770.8</ele>
        <time>2022-09-02T06:49:32Z</time>
      </trkpt>
      <trkpt lat="47.90401" lon="6.81272">
        <ele>770.9</ele>
        <time>2022-09-02T06:49:33Z</time>
      </trkpt>
      <trkpt lat="47.90402" lon="6.81273">
        <ele>770.7</ele>
        <time>2022-09-02T06:49:34Z</time>
      </trkpt>
      <trkpt lat="47.90402" lon="6.81275">
        <ele>770.9</ele>
        <time>2022-09-02T06:49:35Z</time>
      </trkpt>
      <trkpt lat="47.90403" lon="6.81276">
        <ele>770.8</ele>
        <time>2022-09-02T06:49:36Z</time>
      </trkpt>
      <trkpt lat="47.90403" lon="6.81278">
        <ele>771</ele>
        <time>2022-09-02T06:49:37Z</time>
      </trkpt>
      <trkpt lat="47.90404" lon="6.81279">
        <ele>770.8</ele>
        <time>2022-09-02T06:49:38Z</time>
      </trkpt>
      <trkpt lat="47.90404" lon="6.81281">
        <ele>771</ele>
        <time>2022-09-02T06:49:39Z</time>
      </trkpt>
      <trkpt lat="47.90405" lon="6.81282">
        <ele>770.9</ele>
        <time>2022-09-02T06:49:40Z</time>
      </trkpt>
      <trkpt lat="47.90405" lon="6.81284">
        <ele>771.1</ele>
        <time>2022-09-02T06:49:41Z</time>
      </trkpt>
      <trkpt lat="47.90405" lon="6.81285">
        <ele>771.1</ele>
        <time>2022-09-02T06:49:42Z</time>
      </trkpt>
      <trkpt lat="47.90406" lon="6.81286">
        <ele>771</ele>
        <time>2022-09-02T06:49:43Z</time>
      </trkpt>
      <trkpt lat="47.90406" lon="6.81288">
        <ele>771.2</ele>
        <time>2022-09-02T06:49:44Z</time>
      </trkpt>
      <trkpt lat="47.90407" lon="6.81289">
        <ele>771</ele>
        <time>2022-09-02T06:49:45Z</time>
      </trkpt>
      <trkpt lat="47.90407" lon="6.8129">
        <ele>771.1</ele>
        <time>2022-09-02T06:49:46Z</time>
      </trkpt>
      <trkpt lat="47.90408" lon="6.81292">
        <ele>771.1</ele>
        <time>2022-09-02T06:49:47Z</time>
      </trkpt>
      <trkpt lat="47.90409" lon="6.81293">
        <ele>770.9</ele>
        <time>2022-09-02T06:49:48Z</time>
      </trkpt>
      <trkpt lat="47.90409" lon="6.81294">
        <ele>771</ele>
        <time>2022-09-02T06:49:49Z</time>
      </trkpt>
      <trkpt lat="47.9041" lon="6.81296">
        <ele>770.9</ele>
        <time>2022-09-02T06:49:50Z</time>
      </trkpt>
      <trkpt lat="47.9041" lon="6.81297">
        <ele>771</ele>
        <time>2022-09-02T06:49:51Z</time>
      </trkpt>
      <trkpt lat="47.90411" lon="6.81299">
        <ele>770.9</ele>
        <time>2022-09-02T06:49:52Z</time>
      </trkpt>
      <trkpt lat="47.90411" lon="6.813">
        <ele>771</ele>
        <time>2022-09-02T06:49:53Z</time>
      </trkpt>
      <trkpt lat="47.90412" lon="6.81301">
        <ele>770.8</ele>
        <time>2022-09-02T06:49:54Z</time>
      </trkpt>
      <trkpt lat="47.90412" lon="6.81303">
        <ele>771</ele>
        <time>2022-09-02T06:49:55Z</time>
      </trkpt>
      <trkpt lat="47.90413" lon="6.81304">
        <ele>770.8</ele>
        <time>2022-09-02T06:49:56Z</time>
      </trkpt>
      <trkpt lat="47.90413" lon="6.81305">
        <ele>770.9</ele>
        <time>2022-09-02T06:49:57Z</time>
      </trkpt>
      <trkpt lat="47.90414" lon="6.81307">
        <ele>770.8</ele>
        <time>2022-09-02T06:49:58Z</time>
      </trkpt>
      <trkpt lat="47.90414" lon="6.81308">
        <ele>770.9</ele>
        <time>2022-09-02T06:49:59Z</time>
      </trkpt>
      <trkpt lat="47.90415" lon="6.81309">
        <ele>770.8</ele>
        <time>2022-09-02T06:50:00Z</time>
      </trkpt>
      <trkpt lat="47.90416" lon="6.81311">
        <ele>770.8</ele>
        <time>2022-09-02T06:50:01Z</time>
      </trkpt>
      <trkpt lat="47.90416" lon="6.81312">
        <ele>770.9</ele>
        <time>2022-09-02T06:50:02Z</time>
      </trkpt>
      <trkpt lat="47.90416" lon="6.81314">
        <ele>771.1</ele>
        <time>2022-09-02T06:50:03Z</time>
      </trkpt>
      <trkpt lat="47.90417" lon="6.81315">
        <ele>770.9</ele>
        <time>2022-09-02T06:50:04Z</time>
      </trkpt>
      <trkpt lat="47.90417" lon="6.81317">
        <ele>771.2</ele>
        <time>2022-09-02T06:50:05Z</time>
      </trkpt>
      <trkpt lat="47.90417" lon="6.81318">
        <ele>771.3</ele>
        <time>2022-09-02T06:50:06Z</time>
      </trkpt>
      <trkpt lat="47.90418" lon="6.8132">
        <ele>771.2</ele>
        <time>2022-09-02T06:50:07Z</time>
      </trkpt>
      <trkpt lat="47.90418" lon="6.81321">
        <ele>771.4</ele>
        <time>2022-09-02T06:50:08Z</time>
      </trkpt>
      <trkpt lat="47.90418" lon="6.81323">
        <ele>771.6</ele>
        <time>2022-09-02T06:50:09Z</time>
      </trkpt>
      <trkpt lat="47.90419" lon="6.81324">
        <ele>771.4</ele>
        <time>2022-09-02T06:50:10Z</time>
      </trkpt>
      <trkpt lat="47.90419" lon="6.81326">
        <ele>771.6</ele>
        <time>2022-09-02T06:50:11Z</time>
      </trkpt>
      <trkpt lat="47.90419" lon="6.81327">
        <ele>771.7</ele>
        <time>2022-09-02T06:50:12Z</time>
      </trkpt>
      <trkpt lat="47.9042" lon="6.81328">
        <ele>771.6</ele>
        <time>2022-09-02T06:50:13Z</time>
      </trkpt>
      <trkpt lat="47.9042" lon="6.8133">
        <ele>771.8</ele>
        <time>2022-09-02T06:50:14Z</time>
      </trkpt>
      <trkpt lat="47.90421" lon="6.81331">
        <ele>771.7</ele>
        <time>2022-09-02T06:50:15Z</time>
      </trkpt>
      <trkpt lat="47.90421" lon="6.81332">
        <ele>771.8</ele>
        <time>2022-09-02T06:50:43Z</time>
      </trkpt>
      <trkpt lat="47.90421" lon="6.81333">
        <ele>771.9</ele>
        <time>2022-09-02T06:50:44Z</time>
      </trkpt>
      <trkpt lat="47.90421" lon="6.81334">
        <ele>771.9</ele>
        <time>2022-09-02T06:50:45Z</time>
      </trkpt>
      <trkpt lat="47.90421" lon="6.81335">
        <ele>772</ele>
        <time>2022-09-02T06:50:47Z</time>
      </trkpt>
      <trkpt lat="47.90421" lon="6.81337">
        <ele>772</ele>
        <time>2022-09-02T06:50:48Z</time>
      </trkpt>
      <trkpt lat="47.90421" lon="6.81338">
        <ele>772.1</ele>
        <time>2022-09-02T06:50:49Z</time>
      </trkpt>
      <trkpt lat="47.90422" lon="6.8134">
        <ele>771.9</ele>
        <time>2022-09-02T06:50:50Z</time>
      </trkpt>
      <trkpt lat="47.90422" lon="6.81341">
        <ele>771.9</ele>
        <time>2022-09-02T06:50:51Z</time>
      </trkpt>
      <trkpt lat="47.90422" lon="6.81343">
        <ele>772</ele>
        <time>2022-09-02T06:50:52Z</time>
      </trkpt>
      <trkpt lat="47.90422" lon="6.81344">
        <ele>772</ele>
        <time>2022-09-02T06:50:53Z</time>
      </trkpt>
      <trkpt lat="47.90422" lon="6.81346">
        <ele>772.1</ele>
        <time>2022-09-02T06:50:54Z</time>
      </trkpt>
      <trkpt lat="47.90422" lon="6.81347">
        <ele>772.1</ele>
        <time>2022-09-02T06:50:55Z</time>
      </trkpt>
      <trkpt lat="47.90422" lon="6.81349">
        <ele>772.2</ele>
        <time>2022-09-02T06:50:56Z</time>
      </trkpt>
      <trkpt lat="47.90422" lon="6.81351">
        <ele>772.3</ele>
        <time>2022-09-02T06:50:57Z</time>
      </trkpt>
      <trkpt lat="47.90423" lon="6.81352">
        <ele>772.1</ele>
        <time>2022-09-02T06:50:58Z</time>
      </trkpt>
      <trkpt lat="47.90423" lon="6.81354">
        <ele>772.1</ele>
        <time>2022-09-02T06:50:59Z</time>
      </trkpt>
      <trkpt lat="47.90423" lon="6.81356">
        <ele>772.2</ele>
        <time>2022-09-02T06:51:00Z</time>
      </trkpt>
      <trkpt lat="47.90423" lon="6.81358">
        <ele>772.3</ele>
        <time>2022-09-02T06:51:01Z</time>
      </trkpt>
      <trkpt lat="47.90423" lon="6.8136">
        <ele>772.4</ele>
        <time>2022-09-02T06:51:02Z</time>
      </trkpt>
      <trkpt lat="47.90424" lon="6.81361">
        <ele>772.1</ele>
        <time>2022-09-02T06:51:03Z</time>
      </trkpt>
      <trkpt lat="47.90424" lon="6.81363">
        <ele>772.2</ele>
        <time>2022-09-02T06:51:04Z</time>
      </trkpt>
      <trkpt lat="47.90424" lon="6.81365">
        <ele>772.2</ele>
        <time>2022-09-02T06:51:05Z</time>
      </trkpt>
      <trkpt lat="47.90424" lon="6.81366">
        <ele>772.2</ele>
        <time>2022-09-02T06:51:06Z</time>
      </trkpt>
      <trkpt lat="47.90424" lon="6.81368">
        <ele>772.3</ele>
        <time>2022-09-02T06:51:07Z</time>
      </trkpt>
      <trkpt lat="47.90424" lon="6.81369">
        <ele>772.3</ele>
        <time>2022-09-02T06:51:08Z</time>
      </trkpt>
      <trkpt lat="47.90425" lon="6.81371">
        <ele>772.1</ele>
        <time>2022-09-02T06:51:09Z</time>
      </trkpt>
      <trkpt lat="47.90425" lon="6.81373">
        <ele>772.2</ele>
        <time>2022-09-02T06:51:10Z</time>
      </trkpt>
      <trkpt lat="47.90425" lon="6.81374">
        <ele>772.2</ele>
        <time>2022-09-02T06:51:11Z</time>
      </trkpt>
      <trkpt lat="47.90425" lon="6.81376">
        <ele>772.2</ele>
        <time>2022-09-02T06:51:12Z</time>
      </trkpt>
      <trkpt lat="47.90425" lon="6.81378">
        <ele>772.3</ele>
        <time>2022-09-02T06:51:13Z</time>
      </trkpt>
      <trkpt lat="47.90425" lon="6.81379">
        <ele>772.3</ele>
        <time>2022-09-02T06:51:14Z</time>
      </trkpt>
      <trkpt lat="47.90426" lon="6.81381">
        <ele>772.1</ele>
        <time>2022-09-02T06:51:15Z</time>
      </trkpt>
      <trkpt lat="47.90426" lon="6.81383">
        <ele>772.2</ele>
        <time>2022-09-02T06:51:16Z</time>
      </trkpt>
      <trkpt lat="47.90426" lon="6.81385">
        <ele>772.2</ele>
        <time>2022-09-02T06:51:17Z</time>
      </trkpt>
      <trkpt lat="47.90426" lon="6.81386">
        <ele>772.3</ele>
        <time>2022-09-02T06:51:18Z</time>
      </trkpt>
      <trkpt lat="47.90426" lon="6.81388">
        <ele>772.3</ele>
        <time>2022-09-02T06:51:19Z</time>
      </trkpt>
      <trkpt lat="47.90426" lon="6.81389">
        <ele>772.3</ele>
        <time>2022-09-02T06:51:20Z</time>
      </trkpt>
      <trkpt lat="47.90426" lon="6.81391">
        <ele>772.3</ele>
        <time>2022-09-02T06:51:21Z</time>
      </trkpt>
      <trkpt lat="47.90426" lon="6.81393">
        <ele>772.4</ele>
        <time>2022-09-02T06:51:22Z</time>
      </trkpt>
      <trkpt lat="47.90426" lon="6.81394">
        <ele>772.4</ele>
        <time>2022-09-02T06:51:23Z</time>
      </trkpt>
      <trkpt lat="47.90426" lon="6.81396">
        <ele>772.4</ele>
        <time>2022-09-02T06:51:24Z</time>
      </trkpt>
      <trkpt lat="47.90426" lon="6.81398">
        <ele>772.4</ele>
        <time>2022-09-02T06:51:25Z</time>
      </trkpt>
      <trkpt lat="47.90426" lon="6.814">
        <ele>772.5</ele>
        <time>2022-09-02T06:51:26Z</time>
      </trkpt>
      <trkpt lat="47.90426" lon="6.81402">
        <ele>772.5</ele>
        <time>2022-09-02T06:51:27Z</time>
      </trkpt>
      <trkpt lat="47.90426" lon="6.81403">
        <ele>772.5</ele>
        <time>2022-09-02T06:51:28Z</time>
      </trkpt>
      <trkpt lat="47.90426" lon="6.81405">
        <ele>772.5</ele>
        <time>2022-09-02T06:51:29Z</time>
      </trkpt>
      <trkpt lat="47.90426" lon="6.81407">
        <ele>772.5</ele>
        <time>2022-09-02T06:51:30Z</time>
      </trkpt>
      <trkpt lat="47.90426" lon="6.81409">
        <ele>772.6</ele>
        <time>2022-09-02T06:51:31Z</time>
      </trkpt>
      <trkpt lat="47.90426" lon="6.8141">
        <ele>772.6</ele>
        <time>2022-09-02T06:51:32Z</time>
      </trkpt>
      <trkpt lat="47.90426" lon="6.81412">
        <ele>772.6</ele>
        <time>2022-09-02T06:51:33Z</time>
      </trkpt>
      <trkpt lat="47.90425" lon="6.81414">
        <ele>772.8</ele>
        <time>2022-09-02T06:51:34Z</time>
      </trkpt>
      <trkpt lat="47.90425" lon="6.81416">
        <ele>772.8</ele>
        <time>2022-09-02T06:51:35Z</time>
      </trkpt>
      <trkpt lat="47.90425" lon="6.81417">
        <ele>772.8</ele>
        <time>2022-09-02T06:51:36Z</time>
      </trkpt>
      <trkpt lat="47.90425" lon="6.81419">
        <ele>772.8</ele>
        <time>2022-09-02T06:51:37Z</time>
      </trkpt>
      <trkpt lat="47.90425" lon="6.81421">
        <ele>772.9</ele>
        <time>2022-09-02T06:51:38Z</time>
      </trkpt>
      <trkpt lat="47.90425" lon="6.81423">
        <ele>772.9</ele>
        <time>2022-09-02T06:51:39Z</time>
      </trkpt>
      <trkpt lat="47.90424" lon="6.81425">
        <ele>773.1</ele>
        <time>2022-09-02T06:51:40Z</time>
      </trkpt>
      <trkpt lat="47.90424" lon="6.81426">
        <ele>773.1</ele>
        <time>2022-09-02T06:51:41Z</time>
      </trkpt>
      <trkpt lat="47.90424" lon="6.81428">
        <ele>773.1</ele>
        <time>2022-09-02T06:51:42Z</time>
      </trkpt>
      <trkpt lat="47.90424" lon="6.8143">
        <ele>773.2</ele>
        <time>2022-09-02T06:51:43Z</time>
      </trkpt>
      <trkpt lat="47.90424" lon="6.81431">
        <ele>773.2</ele>
        <time>2022-09-02T06:51:44Z</time>
      </trkpt>
      <trkpt lat="47.90423" lon="6.81433">
        <ele>773.4</ele>
        <time>2022-09-02T06:51:45Z</time>
      </trkpt>
      <trkpt lat="47.90423" lon="6.81434">
        <ele>773.4</ele>
        <time>2022-09-02T06:51:46Z</time>
      </trkpt>
      <trkpt lat="47.90423" lon="6.81436">
        <ele>773.5</ele>
        <time>2022-09-02T06:51:47Z</time>
      </trkpt>
      <trkpt lat="47.90422" lon="6.81438">
        <ele>773.7</ele>
        <time>2022-09-02T06:51:48Z</time>
      </trkpt>
      <trkpt lat="47.90422" lon="6.81439">
        <ele>773.7</ele>
        <time>2022-09-02T06:51:49Z</time>
      </trkpt>
      <trkpt lat="47.90422" lon="6.81441">
        <ele>773.8</ele>
        <time>2022-09-02T06:51:50Z</time>
      </trkpt>
      <trkpt lat="47.90421" lon="6.81442">
        <ele>774</ele>
        <time>2022-09-02T06:51:51Z</time>
      </trkpt>
      <trkpt lat="47.90421" lon="6.81444">
        <ele>774.1</ele>
        <time>2022-09-02T06:51:52Z</time>
      </trkpt>
      <trkpt lat="47.90421" lon="6.81445">
        <ele>774</ele>
        <time>2022-09-02T06:51:53Z</time>
      </trkpt>
      <trkpt lat="47.9042" lon="6.81447">
        <ele>774.2</ele>
        <time>2022-09-02T06:51:54Z</time>
      </trkpt>
      <trkpt lat="47.9042" lon="6.81449">
        <ele>774.1</ele>
        <time>2022-09-02T06:51:55Z</time>
      </trkpt>
      <trkpt lat="47.9042" lon="6.8145">
        <ele>774.1</ele>
        <time>2022-09-02T06:51:56Z</time>
      </trkpt>
      <trkpt lat="47.90419" lon="6.81452">
        <ele>774.2</ele>
        <time>2022-09-02T06:51:57Z</time>
      </trkpt>
      <trkpt lat="47.90419" lon="6.81454">
        <ele>774.1</ele>
        <time>2022-09-02T06:51:58Z</time>
      </trkpt>
      <trkpt lat="47.90419" lon="6.81455">
        <ele>774.1</ele>
        <time>2022-09-02T06:51:59Z</time>
      </trkpt>
      <trkpt lat="47.90418" lon="6.81457">
        <ele>774.2</ele>
        <time>2022-09-02T06:52:00Z</time>
      </trkpt>
      <trkpt lat="47.90418" lon="6.81458">
        <ele>774.2</ele>
        <time>2022-09-02T06:52:01Z</time>
      </trkpt>
      <trkpt lat="47.90417" lon="6.8146">
        <ele>774.4</ele>
        <time>2022-09-02T06:52:02Z</time>
      </trkpt>
      <trkpt lat="47.90417" lon="6.81461">
        <ele>774.3</ele>
        <time>2022-09-02T06:52:03Z</time>
      </trkpt>
      <trkpt lat="47.90416" lon="6.81463">
        <ele>774.5</ele>
        <time>2022-09-02T06:52:04Z</time>
      </trkpt>
      <trkpt lat="47.90416" lon="6.81464">
        <ele>774.4</ele>
        <time>2022-09-02T06:52:05Z</time>
      </trkpt>
      <trkpt lat="47.90415" lon="6.81466">
        <ele>774.5</ele>
        <time>2022-09-02T06:52:06Z</time>
      </trkpt>
      <trkpt lat="47.90415" lon="6.81467">
        <ele>774.5</ele>
        <time>2022-09-02T06:52:07Z</time>
      </trkpt>
      <trkpt lat="47.90414" lon="6.81469">
        <ele>774.6</ele>
        <time>2022-09-02T06:52:08Z</time>
      </trkpt>
      <trkpt lat="47.90414" lon="6.8147">
        <ele>774.6</ele>
        <time>2022-09-02T06:52:09Z</time>
      </trkpt>
      <trkpt lat="47.90414" lon="6.81472">
        <ele>774.5</ele>
        <time>2022-09-02T06:52:10Z</time>
      </trkpt>
      <trkpt lat="47.90413" lon="6.81473">
        <ele>774.6</ele>
        <time>2022-09-02T06:52:11Z</time>
      </trkpt>
      <trkpt lat="47.90413" lon="6.81475">
        <ele>774.5</ele>
        <time>2022-09-02T06:52:12Z</time>
      </trkpt>
      <trkpt lat="47.90412" lon="6.81476">
        <ele>774.6</ele>
        <time>2022-09-02T06:52:13Z</time>
      </trkpt>
      <trkpt lat="47.90412" lon="6.81478">
        <ele>774.5</ele>
        <time>2022-09-02T06:52:14Z</time>
      </trkpt>
      <trkpt lat="47.90412" lon="6.81479">
        <ele>774.4</ele>
        <time>2022-09-02T06:52:15Z</time>
      </trkpt>
      <trkpt lat="47.90411" lon="6.81481">
        <ele>774.5</ele>
        <time>2022-09-02T06:52:16Z</time>
      </trkpt>
      <trkpt lat="47.90411" lon="6.81482">
        <ele>774.5</ele>
        <time>2022-09-02T06:52:17Z</time>
      </trkpt>
      <trkpt lat="47.9041" lon="6.81484">
        <ele>774.6</ele>
        <time>2022-09-02T06:52:18Z</time>
      </trkpt>
      <trkpt lat="47.9041" lon="6.81485">
        <ele>774.5</ele>
        <time>2022-09-02T06:52:19Z</time>
      </trkpt>
      <trkpt lat="47.90409" lon="6.81486">
        <ele>774.7</ele>
        <time>2022-09-02T06:52:20Z</time>
      </trkpt>
      <trkpt lat="47.90409" lon="6.81488">
        <ele>774.6</ele>
        <time>2022-09-02T06:52:21Z</time>
      </trkpt>
      <trkpt lat="47.90409" lon="6.81489">
        <ele>774.5</ele>
        <time>2022-09-02T06:52:22Z</time>
      </trkpt>
      <trkpt lat="47.90408" lon="6.81491">
        <ele>774.6</ele>
        <time>2022-09-02T06:52:23Z</time>
      </trkpt>
      <trkpt lat="47.90408" lon="6.81492">
        <ele>774.6</ele>
        <time>2022-09-02T06:52:24Z</time>
      </trkpt>
      <trkpt lat="47.90407" lon="6.81494">
        <ele>774.7</ele>
        <time>2022-09-02T06:52:25Z</time>
      </trkpt>
      <trkpt lat="47.90407" lon="6.81495">
        <ele>774.7</ele>
        <time>2022-09-02T06:52:26Z</time>
      </trkpt>
      <trkpt lat="47.90407" lon="6.81497">
        <ele>774.6</ele>
        <time>2022-09-02T06:52:27Z</time>
      </trkpt>
      <trkpt lat="47.90406" lon="6.81499">
        <ele>774.7</ele>
        <time>2022-09-02T06:52:28Z</time>
      </trkpt>
      <trkpt lat="47.90406" lon="6.815">
        <ele>774.7</ele>
        <time>2022-09-02T06:52:29Z</time>
      </trkpt>
      <trkpt lat="47.90406" lon="6.81502">
        <ele>774.5</ele>
        <time>2022-09-02T06:52:30Z</time>
      </trkpt>
      <trkpt lat="47.90405" lon="6.81503">
        <ele>774.7</ele>
        <time>2022-09-02T06:52:31Z</time>
      </trkpt>
      <trkpt lat="47.90405" lon="6.81505">
        <ele>774.5</ele>
        <time>2022-09-02T06:52:32Z</time>
      </trkpt>
      <trkpt lat="47.90405" lon="6.81506">
        <ele>774.4</ele>
        <time>2022-09-02T06:52:33Z</time>
      </trkpt>
      <trkpt lat="47.90404" lon="6.81507">
        <ele>774.6</ele>
        <time>2022-09-02T06:52:34Z</time>
      </trkpt>
      <trkpt lat="47.90404" lon="6.81509">
        <ele>774.4</ele>
        <time>2022-09-02T06:52:35Z</time>
      </trkpt>
      <trkpt lat="47.90403" lon="6.8151">
        <ele>774.5</ele>
        <time>2022-09-02T06:52:36Z</time>
      </trkpt>
      <trkpt lat="47.90403" lon="6.81512">
        <ele>774.4</ele>
        <time>2022-09-02T06:52:37Z</time>
      </trkpt>
      <trkpt lat="47.90402" lon="6.81513">
        <ele>774.5</ele>
        <time>2022-09-02T06:52:38Z</time>
      </trkpt>
      <trkpt lat="47.90402" lon="6.81515">
        <ele>774.4</ele>
        <time>2022-09-02T06:52:39Z</time>
      </trkpt>
      <trkpt lat="47.90401" lon="6.81517">
        <ele>774.5</ele>
        <time>2022-09-02T06:52:40Z</time>
      </trkpt>
      <trkpt lat="47.90401" lon="6.81518">
        <ele>774.4</ele>
        <time>2022-09-02T06:52:41Z</time>
      </trkpt>
      <trkpt lat="47.90401" lon="6.8152">
        <ele>774.2</ele>
        <time>2022-09-02T06:52:42Z</time>
      </trkpt>
      <trkpt lat="47.904" lon="6.81522">
        <ele>774.3</ele>
        <time>2022-09-02T06:52:43Z</time>
      </trkpt>
      <trkpt lat="47.904" lon="6.81523">
        <ele>774.2</ele>
        <time>2022-09-02T06:52:44Z</time>
      </trkpt>
      <trkpt lat="47.90399" lon="6.81525">
        <ele>774.3</ele>
        <time>2022-09-02T06:52:45Z</time>
      </trkpt>
      <trkpt lat="47.90399" lon="6.81526">
        <ele>774.2</ele>
        <time>2022-09-02T06:52:46Z</time>
      </trkpt>
      <trkpt lat="47.90398" lon="6.81528">
        <ele>774.4</ele>
        <time>2022-09-02T06:52:47Z</time>
      </trkpt>
      <trkpt lat="47.90397" lon="6.81529">
        <ele>774.6</ele>
        <time>2022-09-02T06:52:48Z</time>
      </trkpt>
      <trkpt lat="47.90397" lon="6.81531">
        <ele>774.4</ele>
        <time>2022-09-02T06:52:49Z</time>
      </trkpt>
      <trkpt lat="47.90396" lon="6.81532">
        <ele>774.6</ele>
        <time>2022-09-02T06:52:50Z</time>
      </trkpt>
      <trkpt lat="47.90396" lon="6.81534">
        <ele>774.4</ele>
        <time>2022-09-02T06:52:51Z</time>
      </trkpt>
      <trkpt lat="47.90396" lon="6.81535">
        <ele>774.3</ele>
        <time>2022-09-02T06:52:52Z</time>
      </trkpt>
      <trkpt lat="47.90395" lon="6.81537">
        <ele>774.4</ele>
        <time>2022-09-02T06:52:53Z</time>
      </trkpt>
      <trkpt lat="47.90395" lon="6.81538">
        <ele>774.3</ele>
        <time>2022-09-02T06:52:54Z</time>
      </trkpt>
      <trkpt lat="47.90394" lon="6.81539">
        <ele>774.6</ele>
        <time>2022-09-02T06:52:55Z</time>
      </trkpt>
      <trkpt lat="47.90394" lon="6.8154">
        <ele>774.5</ele>
        <time>2022-09-02T06:52:56Z</time>
      </trkpt>
      <trkpt lat="47.90393" lon="6.81541">
        <ele>774.7</ele>
        <time>2022-09-02T06:52:57Z</time>
      </trkpt>
      <trkpt lat="47.90393" lon="6.81543">
        <ele>774.6</ele>
        <time>2022-09-02T06:52:58Z</time>
      </trkpt>
      <trkpt lat="47.90393" lon="6.81544">
        <ele>774.5</ele>
        <time>2022-09-02T06:52:59Z</time>
      </trkpt>
      <trkpt lat="47.90392" lon="6.81545">
        <ele>774.7</ele>
        <time>2022-09-02T06:53:00Z</time>
      </trkpt>
      <trkpt lat="47.90392" lon="6.81546">
        <ele>774.6</ele>
        <time>2022-09-02T06:53:01Z</time>
      </trkpt>
      <trkpt lat="47.90391" lon="6.81547">
        <ele>774.9</ele>
        <time>2022-09-02T06:53:02Z</time>
      </trkpt>
      <trkpt lat="47.9039" lon="6.81548">
        <ele>775.2</ele>
        <time>2022-09-02T06:53:03Z</time>
      </trkpt>
      <trkpt lat="47.9039" lon="6.81549">
        <ele>775.1</ele>
        <time>2022-09-02T06:53:04Z</time>
      </trkpt>
      <trkpt lat="47.90389" lon="6.8155">
        <ele>775.4</ele>
        <time>2022-09-02T06:53:05Z</time>
      </trkpt>
      <trkpt lat="47.90388" lon="6.81551">
        <ele>775.6</ele>
        <time>2022-09-02T06:53:06Z</time>
      </trkpt>
      <trkpt lat="47.90388" lon="6.81553">
        <ele>775.5</ele>
        <time>2022-09-02T06:53:07Z</time>
      </trkpt>
      <trkpt lat="47.90387" lon="6.81554">
        <ele>775.7</ele>
        <time>2022-09-02T06:53:08Z</time>
      </trkpt>
      <trkpt lat="47.90387" lon="6.81555">
        <ele>775.7</ele>
        <time>2022-09-02T06:53:09Z</time>
      </trkpt>
      <trkpt lat="47.90386" lon="6.81556">
        <ele>775.9</ele>
        <time>2022-09-02T06:53:10Z</time>
      </trkpt>
      <trkpt lat="47.90385" lon="6.81557">
        <ele>776</ele>
        <time>2022-09-02T06:53:11Z</time>
      </trkpt>
      <trkpt lat="47.90385" lon="6.81558">
        <ele>775.8</ele>
        <time>2022-09-02T06:53:12Z</time>
      </trkpt>
      <trkpt lat="47.90384" lon="6.81559">
        <ele>776</ele>
        <time>2022-09-02T06:53:13Z</time>
      </trkpt>
      <trkpt lat="47.90384" lon="6.8156">
        <ele>775.8</ele>
        <time>2022-09-02T06:53:14Z</time>
      </trkpt>
      <trkpt lat="47.90383" lon="6.81562">
        <ele>775.7</ele>
        <time>2022-09-02T06:53:15Z</time>
      </trkpt>
      <trkpt lat="47.90382" lon="6.81563">
        <ele>775.9</ele>
        <time>2022-09-02T06:53:16Z</time>
      </trkpt>
      <trkpt lat="47.90382" lon="6.81564">
        <ele>775.7</ele>
        <time>2022-09-02T06:53:17Z</time>
      </trkpt>
      <trkpt lat="47.90381" lon="6.81565">
        <ele>775.9</ele>
        <time>2022-09-02T06:53:18Z</time>
      </trkpt>
      <trkpt lat="47.9038" lon="6.81566">
        <ele>776</ele>
        <time>2022-09-02T06:53:19Z</time>
      </trkpt>
      <trkpt lat="47.90379" lon="6.81567">
        <ele>776.1</ele>
        <time>2022-09-02T06:53:20Z</time>
      </trkpt>
      <trkpt lat="47.90378" lon="6.81568">
        <ele>776.3</ele>
        <time>2022-09-02T06:53:21Z</time>
      </trkpt>
      <trkpt lat="47.90377" lon="6.81569">
        <ele>776.4</ele>
        <time>2022-09-02T06:53:22Z</time>
      </trkpt>
      <trkpt lat="47.90376" lon="6.8157">
        <ele>776.6</ele>
        <time>2022-09-02T06:53:23Z</time>
      </trkpt>
      <trkpt lat="47.90375" lon="6.81571">
        <ele>776.7</ele>
        <time>2022-09-02T06:53:24Z</time>
      </trkpt>
      <trkpt lat="47.90374" lon="6.81572">
        <ele>776.9</ele>
        <time>2022-09-02T06:53:25Z</time>
      </trkpt>
      <trkpt lat="47.90373" lon="6.81572">
        <ele>777.2</ele>
        <time>2022-09-02T06:53:26Z</time>
      </trkpt>
      <trkpt lat="47.90372" lon="6.81573">
        <ele>777.3</ele>
        <time>2022-09-02T06:53:27Z</time>
      </trkpt>
      <trkpt lat="47.90372" lon="6.81574">
        <ele>777.2</ele>
        <time>2022-09-02T06:53:28Z</time>
      </trkpt>
      <trkpt lat="47.90371" lon="6.81575">
        <ele>777.3</ele>
        <time>2022-09-02T06:53:29Z</time>
      </trkpt>
      <trkpt lat="47.9037" lon="6.81576">
        <ele>777.4</ele>
        <time>2022-09-02T06:53:30Z</time>
      </trkpt>
      <trkpt lat="47.90369" lon="6.81577">
        <ele>777.6</ele>
        <time>2022-09-02T06:53:32Z</time>
      </trkpt>
      <trkpt lat="47.90368" lon="6.81578">
        <ele>777.7</ele>
        <time>2022-09-02T06:53:33Z</time>
      </trkpt>
      <trkpt lat="47.90367" lon="6.81579">
        <ele>777.9</ele>
        <time>2022-09-02T06:53:34Z</time>
      </trkpt>
      <trkpt lat="47.90366" lon="6.8158">
        <ele>778</ele>
        <time>2022-09-02T06:53:35Z</time>
      </trkpt>
      <trkpt lat="47.90365" lon="6.81581">
        <ele>778.2</ele>
        <time>2022-09-02T06:53:36Z</time>
      </trkpt>
      <trkpt lat="47.90364" lon="6.81582">
        <ele>778.3</ele>
        <time>2022-09-02T06:53:37Z</time>
      </trkpt>
      <trkpt lat="47.90363" lon="6.81583">
        <ele>778.4</ele>
        <time>2022-09-02T06:53:38Z</time>
      </trkpt>
      <trkpt lat="47.90362" lon="6.81584">
        <ele>778.5</ele>
        <time>2022-09-02T06:53:39Z</time>
      </trkpt>
      <trkpt lat="47.90361" lon="6.81586">
        <ele>778.3</ele>
        <time>2022-09-02T06:53:40Z</time>
      </trkpt>
      <trkpt lat="47.9036" lon="6.81587">
        <ele>778.3</ele>
        <time>2022-09-02T06:53:41Z</time>
      </trkpt>
      <trkpt lat="47.90359" lon="6.81589">
        <ele>778</ele>
        <time>2022-09-02T06:53:42Z</time>
      </trkpt>
      <trkpt lat="47.90358" lon="6.8159">
        <ele>777.9</ele>
        <time>2022-09-02T06:53:43Z</time>
      </trkpt>
      <trkpt lat="47.90357" lon="6.81592">
        <ele>777.6</ele>
        <time>2022-09-02T06:53:44Z</time>
      </trkpt>
      <trkpt lat="47.90356" lon="6.81593">
        <ele>777.6</ele>
        <time>2022-09-02T06:53:45Z</time>
      </trkpt>
      <trkpt lat="47.90355" lon="6.81594">
        <ele>777.6</ele>
        <time>2022-09-02T06:53:46Z</time>
      </trkpt>
      <trkpt lat="47.90354" lon="6.81595">
        <ele>777.6</ele>
        <time>2022-09-02T06:53:47Z</time>
      </trkpt>
      <trkpt lat="47.90354" lon="6.81596">
        <ele>777.3</ele>
        <time>2022-09-02T06:53:48Z</time>
      </trkpt>
      <trkpt lat="47.90353" lon="6.81597">
        <ele>777.3</ele>
        <time>2022-09-02T06:53:49Z</time>
      </trkpt>
      <trkpt lat="47.90352" lon="6.81598">
        <ele>777.3</ele>
        <time>2022-09-02T06:53:50Z</time>
      </trkpt>
      <trkpt lat="47.90351" lon="6.81599">
        <ele>777.3</ele>
        <time>2022-09-02T06:53:51Z</time>
      </trkpt>
      <trkpt lat="47.9035" lon="6.816">
        <ele>777.3</ele>
        <time>2022-09-02T06:53:52Z</time>
      </trkpt>
      <trkpt lat="47.90349" lon="6.81601">
        <ele>777.3</ele>
        <time>2022-09-02T06:53:53Z</time>
      </trkpt>
      <trkpt lat="47.90348" lon="6.81602">
        <ele>777.3</ele>
        <time>2022-09-02T06:53:54Z</time>
      </trkpt>
      <trkpt lat="47.90347" lon="6.81603">
        <ele>777.3</ele>
        <time>2022-09-02T06:53:55Z</time>
      </trkpt>
      <trkpt lat="47.90347" lon="6.81604">
        <ele>777.1</ele>
        <time>2022-09-02T06:53:56Z</time>
      </trkpt>
      <trkpt lat="47.90346" lon="6.81605">
        <ele>777.1</ele>
        <time>2022-09-02T06:53:57Z</time>
      </trkpt>
      <trkpt lat="47.90345" lon="6.81606">
        <ele>777.1</ele>
        <time>2022-09-02T06:53:58Z</time>
      </trkpt>
      <trkpt lat="47.90344" lon="6.81607">
        <ele>777.2</ele>
        <time>2022-09-02T06:53:59Z</time>
      </trkpt>
      <trkpt lat="47.90343" lon="6.81607">
        <ele>777.4</ele>
        <time>2022-09-02T06:54:00Z</time>
      </trkpt>
      <trkpt lat="47.90342" lon="6.81608">
        <ele>777.4</ele>
        <time>2022-09-02T06:54:01Z</time>
      </trkpt>
      <trkpt lat="47.90341" lon="6.81609">
        <ele>777.5</ele>
        <time>2022-09-02T06:54:02Z</time>
      </trkpt>
      <trkpt lat="47.9034" lon="6.8161">
        <ele>777.5</ele>
        <time>2022-09-02T06:54:03Z</time>
      </trkpt>
      <trkpt lat="47.90339" lon="6.8161">
        <ele>777.8</ele>
        <time>2022-09-02T06:54:04Z</time>
      </trkpt>
      <trkpt lat="47.90338" lon="6.81611">
        <ele>777.8</ele>
        <time>2022-09-02T06:54:05Z</time>
      </trkpt>
      <trkpt lat="47.90337" lon="6.81612">
        <ele>777.9</ele>
        <time>2022-09-02T06:54:06Z</time>
      </trkpt>
      <trkpt lat="47.90336" lon="6.81613">
        <ele>777.9</ele>
        <time>2022-09-02T06:54:07Z</time>
      </trkpt>
      <trkpt lat="47.90335" lon="6.81614">
        <ele>778</ele>
        <time>2022-09-02T06:54:08Z</time>
      </trkpt>
      <trkpt lat="47.90334" lon="6.81615">
        <ele>778</ele>
        <time>2022-09-02T06:54:09Z</time>
      </trkpt>
      <trkpt lat="47.90333" lon="6.81616">
        <ele>778</ele>
        <time>2022-09-02T06:54:10Z</time>
      </trkpt>
      <trkpt lat="47.90332" lon="6.81616">
        <ele>778.2</ele>
        <time>2022-09-02T06:54:11Z</time>
      </trkpt>
      <trkpt lat="47.90331" lon="6.81617">
        <ele>778.1</ele>
        <time>2022-09-02T06:54:12Z</time>
      </trkpt>
      <trkpt lat="47.90331" lon="6.81618">
        <ele>777.9</ele>
        <time>2022-09-02T06:54:13Z</time>
      </trkpt>
      <trkpt lat="47.9033" lon="6.81618">
        <ele>778.1</ele>
        <time>2022-09-02T06:54:14Z</time>
      </trkpt>
      <trkpt lat="47.90329" lon="6.81619">
        <ele>778.1</ele>
        <time>2022-09-02T06:54:15Z</time>
      </trkpt>
      <trkpt lat="47.90328" lon="6.8162">
        <ele>778</ele>
        <time>2022-09-02T06:54:16Z</time>
      </trkpt>
      <trkpt lat="47.90327" lon="6.8162">
        <ele>778.2</ele>
        <time>2022-09-02T06:54:17Z</time>
      </trkpt>
      <trkpt lat="47.90326" lon="6.81621">
        <ele>778.2</ele>
        <time>2022-09-02T06:54:18Z</time>
      </trkpt>
      <trkpt lat="47.90325" lon="6.81621">
        <ele>778.4</ele>
        <time>2022-09-02T06:54:19Z</time>
      </trkpt>
      <trkpt lat="47.90324" lon="6.81622">
        <ele>778.3</ele>
        <time>2022-09-02T06:54:20Z</time>
      </trkpt>
      <trkpt lat="47.90323" lon="6.81623">
        <ele>778.3</ele>
        <time>2022-09-02T06:54:21Z</time>
      </trkpt>
      <trkpt lat="47.90322" lon="6.81623">
        <ele>778.5</ele>
        <time>2022-09-02T06:54:22Z</time>
      </trkpt>
      <trkpt lat="47.90321" lon="6.81624">
        <ele>778.4</ele>
        <time>2022-09-02T06:54:23Z</time>
      </trkpt>
      <trkpt lat="47.9032" lon="6.81624">
        <ele>778.6</ele>
        <time>2022-09-02T06:54:24Z</time>
      </trkpt>
      <trkpt lat="47.90319" lon="6.81625">
        <ele>778.6</ele>
        <time>2022-09-02T06:54:25Z</time>
      </trkpt>
      <trkpt lat="47.90318" lon="6.81626">
        <ele>778.5</ele>
        <time>2022-09-02T06:54:26Z</time>
      </trkpt>
      <trkpt lat="47.90317" lon="6.81626">
        <ele>778.7</ele>
        <time>2022-09-02T06:54:27Z</time>
      </trkpt>
      <trkpt lat="47.90316" lon="6.81627">
        <ele>778.7</ele>
        <time>2022-09-02T06:54:28Z</time>
      </trkpt>
      <trkpt lat="47.90315" lon="6.81628">
        <ele>778.7</ele>
        <time>2022-09-02T06:54:29Z</time>
      </trkpt>
      <trkpt lat="47.90314" lon="6.81628">
        <ele>778.8</ele>
        <time>2022-09-02T06:54:30Z</time>
      </trkpt>
      <trkpt lat="47.90313" lon="6.81629">
        <ele>778.8</ele>
        <time>2022-09-02T06:54:31Z</time>
      </trkpt>
      <trkpt lat="47.90312" lon="6.81629">
        <ele>779</ele>
        <time>2022-09-02T06:54:32Z</time>
      </trkpt>
      <trkpt lat="47.90312" lon="6.8163">
        <ele>778.8</ele>
        <time>2022-09-02T06:54:33Z</time>
      </trkpt>
      <trkpt lat="47.90311" lon="6.81631">
        <ele>778.7</ele>
        <time>2022-09-02T06:54:34Z</time>
      </trkpt>
      <trkpt lat="47.9031" lon="6.81632">
        <ele>778.7</ele>
        <time>2022-09-02T06:54:35Z</time>
      </trkpt>
      <trkpt lat="47.90309" lon="6.81633">
        <ele>778.7</ele>
        <time>2022-09-02T06:54:36Z</time>
      </trkpt>
      <trkpt lat="47.90308" lon="6.81634">
        <ele>778.6</ele>
        <time>2022-09-02T06:54:37Z</time>
      </trkpt>
      <trkpt lat="47.90307" lon="6.81636">
        <ele>778.4</ele>
        <time>2022-09-02T06:54:38Z</time>
      </trkpt>
      <trkpt lat="47.90306" lon="6.81637">
        <ele>778.3</ele>
        <time>2022-09-02T06:54:39Z</time>
      </trkpt>
      <trkpt lat="47.90305" lon="6.81638">
        <ele>778.3</ele>
        <time>2022-09-02T06:54:40Z</time>
      </trkpt>
      <trkpt lat="47.90304" lon="6.81639">
        <ele>778.2</ele>
        <time>2022-09-02T06:54:41Z</time>
      </trkpt>
      <trkpt lat="47.90303" lon="6.8164">
        <ele>778.2</ele>
        <time>2022-09-02T06:54:42Z</time>
      </trkpt>
      <trkpt lat="47.90302" lon="6.81641">
        <ele>778.1</ele>
        <time>2022-09-02T06:54:43Z</time>
      </trkpt>
      <trkpt lat="47.90301" lon="6.81641">
        <ele>778.3</ele>
        <time>2022-09-02T06:54:44Z</time>
      </trkpt>
      <trkpt lat="47.903" lon="6.81642">
        <ele>778.3</ele>
        <time>2022-09-02T06:54:45Z</time>
      </trkpt>
      <trkpt lat="47.90299" lon="6.81643">
        <ele>778.2</ele>
        <time>2022-09-02T06:54:46Z</time>
      </trkpt>
      <trkpt lat="47.90298" lon="6.81644">
        <ele>778.2</ele>
        <time>2022-09-02T06:54:47Z</time>
      </trkpt>
      <trkpt lat="47.90297" lon="6.81644">
        <ele>778.4</ele>
        <time>2022-09-02T06:54:48Z</time>
      </trkpt>
      <trkpt lat="47.90295" lon="6.81645">
        <ele>778.5</ele>
        <time>2022-09-02T06:54:49Z</time>
      </trkpt>
      <trkpt lat="47.90294" lon="6.81646">
        <ele>778.5</ele>
        <time>2022-09-02T06:54:50Z</time>
      </trkpt>
      <trkpt lat="47.90293" lon="6.81646">
        <ele>778.6</ele>
        <time>2022-09-02T06:54:51Z</time>
      </trkpt>
      <trkpt lat="47.90292" lon="6.81647">
        <ele>778.6</ele>
        <time>2022-09-02T06:54:52Z</time>
      </trkpt>
      <trkpt lat="47.90291" lon="6.81648">
        <ele>778.6</ele>
        <time>2022-09-02T06:54:53Z</time>
      </trkpt>
      <trkpt lat="47.90291" lon="6.81649">
        <ele>778.5</ele>
        <time>2022-09-02T06:54:54Z</time>
      </trkpt>
      <trkpt lat="47.9029" lon="6.8165">
        <ele>778.5</ele>
        <time>2022-09-02T06:54:55Z</time>
      </trkpt>
      <trkpt lat="47.90289" lon="6.8165">
        <ele>778.6</ele>
        <time>2022-09-02T06:54:56Z</time>
      </trkpt>
      <trkpt lat="47.90288" lon="6.81651">
        <ele>778.6</ele>
        <time>2022-09-02T06:54:57Z</time>
      </trkpt>
      <trkpt lat="47.90287" lon="6.81652">
        <ele>778.6</ele>
        <time>2022-09-02T06:54:58Z</time>
      </trkpt>
      <trkpt lat="47.90286" lon="6.81653">
        <ele>778.6</ele>
        <time>2022-09-02T06:54:59Z</time>
      </trkpt>
      <trkpt lat="47.90285" lon="6.81654">
        <ele>778.6</ele>
        <time>2022-09-02T06:55:00Z</time>
      </trkpt>
      <trkpt lat="47.90284" lon="6.81655">
        <ele>778.7</ele>
        <time>2022-09-02T06:55:01Z</time>
      </trkpt>
      <trkpt lat="47.90283" lon="6.81656">
        <ele>778.7</ele>
        <time>2022-09-02T06:55:02Z</time>
      </trkpt>
      <trkpt lat="47.90282" lon="6.81657">
        <ele>778.7</ele>
        <time>2022-09-02T06:55:03Z</time>
      </trkpt>
      <trkpt lat="47.90281" lon="6.81658">
        <ele>778.7</ele>
        <time>2022-09-02T06:55:04Z</time>
      </trkpt>
      <trkpt lat="47.9028" lon="6.81659">
        <ele>778.7</ele>
        <time>2022-09-02T06:55:05Z</time>
      </trkpt>
      <trkpt lat="47.90279" lon="6.8166">
        <ele>778.8</ele>
        <time>2022-09-02T06:55:06Z</time>
      </trkpt>
      <trkpt lat="47.90278" lon="6.81661">
        <ele>778.8</ele>
        <time>2022-09-02T06:55:07Z</time>
      </trkpt>
      <trkpt lat="47.90277" lon="6.81662">
        <ele>778.9</ele>
        <time>2022-09-02T06:55:08Z</time>
      </trkpt>
      <trkpt lat="47.90277" lon="6.81663">
        <ele>778.7</ele>
        <time>2022-09-02T06:55:09Z</time>
      </trkpt>
      <trkpt lat="47.90276" lon="6.81664">
        <ele>778.8</ele>
        <time>2022-09-02T06:55:10Z</time>
      </trkpt>
      <trkpt lat="47.90275" lon="6.81665">
        <ele>778.9</ele>
        <time>2022-09-02T06:55:11Z</time>
      </trkpt>
      <trkpt lat="47.90274" lon="6.81666">
        <ele>778.9</ele>
        <time>2022-09-02T06:55:12Z</time>
      </trkpt>
      <trkpt lat="47.90273" lon="6.81667">
        <ele>779</ele>
        <time>2022-09-02T06:55:13Z</time>
      </trkpt>
      <trkpt lat="47.90272" lon="6.81668">
        <ele>779.1</ele>
        <time>2022-09-02T06:55:14Z</time>
      </trkpt>
      <trkpt lat="47.90271" lon="6.81669">
        <ele>779.1</ele>
        <time>2022-09-02T06:55:15Z</time>
      </trkpt>
      <trkpt lat="47.90271" lon="6.8167">
        <ele>779</ele>
        <time>2022-09-02T06:55:16Z</time>
      </trkpt>
      <trkpt lat="47.9027" lon="6.81671">
        <ele>779.1</ele>
        <time>2022-09-02T06:55:17Z</time>
      </trkpt>
      <trkpt lat="47.90269" lon="6.81672">
        <ele>779.2</ele>
        <time>2022-09-02T06:55:18Z</time>
      </trkpt>
      <trkpt lat="47.90268" lon="6.81673">
        <ele>779.3</ele>
        <time>2022-09-02T06:55:19Z</time>
      </trkpt>
      <trkpt lat="47.90267" lon="6.81675">
        <ele>779.2</ele>
        <time>2022-09-02T06:55:20Z</time>
      </trkpt>
      <trkpt lat="47.90266" lon="6.81676">
        <ele>779.3</ele>
        <time>2022-09-02T06:55:21Z</time>
      </trkpt>
      <trkpt lat="47.90266" lon="6.81677">
        <ele>779.2</ele>
        <time>2022-09-02T06:55:22Z</time>
      </trkpt>
      <trkpt lat="47.90265" lon="6.81678">
        <ele>779.3</ele>
        <time>2022-09-02T06:55:23Z</time>
      </trkpt>
      <trkpt lat="47.90264" lon="6.8168">
        <ele>779.3</ele>
        <time>2022-09-02T06:55:24Z</time>
      </trkpt>
      <trkpt lat="47.90263" lon="6.81681">
        <ele>779.4</ele>
        <time>2022-09-02T06:55:25Z</time>
      </trkpt>
      <trkpt lat="47.90262" lon="6.81682">
        <ele>779.5</ele>
        <time>2022-09-02T06:55:26Z</time>
      </trkpt>
      <trkpt lat="47.90261" lon="6.81684">
        <ele>779.5</ele>
        <time>2022-09-02T06:55:27Z</time>
      </trkpt>
      <trkpt lat="47.90261" lon="6.81685">
        <ele>779.4</ele>
        <time>2022-09-02T06:55:28Z</time>
      </trkpt>
      <trkpt lat="47.9026" lon="6.81686">
        <ele>779.5</ele>
        <time>2022-09-02T06:55:29Z</time>
      </trkpt>
      <trkpt lat="47.90259" lon="6.81687">
        <ele>779.6</ele>
        <time>2022-09-02T06:55:30Z</time>
      </trkpt>
      <trkpt lat="47.90259" lon="6.81689">
        <ele>779.4</ele>
        <time>2022-09-02T06:55:31Z</time>
      </trkpt>
      <trkpt lat="47.90258" lon="6.8169">
        <ele>779.5</ele>
        <time>2022-09-02T06:55:32Z</time>
      </trkpt>
      <trkpt lat="47.90257" lon="6.81691">
        <ele>779.6</ele>
        <time>2022-09-02T06:55:33Z</time>
      </trkpt>
      <trkpt lat="47.90256" lon="6.81692">
        <ele>779.8</ele>
        <time>2022-09-02T06:55:34Z</time>
      </trkpt>
      <trkpt lat="47.90255" lon="6.81693">
        <ele>779.9</ele>
        <time>2022-09-02T06:55:35Z</time>
      </trkpt>
      <trkpt lat="47.90254" lon="6.81695">
        <ele>779.9</ele>
        <time>2022-09-02T06:55:36Z</time>
      </trkpt>
      <trkpt lat="47.90254" lon="6.81696">
        <ele>779.8</ele>
        <time>2022-09-02T06:55:37Z</time>
      </trkpt>
      <trkpt lat="47.90253" lon="6.81697">
        <ele>780</ele>
        <time>2022-09-02T06:55:38Z</time>
      </trkpt>
      <trkpt lat="47.90253" lon="6.81698">
        <ele>779.9</ele>
        <time>2022-09-02T06:55:39Z</time>
      </trkpt>
      <trkpt lat="47.90252" lon="6.81699">
        <ele>780</ele>
        <time>2022-09-02T06:55:40Z</time>
      </trkpt>
      <trkpt lat="47.90252" lon="6.81701">
        <ele>779.8</ele>
        <time>2022-09-02T06:55:41Z</time>
      </trkpt>
      <trkpt lat="47.90251" lon="6.81702">
        <ele>779.9</ele>
        <time>2022-09-02T06:55:42Z</time>
      </trkpt>
      <trkpt lat="47.90251" lon="6.81703">
        <ele>779.8</ele>
        <time>2022-09-02T06:55:43Z</time>
      </trkpt>
      <trkpt lat="47.9025" lon="6.81705">
        <ele>779.9</ele>
        <time>2022-09-02T06:55:44Z</time>
      </trkpt>
      <trkpt lat="47.9025" lon="6.81706">
        <ele>779.8</ele>
        <time>2022-09-02T06:55:45Z</time>
      </trkpt>
      <trkpt lat="47.90249" lon="6.81707">
        <ele>779.9</ele>
        <time>2022-09-02T06:55:46Z</time>
      </trkpt>
      <trkpt lat="47.90248" lon="6.81708">
        <ele>780.1</ele>
        <time>2022-09-02T06:55:47Z</time>
      </trkpt>
      <trkpt lat="47.90248" lon="6.81709">
        <ele>780</ele>
        <time>2022-09-02T06:55:48Z</time>
      </trkpt>
      <trkpt lat="47.90247" lon="6.81711">
        <ele>780.2</ele>
        <time>2022-09-02T06:55:49Z</time>
      </trkpt>
      <trkpt lat="47.90247" lon="6.81712">
        <ele>780.1</ele>
        <time>2022-09-02T06:55:50Z</time>
      </trkpt>
      <trkpt lat="47.90246" lon="6.81713">
        <ele>780.3</ele>
        <time>2022-09-02T06:55:51Z</time>
      </trkpt>
      <trkpt lat="47.90245" lon="6.81715">
        <ele>780.4</ele>
        <time>2022-09-02T06:55:52Z</time>
      </trkpt>
      <trkpt lat="47.90245" lon="6.81716">
        <ele>780.4</ele>
        <time>2022-09-02T06:55:53Z</time>
      </trkpt>
      <trkpt lat="47.90244" lon="6.81717">
        <ele>780.6</ele>
        <time>2022-09-02T06:55:54Z</time>
      </trkpt>
      <trkpt lat="47.90244" lon="6.81719">
        <ele>780.4</ele>
        <time>2022-09-02T06:55:55Z</time>
      </trkpt>
      <trkpt lat="47.90243" lon="6.8172">
        <ele>780.7</ele>
        <time>2022-09-02T06:55:56Z</time>
      </trkpt>
      <trkpt lat="47.90243" lon="6.81722">
        <ele>780.5</ele>
        <time>2022-09-02T06:55:57Z</time>
      </trkpt>
      <trkpt lat="47.90242" lon="6.81723">
        <ele>780.8</ele>
        <time>2022-09-02T06:55:58Z</time>
      </trkpt>
      <trkpt lat="47.90241" lon="6.81725">
        <ele>781.1</ele>
        <time>2022-09-02T06:55:59Z</time>
      </trkpt>
      <trkpt lat="47.90241" lon="6.81727">
        <ele>781</ele>
        <time>2022-09-02T06:56:00Z</time>
      </trkpt>
      <trkpt lat="47.9024" lon="6.81728">
        <ele>781.3</ele>
        <time>2022-09-02T06:56:01Z</time>
      </trkpt>
      <trkpt lat="47.9024" lon="6.8173">
        <ele>781.2</ele>
        <time>2022-09-02T06:56:02Z</time>
      </trkpt>
      <trkpt lat="47.90239" lon="6.81731">
        <ele>781.5</ele>
        <time>2022-09-02T06:56:03Z</time>
      </trkpt>
      <trkpt lat="47.90239" lon="6.81732">
        <ele>781.5</ele>
        <time>2022-09-02T06:56:04Z</time>
      </trkpt>
      <trkpt lat="47.90238" lon="6.81734">
        <ele>781.7</ele>
        <time>2022-09-02T06:56:05Z</time>
      </trkpt>
      <trkpt lat="47.90238" lon="6.81735">
        <ele>781.7</ele>
        <time>2022-09-02T06:56:06Z</time>
      </trkpt>
      <trkpt lat="47.90237" lon="6.81737">
        <ele>781.9</ele>
        <time>2022-09-02T06:56:07Z</time>
      </trkpt>
      <trkpt lat="47.90237" lon="6.81738">
        <ele>781.8</ele>
        <time>2022-09-02T06:56:08Z</time>
      </trkpt>
      <trkpt lat="47.90237" lon="6.8174">
        <ele>781.7</ele>
        <time>2022-09-02T06:56:09Z</time>
      </trkpt>
      <trkpt lat="47.90236" lon="6.81741">
        <ele>782</ele>
        <time>2022-09-02T06:56:10Z</time>
      </trkpt>
      <trkpt lat="47.90236" lon="6.81742">
        <ele>782</ele>
        <time>2022-09-02T06:56:11Z</time>
      </trkpt>
      <trkpt lat="47.90236" lon="6.81744">
        <ele>781.9</ele>
        <time>2022-09-02T06:56:12Z</time>
      </trkpt>
      <trkpt lat="47.90235" lon="6.81745">
        <ele>782.1</ele>
        <time>2022-09-02T06:56:13Z</time>
      </trkpt>
      <trkpt lat="47.90235" lon="6.81747">
        <ele>782</ele>
        <time>2022-09-02T06:56:14Z</time>
      </trkpt>
      <trkpt lat="47.90234" lon="6.81748">
        <ele>782.3</ele>
        <time>2022-09-02T06:56:15Z</time>
      </trkpt>
      <trkpt lat="47.90234" lon="6.8175">
        <ele>782.2</ele>
        <time>2022-09-02T06:56:16Z</time>
      </trkpt>
      <trkpt lat="47.90234" lon="6.81751">
        <ele>782.2</ele>
        <time>2022-09-02T06:56:17Z</time>
      </trkpt>
      <trkpt lat="47.90233" lon="6.81753">
        <ele>782.5</ele>
        <time>2022-09-02T06:56:18Z</time>
      </trkpt>
      <trkpt lat="47.90233" lon="6.81754">
        <ele>782.5</ele>
        <time>2022-09-02T06:56:19Z</time>
      </trkpt>
      <trkpt lat="47.90232" lon="6.81756">
        <ele>782.8</ele>
        <time>2022-09-02T06:56:20Z</time>
      </trkpt>
      <trkpt lat="47.90232" lon="6.81757">
        <ele>782.8</ele>
        <time>2022-09-02T06:56:21Z</time>
      </trkpt>
      <trkpt lat="47.90231" lon="6.81759">
        <ele>783.2</ele>
        <time>2022-09-02T06:56:22Z</time>
      </trkpt>
      <trkpt lat="47.90231" lon="6.8176">
        <ele>783.2</ele>
        <time>2022-09-02T06:56:23Z</time>
      </trkpt>
      <trkpt lat="47.9023" lon="6.81762">
        <ele>783.5</ele>
        <time>2022-09-02T06:56:24Z</time>
      </trkpt>
      <trkpt lat="47.9023" lon="6.81763">
        <ele>783.5</ele>
        <time>2022-09-02T06:56:25Z</time>
      </trkpt>
      <trkpt lat="47.9023" lon="6.81765">
        <ele>783.5</ele>
        <time>2022-09-02T06:56:26Z</time>
      </trkpt>
      <trkpt lat="47.90229" lon="6.81766">
        <ele>783.8</ele>
        <time>2022-09-02T06:56:27Z</time>
      </trkpt>
      <trkpt lat="47.90229" lon="6.81767">
        <ele>783.8</ele>
        <time>2022-09-02T06:56:28Z</time>
      </trkpt>
      <trkpt lat="47.90228" lon="6.81768">
        <ele>784.1</ele>
        <time>2022-09-02T06:56:29Z</time>
      </trkpt>
      <trkpt lat="47.90228" lon="6.8177">
        <ele>784.1</ele>
        <time>2022-09-02T06:56:30Z</time>
      </trkpt>
      <trkpt lat="47.90227" lon="6.81771">
        <ele>784.5</ele>
        <time>2022-09-02T06:56:31Z</time>
      </trkpt>
      <trkpt lat="47.90227" lon="6.81772">
        <ele>784.5</ele>
        <time>2022-09-02T06:56:32Z</time>
      </trkpt>
      <trkpt lat="47.90226" lon="6.81774">
        <ele>784.8</ele>
        <time>2022-09-02T06:56:33Z</time>
      </trkpt>
      <trkpt lat="47.90226" lon="6.81775">
        <ele>784.8</ele>
        <time>2022-09-02T06:56:34Z</time>
      </trkpt>
      <trkpt lat="47.90226" lon="6.81777">
        <ele>784.8</ele>
        <time>2022-09-02T06:56:35Z</time>
      </trkpt>
      <trkpt lat="47.90225" lon="6.81778">
        <ele>785.1</ele>
        <time>2022-09-02T06:56:36Z</time>
      </trkpt>
      <trkpt lat="47.90225" lon="6.8178">
        <ele>785</ele>
        <time>2022-09-02T06:56:37Z</time>
      </trkpt>
      <trkpt lat="47.90225" lon="6.81781">
        <ele>785</ele>
        <time>2022-09-02T06:56:38Z</time>
      </trkpt>
      <trkpt lat="47.90224" lon="6.81783">
        <ele>785.2</ele>
        <time>2022-09-02T06:56:39Z</time>
      </trkpt>
      <trkpt lat="47.90224" lon="6.81784">
        <ele>785.2</ele>
        <time>2022-09-02T06:56:40Z</time>
      </trkpt>
      <trkpt lat="47.90224" lon="6.81786">
        <ele>785.1</ele>
        <time>2022-09-02T06:56:41Z</time>
      </trkpt>
      <trkpt lat="47.90224" lon="6.81787">
        <ele>785.1</ele>
        <time>2022-09-02T06:56:42Z</time>
      </trkpt>
      <trkpt lat="47.90223" lon="6.81789">
        <ele>785.3</ele>
        <time>2022-09-02T06:56:43Z</time>
      </trkpt>
      <trkpt lat="47.90223" lon="6.8179">
        <ele>785.3</ele>
        <time>2022-09-02T06:56:44Z</time>
      </trkpt>
      <trkpt lat="47.90222" lon="6.81792">
        <ele>785.6</ele>
        <time>2022-09-02T06:56:45Z</time>
      </trkpt>
      <trkpt lat="47.90222" lon="6.81793">
        <ele>785.5</ele>
        <time>2022-09-02T06:56:46Z</time>
      </trkpt>
      <trkpt lat="47.90221" lon="6.81795">
        <ele>785.7</ele>
        <time>2022-09-02T06:56:47Z</time>
      </trkpt>
      <trkpt lat="47.90221" lon="6.81796">
        <ele>785.7</ele>
        <time>2022-09-02T06:56:48Z</time>
      </trkpt>
      <trkpt lat="47.9022" lon="6.81798">
        <ele>785.9</ele>
        <time>2022-09-02T06:56:49Z</time>
      </trkpt>
      <trkpt lat="47.90219" lon="6.81799">
        <ele>786.2</ele>
        <time>2022-09-02T06:56:50Z</time>
      </trkpt>
      <trkpt lat="47.90219" lon="6.818">
        <ele>786.2</ele>
        <time>2022-09-02T06:56:51Z</time>
      </trkpt>
      <trkpt lat="47.90218" lon="6.81802">
        <ele>786.4</ele>
        <time>2022-09-02T06:56:52Z</time>
      </trkpt>
      <trkpt lat="47.90217" lon="6.81803">
        <ele>786.6</ele>
        <time>2022-09-02T06:56:53Z</time>
      </trkpt>
      <trkpt lat="47.90217" lon="6.81805">
        <ele>786.5</ele>
        <time>2022-09-02T06:56:54Z</time>
      </trkpt>
      <trkpt lat="47.90216" lon="6.81806">
        <ele>786.8</ele>
        <time>2022-09-02T06:56:55Z</time>
      </trkpt>
      <trkpt lat="47.90216" lon="6.81807">
        <ele>786.7</ele>
        <time>2022-09-02T06:56:56Z</time>
      </trkpt>
      <trkpt lat="47.90215" lon="6.81809">
        <ele>786.8</ele>
        <time>2022-09-02T06:56:57Z</time>
      </trkpt>
      <trkpt lat="47.90214" lon="6.8181">
        <ele>787</ele>
        <time>2022-09-02T06:56:58Z</time>
      </trkpt>
      <trkpt lat="47.90214" lon="6.81811">
        <ele>786.9</ele>
        <time>2022-09-02T06:56:59Z</time>
      </trkpt>
      <trkpt lat="47.90213" lon="6.81813">
        <ele>787</ele>
        <time>2022-09-02T06:57:00Z</time>
      </trkpt>
      <trkpt lat="47.90212" lon="6.81814">
        <ele>787.2</ele>
        <time>2022-09-02T06:57:01Z</time>
      </trkpt>
      <trkpt lat="47.90211" lon="6.81815">
        <ele>787.4</ele>
        <time>2022-09-02T06:57:02Z</time>
      </trkpt>
      <trkpt lat="47.90211" lon="6.81817">
        <ele>787.2</ele>
        <time>2022-09-02T06:57:03Z</time>
      </trkpt>
      <trkpt lat="47.9021" lon="6.81818">
        <ele>787.4</ele>
        <time>2022-09-02T06:57:04Z</time>
      </trkpt>
      <trkpt lat="47.90209" lon="6.81819">
        <ele>787.6</ele>
        <time>2022-09-02T06:57:05Z</time>
      </trkpt>
      <trkpt lat="47.90209" lon="6.8182">
        <ele>787.5</ele>
        <time>2022-09-02T06:57:06Z</time>
      </trkpt>
      <trkpt lat="47.90208" lon="6.81821">
        <ele>787.7</ele>
        <time>2022-09-02T06:57:07Z</time>
      </trkpt>
      <trkpt lat="47.90207" lon="6.81823">
        <ele>787.8</ele>
        <time>2022-09-02T06:57:08Z</time>
      </trkpt>
      <trkpt lat="47.90207" lon="6.81824">
        <ele>787.7</ele>
        <time>2022-09-02T06:57:09Z</time>
      </trkpt>
      <trkpt lat="47.90206" lon="6.81825">
        <ele>787.9</ele>
        <time>2022-09-02T06:57:10Z</time>
      </trkpt>
      <trkpt lat="47.90205" lon="6.81826">
        <ele>788</ele>
        <time>2022-09-02T06:57:11Z</time>
      </trkpt>
      <trkpt lat="47.90205" lon="6.81828">
        <ele>787.8</ele>
        <time>2022-09-02T06:57:12Z</time>
      </trkpt>
      <trkpt lat="47.90204" lon="6.81829">
        <ele>788</ele>
        <time>2022-09-02T06:57:13Z</time>
      </trkpt>
      <trkpt lat="47.90203" lon="6.8183">
        <ele>788.2</ele>
        <time>2022-09-02T06:57:14Z</time>
      </trkpt>
      <trkpt lat="47.90203" lon="6.81831">
        <ele>788.1</ele>
        <time>2022-09-02T06:57:15Z</time>
      </trkpt>
      <trkpt lat="47.90202" lon="6.81833">
        <ele>788.1</ele>
        <time>2022-09-02T06:57:16Z</time>
      </trkpt>
      <trkpt lat="47.90201" lon="6.81834">
        <ele>788.3</ele>
        <time>2022-09-02T06:57:17Z</time>
      </trkpt>
      <trkpt lat="47.902" lon="6.81835">
        <ele>788.5</ele>
        <time>2022-09-02T06:57:18Z</time>
      </trkpt>
      <trkpt lat="47.90199" lon="6.81836">
        <ele>788.7</ele>
        <time>2022-09-02T06:57:19Z</time>
      </trkpt>
      <trkpt lat="47.90199" lon="6.81837">
        <ele>788.7</ele>
        <time>2022-09-02T06:57:20Z</time>
      </trkpt>
      <trkpt lat="47.90198" lon="6.81839">
        <ele>788.9</ele>
        <time>2022-09-02T06:57:21Z</time>
      </trkpt>
      <trkpt lat="47.90197" lon="6.8184">
        <ele>789.1</ele>
        <time>2022-09-02T06:57:22Z</time>
      </trkpt>
      <trkpt lat="47.90197" lon="6.81841">
        <ele>789.1</ele>
        <time>2022-09-02T06:57:23Z</time>
      </trkpt>
      <trkpt lat="47.90196" lon="6.81843">
        <ele>789.2</ele>
        <time>2022-09-02T06:57:24Z</time>
      </trkpt>
      <trkpt lat="47.90195" lon="6.81844">
        <ele>789.5</ele>
        <time>2022-09-02T06:57:25Z</time>
      </trkpt>
      <trkpt lat="47.90194" lon="6.81845">
        <ele>789.7</ele>
        <time>2022-09-02T06:57:26Z</time>
      </trkpt>
      <trkpt lat="47.90194" lon="6.81847">
        <ele>789.6</ele>
        <time>2022-09-02T06:57:27Z</time>
      </trkpt>
      <trkpt lat="47.90193" lon="6.81848">
        <ele>789.9</ele>
        <time>2022-09-02T06:57:28Z</time>
      </trkpt>
      <trkpt lat="47.90192" lon="6.8185">
        <ele>790.1</ele>
        <time>2022-09-02T06:57:29Z</time>
      </trkpt>
      <trkpt lat="47.90191" lon="6.81851">
        <ele>790.3</ele>
        <time>2022-09-02T06:57:30Z</time>
      </trkpt>
      <trkpt lat="47.90191" lon="6.81852">
        <ele>790.3</ele>
        <time>2022-09-02T06:57:31Z</time>
      </trkpt>
      <trkpt lat="47.9019" lon="6.81854">
        <ele>790.5</ele>
        <time>2022-09-02T06:57:32Z</time>
      </trkpt>
      <trkpt lat="47.90189" lon="6.81855">
        <ele>790.7</ele>
        <time>2022-09-02T06:57:33Z</time>
      </trkpt>
      <trkpt lat="47.90189" lon="6.81856">
        <ele>790.6</ele>
        <time>2022-09-02T06:57:34Z</time>
      </trkpt>
      <trkpt lat="47.90188" lon="6.81857">
        <ele>790.8</ele>
        <time>2022-09-02T06:57:35Z</time>
      </trkpt>
      <trkpt lat="47.90188" lon="6.81859">
        <ele>790.7</ele>
        <time>2022-09-02T06:57:36Z</time>
      </trkpt>
      <trkpt lat="47.90187" lon="6.8186">
        <ele>790.9</ele>
        <time>2022-09-02T06:57:37Z</time>
      </trkpt>
      <trkpt lat="47.90186" lon="6.81862">
        <ele>791.1</ele>
        <time>2022-09-02T06:57:38Z</time>
      </trkpt>
      <trkpt lat="47.90186" lon="6.81863">
        <ele>791</ele>
        <time>2022-09-02T06:57:39Z</time>
      </trkpt>
      <trkpt lat="47.90185" lon="6.81865">
        <ele>791.1</ele>
        <time>2022-09-02T06:57:40Z</time>
      </trkpt>
      <trkpt lat="47.90185" lon="6.81866">
        <ele>791.1</ele>
        <time>2022-09-02T06:57:41Z</time>
      </trkpt>
      <trkpt lat="47.90185" lon="6.81868">
        <ele>791</ele>
        <time>2022-09-02T06:57:42Z</time>
      </trkpt>
      <trkpt lat="47.90184" lon="6.81869">
        <ele>791.2</ele>
        <time>2022-09-02T06:57:43Z</time>
      </trkpt>
      <trkpt lat="47.90184" lon="6.81871">
        <ele>791.1</ele>
        <time>2022-09-02T06:57:44Z</time>
      </trkpt>
      <trkpt lat="47.90184" lon="6.81872">
        <ele>791</ele>
        <time>2022-09-02T06:57:45Z</time>
      </trkpt>
      <trkpt lat="47.90183" lon="6.81874">
        <ele>791.1</ele>
        <time>2022-09-02T06:57:46Z</time>
      </trkpt>
      <trkpt lat="47.90183" lon="6.81875">
        <ele>791.1</ele>
        <time>2022-09-02T06:57:47Z</time>
      </trkpt>
      <trkpt lat="47.90183" lon="6.81877">
        <ele>791</ele>
        <time>2022-09-02T06:57:48Z</time>
      </trkpt>
      <trkpt lat="47.90182" lon="6.81878">
        <ele>791.2</ele>
        <time>2022-09-02T06:57:49Z</time>
      </trkpt>
      <trkpt lat="47.90182" lon="6.8188">
        <ele>791.1</ele>
        <time>2022-09-02T06:57:50Z</time>
      </trkpt>
      <trkpt lat="47.90181" lon="6.81881">
        <ele>791.3</ele>
        <time>2022-09-02T06:57:51Z</time>
      </trkpt>
      <trkpt lat="47.90181" lon="6.81883">
        <ele>791.2</ele>
        <time>2022-09-02T06:57:52Z</time>
      </trkpt>
      <trkpt lat="47.90181" lon="6.81884">
        <ele>791.1</ele>
        <time>2022-09-02T06:57:53Z</time>
      </trkpt>
      <trkpt lat="47.9018" lon="6.81886">
        <ele>791.3</ele>
        <time>2022-09-02T06:57:54Z</time>
      </trkpt>
      <trkpt lat="47.9018" lon="6.81887">
        <ele>791.3</ele>
        <time>2022-09-02T06:57:55Z</time>
      </trkpt>
      <trkpt lat="47.9018" lon="6.81889">
        <ele>791.2</ele>
        <time>2022-09-02T06:57:56Z</time>
      </trkpt>
      <trkpt lat="47.9018" lon="6.8189">
        <ele>791.2</ele>
        <time>2022-09-02T06:57:57Z</time>
      </trkpt>
      <trkpt lat="47.9018" lon="6.81892">
        <ele>791.2</ele>
        <time>2022-09-02T06:57:58Z</time>
      </trkpt>
      <trkpt lat="47.9018" lon="6.81894">
        <ele>791.3</ele>
        <time>2022-09-02T06:57:59Z</time>
      </trkpt>
      <trkpt lat="47.9018" lon="6.81895">
        <ele>791.3</ele>
        <time>2022-09-02T06:58:00Z</time>
      </trkpt>
      <trkpt lat="47.9018" lon="6.81897">
        <ele>791.3</ele>
        <time>2022-09-02T06:58:01Z</time>
      </trkpt>
      <trkpt lat="47.9018" lon="6.81899">
        <ele>791.3</ele>
        <time>2022-09-02T06:58:02Z</time>
      </trkpt>
      <trkpt lat="47.90179" lon="6.81901">
        <ele>791.7</ele>
        <time>2022-09-02T06:58:03Z</time>
      </trkpt>
      <trkpt lat="47.90179" lon="6.81902">
        <ele>791.7</ele>
        <time>2022-09-02T06:58:04Z</time>
      </trkpt>
      <trkpt lat="47.90179" lon="6.81904">
        <ele>791.8</ele>
        <time>2022-09-02T06:58:05Z</time>
      </trkpt>
      <trkpt lat="47.90179" lon="6.81906">
        <ele>791.8</ele>
        <time>2022-09-02T06:58:06Z</time>
      </trkpt>
      <trkpt lat="47.90179" lon="6.81907">
        <ele>791.8</ele>
        <time>2022-09-02T06:58:07Z</time>
      </trkpt>
      <trkpt lat="47.90179" lon="6.81909">
        <ele>791.9</ele>
        <time>2022-09-02T06:58:08Z</time>
      </trkpt>
      <trkpt lat="47.9018" lon="6.8191">
        <ele>791.6</ele>
        <time>2022-09-02T06:58:09Z</time>
      </trkpt>
      <trkpt lat="47.9018" lon="6.81912">
        <ele>791.6</ele>
        <time>2022-09-02T06:58:10Z</time>
      </trkpt>
      <trkpt lat="47.9018" lon="6.81913">
        <ele>791.6</ele>
        <time>2022-09-02T06:58:11Z</time>
      </trkpt>
      <trkpt lat="47.9018" lon="6.81915">
        <ele>791.6</ele>
        <time>2022-09-02T06:58:12Z</time>
      </trkpt>
      <trkpt lat="47.9018" lon="6.81916">
        <ele>791.7</ele>
        <time>2022-09-02T06:58:13Z</time>
      </trkpt>
      <trkpt lat="47.9018" lon="6.81918">
        <ele>791.8</ele>
        <time>2022-09-02T06:58:14Z</time>
      </trkpt>
      <trkpt lat="47.9018" lon="6.8192">
        <ele>791.9</ele>
        <time>2022-09-02T06:58:15Z</time>
      </trkpt>
      <trkpt lat="47.9018" lon="6.81921">
        <ele>791.9</ele>
        <time>2022-09-02T06:58:16Z</time>
      </trkpt>
      <trkpt lat="47.9018" lon="6.81923">
        <ele>792</ele>
        <time>2022-09-02T06:58:17Z</time>
      </trkpt>
      <trkpt lat="47.9018" lon="6.81925">
        <ele>792.1</ele>
        <time>2022-09-02T06:58:18Z</time>
      </trkpt>
      <trkpt lat="47.90181" lon="6.81926">
        <ele>791.9</ele>
        <time>2022-09-02T06:58:19Z</time>
      </trkpt>
      <trkpt lat="47.90181" lon="6.81928">
        <ele>792</ele>
        <time>2022-09-02T06:58:20Z</time>
      </trkpt>
      <trkpt lat="47.90181" lon="6.81929">
        <ele>792</ele>
        <time>2022-09-02T06:58:21Z</time>
      </trkpt>
      <trkpt lat="47.90181" lon="6.81931">
        <ele>792.1</ele>
        <time>2022-09-02T06:58:22Z</time>
      </trkpt>
      <trkpt lat="47.90181" lon="6.81933">
        <ele>792.2</ele>
        <time>2022-09-02T06:58:23Z</time>
      </trkpt>
      <trkpt lat="47.90181" lon="6.81934">
        <ele>792.3</ele>
        <time>2022-09-02T06:58:24Z</time>
      </trkpt>
      <trkpt lat="47.90181" lon="6.81936">
        <ele>792.4</ele>
        <time>2022-09-02T06:58:25Z</time>
      </trkpt>
      <trkpt lat="47.90181" lon="6.81938">
        <ele>792.5</ele>
        <time>2022-09-02T06:58:26Z</time>
      </trkpt>
      <trkpt lat="47.90181" lon="6.81939">
        <ele>792.6</ele>
        <time>2022-09-02T06:58:27Z</time>
      </trkpt>
      <trkpt lat="47.90181" lon="6.81941">
        <ele>792.7</ele>
        <time>2022-09-02T06:58:28Z</time>
      </trkpt>
      <trkpt lat="47.90181" lon="6.81943">
        <ele>792.8</ele>
        <time>2022-09-02T06:58:29Z</time>
      </trkpt>
      <trkpt lat="47.90181" lon="6.81944">
        <ele>792.8</ele>
        <time>2022-09-02T06:58:30Z</time>
      </trkpt>
      <trkpt lat="47.90181" lon="6.81946">
        <ele>793</ele>
        <time>2022-09-02T06:58:31Z</time>
      </trkpt>
      <trkpt lat="47.90182" lon="6.81948">
        <ele>792.9</ele>
        <time>2022-09-02T06:58:32Z</time>
      </trkpt>
      <trkpt lat="47.90182" lon="6.81949">
        <ele>793</ele>
        <time>2022-09-02T06:58:33Z</time>
      </trkpt>
      <trkpt lat="47.90182" lon="6.81951">
        <ele>793.2</ele>
        <time>2022-09-02T06:58:34Z</time>
      </trkpt>
      <trkpt lat="47.90182" lon="6.81952">
        <ele>793.3</ele>
        <time>2022-09-02T06:58:35Z</time>
      </trkpt>
      <trkpt lat="47.90182" lon="6.81954">
        <ele>793.5</ele>
        <time>2022-09-02T06:58:36Z</time>
      </trkpt>
      <trkpt lat="47.90182" lon="6.81955">
        <ele>793.6</ele>
        <time>2022-09-02T06:58:37Z</time>
      </trkpt>
      <trkpt lat="47.90182" lon="6.81957">
        <ele>793.7</ele>
        <time>2022-09-02T06:58:38Z</time>
      </trkpt>
      <trkpt lat="47.90183" lon="6.81958">
        <ele>793.6</ele>
        <time>2022-09-02T06:58:39Z</time>
      </trkpt>
      <trkpt lat="47.90183" lon="6.8196">
        <ele>793.7</ele>
        <time>2022-09-02T06:58:40Z</time>
      </trkpt>
      <trkpt lat="47.90183" lon="6.81961">
        <ele>793.8</ele>
        <time>2022-09-02T06:58:41Z</time>
      </trkpt>
      <trkpt lat="47.90183" lon="6.81963">
        <ele>794</ele>
        <time>2022-09-02T06:58:42Z</time>
      </trkpt>
      <trkpt lat="47.90184" lon="6.81964">
        <ele>793.9</ele>
        <time>2022-09-02T06:58:43Z</time>
      </trkpt>
      <trkpt lat="47.90184" lon="6.81966">
        <ele>794</ele>
        <time>2022-09-02T06:58:44Z</time>
      </trkpt>
      <trkpt lat="47.90184" lon="6.81967">
        <ele>794.1</ele>
        <time>2022-09-02T06:58:45Z</time>
      </trkpt>
      <trkpt lat="47.90185" lon="6.81969">
        <ele>794.1</ele>
        <time>2022-09-02T06:58:46Z</time>
      </trkpt>
      <trkpt lat="47.90185" lon="6.8197">
        <ele>794.2</ele>
        <time>2022-09-02T06:58:47Z</time>
      </trkpt>
      <trkpt lat="47.90185" lon="6.81972">
        <ele>794.4</ele>
        <time>2022-09-02T06:58:48Z</time>
      </trkpt>
      <trkpt lat="47.90186" lon="6.81973">
        <ele>794.2</ele>
        <time>2022-09-02T06:58:49Z</time>
      </trkpt>
      <trkpt lat="47.90186" lon="6.81975">
        <ele>794.5</ele>
        <time>2022-09-02T06:58:50Z</time>
      </trkpt>
      <trkpt lat="47.90187" lon="6.81976">
        <ele>794.4</ele>
        <time>2022-09-02T06:58:51Z</time>
      </trkpt>
      <trkpt lat="47.90187" lon="6.81977">
        <ele>794.5</ele>
        <time>2022-09-02T06:58:52Z</time>
      </trkpt>
      <trkpt lat="47.90188" lon="6.81978">
        <ele>794.4</ele>
        <time>2022-09-02T06:58:53Z</time>
      </trkpt>
      <trkpt lat="47.90188" lon="6.8198">
        <ele>794.7</ele>
        <time>2022-09-02T06:58:54Z</time>
      </trkpt>
      <trkpt lat="47.90189" lon="6.81981">
        <ele>794.6</ele>
        <time>2022-09-02T06:58:55Z</time>
      </trkpt>
      <trkpt lat="47.90189" lon="6.81983">
        <ele>794.8</ele>
        <time>2022-09-02T06:58:56Z</time>
      </trkpt>
      <trkpt lat="47.9019" lon="6.81984">
        <ele>794.7</ele>
        <time>2022-09-02T06:58:57Z</time>
      </trkpt>
      <trkpt lat="47.9019" lon="6.81985">
        <ele>794.9</ele>
        <time>2022-09-02T06:58:58Z</time>
      </trkpt>
      <trkpt lat="47.90191" lon="6.81986">
        <ele>794.8</ele>
        <time>2022-09-02T06:58:59Z</time>
      </trkpt>
      <trkpt lat="47.90192" lon="6.81988">
        <ele>794.8</ele>
        <time>2022-09-02T06:59:00Z</time>
      </trkpt>
      <trkpt lat="47.90192" lon="6.81989">
        <ele>795</ele>
        <time>2022-09-02T06:59:01Z</time>
      </trkpt>
      <trkpt lat="47.90193" lon="6.8199">
        <ele>794.9</ele>
        <time>2022-09-02T06:59:02Z</time>
      </trkpt>
      <trkpt lat="47.90193" lon="6.81992">
        <ele>795.2</ele>
        <time>2022-09-02T06:59:03Z</time>
      </trkpt>
      <trkpt lat="47.90194" lon="6.81993">
        <ele>795.1</ele>
        <time>2022-09-02T06:59:04Z</time>
      </trkpt>
      <trkpt lat="47.90195" lon="6.81994">
        <ele>795.1</ele>
        <time>2022-09-02T06:59:05Z</time>
      </trkpt>
      <trkpt lat="47.90195" lon="6.81996">
        <ele>795.4</ele>
        <time>2022-09-02T06:59:06Z</time>
      </trkpt>
      <trkpt lat="47.90196" lon="6.81997">
        <ele>795.4</ele>
        <time>2022-09-02T06:59:07Z</time>
      </trkpt>
      <trkpt lat="47.90197" lon="6.81998">
        <ele>795.5</ele>
        <time>2022-09-02T06:59:08Z</time>
      </trkpt>
      <trkpt lat="47.90198" lon="6.82">
        <ele>795.7</ele>
        <time>2022-09-02T06:59:09Z</time>
      </trkpt>
      <trkpt lat="47.90199" lon="6.82001">
        <ele>795.9</ele>
        <time>2022-09-02T06:59:10Z</time>
      </trkpt>
      <trkpt lat="47.90199" lon="6.82002">
        <ele>796.1</ele>
        <time>2022-09-02T06:59:11Z</time>
      </trkpt>
      <trkpt lat="47.902" lon="6.82003">
        <ele>796.2</ele>
        <time>2022-09-02T06:59:12Z</time>
      </trkpt>
      <trkpt lat="47.90201" lon="6.82005">
        <ele>796.5</ele>
        <time>2022-09-02T06:59:13Z</time>
      </trkpt>
      <trkpt lat="47.90202" lon="6.82006">
        <ele>796.6</ele>
        <time>2022-09-02T06:59:14Z</time>
      </trkpt>
      <trkpt lat="47.90202" lon="6.82007">
        <ele>796.8</ele>
        <time>2022-09-02T06:59:15Z</time>
      </trkpt>
      <trkpt lat="47.90203" lon="6.82008">
        <ele>796.8</ele>
        <time>2022-09-02T06:59:16Z</time>
      </trkpt>
      <trkpt lat="47.90204" lon="6.82009">
        <ele>796.9</ele>
        <time>2022-09-02T06:59:17Z</time>
      </trkpt>
      <trkpt lat="47.90205" lon="6.8201">
        <ele>797</ele>
        <time>2022-09-02T06:59:18Z</time>
      </trkpt>
      <trkpt lat="47.90205" lon="6.82011">
        <ele>797.2</ele>
        <time>2022-09-02T06:59:19Z</time>
      </trkpt>
      <trkpt lat="47.90206" lon="6.82012">
        <ele>797.2</ele>
        <time>2022-09-02T06:59:20Z</time>
      </trkpt>
      <trkpt lat="47.90207" lon="6.82014">
        <ele>797.4</ele>
        <time>2022-09-02T06:59:21Z</time>
      </trkpt>
      <trkpt lat="47.90208" lon="6.82015">
        <ele>797.5</ele>
        <time>2022-09-02T06:59:22Z</time>
      </trkpt>
      <trkpt lat="47.90208" lon="6.82016">
        <ele>797.6</ele>
        <time>2022-09-02T06:59:23Z</time>
      </trkpt>
      <trkpt lat="47.90209" lon="6.82017">
        <ele>797.7</ele>
        <time>2022-09-02T06:59:24Z</time>
      </trkpt>
      <trkpt lat="47.9021" lon="6.82018">
        <ele>797.7</ele>
        <time>2022-09-02T06:59:25Z</time>
      </trkpt>
      <trkpt lat="47.90211" lon="6.82019">
        <ele>797.7</ele>
        <time>2022-09-02T06:59:26Z</time>
      </trkpt>
      <trkpt lat="47.90211" lon="6.8202">
        <ele>797.8</ele>
        <time>2022-09-02T06:59:27Z</time>
      </trkpt>
      <trkpt lat="47.90212" lon="6.82021">
        <ele>797.8</ele>
        <time>2022-09-02T06:59:28Z</time>
      </trkpt>
      <trkpt lat="47.90213" lon="6.82023">
        <ele>798</ele>
        <time>2022-09-02T06:59:29Z</time>
      </trkpt>
      <trkpt lat="47.90214" lon="6.82024">
        <ele>798</ele>
        <time>2022-09-02T06:59:30Z</time>
      </trkpt>
      <trkpt lat="47.90215" lon="6.82025">
        <ele>797.9</ele>
        <time>2022-09-02T06:59:31Z</time>
      </trkpt>
      <trkpt lat="47.90215" lon="6.82026">
        <ele>798.1</ele>
        <time>2022-09-02T06:59:32Z</time>
      </trkpt>
      <trkpt lat="47.90216" lon="6.82027">
        <ele>798</ele>
        <time>2022-09-02T06:59:33Z</time>
      </trkpt>
      <trkpt lat="47.90217" lon="6.82027">
        <ele>797.8</ele>
        <time>2022-09-02T06:59:34Z</time>
      </trkpt>
      <trkpt lat="47.90218" lon="6.82028">
        <ele>797.8</ele>
        <time>2022-09-02T06:59:35Z</time>
      </trkpt>
      <trkpt lat="47.90219" lon="6.8203">
        <ele>798</ele>
        <time>2022-09-02T06:59:36Z</time>
      </trkpt>
      <trkpt lat="47.9022" lon="6.82031">
        <ele>798</ele>
        <time>2022-09-02T06:59:37Z</time>
      </trkpt>
      <trkpt lat="47.90221" lon="6.82032">
        <ele>798</ele>
        <time>2022-09-02T06:59:38Z</time>
      </trkpt>
      <trkpt lat="47.90221" lon="6.82033">
        <ele>798.2</ele>
        <time>2022-09-02T06:59:39Z</time>
      </trkpt>
      <trkpt lat="47.90222" lon="6.82034">
        <ele>798.2</ele>
        <time>2022-09-02T06:59:40Z</time>
      </trkpt>
      <trkpt lat="47.90223" lon="6.82034">
        <ele>798</ele>
        <time>2022-09-02T06:59:41Z</time>
      </trkpt>
      <trkpt lat="47.90224" lon="6.82035">
        <ele>798</ele>
        <time>2022-09-02T06:59:42Z</time>
      </trkpt>
      <trkpt lat="47.90225" lon="6.82036">
        <ele>798.1</ele>
        <time>2022-09-02T06:59:43Z</time>
      </trkpt>
      <trkpt lat="47.90226" lon="6.82037">
        <ele>798.1</ele>
        <time>2022-09-02T06:59:44Z</time>
      </trkpt>
      <trkpt lat="47.90227" lon="6.82038">
        <ele>798.1</ele>
        <time>2022-09-02T06:59:45Z</time>
      </trkpt>
      <trkpt lat="47.90228" lon="6.82039">
        <ele>798.1</ele>
        <time>2022-09-02T06:59:46Z</time>
      </trkpt>
      <trkpt lat="47.90228" lon="6.8204">
        <ele>798.3</ele>
        <time>2022-09-02T06:59:47Z</time>
      </trkpt>
      <trkpt lat="47.90229" lon="6.82041">
        <ele>798.3</ele>
        <time>2022-09-02T06:59:48Z</time>
      </trkpt>
      <trkpt lat="47.9023" lon="6.82041">
        <ele>798.1</ele>
        <time>2022-09-02T06:59:49Z</time>
      </trkpt>
      <trkpt lat="47.90231" lon="6.82042">
        <ele>798.1</ele>
        <time>2022-09-02T06:59:50Z</time>
      </trkpt>
      <trkpt lat="47.90232" lon="6.82043">
        <ele>798.1</ele>
        <time>2022-09-02T06:59:51Z</time>
      </trkpt>
      <trkpt lat="47.90233" lon="6.82044">
        <ele>798.1</ele>
        <time>2022-09-02T06:59:52Z</time>
      </trkpt>
      <trkpt lat="47.90234" lon="6.82045">
        <ele>798.1</ele>
        <time>2022-09-02T06:59:53Z</time>
      </trkpt>
      <trkpt lat="47.90235" lon="6.82046">
        <ele>798.1</ele>
        <time>2022-09-02T06:59:54Z</time>
      </trkpt>
      <trkpt lat="47.90236" lon="6.82047">
        <ele>798.1</ele>
        <time>2022-09-02T06:59:55Z</time>
      </trkpt>
      <trkpt lat="47.90237" lon="6.82048">
        <ele>798.1</ele>
        <time>2022-09-02T06:59:56Z</time>
      </trkpt>
      <trkpt lat="47.90238" lon="6.82049">
        <ele>798.1</ele>
        <time>2022-09-02T06:59:57Z</time>
      </trkpt>
      <trkpt lat="47.90239" lon="6.8205">
        <ele>798.1</ele>
        <time>2022-09-02T06:59:58Z</time>
      </trkpt>
      <trkpt lat="47.9024" lon="6.82051">
        <ele>798.1</ele>
        <time>2022-09-02T06:59:59Z</time>
      </trkpt>
      <trkpt lat="47.90241" lon="6.82052">
        <ele>798.1</ele>
        <time>2022-09-02T07:00:00Z</time>
      </trkpt>
      <trkpt lat="47.90242" lon="6.82053">
        <ele>798</ele>
        <time>2022-09-02T07:00:01Z</time>
      </trkpt>
      <trkpt lat="47.90243" lon="6.82054">
        <ele>798</ele>
        <time>2022-09-02T07:00:02Z</time>
      </trkpt>
      <trkpt lat="47.90244" lon="6.82055">
        <ele>798</ele>
        <time>2022-09-02T07:00:03Z</time>
      </trkpt>
      <trkpt lat="47.90245" lon="6.82056">
        <ele>798</ele>
        <time>2022-09-02T07:00:04Z</time>
      </trkpt>
      <trkpt lat="47.90246" lon="6.82057">
        <ele>798</ele>
        <time>2022-09-02T07:00:05Z</time>
      </trkpt>
      <trkpt lat="47.90247" lon="6.82058">
        <ele>798</ele>
        <time>2022-09-02T07:00:06Z</time>
      </trkpt>
      <trkpt lat="47.90247" lon="6.82059">
        <ele>798.2</ele>
        <time>2022-09-02T07:00:07Z</time>
      </trkpt>
      <trkpt lat="47.90248" lon="6.8206">
        <ele>798.2</ele>
        <time>2022-09-02T07:00:08Z</time>
      </trkpt>
      <trkpt lat="47.90249" lon="6.82061">
        <ele>798.2</ele>
        <time>2022-09-02T07:00:09Z</time>
      </trkpt>
      <trkpt lat="47.9025" lon="6.82062">
        <ele>798.2</ele>
        <time>2022-09-02T07:00:10Z</time>
      </trkpt>
      <trkpt lat="47.90251" lon="6.82063">
        <ele>798.2</ele>
        <time>2022-09-02T07:00:11Z</time>
      </trkpt>
      <trkpt lat="47.90252" lon="6.82064">
        <ele>798.2</ele>
        <time>2022-09-02T07:00:12Z</time>
      </trkpt>
      <trkpt lat="47.90253" lon="6.82064">
        <ele>798.1</ele>
        <time>2022-09-02T07:00:13Z</time>
      </trkpt>
      <trkpt lat="47.90254" lon="6.82065">
        <ele>798.1</ele>
        <time>2022-09-02T07:00:14Z</time>
      </trkpt>
      <trkpt lat="47.90255" lon="6.82066">
        <ele>798.2</ele>
        <time>2022-09-02T07:00:15Z</time>
      </trkpt>
      <trkpt lat="47.90256" lon="6.82067">
        <ele>798.2</ele>
        <time>2022-09-02T07:00:16Z</time>
      </trkpt>
      <trkpt lat="47.90256" lon="6.82068">
        <ele>798.4</ele>
        <time>2022-09-02T07:00:17Z</time>
      </trkpt>
      <trkpt lat="47.90257" lon="6.82068">
        <ele>798.2</ele>
        <time>2022-09-02T07:00:18Z</time>
      </trkpt>
      <trkpt lat="47.90258" lon="6.82069">
        <ele>798.3</ele>
        <time>2022-09-02T07:00:20Z</time>
      </trkpt>
      <trkpt lat="47.90258" lon="6.8207">
        <ele>798.4</ele>
        <time>2022-09-02T07:00:21Z</time>
      </trkpt>
      <trkpt lat="47.90259" lon="6.8207">
        <ele>798.3</ele>
        <time>2022-09-02T07:00:22Z</time>
      </trkpt>
      <trkpt lat="47.9026" lon="6.82071">
        <ele>798.3</ele>
        <time>2022-09-02T07:00:23Z</time>
      </trkpt>
      <trkpt lat="47.90261" lon="6.82071">
        <ele>798.2</ele>
        <time>2022-09-02T07:00:24Z</time>
      </trkpt>
      <trkpt lat="47.90262" lon="6.82072">
        <ele>798.2</ele>
        <time>2022-09-02T07:00:25Z</time>
      </trkpt>
      <trkpt lat="47.90263" lon="6.82073">
        <ele>798.3</ele>
        <time>2022-09-02T07:00:26Z</time>
      </trkpt>
      <trkpt lat="47.90264" lon="6.82073">
        <ele>798.1</ele>
        <time>2022-09-02T07:00:27Z</time>
      </trkpt>
      <trkpt lat="47.90265" lon="6.82074">
        <ele>798.2</ele>
        <time>2022-09-02T07:00:28Z</time>
      </trkpt>
      <trkpt lat="47.90266" lon="6.82075">
        <ele>798.2</ele>
        <time>2022-09-02T07:00:29Z</time>
      </trkpt>
      <trkpt lat="47.90267" lon="6.82075">
        <ele>798.1</ele>
        <time>2022-09-02T07:00:30Z</time>
      </trkpt>
      <trkpt lat="47.90268" lon="6.82076">
        <ele>798.1</ele>
        <time>2022-09-02T07:00:31Z</time>
      </trkpt>
      <trkpt lat="47.90269" lon="6.82077">
        <ele>798.1</ele>
        <time>2022-09-02T07:00:32Z</time>
      </trkpt>
      <trkpt lat="47.9027" lon="6.82078">
        <ele>798.2</ele>
        <time>2022-09-02T07:00:33Z</time>
      </trkpt>
      <trkpt lat="47.90271" lon="6.82078">
        <ele>798</ele>
        <time>2022-09-02T07:00:34Z</time>
      </trkpt>
      <trkpt lat="47.90272" lon="6.82079">
        <ele>798.1</ele>
        <time>2022-09-02T07:00:35Z</time>
      </trkpt>
      <trkpt lat="47.90272" lon="6.8208">
        <ele>798.2</ele>
        <time>2022-09-02T07:00:36Z</time>
      </trkpt>
      <trkpt lat="47.90273" lon="6.82081">
        <ele>798.3</ele>
        <time>2022-09-02T07:00:37Z</time>
      </trkpt>
      <trkpt lat="47.90274" lon="6.82082">
        <ele>798.3</ele>
        <time>2022-09-02T07:00:38Z</time>
      </trkpt>
      <trkpt lat="47.90275" lon="6.82083">
        <ele>798.3</ele>
        <time>2022-09-02T07:00:39Z</time>
      </trkpt>
      <trkpt lat="47.90276" lon="6.82083">
        <ele>798.2</ele>
        <time>2022-09-02T07:00:40Z</time>
      </trkpt>
      <trkpt lat="47.90277" lon="6.82084">
        <ele>798.3</ele>
        <time>2022-09-02T07:00:41Z</time>
      </trkpt>
      <trkpt lat="47.90278" lon="6.82085">
        <ele>798.4</ele>
        <time>2022-09-02T07:00:42Z</time>
      </trkpt>
      <trkpt lat="47.90279" lon="6.82086">
        <ele>798.5</ele>
        <time>2022-09-02T07:00:43Z</time>
      </trkpt>
      <trkpt lat="47.9028" lon="6.82087">
        <ele>798.7</ele>
        <time>2022-09-02T07:00:44Z</time>
      </trkpt>
      <trkpt lat="47.90281" lon="6.82088">
        <ele>798.8</ele>
        <time>2022-09-02T07:00:45Z</time>
      </trkpt>
      <trkpt lat="47.90282" lon="6.82089">
        <ele>798.9</ele>
        <time>2022-09-02T07:00:46Z</time>
      </trkpt>
      <trkpt lat="47.90283" lon="6.8209">
        <ele>799</ele>
        <time>2022-09-02T07:00:47Z</time>
      </trkpt>
      <trkpt lat="47.90283" lon="6.82091">
        <ele>799.2</ele>
        <time>2022-09-02T07:00:48Z</time>
      </trkpt>
      <trkpt lat="47.90284" lon="6.82092">
        <ele>799.3</ele>
        <time>2022-09-02T07:00:49Z</time>
      </trkpt>
      <trkpt lat="47.90285" lon="6.82093">
        <ele>799.4</ele>
        <time>2022-09-02T07:00:50Z</time>
      </trkpt>
      <trkpt lat="47.90286" lon="6.82094">
        <ele>799.5</ele>
        <time>2022-09-02T07:00:51Z</time>
      </trkpt>
      <trkpt lat="47.90287" lon="6.82095">
        <ele>799.5</ele>
        <time>2022-09-02T07:00:52Z</time>
      </trkpt>
      <trkpt lat="47.90288" lon="6.82096">
        <ele>799.6</ele>
        <time>2022-09-02T07:00:53Z</time>
      </trkpt>
      <trkpt lat="47.90289" lon="6.82097">
        <ele>799.6</ele>
        <time>2022-09-02T07:00:54Z</time>
      </trkpt>
      <trkpt lat="47.9029" lon="6.82098">
        <ele>799.7</ele>
        <time>2022-09-02T07:00:55Z</time>
      </trkpt>
      <trkpt lat="47.90291" lon="6.82098">
        <ele>799.5</ele>
        <time>2022-09-02T07:00:56Z</time>
      </trkpt>
      <trkpt lat="47.90292" lon="6.82099">
        <ele>799.5</ele>
        <time>2022-09-02T07:00:57Z</time>
      </trkpt>
      <trkpt lat="47.90293" lon="6.821">
        <ele>799.6</ele>
        <time>2022-09-02T07:00:58Z</time>
      </trkpt>
      <trkpt lat="47.90294" lon="6.82101">
        <ele>799.6</ele>
        <time>2022-09-02T07:01:00Z</time>
      </trkpt>
      <trkpt lat="47.90295" lon="6.82102">
        <ele>799.6</ele>
        <time>2022-09-02T07:01:01Z</time>
      </trkpt>
      <trkpt lat="47.90296" lon="6.82103">
        <ele>799.6</ele>
        <time>2022-09-02T07:01:02Z</time>
      </trkpt>
      <trkpt lat="47.90297" lon="6.82104">
        <ele>799.6</ele>
        <time>2022-09-02T07:01:03Z</time>
      </trkpt>
      <trkpt lat="47.90298" lon="6.82105">
        <ele>799.6</ele>
        <time>2022-09-02T07:01:04Z</time>
      </trkpt>
      <trkpt lat="47.90299" lon="6.82106">
        <ele>799.5</ele>
        <time>2022-09-02T07:01:05Z</time>
      </trkpt>
      <trkpt lat="47.903" lon="6.82106">
        <ele>799.4</ele>
        <time>2022-09-02T07:01:06Z</time>
      </trkpt>
      <trkpt lat="47.90301" lon="6.82107">
        <ele>799.3</ele>
        <time>2022-09-02T07:01:07Z</time>
      </trkpt>
      <trkpt lat="47.90301" lon="6.82108">
        <ele>799.5</ele>
        <time>2022-09-02T07:01:08Z</time>
      </trkpt>
      <trkpt lat="47.90302" lon="6.82109">
        <ele>799.4</ele>
        <time>2022-09-02T07:01:09Z</time>
      </trkpt>
      <trkpt lat="47.90303" lon="6.82109">
        <ele>799.2</ele>
        <time>2022-09-02T07:01:10Z</time>
      </trkpt>
      <trkpt lat="47.90304" lon="6.8211">
        <ele>799.2</ele>
        <time>2022-09-02T07:01:11Z</time>
      </trkpt>
      <trkpt lat="47.90305" lon="6.82111">
        <ele>799.1</ele>
        <time>2022-09-02T07:01:12Z</time>
      </trkpt>
      <trkpt lat="47.90306" lon="6.82111">
        <ele>798.9</ele>
        <time>2022-09-02T07:01:13Z</time>
      </trkpt>
      <trkpt lat="47.90307" lon="6.82112">
        <ele>799</ele>
        <time>2022-09-02T07:01:14Z</time>
      </trkpt>
      <trkpt lat="47.90308" lon="6.82112">
        <ele>798.8</ele>
        <time>2022-09-02T07:01:15Z</time>
      </trkpt>
      <trkpt lat="47.90309" lon="6.82113">
        <ele>798.8</ele>
        <time>2022-09-02T07:01:16Z</time>
      </trkpt>
      <trkpt lat="47.9031" lon="6.82113">
        <ele>798.7</ele>
        <time>2022-09-02T07:01:17Z</time>
      </trkpt>
      <trkpt lat="47.90311" lon="6.82114">
        <ele>798.7</ele>
        <time>2022-09-02T07:01:19Z</time>
      </trkpt>
      <trkpt lat="47.90312" lon="6.82114">
        <ele>798.5</ele>
        <time>2022-09-02T07:01:20Z</time>
      </trkpt>
      <trkpt lat="47.90313" lon="6.82114">
        <ele>798.3</ele>
        <time>2022-09-02T07:01:21Z</time>
      </trkpt>
      <trkpt lat="47.90314" lon="6.82114">
        <ele>798.1</ele>
        <time>2022-09-02T07:01:22Z</time>
      </trkpt>
      <trkpt lat="47.90315" lon="6.82114">
        <ele>798</ele>
        <time>2022-09-02T07:01:23Z</time>
      </trkpt>
      <trkpt lat="47.90316" lon="6.82114">
        <ele>797.8</ele>
        <time>2022-09-02T07:01:29Z</time>
      </trkpt>
      <trkpt lat="47.90317" lon="6.82115">
        <ele>797.8</ele>
        <time>2022-09-02T07:01:30Z</time>
      </trkpt>
      <trkpt lat="47.90318" lon="6.82115">
        <ele>797.6</ele>
        <time>2022-09-02T07:01:31Z</time>
      </trkpt>
      <trkpt lat="47.90318" lon="6.82116">
        <ele>797.8</ele>
        <time>2022-09-02T07:01:32Z</time>
      </trkpt>
      <trkpt lat="47.90319" lon="6.82117">
        <ele>797.9</ele>
        <time>2022-09-02T07:01:33Z</time>
      </trkpt>
      <trkpt lat="47.90319" lon="6.82118">
        <ele>798.1</ele>
        <time>2022-09-02T07:01:34Z</time>
      </trkpt>
      <trkpt lat="47.9032" lon="6.82119">
        <ele>798.1</ele>
        <time>2022-09-02T07:01:35Z</time>
      </trkpt>
      <trkpt lat="47.90321" lon="6.8212">
        <ele>798.1</ele>
        <time>2022-09-02T07:01:36Z</time>
      </trkpt>
      <trkpt lat="47.90321" lon="6.82121">
        <ele>798.3</ele>
        <time>2022-09-02T07:01:37Z</time>
      </trkpt>
      <trkpt lat="47.90322" lon="6.82121">
        <ele>798.1</ele>
        <time>2022-09-02T07:01:38Z</time>
      </trkpt>
      <trkpt lat="47.90323" lon="6.82122">
        <ele>798.1</ele>
        <time>2022-09-02T07:01:39Z</time>
      </trkpt>
      <trkpt lat="47.90324" lon="6.82123">
        <ele>798.1</ele>
        <time>2022-09-02T07:01:40Z</time>
      </trkpt>
      <trkpt lat="47.90325" lon="6.82124">
        <ele>798.1</ele>
        <time>2022-09-02T07:01:41Z</time>
      </trkpt>
      <trkpt lat="47.90326" lon="6.82125">
        <ele>798.1</ele>
        <time>2022-09-02T07:01:42Z</time>
      </trkpt>
      <trkpt lat="47.90326" lon="6.82126">
        <ele>798.3</ele>
        <time>2022-09-02T07:01:43Z</time>
      </trkpt>
      <trkpt lat="47.90327" lon="6.82127">
        <ele>798.3</ele>
        <time>2022-09-02T07:01:44Z</time>
      </trkpt>
      <trkpt lat="47.90328" lon="6.82128">
        <ele>798.2</ele>
        <time>2022-09-02T07:01:45Z</time>
      </trkpt>
      <trkpt lat="47.90328" lon="6.82129">
        <ele>798.4</ele>
        <time>2022-09-02T07:01:46Z</time>
      </trkpt>
      <trkpt lat="47.90329" lon="6.8213">
        <ele>798.4</ele>
        <time>2022-09-02T07:01:47Z</time>
      </trkpt>
      <trkpt lat="47.9033" lon="6.82131">
        <ele>798.4</ele>
        <time>2022-09-02T07:01:48Z</time>
      </trkpt>
      <trkpt lat="47.9033" lon="6.82132">
        <ele>798.5</ele>
        <time>2022-09-02T07:01:49Z</time>
      </trkpt>
      <trkpt lat="47.90331" lon="6.82133">
        <ele>798.5</ele>
        <time>2022-09-02T07:01:50Z</time>
      </trkpt>
      <trkpt lat="47.90332" lon="6.82134">
        <ele>798.4</ele>
        <time>2022-09-02T07:01:51Z</time>
      </trkpt>
      <trkpt lat="47.90333" lon="6.82135">
        <ele>798.4</ele>
        <time>2022-09-02T07:01:52Z</time>
      </trkpt>
      <trkpt lat="47.90334" lon="6.82136">
        <ele>798.3</ele>
        <time>2022-09-02T07:01:53Z</time>
      </trkpt>
      <trkpt lat="47.90334" lon="6.82137">
        <ele>798.5</ele>
        <time>2022-09-02T07:01:54Z</time>
      </trkpt>
      <trkpt lat="47.90335" lon="6.82138">
        <ele>798.5</ele>
        <time>2022-09-02T07:01:55Z</time>
      </trkpt>
      <trkpt lat="47.90336" lon="6.8214">
        <ele>798.6</ele>
        <time>2022-09-02T07:01:56Z</time>
      </trkpt>
      <trkpt lat="47.90336" lon="6.82141">
        <ele>798.8</ele>
        <time>2022-09-02T07:01:57Z</time>
      </trkpt>
      <trkpt lat="47.90337" lon="6.82142">
        <ele>798.8</ele>
        <time>2022-09-02T07:01:58Z</time>
      </trkpt>
      <trkpt lat="47.90338" lon="6.82142">
        <ele>798.5</ele>
        <time>2022-09-02T07:01:59Z</time>
      </trkpt>
      <trkpt lat="47.90339" lon="6.82143">
        <ele>798.5</ele>
        <time>2022-09-02T07:02:00Z</time>
      </trkpt>
      <trkpt lat="47.90339" lon="6.82144">
        <ele>798.7</ele>
        <time>2022-09-02T07:02:01Z</time>
      </trkpt>
      <trkpt lat="47.9034" lon="6.82145">
        <ele>798.6</ele>
        <time>2022-09-02T07:02:02Z</time>
      </trkpt>
      <trkpt lat="47.90341" lon="6.82146">
        <ele>798.6</ele>
        <time>2022-09-02T07:02:03Z</time>
      </trkpt>
      <trkpt lat="47.90342" lon="6.82147">
        <ele>798.5</ele>
        <time>2022-09-02T07:02:04Z</time>
      </trkpt>
      <trkpt lat="47.90343" lon="6.82148">
        <ele>798.4</ele>
        <time>2022-09-02T07:02:05Z</time>
      </trkpt>
      <trkpt lat="47.90344" lon="6.82148">
        <ele>798.2</ele>
        <time>2022-09-02T07:02:06Z</time>
      </trkpt>
      <trkpt lat="47.90344" lon="6.82149">
        <ele>798.4</ele>
        <time>2022-09-02T07:02:07Z</time>
      </trkpt>
      <trkpt lat="47.90345" lon="6.8215">
        <ele>798.3</ele>
        <time>2022-09-02T07:02:08Z</time>
      </trkpt>
      <trkpt lat="47.90346" lon="6.82151">
        <ele>798.2</ele>
        <time>2022-09-02T07:02:19Z</time>
      </trkpt>
      <trkpt lat="47.90347" lon="6.82152">
        <ele>798.2</ele>
        <time>2022-09-02T07:02:20Z</time>
      </trkpt>
      <trkpt lat="47.90348" lon="6.82152">
        <ele>797.9</ele>
        <time>2022-09-02T07:02:21Z</time>
      </trkpt>
      <trkpt lat="47.90348" lon="6.82153">
        <ele>798.1</ele>
        <time>2022-09-02T07:02:22Z</time>
      </trkpt>
      <trkpt lat="47.90349" lon="6.82154">
        <ele>798</ele>
        <time>2022-09-02T07:02:23Z</time>
      </trkpt>
      <trkpt lat="47.9035" lon="6.82155">
        <ele>798</ele>
        <time>2022-09-02T07:02:25Z</time>
      </trkpt>
      <trkpt lat="47.90351" lon="6.82156">
        <ele>797.9</ele>
        <time>2022-09-02T07:02:26Z</time>
      </trkpt>
      <trkpt lat="47.90352" lon="6.82156">
        <ele>797.6</ele>
        <time>2022-09-02T07:02:27Z</time>
      </trkpt>
      <trkpt lat="47.90353" lon="6.82157">
        <ele>797.6</ele>
        <time>2022-09-02T07:02:28Z</time>
      </trkpt>
      <trkpt lat="47.90353" lon="6.82158">
        <ele>797.7</ele>
        <time>2022-09-02T07:02:29Z</time>
      </trkpt>
      <trkpt lat="47.90354" lon="6.82159">
        <ele>797.6</ele>
        <time>2022-09-02T07:02:30Z</time>
      </trkpt>
      <trkpt lat="47.90355" lon="6.82161">
        <ele>797.7</ele>
        <time>2022-09-02T07:02:31Z</time>
      </trkpt>
      <trkpt lat="47.90356" lon="6.82162">
        <ele>797.6</ele>
        <time>2022-09-02T07:02:32Z</time>
      </trkpt>
      <trkpt lat="47.90357" lon="6.82163">
        <ele>797.5</ele>
        <time>2022-09-02T07:02:33Z</time>
      </trkpt>
      <trkpt lat="47.90357" lon="6.82165">
        <ele>797.8</ele>
        <time>2022-09-02T07:02:34Z</time>
      </trkpt>
      <trkpt lat="47.90358" lon="6.82166">
        <ele>797.7</ele>
        <time>2022-09-02T07:02:35Z</time>
      </trkpt>
      <trkpt lat="47.90359" lon="6.82167">
        <ele>797.6</ele>
        <time>2022-09-02T07:02:36Z</time>
      </trkpt>
      <trkpt lat="47.90359" lon="6.82168">
        <ele>797.8</ele>
        <time>2022-09-02T07:02:37Z</time>
      </trkpt>
      <trkpt lat="47.9036" lon="6.82169">
        <ele>797.7</ele>
        <time>2022-09-02T07:02:38Z</time>
      </trkpt>
      <trkpt lat="47.9036" lon="6.8217">
        <ele>797.9</ele>
        <time>2022-09-02T07:02:39Z</time>
      </trkpt>
      <trkpt lat="47.90361" lon="6.82171">
        <ele>797.8</ele>
        <time>2022-09-02T07:02:40Z</time>
      </trkpt>
      <trkpt lat="47.90362" lon="6.82172">
        <ele>797.7</ele>
        <time>2022-09-02T07:02:41Z</time>
      </trkpt>
      <trkpt lat="47.90363" lon="6.82173">
        <ele>797.6</ele>
        <time>2022-09-02T07:02:42Z</time>
      </trkpt>
      <trkpt lat="47.90364" lon="6.82174">
        <ele>797.5</ele>
        <time>2022-09-02T07:02:43Z</time>
      </trkpt>
      <trkpt lat="47.90365" lon="6.82175">
        <ele>797.3</ele>
        <time>2022-09-02T07:02:44Z</time>
      </trkpt>
      <trkpt lat="47.90365" lon="6.82177">
        <ele>797.7</ele>
        <time>2022-09-02T07:02:45Z</time>
      </trkpt>
      <trkpt lat="47.90366" lon="6.82178">
        <ele>797.6</ele>
        <time>2022-09-02T07:02:46Z</time>
      </trkpt>
      <trkpt lat="47.90367" lon="6.82179">
        <ele>797.4</ele>
        <time>2022-09-02T07:02:47Z</time>
      </trkpt>
      <trkpt lat="47.90367" lon="6.8218">
        <ele>797.6</ele>
        <time>2022-09-02T07:02:48Z</time>
      </trkpt>
      <trkpt lat="47.90368" lon="6.82181">
        <ele>797.5</ele>
        <time>2022-09-02T07:02:49Z</time>
      </trkpt>
      <trkpt lat="47.90369" lon="6.82182">
        <ele>797.3</ele>
        <time>2022-09-02T07:02:50Z</time>
      </trkpt>
      <trkpt lat="47.90369" lon="6.82183">
        <ele>797.5</ele>
        <time>2022-09-02T07:02:51Z</time>
      </trkpt>
      <trkpt lat="47.9037" lon="6.82184">
        <ele>797.4</ele>
        <time>2022-09-02T07:02:52Z</time>
      </trkpt>
      <trkpt lat="47.90371" lon="6.82186">
        <ele>797.4</ele>
        <time>2022-09-02T07:02:53Z</time>
      </trkpt>
      <trkpt lat="47.90372" lon="6.82187">
        <ele>797.2</ele>
        <time>2022-09-02T07:02:54Z</time>
      </trkpt>
      <trkpt lat="47.90372" lon="6.82188">
        <ele>797.4</ele>
        <time>2022-09-02T07:02:55Z</time>
      </trkpt>
      <trkpt lat="47.90373" lon="6.82189">
        <ele>797.3</ele>
        <time>2022-09-02T07:02:56Z</time>
      </trkpt>
      <trkpt lat="47.90374" lon="6.8219">
        <ele>797.1</ele>
        <time>2022-09-02T07:02:57Z</time>
      </trkpt>
      <trkpt lat="47.90375" lon="6.82191">
        <ele>796.9</ele>
        <time>2022-09-02T07:02:58Z</time>
      </trkpt>
      <trkpt lat="47.90375" lon="6.82192">
        <ele>797.1</ele>
        <time>2022-09-02T07:02:59Z</time>
      </trkpt>
      <trkpt lat="47.90376" lon="6.82193">
        <ele>796.9</ele>
        <time>2022-09-02T07:03:18Z</time>
      </trkpt>
      <trkpt lat="47.90376" lon="6.82194">
        <ele>797.1</ele>
        <time>2022-09-02T07:03:19Z</time>
      </trkpt>
      <trkpt lat="47.90377" lon="6.82195">
        <ele>796.9</ele>
        <time>2022-09-02T07:03:20Z</time>
      </trkpt>
      <trkpt lat="47.90377" lon="6.82196">
        <ele>797.1</ele>
        <time>2022-09-02T07:03:21Z</time>
      </trkpt>
      <trkpt lat="47.90378" lon="6.82197">
        <ele>796.9</ele>
        <time>2022-09-02T07:03:23Z</time>
      </trkpt>
      <trkpt lat="47.90378" lon="6.82198">
        <ele>797</ele>
        <time>2022-09-02T07:03:24Z</time>
      </trkpt>
      <trkpt lat="47.90379" lon="6.82199">
        <ele>796.8</ele>
        <time>2022-09-02T07:03:25Z</time>
      </trkpt>
      <trkpt lat="47.9038" lon="6.822">
        <ele>796.6</ele>
        <time>2022-09-02T07:03:26Z</time>
      </trkpt>
      <trkpt lat="47.9038" lon="6.82201">
        <ele>796.7</ele>
        <time>2022-09-02T07:03:27Z</time>
      </trkpt>
      <trkpt lat="47.90381" lon="6.82202">
        <ele>796.5</ele>
        <time>2022-09-02T07:03:28Z</time>
      </trkpt>
      <trkpt lat="47.90381" lon="6.82203">
        <ele>796.7</ele>
        <time>2022-09-02T07:03:29Z</time>
      </trkpt>
      <trkpt lat="47.90382" lon="6.82203">
        <ele>796.3</ele>
        <time>2022-09-02T07:03:30Z</time>
      </trkpt>
      <trkpt lat="47.90383" lon="6.82204">
        <ele>796.1</ele>
        <time>2022-09-02T07:03:31Z</time>
      </trkpt>
      <trkpt lat="47.90383" lon="6.82205">
        <ele>796.2</ele>
        <time>2022-09-02T07:03:32Z</time>
      </trkpt>
      <trkpt lat="47.90384" lon="6.82206">
        <ele>796</ele>
        <time>2022-09-02T07:03:33Z</time>
      </trkpt>
      <trkpt lat="47.90384" lon="6.82207">
        <ele>796.1</ele>
        <time>2022-09-02T07:03:34Z</time>
      </trkpt>
      <trkpt lat="47.90385" lon="6.82208">
        <ele>795.9</ele>
        <time>2022-09-02T07:03:35Z</time>
      </trkpt>
      <trkpt lat="47.90386" lon="6.82209">
        <ele>795.6</ele>
        <time>2022-09-02T07:03:36Z</time>
      </trkpt>
      <trkpt lat="47.90387" lon="6.8221">
        <ele>795.4</ele>
        <time>2022-09-02T07:03:37Z</time>
      </trkpt>
      <trkpt lat="47.90388" lon="6.82211">
        <ele>795.1</ele>
        <time>2022-09-02T07:03:38Z</time>
      </trkpt>
      <trkpt lat="47.90388" lon="6.82212">
        <ele>795.2</ele>
        <time>2022-09-02T07:03:39Z</time>
      </trkpt>
      <trkpt lat="47.90389" lon="6.82213">
        <ele>795</ele>
        <time>2022-09-02T07:03:40Z</time>
      </trkpt>
      <trkpt lat="47.9039" lon="6.82214">
        <ele>794.7</ele>
        <time>2022-09-02T07:03:41Z</time>
      </trkpt>
      <trkpt lat="47.90391" lon="6.82216">
        <ele>794.6</ele>
        <time>2022-09-02T07:03:42Z</time>
      </trkpt>
      <trkpt lat="47.90392" lon="6.82217">
        <ele>794.3</ele>
        <time>2022-09-02T07:03:43Z</time>
      </trkpt>
      <trkpt lat="47.90393" lon="6.82218">
        <ele>794.1</ele>
        <time>2022-09-02T07:03:44Z</time>
      </trkpt>
      <trkpt lat="47.90393" lon="6.8222">
        <ele>794.3</ele>
        <time>2022-09-02T07:03:45Z</time>
      </trkpt>
      <trkpt lat="47.90394" lon="6.82221">
        <ele>794</ele>
        <time>2022-09-02T07:03:46Z</time>
      </trkpt>
      <trkpt lat="47.90394" lon="6.82222">
        <ele>794.1</ele>
        <time>2022-09-02T07:03:47Z</time>
      </trkpt>
      <trkpt lat="47.90395" lon="6.82224">
        <ele>794</ele>
        <time>2022-09-02T07:03:48Z</time>
      </trkpt>
      <trkpt lat="47.90396" lon="6.82225">
        <ele>793.8</ele>
        <time>2022-09-02T07:03:49Z</time>
      </trkpt>
      <trkpt lat="47.90396" lon="6.82226">
        <ele>793.9</ele>
        <time>2022-09-02T07:03:50Z</time>
      </trkpt>
      <trkpt lat="47.90397" lon="6.82227">
        <ele>793.7</ele>
        <time>2022-09-02T07:03:51Z</time>
      </trkpt>
      <trkpt lat="47.90397" lon="6.82228">
        <ele>793.9</ele>
        <time>2022-09-02T07:03:52Z</time>
      </trkpt>
      <trkpt lat="47.90397" lon="6.82229">
        <ele>794</ele>
        <time>2022-09-02T07:03:53Z</time>
      </trkpt>
      <trkpt lat="47.90398" lon="6.8223">
        <ele>793.7</ele>
        <time>2022-09-02T07:03:54Z</time>
      </trkpt>
      <trkpt lat="47.90399" lon="6.82231">
        <ele>793.5</ele>
        <time>2022-09-02T07:03:55Z</time>
      </trkpt>
      <trkpt lat="47.90399" lon="6.82232">
        <ele>793.6</ele>
        <time>2022-09-02T07:03:56Z</time>
      </trkpt>
      <trkpt lat="47.904" lon="6.82234">
        <ele>793.5</ele>
        <time>2022-09-02T07:03:57Z</time>
      </trkpt>
      <trkpt lat="47.904" lon="6.82235">
        <ele>793.7</ele>
        <time>2022-09-02T07:03:58Z</time>
      </trkpt>
      <trkpt lat="47.90401" lon="6.82236">
        <ele>793.4</ele>
        <time>2022-09-02T07:03:59Z</time>
      </trkpt>
      <trkpt lat="47.90401" lon="6.82238">
        <ele>793.7</ele>
        <time>2022-09-02T07:04:00Z</time>
      </trkpt>
      <trkpt lat="47.90401" lon="6.82239">
        <ele>793.8</ele>
        <time>2022-09-02T07:04:01Z</time>
      </trkpt>
      <trkpt lat="47.90401" lon="6.82241">
        <ele>794</ele>
        <time>2022-09-02T07:04:02Z</time>
      </trkpt>
      <trkpt lat="47.90401" lon="6.82242">
        <ele>794.2</ele>
        <time>2022-09-02T07:04:03Z</time>
      </trkpt>
      <trkpt lat="47.90401" lon="6.82244">
        <ele>794.4</ele>
        <time>2022-09-02T07:04:04Z</time>
      </trkpt>
      <trkpt lat="47.90401" lon="6.82245">
        <ele>794.6</ele>
        <time>2022-09-02T07:04:05Z</time>
      </trkpt>
      <trkpt lat="47.90401" lon="6.82246">
        <ele>794.7</ele>
        <time>2022-09-02T07:04:06Z</time>
      </trkpt>
      <trkpt lat="47.90401" lon="6.82248">
        <ele>794.9</ele>
        <time>2022-09-02T07:04:07Z</time>
      </trkpt>
      <trkpt lat="47.90401" lon="6.82249">
        <ele>795.1</ele>
        <time>2022-09-02T07:04:08Z</time>
      </trkpt>
      <trkpt lat="47.90401" lon="6.8225">
        <ele>795.2</ele>
        <time>2022-09-02T07:04:09Z</time>
      </trkpt>
      <trkpt lat="47.90401" lon="6.82251">
        <ele>795.3</ele>
        <time>2022-09-02T07:04:10Z</time>
      </trkpt>
      <trkpt lat="47.90402" lon="6.82252">
        <ele>795</ele>
        <time>2022-09-02T07:04:11Z</time>
      </trkpt>
      <trkpt lat="47.90403" lon="6.82253">
        <ele>794.7</ele>
        <time>2022-09-02T07:04:12Z</time>
      </trkpt>
      <trkpt lat="47.90403" lon="6.82255">
        <ele>795</ele>
        <time>2022-09-02T07:04:13Z</time>
      </trkpt>
      <trkpt lat="47.90404" lon="6.82256">
        <ele>794.7</ele>
        <time>2022-09-02T07:04:14Z</time>
      </trkpt>
      <trkpt lat="47.90405" lon="6.82257">
        <ele>794.4</ele>
        <time>2022-09-02T07:04:15Z</time>
      </trkpt>
      <trkpt lat="47.90406" lon="6.82259">
        <ele>794.2</ele>
        <time>2022-09-02T07:04:16Z</time>
      </trkpt>
      <trkpt lat="47.90406" lon="6.8226">
        <ele>794.3</ele>
        <time>2022-09-02T07:04:17Z</time>
      </trkpt>
      <trkpt lat="47.90406" lon="6.82261">
        <ele>794.4</ele>
        <time>2022-09-02T07:04:18Z</time>
      </trkpt>
      <trkpt lat="47.90407" lon="6.82262">
        <ele>794.1</ele>
        <time>2022-09-02T07:04:19Z</time>
      </trkpt>
      <trkpt lat="47.90407" lon="6.82263">
        <ele>794.2</ele>
        <time>2022-09-02T07:04:20Z</time>
      </trkpt>
      <trkpt lat="47.90408" lon="6.82263">
        <ele>793.8</ele>
        <time>2022-09-02T07:04:21Z</time>
      </trkpt>
      <trkpt lat="47.90408" lon="6.82264">
        <ele>793.9</ele>
        <time>2022-09-02T07:04:22Z</time>
      </trkpt>
      <trkpt lat="47.90408" lon="6.82265">
        <ele>794.1</ele>
        <time>2022-09-02T07:04:23Z</time>
      </trkpt>
      <trkpt lat="47.90409" lon="6.82266">
        <ele>793.8</ele>
        <time>2022-09-02T07:04:24Z</time>
      </trkpt>
      <trkpt lat="47.90409" lon="6.82267">
        <ele>793.9</ele>
        <time>2022-09-02T07:04:25Z</time>
      </trkpt>
      <trkpt lat="47.90409" lon="6.82269">
        <ele>794.1</ele>
        <time>2022-09-02T07:04:26Z</time>
      </trkpt>
      <trkpt lat="47.90409" lon="6.8227">
        <ele>794.2</ele>
        <time>2022-09-02T07:04:27Z</time>
      </trkpt>
      <trkpt lat="47.90409" lon="6.82271">
        <ele>794.3</ele>
        <time>2022-09-02T07:04:28Z</time>
      </trkpt>
      <trkpt lat="47.90409" lon="6.82272">
        <ele>794.4</ele>
        <time>2022-09-02T07:04:29Z</time>
      </trkpt>
      <trkpt lat="47.9041" lon="6.82273">
        <ele>794.1</ele>
        <time>2022-09-02T07:04:30Z</time>
      </trkpt>
      <trkpt lat="47.9041" lon="6.82274">
        <ele>794.2</ele>
        <time>2022-09-02T07:04:31Z</time>
      </trkpt>
      <trkpt lat="47.90411" lon="6.82275">
        <ele>793.9</ele>
        <time>2022-09-02T07:04:32Z</time>
      </trkpt>
      <trkpt lat="47.90411" lon="6.82277">
        <ele>794.2</ele>
        <time>2022-09-02T07:04:33Z</time>
      </trkpt>
      <trkpt lat="47.90412" lon="6.82278">
        <ele>793.9</ele>
        <time>2022-09-02T07:04:34Z</time>
      </trkpt>
      <trkpt lat="47.90413" lon="6.8228">
        <ele>793.7</ele>
        <time>2022-09-02T07:04:35Z</time>
      </trkpt>
      <trkpt lat="47.90413" lon="6.82282">
        <ele>793.9</ele>
        <time>2022-09-02T07:04:36Z</time>
      </trkpt>
      <trkpt lat="47.90413" lon="6.82284">
        <ele>794.2</ele>
        <time>2022-09-02T07:04:37Z</time>
      </trkpt>
      <trkpt lat="47.90414" lon="6.82286">
        <ele>794</ele>
        <time>2022-09-02T07:04:38Z</time>
      </trkpt>
      <trkpt lat="47.90414" lon="6.82287">
        <ele>794.1</ele>
        <time>2022-09-02T07:04:39Z</time>
      </trkpt>
      <trkpt lat="47.90414" lon="6.82289">
        <ele>794.3</ele>
        <time>2022-09-02T07:04:40Z</time>
      </trkpt>
      <trkpt lat="47.90414" lon="6.8229">
        <ele>794.4</ele>
        <time>2022-09-02T07:04:41Z</time>
      </trkpt>
      <trkpt lat="47.90415" lon="6.82291">
        <ele>794.1</ele>
        <time>2022-09-02T07:04:42Z</time>
      </trkpt>
      <trkpt lat="47.90415" lon="6.82292">
        <ele>794.2</ele>
        <time>2022-09-02T07:04:43Z</time>
      </trkpt>
      <trkpt lat="47.90416" lon="6.82293">
        <ele>793.9</ele>
        <time>2022-09-02T07:04:44Z</time>
      </trkpt>
      <trkpt lat="47.90417" lon="6.82293">
        <ele>793.5</ele>
        <time>2022-09-02T07:04:45Z</time>
      </trkpt>
      <trkpt lat="47.90418" lon="6.82294">
        <ele>793.2</ele>
        <time>2022-09-02T07:04:46Z</time>
      </trkpt>
      <trkpt lat="47.90419" lon="6.82296">
        <ele>792.9</ele>
        <time>2022-09-02T07:04:47Z</time>
      </trkpt>
      <trkpt lat="47.9042" lon="6.82297">
        <ele>792.6</ele>
        <time>2022-09-02T07:04:48Z</time>
      </trkpt>
      <trkpt lat="47.9042" lon="6.82299">
        <ele>792.8</ele>
        <time>2022-09-02T07:04:49Z</time>
      </trkpt>
      <trkpt lat="47.90421" lon="6.823">
        <ele>792.5</ele>
        <time>2022-09-02T07:04:50Z</time>
      </trkpt>
      <trkpt lat="47.90422" lon="6.82302">
        <ele>792.3</ele>
        <time>2022-09-02T07:04:51Z</time>
      </trkpt>
      <trkpt lat="47.90422" lon="6.82304">
        <ele>792.5</ele>
        <time>2022-09-02T07:04:52Z</time>
      </trkpt>
      <trkpt lat="47.90422" lon="6.82306">
        <ele>792.7</ele>
        <time>2022-09-02T07:04:53Z</time>
      </trkpt>
      <trkpt lat="47.90423" lon="6.82308">
        <ele>792.4</ele>
        <time>2022-09-02T07:04:54Z</time>
      </trkpt>
      <trkpt lat="47.90423" lon="6.8231">
        <ele>792.5</ele>
        <time>2022-09-02T07:04:55Z</time>
      </trkpt>
      <trkpt lat="47.90423" lon="6.82312">
        <ele>792.7</ele>
        <time>2022-09-02T07:04:56Z</time>
      </trkpt>
      <trkpt lat="47.90424" lon="6.82314">
        <ele>792.4</ele>
        <time>2022-09-02T07:04:57Z</time>
      </trkpt>
      <trkpt lat="47.90424" lon="6.82315">
        <ele>792.4</ele>
        <time>2022-09-02T07:04:58Z</time>
      </trkpt>
      <trkpt lat="47.90424" lon="6.82317">
        <ele>792.5</ele>
        <time>2022-09-02T07:04:59Z</time>
      </trkpt>
      <trkpt lat="47.90425" lon="6.82318">
        <ele>792.2</ele>
        <time>2022-09-02T07:05:00Z</time>
      </trkpt>
      <trkpt lat="47.90425" lon="6.8232">
        <ele>792.3</ele>
        <time>2022-09-02T07:05:01Z</time>
      </trkpt>
      <trkpt lat="47.90426" lon="6.82321">
        <ele>791.9</ele>
        <time>2022-09-02T07:05:02Z</time>
      </trkpt>
      <trkpt lat="47.90426" lon="6.82322">
        <ele>792</ele>
        <time>2022-09-02T07:05:03Z</time>
      </trkpt>
      <trkpt lat="47.90427" lon="6.82323">
        <ele>791.6</ele>
        <time>2022-09-02T07:05:04Z</time>
      </trkpt>
      <trkpt lat="47.90428" lon="6.82324">
        <ele>791.2</ele>
        <time>2022-09-02T07:05:05Z</time>
      </trkpt>
      <trkpt lat="47.90429" lon="6.82326">
        <ele>790.8</ele>
        <time>2022-09-02T07:05:06Z</time>
      </trkpt>
      <trkpt lat="47.90429" lon="6.82327">
        <ele>790.9</ele>
        <time>2022-09-02T07:05:07Z</time>
      </trkpt>
      <trkpt lat="47.9043" lon="6.82328">
        <ele>790.5</ele>
        <time>2022-09-02T07:05:08Z</time>
      </trkpt>
      <trkpt lat="47.90431" lon="6.82329">
        <ele>790.1</ele>
        <time>2022-09-02T07:05:09Z</time>
      </trkpt>
      <trkpt lat="47.90432" lon="6.8233">
        <ele>789.7</ele>
        <time>2022-09-02T07:05:10Z</time>
      </trkpt>
      <trkpt lat="47.90433" lon="6.82332">
        <ele>789.3</ele>
        <time>2022-09-02T07:05:11Z</time>
      </trkpt>
      <trkpt lat="47.90434" lon="6.82333">
        <ele>788.9</ele>
        <time>2022-09-02T07:05:12Z</time>
      </trkpt>
      <trkpt lat="47.90434" lon="6.82334">
        <ele>788.9</ele>
        <time>2022-09-02T07:05:13Z</time>
      </trkpt>
      <trkpt lat="47.90435" lon="6.82335">
        <ele>788.5</ele>
        <time>2022-09-02T07:05:14Z</time>
      </trkpt>
      <trkpt lat="47.90436" lon="6.82336">
        <ele>788</ele>
        <time>2022-09-02T07:05:15Z</time>
      </trkpt>
      <trkpt lat="47.90437" lon="6.82337">
        <ele>787.6</ele>
        <time>2022-09-02T07:05:16Z</time>
      </trkpt>
      <trkpt lat="47.90437" lon="6.82339">
        <ele>787.7</ele>
        <time>2022-09-02T07:05:17Z</time>
      </trkpt>
      <trkpt lat="47.90438" lon="6.8234">
        <ele>787.3</ele>
        <time>2022-09-02T07:05:18Z</time>
      </trkpt>
      <trkpt lat="47.90438" lon="6.82342">
        <ele>787.3</ele>
        <time>2022-09-02T07:05:19Z</time>
      </trkpt>
      <trkpt lat="47.90438" lon="6.82343">
        <ele>787.4</ele>
        <time>2022-09-02T07:05:20Z</time>
      </trkpt>
      <trkpt lat="47.90439" lon="6.82344">
        <ele>786.9</ele>
        <time>2022-09-02T07:05:21Z</time>
      </trkpt>
      <trkpt lat="47.90439" lon="6.82346">
        <ele>787</ele>
        <time>2022-09-02T07:05:22Z</time>
      </trkpt>
      <trkpt lat="47.9044" lon="6.82347">
        <ele>786.6</ele>
        <time>2022-09-02T07:05:23Z</time>
      </trkpt>
      <trkpt lat="47.9044" lon="6.82349">
        <ele>786.6</ele>
        <time>2022-09-02T07:05:24Z</time>
      </trkpt>
      <trkpt lat="47.9044" lon="6.8235">
        <ele>786.7</ele>
        <time>2022-09-02T07:05:25Z</time>
      </trkpt>
      <trkpt lat="47.9044" lon="6.82351">
        <ele>786.7</ele>
        <time>2022-09-02T07:05:26Z</time>
      </trkpt>
      <trkpt lat="47.90441" lon="6.82353">
        <ele>786.3</ele>
        <time>2022-09-02T07:05:27Z</time>
      </trkpt>
      <trkpt lat="47.90441" lon="6.82354">
        <ele>786.4</ele>
        <time>2022-09-02T07:05:28Z</time>
      </trkpt>
      <trkpt lat="47.90441" lon="6.82355">
        <ele>786.4</ele>
        <time>2022-09-02T07:05:29Z</time>
      </trkpt>
      <trkpt lat="47.90441" lon="6.82356">
        <ele>786.4</ele>
        <time>2022-09-02T07:05:30Z</time>
      </trkpt>
      <trkpt lat="47.90441" lon="6.82357">
        <ele>786.5</ele>
        <time>2022-09-02T07:05:31Z</time>
      </trkpt>
      <trkpt lat="47.90442" lon="6.82358">
        <ele>786</ele>
        <time>2022-09-02T07:05:32Z</time>
      </trkpt>
      <trkpt lat="47.90442" lon="6.8236">
        <ele>786.1</ele>
        <time>2022-09-02T07:05:33Z</time>
      </trkpt>
      <trkpt lat="47.90442" lon="6.82361">
        <ele>786.1</ele>
        <time>2022-09-02T07:05:34Z</time>
      </trkpt>
      <trkpt lat="47.90442" lon="6.82362">
        <ele>786.2</ele>
        <time>2022-09-02T07:05:35Z</time>
      </trkpt>
      <trkpt lat="47.90442" lon="6.82364">
        <ele>786.2</ele>
        <time>2022-09-02T07:05:36Z</time>
      </trkpt>
      <trkpt lat="47.90443" lon="6.82365">
        <ele>785.8</ele>
        <time>2022-09-02T07:05:37Z</time>
      </trkpt>
      <trkpt lat="47.90443" lon="6.82367">
        <ele>785.9</ele>
        <time>2022-09-02T07:05:38Z</time>
      </trkpt>
      <trkpt lat="47.90443" lon="6.82368">
        <ele>785.9</ele>
        <time>2022-09-02T07:05:39Z</time>
      </trkpt>
      <trkpt lat="47.90444" lon="6.82369">
        <ele>785.5</ele>
        <time>2022-09-02T07:05:40Z</time>
      </trkpt>
      <trkpt lat="47.90444" lon="6.82371">
        <ele>785.6</ele>
        <time>2022-09-02T07:05:41Z</time>
      </trkpt>
      <trkpt lat="47.90444" lon="6.82372">
        <ele>785.6</ele>
        <time>2022-09-02T07:05:42Z</time>
      </trkpt>
      <trkpt lat="47.90445" lon="6.82373">
        <ele>785.2</ele>
        <time>2022-09-02T07:05:43Z</time>
      </trkpt>
      <trkpt lat="47.90445" lon="6.82375">
        <ele>785.2</ele>
        <time>2022-09-02T07:05:44Z</time>
      </trkpt>
      <trkpt lat="47.90445" lon="6.82376">
        <ele>785.3</ele>
        <time>2022-09-02T07:05:45Z</time>
      </trkpt>
      <trkpt lat="47.90445" lon="6.82377">
        <ele>785.3</ele>
        <time>2022-09-02T07:05:46Z</time>
      </trkpt>
      <trkpt lat="47.90445" lon="6.82378">
        <ele>785.3</ele>
        <time>2022-09-02T07:05:47Z</time>
      </trkpt>
      <trkpt lat="47.90446" lon="6.82379">
        <ele>784.9</ele>
        <time>2022-09-02T07:05:48Z</time>
      </trkpt>
      <trkpt lat="47.90446" lon="6.82381">
        <ele>785</ele>
        <time>2022-09-02T07:05:49Z</time>
      </trkpt>
      <trkpt lat="47.90446" lon="6.82382">
        <ele>785</ele>
        <time>2022-09-02T07:05:50Z</time>
      </trkpt>
      <trkpt lat="47.90446" lon="6.82383">
        <ele>785.1</ele>
        <time>2022-09-02T07:05:51Z</time>
      </trkpt>
      <trkpt lat="47.90446" lon="6.82384">
        <ele>785.1</ele>
        <time>2022-09-02T07:05:52Z</time>
      </trkpt>
      <trkpt lat="47.90446" lon="6.82386">
        <ele>785.2</ele>
        <time>2022-09-02T07:05:53Z</time>
      </trkpt>
      <trkpt lat="47.90446" lon="6.82387">
        <ele>785.2</ele>
        <time>2022-09-02T07:05:54Z</time>
      </trkpt>
      <trkpt lat="47.90446" lon="6.82389">
        <ele>785.3</ele>
        <time>2022-09-02T07:05:55Z</time>
      </trkpt>
      <trkpt lat="47.90446" lon="6.8239">
        <ele>785.3</ele>
        <time>2022-09-02T07:05:56Z</time>
      </trkpt>
      <trkpt lat="47.90446" lon="6.82392">
        <ele>785.5</ele>
        <time>2022-09-02T07:05:57Z</time>
      </trkpt>
      <trkpt lat="47.90446" lon="6.82393">
        <ele>785.6</ele>
        <time>2022-09-02T07:05:58Z</time>
      </trkpt>
      <trkpt lat="47.90446" lon="6.82395">
        <ele>785.7</ele>
        <time>2022-09-02T07:05:59Z</time>
      </trkpt>
      <trkpt lat="47.90446" lon="6.82397">
        <ele>785.8</ele>
        <time>2022-09-02T07:06:00Z</time>
      </trkpt>
      <trkpt lat="47.90446" lon="6.82398">
        <ele>785.9</ele>
        <time>2022-09-02T07:06:01Z</time>
      </trkpt>
      <trkpt lat="47.90446" lon="6.824">
        <ele>786</ele>
        <time>2022-09-02T07:06:02Z</time>
      </trkpt>
      <trkpt lat="47.90446" lon="6.82401">
        <ele>786.1</ele>
        <time>2022-09-02T07:06:03Z</time>
      </trkpt>
      <trkpt lat="47.90446" lon="6.82403">
        <ele>786.3</ele>
        <time>2022-09-02T07:06:04Z</time>
      </trkpt>
      <trkpt lat="47.90446" lon="6.82405">
        <ele>786.4</ele>
        <time>2022-09-02T07:06:05Z</time>
      </trkpt>
      <trkpt lat="47.90446" lon="6.82407">
        <ele>786.5</ele>
        <time>2022-09-02T07:06:12Z</time>
      </trkpt>
      <trkpt lat="47.90446" lon="6.82408">
        <ele>786.6</ele>
        <time>2022-09-02T07:06:13Z</time>
      </trkpt>
      <trkpt lat="47.90446" lon="6.82409">
        <ele>786.7</ele>
        <time>2022-09-02T07:06:14Z</time>
      </trkpt>
      <trkpt lat="47.90446" lon="6.8241">
        <ele>786.7</ele>
        <time>2022-09-02T07:06:15Z</time>
      </trkpt>
      <trkpt lat="47.90447" lon="6.82411">
        <ele>786.3</ele>
        <time>2022-09-02T07:06:17Z</time>
      </trkpt>
      <trkpt lat="47.90448" lon="6.82412">
        <ele>785.9</ele>
        <time>2022-09-02T07:06:18Z</time>
      </trkpt>
      <trkpt lat="47.90448" lon="6.82413">
        <ele>786</ele>
        <time>2022-09-02T07:06:19Z</time>
      </trkpt>
      <trkpt lat="47.90449" lon="6.82414">
        <ele>785.5</ele>
        <time>2022-09-02T07:06:20Z</time>
      </trkpt>
      <trkpt lat="47.90449" lon="6.82415">
        <ele>785.6</ele>
        <time>2022-09-02T07:06:21Z</time>
      </trkpt>
      <trkpt lat="47.9045" lon="6.82417">
        <ele>785.2</ele>
        <time>2022-09-02T07:06:22Z</time>
      </trkpt>
      <trkpt lat="47.9045" lon="6.82418">
        <ele>785.3</ele>
        <time>2022-09-02T07:06:23Z</time>
      </trkpt>
      <trkpt lat="47.90451" lon="6.8242">
        <ele>784.9</ele>
        <time>2022-09-02T07:06:24Z</time>
      </trkpt>
      <trkpt lat="47.90451" lon="6.82422">
        <ele>785</ele>
        <time>2022-09-02T07:06:25Z</time>
      </trkpt>
      <trkpt lat="47.90451" lon="6.82423">
        <ele>785</ele>
        <time>2022-09-02T07:06:26Z</time>
      </trkpt>
      <trkpt lat="47.90452" lon="6.82425">
        <ele>784.7</ele>
        <time>2022-09-02T07:06:27Z</time>
      </trkpt>
      <trkpt lat="47.90452" lon="6.82426">
        <ele>784.7</ele>
        <time>2022-09-02T07:06:28Z</time>
      </trkpt>
      <trkpt lat="47.90453" lon="6.82428">
        <ele>784.3</ele>
        <time>2022-09-02T07:06:29Z</time>
      </trkpt>
      <trkpt lat="47.90453" lon="6.82429">
        <ele>784.4</ele>
        <time>2022-09-02T07:06:30Z</time>
      </trkpt>
      <trkpt lat="47.90454" lon="6.8243">
        <ele>784</ele>
        <time>2022-09-02T07:06:31Z</time>
      </trkpt>
      <trkpt lat="47.90454" lon="6.82431">
        <ele>784.1</ele>
        <time>2022-09-02T07:06:32Z</time>
      </trkpt>
      <trkpt lat="47.90455" lon="6.82432">
        <ele>783.7</ele>
        <time>2022-09-02T07:06:33Z</time>
      </trkpt>
      <trkpt lat="47.90455" lon="6.82433">
        <ele>783.7</ele>
        <time>2022-09-02T07:06:34Z</time>
      </trkpt>
      <trkpt lat="47.90456" lon="6.82434">
        <ele>783.3</ele>
        <time>2022-09-02T07:06:35Z</time>
      </trkpt>
      <trkpt lat="47.90457" lon="6.82435">
        <ele>782.9</ele>
        <time>2022-09-02T07:06:36Z</time>
      </trkpt>
      <trkpt lat="47.90458" lon="6.82435">
        <ele>782.5</ele>
        <time>2022-09-02T07:06:37Z</time>
      </trkpt>
      <trkpt lat="47.90458" lon="6.82436">
        <ele>782.5</ele>
        <time>2022-09-02T07:06:38Z</time>
      </trkpt>
      <trkpt lat="47.90459" lon="6.82437">
        <ele>782.2</ele>
        <time>2022-09-02T07:06:39Z</time>
      </trkpt>
      <trkpt lat="47.9046" lon="6.82438">
        <ele>781.8</ele>
        <time>2022-09-02T07:06:40Z</time>
      </trkpt>
      <trkpt lat="47.9046" lon="6.82439">
        <ele>781.9</ele>
        <time>2022-09-02T07:06:41Z</time>
      </trkpt>
      <trkpt lat="47.90461" lon="6.8244">
        <ele>781.5</ele>
        <time>2022-09-02T07:06:42Z</time>
      </trkpt>
      <trkpt lat="47.90461" lon="6.82442">
        <ele>781.7</ele>
        <time>2022-09-02T07:06:43Z</time>
      </trkpt>
      <trkpt lat="47.90461" lon="6.82443">
        <ele>781.7</ele>
        <time>2022-09-02T07:06:44Z</time>
      </trkpt>
      <trkpt lat="47.90462" lon="6.82445">
        <ele>781.5</ele>
        <time>2022-09-02T07:06:45Z</time>
      </trkpt>
      <trkpt lat="47.90463" lon="6.82446">
        <ele>781.1</ele>
        <time>2022-09-02T07:06:46Z</time>
      </trkpt>
      <trkpt lat="47.90464" lon="6.82448">
        <ele>780.9</ele>
        <time>2022-09-02T07:06:47Z</time>
      </trkpt>
      <trkpt lat="47.90465" lon="6.8245">
        <ele>780.6</ele>
        <time>2022-09-02T07:06:48Z</time>
      </trkpt>
      <trkpt lat="47.90465" lon="6.82451">
        <ele>780.7</ele>
        <time>2022-09-02T07:06:49Z</time>
      </trkpt>
      <trkpt lat="47.90465" lon="6.82453">
        <ele>780.9</ele>
        <time>2022-09-02T07:06:50Z</time>
      </trkpt>
      <trkpt lat="47.90465" lon="6.82455">
        <ele>781.1</ele>
        <time>2022-09-02T07:06:51Z</time>
      </trkpt>
      <trkpt lat="47.90465" lon="6.82457">
        <ele>781.2</ele>
        <time>2022-09-02T07:06:52Z</time>
      </trkpt>
      <trkpt lat="47.90465" lon="6.82458">
        <ele>781.3</ele>
        <time>2022-09-02T07:06:53Z</time>
      </trkpt>
      <trkpt lat="47.90465" lon="6.82459">
        <ele>781.4</ele>
        <time>2022-09-02T07:06:54Z</time>
      </trkpt>
      <trkpt lat="47.90465" lon="6.82461">
        <ele>781.6</ele>
        <time>2022-09-02T07:06:55Z</time>
      </trkpt>
      <trkpt lat="47.90465" lon="6.82462">
        <ele>781.7</ele>
        <time>2022-09-02T07:06:56Z</time>
      </trkpt>
      <trkpt lat="47.90466" lon="6.82463">
        <ele>781.4</ele>
        <time>2022-09-02T07:06:57Z</time>
      </trkpt>
      <trkpt lat="47.90466" lon="6.82464">
        <ele>781.5</ele>
        <time>2022-09-02T07:06:58Z</time>
      </trkpt>
      <trkpt lat="47.90467" lon="6.82466">
        <ele>781.3</ele>
        <time>2022-09-02T07:06:59Z</time>
      </trkpt>
      <trkpt lat="47.90467" lon="6.82467">
        <ele>781.4</ele>
        <time>2022-09-02T07:07:00Z</time>
      </trkpt>
      <trkpt lat="47.90468" lon="6.82468">
        <ele>781.1</ele>
        <time>2022-09-02T07:07:01Z</time>
      </trkpt>
      <trkpt lat="47.90468" lon="6.8247">
        <ele>781.3</ele>
        <time>2022-09-02T07:07:02Z</time>
      </trkpt>
      <trkpt lat="47.90468" lon="6.82471">
        <ele>781.4</ele>
        <time>2022-09-02T07:07:03Z</time>
      </trkpt>
      <trkpt lat="47.90469" lon="6.82472">
        <ele>781.1</ele>
        <time>2022-09-02T07:07:04Z</time>
      </trkpt>
      <trkpt lat="47.90469" lon="6.82473">
        <ele>781.3</ele>
        <time>2022-09-02T07:07:05Z</time>
      </trkpt>
      <trkpt lat="47.90469" lon="6.82474">
        <ele>781.4</ele>
        <time>2022-09-02T07:07:06Z</time>
      </trkpt>
      <trkpt lat="47.90469" lon="6.82476">
        <ele>781.6</ele>
        <time>2022-09-02T07:07:07Z</time>
      </trkpt>
      <trkpt lat="47.9047" lon="6.82477">
        <ele>781.3</ele>
        <time>2022-09-02T07:07:08Z</time>
      </trkpt>
      <trkpt lat="47.9047" lon="6.82478">
        <ele>781.5</ele>
        <time>2022-09-02T07:07:09Z</time>
      </trkpt>
      <trkpt lat="47.9047" lon="6.82479">
        <ele>781.6</ele>
        <time>2022-09-02T07:07:10Z</time>
      </trkpt>
      <trkpt lat="47.90471" lon="6.8248">
        <ele>781.3</ele>
        <time>2022-09-02T07:07:11Z</time>
      </trkpt>
      <trkpt lat="47.90471" lon="6.82481">
        <ele>781.4</ele>
        <time>2022-09-02T07:07:12Z</time>
      </trkpt>
      <trkpt lat="47.90472" lon="6.82482">
        <ele>781.1</ele>
        <time>2022-09-02T07:07:13Z</time>
      </trkpt>
      <trkpt lat="47.90472" lon="6.82484">
        <ele>781.4</ele>
        <time>2022-09-02T07:07:14Z</time>
      </trkpt>
      <trkpt lat="47.90473" lon="6.82485">
        <ele>781.1</ele>
        <time>2022-09-02T07:07:15Z</time>
      </trkpt>
      <trkpt lat="47.90473" lon="6.82487">
        <ele>781.3</ele>
        <time>2022-09-02T07:07:16Z</time>
      </trkpt>
      <trkpt lat="47.90473" lon="6.82488">
        <ele>781.4</ele>
        <time>2022-09-02T07:07:17Z</time>
      </trkpt>
      <trkpt lat="47.90474" lon="6.8249">
        <ele>781.3</ele>
        <time>2022-09-02T07:07:18Z</time>
      </trkpt>
      <trkpt lat="47.90474" lon="6.82492">
        <ele>781.5</ele>
        <time>2022-09-02T07:07:19Z</time>
      </trkpt>
      <trkpt lat="47.90475" lon="6.82494">
        <ele>781.4</ele>
        <time>2022-09-02T07:07:20Z</time>
      </trkpt>
      <trkpt lat="47.90475" lon="6.82496">
        <ele>781.6</ele>
        <time>2022-09-02T07:07:21Z</time>
      </trkpt>
      <trkpt lat="47.90476" lon="6.82498">
        <ele>781.4</ele>
        <time>2022-09-02T07:07:22Z</time>
      </trkpt>
      <trkpt lat="47.90476" lon="6.825">
        <ele>781.6</ele>
        <time>2022-09-02T07:07:23Z</time>
      </trkpt>
      <trkpt lat="47.90476" lon="6.82503">
        <ele>781.7</ele>
        <time>2022-09-02T07:07:24Z</time>
      </trkpt>
      <trkpt lat="47.90476" lon="6.82505">
        <ele>781.8</ele>
        <time>2022-09-02T07:07:25Z</time>
      </trkpt>
      <trkpt lat="47.90475" lon="6.82507">
        <ele>782.3</ele>
        <time>2022-09-02T07:07:26Z</time>
      </trkpt>
      <trkpt lat="47.90475" lon="6.82508">
        <ele>782.3</ele>
        <time>2022-09-02T07:07:27Z</time>
      </trkpt>
      <trkpt lat="47.90475" lon="6.82509">
        <ele>782.3</ele>
        <time>2022-09-02T07:07:28Z</time>
      </trkpt>
      <trkpt lat="47.90475" lon="6.82511">
        <ele>782.4</ele>
        <time>2022-09-02T07:07:29Z</time>
      </trkpt>
      <trkpt lat="47.90475" lon="6.82512">
        <ele>782.4</ele>
        <time>2022-09-02T07:07:30Z</time>
      </trkpt>
      <trkpt lat="47.90476" lon="6.82514">
        <ele>782.1</ele>
        <time>2022-09-02T07:07:31Z</time>
      </trkpt>
      <trkpt lat="47.90476" lon="6.82515">
        <ele>782.2</ele>
        <time>2022-09-02T07:07:32Z</time>
      </trkpt>
      <trkpt lat="47.90477" lon="6.82517">
        <ele>781.9</ele>
        <time>2022-09-02T07:07:33Z</time>
      </trkpt>
      <trkpt lat="47.90477" lon="6.82518">
        <ele>781.9</ele>
        <time>2022-09-02T07:07:34Z</time>
      </trkpt>
      <trkpt lat="47.90478" lon="6.8252">
        <ele>781.6</ele>
        <time>2022-09-02T07:07:35Z</time>
      </trkpt>
      <trkpt lat="47.90478" lon="6.82521">
        <ele>781.7</ele>
        <time>2022-09-02T07:07:36Z</time>
      </trkpt>
      <trkpt lat="47.90478" lon="6.82523">
        <ele>781.7</ele>
        <time>2022-09-02T07:07:37Z</time>
      </trkpt>
      <trkpt lat="47.90478" lon="6.82525">
        <ele>781.8</ele>
        <time>2022-09-02T07:07:38Z</time>
      </trkpt>
      <trkpt lat="47.90478" lon="6.82527">
        <ele>781.9</ele>
        <time>2022-09-02T07:07:39Z</time>
      </trkpt>
      <trkpt lat="47.90478" lon="6.82529">
        <ele>782</ele>
        <time>2022-09-02T07:07:40Z</time>
      </trkpt>
      <trkpt lat="47.90478" lon="6.8253">
        <ele>782.1</ele>
        <time>2022-09-02T07:07:41Z</time>
      </trkpt>
      <trkpt lat="47.90478" lon="6.82532">
        <ele>782.2</ele>
        <time>2022-09-02T07:07:42Z</time>
      </trkpt>
      <trkpt lat="47.90478" lon="6.82534">
        <ele>782.4</ele>
        <time>2022-09-02T07:07:43Z</time>
      </trkpt>
      <trkpt lat="47.90478" lon="6.82535">
        <ele>782.4</ele>
        <time>2022-09-02T07:07:44Z</time>
      </trkpt>
      <trkpt lat="47.90478" lon="6.82537">
        <ele>782.6</ele>
        <time>2022-09-02T07:07:45Z</time>
      </trkpt>
      <trkpt lat="47.90479" lon="6.82538">
        <ele>782.3</ele>
        <time>2022-09-02T07:07:46Z</time>
      </trkpt>
      <trkpt lat="47.90479" lon="6.82539">
        <ele>782.4</ele>
        <time>2022-09-02T07:07:47Z</time>
      </trkpt>
      <trkpt lat="47.9048" lon="6.8254">
        <ele>782.1</ele>
        <time>2022-09-02T07:07:48Z</time>
      </trkpt>
      <trkpt lat="47.9048" lon="6.82542">
        <ele>782.2</ele>
        <time>2022-09-02T07:07:49Z</time>
      </trkpt>
      <trkpt lat="47.90481" lon="6.82543">
        <ele>781.9</ele>
        <time>2022-09-02T07:07:50Z</time>
      </trkpt>
      <trkpt lat="47.90481" lon="6.82544">
        <ele>782</ele>
        <time>2022-09-02T07:07:51Z</time>
      </trkpt>
      <trkpt lat="47.90482" lon="6.82545">
        <ele>781.7</ele>
        <time>2022-09-02T07:07:52Z</time>
      </trkpt>
      <trkpt lat="47.90482" lon="6.82546">
        <ele>781.8</ele>
        <time>2022-09-02T07:08:24Z</time>
      </trkpt>
      <trkpt lat="47.90483" lon="6.82547">
        <ele>781.5</ele>
        <time>2022-09-02T07:08:25Z</time>
      </trkpt>
      <trkpt lat="47.90483" lon="6.82548">
        <ele>781.6</ele>
        <time>2022-09-02T07:08:26Z</time>
      </trkpt>
      <trkpt lat="47.90483" lon="6.82549">
        <ele>781.6</ele>
        <time>2022-09-02T07:08:27Z</time>
      </trkpt>
      <trkpt lat="47.90483" lon="6.8255">
        <ele>781.7</ele>
        <time>2022-09-02T07:08:28Z</time>
      </trkpt>
      <trkpt lat="47.90483" lon="6.82551">
        <ele>781.8</ele>
        <time>2022-09-02T07:08:29Z</time>
      </trkpt>
      <trkpt lat="47.90484" lon="6.82553">
        <ele>781.6</ele>
        <time>2022-09-02T07:08:30Z</time>
      </trkpt>
      <trkpt lat="47.90484" lon="6.82554">
        <ele>781.6</ele>
        <time>2022-09-02T07:08:31Z</time>
      </trkpt>
      <trkpt lat="47.90484" lon="6.82555">
        <ele>781.7</ele>
        <time>2022-09-02T07:08:32Z</time>
      </trkpt>
      <trkpt lat="47.90484" lon="6.82556">
        <ele>781.8</ele>
        <time>2022-09-02T07:08:33Z</time>
      </trkpt>
      <trkpt lat="47.90485" lon="6.82557">
        <ele>781.5</ele>
        <time>2022-09-02T07:08:34Z</time>
      </trkpt>
      <trkpt lat="47.90485" lon="6.82559">
        <ele>781.6</ele>
        <time>2022-09-02T07:08:35Z</time>
      </trkpt>
      <trkpt lat="47.90485" lon="6.8256">
        <ele>781.7</ele>
        <time>2022-09-02T07:08:36Z</time>
      </trkpt>
      <trkpt lat="47.90486" lon="6.82561">
        <ele>781.4</ele>
        <time>2022-09-02T07:08:37Z</time>
      </trkpt>
      <trkpt lat="47.90486" lon="6.82562">
        <ele>781.5</ele>
        <time>2022-09-02T07:08:38Z</time>
      </trkpt>
      <trkpt lat="47.90487" lon="6.82563">
        <ele>781.2</ele>
        <time>2022-09-02T07:08:39Z</time>
      </trkpt>
      <trkpt lat="47.90487" lon="6.82564">
        <ele>781.3</ele>
        <time>2022-09-02T07:08:40Z</time>
      </trkpt>
      <trkpt lat="47.90488" lon="6.82565">
        <ele>781</ele>
        <time>2022-09-02T07:08:41Z</time>
      </trkpt>
      <trkpt lat="47.90488" lon="6.82566">
        <ele>781.1</ele>
        <time>2022-09-02T07:08:42Z</time>
      </trkpt>
      <trkpt lat="47.90488" lon="6.82568">
        <ele>781.2</ele>
        <time>2022-09-02T07:08:43Z</time>
      </trkpt>
      <trkpt lat="47.90488" lon="6.82569">
        <ele>781.3</ele>
        <time>2022-09-02T07:08:44Z</time>
      </trkpt>
      <trkpt lat="47.90489" lon="6.82571">
        <ele>781.1</ele>
        <time>2022-09-02T07:08:45Z</time>
      </trkpt>
      <trkpt lat="47.90489" lon="6.82572">
        <ele>781.1</ele>
        <time>2022-09-02T07:08:46Z</time>
      </trkpt>
      <trkpt lat="47.90489" lon="6.82574">
        <ele>781.3</ele>
        <time>2022-09-02T07:08:47Z</time>
      </trkpt>
      <trkpt lat="47.9049" lon="6.82576">
        <ele>781.1</ele>
        <time>2022-09-02T07:08:48Z</time>
      </trkpt>
      <trkpt lat="47.9049" lon="6.82577">
        <ele>781.1</ele>
        <time>2022-09-02T07:08:49Z</time>
      </trkpt>
      <trkpt lat="47.90491" lon="6.82578">
        <ele>780.9</ele>
        <time>2022-09-02T07:08:50Z</time>
      </trkpt>
      <trkpt lat="47.90491" lon="6.82579">
        <ele>780.9</ele>
        <time>2022-09-02T07:08:51Z</time>
      </trkpt>
      <trkpt lat="47.90492" lon="6.82581">
        <ele>780.7</ele>
        <time>2022-09-02T07:08:52Z</time>
      </trkpt>
      <trkpt lat="47.90492" lon="6.82582">
        <ele>780.8</ele>
        <time>2022-09-02T07:08:53Z</time>
      </trkpt>
      <trkpt lat="47.90493" lon="6.82583">
        <ele>780.5</ele>
        <time>2022-09-02T07:08:54Z</time>
      </trkpt>
      <trkpt lat="47.90493" lon="6.82584">
        <ele>780.6</ele>
        <time>2022-09-02T07:08:55Z</time>
      </trkpt>
      <trkpt lat="47.90494" lon="6.82585">
        <ele>780.3</ele>
        <time>2022-09-02T07:08:56Z</time>
      </trkpt>
      <trkpt lat="47.90495" lon="6.82586">
        <ele>780.1</ele>
        <time>2022-09-02T07:08:57Z</time>
      </trkpt>
      <trkpt lat="47.90496" lon="6.82587">
        <ele>779.8</ele>
        <time>2022-09-02T07:08:58Z</time>
      </trkpt>
      <trkpt lat="47.90497" lon="6.82588">
        <ele>779.6</ele>
        <time>2022-09-02T07:08:59Z</time>
      </trkpt>
      <trkpt lat="47.90498" lon="6.82589">
        <ele>779.3</ele>
        <time>2022-09-02T07:09:00Z</time>
      </trkpt>
      <trkpt lat="47.90498" lon="6.8259">
        <ele>779.4</ele>
        <time>2022-09-02T07:09:01Z</time>
      </trkpt>
      <trkpt lat="47.90499" lon="6.82591">
        <ele>779.2</ele>
        <time>2022-09-02T07:09:02Z</time>
      </trkpt>
      <trkpt lat="47.905" lon="6.82592">
        <ele>778.9</ele>
        <time>2022-09-02T07:09:03Z</time>
      </trkpt>
      <trkpt lat="47.90501" lon="6.82593">
        <ele>778.6</ele>
        <time>2022-09-02T07:09:04Z</time>
      </trkpt>
      <trkpt lat="47.90501" lon="6.82594">
        <ele>778.7</ele>
        <time>2022-09-02T07:09:05Z</time>
      </trkpt>
      <trkpt lat="47.90502" lon="6.82596">
        <ele>778.4</ele>
        <time>2022-09-02T07:09:06Z</time>
      </trkpt>
      <trkpt lat="47.90502" lon="6.82597">
        <ele>778.5</ele>
        <time>2022-09-02T07:09:07Z</time>
      </trkpt>
      <trkpt lat="47.90502" lon="6.82598">
        <ele>778.6</ele>
        <time>2022-09-02T07:09:08Z</time>
      </trkpt>
      <trkpt lat="47.90503" lon="6.826">
        <ele>778.4</ele>
        <time>2022-09-02T07:09:09Z</time>
      </trkpt>
      <trkpt lat="47.90503" lon="6.82601">
        <ele>778.5</ele>
        <time>2022-09-02T07:09:10Z</time>
      </trkpt>
      <trkpt lat="47.90503" lon="6.82602">
        <ele>778.6</ele>
        <time>2022-09-02T07:09:11Z</time>
      </trkpt>
      <trkpt lat="47.90503" lon="6.82603">
        <ele>778.7</ele>
        <time>2022-09-02T07:09:12Z</time>
      </trkpt>
      <trkpt lat="47.90503" lon="6.82604">
        <ele>778.8</ele>
        <time>2022-09-02T07:09:13Z</time>
      </trkpt>
      <trkpt lat="47.90503" lon="6.82605">
        <ele>778.9</ele>
        <time>2022-09-02T07:09:15Z</time>
      </trkpt>
      <trkpt lat="47.90504" lon="6.82606">
        <ele>778.6</ele>
        <time>2022-09-02T07:09:16Z</time>
      </trkpt>
      <trkpt lat="47.90504" lon="6.82607">
        <ele>778.7</ele>
        <time>2022-09-02T07:09:17Z</time>
      </trkpt>
      <trkpt lat="47.90504" lon="6.82609">
        <ele>778.9</ele>
        <time>2022-09-02T07:09:18Z</time>
      </trkpt>
      <trkpt lat="47.90504" lon="6.8261">
        <ele>779</ele>
        <time>2022-09-02T07:09:19Z</time>
      </trkpt>
      <trkpt lat="47.90504" lon="6.82612">
        <ele>779.2</ele>
        <time>2022-09-02T07:09:20Z</time>
      </trkpt>
      <trkpt lat="47.90504" lon="6.82613">
        <ele>779.3</ele>
        <time>2022-09-02T07:09:21Z</time>
      </trkpt>
      <trkpt lat="47.90505" lon="6.82615">
        <ele>779</ele>
        <time>2022-09-02T07:09:22Z</time>
      </trkpt>
      <trkpt lat="47.90505" lon="6.82617">
        <ele>779.1</ele>
        <time>2022-09-02T07:09:23Z</time>
      </trkpt>
      <trkpt lat="47.90505" lon="6.82619">
        <ele>779.3</ele>
        <time>2022-09-02T07:09:24Z</time>
      </trkpt>
      <trkpt lat="47.90505" lon="6.8262">
        <ele>779.4</ele>
        <time>2022-09-02T07:09:25Z</time>
      </trkpt>
      <trkpt lat="47.90505" lon="6.82621">
        <ele>779.4</ele>
        <time>2022-09-02T07:09:26Z</time>
      </trkpt>
      <trkpt lat="47.90505" lon="6.82623">
        <ele>779.6</ele>
        <time>2022-09-02T07:09:27Z</time>
      </trkpt>
      <trkpt lat="47.90505" lon="6.82624">
        <ele>779.7</ele>
        <time>2022-09-02T07:09:28Z</time>
      </trkpt>
      <trkpt lat="47.90506" lon="6.82626">
        <ele>779.4</ele>
        <time>2022-09-02T07:09:29Z</time>
      </trkpt>
      <trkpt lat="47.90506" lon="6.82628">
        <ele>779.5</ele>
        <time>2022-09-02T07:09:30Z</time>
      </trkpt>
      <trkpt lat="47.90507" lon="6.8263">
        <ele>779.3</ele>
        <time>2022-09-02T07:09:31Z</time>
      </trkpt>
      <trkpt lat="47.90507" lon="6.82631">
        <ele>779.3</ele>
        <time>2022-09-02T07:09:32Z</time>
      </trkpt>
      <trkpt lat="47.90508" lon="6.82633">
        <ele>779.1</ele>
        <time>2022-09-02T07:09:33Z</time>
      </trkpt>
      <trkpt lat="47.90508" lon="6.82635">
        <ele>779.2</ele>
        <time>2022-09-02T07:09:34Z</time>
      </trkpt>
      <trkpt lat="47.90509" lon="6.82637">
        <ele>779</ele>
        <time>2022-09-02T07:09:35Z</time>
      </trkpt>
      <trkpt lat="47.90509" lon="6.82639">
        <ele>779.1</ele>
        <time>2022-09-02T07:09:36Z</time>
      </trkpt>
      <trkpt lat="47.9051" lon="6.82641">
        <ele>778.9</ele>
        <time>2022-09-02T07:09:37Z</time>
      </trkpt>
      <trkpt lat="47.9051" lon="6.82643">
        <ele>779</ele>
        <time>2022-09-02T07:09:38Z</time>
      </trkpt>
      <trkpt lat="47.9051" lon="6.82645">
        <ele>779.2</ele>
        <time>2022-09-02T07:09:39Z</time>
      </trkpt>
      <trkpt lat="47.90511" lon="6.82647">
        <ele>778.9</ele>
        <time>2022-09-02T07:09:40Z</time>
      </trkpt>
      <trkpt lat="47.90511" lon="6.82649">
        <ele>779.1</ele>
        <time>2022-09-02T07:09:41Z</time>
      </trkpt>
      <trkpt lat="47.90511" lon="6.82651">
        <ele>779.3</ele>
        <time>2022-09-02T07:09:42Z</time>
      </trkpt>
      <trkpt lat="47.90512" lon="6.82652">
        <ele>779</ele>
        <time>2022-09-02T07:09:43Z</time>
      </trkpt>
      <trkpt lat="47.90512" lon="6.82654">
        <ele>779.1</ele>
        <time>2022-09-02T07:09:44Z</time>
      </trkpt>
      <trkpt lat="47.90513" lon="6.82655">
        <ele>778.8</ele>
        <time>2022-09-02T07:09:45Z</time>
      </trkpt>
      <trkpt lat="47.90513" lon="6.82657">
        <ele>779</ele>
        <time>2022-09-02T07:09:46Z</time>
      </trkpt>
      <trkpt lat="47.90514" lon="6.82658">
        <ele>778.7</ele>
        <time>2022-09-02T07:09:47Z</time>
      </trkpt>
      <trkpt lat="47.90514" lon="6.82659">
        <ele>778.8</ele>
        <time>2022-09-02T07:09:48Z</time>
      </trkpt>
      <trkpt lat="47.90515" lon="6.82661">
        <ele>778.5</ele>
        <time>2022-09-02T07:09:49Z</time>
      </trkpt>
      <trkpt lat="47.90515" lon="6.82662">
        <ele>778.6</ele>
        <time>2022-09-02T07:09:50Z</time>
      </trkpt>
      <trkpt lat="47.90515" lon="6.82663">
        <ele>778.7</ele>
        <time>2022-09-02T07:09:51Z</time>
      </trkpt>
      <trkpt lat="47.90515" lon="6.82664">
        <ele>778.8</ele>
        <time>2022-09-02T07:09:52Z</time>
      </trkpt>
      <trkpt lat="47.90515" lon="6.82666">
        <ele>779</ele>
        <time>2022-09-02T07:09:53Z</time>
      </trkpt>
      <trkpt lat="47.90514" lon="6.82668">
        <ele>779.5</ele>
        <time>2022-09-02T07:09:54Z</time>
      </trkpt>
      <trkpt lat="47.90514" lon="6.82669">
        <ele>779.5</ele>
        <time>2022-09-02T07:09:55Z</time>
      </trkpt>
      <trkpt lat="47.90514" lon="6.82671">
        <ele>779.5</ele>
        <time>2022-09-02T07:09:56Z</time>
      </trkpt>
      <trkpt lat="47.90514" lon="6.82672">
        <ele>779.5</ele>
        <time>2022-09-02T07:09:57Z</time>
      </trkpt>
      <trkpt lat="47.90514" lon="6.82674">
        <ele>779.5</ele>
        <time>2022-09-02T07:09:58Z</time>
      </trkpt>
      <trkpt lat="47.90513" lon="6.82675">
        <ele>779.9</ele>
        <time>2022-09-02T07:09:59Z</time>
      </trkpt>
      <trkpt lat="47.90513" lon="6.82677">
        <ele>779.9</ele>
        <time>2022-09-02T07:10:00Z</time>
      </trkpt>
      <trkpt lat="47.90513" lon="6.82679">
        <ele>779.9</ele>
        <time>2022-09-02T07:10:01Z</time>
      </trkpt>
      <trkpt lat="47.90513" lon="6.8268">
        <ele>779.9</ele>
        <time>2022-09-02T07:10:02Z</time>
      </trkpt>
      <trkpt lat="47.90513" lon="6.82682">
        <ele>779.9</ele>
        <time>2022-09-02T07:10:03Z</time>
      </trkpt>
      <trkpt lat="47.90513" lon="6.82684">
        <ele>779.9</ele>
        <time>2022-09-02T07:10:04Z</time>
      </trkpt>
      <trkpt lat="47.90513" lon="6.82685">
        <ele>779.9</ele>
        <time>2022-09-02T07:10:05Z</time>
      </trkpt>
      <trkpt lat="47.90513" lon="6.82687">
        <ele>779.9</ele>
        <time>2022-09-02T07:10:06Z</time>
      </trkpt>
      <trkpt lat="47.90513" lon="6.82689">
        <ele>779.9</ele>
        <time>2022-09-02T07:10:07Z</time>
      </trkpt>
      <trkpt lat="47.90513" lon="6.82691">
        <ele>779.9</ele>
        <time>2022-09-02T07:10:08Z</time>
      </trkpt>
      <trkpt lat="47.90513" lon="6.82693">
        <ele>779.9</ele>
        <time>2022-09-02T07:10:09Z</time>
      </trkpt>
      <trkpt lat="47.90512" lon="6.82694">
        <ele>780.2</ele>
        <time>2022-09-02T07:10:10Z</time>
      </trkpt>
      <trkpt lat="47.90512" lon="6.82696">
        <ele>780.4</ele>
        <time>2022-09-02T07:10:11Z</time>
      </trkpt>
      <trkpt lat="47.90512" lon="6.82698">
        <ele>780.6</ele>
        <time>2022-09-02T07:10:12Z</time>
      </trkpt>
      <trkpt lat="47.90512" lon="6.82699">
        <ele>780.6</ele>
        <time>2022-09-02T07:10:13Z</time>
      </trkpt>
      <trkpt lat="47.90512" lon="6.827">
        <ele>780.7</ele>
        <time>2022-09-02T07:10:14Z</time>
      </trkpt>
      <trkpt lat="47.90513" lon="6.82702">
        <ele>780.5</ele>
        <time>2022-09-02T07:10:15Z</time>
      </trkpt>
      <trkpt lat="47.90513" lon="6.82703">
        <ele>780.6</ele>
        <time>2022-09-02T07:10:16Z</time>
      </trkpt>
      <trkpt lat="47.90513" lon="6.82705">
        <ele>780.8</ele>
        <time>2022-09-02T07:10:17Z</time>
      </trkpt>
      <trkpt lat="47.90513" lon="6.82706">
        <ele>780.9</ele>
        <time>2022-09-02T07:10:18Z</time>
      </trkpt>
      <trkpt lat="47.90513" lon="6.82707">
        <ele>781</ele>
        <time>2022-09-02T07:10:19Z</time>
      </trkpt>
      <trkpt lat="47.90513" lon="6.82709">
        <ele>781.1</ele>
        <time>2022-09-02T07:10:20Z</time>
      </trkpt>
      <trkpt lat="47.90513" lon="6.82711">
        <ele>781.3</ele>
        <time>2022-09-02T07:10:21Z</time>
      </trkpt>
      <trkpt lat="47.90513" lon="6.82712">
        <ele>781.4</ele>
        <time>2022-09-02T07:10:22Z</time>
      </trkpt>
      <trkpt lat="47.90514" lon="6.82714">
        <ele>781.2</ele>
        <time>2022-09-02T07:10:23Z</time>
      </trkpt>
      <trkpt lat="47.90514" lon="6.82716">
        <ele>781.4</ele>
        <time>2022-09-02T07:10:24Z</time>
      </trkpt>
      <trkpt lat="47.90515" lon="6.82717">
        <ele>781.1</ele>
        <time>2022-09-02T07:10:25Z</time>
      </trkpt>
      <trkpt lat="47.90515" lon="6.82719">
        <ele>781.3</ele>
        <time>2022-09-02T07:10:26Z</time>
      </trkpt>
      <trkpt lat="47.90516" lon="6.82721">
        <ele>781.1</ele>
        <time>2022-09-02T07:10:27Z</time>
      </trkpt>
      <trkpt lat="47.90516" lon="6.82722">
        <ele>781.2</ele>
        <time>2022-09-02T07:10:28Z</time>
      </trkpt>
      <trkpt lat="47.90516" lon="6.82724">
        <ele>781.4</ele>
        <time>2022-09-02T07:10:29Z</time>
      </trkpt>
      <trkpt lat="47.90517" lon="6.82725">
        <ele>781.2</ele>
        <time>2022-09-02T07:10:30Z</time>
      </trkpt>
      <trkpt lat="47.90517" lon="6.82727">
        <ele>781.4</ele>
        <time>2022-09-02T07:10:31Z</time>
      </trkpt>
      <trkpt lat="47.90517" lon="6.82728">
        <ele>781.5</ele>
        <time>2022-09-02T07:10:32Z</time>
      </trkpt>
      <trkpt lat="47.90517" lon="6.8273">
        <ele>781.7</ele>
        <time>2022-09-02T07:10:33Z</time>
      </trkpt>
      <trkpt lat="47.90518" lon="6.82732">
        <ele>781.6</ele>
        <time>2022-09-02T07:10:34Z</time>
      </trkpt>
      <trkpt lat="47.90518" lon="6.82734">
        <ele>781.8</ele>
        <time>2022-09-02T07:10:35Z</time>
      </trkpt>
      <trkpt lat="47.90519" lon="6.82735">
        <ele>781.5</ele>
        <time>2022-09-02T07:10:36Z</time>
      </trkpt>
      <trkpt lat="47.90519" lon="6.82737">
        <ele>781.8</ele>
        <time>2022-09-02T07:10:37Z</time>
      </trkpt>
      <trkpt lat="47.9052" lon="6.82738">
        <ele>781.5</ele>
        <time>2022-09-02T07:10:38Z</time>
      </trkpt>
      <trkpt lat="47.9052" lon="6.82739">
        <ele>781.6</ele>
        <time>2022-09-02T07:10:39Z</time>
      </trkpt>
      <trkpt lat="47.9052" lon="6.8274">
        <ele>781.7</ele>
        <time>2022-09-02T07:10:41Z</time>
      </trkpt>
      <trkpt lat="47.9052" lon="6.82741">
        <ele>781.8</ele>
        <time>2022-09-02T07:10:42Z</time>
      </trkpt>
      <trkpt lat="47.9052" lon="6.82742">
        <ele>781.9</ele>
        <time>2022-09-02T07:10:43Z</time>
      </trkpt>
      <trkpt lat="47.9052" lon="6.82744">
        <ele>782.2</ele>
        <time>2022-09-02T07:10:44Z</time>
      </trkpt>
      <trkpt lat="47.9052" lon="6.82745">
        <ele>782.3</ele>
        <time>2022-09-02T07:10:45Z</time>
      </trkpt>
      <trkpt lat="47.9052" lon="6.82746">
        <ele>782.4</ele>
        <time>2022-09-02T07:10:46Z</time>
      </trkpt>
      <trkpt lat="47.9052" lon="6.82748">
        <ele>782.6</ele>
        <time>2022-09-02T07:10:47Z</time>
      </trkpt>
      <trkpt lat="47.90521" lon="6.82749">
        <ele>782.3</ele>
        <time>2022-09-02T07:10:48Z</time>
      </trkpt>
      <trkpt lat="47.90521" lon="6.82751">
        <ele>782.5</ele>
        <time>2022-09-02T07:10:49Z</time>
      </trkpt>
      <trkpt lat="47.90521" lon="6.82752">
        <ele>782.6</ele>
        <time>2022-09-02T07:10:50Z</time>
      </trkpt>
      <trkpt lat="47.90522" lon="6.82753">
        <ele>782.3</ele>
        <time>2022-09-02T07:10:51Z</time>
      </trkpt>
      <trkpt lat="47.90522" lon="6.82754">
        <ele>782.4</ele>
        <time>2022-09-02T07:10:52Z</time>
      </trkpt>
      <trkpt lat="47.90523" lon="6.82756">
        <ele>782.2</ele>
        <time>2022-09-02T07:10:53Z</time>
      </trkpt>
      <trkpt lat="47.90523" lon="6.82757">
        <ele>782.3</ele>
        <time>2022-09-02T07:10:54Z</time>
      </trkpt>
      <trkpt lat="47.90524" lon="6.82759">
        <ele>782.1</ele>
        <time>2022-09-02T07:10:55Z</time>
      </trkpt>
      <trkpt lat="47.90524" lon="6.8276">
        <ele>782.2</ele>
        <time>2022-09-02T07:10:56Z</time>
      </trkpt>
      <trkpt lat="47.90524" lon="6.82761">
        <ele>782.3</ele>
        <time>2022-09-02T07:10:57Z</time>
      </trkpt>
      <trkpt lat="47.90525" lon="6.82762">
        <ele>782</ele>
        <time>2022-09-02T07:10:58Z</time>
      </trkpt>
      <trkpt lat="47.90526" lon="6.82763">
        <ele>781.6</ele>
        <time>2022-09-02T07:10:59Z</time>
      </trkpt>
      <trkpt lat="47.90526" lon="6.82764">
        <ele>781.7</ele>
        <time>2022-09-02T07:11:00Z</time>
      </trkpt>
      <trkpt lat="47.90527" lon="6.82765">
        <ele>781.4</ele>
        <time>2022-09-02T07:11:01Z</time>
      </trkpt>
      <trkpt lat="47.90527" lon="6.82767">
        <ele>781.5</ele>
        <time>2022-09-02T07:11:02Z</time>
      </trkpt>
      <trkpt lat="47.90528" lon="6.82768">
        <ele>781.2</ele>
        <time>2022-09-02T07:11:03Z</time>
      </trkpt>
      <trkpt lat="47.90528" lon="6.82769">
        <ele>781.3</ele>
        <time>2022-09-02T07:11:04Z</time>
      </trkpt>
      <trkpt lat="47.90528" lon="6.82771">
        <ele>781.4</ele>
        <time>2022-09-02T07:11:05Z</time>
      </trkpt>
      <trkpt lat="47.90528" lon="6.82773">
        <ele>781.6</ele>
        <time>2022-09-02T07:11:06Z</time>
      </trkpt>
      <trkpt lat="47.90529" lon="6.82774">
        <ele>781.2</ele>
        <time>2022-09-02T07:11:07Z</time>
      </trkpt>
      <trkpt lat="47.90529" lon="6.82776">
        <ele>781.4</ele>
        <time>2022-09-02T07:11:08Z</time>
      </trkpt>
      <trkpt lat="47.9053" lon="6.82778">
        <ele>781.1</ele>
        <time>2022-09-02T07:11:09Z</time>
      </trkpt>
      <trkpt lat="47.9053" lon="6.82779">
        <ele>781.2</ele>
        <time>2022-09-02T07:11:10Z</time>
      </trkpt>
      <trkpt lat="47.9053" lon="6.82781">
        <ele>781.4</ele>
        <time>2022-09-02T07:11:11Z</time>
      </trkpt>
      <trkpt lat="47.9053" lon="6.82783">
        <ele>781.5</ele>
        <time>2022-09-02T07:11:12Z</time>
      </trkpt>
      <trkpt lat="47.90531" lon="6.82785">
        <ele>781.2</ele>
        <time>2022-09-02T07:11:13Z</time>
      </trkpt>
      <trkpt lat="47.90531" lon="6.82787">
        <ele>781.4</ele>
        <time>2022-09-02T07:11:14Z</time>
      </trkpt>
      <trkpt lat="47.90531" lon="6.82789">
        <ele>781.5</ele>
        <time>2022-09-02T07:11:15Z</time>
      </trkpt>
      <trkpt lat="47.90531" lon="6.82791">
        <ele>781.7</ele>
        <time>2022-09-02T07:11:16Z</time>
      </trkpt>
      <trkpt lat="47.90532" lon="6.82792">
        <ele>781.4</ele>
        <time>2022-09-02T07:11:17Z</time>
      </trkpt>
      <trkpt lat="47.90532" lon="6.82794">
        <ele>781.5</ele>
        <time>2022-09-02T07:11:18Z</time>
      </trkpt>
      <trkpt lat="47.90532" lon="6.82795">
        <ele>781.6</ele>
        <time>2022-09-02T07:11:19Z</time>
      </trkpt>
      <trkpt lat="47.90533" lon="6.82796">
        <ele>781.2</ele>
        <time>2022-09-02T07:11:20Z</time>
      </trkpt>
      <trkpt lat="47.90533" lon="6.82797">
        <ele>781.3</ele>
        <time>2022-09-02T07:11:21Z</time>
      </trkpt>
      <trkpt lat="47.90533" lon="6.82799">
        <ele>781.5</ele>
        <time>2022-09-02T07:11:22Z</time>
      </trkpt>
      <trkpt lat="47.90533" lon="6.828">
        <ele>781.5</ele>
        <time>2022-09-02T07:11:23Z</time>
      </trkpt>
      <trkpt lat="47.90532" lon="6.82801">
        <ele>782</ele>
        <time>2022-09-02T07:11:24Z</time>
      </trkpt>
      <trkpt lat="47.90532" lon="6.82803">
        <ele>782.1</ele>
        <time>2022-09-02T07:11:25Z</time>
      </trkpt>
      <trkpt lat="47.90532" lon="6.82804">
        <ele>782.2</ele>
        <time>2022-09-02T07:11:26Z</time>
      </trkpt>
      <trkpt lat="47.90532" lon="6.82805">
        <ele>782.3</ele>
        <time>2022-09-02T07:11:27Z</time>
      </trkpt>
      <trkpt lat="47.90533" lon="6.82806">
        <ele>782</ele>
        <time>2022-09-02T07:11:28Z</time>
      </trkpt>
      <trkpt lat="47.90533" lon="6.82807">
        <ele>782</ele>
        <time>2022-09-02T07:11:29Z</time>
      </trkpt>
      <trkpt lat="47.90534" lon="6.82808">
        <ele>781.7</ele>
        <time>2022-09-02T07:11:30Z</time>
      </trkpt>
      <trkpt lat="47.90534" lon="6.82809">
        <ele>781.8</ele>
        <time>2022-09-02T07:11:31Z</time>
      </trkpt>
      <trkpt lat="47.90535" lon="6.8281">
        <ele>781.5</ele>
        <time>2022-09-02T07:11:32Z</time>
      </trkpt>
      <trkpt lat="47.90536" lon="6.82812">
        <ele>781.2</ele>
        <time>2022-09-02T07:11:33Z</time>
      </trkpt>
      <trkpt lat="47.90536" lon="6.82814">
        <ele>781.4</ele>
        <time>2022-09-02T07:11:34Z</time>
      </trkpt>
      <trkpt lat="47.90537" lon="6.82816">
        <ele>781.1</ele>
        <time>2022-09-02T07:11:35Z</time>
      </trkpt>
      <trkpt lat="47.90537" lon="6.82818">
        <ele>781.2</ele>
        <time>2022-09-02T07:11:36Z</time>
      </trkpt>
      <trkpt lat="47.90538" lon="6.8282">
        <ele>781</ele>
        <time>2022-09-02T07:11:37Z</time>
      </trkpt>
      <trkpt lat="47.90538" lon="6.82821">
        <ele>781.1</ele>
        <time>2022-09-02T07:11:38Z</time>
      </trkpt>
      <trkpt lat="47.90538" lon="6.82823">
        <ele>781.2</ele>
        <time>2022-09-02T07:11:39Z</time>
      </trkpt>
      <trkpt lat="47.90537" lon="6.82824">
        <ele>781.7</ele>
        <time>2022-09-02T07:11:40Z</time>
      </trkpt>
      <trkpt lat="47.90537" lon="6.82826">
        <ele>781.8</ele>
        <time>2022-09-02T07:11:41Z</time>
      </trkpt>
      <trkpt lat="47.90537" lon="6.82828">
        <ele>782</ele>
        <time>2022-09-02T07:11:42Z</time>
      </trkpt>
      <trkpt lat="47.90537" lon="6.8283">
        <ele>782.1</ele>
        <time>2022-09-02T07:11:43Z</time>
      </trkpt>
      <trkpt lat="47.90537" lon="6.82832">
        <ele>782.3</ele>
        <time>2022-09-02T07:11:44Z</time>
      </trkpt>
      <trkpt lat="47.90537" lon="6.82833">
        <ele>782.3</ele>
        <time>2022-09-02T07:11:45Z</time>
      </trkpt>
      <trkpt lat="47.90538" lon="6.82834">
        <ele>782</ele>
        <time>2022-09-02T07:11:46Z</time>
      </trkpt>
      <trkpt lat="47.90538" lon="6.82836">
        <ele>782</ele>
        <time>2022-09-02T07:11:47Z</time>
      </trkpt>
      <trkpt lat="47.90539" lon="6.82837">
        <ele>781.6</ele>
        <time>2022-09-02T07:11:48Z</time>
      </trkpt>
      <trkpt lat="47.90539" lon="6.82839">
        <ele>781.6</ele>
        <time>2022-09-02T07:11:49Z</time>
      </trkpt>
      <trkpt lat="47.9054" lon="6.8284">
        <ele>781.3</ele>
        <time>2022-09-02T07:11:50Z</time>
      </trkpt>
      <trkpt lat="47.9054" lon="6.82842">
        <ele>781.3</ele>
        <time>2022-09-02T07:11:51Z</time>
      </trkpt>
      <trkpt lat="47.9054" lon="6.82843">
        <ele>781.3</ele>
        <time>2022-09-02T07:11:52Z</time>
      </trkpt>
      <trkpt lat="47.90541" lon="6.82844">
        <ele>780.9</ele>
        <time>2022-09-02T07:11:53Z</time>
      </trkpt>
      <trkpt lat="47.90541" lon="6.82846">
        <ele>781</ele>
        <time>2022-09-02T07:11:54Z</time>
      </trkpt>
      <trkpt lat="47.90541" lon="6.82848">
        <ele>781</ele>
        <time>2022-09-02T07:11:55Z</time>
      </trkpt>
      <trkpt lat="47.90541" lon="6.82849">
        <ele>781</ele>
        <time>2022-09-02T07:11:56Z</time>
      </trkpt>
      <trkpt lat="47.90541" lon="6.82851">
        <ele>781.1</ele>
        <time>2022-09-02T07:11:57Z</time>
      </trkpt>
      <trkpt lat="47.90541" lon="6.82852">
        <ele>781.1</ele>
        <time>2022-09-02T07:11:58Z</time>
      </trkpt>
      <trkpt lat="47.90541" lon="6.82854">
        <ele>781.1</ele>
        <time>2022-09-02T07:11:59Z</time>
      </trkpt>
      <trkpt lat="47.9054" lon="6.82856">
        <ele>781.5</ele>
        <time>2022-09-02T07:12:00Z</time>
      </trkpt>
      <trkpt lat="47.9054" lon="6.82857">
        <ele>781.5</ele>
        <time>2022-09-02T07:12:01Z</time>
      </trkpt>
      <trkpt lat="47.9054" lon="6.82859">
        <ele>781.6</ele>
        <time>2022-09-02T07:12:02Z</time>
      </trkpt>
      <trkpt lat="47.9054" lon="6.8286">
        <ele>781.6</ele>
        <time>2022-09-02T07:12:03Z</time>
      </trkpt>
      <trkpt lat="47.90539" lon="6.82861">
        <ele>782</ele>
        <time>2022-09-02T07:12:04Z</time>
      </trkpt>
      <trkpt lat="47.90539" lon="6.82863">
        <ele>782</ele>
        <time>2022-09-02T07:12:05Z</time>
      </trkpt>
      <trkpt lat="47.90539" lon="6.82864">
        <ele>782.1</ele>
        <time>2022-09-02T07:12:06Z</time>
      </trkpt>
      <trkpt lat="47.90539" lon="6.82866">
        <ele>782.1</ele>
        <time>2022-09-02T07:12:07Z</time>
      </trkpt>
      <trkpt lat="47.90539" lon="6.82867">
        <ele>782.2</ele>
        <time>2022-09-02T07:12:08Z</time>
      </trkpt>
      <trkpt lat="47.90538" lon="6.82869">
        <ele>782.6</ele>
        <time>2022-09-02T07:12:09Z</time>
      </trkpt>
      <trkpt lat="47.90538" lon="6.82871">
        <ele>782.7</ele>
        <time>2022-09-02T07:12:10Z</time>
      </trkpt>
      <trkpt lat="47.90538" lon="6.82873">
        <ele>782.7</ele>
        <time>2022-09-02T07:12:11Z</time>
      </trkpt>
      <trkpt lat="47.90538" lon="6.82875">
        <ele>782.8</ele>
        <time>2022-09-02T07:12:12Z</time>
      </trkpt>
      <trkpt lat="47.90538" lon="6.82877">
        <ele>782.9</ele>
        <time>2022-09-02T07:12:13Z</time>
      </trkpt>
      <trkpt lat="47.90538" lon="6.82878">
        <ele>782.9</ele>
        <time>2022-09-02T07:12:14Z</time>
      </trkpt>
      <trkpt lat="47.90538" lon="6.82879">
        <ele>783</ele>
        <time>2022-09-02T07:12:15Z</time>
      </trkpt>
      <trkpt lat="47.90538" lon="6.82881">
        <ele>783</ele>
        <time>2022-09-02T07:12:16Z</time>
      </trkpt>
      <trkpt lat="47.90538" lon="6.82882">
        <ele>783.1</ele>
        <time>2022-09-02T07:12:17Z</time>
      </trkpt>
      <trkpt lat="47.90538" lon="6.82883">
        <ele>783.1</ele>
        <time>2022-09-02T07:12:18Z</time>
      </trkpt>
      <trkpt lat="47.90537" lon="6.82885">
        <ele>783.5</ele>
        <time>2022-09-02T07:12:19Z</time>
      </trkpt>
      <trkpt lat="47.90537" lon="6.82886">
        <ele>783.6</ele>
        <time>2022-09-02T07:12:20Z</time>
      </trkpt>
      <trkpt lat="47.90537" lon="6.82888">
        <ele>783.6</ele>
        <time>2022-09-02T07:12:21Z</time>
      </trkpt>
      <trkpt lat="47.90537" lon="6.8289">
        <ele>783.7</ele>
        <time>2022-09-02T07:12:22Z</time>
      </trkpt>
      <trkpt lat="47.90537" lon="6.82891">
        <ele>783.7</ele>
        <time>2022-09-02T07:12:23Z</time>
      </trkpt>
      <trkpt lat="47.90537" lon="6.82893">
        <ele>783.6</ele>
        <time>2022-09-02T07:12:24Z</time>
      </trkpt>
      <trkpt lat="47.90537" lon="6.82895">
        <ele>783.6</ele>
        <time>2022-09-02T07:12:25Z</time>
      </trkpt>
      <trkpt lat="47.90537" lon="6.82896">
        <ele>783.6</ele>
        <time>2022-09-02T07:12:26Z</time>
      </trkpt>
      <trkpt lat="47.90537" lon="6.82898">
        <ele>783.6</ele>
        <time>2022-09-02T07:12:27Z</time>
      </trkpt>
      <trkpt lat="47.90537" lon="6.82899">
        <ele>783.6</ele>
        <time>2022-09-02T07:12:28Z</time>
      </trkpt>
      <trkpt lat="47.90538" lon="6.82901">
        <ele>783.2</ele>
        <time>2022-09-02T07:12:29Z</time>
      </trkpt>
      <trkpt lat="47.90538" lon="6.82902">
        <ele>783.1</ele>
        <time>2022-09-02T07:12:30Z</time>
      </trkpt>
      <trkpt lat="47.90538" lon="6.82903">
        <ele>783.1</ele>
        <time>2022-09-02T07:12:31Z</time>
      </trkpt>
      <trkpt lat="47.90538" lon="6.82905">
        <ele>783.1</ele>
        <time>2022-09-02T07:12:32Z</time>
      </trkpt>
      <trkpt lat="47.90538" lon="6.82906">
        <ele>783.1</ele>
        <time>2022-09-02T07:12:33Z</time>
      </trkpt>
      <trkpt lat="47.90539" lon="6.82908">
        <ele>782.7</ele>
        <time>2022-09-02T07:12:34Z</time>
      </trkpt>
      <trkpt lat="47.90539" lon="6.82909">
        <ele>782.7</ele>
        <time>2022-09-02T07:12:35Z</time>
      </trkpt>
      <trkpt lat="47.90539" lon="6.82911">
        <ele>782.6</ele>
        <time>2022-09-02T07:12:36Z</time>
      </trkpt>
      <trkpt lat="47.9054" lon="6.82912">
        <ele>782.2</ele>
        <time>2022-09-02T07:12:37Z</time>
      </trkpt>
      <trkpt lat="47.9054" lon="6.82913">
        <ele>782.2</ele>
        <time>2022-09-02T07:12:38Z</time>
      </trkpt>
      <trkpt lat="47.9054" lon="6.82915">
        <ele>782.2</ele>
        <time>2022-09-02T07:12:39Z</time>
      </trkpt>
      <trkpt lat="47.90541" lon="6.82916">
        <ele>781.8</ele>
        <time>2022-09-02T07:12:40Z</time>
      </trkpt>
      <trkpt lat="47.9054" lon="6.82918">
        <ele>782.2</ele>
        <time>2022-09-02T07:12:41Z</time>
      </trkpt>
      <trkpt lat="47.9054" lon="6.82919">
        <ele>782.2</ele>
        <time>2022-09-02T07:12:42Z</time>
      </trkpt>
      <trkpt lat="47.90539" lon="6.82921">
        <ele>782.7</ele>
        <time>2022-09-02T07:12:43Z</time>
      </trkpt>
      <trkpt lat="47.90539" lon="6.82922">
        <ele>782.7</ele>
        <time>2022-09-02T07:12:44Z</time>
      </trkpt>
      <trkpt lat="47.90539" lon="6.82924">
        <ele>782.7</ele>
        <time>2022-09-02T07:12:45Z</time>
      </trkpt>
      <trkpt lat="47.9054" lon="6.82925">
        <ele>782.4</ele>
        <time>2022-09-02T07:12:46Z</time>
      </trkpt>
      <trkpt lat="47.9054" lon="6.82926">
        <ele>782.4</ele>
        <time>2022-09-02T07:12:47Z</time>
      </trkpt>
      <trkpt lat="47.90541" lon="6.82928">
        <ele>782.1</ele>
        <time>2022-09-02T07:12:48Z</time>
      </trkpt>
      <trkpt lat="47.90541" lon="6.82929">
        <ele>782.2</ele>
        <time>2022-09-02T07:12:49Z</time>
      </trkpt>
      <trkpt lat="47.90542" lon="6.8293">
        <ele>781.9</ele>
        <time>2022-09-02T07:12:50Z</time>
      </trkpt>
      <trkpt lat="47.90542" lon="6.82931">
        <ele>781.9</ele>
        <time>2022-09-02T07:12:51Z</time>
      </trkpt>
      <trkpt lat="47.90541" lon="6.82933">
        <ele>782.3</ele>
        <time>2022-09-02T07:12:52Z</time>
      </trkpt>
      <trkpt lat="47.90541" lon="6.82934">
        <ele>782.3</ele>
        <time>2022-09-02T07:12:53Z</time>
      </trkpt>
      <trkpt lat="47.9054" lon="6.82935">
        <ele>782.7</ele>
        <time>2022-09-02T07:12:54Z</time>
      </trkpt>
      <trkpt lat="47.9054" lon="6.82936">
        <ele>782.7</ele>
        <time>2022-09-02T07:12:55Z</time>
      </trkpt>
      <trkpt lat="47.90539" lon="6.82937">
        <ele>783</ele>
        <time>2022-09-02T07:12:56Z</time>
      </trkpt>
      <trkpt lat="47.90539" lon="6.82939">
        <ele>783.1</ele>
        <time>2022-09-02T07:12:57Z</time>
      </trkpt>
      <trkpt lat="47.90539" lon="6.8294">
        <ele>783.1</ele>
        <time>2022-09-02T07:12:58Z</time>
      </trkpt>
      <trkpt lat="47.90539" lon="6.82941">
        <ele>783.1</ele>
        <time>2022-09-02T07:12:59Z</time>
      </trkpt>
      <trkpt lat="47.90539" lon="6.82942">
        <ele>783.1</ele>
        <time>2022-09-02T07:13:00Z</time>
      </trkpt>
      <trkpt lat="47.90539" lon="6.82943">
        <ele>783.1</ele>
        <time>2022-09-02T07:13:06Z</time>
      </trkpt>
      <trkpt lat="47.90539" lon="6.82944">
        <ele>783.2</ele>
        <time>2022-09-02T07:13:07Z</time>
      </trkpt>
      <trkpt lat="47.90539" lon="6.82945">
        <ele>783.2</ele>
        <time>2022-09-02T07:13:08Z</time>
      </trkpt>
      <trkpt lat="47.9054" lon="6.82946">
        <ele>783.1</ele>
        <time>2022-09-02T07:13:09Z</time>
      </trkpt>
      <trkpt lat="47.9054" lon="6.82947">
        <ele>783.2</ele>
        <time>2022-09-02T07:13:10Z</time>
      </trkpt>
      <trkpt lat="47.90541" lon="6.82948">
        <ele>783</ele>
        <time>2022-09-02T07:13:11Z</time>
      </trkpt>
      <trkpt lat="47.90542" lon="6.82949">
        <ele>782.9</ele>
        <time>2022-09-02T07:13:12Z</time>
      </trkpt>
      <trkpt lat="47.90542" lon="6.82951">
        <ele>783.1</ele>
        <time>2022-09-02T07:13:13Z</time>
      </trkpt>
      <trkpt lat="47.90544" lon="6.82952">
        <ele>782.8</ele>
        <time>2022-09-02T07:13:14Z</time>
      </trkpt>
      <trkpt lat="47.90545" lon="6.82952">
        <ele>782.6</ele>
        <time>2022-09-02T07:13:15Z</time>
      </trkpt>
      <trkpt lat="47.90546" lon="6.82953">
        <ele>782.5</ele>
        <time>2022-09-02T07:13:16Z</time>
      </trkpt>
      <trkpt lat="47.90546" lon="6.82954">
        <ele>782.7</ele>
        <time>2022-09-02T07:13:17Z</time>
      </trkpt>
      <trkpt lat="47.90547" lon="6.82954">
        <ele>782.5</ele>
        <time>2022-09-02T07:13:18Z</time>
      </trkpt>
      <trkpt lat="47.90548" lon="6.82954">
        <ele>782.2</ele>
        <time>2022-09-02T07:13:19Z</time>
      </trkpt>
      <trkpt lat="47.90549" lon="6.82954">
        <ele>782</ele>
        <time>2022-09-02T07:13:20Z</time>
      </trkpt>
      <trkpt lat="47.9055" lon="6.82955">
        <ele>782</ele>
        <time>2022-09-02T07:13:21Z</time>
      </trkpt>
      <trkpt lat="47.90551" lon="6.82955">
        <ele>781.8</ele>
        <time>2022-09-02T07:13:22Z</time>
      </trkpt>
      <trkpt lat="47.90552" lon="6.82955">
        <ele>781.6</ele>
        <time>2022-09-02T07:13:23Z</time>
      </trkpt>
      <trkpt lat="47.90553" lon="6.82956">
        <ele>781.6</ele>
        <time>2022-09-02T07:13:24Z</time>
      </trkpt>
      <trkpt lat="47.90554" lon="6.82957">
        <ele>781.6</ele>
        <time>2022-09-02T07:13:25Z</time>
      </trkpt>
      <trkpt lat="47.90556" lon="6.82958">
        <ele>781.3</ele>
        <time>2022-09-02T07:13:26Z</time>
      </trkpt>
      <trkpt lat="47.90557" lon="6.82958">
        <ele>781</ele>
        <time>2022-09-02T07:13:27Z</time>
      </trkpt>
      <trkpt lat="47.90558" lon="6.82959">
        <ele>780.9</ele>
        <time>2022-09-02T07:13:28Z</time>
      </trkpt>
      <trkpt lat="47.90559" lon="6.8296">
        <ele>780.7</ele>
        <time>2022-09-02T07:13:29Z</time>
      </trkpt>
      <trkpt lat="47.9056" lon="6.82962">
        <ele>780.8</ele>
        <time>2022-09-02T07:13:30Z</time>
      </trkpt>
      <trkpt lat="47.9056" lon="6.82963">
        <ele>781</ele>
        <time>2022-09-02T07:13:31Z</time>
      </trkpt>
      <trkpt lat="47.90561" lon="6.82965">
        <ele>781</ele>
        <time>2022-09-02T07:13:32Z</time>
      </trkpt>
      <trkpt lat="47.90562" lon="6.82966">
        <ele>780.8</ele>
        <time>2022-09-02T07:13:33Z</time>
      </trkpt>
      <trkpt lat="47.90563" lon="6.82968">
        <ele>780.9</ele>
        <time>2022-09-02T07:13:34Z</time>
      </trkpt>
      <trkpt lat="47.90564" lon="6.82969">
        <ele>780.7</ele>
        <time>2022-09-02T07:13:35Z</time>
      </trkpt>
      <trkpt lat="47.90565" lon="6.82971">
        <ele>780.7</ele>
        <time>2022-09-02T07:13:36Z</time>
      </trkpt>
      <trkpt lat="47.90567" lon="6.82972">
        <ele>780.3</ele>
        <time>2022-09-02T07:13:37Z</time>
      </trkpt>
      <trkpt lat="47.90567" lon="6.82973">
        <ele>780.4</ele>
        <time>2022-09-02T07:13:39Z</time>
      </trkpt>
      <trkpt lat="47.90568" lon="6.82974">
        <ele>780.1</ele>
        <time>2022-09-02T07:13:40Z</time>
      </trkpt>
      <trkpt lat="47.90568" lon="6.82975">
        <ele>780.2</ele>
        <time>2022-09-02T07:13:41Z</time>
      </trkpt>
      <trkpt lat="47.90568" lon="6.82976">
        <ele>780.3</ele>
        <time>2022-09-02T07:13:42Z</time>
      </trkpt>
      <trkpt lat="47.90569" lon="6.82977">
        <ele>780.1</ele>
        <time>2022-09-02T07:13:43Z</time>
      </trkpt>
      <trkpt lat="47.90569" lon="6.82979">
        <ele>780.3</ele>
        <time>2022-09-02T07:13:44Z</time>
      </trkpt>
      <trkpt lat="47.9057" lon="6.82981">
        <ele>780.1</ele>
        <time>2022-09-02T07:13:45Z</time>
      </trkpt>
      <trkpt lat="47.90571" lon="6.82983">
        <ele>779.9</ele>
        <time>2022-09-02T07:13:46Z</time>
      </trkpt>
      <trkpt lat="47.90571" lon="6.82985">
        <ele>780.1</ele>
        <time>2022-09-02T07:13:47Z</time>
      </trkpt>
      <trkpt lat="47.90572" lon="6.82987">
        <ele>779.9</ele>
        <time>2022-09-02T07:13:48Z</time>
      </trkpt>
      <trkpt lat="47.90572" lon="6.82989">
        <ele>780</ele>
        <time>2022-09-02T07:13:49Z</time>
      </trkpt>
      <trkpt lat="47.90572" lon="6.82992">
        <ele>780.3</ele>
        <time>2022-09-02T07:13:50Z</time>
      </trkpt>
      <trkpt lat="47.90573" lon="6.82994">
        <ele>780</ele>
        <time>2022-09-02T07:13:51Z</time>
      </trkpt>
      <trkpt lat="47.90573" lon="6.82996">
        <ele>780.2</ele>
        <time>2022-09-02T07:13:52Z</time>
      </trkpt>
      <trkpt lat="47.90573" lon="6.82998">
        <ele>780.3</ele>
        <time>2022-09-02T07:13:53Z</time>
      </trkpt>
      <trkpt lat="47.90574" lon="6.83">
        <ele>780</ele>
        <time>2022-09-02T07:13:54Z</time>
      </trkpt>
      <trkpt lat="47.90574" lon="6.83002">
        <ele>780.2</ele>
        <time>2022-09-02T07:13:55Z</time>
      </trkpt>
      <trkpt lat="47.90574" lon="6.83004">
        <ele>780.3</ele>
        <time>2022-09-02T07:13:56Z</time>
      </trkpt>
      <trkpt lat="47.90574" lon="6.83006">
        <ele>780.5</ele>
        <time>2022-09-02T07:13:57Z</time>
      </trkpt>
      <trkpt lat="47.90574" lon="6.83008">
        <ele>780.6</ele>
        <time>2022-09-02T07:13:58Z</time>
      </trkpt>
      <trkpt lat="47.90574" lon="6.83009">
        <ele>780.7</ele>
        <time>2022-09-02T07:13:59Z</time>
      </trkpt>
      <trkpt lat="47.90574" lon="6.8301">
        <ele>780.8</ele>
        <time>2022-09-02T07:14:00Z</time>
      </trkpt>
      <trkpt lat="47.90574" lon="6.83011">
        <ele>780.8</ele>
        <time>2022-09-02T07:14:01Z</time>
      </trkpt>
      <trkpt lat="47.90575" lon="6.83013">
        <ele>780.5</ele>
        <time>2022-09-02T07:14:02Z</time>
      </trkpt>
      <trkpt lat="47.90575" lon="6.83014">
        <ele>780.6</ele>
        <time>2022-09-02T07:14:03Z</time>
      </trkpt>
      <trkpt lat="47.90576" lon="6.83014">
        <ele>780.2</ele>
        <time>2022-09-02T07:14:04Z</time>
      </trkpt>
      <trkpt lat="47.90577" lon="6.83015">
        <ele>779.8</ele>
        <time>2022-09-02T07:14:05Z</time>
      </trkpt>
      <trkpt lat="47.90578" lon="6.83016">
        <ele>779.5</ele>
        <time>2022-09-02T07:14:06Z</time>
      </trkpt>
      <trkpt lat="47.90579" lon="6.83017">
        <ele>779.1</ele>
        <time>2022-09-02T07:14:07Z</time>
      </trkpt>
      <trkpt lat="47.9058" lon="6.83018">
        <ele>778.7</ele>
        <time>2022-09-02T07:14:08Z</time>
      </trkpt>
      <trkpt lat="47.9058" lon="6.83019">
        <ele>778.8</ele>
        <time>2022-09-02T07:14:09Z</time>
      </trkpt>
      <trkpt lat="47.90581" lon="6.8302">
        <ele>778.4</ele>
        <time>2022-09-02T07:14:10Z</time>
      </trkpt>
      <trkpt lat="47.90581" lon="6.83021">
        <ele>778.5</ele>
        <time>2022-09-02T07:14:11Z</time>
      </trkpt>
      <trkpt lat="47.90581" lon="6.83022">
        <ele>778.6</ele>
        <time>2022-09-02T07:14:12Z</time>
      </trkpt>
      <trkpt lat="47.90582" lon="6.83023">
        <ele>778.2</ele>
        <time>2022-09-02T07:14:13Z</time>
      </trkpt>
      <trkpt lat="47.90582" lon="6.83024">
        <ele>778.3</ele>
        <time>2022-09-02T07:14:14Z</time>
      </trkpt>
      <trkpt lat="47.90583" lon="6.83025">
        <ele>777.9</ele>
        <time>2022-09-02T07:14:15Z</time>
      </trkpt>
      <trkpt lat="47.90584" lon="6.83026">
        <ele>777.6</ele>
        <time>2022-09-02T07:14:16Z</time>
      </trkpt>
      <trkpt lat="47.90584" lon="6.83027">
        <ele>777.7</ele>
        <time>2022-09-02T07:14:17Z</time>
      </trkpt>
      <trkpt lat="47.90585" lon="6.83029">
        <ele>777.4</ele>
        <time>2022-09-02T07:14:18Z</time>
      </trkpt>
      <trkpt lat="47.90585" lon="6.8303">
        <ele>777.5</ele>
        <time>2022-09-02T07:14:19Z</time>
      </trkpt>
      <trkpt lat="47.90585" lon="6.83032">
        <ele>777.7</ele>
        <time>2022-09-02T07:14:20Z</time>
      </trkpt>
      <trkpt lat="47.90586" lon="6.83033">
        <ele>777.4</ele>
        <time>2022-09-02T07:14:21Z</time>
      </trkpt>
      <trkpt lat="47.90586" lon="6.83035">
        <ele>777.5</ele>
        <time>2022-09-02T07:14:22Z</time>
      </trkpt>
      <trkpt lat="47.90586" lon="6.83036">
        <ele>777.6</ele>
        <time>2022-09-02T07:14:23Z</time>
      </trkpt>
      <trkpt lat="47.90586" lon="6.83038">
        <ele>777.8</ele>
        <time>2022-09-02T07:14:24Z</time>
      </trkpt>
      <trkpt lat="47.90586" lon="6.8304">
        <ele>778</ele>
        <time>2022-09-02T07:14:25Z</time>
      </trkpt>
      <trkpt lat="47.90586" lon="6.83042">
        <ele>778.1</ele>
        <time>2022-09-02T07:14:26Z</time>
      </trkpt>
      <trkpt lat="47.90586" lon="6.83043">
        <ele>778.2</ele>
        <time>2022-09-02T07:14:27Z</time>
      </trkpt>
      <trkpt lat="47.90586" lon="6.83046">
        <ele>778.4</ele>
        <time>2022-09-02T07:14:28Z</time>
      </trkpt>
      <trkpt lat="47.90585" lon="6.83048">
        <ele>778.9</ele>
        <time>2022-09-02T07:14:29Z</time>
      </trkpt>
      <trkpt lat="47.90585" lon="6.8305">
        <ele>779.1</ele>
        <time>2022-09-02T07:14:30Z</time>
      </trkpt>
      <trkpt lat="47.90585" lon="6.83052">
        <ele>779.2</ele>
        <time>2022-09-02T07:14:31Z</time>
      </trkpt>
      <trkpt lat="47.90585" lon="6.83053">
        <ele>779.3</ele>
        <time>2022-09-02T07:14:32Z</time>
      </trkpt>
      <trkpt lat="47.90585" lon="6.83055">
        <ele>779.5</ele>
        <time>2022-09-02T07:14:33Z</time>
      </trkpt>
      <trkpt lat="47.90585" lon="6.83056">
        <ele>779.6</ele>
        <time>2022-09-02T07:14:34Z</time>
      </trkpt>
      <trkpt lat="47.90586" lon="6.83058">
        <ele>779.6</ele>
        <time>2022-09-02T07:14:35Z</time>
      </trkpt>
      <trkpt lat="47.90587" lon="6.83059">
        <ele>779.4</ele>
        <time>2022-09-02T07:14:36Z</time>
      </trkpt>
      <trkpt lat="47.90587" lon="6.83061">
        <ele>779.7</ele>
        <time>2022-09-02T07:14:37Z</time>
      </trkpt>
      <trkpt lat="47.90588" lon="6.83062">
        <ele>779.5</ele>
        <time>2022-09-02T07:14:38Z</time>
      </trkpt>
      <trkpt lat="47.90588" lon="6.83063">
        <ele>779.7</ele>
        <time>2022-09-02T07:14:39Z</time>
      </trkpt>
      <trkpt lat="47.90588" lon="6.83065">
        <ele>780</ele>
        <time>2022-09-02T07:14:40Z</time>
      </trkpt>
      <trkpt lat="47.90588" lon="6.83066">
        <ele>780.1</ele>
        <time>2022-09-02T07:14:41Z</time>
      </trkpt>
      <trkpt lat="47.90588" lon="6.83068">
        <ele>780.4</ele>
        <time>2022-09-02T07:14:42Z</time>
      </trkpt>
      <trkpt lat="47.90588" lon="6.83069">
        <ele>780.5</ele>
        <time>2022-09-02T07:14:43Z</time>
      </trkpt>
      <trkpt lat="47.90589" lon="6.8307">
        <ele>780.3</ele>
        <time>2022-09-02T07:14:44Z</time>
      </trkpt>
      <trkpt lat="47.90589" lon="6.83072">
        <ele>780.6</ele>
        <time>2022-09-02T07:14:45Z</time>
      </trkpt>
      <trkpt lat="47.90589" lon="6.83073">
        <ele>780.8</ele>
        <time>2022-09-02T07:14:46Z</time>
      </trkpt>
      <trkpt lat="47.9059" lon="6.83074">
        <ele>780.6</ele>
        <time>2022-09-02T07:14:47Z</time>
      </trkpt>
      <trkpt lat="47.9059" lon="6.83075">
        <ele>780.7</ele>
        <time>2022-09-02T07:14:48Z</time>
      </trkpt>
      <trkpt lat="47.90591" lon="6.83076">
        <ele>780.5</ele>
        <time>2022-09-02T07:14:49Z</time>
      </trkpt>
      <trkpt lat="47.90592" lon="6.83077">
        <ele>780.4</ele>
        <time>2022-09-02T07:14:50Z</time>
      </trkpt>
      <trkpt lat="47.90593" lon="6.83078">
        <ele>780.2</ele>
        <time>2022-09-02T07:14:51Z</time>
      </trkpt>
      <trkpt lat="47.90594" lon="6.83079">
        <ele>780</ele>
        <time>2022-09-02T07:14:53Z</time>
      </trkpt>
      <trkpt lat="47.90595" lon="6.8308">
        <ele>779.8</ele>
        <time>2022-09-02T07:14:54Z</time>
      </trkpt>
      <trkpt lat="47.90595" lon="6.83081">
        <ele>779.9</ele>
        <time>2022-09-02T07:14:55Z</time>
      </trkpt>
      <trkpt lat="47.90596" lon="6.83082">
        <ele>779.7</ele>
        <time>2022-09-02T07:14:56Z</time>
      </trkpt>
      <trkpt lat="47.90597" lon="6.83083">
        <ele>779.5</ele>
        <time>2022-09-02T07:14:57Z</time>
      </trkpt>
      <trkpt lat="47.90597" lon="6.83084">
        <ele>779.7</ele>
        <time>2022-09-02T07:14:58Z</time>
      </trkpt>
      <trkpt lat="47.90598" lon="6.83085">
        <ele>779.6</ele>
        <time>2022-09-02T07:14:59Z</time>
      </trkpt>
      <trkpt lat="47.90598" lon="6.83086">
        <ele>779.8</ele>
        <time>2022-09-02T07:15:00Z</time>
      </trkpt>
      <trkpt lat="47.90599" lon="6.83088">
        <ele>779.9</ele>
        <time>2022-09-02T07:15:01Z</time>
      </trkpt>
      <trkpt lat="47.90599" lon="6.83089">
        <ele>780.1</ele>
        <time>2022-09-02T07:15:02Z</time>
      </trkpt>
      <trkpt lat="47.906" lon="6.8309">
        <ele>780</ele>
        <time>2022-09-02T07:15:03Z</time>
      </trkpt>
      <trkpt lat="47.906" lon="6.83091">
        <ele>780.2</ele>
        <time>2022-09-02T07:15:04Z</time>
      </trkpt>
      <trkpt lat="47.90601" lon="6.83093">
        <ele>780.3</ele>
        <time>2022-09-02T07:15:05Z</time>
      </trkpt>
      <trkpt lat="47.90601" lon="6.83094">
        <ele>780.5</ele>
        <time>2022-09-02T07:15:06Z</time>
      </trkpt>
      <trkpt lat="47.90602" lon="6.83095">
        <ele>780.3</ele>
        <time>2022-09-02T07:15:07Z</time>
      </trkpt>
      <trkpt lat="47.90602" lon="6.83096">
        <ele>780.5</ele>
        <time>2022-09-02T07:15:08Z</time>
      </trkpt>
      <trkpt lat="47.90603" lon="6.83097">
        <ele>780.4</ele>
        <time>2022-09-02T07:15:09Z</time>
      </trkpt>
      <trkpt lat="47.90603" lon="6.83098">
        <ele>780.6</ele>
        <time>2022-09-02T07:15:10Z</time>
      </trkpt>
      <trkpt lat="47.90604" lon="6.83099">
        <ele>780.4</ele>
        <time>2022-09-02T07:15:11Z</time>
      </trkpt>
      <trkpt lat="47.90604" lon="6.83101">
        <ele>780.8</ele>
        <time>2022-09-02T07:15:12Z</time>
      </trkpt>
      <trkpt lat="47.90605" lon="6.83102">
        <ele>780.6</ele>
        <time>2022-09-02T07:15:13Z</time>
      </trkpt>
      <trkpt lat="47.90606" lon="6.83103">
        <ele>780.5</ele>
        <time>2022-09-02T07:15:14Z</time>
      </trkpt>
      <trkpt lat="47.90606" lon="6.83105">
        <ele>780.8</ele>
        <time>2022-09-02T07:15:15Z</time>
      </trkpt>
      <trkpt lat="47.90607" lon="6.83106">
        <ele>780.7</ele>
        <time>2022-09-02T07:15:16Z</time>
      </trkpt>
      <trkpt lat="47.90608" lon="6.83108">
        <ele>780.6</ele>
        <time>2022-09-02T07:15:17Z</time>
      </trkpt>
      <trkpt lat="47.90609" lon="6.83109">
        <ele>780.4</ele>
        <time>2022-09-02T07:15:18Z</time>
      </trkpt>
      <trkpt lat="47.9061" lon="6.8311">
        <ele>780.2</ele>
        <time>2022-09-02T07:15:19Z</time>
      </trkpt>
      <trkpt lat="47.9061" lon="6.83111">
        <ele>780.4</ele>
        <time>2022-09-02T07:15:20Z</time>
      </trkpt>
      <trkpt lat="47.9061" lon="6.83113">
        <ele>780.7</ele>
        <time>2022-09-02T07:15:21Z</time>
      </trkpt>
      <trkpt lat="47.90611" lon="6.83114">
        <ele>780.5</ele>
        <time>2022-09-02T07:15:22Z</time>
      </trkpt>
      <trkpt lat="47.90611" lon="6.83115">
        <ele>780.6</ele>
        <time>2022-09-02T07:15:23Z</time>
      </trkpt>
      <trkpt lat="47.90612" lon="6.83115">
        <ele>780.3</ele>
        <time>2022-09-02T07:15:24Z</time>
      </trkpt>
      <trkpt lat="47.90612" lon="6.83116">
        <ele>780.4</ele>
        <time>2022-09-02T07:15:25Z</time>
      </trkpt>
      <trkpt lat="47.90613" lon="6.83117">
        <ele>780.3</ele>
        <time>2022-09-02T07:15:26Z</time>
      </trkpt>
      <trkpt lat="47.90613" lon="6.83118">
        <ele>780.4</ele>
        <time>2022-09-02T07:15:27Z</time>
      </trkpt>
      <trkpt lat="47.90614" lon="6.83119">
        <ele>780.2</ele>
        <time>2022-09-02T07:15:28Z</time>
      </trkpt>
      <trkpt lat="47.90614" lon="6.8312">
        <ele>780.4</ele>
        <time>2022-09-02T07:15:29Z</time>
      </trkpt>
      <trkpt lat="47.90615" lon="6.83121">
        <ele>780.2</ele>
        <time>2022-09-02T07:15:30Z</time>
      </trkpt>
      <trkpt lat="47.90616" lon="6.83122">
        <ele>780.1</ele>
        <time>2022-09-02T07:15:31Z</time>
      </trkpt>
      <trkpt lat="47.90616" lon="6.83123">
        <ele>780.2</ele>
        <time>2022-09-02T07:15:32Z</time>
      </trkpt>
      <trkpt lat="47.90617" lon="6.83124">
        <ele>780</ele>
        <time>2022-09-02T07:15:33Z</time>
      </trkpt>
      <trkpt lat="47.90618" lon="6.83125">
        <ele>779.9</ele>
        <time>2022-09-02T07:15:34Z</time>
      </trkpt>
      <trkpt lat="47.90619" lon="6.83126">
        <ele>779.7</ele>
        <time>2022-09-02T07:15:36Z</time>
      </trkpt>
      <trkpt lat="47.9062" lon="6.83127">
        <ele>779.6</ele>
        <time>2022-09-02T07:15:38Z</time>
      </trkpt>
      <trkpt lat="47.90621" lon="6.83127">
        <ele>779.3</ele>
        <time>2022-09-02T07:15:39Z</time>
      </trkpt>
      <trkpt lat="47.90622" lon="6.83128">
        <ele>779.1</ele>
        <time>2022-09-02T07:15:40Z</time>
      </trkpt>
      <trkpt lat="47.90623" lon="6.83128">
        <ele>778.8</ele>
        <time>2022-09-02T07:15:41Z</time>
      </trkpt>
      <trkpt lat="47.90624" lon="6.83128">
        <ele>778.5</ele>
        <time>2022-09-02T07:15:42Z</time>
      </trkpt>
      <trkpt lat="47.90625" lon="6.83128">
        <ele>778.2</ele>
        <time>2022-09-02T07:15:43Z</time>
      </trkpt>
      <trkpt lat="47.90626" lon="6.83129">
        <ele>778.1</ele>
        <time>2022-09-02T07:15:44Z</time>
      </trkpt>
      <trkpt lat="47.90627" lon="6.83129">
        <ele>777.8</ele>
        <time>2022-09-02T07:15:45Z</time>
      </trkpt>
      <trkpt lat="47.90628" lon="6.8313">
        <ele>777.7</ele>
        <time>2022-09-02T07:15:46Z</time>
      </trkpt>
      <trkpt lat="47.90629" lon="6.83131">
        <ele>777.5</ele>
        <time>2022-09-02T07:15:47Z</time>
      </trkpt>
      <trkpt lat="47.9063" lon="6.83131">
        <ele>777.2</ele>
        <time>2022-09-02T07:15:48Z</time>
      </trkpt>
      <trkpt lat="47.90631" lon="6.83132">
        <ele>777.1</ele>
        <time>2022-09-02T07:15:49Z</time>
      </trkpt>
      <trkpt lat="47.90632" lon="6.83133">
        <ele>777</ele>
        <time>2022-09-02T07:15:50Z</time>
      </trkpt>
      <trkpt lat="47.90632" lon="6.83134">
        <ele>777.1</ele>
        <time>2022-09-02T07:15:51Z</time>
      </trkpt>
      <trkpt lat="47.90633" lon="6.83135">
        <ele>777</ele>
        <time>2022-09-02T07:15:52Z</time>
      </trkpt>
      <trkpt lat="47.90634" lon="6.83136">
        <ele>776.9</ele>
        <time>2022-09-02T07:15:53Z</time>
      </trkpt>
      <trkpt lat="47.90635" lon="6.83137">
        <ele>776.8</ele>
        <time>2022-09-02T07:15:54Z</time>
      </trkpt>
      <trkpt lat="47.90636" lon="6.83138">
        <ele>776.7</ele>
        <time>2022-09-02T07:15:55Z</time>
      </trkpt>
      <trkpt lat="47.90637" lon="6.83139">
        <ele>776.6</ele>
        <time>2022-09-02T07:15:56Z</time>
      </trkpt>
      <trkpt lat="47.90638" lon="6.8314">
        <ele>776.4</ele>
        <time>2022-09-02T07:15:57Z</time>
      </trkpt>
      <trkpt lat="47.90638" lon="6.83141">
        <ele>776.6</ele>
        <time>2022-09-02T07:15:58Z</time>
      </trkpt>
      <trkpt lat="47.90639" lon="6.83142">
        <ele>776.4</ele>
        <time>2022-09-02T07:15:59Z</time>
      </trkpt>
      <trkpt lat="47.9064" lon="6.83144">
        <ele>776.3</ele>
        <time>2022-09-02T07:16:00Z</time>
      </trkpt>
      <trkpt lat="47.9064" lon="6.83145">
        <ele>776.4</ele>
        <time>2022-09-02T07:16:01Z</time>
      </trkpt>
      <trkpt lat="47.90641" lon="6.83146">
        <ele>776.2</ele>
        <time>2022-09-02T07:16:02Z</time>
      </trkpt>
      <trkpt lat="47.90641" lon="6.83147">
        <ele>776.3</ele>
        <time>2022-09-02T07:16:03Z</time>
      </trkpt>
      <trkpt lat="47.90642" lon="6.83148">
        <ele>776</ele>
        <time>2022-09-02T07:16:04Z</time>
      </trkpt>
      <trkpt lat="47.90643" lon="6.83149">
        <ele>775.8</ele>
        <time>2022-09-02T07:16:05Z</time>
      </trkpt>
      <trkpt lat="47.90643" lon="6.8315">
        <ele>775.9</ele>
        <time>2022-09-02T07:16:06Z</time>
      </trkpt>
      <trkpt lat="47.90644" lon="6.83151">
        <ele>775.6</ele>
        <time>2022-09-02T07:16:07Z</time>
      </trkpt>
      <trkpt lat="47.90645" lon="6.83152">
        <ele>775.4</ele>
        <time>2022-09-02T07:16:16Z</time>
      </trkpt>
      <trkpt lat="47.90646" lon="6.83153">
        <ele>775.1</ele>
        <time>2022-09-02T07:16:18Z</time>
      </trkpt>
      <trkpt lat="47.90646" lon="6.83154">
        <ele>775.2</ele>
        <time>2022-09-02T07:16:19Z</time>
      </trkpt>
      <trkpt lat="47.90646" lon="6.83155">
        <ele>775.4</ele>
        <time>2022-09-02T07:16:20Z</time>
      </trkpt>
      <trkpt lat="47.90646" lon="6.83156">
        <ele>775.5</ele>
        <time>2022-09-02T07:16:21Z</time>
      </trkpt>
      <trkpt lat="47.90645" lon="6.83157">
        <ele>776</ele>
        <time>2022-09-02T07:16:22Z</time>
      </trkpt>
      <trkpt lat="47.90645" lon="6.83159">
        <ele>776.3</ele>
        <time>2022-09-02T07:16:23Z</time>
      </trkpt>
      <trkpt lat="47.90645" lon="6.8316">
        <ele>776.5</ele>
        <time>2022-09-02T07:16:24Z</time>
      </trkpt>
      <trkpt lat="47.90645" lon="6.83162">
        <ele>776.7</ele>
        <time>2022-09-02T07:16:25Z</time>
      </trkpt>
      <trkpt lat="47.90645" lon="6.83163">
        <ele>776.9</ele>
        <time>2022-09-02T07:16:26Z</time>
      </trkpt>
      <trkpt lat="47.90645" lon="6.83165">
        <ele>777.1</ele>
        <time>2022-09-02T07:16:27Z</time>
      </trkpt>
      <trkpt lat="47.90645" lon="6.83167">
        <ele>777.4</ele>
        <time>2022-09-02T07:16:28Z</time>
      </trkpt>
      <trkpt lat="47.90646" lon="6.83168">
        <ele>777.1</ele>
        <time>2022-09-02T07:16:29Z</time>
      </trkpt>
      <trkpt lat="47.90646" lon="6.8317">
        <ele>777.3</ele>
        <time>2022-09-02T07:16:30Z</time>
      </trkpt>
      <trkpt lat="47.90646" lon="6.83171">
        <ele>777.4</ele>
        <time>2022-09-02T07:16:31Z</time>
      </trkpt>
      <trkpt lat="47.90646" lon="6.83173">
        <ele>777.6</ele>
        <time>2022-09-02T07:16:32Z</time>
      </trkpt>
      <trkpt lat="47.90647" lon="6.83174">
        <ele>777.3</ele>
        <time>2022-09-02T07:16:33Z</time>
      </trkpt>
      <trkpt lat="47.90647" lon="6.83176">
        <ele>777.5</ele>
        <time>2022-09-02T07:16:34Z</time>
      </trkpt>
      <trkpt lat="47.90647" lon="6.83177">
        <ele>777.6</ele>
        <time>2022-09-02T07:16:35Z</time>
      </trkpt>
      <trkpt lat="47.90647" lon="6.83178">
        <ele>777.7</ele>
        <time>2022-09-02T07:16:36Z</time>
      </trkpt>
      <trkpt lat="47.90648" lon="6.8318">
        <ele>777.5</ele>
        <time>2022-09-02T07:16:37Z</time>
      </trkpt>
      <trkpt lat="47.90648" lon="6.83181">
        <ele>777.6</ele>
        <time>2022-09-02T07:16:38Z</time>
      </trkpt>
      <trkpt lat="47.90648" lon="6.83183">
        <ele>777.8</ele>
        <time>2022-09-02T07:16:39Z</time>
      </trkpt>
      <trkpt lat="47.90649" lon="6.83185">
        <ele>777.7</ele>
        <time>2022-09-02T07:16:40Z</time>
      </trkpt>
      <trkpt lat="47.90649" lon="6.83186">
        <ele>777.8</ele>
        <time>2022-09-02T07:16:41Z</time>
      </trkpt>
      <trkpt lat="47.90649" lon="6.83188">
        <ele>778</ele>
        <time>2022-09-02T07:16:42Z</time>
      </trkpt>
      <trkpt lat="47.9065" lon="6.8319">
        <ele>777.9</ele>
        <time>2022-09-02T07:16:43Z</time>
      </trkpt>
      <trkpt lat="47.9065" lon="6.83192">
        <ele>778.1</ele>
        <time>2022-09-02T07:16:44Z</time>
      </trkpt>
      <trkpt lat="47.9065" lon="6.83194">
        <ele>778.3</ele>
        <time>2022-09-02T07:16:45Z</time>
      </trkpt>
      <trkpt lat="47.9065" lon="6.83196">
        <ele>778.5</ele>
        <time>2022-09-02T07:16:46Z</time>
      </trkpt>
      <trkpt lat="47.90651" lon="6.83197">
        <ele>778.3</ele>
        <time>2022-09-02T07:16:47Z</time>
      </trkpt>
      <trkpt lat="47.90651" lon="6.83199">
        <ele>778.5</ele>
        <time>2022-09-02T07:16:48Z</time>
      </trkpt>
      <trkpt lat="47.90652" lon="6.83201">
        <ele>778.3</ele>
        <time>2022-09-02T07:16:49Z</time>
      </trkpt>
      <trkpt lat="47.90652" lon="6.83203">
        <ele>778.5</ele>
        <time>2022-09-02T07:16:50Z</time>
      </trkpt>
      <trkpt lat="47.90652" lon="6.83205">
        <ele>778.7</ele>
        <time>2022-09-02T07:16:51Z</time>
      </trkpt>
      <trkpt lat="47.90653" lon="6.83206">
        <ele>778.5</ele>
        <time>2022-09-02T07:16:52Z</time>
      </trkpt>
      <trkpt lat="47.90653" lon="6.83208">
        <ele>778.7</ele>
        <time>2022-09-02T07:16:53Z</time>
      </trkpt>
      <trkpt lat="47.90653" lon="6.83209">
        <ele>778.7</ele>
        <time>2022-09-02T07:16:54Z</time>
      </trkpt>
      <trkpt lat="47.90654" lon="6.83211">
        <ele>778.6</ele>
        <time>2022-09-02T07:16:55Z</time>
      </trkpt>
      <trkpt lat="47.90655" lon="6.83212">
        <ele>778.4</ele>
        <time>2022-09-02T07:16:56Z</time>
      </trkpt>
      <trkpt lat="47.90656" lon="6.83213">
        <ele>778.2</ele>
        <time>2022-09-02T07:16:57Z</time>
      </trkpt>
      <trkpt lat="47.90657" lon="6.83214">
        <ele>778</ele>
        <time>2022-09-02T07:16:58Z</time>
      </trkpt>
      <trkpt lat="47.90659" lon="6.83215">
        <ele>777.5</ele>
        <time>2022-09-02T07:16:59Z</time>
      </trkpt>
      <trkpt lat="47.9066" lon="6.83216">
        <ele>777.3</ele>
        <time>2022-09-02T07:17:00Z</time>
      </trkpt>
      <trkpt lat="47.90661" lon="6.83217">
        <ele>777.1</ele>
        <time>2022-09-02T07:17:01Z</time>
      </trkpt>
      <trkpt lat="47.90662" lon="6.83218">
        <ele>776.9</ele>
        <time>2022-09-02T07:17:02Z</time>
      </trkpt>
      <trkpt lat="47.90662" lon="6.83219">
        <ele>777</ele>
        <time>2022-09-02T07:17:03Z</time>
      </trkpt>
      <trkpt lat="47.90663" lon="6.83221">
        <ele>776.9</ele>
        <time>2022-09-02T07:17:04Z</time>
      </trkpt>
      <trkpt lat="47.90663" lon="6.83222">
        <ele>777</ele>
        <time>2022-09-02T07:17:05Z</time>
      </trkpt>
      <trkpt lat="47.90663" lon="6.83223">
        <ele>777.1</ele>
        <time>2022-09-02T07:17:06Z</time>
      </trkpt>
      <trkpt lat="47.90663" lon="6.83224">
        <ele>777.1</ele>
        <time>2022-09-02T07:17:08Z</time>
      </trkpt>
      <trkpt lat="47.90664" lon="6.83225">
        <ele>776.9</ele>
        <time>2022-09-02T07:17:10Z</time>
      </trkpt>
      <trkpt lat="47.90664" lon="6.83226">
        <ele>776.9</ele>
        <time>2022-09-02T07:17:11Z</time>
      </trkpt>
      <trkpt lat="47.90664" lon="6.83227">
        <ele>777</ele>
        <time>2022-09-02T07:17:12Z</time>
      </trkpt>
      <trkpt lat="47.90664" lon="6.83228">
        <ele>777</ele>
        <time>2022-09-02T07:17:13Z</time>
      </trkpt>
      <trkpt lat="47.90664" lon="6.83229">
        <ele>777.1</ele>
        <time>2022-09-02T07:17:14Z</time>
      </trkpt>
      <trkpt lat="47.90664" lon="6.8323">
        <ele>777.1</ele>
        <time>2022-09-02T07:17:15Z</time>
      </trkpt>
      <trkpt lat="47.90664" lon="6.83231">
        <ele>777.1</ele>
        <time>2022-09-02T07:17:16Z</time>
      </trkpt>
      <trkpt lat="47.90664" lon="6.83232">
        <ele>777.2</ele>
        <time>2022-09-02T07:17:17Z</time>
      </trkpt>
      <trkpt lat="47.90664" lon="6.83233">
        <ele>777.2</ele>
        <time>2022-09-02T07:17:18Z</time>
      </trkpt>
      <trkpt lat="47.90664" lon="6.83234">
        <ele>777.3</ele>
        <time>2022-09-02T07:17:19Z</time>
      </trkpt>
      <trkpt lat="47.90665" lon="6.83235">
        <ele>777</ele>
        <time>2022-09-02T07:17:20Z</time>
      </trkpt>
      <trkpt lat="47.90665" lon="6.83236">
        <ele>777</ele>
        <time>2022-09-02T07:17:21Z</time>
      </trkpt>
      <trkpt lat="47.90665" lon="6.83237">
        <ele>777.1</ele>
        <time>2022-09-02T07:17:22Z</time>
      </trkpt>
      <trkpt lat="47.90666" lon="6.83238">
        <ele>776.8</ele>
        <time>2022-09-02T07:17:30Z</time>
      </trkpt>
      <trkpt lat="47.90667" lon="6.83239">
        <ele>776.5</ele>
        <time>2022-09-02T07:17:31Z</time>
      </trkpt>
      <trkpt lat="47.90667" lon="6.8324">
        <ele>776.6</ele>
        <time>2022-09-02T07:17:32Z</time>
      </trkpt>
      <trkpt lat="47.90667" lon="6.83241">
        <ele>776.6</ele>
        <time>2022-09-02T07:17:33Z</time>
      </trkpt>
      <trkpt lat="47.90668" lon="6.83242">
        <ele>776.4</ele>
        <time>2022-09-02T07:17:34Z</time>
      </trkpt>
      <trkpt lat="47.90668" lon="6.83243">
        <ele>776.4</ele>
        <time>2022-09-02T07:17:35Z</time>
      </trkpt>
      <trkpt lat="47.90668" lon="6.83244">
        <ele>776.5</ele>
        <time>2022-09-02T07:17:36Z</time>
      </trkpt>
      <trkpt lat="47.90669" lon="6.83246">
        <ele>776.3</ele>
        <time>2022-09-02T07:17:37Z</time>
      </trkpt>
      <trkpt lat="47.90669" lon="6.83247">
        <ele>776.3</ele>
        <time>2022-09-02T07:17:38Z</time>
      </trkpt>
      <trkpt lat="47.90669" lon="6.83249">
        <ele>776.4</ele>
        <time>2022-09-02T07:17:39Z</time>
      </trkpt>
      <trkpt lat="47.90669" lon="6.8325">
        <ele>776.4</ele>
        <time>2022-09-02T07:17:40Z</time>
      </trkpt>
      <trkpt lat="47.90669" lon="6.83252">
        <ele>776.6</ele>
        <time>2022-09-02T07:17:41Z</time>
      </trkpt>
      <trkpt lat="47.90669" lon="6.83253">
        <ele>776.7</ele>
        <time>2022-09-02T07:17:42Z</time>
      </trkpt>
      <trkpt lat="47.90669" lon="6.83255">
        <ele>776.9</ele>
        <time>2022-09-02T07:17:43Z</time>
      </trkpt>
      <trkpt lat="47.90668" lon="6.83256">
        <ele>777.3</ele>
        <time>2022-09-02T07:17:44Z</time>
      </trkpt>
      <trkpt lat="47.90668" lon="6.83258">
        <ele>777.5</ele>
        <time>2022-09-02T07:17:45Z</time>
      </trkpt>
      <trkpt lat="47.90667" lon="6.83259">
        <ele>777.9</ele>
        <time>2022-09-02T07:17:46Z</time>
      </trkpt>
      <trkpt lat="47.90667" lon="6.8326">
        <ele>778</ele>
        <time>2022-09-02T07:17:47Z</time>
      </trkpt>
      <trkpt lat="47.90666" lon="6.83261">
        <ele>778.4</ele>
        <time>2022-09-02T07:17:48Z</time>
      </trkpt>
      <trkpt lat="47.90666" lon="6.83262">
        <ele>778.5</ele>
        <time>2022-09-02T07:17:49Z</time>
      </trkpt>
      <trkpt lat="47.90666" lon="6.83264">
        <ele>778.7</ele>
        <time>2022-09-02T07:17:50Z</time>
      </trkpt>
      <trkpt lat="47.90666" lon="6.83265">
        <ele>778.8</ele>
        <time>2022-09-02T07:17:51Z</time>
      </trkpt>
      <trkpt lat="47.90666" lon="6.83266">
        <ele>779</ele>
        <time>2022-09-02T07:17:52Z</time>
      </trkpt>
      <trkpt lat="47.90666" lon="6.83267">
        <ele>779.1</ele>
        <time>2022-09-02T07:17:53Z</time>
      </trkpt>
      <trkpt lat="47.90667" lon="6.83268">
        <ele>778.8</ele>
        <time>2022-09-02T07:17:54Z</time>
      </trkpt>
      <trkpt lat="47.90667" lon="6.8327">
        <ele>779.1</ele>
        <time>2022-09-02T07:17:55Z</time>
      </trkpt>
      <trkpt lat="47.90667" lon="6.83271">
        <ele>779.2</ele>
        <time>2022-09-02T07:17:56Z</time>
      </trkpt>
      <trkpt lat="47.90667" lon="6.83273">
        <ele>779.4</ele>
        <time>2022-09-02T07:17:57Z</time>
      </trkpt>
      <trkpt lat="47.90667" lon="6.83274">
        <ele>779.5</ele>
        <time>2022-09-02T07:17:58Z</time>
      </trkpt>
      <trkpt lat="47.90667" lon="6.83276">
        <ele>779.7</ele>
        <time>2022-09-02T07:17:59Z</time>
      </trkpt>
      <trkpt lat="47.90667" lon="6.83277">
        <ele>779.8</ele>
        <time>2022-09-02T07:18:00Z</time>
      </trkpt>
      <trkpt lat="47.90667" lon="6.83278">
        <ele>779.9</ele>
        <time>2022-09-02T07:18:01Z</time>
      </trkpt>
      <trkpt lat="47.90667" lon="6.83279">
        <ele>780.1</ele>
        <time>2022-09-02T07:18:02Z</time>
      </trkpt>
      <trkpt lat="47.90667" lon="6.83281">
        <ele>780.4</ele>
        <time>2022-09-02T07:18:03Z</time>
      </trkpt>
      <trkpt lat="47.90667" lon="6.83282">
        <ele>780.5</ele>
        <time>2022-09-02T07:18:04Z</time>
      </trkpt>
      <trkpt lat="47.90668" lon="6.83283">
        <ele>780.3</ele>
        <time>2022-09-02T07:18:05Z</time>
      </trkpt>
      <trkpt lat="47.90668" lon="6.83284">
        <ele>780.5</ele>
        <time>2022-09-02T07:18:06Z</time>
      </trkpt>
      <trkpt lat="47.90668" lon="6.83285">
        <ele>780.6</ele>
        <time>2022-09-02T07:18:07Z</time>
      </trkpt>
      <trkpt lat="47.90669" lon="6.83287">
        <ele>780.6</ele>
        <time>2022-09-02T07:18:08Z</time>
      </trkpt>
      <trkpt lat="47.90669" lon="6.83288">
        <ele>780.7</ele>
        <time>2022-09-02T07:18:09Z</time>
      </trkpt>
      <trkpt lat="47.90669" lon="6.83289">
        <ele>780.9</ele>
        <time>2022-09-02T07:18:10Z</time>
      </trkpt>
      <trkpt lat="47.90669" lon="6.8329">
        <ele>781</ele>
        <time>2022-09-02T07:18:11Z</time>
      </trkpt>
      <trkpt lat="47.90669" lon="6.83291">
        <ele>781.1</ele>
        <time>2022-09-02T07:18:12Z</time>
      </trkpt>
      <trkpt lat="47.90669" lon="6.83292">
        <ele>781.3</ele>
        <time>2022-09-02T07:18:13Z</time>
      </trkpt>
      <trkpt lat="47.90669" lon="6.83293">
        <ele>781.4</ele>
        <time>2022-09-02T07:18:14Z</time>
      </trkpt>
      <trkpt lat="47.90669" lon="6.83295">
        <ele>781.7</ele>
        <time>2022-09-02T07:18:15Z</time>
      </trkpt>
      <trkpt lat="47.9067" lon="6.83296">
        <ele>781.5</ele>
        <time>2022-09-02T07:18:16Z</time>
      </trkpt>
      <trkpt lat="47.9067" lon="6.83297">
        <ele>781.7</ele>
        <time>2022-09-02T07:18:17Z</time>
      </trkpt>
      <trkpt lat="47.9067" lon="6.83298">
        <ele>781.8</ele>
        <time>2022-09-02T07:18:18Z</time>
      </trkpt>
      <trkpt lat="47.90671" lon="6.833">
        <ele>781.8</ele>
        <time>2022-09-02T07:18:19Z</time>
      </trkpt>
      <trkpt lat="47.90671" lon="6.83301">
        <ele>781.9</ele>
        <time>2022-09-02T07:18:20Z</time>
      </trkpt>
      <trkpt lat="47.90671" lon="6.83302">
        <ele>782.1</ele>
        <time>2022-09-02T07:18:21Z</time>
      </trkpt>
      <trkpt lat="47.90671" lon="6.83303">
        <ele>782.2</ele>
        <time>2022-09-02T07:18:22Z</time>
      </trkpt>
      <trkpt lat="47.90671" lon="6.83304">
        <ele>782.4</ele>
        <time>2022-09-02T07:18:23Z</time>
      </trkpt>
      <trkpt lat="47.90672" lon="6.83305">
        <ele>782.2</ele>
        <time>2022-09-02T07:18:24Z</time>
      </trkpt>
      <trkpt lat="47.90672" lon="6.83307">
        <ele>782.5</ele>
        <time>2022-09-02T07:18:25Z</time>
      </trkpt>
      <trkpt lat="47.90673" lon="6.83308">
        <ele>782.3</ele>
        <time>2022-09-02T07:18:26Z</time>
      </trkpt>
      <trkpt lat="47.90673" lon="6.83309">
        <ele>782.4</ele>
        <time>2022-09-02T07:18:27Z</time>
      </trkpt>
      <trkpt lat="47.90673" lon="6.8331">
        <ele>782.6</ele>
        <time>2022-09-02T07:18:28Z</time>
      </trkpt>
      <trkpt lat="47.90673" lon="6.83312">
        <ele>782.9</ele>
        <time>2022-09-02T07:18:29Z</time>
      </trkpt>
      <trkpt lat="47.90674" lon="6.83313">
        <ele>782.7</ele>
        <time>2022-09-02T07:18:30Z</time>
      </trkpt>
      <trkpt lat="47.90674" lon="6.83314">
        <ele>782.8</ele>
        <time>2022-09-02T07:18:31Z</time>
      </trkpt>
      <trkpt lat="47.90674" lon="6.83315">
        <ele>783</ele>
        <time>2022-09-02T07:18:32Z</time>
      </trkpt>
      <trkpt lat="47.90674" lon="6.83316">
        <ele>783.1</ele>
        <time>2022-09-02T07:18:33Z</time>
      </trkpt>
      <trkpt lat="47.90673" lon="6.83318">
        <ele>783.7</ele>
        <time>2022-09-02T07:18:34Z</time>
      </trkpt>
      <trkpt lat="47.90673" lon="6.83319">
        <ele>783.9</ele>
        <time>2022-09-02T07:18:35Z</time>
      </trkpt>
      <trkpt lat="47.90673" lon="6.8332">
        <ele>784</ele>
        <time>2022-09-02T07:18:36Z</time>
      </trkpt>
      <trkpt lat="47.90673" lon="6.83321">
        <ele>784.2</ele>
        <time>2022-09-02T07:18:37Z</time>
      </trkpt>
      <trkpt lat="47.90674" lon="6.83322">
        <ele>784</ele>
        <time>2022-09-02T07:18:38Z</time>
      </trkpt>
      <trkpt lat="47.90674" lon="6.83324">
        <ele>784.3</ele>
        <time>2022-09-02T07:18:39Z</time>
      </trkpt>
      <trkpt lat="47.90674" lon="6.83325">
        <ele>784.4</ele>
        <time>2022-09-02T07:18:40Z</time>
      </trkpt>
      <trkpt lat="47.90674" lon="6.83326">
        <ele>784.6</ele>
        <time>2022-09-02T07:18:41Z</time>
      </trkpt>
      <trkpt lat="47.90675" lon="6.83327">
        <ele>784.4</ele>
        <time>2022-09-02T07:18:42Z</time>
      </trkpt>
      <trkpt lat="47.90675" lon="6.83328">
        <ele>784.5</ele>
        <time>2022-09-02T07:18:43Z</time>
      </trkpt>
      <trkpt lat="47.90675" lon="6.83329">
        <ele>784.7</ele>
        <time>2022-09-02T07:18:44Z</time>
      </trkpt>
      <trkpt lat="47.90676" lon="6.8333">
        <ele>784.5</ele>
        <time>2022-09-02T07:18:45Z</time>
      </trkpt>
      <trkpt lat="47.90676" lon="6.83331">
        <ele>784.6</ele>
        <time>2022-09-02T07:18:46Z</time>
      </trkpt>
      <trkpt lat="47.90676" lon="6.83332">
        <ele>784.8</ele>
        <time>2022-09-02T07:18:47Z</time>
      </trkpt>
      <trkpt lat="47.90677" lon="6.83333">
        <ele>784.6</ele>
        <time>2022-09-02T07:18:48Z</time>
      </trkpt>
      <trkpt lat="47.90677" lon="6.83334">
        <ele>784.8</ele>
        <time>2022-09-02T07:18:49Z</time>
      </trkpt>
      <trkpt lat="47.90678" lon="6.83336">
        <ele>784.8</ele>
        <time>2022-09-02T07:18:50Z</time>
      </trkpt>
      <trkpt lat="47.90678" lon="6.83337">
        <ele>784.9</ele>
        <time>2022-09-02T07:18:51Z</time>
      </trkpt>
      <trkpt lat="47.90678" lon="6.83339">
        <ele>785.2</ele>
        <time>2022-09-02T07:18:52Z</time>
      </trkpt>
      <trkpt lat="47.90678" lon="6.8334">
        <ele>785.4</ele>
        <time>2022-09-02T07:18:53Z</time>
      </trkpt>
      <trkpt lat="47.90678" lon="6.83341">
        <ele>785.5</ele>
        <time>2022-09-02T07:18:54Z</time>
      </trkpt>
      <trkpt lat="47.90678" lon="6.83342">
        <ele>785.7</ele>
        <time>2022-09-02T07:18:55Z</time>
      </trkpt>
      <trkpt lat="47.90678" lon="6.83343">
        <ele>785.9</ele>
        <time>2022-09-02T07:18:56Z</time>
      </trkpt>
      <trkpt lat="47.90679" lon="6.83344">
        <ele>785.7</ele>
        <time>2022-09-02T07:18:57Z</time>
      </trkpt>
      <trkpt lat="47.90679" lon="6.83345">
        <ele>785.9</ele>
        <time>2022-09-02T07:18:58Z</time>
      </trkpt>
      <trkpt lat="47.9068" lon="6.83346">
        <ele>785.7</ele>
        <time>2022-09-02T07:18:59Z</time>
      </trkpt>
      <trkpt lat="47.9068" lon="6.83347">
        <ele>785.9</ele>
        <time>2022-09-02T07:19:00Z</time>
      </trkpt>
      <trkpt lat="47.90681" lon="6.83348">
        <ele>785.7</ele>
        <time>2022-09-02T07:19:01Z</time>
      </trkpt>
      <trkpt lat="47.90681" lon="6.83349">
        <ele>785.9</ele>
        <time>2022-09-02T07:19:02Z</time>
      </trkpt>
      <trkpt lat="47.90681" lon="6.83351">
        <ele>786.2</ele>
        <time>2022-09-02T07:19:03Z</time>
      </trkpt>
      <trkpt lat="47.90681" lon="6.83352">
        <ele>786.4</ele>
        <time>2022-09-02T07:19:04Z</time>
      </trkpt>
      <trkpt lat="47.90682" lon="6.83354">
        <ele>786.4</ele>
        <time>2022-09-02T07:19:05Z</time>
      </trkpt>
      <trkpt lat="47.90682" lon="6.83355">
        <ele>786.6</ele>
        <time>2022-09-02T07:19:06Z</time>
      </trkpt>
      <trkpt lat="47.90682" lon="6.83356">
        <ele>786.7</ele>
        <time>2022-09-02T07:19:07Z</time>
      </trkpt>
      <trkpt lat="47.90682" lon="6.83357">
        <ele>786.9</ele>
        <time>2022-09-02T07:19:08Z</time>
      </trkpt>
      <trkpt lat="47.90682" lon="6.83358">
        <ele>787.1</ele>
        <time>2022-09-02T07:19:09Z</time>
      </trkpt>
      <trkpt lat="47.90682" lon="6.83359">
        <ele>787.2</ele>
        <time>2022-09-02T07:19:10Z</time>
      </trkpt>
      <trkpt lat="47.90682" lon="6.8336">
        <ele>787.4</ele>
        <time>2022-09-02T07:19:11Z</time>
      </trkpt>
      <trkpt lat="47.90682" lon="6.83361">
        <ele>787.6</ele>
        <time>2022-09-02T07:19:12Z</time>
      </trkpt>
      <trkpt lat="47.90682" lon="6.83362">
        <ele>787.7</ele>
        <time>2022-09-02T07:19:13Z</time>
      </trkpt>
      <trkpt lat="47.90681" lon="6.83363">
        <ele>788.2</ele>
        <time>2022-09-02T07:19:15Z</time>
      </trkpt>
      <trkpt lat="47.90681" lon="6.83364">
        <ele>788.3</ele>
        <time>2022-09-02T07:19:16Z</time>
      </trkpt>
      <trkpt lat="47.90681" lon="6.83365">
        <ele>788.5</ele>
        <time>2022-09-02T07:19:17Z</time>
      </trkpt>
      <trkpt lat="47.90681" lon="6.83366">
        <ele>788.7</ele>
        <time>2022-09-02T07:19:18Z</time>
      </trkpt>
      <trkpt lat="47.90681" lon="6.83367">
        <ele>788.8</ele>
        <time>2022-09-02T07:19:19Z</time>
      </trkpt>
      <trkpt lat="47.90682" lon="6.83368">
        <ele>788.7</ele>
        <time>2022-09-02T07:19:21Z</time>
      </trkpt>
      <trkpt lat="47.90682" lon="6.83369">
        <ele>788.8</ele>
        <time>2022-09-02T07:19:22Z</time>
      </trkpt>
      <trkpt lat="47.90683" lon="6.8337">
        <ele>788.7</ele>
        <time>2022-09-02T07:19:24Z</time>
      </trkpt>
      <trkpt lat="47.90683" lon="6.83371">
        <ele>788.9</ele>
        <time>2022-09-02T07:19:25Z</time>
      </trkpt>
      <trkpt lat="47.90683" lon="6.83372">
        <ele>789</ele>
        <time>2022-09-02T07:19:26Z</time>
      </trkpt>
      <trkpt lat="47.90683" lon="6.83373">
        <ele>789.2</ele>
        <time>2022-09-02T07:19:27Z</time>
      </trkpt>
      <trkpt lat="47.90683" lon="6.83375">
        <ele>789.5</ele>
        <time>2022-09-02T07:19:28Z</time>
      </trkpt>
      <trkpt lat="47.90682" lon="6.83376">
        <ele>790</ele>
        <time>2022-09-02T07:19:29Z</time>
      </trkpt>
      <trkpt lat="47.90682" lon="6.83377">
        <ele>790.1</ele>
        <time>2022-09-02T07:19:30Z</time>
      </trkpt>
      <trkpt lat="47.90682" lon="6.83378">
        <ele>790.3</ele>
        <time>2022-09-02T07:19:31Z</time>
      </trkpt>
      <trkpt lat="47.90682" lon="6.83379">
        <ele>790.4</ele>
        <time>2022-09-02T07:19:32Z</time>
      </trkpt>
      <trkpt lat="47.90682" lon="6.83381">
        <ele>790.8</ele>
        <time>2022-09-02T07:19:33Z</time>
      </trkpt>
      <trkpt lat="47.90683" lon="6.83382">
        <ele>790.6</ele>
        <time>2022-09-02T07:19:34Z</time>
      </trkpt>
      <trkpt lat="47.90683" lon="6.83383">
        <ele>790.8</ele>
        <time>2022-09-02T07:19:35Z</time>
      </trkpt>
      <trkpt lat="47.90683" lon="6.83384">
        <ele>790.9</ele>
        <time>2022-09-02T07:19:36Z</time>
      </trkpt>
      <trkpt lat="47.90684" lon="6.83385">
        <ele>790.8</ele>
        <time>2022-09-02T07:19:37Z</time>
      </trkpt>
      <trkpt lat="47.90684" lon="6.83386">
        <ele>790.9</ele>
        <time>2022-09-02T07:19:40Z</time>
      </trkpt>
      <trkpt lat="47.90685" lon="6.83387">
        <ele>790.8</ele>
        <time>2022-09-02T07:19:42Z</time>
      </trkpt>
      <trkpt lat="47.90685" lon="6.83388">
        <ele>790.9</ele>
        <time>2022-09-02T07:19:43Z</time>
      </trkpt>
      <trkpt lat="47.90686" lon="6.83389">
        <ele>790.8</ele>
        <time>2022-09-02T07:19:44Z</time>
      </trkpt>
      <trkpt lat="47.90687" lon="6.8339">
        <ele>790.6</ele>
        <time>2022-09-02T07:19:45Z</time>
      </trkpt>
      <trkpt lat="47.90687" lon="6.83391">
        <ele>790.7</ele>
        <time>2022-09-02T07:19:51Z</time>
      </trkpt>
      <trkpt lat="47.90688" lon="6.83393">
        <ele>790.7</ele>
        <time>2022-09-02T07:19:52Z</time>
      </trkpt>
      <trkpt lat="47.90688" lon="6.83394">
        <ele>790.8</ele>
        <time>2022-09-02T07:19:53Z</time>
      </trkpt>
      <trkpt lat="47.90688" lon="6.83395">
        <ele>791</ele>
        <time>2022-09-02T07:19:55Z</time>
      </trkpt>
      <trkpt lat="47.90689" lon="6.83395">
        <ele>790.6</ele>
        <time>2022-09-02T07:19:56Z</time>
      </trkpt>
      <trkpt lat="47.90689" lon="6.83396">
        <ele>790.8</ele>
        <time>2022-09-02T07:19:57Z</time>
      </trkpt>
      <trkpt lat="47.90689" lon="6.83397">
        <ele>790.9</ele>
        <time>2022-09-02T07:19:58Z</time>
      </trkpt>
      <trkpt lat="47.90689" lon="6.83398">
        <ele>791.1</ele>
        <time>2022-09-02T07:19:59Z</time>
      </trkpt>
      <trkpt lat="47.9069" lon="6.83399">
        <ele>790.9</ele>
        <time>2022-09-02T07:20:00Z</time>
      </trkpt>
      <trkpt lat="47.9069" lon="6.834">
        <ele>791</ele>
        <time>2022-09-02T07:20:01Z</time>
      </trkpt>
      <trkpt lat="47.90692" lon="6.83401">
        <ele>790.5</ele>
        <time>2022-09-02T07:20:02Z</time>
      </trkpt>
      <trkpt lat="47.90694" lon="6.83402">
        <ele>790</ele>
        <time>2022-09-02T07:20:03Z</time>
      </trkpt>
      <trkpt lat="47.90695" lon="6.83403">
        <ele>789.9</ele>
        <time>2022-09-02T07:20:04Z</time>
      </trkpt>
      <trkpt lat="47.90697" lon="6.83404">
        <ele>789.7</ele>
        <time>2022-09-02T07:20:05Z</time>
      </trkpt>
      <trkpt lat="47.90698" lon="6.83405">
        <ele>789.7</ele>
        <time>2022-09-02T07:20:06Z</time>
      </trkpt>
      <trkpt lat="47.907" lon="6.83405">
        <ele>789.3</ele>
        <time>2022-09-02T07:20:07Z</time>
      </trkpt>
      <trkpt lat="47.907" lon="6.83406">
        <ele>789.5</ele>
        <time>2022-09-02T07:20:08Z</time>
      </trkpt>
      <trkpt lat="47.90701" lon="6.83407">
        <ele>789.4</ele>
        <time>2022-09-02T07:20:09Z</time>
      </trkpt>
      <trkpt lat="47.90702" lon="6.83409">
        <ele>789.5</ele>
        <time>2022-09-02T07:20:10Z</time>
      </trkpt>
      <trkpt lat="47.90702" lon="6.8341">
        <ele>789.7</ele>
        <time>2022-09-02T07:20:11Z</time>
      </trkpt>
      <trkpt lat="47.90702" lon="6.83411">
        <ele>789.8</ele>
        <time>2022-09-02T07:20:12Z</time>
      </trkpt>
      <trkpt lat="47.90702" lon="6.83412">
        <ele>790</ele>
        <time>2022-09-02T07:20:13Z</time>
      </trkpt>
      <trkpt lat="47.90703" lon="6.83413">
        <ele>789.9</ele>
        <time>2022-09-02T07:20:14Z</time>
      </trkpt>
      <trkpt lat="47.90703" lon="6.83414">
        <ele>790.1</ele>
        <time>2022-09-02T07:20:15Z</time>
      </trkpt>
      <trkpt lat="47.90703" lon="6.83416">
        <ele>790.4</ele>
        <time>2022-09-02T07:20:16Z</time>
      </trkpt>
      <trkpt lat="47.90704" lon="6.83417">
        <ele>790.4</ele>
        <time>2022-09-02T07:20:17Z</time>
      </trkpt>
      <trkpt lat="47.90704" lon="6.83418">
        <ele>790.6</ele>
        <time>2022-09-02T07:20:18Z</time>
      </trkpt>
      <trkpt lat="47.90705" lon="6.83419">
        <ele>790.6</ele>
        <time>2022-09-02T07:20:19Z</time>
      </trkpt>
      <trkpt lat="47.90706" lon="6.8342">
        <ele>790.6</ele>
        <time>2022-09-02T07:20:20Z</time>
      </trkpt>
      <trkpt lat="47.90706" lon="6.83421">
        <ele>790.8</ele>
        <time>2022-09-02T07:20:21Z</time>
      </trkpt>
      <trkpt lat="47.90708" lon="6.83421">
        <ele>790.4</ele>
        <time>2022-09-02T07:20:22Z</time>
      </trkpt>
      <trkpt lat="47.90709" lon="6.83422">
        <ele>790.4</ele>
        <time>2022-09-02T07:20:23Z</time>
      </trkpt>
      <trkpt lat="47.9071" lon="6.83422">
        <ele>790.2</ele>
        <time>2022-09-02T07:20:24Z</time>
      </trkpt>
      <trkpt lat="47.90711" lon="6.83423">
        <ele>790.2</ele>
        <time>2022-09-02T07:20:25Z</time>
      </trkpt>
      <trkpt lat="47.90712" lon="6.83424">
        <ele>790.2</ele>
        <time>2022-09-02T07:20:27Z</time>
      </trkpt>
      <trkpt lat="47.90713" lon="6.83425">
        <ele>790.2</ele>
        <time>2022-09-02T07:20:28Z</time>
      </trkpt>
      <trkpt lat="47.90713" lon="6.83426">
        <ele>790.3</ele>
        <time>2022-09-02T07:20:29Z</time>
      </trkpt>
      <trkpt lat="47.90714" lon="6.83428">
        <ele>790.5</ele>
        <time>2022-09-02T07:20:30Z</time>
      </trkpt>
      <trkpt lat="47.90714" lon="6.83429">
        <ele>790.7</ele>
        <time>2022-09-02T07:20:31Z</time>
      </trkpt>
      <trkpt lat="47.90715" lon="6.83431">
        <ele>790.8</ele>
        <time>2022-09-02T07:20:32Z</time>
      </trkpt>
      <trkpt lat="47.90715" lon="6.83432">
        <ele>790.9</ele>
        <time>2022-09-02T07:20:33Z</time>
      </trkpt>
      <trkpt lat="47.90716" lon="6.83434">
        <ele>791</ele>
        <time>2022-09-02T07:20:34Z</time>
      </trkpt>
      <trkpt lat="47.90716" lon="6.83436">
        <ele>791.4</ele>
        <time>2022-09-02T07:20:35Z</time>
      </trkpt>
      <trkpt lat="47.90717" lon="6.83437">
        <ele>791.3</ele>
        <time>2022-09-02T07:20:36Z</time>
      </trkpt>
      <trkpt lat="47.90717" lon="6.83438">
        <ele>791.4</ele>
        <time>2022-09-02T07:20:37Z</time>
      </trkpt>
      <trkpt lat="47.90717" lon="6.8344">
        <ele>791.8</ele>
        <time>2022-09-02T07:20:38Z</time>
      </trkpt>
      <trkpt lat="47.90718" lon="6.83441">
        <ele>791.7</ele>
        <time>2022-09-02T07:20:39Z</time>
      </trkpt>
      <trkpt lat="47.90718" lon="6.83443">
        <ele>792</ele>
        <time>2022-09-02T07:20:40Z</time>
      </trkpt>
      <trkpt lat="47.90718" lon="6.83444">
        <ele>792.1</ele>
        <time>2022-09-02T07:20:41Z</time>
      </trkpt>
      <trkpt lat="47.90718" lon="6.83445">
        <ele>792.3</ele>
        <time>2022-09-02T07:20:42Z</time>
      </trkpt>
      <trkpt lat="47.90718" lon="6.83446">
        <ele>792.4</ele>
        <time>2022-09-02T07:20:43Z</time>
      </trkpt>
      <trkpt lat="47.90718" lon="6.83448">
        <ele>792.7</ele>
        <time>2022-09-02T07:20:44Z</time>
      </trkpt>
      <trkpt lat="47.90718" lon="6.83449">
        <ele>792.9</ele>
        <time>2022-09-02T07:20:45Z</time>
      </trkpt>
      <trkpt lat="47.90717" lon="6.8345">
        <ele>793.3</ele>
        <time>2022-09-02T07:20:46Z</time>
      </trkpt>
      <trkpt lat="47.90718" lon="6.83452">
        <ele>793.3</ele>
        <time>2022-09-02T07:20:47Z</time>
      </trkpt>
      <trkpt lat="47.90718" lon="6.83454">
        <ele>793.6</ele>
        <time>2022-09-02T07:20:48Z</time>
      </trkpt>
      <trkpt lat="47.90717" lon="6.83455">
        <ele>794.1</ele>
        <time>2022-09-02T07:20:49Z</time>
      </trkpt>
      <trkpt lat="47.90717" lon="6.83456">
        <ele>794.2</ele>
        <time>2022-09-02T07:20:50Z</time>
      </trkpt>
      <trkpt lat="47.90717" lon="6.83458">
        <ele>794.5</ele>
        <time>2022-09-02T07:20:51Z</time>
      </trkpt>
      <trkpt lat="47.90717" lon="6.83459">
        <ele>794.7</ele>
        <time>2022-09-02T07:20:52Z</time>
      </trkpt>
      <trkpt lat="47.90717" lon="6.8346">
        <ele>794.8</ele>
        <time>2022-09-02T07:20:53Z</time>
      </trkpt>
      <trkpt lat="47.90717" lon="6.83461">
        <ele>795</ele>
        <time>2022-09-02T07:20:54Z</time>
      </trkpt>
      <trkpt lat="47.90718" lon="6.83462">
        <ele>794.8</ele>
        <time>2022-09-02T07:20:55Z</time>
      </trkpt>
      <trkpt lat="47.90718" lon="6.83463">
        <ele>795</ele>
        <time>2022-09-02T07:20:56Z</time>
      </trkpt>
      <trkpt lat="47.90719" lon="6.83464">
        <ele>794.8</ele>
        <time>2022-09-02T07:20:57Z</time>
      </trkpt>
      <trkpt lat="47.9072" lon="6.83466">
        <ele>794.8</ele>
        <time>2022-09-02T07:20:58Z</time>
      </trkpt>
      <trkpt lat="47.9072" lon="6.83467">
        <ele>795</ele>
        <time>2022-09-02T07:20:59Z</time>
      </trkpt>
      <trkpt lat="47.9072" lon="6.83468">
        <ele>795.1</ele>
        <time>2022-09-02T07:21:00Z</time>
      </trkpt>
      <trkpt lat="47.9072" lon="6.8347">
        <ele>795.4</ele>
        <time>2022-09-02T07:21:01Z</time>
      </trkpt>
      <trkpt lat="47.90721" lon="6.83471">
        <ele>795.2</ele>
        <time>2022-09-02T07:21:02Z</time>
      </trkpt>
      <trkpt lat="47.9072" lon="6.83473">
        <ele>795.8</ele>
        <time>2022-09-02T07:21:03Z</time>
      </trkpt>
      <trkpt lat="47.9072" lon="6.83475">
        <ele>796</ele>
        <time>2022-09-02T07:21:04Z</time>
      </trkpt>
      <trkpt lat="47.9072" lon="6.83476">
        <ele>796.1</ele>
        <time>2022-09-02T07:21:06Z</time>
      </trkpt>
      <trkpt lat="47.9072" lon="6.83477">
        <ele>796.2</ele>
        <time>2022-09-02T07:21:09Z</time>
      </trkpt>
      <trkpt lat="47.90721" lon="6.83478">
        <ele>796</ele>
        <time>2022-09-02T07:21:10Z</time>
      </trkpt>
      <trkpt lat="47.90722" lon="6.83479">
        <ele>795.8</ele>
        <time>2022-09-02T07:21:12Z</time>
      </trkpt>
      <trkpt lat="47.90723" lon="6.8348">
        <ele>795.7</ele>
        <time>2022-09-02T07:21:13Z</time>
      </trkpt>
      <trkpt lat="47.90723" lon="6.83481">
        <ele>795.8</ele>
        <time>2022-09-02T07:21:14Z</time>
      </trkpt>
      <trkpt lat="47.90724" lon="6.83482">
        <ele>795.8</ele>
        <time>2022-09-02T07:21:15Z</time>
      </trkpt>
      <trkpt lat="47.90724" lon="6.83483">
        <ele>795.9</ele>
        <time>2022-09-02T07:21:16Z</time>
      </trkpt>
      <trkpt lat="47.90725" lon="6.83484">
        <ele>795.8</ele>
        <time>2022-09-02T07:21:17Z</time>
      </trkpt>
      <trkpt lat="47.90726" lon="6.83485">
        <ele>795.8</ele>
        <time>2022-09-02T07:21:18Z</time>
      </trkpt>
      <trkpt lat="47.90726" lon="6.83486">
        <ele>795.9</ele>
        <time>2022-09-02T07:21:19Z</time>
      </trkpt>
      <trkpt lat="47.90727" lon="6.83487">
        <ele>795.8</ele>
        <time>2022-09-02T07:21:20Z</time>
      </trkpt>
      <trkpt lat="47.90728" lon="6.83488">
        <ele>795.8</ele>
        <time>2022-09-02T07:21:21Z</time>
      </trkpt>
      <trkpt lat="47.90729" lon="6.83489">
        <ele>795.7</ele>
        <time>2022-09-02T07:21:22Z</time>
      </trkpt>
      <trkpt lat="47.9073" lon="6.8349">
        <ele>795.7</ele>
        <time>2022-09-02T07:21:24Z</time>
      </trkpt>
      <trkpt lat="47.90731" lon="6.8349">
        <ele>795.5</ele>
        <time>2022-09-02T07:21:25Z</time>
      </trkpt>
      <trkpt lat="47.90731" lon="6.83491">
        <ele>795.7</ele>
        <time>2022-09-02T07:21:26Z</time>
      </trkpt>
      <trkpt lat="47.90732" lon="6.83492">
        <ele>795.6</ele>
        <time>2022-09-02T07:21:27Z</time>
      </trkpt>
      <trkpt lat="47.90733" lon="6.83493">
        <ele>795.6</ele>
        <time>2022-09-02T07:21:29Z</time>
      </trkpt>
      <trkpt lat="47.90733" lon="6.83494">
        <ele>795.7</ele>
        <time>2022-09-02T07:21:30Z</time>
      </trkpt>
      <trkpt lat="47.90733" lon="6.83495">
        <ele>795.8</ele>
        <time>2022-09-02T07:21:31Z</time>
      </trkpt>
      <trkpt lat="47.90733" lon="6.83496">
        <ele>796</ele>
        <time>2022-09-02T07:21:32Z</time>
      </trkpt>
      <trkpt lat="47.90734" lon="6.83498">
        <ele>796.1</ele>
        <time>2022-09-02T07:21:43Z</time>
      </trkpt>
      <trkpt lat="47.90735" lon="6.83498">
        <ele>795.9</ele>
        <time>2022-09-02T07:21:44Z</time>
      </trkpt>
      <trkpt lat="47.90735" lon="6.83499">
        <ele>796</ele>
        <time>2022-09-02T07:21:45Z</time>
      </trkpt>
      <trkpt lat="47.90736" lon="6.83499">
        <ele>795.9</ele>
        <time>2022-09-02T07:21:46Z</time>
      </trkpt>
      <trkpt lat="47.90736" lon="6.835">
        <ele>796</ele>
        <time>2022-09-02T07:21:47Z</time>
      </trkpt>
      <trkpt lat="47.90737" lon="6.835">
        <ele>795.9</ele>
        <time>2022-09-02T07:21:48Z</time>
      </trkpt>
      <trkpt lat="47.90738" lon="6.83501">
        <ele>795.9</ele>
        <time>2022-09-02T07:21:49Z</time>
      </trkpt>
      <trkpt lat="47.90739" lon="6.83503">
        <ele>796</ele>
        <time>2022-09-02T07:21:55Z</time>
      </trkpt>
      <trkpt lat="47.9074" lon="6.83503">
        <ele>795.9</ele>
        <time>2022-09-02T07:21:56Z</time>
      </trkpt>
      <trkpt lat="47.90741" lon="6.83504">
        <ele>795.9</ele>
        <time>2022-09-02T07:21:57Z</time>
      </trkpt>
      <trkpt lat="47.90741" lon="6.83505">
        <ele>796</ele>
        <time>2022-09-02T07:21:58Z</time>
      </trkpt>
      <trkpt lat="47.90742" lon="6.83506">
        <ele>796</ele>
        <time>2022-09-02T07:21:59Z</time>
      </trkpt>
      <trkpt lat="47.90743" lon="6.83506">
        <ele>795.9</ele>
        <time>2022-09-02T07:22:00Z</time>
      </trkpt>
      <trkpt lat="47.90744" lon="6.83507">
        <ele>795.9</ele>
        <time>2022-09-02T07:22:01Z</time>
      </trkpt>
      <trkpt lat="47.90745" lon="6.83508">
        <ele>795.9</ele>
        <time>2022-09-02T07:22:02Z</time>
      </trkpt>
      <trkpt lat="47.90747" lon="6.83509">
        <ele>795.7</ele>
        <time>2022-09-02T07:22:03Z</time>
      </trkpt>
      <trkpt lat="47.90748" lon="6.8351">
        <ele>795.7</ele>
        <time>2022-09-02T07:22:04Z</time>
      </trkpt>
      <trkpt lat="47.90748" lon="6.83512">
        <ele>796</ele>
        <time>2022-09-02T07:22:05Z</time>
      </trkpt>
      <trkpt lat="47.9075" lon="6.83513">
        <ele>795.9</ele>
        <time>2022-09-02T07:22:06Z</time>
      </trkpt>
      <trkpt lat="47.90751" lon="6.83515">
        <ele>796</ele>
        <time>2022-09-02T07:22:07Z</time>
      </trkpt>
      <trkpt lat="47.90752" lon="6.83516">
        <ele>796</ele>
        <time>2022-09-02T07:22:08Z</time>
      </trkpt>
      <trkpt lat="47.90752" lon="6.83518">
        <ele>796.3</ele>
        <time>2022-09-02T07:22:09Z</time>
      </trkpt>
      <trkpt lat="47.90753" lon="6.83519">
        <ele>796.2</ele>
        <time>2022-09-02T07:22:10Z</time>
      </trkpt>
      <trkpt lat="47.90754" lon="6.8352">
        <ele>796.2</ele>
        <time>2022-09-02T07:22:11Z</time>
      </trkpt>
      <trkpt lat="47.90754" lon="6.83521">
        <ele>796.3</ele>
        <time>2022-09-02T07:22:12Z</time>
      </trkpt>
      <trkpt lat="47.90755" lon="6.83522">
        <ele>796.3</ele>
        <time>2022-09-02T07:22:13Z</time>
      </trkpt>
      <trkpt lat="47.90755" lon="6.83523">
        <ele>796.4</ele>
        <time>2022-09-02T07:22:15Z</time>
      </trkpt>
      <trkpt lat="47.90755" lon="6.83524">
        <ele>796.6</ele>
        <time>2022-09-02T07:22:16Z</time>
      </trkpt>
      <trkpt lat="47.90755" lon="6.83525">
        <ele>796.7</ele>
        <time>2022-09-02T07:22:18Z</time>
      </trkpt>
      <trkpt lat="47.90755" lon="6.83526">
        <ele>796.9</ele>
        <time>2022-09-02T07:22:19Z</time>
      </trkpt>
      <trkpt lat="47.90756" lon="6.83527">
        <ele>796.8</ele>
        <time>2022-09-02T07:22:20Z</time>
      </trkpt>
      <trkpt lat="47.90757" lon="6.83528">
        <ele>796.8</ele>
        <time>2022-09-02T07:22:21Z</time>
      </trkpt>
      <trkpt lat="47.90757" lon="6.83529">
        <ele>796.9</ele>
        <time>2022-09-02T07:22:22Z</time>
      </trkpt>
      <trkpt lat="47.90758" lon="6.8353">
        <ele>796.8</ele>
        <time>2022-09-02T07:22:23Z</time>
      </trkpt>
      <trkpt lat="47.90759" lon="6.83531">
        <ele>796.8</ele>
        <time>2022-09-02T07:22:24Z</time>
      </trkpt>
      <trkpt lat="47.9076" lon="6.83532">
        <ele>796.7</ele>
        <time>2022-09-02T07:22:25Z</time>
      </trkpt>
      <trkpt lat="47.90761" lon="6.83533">
        <ele>796.6</ele>
        <time>2022-09-02T07:22:26Z</time>
      </trkpt>
      <trkpt lat="47.90762" lon="6.83534">
        <ele>796.5</ele>
        <time>2022-09-02T07:22:27Z</time>
      </trkpt>
      <trkpt lat="47.90763" lon="6.83535">
        <ele>796.5</ele>
        <time>2022-09-02T07:22:28Z</time>
      </trkpt>
      <trkpt lat="47.90764" lon="6.83535">
        <ele>796.3</ele>
        <time>2022-09-02T07:22:29Z</time>
      </trkpt>
      <trkpt lat="47.90766" lon="6.83536">
        <ele>796</ele>
        <time>2022-09-02T07:22:30Z</time>
      </trkpt>
      <trkpt lat="47.90767" lon="6.83536">
        <ele>795.8</ele>
        <time>2022-09-02T07:22:31Z</time>
      </trkpt>
      <trkpt lat="47.90768" lon="6.83537">
        <ele>795.7</ele>
        <time>2022-09-02T07:22:32Z</time>
      </trkpt>
      <trkpt lat="47.90768" lon="6.83538">
        <ele>795.8</ele>
        <time>2022-09-02T07:22:33Z</time>
      </trkpt>
      <trkpt lat="47.90769" lon="6.83539">
        <ele>795.6</ele>
        <time>2022-09-02T07:22:34Z</time>
      </trkpt>
      <trkpt lat="47.90769" lon="6.8354">
        <ele>795.7</ele>
        <time>2022-09-02T07:22:35Z</time>
      </trkpt>
      <trkpt lat="47.9077" lon="6.83541">
        <ele>795.6</ele>
        <time>2022-09-02T07:22:36Z</time>
      </trkpt>
      <trkpt lat="47.90769" lon="6.83544">
        <ele>796.1</ele>
        <time>2022-09-02T07:22:37Z</time>
      </trkpt>
      <trkpt lat="47.90769" lon="6.83546">
        <ele>796.3</ele>
        <time>2022-09-02T07:22:38Z</time>
      </trkpt>
      <trkpt lat="47.90769" lon="6.83548">
        <ele>796.5</ele>
        <time>2022-09-02T07:22:39Z</time>
      </trkpt>
      <trkpt lat="47.90768" lon="6.8355">
        <ele>796.9</ele>
        <time>2022-09-02T07:22:40Z</time>
      </trkpt>
      <trkpt lat="47.90768" lon="6.83552">
        <ele>797.1</ele>
        <time>2022-09-02T07:22:41Z</time>
      </trkpt>
      <trkpt lat="47.90768" lon="6.83553">
        <ele>797.2</ele>
        <time>2022-09-02T07:22:42Z</time>
      </trkpt>
      <trkpt lat="47.90768" lon="6.83555">
        <ele>797.4</ele>
        <time>2022-09-02T07:22:43Z</time>
      </trkpt>
      <trkpt lat="47.90768" lon="6.83556">
        <ele>797.5</ele>
        <time>2022-09-02T07:22:44Z</time>
      </trkpt>
      <trkpt lat="47.90769" lon="6.83558">
        <ele>797.4</ele>
        <time>2022-09-02T07:22:45Z</time>
      </trkpt>
      <trkpt lat="47.90769" lon="6.83559">
        <ele>797.5</ele>
        <time>2022-09-02T07:22:46Z</time>
      </trkpt>
      <trkpt lat="47.90769" lon="6.83561">
        <ele>797.7</ele>
        <time>2022-09-02T07:22:47Z</time>
      </trkpt>
      <trkpt lat="47.90769" lon="6.83562">
        <ele>797.7</ele>
        <time>2022-09-02T07:22:48Z</time>
      </trkpt>
      <trkpt lat="47.9077" lon="6.83563">
        <ele>797.6</ele>
        <time>2022-09-02T07:22:49Z</time>
      </trkpt>
      <trkpt lat="47.9077" lon="6.83564">
        <ele>797.7</ele>
        <time>2022-09-02T07:22:50Z</time>
      </trkpt>
      <trkpt lat="47.9077" lon="6.83566">
        <ele>797.8</ele>
        <time>2022-09-02T07:22:51Z</time>
      </trkpt>
      <trkpt lat="47.9077" lon="6.83567">
        <ele>797.9</ele>
        <time>2022-09-02T07:22:52Z</time>
      </trkpt>
      <trkpt lat="47.9077" lon="6.83569">
        <ele>798.1</ele>
        <time>2022-09-02T07:22:53Z</time>
      </trkpt>
      <trkpt lat="47.90771" lon="6.8357">
        <ele>797.9</ele>
        <time>2022-09-02T07:22:54Z</time>
      </trkpt>
      <trkpt lat="47.90771" lon="6.83572">
        <ele>798</ele>
        <time>2022-09-02T07:22:55Z</time>
      </trkpt>
      <trkpt lat="47.90771" lon="6.83574">
        <ele>798.2</ele>
        <time>2022-09-02T07:22:56Z</time>
      </trkpt>
      <trkpt lat="47.90771" lon="6.83575">
        <ele>798.3</ele>
        <time>2022-09-02T07:22:57Z</time>
      </trkpt>
      <trkpt lat="47.90771" lon="6.83577">
        <ele>798.4</ele>
        <time>2022-09-02T07:22:58Z</time>
      </trkpt>
      <trkpt lat="47.9077" lon="6.83579">
        <ele>798.9</ele>
        <time>2022-09-02T07:22:59Z</time>
      </trkpt>
      <trkpt lat="47.90769" lon="6.8358">
        <ele>799.3</ele>
        <time>2022-09-02T07:23:00Z</time>
      </trkpt>
      <trkpt lat="47.90769" lon="6.83581">
        <ele>799.3</ele>
        <time>2022-09-02T07:23:01Z</time>
      </trkpt>
      <trkpt lat="47.90769" lon="6.83583">
        <ele>799.5</ele>
        <time>2022-09-02T07:23:02Z</time>
      </trkpt>
      <trkpt lat="47.90769" lon="6.83584">
        <ele>799.6</ele>
        <time>2022-09-02T07:23:03Z</time>
      </trkpt>
      <trkpt lat="47.90769" lon="6.83585">
        <ele>799.7</ele>
        <time>2022-09-02T07:23:04Z</time>
      </trkpt>
      <trkpt lat="47.90769" lon="6.83586">
        <ele>799.8</ele>
        <time>2022-09-02T07:23:05Z</time>
      </trkpt>
      <trkpt lat="47.90769" lon="6.83587">
        <ele>799.9</ele>
        <time>2022-09-02T07:23:06Z</time>
      </trkpt>
      <trkpt lat="47.90769" lon="6.83588">
        <ele>800</ele>
        <time>2022-09-02T07:23:07Z</time>
      </trkpt>
      <trkpt lat="47.90769" lon="6.8359">
        <ele>800.2</ele>
        <time>2022-09-02T07:23:08Z</time>
      </trkpt>
      <trkpt lat="47.90769" lon="6.83591">
        <ele>800.4</ele>
        <time>2022-09-02T07:23:09Z</time>
      </trkpt>
      <trkpt lat="47.9077" lon="6.83592">
        <ele>800.2</ele>
        <time>2022-09-02T07:23:10Z</time>
      </trkpt>
      <trkpt lat="47.9077" lon="6.83593">
        <ele>800.3</ele>
        <time>2022-09-02T07:23:11Z</time>
      </trkpt>
      <trkpt lat="47.90771" lon="6.83594">
        <ele>800.1</ele>
        <time>2022-09-02T07:23:12Z</time>
      </trkpt>
      <trkpt lat="47.90771" lon="6.83596">
        <ele>800.3</ele>
        <time>2022-09-02T07:23:13Z</time>
      </trkpt>
      <trkpt lat="47.90771" lon="6.83597">
        <ele>800.4</ele>
        <time>2022-09-02T07:23:14Z</time>
      </trkpt>
      <trkpt lat="47.90771" lon="6.83598">
        <ele>800.5</ele>
        <time>2022-09-02T07:23:15Z</time>
      </trkpt>
      <trkpt lat="47.90771" lon="6.83599">
        <ele>800.6</ele>
        <time>2022-09-02T07:23:16Z</time>
      </trkpt>
      <trkpt lat="47.90771" lon="6.83601">
        <ele>800.9</ele>
        <time>2022-09-02T07:23:17Z</time>
      </trkpt>
      <trkpt lat="47.90771" lon="6.83602">
        <ele>801</ele>
        <time>2022-09-02T07:23:18Z</time>
      </trkpt>
      <trkpt lat="47.90772" lon="6.83603">
        <ele>800.8</ele>
        <time>2022-09-02T07:23:19Z</time>
      </trkpt>
      <trkpt lat="47.90772" lon="6.83605">
        <ele>801</ele>
        <time>2022-09-02T07:23:20Z</time>
      </trkpt>
      <trkpt lat="47.90772" lon="6.83606">
        <ele>801.1</ele>
        <time>2022-09-02T07:23:21Z</time>
      </trkpt>
      <trkpt lat="47.90772" lon="6.83607">
        <ele>801.2</ele>
        <time>2022-09-02T07:23:22Z</time>
      </trkpt>
      <trkpt lat="47.90773" lon="6.83608">
        <ele>801</ele>
        <time>2022-09-02T07:23:23Z</time>
      </trkpt>
      <trkpt lat="47.90773" lon="6.8361">
        <ele>801.3</ele>
        <time>2022-09-02T07:23:24Z</time>
      </trkpt>
      <trkpt lat="47.90773" lon="6.83611">
        <ele>801.4</ele>
        <time>2022-09-02T07:23:25Z</time>
      </trkpt>
      <trkpt lat="47.90774" lon="6.83612">
        <ele>801.2</ele>
        <time>2022-09-02T07:23:26Z</time>
      </trkpt>
      <trkpt lat="47.90774" lon="6.83614">
        <ele>801.3</ele>
        <time>2022-09-02T07:23:27Z</time>
      </trkpt>
      <trkpt lat="47.90774" lon="6.83615">
        <ele>801.4</ele>
        <time>2022-09-02T07:23:28Z</time>
      </trkpt>
      <trkpt lat="47.90774" lon="6.83617">
        <ele>801.5</ele>
        <time>2022-09-02T07:23:29Z</time>
      </trkpt>
      <trkpt lat="47.90774" lon="6.83618">
        <ele>801.6</ele>
        <time>2022-09-02T07:23:30Z</time>
      </trkpt>
      <trkpt lat="47.90775" lon="6.83619">
        <ele>801.4</ele>
        <time>2022-09-02T07:23:31Z</time>
      </trkpt>
      <trkpt lat="47.90775" lon="6.8362">
        <ele>801.5</ele>
        <time>2022-09-02T07:23:32Z</time>
      </trkpt>
      <trkpt lat="47.90775" lon="6.83621">
        <ele>801.5</ele>
        <time>2022-09-02T07:23:33Z</time>
      </trkpt>
      <trkpt lat="47.90775" lon="6.83622">
        <ele>801.6</ele>
        <time>2022-09-02T07:23:34Z</time>
      </trkpt>
      <trkpt lat="47.90776" lon="6.83624">
        <ele>801.5</ele>
        <time>2022-09-02T07:23:35Z</time>
      </trkpt>
      <trkpt lat="47.90776" lon="6.83625">
        <ele>801.5</ele>
        <time>2022-09-02T07:23:36Z</time>
      </trkpt>
      <trkpt lat="47.90777" lon="6.83626">
        <ele>801.3</ele>
        <time>2022-09-02T07:23:37Z</time>
      </trkpt>
      <trkpt lat="47.90777" lon="6.83627">
        <ele>801.4</ele>
        <time>2022-09-02T07:23:38Z</time>
      </trkpt>
      <trkpt lat="47.90778" lon="6.83629">
        <ele>801.3</ele>
        <time>2022-09-02T07:23:39Z</time>
      </trkpt>
      <trkpt lat="47.90779" lon="6.8363">
        <ele>801.4</ele>
        <time>2022-09-02T07:23:40Z</time>
      </trkpt>
      <trkpt lat="47.90779" lon="6.83631">
        <ele>801.5</ele>
        <time>2022-09-02T07:23:41Z</time>
      </trkpt>
      <trkpt lat="47.9078" lon="6.83632">
        <ele>801.6</ele>
        <time>2022-09-02T07:23:42Z</time>
      </trkpt>
      <trkpt lat="47.90781" lon="6.83632">
        <ele>801.6</ele>
        <time>2022-09-02T07:23:43Z</time>
      </trkpt>
      <trkpt lat="47.90781" lon="6.83633">
        <ele>801.7</ele>
        <time>2022-09-02T07:23:44Z</time>
      </trkpt>
      <trkpt lat="47.90782" lon="6.83634">
        <ele>801.8</ele>
        <time>2022-09-02T07:23:45Z</time>
      </trkpt>
      <trkpt lat="47.90783" lon="6.83635">
        <ele>801.9</ele>
        <time>2022-09-02T07:23:46Z</time>
      </trkpt>
      <trkpt lat="47.90784" lon="6.83636">
        <ele>802</ele>
        <time>2022-09-02T07:23:47Z</time>
      </trkpt>
      <trkpt lat="47.90784" lon="6.83637">
        <ele>802.1</ele>
        <time>2022-09-02T07:23:48Z</time>
      </trkpt>
      <trkpt lat="47.90785" lon="6.83638">
        <ele>802.2</ele>
        <time>2022-09-02T07:23:49Z</time>
      </trkpt>
      <trkpt lat="47.90786" lon="6.83639">
        <ele>802.3</ele>
        <time>2022-09-02T07:23:50Z</time>
      </trkpt>
      <trkpt lat="47.90787" lon="6.8364">
        <ele>802.4</ele>
        <time>2022-09-02T07:23:51Z</time>
      </trkpt>
      <trkpt lat="47.90788" lon="6.8364">
        <ele>802.4</ele>
        <time>2022-09-02T07:23:52Z</time>
      </trkpt>
      <trkpt lat="47.90789" lon="6.83641">
        <ele>802.5</ele>
        <time>2022-09-02T07:23:53Z</time>
      </trkpt>
      <trkpt lat="47.9079" lon="6.83642">
        <ele>802.6</ele>
        <time>2022-09-02T07:23:54Z</time>
      </trkpt>
      <trkpt lat="47.90791" lon="6.83642">
        <ele>802.7</ele>
        <time>2022-09-02T07:23:55Z</time>
      </trkpt>
      <trkpt lat="47.90791" lon="6.83643">
        <ele>802.7</ele>
        <time>2022-09-02T07:23:56Z</time>
      </trkpt>
      <trkpt lat="47.90792" lon="6.83643">
        <ele>802.7</ele>
        <time>2022-09-02T07:23:57Z</time>
      </trkpt>
      <trkpt lat="47.90792" lon="6.83644">
        <ele>802.8</ele>
        <time>2022-09-02T07:23:58Z</time>
      </trkpt>
      <trkpt lat="47.90793" lon="6.83645">
        <ele>802.8</ele>
        <time>2022-09-02T07:24:00Z</time>
      </trkpt>
      <trkpt lat="47.90794" lon="6.83646">
        <ele>802.9</ele>
        <time>2022-09-02T07:24:02Z</time>
      </trkpt>
      <trkpt lat="47.90795" lon="6.83646">
        <ele>802.9</ele>
        <time>2022-09-02T07:24:03Z</time>
      </trkpt>
      <trkpt lat="47.90795" lon="6.83645">
        <ele>802.9</ele>
        <time>2022-09-02T07:26:03Z</time>
      </trkpt>
      <trkpt lat="47.90795" lon="6.83644">
        <ele>802.8</ele>
        <time>2022-09-02T07:26:05Z</time>
      </trkpt>
      <trkpt lat="47.90796" lon="6.83644">
        <ele>802.8</ele>
        <time>2022-09-02T07:26:06Z</time>
      </trkpt>
      <trkpt lat="47.90797" lon="6.83643">
        <ele>802.8</ele>
        <time>2022-09-02T07:26:07Z</time>
      </trkpt>
      <trkpt lat="47.90798" lon="6.83643">
        <ele>802.8</ele>
        <time>2022-09-02T07:26:08Z</time>
      </trkpt>
      <trkpt lat="47.90799" lon="6.83643">
        <ele>802.9</ele>
        <time>2022-09-02T07:26:09Z</time>
      </trkpt>
      <trkpt lat="47.908" lon="6.83644">
        <ele>802.9</ele>
        <time>2022-09-02T07:26:10Z</time>
      </trkpt>
      <trkpt lat="47.90802" lon="6.83644">
        <ele>802.9</ele>
        <time>2022-09-02T07:26:11Z</time>
      </trkpt>
      <trkpt lat="47.90803" lon="6.83644">
        <ele>803</ele>
        <time>2022-09-02T07:26:12Z</time>
      </trkpt>
      <trkpt lat="47.90804" lon="6.83644">
        <ele>803</ele>
        <time>2022-09-02T07:26:13Z</time>
      </trkpt>
      <trkpt lat="47.90805" lon="6.83644">
        <ele>803</ele>
        <time>2022-09-02T07:26:14Z</time>
      </trkpt>
      <trkpt lat="47.90806" lon="6.83644">
        <ele>803.2</ele>
        <time>2022-09-02T07:26:15Z</time>
      </trkpt>
      <trkpt lat="47.90807" lon="6.83643">
        <ele>803.5</ele>
        <time>2022-09-02T07:26:16Z</time>
      </trkpt>
      <trkpt lat="47.90808" lon="6.83643">
        <ele>803.9</ele>
        <time>2022-09-02T07:26:37Z</time>
      </trkpt>
      <trkpt lat="47.90808" lon="6.83642">
        <ele>803.9</ele>
        <time>2022-09-02T07:26:38Z</time>
      </trkpt>
      <trkpt lat="47.90808" lon="6.83641">
        <ele>803.9</ele>
        <time>2022-09-02T07:26:40Z</time>
      </trkpt>
      <trkpt lat="47.90808" lon="6.8364">
        <ele>803.9</ele>
        <time>2022-09-02T07:26:42Z</time>
      </trkpt>
      <trkpt lat="47.90808" lon="6.83639">
        <ele>803.9</ele>
        <time>2022-09-02T07:26:43Z</time>
      </trkpt>
      <trkpt lat="47.90809" lon="6.83637">
        <ele>804.1</ele>
        <time>2022-09-02T07:26:44Z</time>
      </trkpt>
      <trkpt lat="47.90809" lon="6.83636">
        <ele>804.1</ele>
        <time>2022-09-02T07:26:45Z</time>
      </trkpt>
      <trkpt lat="47.90809" lon="6.83634">
        <ele>803.9</ele>
        <time>2022-09-02T07:26:46Z</time>
      </trkpt>
      <trkpt lat="47.9081" lon="6.83633">
        <ele>804.2</ele>
        <time>2022-09-02T07:26:47Z</time>
      </trkpt>
      <trkpt lat="47.9081" lon="6.83631">
        <ele>804.1</ele>
        <time>2022-09-02T07:26:48Z</time>
      </trkpt>
      <trkpt lat="47.9081" lon="6.8363">
        <ele>804.1</ele>
        <time>2022-09-02T07:26:49Z</time>
      </trkpt>
      <trkpt lat="47.9081" lon="6.83628">
        <ele>803.9</ele>
        <time>2022-09-02T07:26:50Z</time>
      </trkpt>
      <trkpt lat="47.9081" lon="6.83626">
        <ele>803.8</ele>
        <time>2022-09-02T07:26:51Z</time>
      </trkpt>
      <trkpt lat="47.90809" lon="6.83624">
        <ele>803.3</ele>
        <time>2022-09-02T07:26:52Z</time>
      </trkpt>
      <trkpt lat="47.90809" lon="6.83622">
        <ele>803.2</ele>
        <time>2022-09-02T07:26:53Z</time>
      </trkpt>
      <trkpt lat="47.90808" lon="6.8362">
        <ele>802.6</ele>
        <time>2022-09-02T07:26:54Z</time>
      </trkpt>
      <trkpt lat="47.90807" lon="6.83618">
        <ele>802.1</ele>
        <time>2022-09-02T07:26:55Z</time>
      </trkpt>
      <trkpt lat="47.90807" lon="6.83616">
        <ele>802</ele>
        <time>2022-09-02T07:26:56Z</time>
      </trkpt>
      <trkpt lat="47.90806" lon="6.83615">
        <ele>801.5</ele>
        <time>2022-09-02T07:26:57Z</time>
      </trkpt>
      <trkpt lat="47.90806" lon="6.83613">
        <ele>801.3</ele>
        <time>2022-09-02T07:26:58Z</time>
      </trkpt>
      <trkpt lat="47.90806" lon="6.83612">
        <ele>801.3</ele>
        <time>2022-09-02T07:26:59Z</time>
      </trkpt>
      <trkpt lat="47.90805" lon="6.83611">
        <ele>801</ele>
        <time>2022-09-02T07:27:00Z</time>
      </trkpt>
      <trkpt lat="47.90805" lon="6.83609">
        <ele>801</ele>
        <time>2022-09-02T07:27:01Z</time>
      </trkpt>
      <trkpt lat="47.90805" lon="6.83608">
        <ele>801</ele>
        <time>2022-09-02T07:27:02Z</time>
      </trkpt>
      <trkpt lat="47.90806" lon="6.83606">
        <ele>801.2</ele>
        <time>2022-09-02T07:27:03Z</time>
      </trkpt>
      <trkpt lat="47.90806" lon="6.83604">
        <ele>801.2</ele>
        <time>2022-09-02T07:27:04Z</time>
      </trkpt>
      <trkpt lat="47.90807" lon="6.83603">
        <ele>801.6</ele>
        <time>2022-09-02T07:27:05Z</time>
      </trkpt>
      <trkpt lat="47.90807" lon="6.83601">
        <ele>801.6</ele>
        <time>2022-09-02T07:27:06Z</time>
      </trkpt>
      <trkpt lat="47.90807" lon="6.836">
        <ele>801.6</ele>
        <time>2022-09-02T07:27:07Z</time>
      </trkpt>
      <trkpt lat="47.90807" lon="6.83598">
        <ele>801.6</ele>
        <time>2022-09-02T07:27:08Z</time>
      </trkpt>
      <trkpt lat="47.90807" lon="6.83596">
        <ele>801.6</ele>
        <time>2022-09-02T07:27:09Z</time>
      </trkpt>
      <trkpt lat="47.90808" lon="6.83593">
        <ele>802.1</ele>
        <time>2022-09-02T07:27:10Z</time>
      </trkpt>
      <trkpt lat="47.90808" lon="6.83591">
        <ele>802.1</ele>
        <time>2022-09-02T07:27:11Z</time>
      </trkpt>
      <trkpt lat="47.90809" lon="6.8359">
        <ele>802.5</ele>
        <time>2022-09-02T07:27:12Z</time>
      </trkpt>
      <trkpt lat="47.90809" lon="6.83588">
        <ele>802.5</ele>
        <time>2022-09-02T07:27:13Z</time>
      </trkpt>
      <trkpt lat="47.90809" lon="6.83586">
        <ele>802.5</ele>
        <time>2022-09-02T07:27:14Z</time>
      </trkpt>
      <trkpt lat="47.90809" lon="6.83585">
        <ele>802.5</ele>
        <time>2022-09-02T07:27:15Z</time>
      </trkpt>
      <trkpt lat="47.90809" lon="6.83584">
        <ele>802.5</ele>
        <time>2022-09-02T07:27:16Z</time>
      </trkpt>
      <trkpt lat="47.90809" lon="6.83583">
        <ele>802.5</ele>
        <time>2022-09-02T07:27:17Z</time>
      </trkpt>
      <trkpt lat="47.90808" lon="6.83581">
        <ele>802</ele>
        <time>2022-09-02T07:27:18Z</time>
      </trkpt>
      <trkpt lat="47.90808" lon="6.8358">
        <ele>801.9</ele>
        <time>2022-09-02T07:27:19Z</time>
      </trkpt>
      <trkpt lat="47.90808" lon="6.83579">
        <ele>801.9</ele>
        <time>2022-09-02T07:27:20Z</time>
      </trkpt>
      <trkpt lat="47.90808" lon="6.83577">
        <ele>801.8</ele>
        <time>2022-09-02T07:27:21Z</time>
      </trkpt>
      <trkpt lat="47.90808" lon="6.83576">
        <ele>801.8</ele>
        <time>2022-09-02T07:27:22Z</time>
      </trkpt>
      <trkpt lat="47.90808" lon="6.83575">
        <ele>801.8</ele>
        <time>2022-09-02T07:27:23Z</time>
      </trkpt>
      <trkpt lat="47.90808" lon="6.83573">
        <ele>801.7</ele>
        <time>2022-09-02T07:27:24Z</time>
      </trkpt>
      <trkpt lat="47.90808" lon="6.83572">
        <ele>801.6</ele>
        <time>2022-09-02T07:27:25Z</time>
      </trkpt>
      <trkpt lat="47.90808" lon="6.8357">
        <ele>801.6</ele>
        <time>2022-09-02T07:27:26Z</time>
      </trkpt>
      <trkpt lat="47.90808" lon="6.83569">
        <ele>801.5</ele>
        <time>2022-09-02T07:27:27Z</time>
      </trkpt>
      <trkpt lat="47.90809" lon="6.83567">
        <ele>801.9</ele>
        <time>2022-09-02T07:27:28Z</time>
      </trkpt>
      <trkpt lat="47.90809" lon="6.83566">
        <ele>801.9</ele>
        <time>2022-09-02T07:27:29Z</time>
      </trkpt>
      <trkpt lat="47.9081" lon="6.83565">
        <ele>802.3</ele>
        <time>2022-09-02T07:27:30Z</time>
      </trkpt>
      <trkpt lat="47.90811" lon="6.83563">
        <ele>802.6</ele>
        <time>2022-09-02T07:27:31Z</time>
      </trkpt>
      <trkpt lat="47.90812" lon="6.83562">
        <ele>803</ele>
        <time>2022-09-02T07:27:32Z</time>
      </trkpt>
      <trkpt lat="47.90812" lon="6.83561">
        <ele>803</ele>
        <time>2022-09-02T07:27:33Z</time>
      </trkpt>
      <trkpt lat="47.90813" lon="6.8356">
        <ele>803.4</ele>
        <time>2022-09-02T07:27:34Z</time>
      </trkpt>
      <trkpt lat="47.90814" lon="6.83559">
        <ele>803.8</ele>
        <time>2022-09-02T07:27:35Z</time>
      </trkpt>
      <trkpt lat="47.90815" lon="6.83558">
        <ele>804.2</ele>
        <time>2022-09-02T07:27:37Z</time>
      </trkpt>
      <trkpt lat="47.90815" lon="6.83557">
        <ele>804.1</ele>
        <time>2022-09-02T07:27:38Z</time>
      </trkpt>
      <trkpt lat="47.90815" lon="6.83555">
        <ele>804.1</ele>
        <time>2022-09-02T07:27:39Z</time>
      </trkpt>
      <trkpt lat="47.90815" lon="6.83554">
        <ele>804</ele>
        <time>2022-09-02T07:27:40Z</time>
      </trkpt>
      <trkpt lat="47.90815" lon="6.83553">
        <ele>804</ele>
        <time>2022-09-02T07:27:41Z</time>
      </trkpt>
      <trkpt lat="47.90815" lon="6.83551">
        <ele>804</ele>
        <time>2022-09-02T07:27:42Z</time>
      </trkpt>
      <trkpt lat="47.90815" lon="6.8355">
        <ele>803.9</ele>
        <time>2022-09-02T07:27:43Z</time>
      </trkpt>
      <trkpt lat="47.90815" lon="6.83549">
        <ele>803.9</ele>
        <time>2022-09-02T07:27:44Z</time>
      </trkpt>
      <trkpt lat="47.90815" lon="6.83547">
        <ele>803.9</ele>
        <time>2022-09-02T07:27:45Z</time>
      </trkpt>
      <trkpt lat="47.90815" lon="6.83546">
        <ele>803.9</ele>
        <time>2022-09-02T07:27:46Z</time>
      </trkpt>
      <trkpt lat="47.90815" lon="6.83544">
        <ele>803.8</ele>
        <time>2022-09-02T07:27:47Z</time>
      </trkpt>
      <trkpt lat="47.90815" lon="6.83542">
        <ele>803.8</ele>
        <time>2022-09-02T07:27:48Z</time>
      </trkpt>
      <trkpt lat="47.90815" lon="6.83541">
        <ele>803.7</ele>
        <time>2022-09-02T07:27:49Z</time>
      </trkpt>
      <trkpt lat="47.90815" lon="6.8354">
        <ele>803.7</ele>
        <time>2022-09-02T07:27:50Z</time>
      </trkpt>
      <trkpt lat="47.90815" lon="6.83539">
        <ele>803.7</ele>
        <time>2022-09-02T07:27:51Z</time>
      </trkpt>
      <trkpt lat="47.90815" lon="6.83538">
        <ele>803.7</ele>
        <time>2022-09-02T07:27:52Z</time>
      </trkpt>
      <trkpt lat="47.90815" lon="6.83537">
        <ele>803.6</ele>
        <time>2022-09-02T07:27:53Z</time>
      </trkpt>
      <trkpt lat="47.90815" lon="6.83535">
        <ele>803.6</ele>
        <time>2022-09-02T07:27:54Z</time>
      </trkpt>
      <trkpt lat="47.90815" lon="6.83533">
        <ele>803.5</ele>
        <time>2022-09-02T07:27:55Z</time>
      </trkpt>
      <trkpt lat="47.90816" lon="6.83532">
        <ele>804</ele>
        <time>2022-09-02T07:27:56Z</time>
      </trkpt>
      <trkpt lat="47.90816" lon="6.83531">
        <ele>804</ele>
        <time>2022-09-02T07:27:57Z</time>
      </trkpt>
      <trkpt lat="47.90817" lon="6.83529">
        <ele>804.4</ele>
        <time>2022-09-02T07:27:58Z</time>
      </trkpt>
      <trkpt lat="47.90817" lon="6.83528">
        <ele>804.4</ele>
        <time>2022-09-02T07:27:59Z</time>
      </trkpt>
      <trkpt lat="47.90817" lon="6.83527">
        <ele>804.3</ele>
        <time>2022-09-02T07:28:00Z</time>
      </trkpt>
      <trkpt lat="47.90818" lon="6.83525">
        <ele>804.7</ele>
        <time>2022-09-02T07:28:01Z</time>
      </trkpt>
      <trkpt lat="47.90818" lon="6.83524">
        <ele>804.7</ele>
        <time>2022-09-02T07:28:02Z</time>
      </trkpt>
      <trkpt lat="47.90818" lon="6.83522">
        <ele>804.6</ele>
        <time>2022-09-02T07:28:03Z</time>
      </trkpt>
      <trkpt lat="47.90818" lon="6.83521">
        <ele>804.6</ele>
        <time>2022-09-02T07:28:04Z</time>
      </trkpt>
      <trkpt lat="47.90818" lon="6.83519">
        <ele>804.5</ele>
        <time>2022-09-02T07:28:05Z</time>
      </trkpt>
      <trkpt lat="47.90818" lon="6.83518">
        <ele>804.4</ele>
        <time>2022-09-02T07:28:06Z</time>
      </trkpt>
      <trkpt lat="47.90818" lon="6.83517">
        <ele>804.4</ele>
        <time>2022-09-02T07:28:07Z</time>
      </trkpt>
      <trkpt lat="47.90819" lon="6.83515">
        <ele>804.8</ele>
        <time>2022-09-02T07:28:08Z</time>
      </trkpt>
      <trkpt lat="47.90819" lon="6.83514">
        <ele>804.8</ele>
        <time>2022-09-02T07:28:09Z</time>
      </trkpt>
      <trkpt lat="47.90819" lon="6.83513">
        <ele>804.7</ele>
        <time>2022-09-02T07:28:10Z</time>
      </trkpt>
      <trkpt lat="47.90819" lon="6.83511">
        <ele>804.7</ele>
        <time>2022-09-02T07:28:11Z</time>
      </trkpt>
      <trkpt lat="47.90819" lon="6.8351">
        <ele>804.6</ele>
        <time>2022-09-02T07:28:12Z</time>
      </trkpt>
      <trkpt lat="47.9082" lon="6.83509">
        <ele>805.1</ele>
        <time>2022-09-02T07:28:13Z</time>
      </trkpt>
      <trkpt lat="47.9082" lon="6.83507">
        <ele>805</ele>
        <time>2022-09-02T07:28:14Z</time>
      </trkpt>
      <trkpt lat="47.9082" lon="6.83506">
        <ele>805</ele>
        <time>2022-09-02T07:28:15Z</time>
      </trkpt>
      <trkpt lat="47.9082" lon="6.83505">
        <ele>805</ele>
        <time>2022-09-02T07:28:16Z</time>
      </trkpt>
      <trkpt lat="47.9082" lon="6.83503">
        <ele>804.9</ele>
        <time>2022-09-02T07:28:17Z</time>
      </trkpt>
      <trkpt lat="47.9082" lon="6.83502">
        <ele>804.9</ele>
        <time>2022-09-02T07:28:18Z</time>
      </trkpt>
      <trkpt lat="47.9082" lon="6.83501">
        <ele>804.8</ele>
        <time>2022-09-02T07:28:19Z</time>
      </trkpt>
      <trkpt lat="47.9082" lon="6.835">
        <ele>804.8</ele>
        <time>2022-09-02T07:28:20Z</time>
      </trkpt>
      <trkpt lat="47.9082" lon="6.83498">
        <ele>804.8</ele>
        <time>2022-09-02T07:28:21Z</time>
      </trkpt>
      <trkpt lat="47.9082" lon="6.83497">
        <ele>804.7</ele>
        <time>2022-09-02T07:28:22Z</time>
      </trkpt>
      <trkpt lat="47.9082" lon="6.83496">
        <ele>804.7</ele>
        <time>2022-09-02T07:28:23Z</time>
      </trkpt>
      <trkpt lat="47.9082" lon="6.83494">
        <ele>804.7</ele>
        <time>2022-09-02T07:28:24Z</time>
      </trkpt>
      <trkpt lat="47.90819" lon="6.83493">
        <ele>804.1</ele>
        <time>2022-09-02T07:28:25Z</time>
      </trkpt>
      <trkpt lat="47.90819" lon="6.83492">
        <ele>804.1</ele>
        <time>2022-09-02T07:28:26Z</time>
      </trkpt>
      <trkpt lat="47.90819" lon="6.83491">
        <ele>804.1</ele>
        <time>2022-09-02T07:28:27Z</time>
      </trkpt>
      <trkpt lat="47.90819" lon="6.8349">
        <ele>804.1</ele>
        <time>2022-09-02T07:28:28Z</time>
      </trkpt>
      <trkpt lat="47.90819" lon="6.83489">
        <ele>804.1</ele>
        <time>2022-09-02T07:28:29Z</time>
      </trkpt>
      <trkpt lat="47.90819" lon="6.83488">
        <ele>804.1</ele>
        <time>2022-09-02T07:28:30Z</time>
      </trkpt>
      <trkpt lat="47.90819" lon="6.83487">
        <ele>804</ele>
        <time>2022-09-02T07:28:32Z</time>
      </trkpt>
      <trkpt lat="47.90819" lon="6.83486">
        <ele>804</ele>
        <time>2022-09-02T07:28:33Z</time>
      </trkpt>
      <trkpt lat="47.90819" lon="6.83485">
        <ele>804</ele>
        <time>2022-09-02T07:28:34Z</time>
      </trkpt>
      <trkpt lat="47.90819" lon="6.83484">
        <ele>804</ele>
        <time>2022-09-02T07:28:35Z</time>
      </trkpt>
      <trkpt lat="47.90819" lon="6.83482">
        <ele>803.9</ele>
        <time>2022-09-02T07:28:36Z</time>
      </trkpt>
      <trkpt lat="47.90819" lon="6.83481">
        <ele>803.9</ele>
        <time>2022-09-02T07:28:37Z</time>
      </trkpt>
      <trkpt lat="47.9082" lon="6.8348">
        <ele>804.4</ele>
        <time>2022-09-02T07:28:38Z</time>
      </trkpt>
      <trkpt lat="47.9082" lon="6.83478">
        <ele>804.4</ele>
        <time>2022-09-02T07:28:39Z</time>
      </trkpt>
      <trkpt lat="47.90821" lon="6.83477">
        <ele>804.9</ele>
        <time>2022-09-02T07:28:40Z</time>
      </trkpt>
      <trkpt lat="47.90821" lon="6.83475">
        <ele>804.8</ele>
        <time>2022-09-02T07:28:41Z</time>
      </trkpt>
      <trkpt lat="47.90822" lon="6.83474">
        <ele>805.3</ele>
        <time>2022-09-02T07:28:42Z</time>
      </trkpt>
      <trkpt lat="47.90822" lon="6.83472">
        <ele>805.3</ele>
        <time>2022-09-02T07:28:43Z</time>
      </trkpt>
      <trkpt lat="47.90822" lon="6.83471">
        <ele>805.2</ele>
        <time>2022-09-02T07:28:44Z</time>
      </trkpt>
      <trkpt lat="47.90823" lon="6.83469">
        <ele>805.7</ele>
        <time>2022-09-02T07:28:45Z</time>
      </trkpt>
      <trkpt lat="47.90823" lon="6.83468">
        <ele>805.6</ele>
        <time>2022-09-02T07:28:46Z</time>
      </trkpt>
      <trkpt lat="47.90823" lon="6.83466">
        <ele>805.6</ele>
        <time>2022-09-02T07:28:47Z</time>
      </trkpt>
      <trkpt lat="47.90823" lon="6.83465">
        <ele>805.5</ele>
        <time>2022-09-02T07:28:48Z</time>
      </trkpt>
      <trkpt lat="47.90823" lon="6.83464">
        <ele>805.5</ele>
        <time>2022-09-02T07:28:49Z</time>
      </trkpt>
      <trkpt lat="47.90823" lon="6.83463">
        <ele>805.5</ele>
        <time>2022-09-02T07:28:50Z</time>
      </trkpt>
      <trkpt lat="47.90823" lon="6.83461">
        <ele>805.4</ele>
        <time>2022-09-02T07:28:51Z</time>
      </trkpt>
      <trkpt lat="47.90824" lon="6.8346">
        <ele>805.9</ele>
        <time>2022-09-02T07:28:52Z</time>
      </trkpt>
      <trkpt lat="47.90825" lon="6.83456">
        <ele>806.2</ele>
        <time>2022-09-02T07:28:58Z</time>
      </trkpt>
      <trkpt lat="47.90825" lon="6.83455">
        <ele>806.2</ele>
        <time>2022-09-02T07:28:59Z</time>
      </trkpt>
      <trkpt lat="47.90826" lon="6.83453">
        <ele>806.6</ele>
        <time>2022-09-02T07:29:00Z</time>
      </trkpt>
      <trkpt lat="47.90826" lon="6.83452">
        <ele>806.6</ele>
        <time>2022-09-02T07:29:01Z</time>
      </trkpt>
      <trkpt lat="47.90827" lon="6.83451">
        <ele>807</ele>
        <time>2022-09-02T07:29:02Z</time>
      </trkpt>
      <trkpt lat="47.90827" lon="6.83449">
        <ele>807</ele>
        <time>2022-09-02T07:29:03Z</time>
      </trkpt>
      <trkpt lat="47.90827" lon="6.83448">
        <ele>806.9</ele>
        <time>2022-09-02T07:29:04Z</time>
      </trkpt>
      <trkpt lat="47.90827" lon="6.83447">
        <ele>806.9</ele>
        <time>2022-09-02T07:29:05Z</time>
      </trkpt>
      <trkpt lat="47.90828" lon="6.83445">
        <ele>807.3</ele>
        <time>2022-09-02T07:29:06Z</time>
      </trkpt>
      <trkpt lat="47.90828" lon="6.83444">
        <ele>807.3</ele>
        <time>2022-09-02T07:29:07Z</time>
      </trkpt>
      <trkpt lat="47.90828" lon="6.83442">
        <ele>807.2</ele>
        <time>2022-09-02T07:29:08Z</time>
      </trkpt>
      <trkpt lat="47.90828" lon="6.83441">
        <ele>807.2</ele>
        <time>2022-09-02T07:29:09Z</time>
      </trkpt>
      <trkpt lat="47.90828" lon="6.8344">
        <ele>807.1</ele>
        <time>2022-09-02T07:29:10Z</time>
      </trkpt>
      <trkpt lat="47.90828" lon="6.83438">
        <ele>807</ele>
        <time>2022-09-02T07:29:11Z</time>
      </trkpt>
      <trkpt lat="47.90829" lon="6.83437">
        <ele>807.5</ele>
        <time>2022-09-02T07:29:12Z</time>
      </trkpt>
      <trkpt lat="47.90829" lon="6.83436">
        <ele>807.5</ele>
        <time>2022-09-02T07:29:13Z</time>
      </trkpt>
      <trkpt lat="47.90829" lon="6.83435">
        <ele>807.4</ele>
        <time>2022-09-02T07:29:14Z</time>
      </trkpt>
      <trkpt lat="47.90829" lon="6.83433">
        <ele>807.3</ele>
        <time>2022-09-02T07:29:15Z</time>
      </trkpt>
      <trkpt lat="47.90829" lon="6.83432">
        <ele>807.3</ele>
        <time>2022-09-02T07:29:16Z</time>
      </trkpt>
      <trkpt lat="47.90829" lon="6.83431">
        <ele>807.3</ele>
        <time>2022-09-02T07:29:17Z</time>
      </trkpt>
      <trkpt lat="47.90829" lon="6.83429">
        <ele>807.2</ele>
        <time>2022-09-02T07:29:18Z</time>
      </trkpt>
      <trkpt lat="47.9083" lon="6.83427">
        <ele>807.6</ele>
        <time>2022-09-02T07:29:19Z</time>
      </trkpt>
      <trkpt lat="47.9083" lon="6.83426">
        <ele>807.6</ele>
        <time>2022-09-02T07:29:20Z</time>
      </trkpt>
      <trkpt lat="47.9083" lon="6.83424">
        <ele>807.5</ele>
        <time>2022-09-02T07:29:21Z</time>
      </trkpt>
      <trkpt lat="47.90831" lon="6.83423">
        <ele>808</ele>
        <time>2022-09-02T07:29:22Z</time>
      </trkpt>
      <trkpt lat="47.90831" lon="6.83421">
        <ele>807.9</ele>
        <time>2022-09-02T07:29:23Z</time>
      </trkpt>
      <trkpt lat="47.90831" lon="6.8342">
        <ele>807.9</ele>
        <time>2022-09-02T07:29:24Z</time>
      </trkpt>
      <trkpt lat="47.90832" lon="6.83419">
        <ele>808.4</ele>
        <time>2022-09-02T07:29:25Z</time>
      </trkpt>
      <trkpt lat="47.90832" lon="6.83418">
        <ele>808.3</ele>
        <time>2022-09-02T07:29:26Z</time>
      </trkpt>
      <trkpt lat="47.90832" lon="6.83417">
        <ele>808.3</ele>
        <time>2022-09-02T07:29:27Z</time>
      </trkpt>
      <trkpt lat="47.90832" lon="6.83415">
        <ele>808.2</ele>
        <time>2022-09-02T07:29:28Z</time>
      </trkpt>
      <trkpt lat="47.90833" lon="6.83414">
        <ele>808.7</ele>
        <time>2022-09-02T07:29:29Z</time>
      </trkpt>
      <trkpt lat="47.90833" lon="6.83412">
        <ele>808.7</ele>
        <time>2022-09-02T07:29:30Z</time>
      </trkpt>
      <trkpt lat="47.90833" lon="6.83411">
        <ele>808.6</ele>
        <time>2022-09-02T07:29:31Z</time>
      </trkpt>
      <trkpt lat="47.90833" lon="6.83409">
        <ele>808.5</ele>
        <time>2022-09-02T07:29:32Z</time>
      </trkpt>
      <trkpt lat="47.90833" lon="6.83408">
        <ele>808.5</ele>
        <time>2022-09-02T07:29:33Z</time>
      </trkpt>
      <trkpt lat="47.90833" lon="6.83406">
        <ele>808.4</ele>
        <time>2022-09-02T07:29:34Z</time>
      </trkpt>
      <trkpt lat="47.90834" lon="6.83405">
        <ele>808.9</ele>
        <time>2022-09-02T07:29:35Z</time>
      </trkpt>
      <trkpt lat="47.90834" lon="6.83404">
        <ele>808.9</ele>
        <time>2022-09-02T07:29:36Z</time>
      </trkpt>
      <trkpt lat="47.90834" lon="6.83402">
        <ele>808.8</ele>
        <time>2022-09-02T07:29:37Z</time>
      </trkpt>
      <trkpt lat="47.90834" lon="6.83401">
        <ele>808.8</ele>
        <time>2022-09-02T07:29:38Z</time>
      </trkpt>
      <trkpt lat="47.90834" lon="6.834">
        <ele>808.8</ele>
        <time>2022-09-02T07:29:39Z</time>
      </trkpt>
      <trkpt lat="47.90834" lon="6.83399">
        <ele>808.7</ele>
        <time>2022-09-02T07:29:40Z</time>
      </trkpt>
      <trkpt lat="47.90835" lon="6.83397">
        <ele>809.2</ele>
        <time>2022-09-02T07:29:41Z</time>
      </trkpt>
      <trkpt lat="47.90835" lon="6.83396">
        <ele>809.1</ele>
        <time>2022-09-02T07:29:42Z</time>
      </trkpt>
      <trkpt lat="47.90835" lon="6.83395">
        <ele>809.1</ele>
        <time>2022-09-02T07:29:43Z</time>
      </trkpt>
      <trkpt lat="47.90836" lon="6.83393">
        <ele>809.6</ele>
        <time>2022-09-02T07:29:44Z</time>
      </trkpt>
      <trkpt lat="47.90836" lon="6.83392">
        <ele>809.5</ele>
        <time>2022-09-02T07:29:45Z</time>
      </trkpt>
      <trkpt lat="47.90836" lon="6.8339">
        <ele>809.5</ele>
        <time>2022-09-02T07:29:46Z</time>
      </trkpt>
      <trkpt lat="47.90837" lon="6.83389">
        <ele>810</ele>
        <time>2022-09-02T07:29:47Z</time>
      </trkpt>
      <trkpt lat="47.90837" lon="6.83387">
        <ele>810</ele>
        <time>2022-09-02T07:29:49Z</time>
      </trkpt>
      <trkpt lat="47.90837" lon="6.83386">
        <ele>810</ele>
        <time>2022-09-02T07:29:50Z</time>
      </trkpt>
      <trkpt lat="47.90837" lon="6.83384">
        <ele>810</ele>
        <time>2022-09-02T07:29:51Z</time>
      </trkpt>
      <trkpt lat="47.90837" lon="6.83383">
        <ele>810</ele>
        <time>2022-09-02T07:29:52Z</time>
      </trkpt>
      <trkpt lat="47.90837" lon="6.83381">
        <ele>810</ele>
        <time>2022-09-02T07:29:53Z</time>
      </trkpt>
      <trkpt lat="47.90837" lon="6.8338">
        <ele>810</ele>
        <time>2022-09-02T07:29:54Z</time>
      </trkpt>
      <trkpt lat="47.90838" lon="6.83379">
        <ele>810.5</ele>
        <time>2022-09-02T07:29:55Z</time>
      </trkpt>
      <trkpt lat="47.90839" lon="6.83378">
        <ele>811.1</ele>
        <time>2022-09-02T07:29:56Z</time>
      </trkpt>
      <trkpt lat="47.90839" lon="6.83376">
        <ele>811.1</ele>
        <time>2022-09-02T07:29:57Z</time>
      </trkpt>
      <trkpt lat="47.90839" lon="6.83375">
        <ele>811.1</ele>
        <time>2022-09-02T07:29:58Z</time>
      </trkpt>
      <trkpt lat="47.9084" lon="6.83373">
        <ele>811.6</ele>
        <time>2022-09-02T07:29:59Z</time>
      </trkpt>
      <trkpt lat="47.9084" lon="6.83372">
        <ele>811.6</ele>
        <time>2022-09-02T07:30:00Z</time>
      </trkpt>
      <trkpt lat="47.9084" lon="6.8337">
        <ele>811.6</ele>
        <time>2022-09-02T07:30:01Z</time>
      </trkpt>
      <trkpt lat="47.9084" lon="6.83369">
        <ele>811.6</ele>
        <time>2022-09-02T07:30:02Z</time>
      </trkpt>
      <trkpt lat="47.9084" lon="6.83368">
        <ele>811.6</ele>
        <time>2022-09-02T07:30:03Z</time>
      </trkpt>
      <trkpt lat="47.9084" lon="6.83366">
        <ele>811.6</ele>
        <time>2022-09-02T07:30:04Z</time>
      </trkpt>
      <trkpt lat="47.9084" lon="6.83365">
        <ele>811.6</ele>
        <time>2022-09-02T07:30:05Z</time>
      </trkpt>
      <trkpt lat="47.9084" lon="6.83364">
        <ele>811.6</ele>
        <time>2022-09-02T07:30:06Z</time>
      </trkpt>
      <trkpt lat="47.9084" lon="6.83363">
        <ele>811.6</ele>
        <time>2022-09-02T07:30:07Z</time>
      </trkpt>
      <trkpt lat="47.90841" lon="6.83362">
        <ele>812.1</ele>
        <time>2022-09-02T07:30:08Z</time>
      </trkpt>
      <trkpt lat="47.90841" lon="6.8336">
        <ele>812.1</ele>
        <time>2022-09-02T07:30:09Z</time>
      </trkpt>
      <trkpt lat="47.90841" lon="6.83359">
        <ele>812</ele>
        <time>2022-09-02T07:30:10Z</time>
      </trkpt>
      <trkpt lat="47.90841" lon="6.83358">
        <ele>811.9</ele>
        <time>2022-09-02T07:30:11Z</time>
      </trkpt>
      <trkpt lat="47.90841" lon="6.83356">
        <ele>811.8</ele>
        <time>2022-09-02T07:30:12Z</time>
      </trkpt>
      <trkpt lat="47.90841" lon="6.83355">
        <ele>811.8</ele>
        <time>2022-09-02T07:30:13Z</time>
      </trkpt>
      <trkpt lat="47.90841" lon="6.83354">
        <ele>811.7</ele>
        <time>2022-09-02T07:30:14Z</time>
      </trkpt>
      <trkpt lat="47.90841" lon="6.83352">
        <ele>811.6</ele>
        <time>2022-09-02T07:30:15Z</time>
      </trkpt>
      <trkpt lat="47.90841" lon="6.8335">
        <ele>811.5</ele>
        <time>2022-09-02T07:30:16Z</time>
      </trkpt>
      <trkpt lat="47.90841" lon="6.83349">
        <ele>811.4</ele>
        <time>2022-09-02T07:30:17Z</time>
      </trkpt>
      <trkpt lat="47.90841" lon="6.83347">
        <ele>811.3</ele>
        <time>2022-09-02T07:30:18Z</time>
      </trkpt>
      <trkpt lat="47.90841" lon="6.83345">
        <ele>811.1</ele>
        <time>2022-09-02T07:30:19Z</time>
      </trkpt>
      <trkpt lat="47.90841" lon="6.83344">
        <ele>811.1</ele>
        <time>2022-09-02T07:30:20Z</time>
      </trkpt>
      <trkpt lat="47.90842" lon="6.83342">
        <ele>811.5</ele>
        <time>2022-09-02T07:30:21Z</time>
      </trkpt>
      <trkpt lat="47.90842" lon="6.83341">
        <ele>811.5</ele>
        <time>2022-09-02T07:30:22Z</time>
      </trkpt>
      <trkpt lat="47.90842" lon="6.83339">
        <ele>811.3</ele>
        <time>2022-09-02T07:30:23Z</time>
      </trkpt>
      <trkpt lat="47.90843" lon="6.83338">
        <ele>811.8</ele>
        <time>2022-09-02T07:30:24Z</time>
      </trkpt>
      <trkpt lat="47.90843" lon="6.83337">
        <ele>811.8</ele>
        <time>2022-09-02T07:30:25Z</time>
      </trkpt>
      <trkpt lat="47.90843" lon="6.83336">
        <ele>811.7</ele>
        <time>2022-09-02T07:30:26Z</time>
      </trkpt>
      <trkpt lat="47.90843" lon="6.83334">
        <ele>811.6</ele>
        <time>2022-09-02T07:30:27Z</time>
      </trkpt>
      <trkpt lat="47.90843" lon="6.83333">
        <ele>811.5</ele>
        <time>2022-09-02T07:30:28Z</time>
      </trkpt>
      <trkpt lat="47.90843" lon="6.83332">
        <ele>811.5</ele>
        <time>2022-09-02T07:30:29Z</time>
      </trkpt>
      <trkpt lat="47.90844" lon="6.8333">
        <ele>811.9</ele>
        <time>2022-09-02T07:30:30Z</time>
      </trkpt>
      <trkpt lat="47.90844" lon="6.83329">
        <ele>811.8</ele>
        <time>2022-09-02T07:30:32Z</time>
      </trkpt>
      <trkpt lat="47.90845" lon="6.83328">
        <ele>812.3</ele>
        <time>2022-09-02T07:30:33Z</time>
      </trkpt>
      <trkpt lat="47.90845" lon="6.83326">
        <ele>812.1</ele>
        <time>2022-09-02T07:30:34Z</time>
      </trkpt>
      <trkpt lat="47.90846" lon="6.83324">
        <ele>812.5</ele>
        <time>2022-09-02T07:30:40Z</time>
      </trkpt>
      <trkpt lat="47.90847" lon="6.83323">
        <ele>812.9</ele>
        <time>2022-09-02T07:30:41Z</time>
      </trkpt>
      <trkpt lat="47.90847" lon="6.83322">
        <ele>812.9</ele>
        <time>2022-09-02T07:30:42Z</time>
      </trkpt>
      <trkpt lat="47.90848" lon="6.83321">
        <ele>813.3</ele>
        <time>2022-09-02T07:30:43Z</time>
      </trkpt>
      <trkpt lat="47.90849" lon="6.8332">
        <ele>813.8</ele>
        <time>2022-09-02T07:30:44Z</time>
      </trkpt>
      <trkpt lat="47.90849" lon="6.83318">
        <ele>813.6</ele>
        <time>2022-09-02T07:30:45Z</time>
      </trkpt>
      <trkpt lat="47.9085" lon="6.83317">
        <ele>814.1</ele>
        <time>2022-09-02T07:30:46Z</time>
      </trkpt>
      <trkpt lat="47.90851" lon="6.83316">
        <ele>814.5</ele>
        <time>2022-09-02T07:30:47Z</time>
      </trkpt>
      <trkpt lat="47.90851" lon="6.83315">
        <ele>814.4</ele>
        <time>2022-09-02T07:30:48Z</time>
      </trkpt>
      <trkpt lat="47.90852" lon="6.83314">
        <ele>814.9</ele>
        <time>2022-09-02T07:30:49Z</time>
      </trkpt>
      <trkpt lat="47.90852" lon="6.83313">
        <ele>814.8</ele>
        <time>2022-09-02T07:30:50Z</time>
      </trkpt>
      <trkpt lat="47.90853" lon="6.83312">
        <ele>815.2</ele>
        <time>2022-09-02T07:30:51Z</time>
      </trkpt>
      <trkpt lat="47.90853" lon="6.83311">
        <ele>815.2</ele>
        <time>2022-09-02T07:30:52Z</time>
      </trkpt>
      <trkpt lat="47.90853" lon="6.8331">
        <ele>815.1</ele>
        <time>2022-09-02T07:30:53Z</time>
      </trkpt>
      <trkpt lat="47.90853" lon="6.83309">
        <ele>815</ele>
        <time>2022-09-02T07:30:54Z</time>
      </trkpt>
      <trkpt lat="47.90854" lon="6.83308">
        <ele>815.4</ele>
        <time>2022-09-02T07:30:55Z</time>
      </trkpt>
      <trkpt lat="47.90854" lon="6.83306">
        <ele>815.2</ele>
        <time>2022-09-02T07:30:56Z</time>
      </trkpt>
      <trkpt lat="47.90855" lon="6.83305">
        <ele>815.6</ele>
        <time>2022-09-02T07:30:57Z</time>
      </trkpt>
      <trkpt lat="47.90855" lon="6.83304">
        <ele>815.5</ele>
        <time>2022-09-02T07:30:58Z</time>
      </trkpt>
      <trkpt lat="47.90856" lon="6.83302">
        <ele>815.8</ele>
        <time>2022-09-02T07:30:59Z</time>
      </trkpt>
      <trkpt lat="47.90857" lon="6.83301">
        <ele>816.1</ele>
        <time>2022-09-02T07:31:00Z</time>
      </trkpt>
      <trkpt lat="47.90857" lon="6.83299">
        <ele>815.9</ele>
        <time>2022-09-02T07:31:01Z</time>
      </trkpt>
      <trkpt lat="47.90857" lon="6.83298">
        <ele>815.7</ele>
        <time>2022-09-02T07:31:02Z</time>
      </trkpt>
      <trkpt lat="47.90858" lon="6.83296">
        <ele>816</ele>
        <time>2022-09-02T07:31:03Z</time>
      </trkpt>
      <trkpt lat="47.90858" lon="6.83295">
        <ele>815.8</ele>
        <time>2022-09-02T07:31:04Z</time>
      </trkpt>
      <trkpt lat="47.90859" lon="6.83293">
        <ele>816.1</ele>
        <time>2022-09-02T07:31:05Z</time>
      </trkpt>
      <trkpt lat="47.90859" lon="6.83292">
        <ele>815.9</ele>
        <time>2022-09-02T07:31:06Z</time>
      </trkpt>
      <trkpt lat="47.9086" lon="6.83291">
        <ele>816.3</ele>
        <time>2022-09-02T07:31:07Z</time>
      </trkpt>
      <trkpt lat="47.90861" lon="6.83289">
        <ele>816.6</ele>
        <time>2022-09-02T07:31:08Z</time>
      </trkpt>
      <trkpt lat="47.90861" lon="6.83288">
        <ele>816.4</ele>
        <time>2022-09-02T07:31:09Z</time>
      </trkpt>
      <trkpt lat="47.90862" lon="6.83287">
        <ele>816.7</ele>
        <time>2022-09-02T07:31:10Z</time>
      </trkpt>
      <trkpt lat="47.90862" lon="6.83286">
        <ele>816.6</ele>
        <time>2022-09-02T07:31:11Z</time>
      </trkpt>
      <trkpt lat="47.90863" lon="6.83284">
        <ele>816.8</ele>
        <time>2022-09-02T07:31:12Z</time>
      </trkpt>
      <trkpt lat="47.90863" lon="6.83283">
        <ele>816.6</ele>
        <time>2022-09-02T07:31:13Z</time>
      </trkpt>
      <trkpt lat="47.90864" lon="6.83282">
        <ele>817</ele>
        <time>2022-09-02T07:31:14Z</time>
      </trkpt>
      <trkpt lat="47.90864" lon="6.83281">
        <ele>816.8</ele>
        <time>2022-09-02T07:31:15Z</time>
      </trkpt>
      <trkpt lat="47.90865" lon="6.8328">
        <ele>817.1</ele>
        <time>2022-09-02T07:31:16Z</time>
      </trkpt>
      <trkpt lat="47.90865" lon="6.83279">
        <ele>817</ele>
        <time>2022-09-02T07:31:17Z</time>
      </trkpt>
      <trkpt lat="47.90866" lon="6.83277">
        <ele>817.2</ele>
        <time>2022-09-02T07:31:18Z</time>
      </trkpt>
      <trkpt lat="47.90866" lon="6.83276">
        <ele>817.1</ele>
        <time>2022-09-02T07:31:19Z</time>
      </trkpt>
      <trkpt lat="47.90867" lon="6.83275">
        <ele>817.5</ele>
        <time>2022-09-02T07:31:20Z</time>
      </trkpt>
      <trkpt lat="47.90867" lon="6.83274">
        <ele>817.3</ele>
        <time>2022-09-02T07:31:21Z</time>
      </trkpt>
      <trkpt lat="47.90868" lon="6.83272">
        <ele>817.6</ele>
        <time>2022-09-02T07:31:22Z</time>
      </trkpt>
      <trkpt lat="47.90869" lon="6.83271">
        <ele>818</ele>
        <time>2022-09-02T07:31:23Z</time>
      </trkpt>
      <trkpt lat="47.90869" lon="6.8327">
        <ele>817.9</ele>
        <time>2022-09-02T07:31:24Z</time>
      </trkpt>
      <trkpt lat="47.9087" lon="6.83269">
        <ele>818.2</ele>
        <time>2022-09-02T07:31:25Z</time>
      </trkpt>
      <trkpt lat="47.9087" lon="6.83268">
        <ele>818.1</ele>
        <time>2022-09-02T07:31:26Z</time>
      </trkpt>
      <trkpt lat="47.90871" lon="6.83268">
        <ele>818.6</ele>
        <time>2022-09-02T07:31:27Z</time>
      </trkpt>
      <trkpt lat="47.90871" lon="6.83267">
        <ele>818.5</ele>
        <time>2022-09-02T07:31:28Z</time>
      </trkpt>
      <trkpt lat="47.90871" lon="6.83266">
        <ele>818.4</ele>
        <time>2022-09-02T07:31:29Z</time>
      </trkpt>
      <trkpt lat="47.90872" lon="6.83265">
        <ele>818.7</ele>
        <time>2022-09-02T07:31:30Z</time>
      </trkpt>
      <trkpt lat="47.90872" lon="6.83264">
        <ele>818.6</ele>
        <time>2022-09-02T07:31:31Z</time>
      </trkpt>
      <trkpt lat="47.90873" lon="6.83263">
        <ele>819</ele>
        <time>2022-09-02T07:31:32Z</time>
      </trkpt>
      <trkpt lat="47.90874" lon="6.83262">
        <ele>819.3</ele>
        <time>2022-09-02T07:31:33Z</time>
      </trkpt>
      <trkpt lat="47.90874" lon="6.83261">
        <ele>819.2</ele>
        <time>2022-09-02T07:31:34Z</time>
      </trkpt>
      <trkpt lat="47.90875" lon="6.8326">
        <ele>819.6</ele>
        <time>2022-09-02T07:31:35Z</time>
      </trkpt>
      <trkpt lat="47.90875" lon="6.83259">
        <ele>819.5</ele>
        <time>2022-09-02T07:31:36Z</time>
      </trkpt>
      <trkpt lat="47.90875" lon="6.83258">
        <ele>819.4</ele>
        <time>2022-09-02T07:31:37Z</time>
      </trkpt>
      <trkpt lat="47.90876" lon="6.83257">
        <ele>819.7</ele>
        <time>2022-09-02T07:31:38Z</time>
      </trkpt>
      <trkpt lat="47.90876" lon="6.83256">
        <ele>819.6</ele>
        <time>2022-09-02T07:31:39Z</time>
      </trkpt>
      <trkpt lat="47.90877" lon="6.83255">
        <ele>820</ele>
        <time>2022-09-02T07:31:40Z</time>
      </trkpt>
      <trkpt lat="47.90877" lon="6.83254">
        <ele>819.9</ele>
        <time>2022-09-02T07:31:41Z</time>
      </trkpt>
      <trkpt lat="47.90878" lon="6.83253">
        <ele>820.2</ele>
        <time>2022-09-02T07:31:42Z</time>
      </trkpt>
      <trkpt lat="47.90878" lon="6.83252">
        <ele>820.1</ele>
        <time>2022-09-02T07:31:43Z</time>
      </trkpt>
      <trkpt lat="47.90878" lon="6.83251">
        <ele>820</ele>
        <time>2022-09-02T07:31:44Z</time>
      </trkpt>
      <trkpt lat="47.90879" lon="6.8325">
        <ele>820.4</ele>
        <time>2022-09-02T07:31:45Z</time>
      </trkpt>
      <trkpt lat="47.90879" lon="6.83249">
        <ele>820.2</ele>
        <time>2022-09-02T07:31:46Z</time>
      </trkpt>
      <trkpt lat="47.9088" lon="6.83248">
        <ele>820.6</ele>
        <time>2022-09-02T07:31:47Z</time>
      </trkpt>
      <trkpt lat="47.9088" lon="6.83247">
        <ele>820.4</ele>
        <time>2022-09-02T07:31:48Z</time>
      </trkpt>
      <trkpt lat="47.90881" lon="6.83246">
        <ele>820.8</ele>
        <time>2022-09-02T07:31:49Z</time>
      </trkpt>
      <trkpt lat="47.90882" lon="6.83245">
        <ele>821.1</ele>
        <time>2022-09-02T07:31:50Z</time>
      </trkpt>
      <trkpt lat="47.90882" lon="6.83243">
        <ele>820.8</ele>
        <time>2022-09-02T07:31:51Z</time>
      </trkpt>
      <trkpt lat="47.90883" lon="6.83242">
        <ele>821.2</ele>
        <time>2022-09-02T07:31:52Z</time>
      </trkpt>
      <trkpt lat="47.90884" lon="6.83241">
        <ele>821.5</ele>
        <time>2022-09-02T07:31:53Z</time>
      </trkpt>
      <trkpt lat="47.90885" lon="6.8324">
        <ele>821.8</ele>
        <time>2022-09-02T07:31:55Z</time>
      </trkpt>
      <trkpt lat="47.90886" lon="6.83239">
        <ele>822.1</ele>
        <time>2022-09-02T07:31:56Z</time>
      </trkpt>
      <trkpt lat="47.90887" lon="6.83238">
        <ele>822.4</ele>
        <time>2022-09-02T07:31:58Z</time>
      </trkpt>
      <trkpt lat="47.90888" lon="6.83237">
        <ele>822.7</ele>
        <time>2022-09-02T07:31:59Z</time>
      </trkpt>
      <trkpt lat="47.90889" lon="6.83236">
        <ele>823</ele>
        <time>2022-09-02T07:32:01Z</time>
      </trkpt>
      <trkpt lat="47.9089" lon="6.83235">
        <ele>823.3</ele>
        <time>2022-09-02T07:32:02Z</time>
      </trkpt>
      <trkpt lat="47.9089" lon="6.83233">
        <ele>823</ele>
        <time>2022-09-02T07:32:03Z</time>
      </trkpt>
      <trkpt lat="47.9089" lon="6.83232">
        <ele>822.9</ele>
        <time>2022-09-02T07:32:04Z</time>
      </trkpt>
      <trkpt lat="47.90891" lon="6.8323">
        <ele>823</ele>
        <time>2022-09-02T07:32:05Z</time>
      </trkpt>
      <trkpt lat="47.90891" lon="6.83229">
        <ele>822.9</ele>
        <time>2022-09-02T07:32:06Z</time>
      </trkpt>
      <trkpt lat="47.90892" lon="6.83227">
        <ele>823</ele>
        <time>2022-09-02T07:32:07Z</time>
      </trkpt>
      <trkpt lat="47.90892" lon="6.83226">
        <ele>822.9</ele>
        <time>2022-09-02T07:32:08Z</time>
      </trkpt>
      <trkpt lat="47.90893" lon="6.83225">
        <ele>823.2</ele>
        <time>2022-09-02T07:32:09Z</time>
      </trkpt>
      <trkpt lat="47.90894" lon="6.83224">
        <ele>823.5</ele>
        <time>2022-09-02T07:32:10Z</time>
      </trkpt>
      <trkpt lat="47.90895" lon="6.83224">
        <ele>823.9</ele>
        <time>2022-09-02T07:32:11Z</time>
      </trkpt>
      <trkpt lat="47.90896" lon="6.83223">
        <ele>824.2</ele>
        <time>2022-09-02T07:32:12Z</time>
      </trkpt>
      <trkpt lat="47.90896" lon="6.83222">
        <ele>824</ele>
        <time>2022-09-02T07:32:13Z</time>
      </trkpt>
      <trkpt lat="47.90897" lon="6.83221">
        <ele>824.3</ele>
        <time>2022-09-02T07:32:14Z</time>
      </trkpt>
      <trkpt lat="47.90898" lon="6.8322">
        <ele>824.6</ele>
        <time>2022-09-02T07:32:15Z</time>
      </trkpt>
      <trkpt lat="47.90898" lon="6.83219">
        <ele>824.5</ele>
        <time>2022-09-02T07:32:16Z</time>
      </trkpt>
      <trkpt lat="47.90899" lon="6.83218">
        <ele>824.8</ele>
        <time>2022-09-02T07:32:17Z</time>
      </trkpt>
      <trkpt lat="47.909" lon="6.83217">
        <ele>825</ele>
        <time>2022-09-02T07:32:18Z</time>
      </trkpt>
      <trkpt lat="47.90901" lon="6.83215">
        <ele>825.2</ele>
        <time>2022-09-02T07:32:20Z</time>
      </trkpt>
      <trkpt lat="47.90902" lon="6.83214">
        <ele>825.5</ele>
        <time>2022-09-02T07:32:21Z</time>
      </trkpt>
      <trkpt lat="47.90902" lon="6.83213">
        <ele>825.3</ele>
        <time>2022-09-02T07:32:22Z</time>
      </trkpt>
      <trkpt lat="47.90903" lon="6.83212">
        <ele>825.6</ele>
        <time>2022-09-02T07:32:23Z</time>
      </trkpt>
      <trkpt lat="47.90904" lon="6.83211">
        <ele>825.9</ele>
        <time>2022-09-02T07:32:24Z</time>
      </trkpt>
      <trkpt lat="47.90904" lon="6.8321">
        <ele>825.8</ele>
        <time>2022-09-02T07:32:25Z</time>
      </trkpt>
      <trkpt lat="47.90905" lon="6.83209">
        <ele>826.1</ele>
        <time>2022-09-02T07:32:26Z</time>
      </trkpt>
      <trkpt lat="47.90905" lon="6.83208">
        <ele>825.9</ele>
        <time>2022-09-02T07:32:27Z</time>
      </trkpt>
      <trkpt lat="47.90905" lon="6.83206">
        <ele>825.6</ele>
        <time>2022-09-02T07:32:28Z</time>
      </trkpt>
      <trkpt lat="47.90905" lon="6.83205">
        <ele>825.5</ele>
        <time>2022-09-02T07:32:29Z</time>
      </trkpt>
      <trkpt lat="47.90905" lon="6.83204">
        <ele>825.3</ele>
        <time>2022-09-02T07:32:30Z</time>
      </trkpt>
      <trkpt lat="47.90905" lon="6.83203">
        <ele>825.2</ele>
        <time>2022-09-02T07:32:31Z</time>
      </trkpt>
      <trkpt lat="47.90906" lon="6.83202">
        <ele>825.5</ele>
        <time>2022-09-02T07:32:32Z</time>
      </trkpt>
      <trkpt lat="47.90907" lon="6.83201">
        <ele>825.8</ele>
        <time>2022-09-02T07:32:34Z</time>
      </trkpt>
      <trkpt lat="47.90908" lon="6.832">
        <ele>826.1</ele>
        <time>2022-09-02T07:32:35Z</time>
      </trkpt>
      <trkpt lat="47.90909" lon="6.83198">
        <ele>826.2</ele>
        <time>2022-09-02T07:32:36Z</time>
      </trkpt>
      <trkpt lat="47.90909" lon="6.83197">
        <ele>826.1</ele>
        <time>2022-09-02T07:32:37Z</time>
      </trkpt>
      <trkpt lat="47.9091" lon="6.83196">
        <ele>826.3</ele>
        <time>2022-09-02T07:32:38Z</time>
      </trkpt>
      <trkpt lat="47.9091" lon="6.83194">
        <ele>826.1</ele>
        <time>2022-09-02T07:32:39Z</time>
      </trkpt>
      <trkpt lat="47.9091" lon="6.83193">
        <ele>825.9</ele>
        <time>2022-09-02T07:32:40Z</time>
      </trkpt>
      <trkpt lat="47.90911" lon="6.83192">
        <ele>826.2</ele>
        <time>2022-09-02T07:32:41Z</time>
      </trkpt>
      <trkpt lat="47.90911" lon="6.83191">
        <ele>826.1</ele>
        <time>2022-09-02T07:32:42Z</time>
      </trkpt>
      <trkpt lat="47.90911" lon="6.8319">
        <ele>825.9</ele>
        <time>2022-09-02T07:32:43Z</time>
      </trkpt>
      <trkpt lat="47.90911" lon="6.83189">
        <ele>825.8</ele>
        <time>2022-09-02T07:32:44Z</time>
      </trkpt>
      <trkpt lat="47.90912" lon="6.83188">
        <ele>826.1</ele>
        <time>2022-09-02T07:32:45Z</time>
      </trkpt>
      <trkpt lat="47.90913" lon="6.83187">
        <ele>826.4</ele>
        <time>2022-09-02T07:32:47Z</time>
      </trkpt>
      <trkpt lat="47.90913" lon="6.83186">
        <ele>826.2</ele>
        <time>2022-09-02T07:32:49Z</time>
      </trkpt>
      <trkpt lat="47.90914" lon="6.83185">
        <ele>826.5</ele>
        <time>2022-09-02T07:32:50Z</time>
      </trkpt>
      <trkpt lat="47.90914" lon="6.83184">
        <ele>826.4</ele>
        <time>2022-09-02T07:32:51Z</time>
      </trkpt>
      <trkpt lat="47.90914" lon="6.83183">
        <ele>826.2</ele>
        <time>2022-09-02T07:32:52Z</time>
      </trkpt>
      <trkpt lat="47.90914" lon="6.83182">
        <ele>826.1</ele>
        <time>2022-09-02T07:32:53Z</time>
      </trkpt>
      <trkpt lat="47.90914" lon="6.83181">
        <ele>826</ele>
        <time>2022-09-02T07:32:54Z</time>
      </trkpt>
      <trkpt lat="47.90914" lon="6.83179">
        <ele>825.7</ele>
        <time>2022-09-02T07:32:55Z</time>
      </trkpt>
      <trkpt lat="47.90914" lon="6.83178">
        <ele>825.5</ele>
        <time>2022-09-02T07:32:56Z</time>
      </trkpt>
      <trkpt lat="47.90914" lon="6.83176">
        <ele>825.3</ele>
        <time>2022-09-02T07:32:57Z</time>
      </trkpt>
      <trkpt lat="47.90915" lon="6.83175">
        <ele>825.5</ele>
        <time>2022-09-02T07:32:58Z</time>
      </trkpt>
      <trkpt lat="47.90915" lon="6.83174">
        <ele>825.4</ele>
        <time>2022-09-02T07:32:59Z</time>
      </trkpt>
      <trkpt lat="47.90916" lon="6.83173">
        <ele>825.6</ele>
        <time>2022-09-02T07:33:00Z</time>
      </trkpt>
      <trkpt lat="47.90917" lon="6.83172">
        <ele>825.9</ele>
        <time>2022-09-02T07:33:01Z</time>
      </trkpt>
      <trkpt lat="47.90918" lon="6.83172">
        <ele>826.2</ele>
        <time>2022-09-02T07:33:02Z</time>
      </trkpt>
      <trkpt lat="47.90919" lon="6.83171">
        <ele>826.5</ele>
        <time>2022-09-02T07:33:03Z</time>
      </trkpt>
      <trkpt lat="47.9092" lon="6.8317">
        <ele>826.7</ele>
        <time>2022-09-02T07:33:04Z</time>
      </trkpt>
      <trkpt lat="47.90921" lon="6.83169">
        <ele>826.9</ele>
        <time>2022-09-02T07:33:05Z</time>
      </trkpt>
      <trkpt lat="47.90921" lon="6.83168">
        <ele>826.8</ele>
        <time>2022-09-02T07:33:06Z</time>
      </trkpt>
      <trkpt lat="47.90922" lon="6.83167">
        <ele>827</ele>
        <time>2022-09-02T07:33:07Z</time>
      </trkpt>
      <trkpt lat="47.90923" lon="6.83166">
        <ele>827.2</ele>
        <time>2022-09-02T07:33:08Z</time>
      </trkpt>
      <trkpt lat="47.90924" lon="6.83165">
        <ele>827.5</ele>
        <time>2022-09-02T07:33:10Z</time>
      </trkpt>
      <trkpt lat="47.90924" lon="6.83164">
        <ele>827.4</ele>
        <time>2022-09-02T07:33:11Z</time>
      </trkpt>
      <trkpt lat="47.90925" lon="6.83164">
        <ele>827.7</ele>
        <time>2022-09-02T07:33:12Z</time>
      </trkpt>
      <trkpt lat="47.90926" lon="6.83163">
        <ele>828</ele>
        <time>2022-09-02T07:33:13Z</time>
      </trkpt>
      <trkpt lat="47.90926" lon="6.83162">
        <ele>827.9</ele>
        <time>2022-09-02T07:33:14Z</time>
      </trkpt>
      <trkpt lat="47.90927" lon="6.83162">
        <ele>828.2</ele>
        <time>2022-09-02T07:33:15Z</time>
      </trkpt>
      <trkpt lat="47.90928" lon="6.83161">
        <ele>828.5</ele>
        <time>2022-09-02T07:33:16Z</time>
      </trkpt>
      <trkpt lat="47.9093" lon="6.83161">
        <ele>829.2</ele>
        <time>2022-09-02T07:33:17Z</time>
      </trkpt>
      <trkpt lat="47.90931" lon="6.8316">
        <ele>829.4</ele>
        <time>2022-09-02T07:33:18Z</time>
      </trkpt>
      <trkpt lat="47.90932" lon="6.83159">
        <ele>829.7</ele>
        <time>2022-09-02T07:33:19Z</time>
      </trkpt>
      <trkpt lat="47.90933" lon="6.83159">
        <ele>830.1</ele>
        <time>2022-09-02T07:33:20Z</time>
      </trkpt>
      <trkpt lat="47.90934" lon="6.83157">
        <ele>830.2</ele>
        <time>2022-09-02T07:33:21Z</time>
      </trkpt>
      <trkpt lat="47.90934" lon="6.83156">
        <ele>830.1</ele>
        <time>2022-09-02T07:33:22Z</time>
      </trkpt>
      <trkpt lat="47.90935" lon="6.83155">
        <ele>830.3</ele>
        <time>2022-09-02T07:33:23Z</time>
      </trkpt>
      <trkpt lat="47.90935" lon="6.83154">
        <ele>830.2</ele>
        <time>2022-09-02T07:33:24Z</time>
      </trkpt>
      <trkpt lat="47.90936" lon="6.83153">
        <ele>830.5</ele>
        <time>2022-09-02T07:33:25Z</time>
      </trkpt>
      <trkpt lat="47.90936" lon="6.83151">
        <ele>830.3</ele>
        <time>2022-09-02T07:33:26Z</time>
      </trkpt>
      <trkpt lat="47.90937" lon="6.8315">
        <ele>830.5</ele>
        <time>2022-09-02T07:33:27Z</time>
      </trkpt>
      <trkpt lat="47.90937" lon="6.83149">
        <ele>830.4</ele>
        <time>2022-09-02T07:33:28Z</time>
      </trkpt>
      <trkpt lat="47.90937" lon="6.83148">
        <ele>830.3</ele>
        <time>2022-09-02T07:33:29Z</time>
      </trkpt>
      <trkpt lat="47.90937" lon="6.83146">
        <ele>830.1</ele>
        <time>2022-09-02T07:33:30Z</time>
      </trkpt>
      <trkpt lat="47.90938" lon="6.83145">
        <ele>830.3</ele>
        <time>2022-09-02T07:33:31Z</time>
      </trkpt>
      <trkpt lat="47.90938" lon="6.83143">
        <ele>830.1</ele>
        <time>2022-09-02T07:33:32Z</time>
      </trkpt>
      <trkpt lat="47.90938" lon="6.83142">
        <ele>830</ele>
        <time>2022-09-02T07:33:33Z</time>
      </trkpt>
      <trkpt lat="47.90938" lon="6.83141">
        <ele>829.9</ele>
        <time>2022-09-02T07:33:34Z</time>
      </trkpt>
      <trkpt lat="47.90938" lon="6.83139">
        <ele>829.7</ele>
        <time>2022-09-02T07:33:35Z</time>
      </trkpt>
      <trkpt lat="47.90939" lon="6.83138">
        <ele>830</ele>
        <time>2022-09-02T07:33:36Z</time>
      </trkpt>
      <trkpt lat="47.9094" lon="6.83137">
        <ele>830.2</ele>
        <time>2022-09-02T07:33:38Z</time>
      </trkpt>
      <trkpt lat="47.9094" lon="6.83136">
        <ele>830.1</ele>
        <time>2022-09-02T07:33:39Z</time>
      </trkpt>
      <trkpt lat="47.90941" lon="6.83135">
        <ele>830.4</ele>
        <time>2022-09-02T07:33:40Z</time>
      </trkpt>
      <trkpt lat="47.90941" lon="6.83134">
        <ele>830.3</ele>
        <time>2022-09-02T07:33:42Z</time>
      </trkpt>
      <trkpt lat="47.90941" lon="6.83133">
        <ele>830.2</ele>
        <time>2022-09-02T07:33:43Z</time>
      </trkpt>
      <trkpt lat="47.90942" lon="6.83133">
        <ele>830.5</ele>
        <time>2022-09-02T07:33:44Z</time>
      </trkpt>
      <trkpt lat="47.90943" lon="6.83132">
        <ele>830.7</ele>
        <time>2022-09-02T07:33:45Z</time>
      </trkpt>
      <trkpt lat="47.90944" lon="6.83131">
        <ele>831</ele>
        <time>2022-09-02T07:33:47Z</time>
      </trkpt>
      <trkpt lat="47.90945" lon="6.83131">
        <ele>831.3</ele>
        <time>2022-09-02T07:33:48Z</time>
      </trkpt>
      <trkpt lat="47.90946" lon="6.83131">
        <ele>831.6</ele>
        <time>2022-09-02T07:33:49Z</time>
      </trkpt>
      <trkpt lat="47.90947" lon="6.8313">
        <ele>831.7</ele>
        <time>2022-09-02T07:33:50Z</time>
      </trkpt>
      <trkpt lat="47.90948" lon="6.83129">
        <ele>831.9</ele>
        <time>2022-09-02T07:33:51Z</time>
      </trkpt>
      <trkpt lat="47.90949" lon="6.83129">
        <ele>832.1</ele>
        <time>2022-09-02T07:33:52Z</time>
      </trkpt>
      <trkpt lat="47.9095" lon="6.83128">
        <ele>832.3</ele>
        <time>2022-09-02T07:33:53Z</time>
      </trkpt>
      <trkpt lat="47.90951" lon="6.83126">
        <ele>832.3</ele>
        <time>2022-09-02T07:33:54Z</time>
      </trkpt>
      <trkpt lat="47.90952" lon="6.83125">
        <ele>832.4</ele>
        <time>2022-09-02T07:33:55Z</time>
      </trkpt>
      <trkpt lat="47.90953" lon="6.83124">
        <ele>832.5</ele>
        <time>2022-09-02T07:33:56Z</time>
      </trkpt>
      <trkpt lat="47.90954" lon="6.83123">
        <ele>832.6</ele>
        <time>2022-09-02T07:33:57Z</time>
      </trkpt>
      <trkpt lat="47.90955" lon="6.83122">
        <ele>832.8</ele>
        <time>2022-09-02T07:33:58Z</time>
      </trkpt>
      <trkpt lat="47.90956" lon="6.83121">
        <ele>832.9</ele>
        <time>2022-09-02T07:33:59Z</time>
      </trkpt>
      <trkpt lat="47.90957" lon="6.8312">
        <ele>833</ele>
        <time>2022-09-02T07:34:00Z</time>
      </trkpt>
      <trkpt lat="47.90958" lon="6.8312">
        <ele>833.2</ele>
        <time>2022-09-02T07:34:01Z</time>
      </trkpt>
      <trkpt lat="47.90959" lon="6.8312">
        <ele>833.4</ele>
        <time>2022-09-02T07:34:02Z</time>
      </trkpt>
      <trkpt lat="47.9096" lon="6.83119">
        <ele>833.5</ele>
        <time>2022-09-02T07:34:03Z</time>
      </trkpt>
      <trkpt lat="47.90961" lon="6.83119">
        <ele>833.8</ele>
        <time>2022-09-02T07:34:04Z</time>
      </trkpt>
      <trkpt lat="47.90962" lon="6.83119">
        <ele>834</ele>
        <time>2022-09-02T07:34:05Z</time>
      </trkpt>
      <trkpt lat="47.90963" lon="6.83118">
        <ele>834.1</ele>
        <time>2022-09-02T07:34:06Z</time>
      </trkpt>
      <trkpt lat="47.90964" lon="6.83117">
        <ele>834.2</ele>
        <time>2022-09-02T07:34:07Z</time>
      </trkpt>
      <trkpt lat="47.90965" lon="6.83117">
        <ele>834.4</ele>
        <time>2022-09-02T07:34:08Z</time>
      </trkpt>
      <trkpt lat="47.90966" lon="6.83116">
        <ele>834.5</ele>
        <time>2022-09-02T07:34:09Z</time>
      </trkpt>
      <trkpt lat="47.90967" lon="6.83115">
        <ele>834.5</ele>
        <time>2022-09-02T07:34:10Z</time>
      </trkpt>
      <trkpt lat="47.90968" lon="6.83113">
        <ele>834.4</ele>
        <time>2022-09-02T07:34:11Z</time>
      </trkpt>
      <trkpt lat="47.90968" lon="6.83112">
        <ele>834.2</ele>
        <time>2022-09-02T07:34:12Z</time>
      </trkpt>
      <trkpt lat="47.90969" lon="6.83112">
        <ele>834.5</ele>
        <time>2022-09-02T07:34:13Z</time>
      </trkpt>
      <trkpt lat="47.9097" lon="6.83111">
        <ele>834.5</ele>
        <time>2022-09-02T07:34:14Z</time>
      </trkpt>
      <trkpt lat="47.90971" lon="6.8311">
        <ele>834.5</ele>
        <time>2022-09-02T07:34:16Z</time>
      </trkpt>
      <trkpt lat="47.90972" lon="6.8311">
        <ele>834.7</ele>
        <time>2022-09-02T07:34:17Z</time>
      </trkpt>
      <trkpt lat="47.90973" lon="6.8311">
        <ele>834.8</ele>
        <time>2022-09-02T07:34:18Z</time>
      </trkpt>
      <trkpt lat="47.90974" lon="6.8311">
        <ele>834.9</ele>
        <time>2022-09-02T07:34:19Z</time>
      </trkpt>
      <trkpt lat="47.90975" lon="6.8311">
        <ele>835.1</ele>
        <time>2022-09-02T07:34:20Z</time>
      </trkpt>
      <trkpt lat="47.90976" lon="6.8311">
        <ele>835.2</ele>
        <time>2022-09-02T07:34:21Z</time>
      </trkpt>
      <trkpt lat="47.90977" lon="6.8311">
        <ele>835.3</ele>
        <time>2022-09-02T07:34:22Z</time>
      </trkpt>
      <trkpt lat="47.90978" lon="6.8311">
        <ele>835.4</ele>
        <time>2022-09-02T07:34:23Z</time>
      </trkpt>
      <trkpt lat="47.9098" lon="6.83111">
        <ele>835.8</ele>
        <time>2022-09-02T07:34:24Z</time>
      </trkpt>
      <trkpt lat="47.90981" lon="6.83111">
        <ele>835.9</ele>
        <time>2022-09-02T07:34:25Z</time>
      </trkpt>
      <trkpt lat="47.90982" lon="6.83111">
        <ele>836</ele>
        <time>2022-09-02T07:34:27Z</time>
      </trkpt>
      <trkpt lat="47.90983" lon="6.83112">
        <ele>836.3</ele>
        <time>2022-09-02T07:34:28Z</time>
      </trkpt>
      <trkpt lat="47.90985" lon="6.83112">
        <ele>836.6</ele>
        <time>2022-09-02T07:34:29Z</time>
      </trkpt>
      <trkpt lat="47.90986" lon="6.83112">
        <ele>836.7</ele>
        <time>2022-09-02T07:34:30Z</time>
      </trkpt>
      <trkpt lat="47.90988" lon="6.83112">
        <ele>836.9</ele>
        <time>2022-09-02T07:34:31Z</time>
      </trkpt>
      <trkpt lat="47.9099" lon="6.83112">
        <ele>837.1</ele>
        <time>2022-09-02T07:34:32Z</time>
      </trkpt>
      <trkpt lat="47.90991" lon="6.83111">
        <ele>837</ele>
        <time>2022-09-02T07:34:33Z</time>
      </trkpt>
      <trkpt lat="47.90992" lon="6.83111">
        <ele>837.1</ele>
        <time>2022-09-02T07:34:34Z</time>
      </trkpt>
      <trkpt lat="47.90993" lon="6.8311">
        <ele>837</ele>
        <time>2022-09-02T07:34:35Z</time>
      </trkpt>
      <trkpt lat="47.90994" lon="6.8311">
        <ele>837.1</ele>
        <time>2022-09-02T07:34:36Z</time>
      </trkpt>
      <trkpt lat="47.90995" lon="6.83109">
        <ele>836.9</ele>
        <time>2022-09-02T07:34:37Z</time>
      </trkpt>
      <trkpt lat="47.90996" lon="6.83108">
        <ele>836.8</ele>
        <time>2022-09-02T07:34:39Z</time>
      </trkpt>
      <trkpt lat="47.90997" lon="6.83107">
        <ele>836.7</ele>
        <time>2022-09-02T07:34:41Z</time>
      </trkpt>
      <trkpt lat="47.90998" lon="6.83107">
        <ele>836.8</ele>
        <time>2022-09-02T07:34:42Z</time>
      </trkpt>
      <trkpt lat="47.90998" lon="6.83106">
        <ele>836.5</ele>
        <time>2022-09-02T07:34:43Z</time>
      </trkpt>
      <trkpt lat="47.90999" lon="6.83106">
        <ele>836.6</ele>
        <time>2022-09-02T07:34:44Z</time>
      </trkpt>
      <trkpt lat="47.91" lon="6.83105">
        <ele>836.5</ele>
        <time>2022-09-02T07:34:45Z</time>
      </trkpt>
      <trkpt lat="47.91001" lon="6.83105">
        <ele>836.6</ele>
        <time>2022-09-02T07:34:46Z</time>
      </trkpt>
      <trkpt lat="47.91002" lon="6.83105">
        <ele>836.8</ele>
        <time>2022-09-02T07:34:47Z</time>
      </trkpt>
      <trkpt lat="47.91003" lon="6.83105">
        <ele>837</ele>
        <time>2022-09-02T07:34:48Z</time>
      </trkpt>
      <trkpt lat="47.91005" lon="6.83105">
        <ele>837.3</ele>
        <time>2022-09-02T07:34:49Z</time>
      </trkpt>
      <trkpt lat="47.91006" lon="6.83105">
        <ele>837.5</ele>
        <time>2022-09-02T07:34:50Z</time>
      </trkpt>
      <trkpt lat="47.91007" lon="6.83105">
        <ele>837.7</ele>
        <time>2022-09-02T07:34:51Z</time>
      </trkpt>
      <trkpt lat="47.91007" lon="6.83104">
        <ele>837.4</ele>
        <time>2022-09-02T07:34:52Z</time>
      </trkpt>
      <trkpt lat="47.91008" lon="6.83104">
        <ele>837.6</ele>
        <time>2022-09-02T07:34:53Z</time>
      </trkpt>
      <trkpt lat="47.91009" lon="6.83103">
        <ele>837.5</ele>
        <time>2022-09-02T07:34:54Z</time>
      </trkpt>
      <trkpt lat="47.9101" lon="6.83102">
        <ele>837.4</ele>
        <time>2022-09-02T07:34:55Z</time>
      </trkpt>
      <trkpt lat="47.91011" lon="6.83102">
        <ele>837.6</ele>
        <time>2022-09-02T07:34:56Z</time>
      </trkpt>
      <trkpt lat="47.91012" lon="6.83102">
        <ele>837.7</ele>
        <time>2022-09-02T07:34:57Z</time>
      </trkpt>
      <trkpt lat="47.91013" lon="6.83102">
        <ele>837.9</ele>
        <time>2022-09-02T07:34:58Z</time>
      </trkpt>
      <trkpt lat="47.91014" lon="6.83102">
        <ele>838.1</ele>
        <time>2022-09-02T07:35:00Z</time>
      </trkpt>
      <trkpt lat="47.91015" lon="6.83102">
        <ele>838.2</ele>
        <time>2022-09-02T07:35:01Z</time>
      </trkpt>
      <trkpt lat="47.91017" lon="6.83101">
        <ele>838.3</ele>
        <time>2022-09-02T07:35:02Z</time>
      </trkpt>
      <trkpt lat="47.91018" lon="6.83101">
        <ele>838.5</ele>
        <time>2022-09-02T07:35:03Z</time>
      </trkpt>
      <trkpt lat="47.91019" lon="6.83101">
        <ele>838.6</ele>
        <time>2022-09-02T07:35:04Z</time>
      </trkpt>
      <trkpt lat="47.9102" lon="6.831">
        <ele>838.5</ele>
        <time>2022-09-02T07:35:05Z</time>
      </trkpt>
      <trkpt lat="47.91021" lon="6.831">
        <ele>838.7</ele>
        <time>2022-09-02T07:35:06Z</time>
      </trkpt>
      <trkpt lat="47.91022" lon="6.831">
        <ele>838.8</ele>
        <time>2022-09-02T07:35:07Z</time>
      </trkpt>
      <trkpt lat="47.91023" lon="6.83099">
        <ele>838.7</ele>
        <time>2022-09-02T07:35:08Z</time>
      </trkpt>
      <trkpt lat="47.91024" lon="6.83099">
        <ele>838.9</ele>
        <time>2022-09-02T07:35:09Z</time>
      </trkpt>
      <trkpt lat="47.91025" lon="6.83099">
        <ele>839.1</ele>
        <time>2022-09-02T07:35:10Z</time>
      </trkpt>
      <trkpt lat="47.91026" lon="6.83099">
        <ele>839.2</ele>
        <time>2022-09-02T07:35:11Z</time>
      </trkpt>
      <trkpt lat="47.91027" lon="6.83098">
        <ele>839.1</ele>
        <time>2022-09-02T07:35:12Z</time>
      </trkpt>
      <trkpt lat="47.91028" lon="6.83098">
        <ele>839.2</ele>
        <time>2022-09-02T07:35:13Z</time>
      </trkpt>
      <trkpt lat="47.91029" lon="6.83098">
        <ele>839.4</ele>
        <time>2022-09-02T07:35:14Z</time>
      </trkpt>
      <trkpt lat="47.9103" lon="6.83099">
        <ele>839.8</ele>
        <time>2022-09-02T07:35:15Z</time>
      </trkpt>
      <trkpt lat="47.91031" lon="6.83099">
        <ele>839.9</ele>
        <time>2022-09-02T07:35:16Z</time>
      </trkpt>
      <trkpt lat="47.91032" lon="6.83099">
        <ele>840</ele>
        <time>2022-09-02T07:35:17Z</time>
      </trkpt>
      <trkpt lat="47.91033" lon="6.83099">
        <ele>840.1</ele>
        <time>2022-09-02T07:35:18Z</time>
      </trkpt>
      <trkpt lat="47.91034" lon="6.83099">
        <ele>840.2</ele>
        <time>2022-09-02T07:35:20Z</time>
      </trkpt>
      <trkpt lat="47.91035" lon="6.83099">
        <ele>840.3</ele>
        <time>2022-09-02T07:35:22Z</time>
      </trkpt>
      <trkpt lat="47.91036" lon="6.83099">
        <ele>840.4</ele>
        <time>2022-09-02T07:35:23Z</time>
      </trkpt>
      <trkpt lat="47.91037" lon="6.83099">
        <ele>840.5</ele>
        <time>2022-09-02T07:35:24Z</time>
      </trkpt>
      <trkpt lat="47.91038" lon="6.83099">
        <ele>840.6</ele>
        <time>2022-09-02T07:35:25Z</time>
      </trkpt>
      <trkpt lat="47.91039" lon="6.831">
        <ele>841</ele>
        <time>2022-09-02T07:35:26Z</time>
      </trkpt>
      <trkpt lat="47.91041" lon="6.83101">
        <ele>841.5</ele>
        <time>2022-09-02T07:35:27Z</time>
      </trkpt>
      <trkpt lat="47.91042" lon="6.83102">
        <ele>841.9</ele>
        <time>2022-09-02T07:35:28Z</time>
      </trkpt>
      <trkpt lat="47.91043" lon="6.83102">
        <ele>842</ele>
        <time>2022-09-02T07:35:29Z</time>
      </trkpt>
      <trkpt lat="47.91045" lon="6.83102">
        <ele>842.2</ele>
        <time>2022-09-02T07:35:30Z</time>
      </trkpt>
      <trkpt lat="47.91046" lon="6.83102">
        <ele>842.3</ele>
        <time>2022-09-02T07:35:31Z</time>
      </trkpt>
      <trkpt lat="47.91047" lon="6.83102">
        <ele>842.5</ele>
        <time>2022-09-02T07:35:32Z</time>
      </trkpt>
      <trkpt lat="47.91048" lon="6.83102">
        <ele>842.6</ele>
        <time>2022-09-02T07:35:33Z</time>
      </trkpt>
      <trkpt lat="47.91049" lon="6.83102">
        <ele>842.7</ele>
        <time>2022-09-02T07:35:34Z</time>
      </trkpt>
      <trkpt lat="47.9105" lon="6.83102">
        <ele>842.8</ele>
        <time>2022-09-02T07:35:35Z</time>
      </trkpt>
      <trkpt lat="47.91051" lon="6.83101">
        <ele>842.6</ele>
        <time>2022-09-02T07:35:36Z</time>
      </trkpt>
      <trkpt lat="47.91052" lon="6.83101">
        <ele>842.7</ele>
        <time>2022-09-02T07:35:37Z</time>
      </trkpt>
      <trkpt lat="47.91053" lon="6.83101">
        <ele>842.8</ele>
        <time>2022-09-02T07:35:38Z</time>
      </trkpt>
      <trkpt lat="47.91054" lon="6.83101">
        <ele>842.9</ele>
        <time>2022-09-02T07:35:39Z</time>
      </trkpt>
      <trkpt lat="47.91056" lon="6.83101">
        <ele>843.1</ele>
        <time>2022-09-02T07:35:40Z</time>
      </trkpt>
      <trkpt lat="47.91057" lon="6.83101">
        <ele>843.2</ele>
        <time>2022-09-02T07:35:41Z</time>
      </trkpt>
      <trkpt lat="47.91058" lon="6.83101">
        <ele>843.3</ele>
        <time>2022-09-02T07:35:42Z</time>
      </trkpt>
      <trkpt lat="47.91059" lon="6.83102">
        <ele>843.7</ele>
        <time>2022-09-02T07:35:43Z</time>
      </trkpt>
      <trkpt lat="47.9106" lon="6.83102">
        <ele>843.8</ele>
        <time>2022-09-02T07:35:44Z</time>
      </trkpt>
      <trkpt lat="47.91061" lon="6.83103">
        <ele>844.2</ele>
        <time>2022-09-02T07:35:45Z</time>
      </trkpt>
      <trkpt lat="47.91062" lon="6.83103">
        <ele>844.3</ele>
        <time>2022-09-02T07:35:47Z</time>
      </trkpt>
      <trkpt lat="47.91063" lon="6.83104">
        <ele>844.6</ele>
        <time>2022-09-02T07:35:48Z</time>
      </trkpt>
      <trkpt lat="47.91064" lon="6.83104">
        <ele>844.7</ele>
        <time>2022-09-02T07:35:49Z</time>
      </trkpt>
      <trkpt lat="47.91065" lon="6.83104">
        <ele>844.8</ele>
        <time>2022-09-02T07:35:51Z</time>
      </trkpt>
      <trkpt lat="47.91066" lon="6.83104">
        <ele>844.9</ele>
        <time>2022-09-02T07:35:52Z</time>
      </trkpt>
      <trkpt lat="47.91067" lon="6.83104">
        <ele>845</ele>
        <time>2022-09-02T07:35:53Z</time>
      </trkpt>
      <trkpt lat="47.91068" lon="6.83104">
        <ele>845.1</ele>
        <time>2022-09-02T07:35:55Z</time>
      </trkpt>
      <trkpt lat="47.91069" lon="6.83104">
        <ele>845.2</ele>
        <time>2022-09-02T07:35:56Z</time>
      </trkpt>
      <trkpt lat="47.9107" lon="6.83104">
        <ele>845.3</ele>
        <time>2022-09-02T07:35:57Z</time>
      </trkpt>
      <trkpt lat="47.91072" lon="6.83104">
        <ele>845.4</ele>
        <time>2022-09-02T07:35:58Z</time>
      </trkpt>
      <trkpt lat="47.91073" lon="6.83104">
        <ele>845.5</ele>
        <time>2022-09-02T07:35:59Z</time>
      </trkpt>
      <trkpt lat="47.91074" lon="6.83104">
        <ele>845.6</ele>
        <time>2022-09-02T07:36:00Z</time>
      </trkpt>
      <trkpt lat="47.91075" lon="6.83104">
        <ele>845.7</ele>
        <time>2022-09-02T07:36:01Z</time>
      </trkpt>
      <trkpt lat="47.91076" lon="6.83104">
        <ele>845.8</ele>
        <time>2022-09-02T07:36:02Z</time>
      </trkpt>
      <trkpt lat="47.91077" lon="6.83104">
        <ele>845.9</ele>
        <time>2022-09-02T07:36:03Z</time>
      </trkpt>
      <trkpt lat="47.91078" lon="6.83104">
        <ele>846</ele>
        <time>2022-09-02T07:36:07Z</time>
      </trkpt>
      <trkpt lat="47.91079" lon="6.83104">
        <ele>846.1</ele>
        <time>2022-09-02T07:36:08Z</time>
      </trkpt>
      <trkpt lat="47.9108" lon="6.83104">
        <ele>846.2</ele>
        <time>2022-09-02T07:36:09Z</time>
      </trkpt>
      <trkpt lat="47.91082" lon="6.83103">
        <ele>846.1</ele>
        <time>2022-09-02T07:36:11Z</time>
      </trkpt>
      <trkpt lat="47.91083" lon="6.83103">
        <ele>846.2</ele>
        <time>2022-09-02T07:36:12Z</time>
      </trkpt>
      <trkpt lat="47.91085" lon="6.83102">
        <ele>845.9</ele>
        <time>2022-09-02T07:36:13Z</time>
      </trkpt>
      <trkpt lat="47.91086" lon="6.83102">
        <ele>845.7</ele>
        <time>2022-09-02T07:36:14Z</time>
      </trkpt>
      <trkpt lat="47.91088" lon="6.83103">
        <ele>845.8</ele>
        <time>2022-09-02T07:36:15Z</time>
      </trkpt>
      <trkpt lat="47.91089" lon="6.83103">
        <ele>845.7</ele>
        <time>2022-09-02T07:36:16Z</time>
      </trkpt>
      <trkpt lat="47.9109" lon="6.83103">
        <ele>845.6</ele>
        <time>2022-09-02T07:36:17Z</time>
      </trkpt>
      <trkpt lat="47.91091" lon="6.83104">
        <ele>845.7</ele>
        <time>2022-09-02T07:36:18Z</time>
      </trkpt>
      <trkpt lat="47.91092" lon="6.83104">
        <ele>845.6</ele>
        <time>2022-09-02T07:36:21Z</time>
      </trkpt>
      <trkpt lat="47.91093" lon="6.83104">
        <ele>845.5</ele>
        <time>2022-09-02T07:36:23Z</time>
      </trkpt>
      <trkpt lat="47.91094" lon="6.83105">
        <ele>845.7</ele>
        <time>2022-09-02T07:36:24Z</time>
      </trkpt>
      <trkpt lat="47.91096" lon="6.83105">
        <ele>845.5</ele>
        <time>2022-09-02T07:36:25Z</time>
      </trkpt>
      <trkpt lat="47.91097" lon="6.83105">
        <ele>845.4</ele>
        <time>2022-09-02T07:36:26Z</time>
      </trkpt>
      <trkpt lat="47.91099" lon="6.83107">
        <ele>845.7</ele>
        <time>2022-09-02T07:36:27Z</time>
      </trkpt>
      <trkpt lat="47.911" lon="6.83108">
        <ele>845.9</ele>
        <time>2022-09-02T07:36:28Z</time>
      </trkpt>
      <trkpt lat="47.91101" lon="6.83109">
        <ele>846.1</ele>
        <time>2022-09-02T07:36:29Z</time>
      </trkpt>
      <trkpt lat="47.91102" lon="6.8311">
        <ele>846.3</ele>
        <time>2022-09-02T07:36:30Z</time>
      </trkpt>
      <trkpt lat="47.91102" lon="6.83111">
        <ele>846.6</ele>
        <time>2022-09-02T07:36:31Z</time>
      </trkpt>
      <trkpt lat="47.91103" lon="6.83111">
        <ele>846.6</ele>
        <time>2022-09-02T07:36:32Z</time>
      </trkpt>
      <trkpt lat="47.91103" lon="6.83112">
        <ele>846.9</ele>
        <time>2022-09-02T07:36:33Z</time>
      </trkpt>
      <trkpt lat="47.91104" lon="6.83113">
        <ele>847.1</ele>
        <time>2022-09-02T07:36:34Z</time>
      </trkpt>
      <trkpt lat="47.91104" lon="6.83114">
        <ele>847.4</ele>
        <time>2022-09-02T07:36:35Z</time>
      </trkpt>
      <trkpt lat="47.91105" lon="6.83114">
        <ele>847.3</ele>
        <time>2022-09-02T07:36:36Z</time>
      </trkpt>
      <trkpt lat="47.91106" lon="6.83115">
        <ele>847.6</ele>
        <time>2022-09-02T07:36:37Z</time>
      </trkpt>
      <trkpt lat="47.91107" lon="6.83115">
        <ele>847.5</ele>
        <time>2022-09-02T07:36:38Z</time>
      </trkpt>
      <trkpt lat="47.91109" lon="6.83116">
        <ele>847.7</ele>
        <time>2022-09-02T07:36:39Z</time>
      </trkpt>
      <trkpt lat="47.91111" lon="6.83116">
        <ele>847.6</ele>
        <time>2022-09-02T07:36:40Z</time>
      </trkpt>
      <trkpt lat="47.91113" lon="6.83116">
        <ele>847.2</ele>
        <time>2022-09-02T07:36:41Z</time>
      </trkpt>
      <trkpt lat="47.91115" lon="6.83116">
        <ele>846.8</ele>
        <time>2022-09-02T07:36:42Z</time>
      </trkpt>
      <trkpt lat="47.91116" lon="6.83116">
        <ele>846.6</ele>
        <time>2022-09-02T07:36:43Z</time>
      </trkpt>
      <trkpt lat="47.91117" lon="6.83116">
        <ele>846.4</ele>
        <time>2022-09-02T07:36:44Z</time>
      </trkpt>
      <trkpt lat="47.91118" lon="6.83117">
        <ele>846.6</ele>
        <time>2022-09-02T07:36:45Z</time>
      </trkpt>
      <trkpt lat="47.91119" lon="6.83118">
        <ele>846.7</ele>
        <time>2022-09-02T07:36:46Z</time>
      </trkpt>
      <trkpt lat="47.91119" lon="6.83119">
        <ele>847</ele>
        <time>2022-09-02T07:36:47Z</time>
      </trkpt>
      <trkpt lat="47.9112" lon="6.83121">
        <ele>847.4</ele>
        <time>2022-09-02T07:36:48Z</time>
      </trkpt>
      <trkpt lat="47.91121" lon="6.83122">
        <ele>847.5</ele>
        <time>2022-09-02T07:36:49Z</time>
      </trkpt>
      <trkpt lat="47.91121" lon="6.83123">
        <ele>847.8</ele>
        <time>2022-09-02T07:36:50Z</time>
      </trkpt>
      <trkpt lat="47.91122" lon="6.83124">
        <ele>847.9</ele>
        <time>2022-09-02T07:36:51Z</time>
      </trkpt>
      <trkpt lat="47.91123" lon="6.83124">
        <ele>847.6</ele>
        <time>2022-09-02T07:36:52Z</time>
      </trkpt>
      <trkpt lat="47.91124" lon="6.83125">
        <ele>847.7</ele>
        <time>2022-09-02T07:36:53Z</time>
      </trkpt>
      <trkpt lat="47.91124" lon="6.83126">
        <ele>848</ele>
        <time>2022-09-02T07:36:54Z</time>
      </trkpt>
      <trkpt lat="47.91125" lon="6.83127">
        <ele>848.1</ele>
        <time>2022-09-02T07:36:55Z</time>
      </trkpt>
      <trkpt lat="47.91126" lon="6.83128">
        <ele>848.1</ele>
        <time>2022-09-02T07:36:56Z</time>
      </trkpt>
      <trkpt lat="47.91127" lon="6.83129">
        <ele>848.2</ele>
        <time>2022-09-02T07:36:57Z</time>
      </trkpt>
      <trkpt lat="47.91128" lon="6.8313">
        <ele>848.3</ele>
        <time>2022-09-02T07:36:58Z</time>
      </trkpt>
      <trkpt lat="47.9113" lon="6.83131">
        <ele>848.1</ele>
        <time>2022-09-02T07:36:59Z</time>
      </trkpt>
      <trkpt lat="47.91132" lon="6.83133">
        <ele>848.1</ele>
        <time>2022-09-02T07:37:00Z</time>
      </trkpt>
      <trkpt lat="47.91133" lon="6.83135">
        <ele>848.4</ele>
        <time>2022-09-02T07:37:01Z</time>
      </trkpt>
      <trkpt lat="47.91135" lon="6.83136">
        <ele>848.2</ele>
        <time>2022-09-02T07:37:02Z</time>
      </trkpt>
      <trkpt lat="47.91136" lon="6.83138">
        <ele>848.5</ele>
        <time>2022-09-02T07:37:03Z</time>
      </trkpt>
      <trkpt lat="47.91137" lon="6.8314">
        <ele>848.8</ele>
        <time>2022-09-02T07:37:04Z</time>
      </trkpt>
      <trkpt lat="47.91138" lon="6.83142">
        <ele>849</ele>
        <time>2022-09-02T07:37:05Z</time>
      </trkpt>
      <trkpt lat="47.91139" lon="6.83144">
        <ele>849.3</ele>
        <time>2022-09-02T07:37:06Z</time>
      </trkpt>
      <trkpt lat="47.91139" lon="6.83145">
        <ele>849.5</ele>
        <time>2022-09-02T07:37:07Z</time>
      </trkpt>
      <trkpt lat="47.91139" lon="6.83147">
        <ele>850</ele>
        <time>2022-09-02T07:37:08Z</time>
      </trkpt>
      <trkpt lat="47.9114" lon="6.83148">
        <ele>850.2</ele>
        <time>2022-09-02T07:37:09Z</time>
      </trkpt>
      <trkpt lat="47.9114" lon="6.83149">
        <ele>850.4</ele>
        <time>2022-09-02T07:37:10Z</time>
      </trkpt>
      <trkpt lat="47.9114" lon="6.8315">
        <ele>850.7</ele>
        <time>2022-09-02T07:37:11Z</time>
      </trkpt>
      <trkpt lat="47.9114" lon="6.83151">
        <ele>850.9</ele>
        <time>2022-09-02T07:37:12Z</time>
      </trkpt>
      <trkpt lat="47.91141" lon="6.83152">
        <ele>851.1</ele>
        <time>2022-09-02T07:37:13Z</time>
      </trkpt>
      <trkpt lat="47.91142" lon="6.83153">
        <ele>851.3</ele>
        <time>2022-09-02T07:37:15Z</time>
      </trkpt>
      <trkpt lat="47.91143" lon="6.83153">
        <ele>851.2</ele>
        <time>2022-09-02T07:37:18Z</time>
      </trkpt>
      <trkpt lat="47.91144" lon="6.83154">
        <ele>851.4</ele>
        <time>2022-09-02T07:37:20Z</time>
      </trkpt>
      <trkpt lat="47.91145" lon="6.83154">
        <ele>851.3</ele>
        <time>2022-09-02T07:37:21Z</time>
      </trkpt>
      <trkpt lat="47.91146" lon="6.83155">
        <ele>851.4</ele>
        <time>2022-09-02T07:37:22Z</time>
      </trkpt>
      <trkpt lat="47.91146" lon="6.83156">
        <ele>851.7</ele>
        <time>2022-09-02T07:37:23Z</time>
      </trkpt>
      <trkpt lat="47.91147" lon="6.83158">
        <ele>852.1</ele>
        <time>2022-09-02T07:37:31Z</time>
      </trkpt>
      <trkpt lat="47.91148" lon="6.8316">
        <ele>852.6</ele>
        <time>2022-09-02T07:37:32Z</time>
      </trkpt>
      <trkpt lat="47.91148" lon="6.83162">
        <ele>853.1</ele>
        <time>2022-09-02T07:37:33Z</time>
      </trkpt>
      <trkpt lat="47.91149" lon="6.83163">
        <ele>853.3</ele>
        <time>2022-09-02T07:37:34Z</time>
      </trkpt>
      <trkpt lat="47.91149" lon="6.83164">
        <ele>853.6</ele>
        <time>2022-09-02T07:37:35Z</time>
      </trkpt>
      <trkpt lat="47.9115" lon="6.83167">
        <ele>854.3</ele>
        <time>2022-09-02T07:37:45Z</time>
      </trkpt>
      <trkpt lat="47.9115" lon="6.83169">
        <ele>855</ele>
        <time>2022-09-02T07:37:46Z</time>
      </trkpt>
      <trkpt lat="47.9115" lon="6.8317">
        <ele>855.3</ele>
        <time>2022-09-02T07:37:47Z</time>
      </trkpt>
      <trkpt lat="47.91151" lon="6.83171">
        <ele>855.6</ele>
        <time>2022-09-02T07:37:48Z</time>
      </trkpt>
      <trkpt lat="47.91151" lon="6.83172">
        <ele>855.9</ele>
        <time>2022-09-02T07:37:49Z</time>
      </trkpt>
      <trkpt lat="47.91151" lon="6.83173">
        <ele>856.2</ele>
        <time>2022-09-02T07:37:50Z</time>
      </trkpt>
      <trkpt lat="47.91152" lon="6.83174">
        <ele>856.5</ele>
        <time>2022-09-02T07:37:51Z</time>
      </trkpt>
      <trkpt lat="47.91153" lon="6.83175">
        <ele>856.7</ele>
        <time>2022-09-02T07:37:52Z</time>
      </trkpt>
      <trkpt lat="47.91153" lon="6.83176">
        <ele>857</ele>
        <time>2022-09-02T07:37:53Z</time>
      </trkpt>
      <trkpt lat="47.91154" lon="6.83177">
        <ele>857.2</ele>
        <time>2022-09-02T07:37:54Z</time>
      </trkpt>
      <trkpt lat="47.91155" lon="6.83179">
        <ele>857.7</ele>
        <time>2022-09-02T07:37:55Z</time>
      </trkpt>
      <trkpt lat="47.91156" lon="6.8318">
        <ele>857.9</ele>
        <time>2022-09-02T07:37:56Z</time>
      </trkpt>
      <trkpt lat="47.91157" lon="6.83181">
        <ele>858</ele>
        <time>2022-09-02T07:37:57Z</time>
      </trkpt>
      <trkpt lat="47.91158" lon="6.83183">
        <ele>858.5</ele>
        <time>2022-09-02T07:37:58Z</time>
      </trkpt>
      <trkpt lat="47.91159" lon="6.83184">
        <ele>858.6</ele>
        <time>2022-09-02T07:37:59Z</time>
      </trkpt>
      <trkpt lat="47.91162" lon="6.83185">
        <ele>858.4</ele>
        <time>2022-09-02T07:38:13Z</time>
      </trkpt>
      <trkpt lat="47.91163" lon="6.83186">
        <ele>858.5</ele>
        <time>2022-09-02T07:38:14Z</time>
      </trkpt>
      <trkpt lat="47.91164" lon="6.83187">
        <ele>858.6</ele>
        <time>2022-09-02T07:38:15Z</time>
      </trkpt>
      <trkpt lat="47.91165" lon="6.83187">
        <ele>858.4</ele>
        <time>2022-09-02T07:38:16Z</time>
      </trkpt>
      <trkpt lat="47.91166" lon="6.83188">
        <ele>858.5</ele>
        <time>2022-09-02T07:38:17Z</time>
      </trkpt>
      <trkpt lat="47.91166" lon="6.83189">
        <ele>858.8</ele>
        <time>2022-09-02T07:38:18Z</time>
      </trkpt>
      <trkpt lat="47.91167" lon="6.83191">
        <ele>859.1</ele>
        <time>2022-09-02T07:38:19Z</time>
      </trkpt>
      <trkpt lat="47.91168" lon="6.83192">
        <ele>859.2</ele>
        <time>2022-09-02T07:38:20Z</time>
      </trkpt>
      <trkpt lat="47.91168" lon="6.83193">
        <ele>859.5</ele>
        <time>2022-09-02T07:38:21Z</time>
      </trkpt>
      <trkpt lat="47.91169" lon="6.83194">
        <ele>859.6</ele>
        <time>2022-09-02T07:38:22Z</time>
      </trkpt>
      <trkpt lat="47.91169" lon="6.83195">
        <ele>859.9</ele>
        <time>2022-09-02T07:38:23Z</time>
      </trkpt>
      <trkpt lat="47.9117" lon="6.83196">
        <ele>860.1</ele>
        <time>2022-09-02T07:38:25Z</time>
      </trkpt>
      <trkpt lat="47.9117" lon="6.83197">
        <ele>860.4</ele>
        <time>2022-09-02T07:38:26Z</time>
      </trkpt>
      <trkpt lat="47.91171" lon="6.83198">
        <ele>860.6</ele>
        <time>2022-09-02T07:38:27Z</time>
      </trkpt>
      <trkpt lat="47.91172" lon="6.83198">
        <ele>860.5</ele>
        <time>2022-09-02T07:38:28Z</time>
      </trkpt>
      <trkpt lat="47.91173" lon="6.83198">
        <ele>860.4</ele>
        <time>2022-09-02T07:38:29Z</time>
      </trkpt>
      <trkpt lat="47.91173" lon="6.83199">
        <ele>860.7</ele>
        <time>2022-09-02T07:38:30Z</time>
      </trkpt>
      <trkpt lat="47.91174" lon="6.83199">
        <ele>860.6</ele>
        <time>2022-09-02T07:38:31Z</time>
      </trkpt>
      <trkpt lat="47.91175" lon="6.83199">
        <ele>860.5</ele>
        <time>2022-09-02T07:38:32Z</time>
      </trkpt>
      <trkpt lat="47.91176" lon="6.83199">
        <ele>860.4</ele>
        <time>2022-09-02T07:38:33Z</time>
      </trkpt>
      <trkpt lat="47.91178" lon="6.83199">
        <ele>860.2</ele>
        <time>2022-09-02T07:38:34Z</time>
      </trkpt>
      <trkpt lat="47.91179" lon="6.832">
        <ele>860.4</ele>
        <time>2022-09-02T07:38:35Z</time>
      </trkpt>
      <trkpt lat="47.9118" lon="6.832">
        <ele>860.3</ele>
        <time>2022-09-02T07:38:36Z</time>
      </trkpt>
      <trkpt lat="47.9118" lon="6.83201">
        <ele>860.6</ele>
        <time>2022-09-02T07:38:37Z</time>
      </trkpt>
      <trkpt lat="47.91181" lon="6.83201">
        <ele>860.5</ele>
        <time>2022-09-02T07:38:38Z</time>
      </trkpt>
      <trkpt lat="47.91182" lon="6.83202">
        <ele>860.7</ele>
        <time>2022-09-02T07:38:39Z</time>
      </trkpt>
      <trkpt lat="47.91182" lon="6.83203">
        <ele>861</ele>
        <time>2022-09-02T07:38:40Z</time>
      </trkpt>
      <trkpt lat="47.91183" lon="6.83203">
        <ele>860.9</ele>
        <time>2022-09-02T07:38:41Z</time>
      </trkpt>
      <trkpt lat="47.91183" lon="6.83204">
        <ele>861.2</ele>
        <time>2022-09-02T07:38:42Z</time>
      </trkpt>
      <trkpt lat="47.91184" lon="6.83204">
        <ele>861.1</ele>
        <time>2022-09-02T07:38:43Z</time>
      </trkpt>
      <trkpt lat="47.91185" lon="6.83205">
        <ele>861.3</ele>
        <time>2022-09-02T07:38:44Z</time>
      </trkpt>
      <trkpt lat="47.91185" lon="6.83206">
        <ele>861.6</ele>
        <time>2022-09-02T07:38:45Z</time>
      </trkpt>
      <trkpt lat="47.91186" lon="6.83207">
        <ele>861.8</ele>
        <time>2022-09-02T07:38:46Z</time>
      </trkpt>
      <trkpt lat="47.91187" lon="6.83207">
        <ele>861.8</ele>
        <time>2022-09-02T07:38:47Z</time>
      </trkpt>
      <trkpt lat="47.91188" lon="6.83208">
        <ele>862</ele>
        <time>2022-09-02T07:38:48Z</time>
      </trkpt>
      <trkpt lat="47.91189" lon="6.83208">
        <ele>861.9</ele>
        <time>2022-09-02T07:38:49Z</time>
      </trkpt>
      <trkpt lat="47.9119" lon="6.83209">
        <ele>862.1</ele>
        <time>2022-09-02T07:38:50Z</time>
      </trkpt>
      <trkpt lat="47.91191" lon="6.83209">
        <ele>862</ele>
        <time>2022-09-02T07:38:51Z</time>
      </trkpt>
      <trkpt lat="47.91191" lon="6.8321">
        <ele>862.3</ele>
        <time>2022-09-02T07:38:52Z</time>
      </trkpt>
      <trkpt lat="47.91192" lon="6.8321">
        <ele>862.3</ele>
        <time>2022-09-02T07:38:53Z</time>
      </trkpt>
      <trkpt lat="47.91193" lon="6.83211">
        <ele>862.5</ele>
        <time>2022-09-02T07:38:54Z</time>
      </trkpt>
      <trkpt lat="47.91194" lon="6.83211">
        <ele>862.4</ele>
        <time>2022-09-02T07:38:55Z</time>
      </trkpt>
      <trkpt lat="47.91195" lon="6.83212">
        <ele>862.8</ele>
        <time>2022-09-02T07:38:56Z</time>
      </trkpt>
      <trkpt lat="47.91196" lon="6.83212">
        <ele>862.9</ele>
        <time>2022-09-02T07:38:57Z</time>
      </trkpt>
      <trkpt lat="47.91197" lon="6.83213">
        <ele>863.3</ele>
        <time>2022-09-02T07:38:58Z</time>
      </trkpt>
      <trkpt lat="47.91198" lon="6.83213">
        <ele>863.4</ele>
        <time>2022-09-02T07:38:59Z</time>
      </trkpt>
      <trkpt lat="47.91199" lon="6.83213">
        <ele>863.6</ele>
        <time>2022-09-02T07:39:01Z</time>
      </trkpt>
      <trkpt lat="47.912" lon="6.83213">
        <ele>863.7</ele>
        <time>2022-09-02T07:39:03Z</time>
      </trkpt>
      <trkpt lat="47.91201" lon="6.83213">
        <ele>863.8</ele>
        <time>2022-09-02T07:39:05Z</time>
      </trkpt>
      <trkpt lat="47.91202" lon="6.83214">
        <ele>864.2</ele>
        <time>2022-09-02T07:39:06Z</time>
      </trkpt>
      <trkpt lat="47.91203" lon="6.83214">
        <ele>864.4</ele>
        <time>2022-09-02T07:39:08Z</time>
      </trkpt>
      <trkpt lat="47.91204" lon="6.83215">
        <ele>864.8</ele>
        <time>2022-09-02T07:39:10Z</time>
      </trkpt>
      <trkpt lat="47.91204" lon="6.83216">
        <ele>865.1</ele>
        <time>2022-09-02T07:39:11Z</time>
      </trkpt>
      <trkpt lat="47.91205" lon="6.83217">
        <ele>865.5</ele>
        <time>2022-09-02T07:39:13Z</time>
      </trkpt>
      <trkpt lat="47.91206" lon="6.83219">
        <ele>866.3</ele>
        <time>2022-09-02T07:39:23Z</time>
      </trkpt>
      <trkpt lat="47.91207" lon="6.8322">
        <ele>866.7</ele>
        <time>2022-09-02T07:39:24Z</time>
      </trkpt>
      <trkpt lat="47.91207" lon="6.83221">
        <ele>867</ele>
        <time>2022-09-02T07:39:25Z</time>
      </trkpt>
      <trkpt lat="47.91207" lon="6.83222">
        <ele>867.3</ele>
        <time>2022-09-02T07:39:26Z</time>
      </trkpt>
      <trkpt lat="47.91207" lon="6.83223">
        <ele>867.6</ele>
        <time>2022-09-02T07:39:27Z</time>
      </trkpt>
      <trkpt lat="47.91207" lon="6.83224">
        <ele>867.8</ele>
        <time>2022-09-02T07:39:28Z</time>
      </trkpt>
      <trkpt lat="47.91206" lon="6.83225">
        <ele>868</ele>
        <time>2022-09-02T07:39:29Z</time>
      </trkpt>
      <trkpt lat="47.91206" lon="6.83226">
        <ele>868.3</ele>
        <time>2022-09-02T07:39:30Z</time>
      </trkpt>
      <trkpt lat="47.91206" lon="6.83227">
        <ele>868.6</ele>
        <time>2022-09-02T07:39:31Z</time>
      </trkpt>
      <trkpt lat="47.91205" lon="6.83228">
        <ele>868.7</ele>
        <time>2022-09-02T07:39:32Z</time>
      </trkpt>
      <trkpt lat="47.91205" lon="6.83229">
        <ele>869</ele>
        <time>2022-09-02T07:39:33Z</time>
      </trkpt>
      <trkpt lat="47.91205" lon="6.8323">
        <ele>869.3</ele>
        <time>2022-09-02T07:39:34Z</time>
      </trkpt>
      <trkpt lat="47.91204" lon="6.8323">
        <ele>869.2</ele>
        <time>2022-09-02T07:39:35Z</time>
      </trkpt>
      <trkpt lat="47.91203" lon="6.83232">
        <ele>869.6</ele>
        <time>2022-09-02T07:39:36Z</time>
      </trkpt>
      <trkpt lat="47.91203" lon="6.83233">
        <ele>869.9</ele>
        <time>2022-09-02T07:39:37Z</time>
      </trkpt>
      <trkpt lat="47.91202" lon="6.83234">
        <ele>870.1</ele>
        <time>2022-09-02T07:39:38Z</time>
      </trkpt>
      <trkpt lat="47.91201" lon="6.83235">
        <ele>870.3</ele>
        <time>2022-09-02T07:39:39Z</time>
      </trkpt>
      <trkpt lat="47.912" lon="6.83236">
        <ele>870.5</ele>
        <time>2022-09-02T07:39:40Z</time>
      </trkpt>
      <trkpt lat="47.91199" lon="6.83236">
        <ele>870.4</ele>
        <time>2022-09-02T07:39:41Z</time>
      </trkpt>
      <trkpt lat="47.91198" lon="6.83237">
        <ele>870.6</ele>
        <time>2022-09-02T07:39:42Z</time>
      </trkpt>
      <trkpt lat="47.91197" lon="6.83237">
        <ele>870.5</ele>
        <time>2022-09-02T07:39:43Z</time>
      </trkpt>
      <trkpt lat="47.91196" lon="6.83237">
        <ele>870.4</ele>
        <time>2022-09-02T07:39:44Z</time>
      </trkpt>
      <trkpt lat="47.91194" lon="6.83238">
        <ele>870.6</ele>
        <time>2022-09-02T07:39:45Z</time>
      </trkpt>
      <trkpt lat="47.91193" lon="6.83238">
        <ele>870.6</ele>
        <time>2022-09-02T07:39:46Z</time>
      </trkpt>
      <trkpt lat="47.91191" lon="6.83238">
        <ele>870.7</ele>
        <time>2022-09-02T07:39:47Z</time>
      </trkpt>
      <trkpt lat="47.9119" lon="6.83238">
        <ele>870.8</ele>
        <time>2022-09-02T07:39:48Z</time>
      </trkpt>
      <trkpt lat="47.91189" lon="6.83238">
        <ele>870.8</ele>
        <time>2022-09-02T07:39:49Z</time>
      </trkpt>
      <trkpt lat="47.91188" lon="6.83238">
        <ele>870.9</ele>
        <time>2022-09-02T07:39:50Z</time>
      </trkpt>
      <trkpt lat="47.91187" lon="6.83238">
        <ele>870.9</ele>
        <time>2022-09-02T07:39:51Z</time>
      </trkpt>
      <trkpt lat="47.91187" lon="6.83239">
        <ele>871.2</ele>
        <time>2022-09-02T07:39:52Z</time>
      </trkpt>
      <trkpt lat="47.91186" lon="6.83239">
        <ele>871.3</ele>
        <time>2022-09-02T07:39:53Z</time>
      </trkpt>
      <trkpt lat="47.91185" lon="6.83239">
        <ele>871.3</ele>
        <time>2022-09-02T07:39:55Z</time>
      </trkpt>
      <trkpt lat="47.91184" lon="6.83239">
        <ele>871.4</ele>
        <time>2022-09-02T07:39:56Z</time>
      </trkpt>
      <trkpt lat="47.91183" lon="6.83239">
        <ele>871.4</ele>
        <time>2022-09-02T07:39:58Z</time>
      </trkpt>
      <trkpt lat="47.91182" lon="6.8324">
        <ele>871.7</ele>
        <time>2022-09-02T07:39:59Z</time>
      </trkpt>
      <trkpt lat="47.91181" lon="6.8324">
        <ele>871.8</ele>
        <time>2022-09-02T07:40:00Z</time>
      </trkpt>
      <trkpt lat="47.9118" lon="6.8324">
        <ele>871.8</ele>
        <time>2022-09-02T07:40:01Z</time>
      </trkpt>
      <trkpt lat="47.91179" lon="6.83241">
        <ele>872.1</ele>
        <time>2022-09-02T07:40:02Z</time>
      </trkpt>
      <trkpt lat="47.91178" lon="6.83241">
        <ele>872.2</ele>
        <time>2022-09-02T07:40:03Z</time>
      </trkpt>
      <trkpt lat="47.91177" lon="6.83242">
        <ele>872.5</ele>
        <time>2022-09-02T07:40:04Z</time>
      </trkpt>
      <trkpt lat="47.91176" lon="6.83242">
        <ele>872.6</ele>
        <time>2022-09-02T07:40:05Z</time>
      </trkpt>
      <trkpt lat="47.91175" lon="6.83242">
        <ele>872.6</ele>
        <time>2022-09-02T07:40:06Z</time>
      </trkpt>
      <trkpt lat="47.91175" lon="6.83243">
        <ele>872.9</ele>
        <time>2022-09-02T07:40:07Z</time>
      </trkpt>
      <trkpt lat="47.91173" lon="6.83243">
        <ele>873</ele>
        <time>2022-09-02T07:40:08Z</time>
      </trkpt>
      <trkpt lat="47.91172" lon="6.83244">
        <ele>873.3</ele>
        <time>2022-09-02T07:40:09Z</time>
      </trkpt>
      <trkpt lat="47.91171" lon="6.83244">
        <ele>873.3</ele>
        <time>2022-09-02T07:40:10Z</time>
      </trkpt>
      <trkpt lat="47.91169" lon="6.83245">
        <ele>873.6</ele>
        <time>2022-09-02T07:40:11Z</time>
      </trkpt>
      <trkpt lat="47.91168" lon="6.83245">
        <ele>873.7</ele>
        <time>2022-09-02T07:40:12Z</time>
      </trkpt>
      <trkpt lat="47.91166" lon="6.83245">
        <ele>873.8</ele>
        <time>2022-09-02T07:40:13Z</time>
      </trkpt>
      <trkpt lat="47.91165" lon="6.83245">
        <ele>873.9</ele>
        <time>2022-09-02T07:40:14Z</time>
      </trkpt>
      <trkpt lat="47.91164" lon="6.83245">
        <ele>874</ele>
        <time>2022-09-02T07:40:15Z</time>
      </trkpt>
      <trkpt lat="47.91163" lon="6.83246">
        <ele>874.3</ele>
        <time>2022-09-02T07:40:16Z</time>
      </trkpt>
      <trkpt lat="47.91162" lon="6.83246">
        <ele>874.4</ele>
        <time>2022-09-02T07:40:17Z</time>
      </trkpt>
      <trkpt lat="47.91161" lon="6.83246">
        <ele>874.5</ele>
        <time>2022-09-02T07:40:18Z</time>
      </trkpt>
      <trkpt lat="47.9116" lon="6.83246">
        <ele>874.6</ele>
        <time>2022-09-02T07:40:19Z</time>
      </trkpt>
      <trkpt lat="47.91159" lon="6.83246">
        <ele>874.7</ele>
        <time>2022-09-02T07:40:20Z</time>
      </trkpt>
      <trkpt lat="47.91158" lon="6.83246">
        <ele>874.8</ele>
        <time>2022-09-02T07:40:21Z</time>
      </trkpt>
      <trkpt lat="47.91158" lon="6.83247">
        <ele>875</ele>
        <time>2022-09-02T07:40:22Z</time>
      </trkpt>
      <trkpt lat="47.91157" lon="6.83247">
        <ele>875.1</ele>
        <time>2022-09-02T07:40:23Z</time>
      </trkpt>
      <trkpt lat="47.91156" lon="6.83247">
        <ele>875.1</ele>
        <time>2022-09-02T07:40:24Z</time>
      </trkpt>
      <trkpt lat="47.91155" lon="6.83247">
        <ele>875.2</ele>
        <time>2022-09-02T07:40:26Z</time>
      </trkpt>
      <trkpt lat="47.91154" lon="6.83248">
        <ele>875.5</ele>
        <time>2022-09-02T07:40:27Z</time>
      </trkpt>
      <trkpt lat="47.91153" lon="6.83248">
        <ele>875.6</ele>
        <time>2022-09-02T07:40:28Z</time>
      </trkpt>
      <trkpt lat="47.91152" lon="6.83249">
        <ele>875.9</ele>
        <time>2022-09-02T07:40:30Z</time>
      </trkpt>
      <trkpt lat="47.91151" lon="6.83249">
        <ele>875.9</ele>
        <time>2022-09-02T07:40:31Z</time>
      </trkpt>
      <trkpt lat="47.9115" lon="6.83249">
        <ele>876</ele>
        <time>2022-09-02T07:40:33Z</time>
      </trkpt>
      <trkpt lat="47.91148" lon="6.8325">
        <ele>876.3</ele>
        <time>2022-09-02T07:40:40Z</time>
      </trkpt>
      <trkpt lat="47.91147" lon="6.8325">
        <ele>876.4</ele>
        <time>2022-09-02T07:40:41Z</time>
      </trkpt>
      <trkpt lat="47.91145" lon="6.8325">
        <ele>876.6</ele>
        <time>2022-09-02T07:40:42Z</time>
      </trkpt>
      <trkpt lat="47.91144" lon="6.8325">
        <ele>876.6</ele>
        <time>2022-09-02T07:40:43Z</time>
      </trkpt>
      <trkpt lat="47.91143" lon="6.8325">
        <ele>876.7</ele>
        <time>2022-09-02T07:40:44Z</time>
      </trkpt>
      <trkpt lat="47.91141" lon="6.8325">
        <ele>876.8</ele>
        <time>2022-09-02T07:40:45Z</time>
      </trkpt>
      <trkpt lat="47.9114" lon="6.83249">
        <ele>876.8</ele>
        <time>2022-09-02T07:40:46Z</time>
      </trkpt>
      <trkpt lat="47.91139" lon="6.8325">
        <ele>877</ele>
        <time>2022-09-02T07:40:47Z</time>
      </trkpt>
      <trkpt lat="47.91138" lon="6.8325">
        <ele>877.1</ele>
        <time>2022-09-02T07:40:48Z</time>
      </trkpt>
      <trkpt lat="47.91136" lon="6.83253">
        <ele>878</ele>
        <time>2022-09-02T07:41:57Z</time>
      </trkpt>
      <trkpt lat="47.91134" lon="6.83255">
        <ele>878.6</ele>
        <time>2022-09-02T07:41:58Z</time>
      </trkpt>
      <trkpt lat="47.91133" lon="6.83257">
        <ele>879.2</ele>
        <time>2022-09-02T07:41:59Z</time>
      </trkpt>
      <trkpt lat="47.91132" lon="6.83257">
        <ele>879.3</ele>
        <time>2022-09-02T07:42:00Z</time>
      </trkpt>
      <trkpt lat="47.91131" lon="6.83258">
        <ele>879.6</ele>
        <time>2022-09-02T07:42:01Z</time>
      </trkpt>
      <trkpt lat="47.9113" lon="6.83257">
        <ele>879.4</ele>
        <time>2022-09-02T07:42:15Z</time>
      </trkpt>
      <trkpt lat="47.91129" lon="6.83257">
        <ele>879.5</ele>
        <time>2022-09-02T07:42:16Z</time>
      </trkpt>
      <trkpt lat="47.91129" lon="6.83256">
        <ele>879.2</ele>
        <time>2022-09-02T07:42:17Z</time>
      </trkpt>
      <trkpt lat="47.9113" lon="6.83256">
        <ele>879.2</ele>
        <time>2022-09-02T07:42:20Z</time>
      </trkpt>
      <trkpt lat="47.9113" lon="6.83255">
        <ele>878.9</ele>
        <time>2022-09-02T07:42:21Z</time>
      </trkpt>
      <trkpt lat="47.91131" lon="6.83256">
        <ele>879.1</ele>
        <time>2022-09-02T07:42:22Z</time>
      </trkpt>
      <trkpt lat="47.91132" lon="6.83256">
        <ele>879</ele>
        <time>2022-09-02T07:42:23Z</time>
      </trkpt>
      <trkpt lat="47.91133" lon="6.83256">
        <ele>878.9</ele>
        <time>2022-09-02T07:42:24Z</time>
      </trkpt>
      <trkpt lat="47.91134" lon="6.83257">
        <ele>879.1</ele>
        <time>2022-09-02T07:42:26Z</time>
      </trkpt>
      <trkpt lat="47.91135" lon="6.83257">
        <ele>879</ele>
        <time>2022-09-02T07:42:27Z</time>
      </trkpt>
      <trkpt lat="47.91136" lon="6.83257">
        <ele>879</ele>
        <time>2022-09-02T07:42:28Z</time>
      </trkpt>
      <trkpt lat="47.91136" lon="6.83258">
        <ele>879.2</ele>
        <time>2022-09-02T07:42:29Z</time>
      </trkpt>
      <trkpt lat="47.91137" lon="6.83258">
        <ele>879.2</ele>
        <time>2022-09-02T07:42:30Z</time>
      </trkpt>
      <trkpt lat="47.91138" lon="6.83259">
        <ele>879.3</ele>
        <time>2022-09-02T07:42:31Z</time>
      </trkpt>
      <trkpt lat="47.91139" lon="6.83259">
        <ele>879.3</ele>
        <time>2022-09-02T07:42:32Z</time>
      </trkpt>
      <trkpt lat="47.9114" lon="6.83258">
        <ele>878.9</ele>
        <time>2022-09-02T07:42:34Z</time>
      </trkpt>
      <trkpt lat="47.91141" lon="6.83258">
        <ele>878.8</ele>
        <time>2022-09-02T07:42:35Z</time>
      </trkpt>
      <trkpt lat="47.91142" lon="6.83257">
        <ele>878.5</ele>
        <time>2022-09-02T07:42:36Z</time>
      </trkpt>
      <trkpt lat="47.91143" lon="6.83257">
        <ele>878.4</ele>
        <time>2022-09-02T07:42:37Z</time>
      </trkpt>
      <trkpt lat="47.91144" lon="6.83257">
        <ele>878.3</ele>
        <time>2022-09-02T07:42:38Z</time>
      </trkpt>
      <trkpt lat="47.91145" lon="6.83256">
        <ele>878</ele>
        <time>2022-09-02T07:42:39Z</time>
      </trkpt>
      <trkpt lat="47.91146" lon="6.83256">
        <ele>877.9</ele>
        <time>2022-09-02T07:42:41Z</time>
      </trkpt>
      <trkpt lat="47.91147" lon="6.83256">
        <ele>877.9</ele>
        <time>2022-09-02T07:42:43Z</time>
      </trkpt>
      <trkpt lat="47.91148" lon="6.83256">
        <ele>877.8</ele>
        <time>2022-09-02T07:42:45Z</time>
      </trkpt>
      <trkpt lat="47.91149" lon="6.83256">
        <ele>877.7</ele>
        <time>2022-09-02T07:42:46Z</time>
      </trkpt>
      <trkpt lat="47.9115" lon="6.83256">
        <ele>877.6</ele>
        <time>2022-09-02T07:42:48Z</time>
      </trkpt>
      <trkpt lat="47.91151" lon="6.83256">
        <ele>877.5</ele>
        <time>2022-09-02T07:42:49Z</time>
      </trkpt>
      <trkpt lat="47.91152" lon="6.83256">
        <ele>877.5</ele>
        <time>2022-09-02T07:42:50Z</time>
      </trkpt>
      <trkpt lat="47.91153" lon="6.83256">
        <ele>877.4</ele>
        <time>2022-09-02T07:42:51Z</time>
      </trkpt>
      <trkpt lat="47.91154" lon="6.83256">
        <ele>877.3</ele>
        <time>2022-09-02T07:42:52Z</time>
      </trkpt>
      <trkpt lat="47.91155" lon="6.83256">
        <ele>877.2</ele>
        <time>2022-09-02T07:42:53Z</time>
      </trkpt>
      <trkpt lat="47.91157" lon="6.83256">
        <ele>877.1</ele>
        <time>2022-09-02T07:42:54Z</time>
      </trkpt>
      <trkpt lat="47.91158" lon="6.83257">
        <ele>877.2</ele>
        <time>2022-09-02T07:42:55Z</time>
      </trkpt>
      <trkpt lat="47.91159" lon="6.83257">
        <ele>877.1</ele>
        <time>2022-09-02T07:42:56Z</time>
      </trkpt>
      <trkpt lat="47.9116" lon="6.83257">
        <ele>877.1</ele>
        <time>2022-09-02T07:42:57Z</time>
      </trkpt>
      <trkpt lat="47.91161" lon="6.83257">
        <ele>877</ele>
        <time>2022-09-02T07:42:58Z</time>
      </trkpt>
      <trkpt lat="47.91162" lon="6.83258">
        <ele>877.1</ele>
        <time>2022-09-02T07:42:59Z</time>
      </trkpt>
      <trkpt lat="47.91164" lon="6.83258">
        <ele>876.9</ele>
        <time>2022-09-02T07:43:05Z</time>
      </trkpt>
      <trkpt lat="47.91164" lon="6.83259">
        <ele>877.2</ele>
        <time>2022-09-02T07:43:06Z</time>
      </trkpt>
      <trkpt lat="47.91165" lon="6.83259">
        <ele>877.1</ele>
        <time>2022-09-02T07:43:07Z</time>
      </trkpt>
      <trkpt lat="47.91167" lon="6.8326">
        <ele>877.2</ele>
        <time>2022-09-02T07:43:13Z</time>
      </trkpt>
      <trkpt lat="47.91168" lon="6.8326">
        <ele>877.1</ele>
        <time>2022-09-02T07:43:14Z</time>
      </trkpt>
      <trkpt lat="47.9117" lon="6.8326">
        <ele>877.1</ele>
        <time>2022-09-02T07:43:15Z</time>
      </trkpt>
      <trkpt lat="47.91171" lon="6.83261">
        <ele>877.3</ele>
        <time>2022-09-02T07:43:16Z</time>
      </trkpt>
      <trkpt lat="47.91172" lon="6.83261">
        <ele>877.3</ele>
        <time>2022-09-02T07:43:17Z</time>
      </trkpt>
      <trkpt lat="47.91174" lon="6.83261">
        <ele>877.3</ele>
        <time>2022-09-02T07:43:18Z</time>
      </trkpt>
      <trkpt lat="47.91175" lon="6.8326">
        <ele>877.1</ele>
        <time>2022-09-02T07:43:19Z</time>
      </trkpt>
      <trkpt lat="47.91176" lon="6.8326">
        <ele>877.1</ele>
        <time>2022-09-02T07:43:20Z</time>
      </trkpt>
      <trkpt lat="47.91177" lon="6.83259">
        <ele>876.8</ele>
        <time>2022-09-02T07:43:21Z</time>
      </trkpt>
      <trkpt lat="47.91178" lon="6.83259">
        <ele>876.8</ele>
        <time>2022-09-02T07:43:22Z</time>
      </trkpt>
      <trkpt lat="47.91179" lon="6.83259">
        <ele>876.8</ele>
        <time>2022-09-02T07:43:23Z</time>
      </trkpt>
      <trkpt lat="47.9118" lon="6.83259">
        <ele>876.8</ele>
        <time>2022-09-02T07:43:24Z</time>
      </trkpt>
      <trkpt lat="47.91181" lon="6.83258">
        <ele>876.5</ele>
        <time>2022-09-02T07:43:25Z</time>
      </trkpt>
      <trkpt lat="47.91183" lon="6.83258">
        <ele>876.5</ele>
        <time>2022-09-02T07:43:26Z</time>
      </trkpt>
      <trkpt lat="47.91185" lon="6.83259">
        <ele>876.7</ele>
        <time>2022-09-02T07:43:27Z</time>
      </trkpt>
      <trkpt lat="47.91187" lon="6.83259">
        <ele>876.7</ele>
        <time>2022-09-02T07:43:28Z</time>
      </trkpt>
      <trkpt lat="47.91189" lon="6.8326">
        <ele>876.9</ele>
        <time>2022-09-02T07:43:29Z</time>
      </trkpt>
      <trkpt lat="47.9119" lon="6.8326">
        <ele>876.9</ele>
        <time>2022-09-02T07:43:30Z</time>
      </trkpt>
      <trkpt lat="47.91192" lon="6.8326">
        <ele>876.9</ele>
        <time>2022-09-02T07:43:31Z</time>
      </trkpt>
      <trkpt lat="47.91193" lon="6.8326">
        <ele>876.9</ele>
        <time>2022-09-02T07:43:32Z</time>
      </trkpt>
      <trkpt lat="47.91194" lon="6.8326">
        <ele>876.9</ele>
        <time>2022-09-02T07:43:33Z</time>
      </trkpt>
      <trkpt lat="47.91195" lon="6.8326">
        <ele>876.9</ele>
        <time>2022-09-02T07:43:35Z</time>
      </trkpt>
      <trkpt lat="47.91196" lon="6.83261">
        <ele>877.3</ele>
        <time>2022-09-02T07:43:36Z</time>
      </trkpt>
      <trkpt lat="47.91197" lon="6.83261">
        <ele>877.4</ele>
        <time>2022-09-02T07:43:37Z</time>
      </trkpt>
      <trkpt lat="47.91198" lon="6.83262">
        <ele>877.7</ele>
        <time>2022-09-02T07:43:38Z</time>
      </trkpt>
      <trkpt lat="47.91199" lon="6.83262">
        <ele>877.8</ele>
        <time>2022-09-02T07:43:39Z</time>
      </trkpt>
      <trkpt lat="47.91201" lon="6.83263">
        <ele>878.2</ele>
        <time>2022-09-02T07:43:40Z</time>
      </trkpt>
      <trkpt lat="47.91202" lon="6.83264">
        <ele>878.6</ele>
        <time>2022-09-02T07:43:41Z</time>
      </trkpt>
      <trkpt lat="47.91203" lon="6.83265">
        <ele>878.9</ele>
        <time>2022-09-02T07:43:42Z</time>
      </trkpt>
      <trkpt lat="47.91205" lon="6.83265">
        <ele>879.1</ele>
        <time>2022-09-02T07:43:43Z</time>
      </trkpt>
      <trkpt lat="47.91206" lon="6.83266">
        <ele>879.4</ele>
        <time>2022-09-02T07:43:44Z</time>
      </trkpt>
      <trkpt lat="47.91208" lon="6.83267">
        <ele>879.9</ele>
        <time>2022-09-02T07:43:45Z</time>
      </trkpt>
      <trkpt lat="47.91209" lon="6.83269">
        <ele>880.5</ele>
        <time>2022-09-02T07:43:46Z</time>
      </trkpt>
      <trkpt lat="47.9121" lon="6.8327">
        <ele>880.9</ele>
        <time>2022-09-02T07:43:47Z</time>
      </trkpt>
      <trkpt lat="47.91211" lon="6.83271">
        <ele>881.2</ele>
        <time>2022-09-02T07:43:48Z</time>
      </trkpt>
      <trkpt lat="47.91212" lon="6.83271">
        <ele>881.3</ele>
        <time>2022-09-02T07:43:49Z</time>
      </trkpt>
      <trkpt lat="47.91214" lon="6.83272">
        <ele>881.7</ele>
        <time>2022-09-02T07:43:57Z</time>
      </trkpt>
      <trkpt lat="47.91215" lon="6.83273">
        <ele>882.1</ele>
        <time>2022-09-02T07:43:58Z</time>
      </trkpt>
      <trkpt lat="47.91216" lon="6.83274">
        <ele>882.5</ele>
        <time>2022-09-02T07:43:59Z</time>
      </trkpt>
      <trkpt lat="47.91217" lon="6.83275">
        <ele>882.8</ele>
        <time>2022-09-02T07:44:01Z</time>
      </trkpt>
      <trkpt lat="47.91217" lon="6.83276">
        <ele>883.1</ele>
        <time>2022-09-02T07:44:03Z</time>
      </trkpt>
      <trkpt lat="47.91218" lon="6.83276">
        <ele>883.2</ele>
        <time>2022-09-02T07:44:04Z</time>
      </trkpt>
      <trkpt lat="47.91218" lon="6.83277">
        <ele>883.5</ele>
        <time>2022-09-02T07:44:05Z</time>
      </trkpt>
      <trkpt lat="47.91219" lon="6.83278">
        <ele>883.8</ele>
        <time>2022-09-02T07:44:06Z</time>
      </trkpt>
      <trkpt lat="47.9122" lon="6.83278">
        <ele>883.9</ele>
        <time>2022-09-02T07:44:07Z</time>
      </trkpt>
      <trkpt lat="47.91221" lon="6.83279">
        <ele>884.3</ele>
        <time>2022-09-02T07:44:13Z</time>
      </trkpt>
      <trkpt lat="47.91222" lon="6.83279">
        <ele>884.3</ele>
        <time>2022-09-02T07:44:15Z</time>
      </trkpt>
      <trkpt lat="47.91223" lon="6.83279">
        <ele>884.5</ele>
        <time>2022-09-02T07:44:16Z</time>
      </trkpt>
      <trkpt lat="47.91224" lon="6.83279">
        <ele>884.7</ele>
        <time>2022-09-02T07:44:17Z</time>
      </trkpt>
      <trkpt lat="47.91225" lon="6.83279">
        <ele>884.9</ele>
        <time>2022-09-02T07:44:20Z</time>
      </trkpt>
      <trkpt lat="47.91225" lon="6.83278">
        <ele>884.6</ele>
        <time>2022-09-02T07:44:21Z</time>
      </trkpt>
      <trkpt lat="47.91226" lon="6.83278">
        <ele>884.7</ele>
        <time>2022-09-02T07:44:22Z</time>
      </trkpt>
      <trkpt lat="47.91227" lon="6.83277">
        <ele>884.6</ele>
        <time>2022-09-02T07:44:23Z</time>
      </trkpt>
      <trkpt lat="47.91228" lon="6.83277">
        <ele>884.8</ele>
        <time>2022-09-02T07:44:24Z</time>
      </trkpt>
      <trkpt lat="47.91229" lon="6.83276">
        <ele>884.7</ele>
        <time>2022-09-02T07:44:25Z</time>
      </trkpt>
      <trkpt lat="47.9123" lon="6.83275">
        <ele>884.6</ele>
        <time>2022-09-02T07:44:26Z</time>
      </trkpt>
      <trkpt lat="47.91231" lon="6.83275">
        <ele>884.8</ele>
        <time>2022-09-02T07:44:27Z</time>
      </trkpt>
      <trkpt lat="47.91232" lon="6.83274">
        <ele>884.7</ele>
        <time>2022-09-02T07:44:28Z</time>
      </trkpt>
      <trkpt lat="47.91233" lon="6.83274">
        <ele>884.9</ele>
        <time>2022-09-02T07:44:29Z</time>
      </trkpt>
      <trkpt lat="47.91234" lon="6.83273">
        <ele>884.8</ele>
        <time>2022-09-02T07:44:30Z</time>
      </trkpt>
      <trkpt lat="47.91236" lon="6.83273">
        <ele>885.2</ele>
        <time>2022-09-02T07:44:31Z</time>
      </trkpt>
      <trkpt lat="47.91237" lon="6.83273">
        <ele>885.4</ele>
        <time>2022-09-02T07:44:33Z</time>
      </trkpt>
      <trkpt lat="47.91237" lon="6.83274">
        <ele>885.6</ele>
        <time>2022-09-02T07:44:34Z</time>
      </trkpt>
      <trkpt lat="47.91238" lon="6.83275">
        <ele>886.1</ele>
        <time>2022-09-02T07:44:35Z</time>
      </trkpt>
      <trkpt lat="47.91239" lon="6.83275">
        <ele>886.3</ele>
        <time>2022-09-02T07:44:36Z</time>
      </trkpt>
      <trkpt lat="47.9124" lon="6.83275">
        <ele>886.5</ele>
        <time>2022-09-02T07:44:37Z</time>
      </trkpt>
      <trkpt lat="47.9124" lon="6.83274">
        <ele>886.2</ele>
        <time>2022-09-02T07:44:38Z</time>
      </trkpt>
      <trkpt lat="47.91241" lon="6.83274">
        <ele>886.4</ele>
        <time>2022-09-02T07:44:39Z</time>
      </trkpt>
      <trkpt lat="47.91242" lon="6.83273">
        <ele>886.3</ele>
        <time>2022-09-02T07:44:40Z</time>
      </trkpt>
      <trkpt lat="47.91243" lon="6.83273">
        <ele>886.5</ele>
        <time>2022-09-02T07:44:41Z</time>
      </trkpt>
      <trkpt lat="47.91244" lon="6.83272">
        <ele>886.4</ele>
        <time>2022-09-02T07:44:42Z</time>
      </trkpt>
      <trkpt lat="47.91246" lon="6.83271">
        <ele>886.5</ele>
        <time>2022-09-02T07:44:44Z</time>
      </trkpt>
      <trkpt lat="47.91247" lon="6.8327">
        <ele>886.5</ele>
        <time>2022-09-02T07:44:45Z</time>
      </trkpt>
      <trkpt lat="47.91248" lon="6.83269">
        <ele>886.4</ele>
        <time>2022-09-02T07:44:46Z</time>
      </trkpt>
      <trkpt lat="47.91249" lon="6.83268">
        <ele>886.3</ele>
        <time>2022-09-02T07:44:47Z</time>
      </trkpt>
      <trkpt lat="47.91251" lon="6.83267">
        <ele>886.5</ele>
        <time>2022-09-02T07:44:48Z</time>
      </trkpt>
      <trkpt lat="47.91252" lon="6.83267">
        <ele>886.7</ele>
        <time>2022-09-02T07:44:49Z</time>
      </trkpt>
      <trkpt lat="47.91253" lon="6.83266">
        <ele>886.6</ele>
        <time>2022-09-02T07:44:50Z</time>
      </trkpt>
      <trkpt lat="47.91254" lon="6.83265">
        <ele>886.5</ele>
        <time>2022-09-02T07:44:51Z</time>
      </trkpt>
      <trkpt lat="47.91255" lon="6.83264">
        <ele>886.4</ele>
        <time>2022-09-02T07:44:52Z</time>
      </trkpt>
      <trkpt lat="47.91256" lon="6.83263">
        <ele>886.3</ele>
        <time>2022-09-02T07:44:53Z</time>
      </trkpt>
      <trkpt lat="47.91257" lon="6.83263">
        <ele>886.5</ele>
        <time>2022-09-02T07:44:54Z</time>
      </trkpt>
      <trkpt lat="47.91258" lon="6.83262">
        <ele>886.4</ele>
        <time>2022-09-02T07:44:55Z</time>
      </trkpt>
      <trkpt lat="47.91259" lon="6.83261">
        <ele>886.3</ele>
        <time>2022-09-02T07:44:56Z</time>
      </trkpt>
      <trkpt lat="47.9126" lon="6.8326">
        <ele>886.2</ele>
        <time>2022-09-02T07:44:57Z</time>
      </trkpt>
      <trkpt lat="47.91261" lon="6.8326">
        <ele>886.4</ele>
        <time>2022-09-02T07:44:58Z</time>
      </trkpt>
      <trkpt lat="47.91262" lon="6.83259">
        <ele>886.3</ele>
        <time>2022-09-02T07:44:59Z</time>
      </trkpt>
      <trkpt lat="47.91263" lon="6.83259">
        <ele>886.4</ele>
        <time>2022-09-02T07:45:00Z</time>
      </trkpt>
      <trkpt lat="47.91264" lon="6.83259">
        <ele>886.6</ele>
        <time>2022-09-02T07:45:01Z</time>
      </trkpt>
      <trkpt lat="47.91265" lon="6.83258">
        <ele>886.5</ele>
        <time>2022-09-02T07:45:02Z</time>
      </trkpt>
      <trkpt lat="47.91266" lon="6.83258">
        <ele>886.7</ele>
        <time>2022-09-02T07:45:03Z</time>
      </trkpt>
      <trkpt lat="47.91267" lon="6.83257">
        <ele>886.5</ele>
        <time>2022-09-02T07:45:04Z</time>
      </trkpt>
      <trkpt lat="47.91268" lon="6.83257">
        <ele>886.7</ele>
        <time>2022-09-02T07:45:05Z</time>
      </trkpt>
      <trkpt lat="47.91269" lon="6.83257">
        <ele>886.8</ele>
        <time>2022-09-02T07:45:06Z</time>
      </trkpt>
      <trkpt lat="47.91269" lon="6.83256">
        <ele>886.5</ele>
        <time>2022-09-02T07:45:07Z</time>
      </trkpt>
      <trkpt lat="47.9127" lon="6.83256">
        <ele>886.7</ele>
        <time>2022-09-02T07:45:08Z</time>
      </trkpt>
      <trkpt lat="47.91271" lon="6.83255">
        <ele>886.6</ele>
        <time>2022-09-02T07:45:09Z</time>
      </trkpt>
      <trkpt lat="47.91272" lon="6.83254">
        <ele>886.4</ele>
        <time>2022-09-02T07:45:10Z</time>
      </trkpt>
      <trkpt lat="47.91273" lon="6.83252">
        <ele>885.9</ele>
        <time>2022-09-02T07:45:11Z</time>
      </trkpt>
      <trkpt lat="47.91274" lon="6.83251">
        <ele>885.8</ele>
        <time>2022-09-02T07:45:12Z</time>
      </trkpt>
      <trkpt lat="47.91275" lon="6.83251">
        <ele>885.9</ele>
        <time>2022-09-02T07:45:13Z</time>
      </trkpt>
      <trkpt lat="47.91276" lon="6.8325">
        <ele>885.7</ele>
        <time>2022-09-02T07:45:14Z</time>
      </trkpt>
      <trkpt lat="47.91277" lon="6.8325">
        <ele>885.9</ele>
        <time>2022-09-02T07:45:15Z</time>
      </trkpt>
      <trkpt lat="47.91278" lon="6.8325">
        <ele>886</ele>
        <time>2022-09-02T07:45:16Z</time>
      </trkpt>
      <trkpt lat="47.91278" lon="6.83251">
        <ele>886.4</ele>
        <time>2022-09-02T07:45:17Z</time>
      </trkpt>
      <trkpt lat="47.91279" lon="6.83251">
        <ele>886.6</ele>
        <time>2022-09-02T07:45:18Z</time>
      </trkpt>
      <trkpt lat="47.9128" lon="6.83251">
        <ele>886.8</ele>
        <time>2022-09-02T07:45:19Z</time>
      </trkpt>
      <trkpt lat="47.91281" lon="6.8325">
        <ele>886.7</ele>
        <time>2022-09-02T07:45:21Z</time>
      </trkpt>
      <trkpt lat="47.91282" lon="6.83249">
        <ele>886.6</ele>
        <time>2022-09-02T07:45:23Z</time>
      </trkpt>
      <trkpt lat="47.91283" lon="6.83248">
        <ele>886.5</ele>
        <time>2022-09-02T07:45:25Z</time>
      </trkpt>
      <trkpt lat="47.91286" lon="6.83247">
        <ele>886.9</ele>
        <time>2022-09-02T07:45:33Z</time>
      </trkpt>
      <trkpt lat="47.91287" lon="6.83247">
        <ele>887.1</ele>
        <time>2022-09-02T07:45:34Z</time>
      </trkpt>
      <trkpt lat="47.91289" lon="6.83246">
        <ele>887.2</ele>
        <time>2022-09-02T07:45:35Z</time>
      </trkpt>
      <trkpt lat="47.9129" lon="6.83246">
        <ele>887.4</ele>
        <time>2022-09-02T07:45:36Z</time>
      </trkpt>
      <trkpt lat="47.91291" lon="6.83245">
        <ele>887.3</ele>
        <time>2022-09-02T07:45:37Z</time>
      </trkpt>
      <trkpt lat="47.91293" lon="6.83245">
        <ele>887.7</ele>
        <time>2022-09-02T07:45:38Z</time>
      </trkpt>
      <trkpt lat="47.91294" lon="6.83245">
        <ele>888</ele>
        <time>2022-09-02T07:45:39Z</time>
      </trkpt>
      <trkpt lat="47.91295" lon="6.83245">
        <ele>888.2</ele>
        <time>2022-09-02T07:45:40Z</time>
      </trkpt>
      <trkpt lat="47.91297" lon="6.83244">
        <ele>888.3</ele>
        <time>2022-09-02T07:45:41Z</time>
      </trkpt>
      <trkpt lat="47.91298" lon="6.83244">
        <ele>888.5</ele>
        <time>2022-09-02T07:45:42Z</time>
      </trkpt>
      <trkpt lat="47.913" lon="6.83245">
        <ele>889.2</ele>
        <time>2022-09-02T07:45:43Z</time>
      </trkpt>
      <trkpt lat="47.91301" lon="6.83244">
        <ele>889.1</ele>
        <time>2022-09-02T07:45:44Z</time>
      </trkpt>
      <trkpt lat="47.91303" lon="6.83244">
        <ele>889.5</ele>
        <time>2022-09-02T07:45:45Z</time>
      </trkpt>
      <trkpt lat="47.91304" lon="6.83244">
        <ele>889.7</ele>
        <time>2022-09-02T07:45:46Z</time>
      </trkpt>
      <trkpt lat="47.91305" lon="6.83244">
        <ele>889.9</ele>
        <time>2022-09-02T07:45:47Z</time>
      </trkpt>
      <trkpt lat="47.91306" lon="6.83244">
        <ele>890.1</ele>
        <time>2022-09-02T07:45:48Z</time>
      </trkpt>
      <trkpt lat="47.91307" lon="6.83244">
        <ele>890.2</ele>
        <time>2022-09-02T07:45:49Z</time>
      </trkpt>
      <trkpt lat="47.91308" lon="6.83244">
        <ele>890.3</ele>
        <time>2022-09-02T07:45:50Z</time>
      </trkpt>
      <trkpt lat="47.91309" lon="6.83243">
        <ele>890</ele>
        <time>2022-09-02T07:45:51Z</time>
      </trkpt>
      <trkpt lat="47.9131" lon="6.83243">
        <ele>890.1</ele>
        <time>2022-09-02T07:45:52Z</time>
      </trkpt>
      <trkpt lat="47.91312" lon="6.83242">
        <ele>889.9</ele>
        <time>2022-09-02T07:45:54Z</time>
      </trkpt>
      <trkpt lat="47.91313" lon="6.83242">
        <ele>890</ele>
        <time>2022-09-02T07:45:55Z</time>
      </trkpt>
      <trkpt lat="47.91314" lon="6.83242">
        <ele>890.1</ele>
        <time>2022-09-02T07:45:56Z</time>
      </trkpt>
      <trkpt lat="47.91316" lon="6.83241">
        <ele>890</ele>
        <time>2022-09-02T07:45:57Z</time>
      </trkpt>
      <trkpt lat="47.91317" lon="6.83241">
        <ele>890</ele>
        <time>2022-09-02T07:45:58Z</time>
      </trkpt>
      <trkpt lat="47.91319" lon="6.83241">
        <ele>890.2</ele>
        <time>2022-09-02T07:45:59Z</time>
      </trkpt>
      <trkpt lat="47.91321" lon="6.8324">
        <ele>890.1</ele>
        <time>2022-09-02T07:46:00Z</time>
      </trkpt>
      <trkpt lat="47.91322" lon="6.8324">
        <ele>890.2</ele>
        <time>2022-09-02T07:46:01Z</time>
      </trkpt>
      <trkpt lat="47.91323" lon="6.8324">
        <ele>890.2</ele>
        <time>2022-09-02T07:46:02Z</time>
      </trkpt>
      <trkpt lat="47.91324" lon="6.8324">
        <ele>890.3</ele>
        <time>2022-09-02T07:46:03Z</time>
      </trkpt>
      <trkpt lat="47.91324" lon="6.83239">
        <ele>890</ele>
        <time>2022-09-02T07:46:04Z</time>
      </trkpt>
      <trkpt lat="47.91325" lon="6.83238">
        <ele>889.8</ele>
        <time>2022-09-02T07:46:05Z</time>
      </trkpt>
      <trkpt lat="47.91326" lon="6.83238">
        <ele>889.9</ele>
        <time>2022-09-02T07:46:06Z</time>
      </trkpt>
      <trkpt lat="47.91327" lon="6.83238">
        <ele>890</ele>
        <time>2022-09-02T07:46:07Z</time>
      </trkpt>
      <trkpt lat="47.91328" lon="6.83237">
        <ele>889.8</ele>
        <time>2022-09-02T07:46:08Z</time>
      </trkpt>
      <trkpt lat="47.91329" lon="6.83237">
        <ele>889.9</ele>
        <time>2022-09-02T07:46:10Z</time>
      </trkpt>
      <trkpt lat="47.9133" lon="6.83237">
        <ele>890</ele>
        <time>2022-09-02T07:46:11Z</time>
      </trkpt>
      <trkpt lat="47.91331" lon="6.83237">
        <ele>890</ele>
        <time>2022-09-02T07:46:12Z</time>
      </trkpt>
      <trkpt lat="47.91332" lon="6.83237">
        <ele>890.1</ele>
        <time>2022-09-02T07:46:13Z</time>
      </trkpt>
      <trkpt lat="47.91333" lon="6.83237">
        <ele>890.2</ele>
        <time>2022-09-02T07:46:14Z</time>
      </trkpt>
      <trkpt lat="47.91335" lon="6.83237">
        <ele>890.3</ele>
        <time>2022-09-02T07:46:15Z</time>
      </trkpt>
      <trkpt lat="47.91336" lon="6.83237">
        <ele>890.4</ele>
        <time>2022-09-02T07:46:16Z</time>
      </trkpt>
      <trkpt lat="47.91337" lon="6.83237">
        <ele>890.4</ele>
        <time>2022-09-02T07:46:17Z</time>
      </trkpt>
      <trkpt lat="47.91338" lon="6.83237">
        <ele>890.5</ele>
        <time>2022-09-02T07:46:18Z</time>
      </trkpt>
      <trkpt lat="47.9134" lon="6.83237">
        <ele>890.6</ele>
        <time>2022-09-02T07:46:19Z</time>
      </trkpt>
      <trkpt lat="47.9134" lon="6.83236">
        <ele>890.3</ele>
        <time>2022-09-02T07:46:20Z</time>
      </trkpt>
      <trkpt lat="47.91341" lon="6.83236">
        <ele>890.4</ele>
        <time>2022-09-02T07:46:21Z</time>
      </trkpt>
      <trkpt lat="47.91342" lon="6.83236">
        <ele>890.4</ele>
        <time>2022-09-02T07:46:22Z</time>
      </trkpt>
      <trkpt lat="47.91343" lon="6.83235">
        <ele>890.2</ele>
        <time>2022-09-02T07:46:23Z</time>
      </trkpt>
      <trkpt lat="47.91344" lon="6.83235">
        <ele>890.3</ele>
        <time>2022-09-02T07:46:24Z</time>
      </trkpt>
      <trkpt lat="47.91346" lon="6.83235">
        <ele>890.4</ele>
        <time>2022-09-02T07:46:25Z</time>
      </trkpt>
      <trkpt lat="47.91347" lon="6.83235">
        <ele>890.4</ele>
        <time>2022-09-02T07:46:26Z</time>
      </trkpt>
      <trkpt lat="47.91348" lon="6.83235">
        <ele>890.5</ele>
        <time>2022-09-02T07:46:27Z</time>
      </trkpt>
      <trkpt lat="47.91349" lon="6.83235">
        <ele>890.5</ele>
        <time>2022-09-02T07:46:28Z</time>
      </trkpt>
      <trkpt lat="47.9135" lon="6.83234">
        <ele>890.3</ele>
        <time>2022-09-02T07:46:29Z</time>
      </trkpt>
      <trkpt lat="47.91351" lon="6.83234">
        <ele>890.4</ele>
        <time>2022-09-02T07:46:30Z</time>
      </trkpt>
      <trkpt lat="47.91352" lon="6.83234">
        <ele>890.5</ele>
        <time>2022-09-02T07:46:31Z</time>
      </trkpt>
      <trkpt lat="47.91353" lon="6.83234">
        <ele>890.5</ele>
        <time>2022-09-02T07:46:33Z</time>
      </trkpt>
      <trkpt lat="47.91354" lon="6.83234">
        <ele>890.6</ele>
        <time>2022-09-02T07:46:35Z</time>
      </trkpt>
      <trkpt lat="47.91355" lon="6.83234">
        <ele>890.6</ele>
        <time>2022-09-02T07:46:36Z</time>
      </trkpt>
      <trkpt lat="47.91355" lon="6.83233">
        <ele>890.4</ele>
        <time>2022-09-02T07:46:37Z</time>
      </trkpt>
      <trkpt lat="47.91356" lon="6.83233">
        <ele>890.4</ele>
        <time>2022-09-02T07:46:38Z</time>
      </trkpt>
      <trkpt lat="47.91357" lon="6.83233">
        <ele>890.5</ele>
        <time>2022-09-02T07:46:39Z</time>
      </trkpt>
      <trkpt lat="47.91358" lon="6.83233">
        <ele>890.5</ele>
        <time>2022-09-02T07:46:40Z</time>
      </trkpt>
      <trkpt lat="47.91359" lon="6.83232">
        <ele>890.3</ele>
        <time>2022-09-02T07:46:41Z</time>
      </trkpt>
      <trkpt lat="47.9136" lon="6.83232">
        <ele>890.4</ele>
        <time>2022-09-02T07:46:42Z</time>
      </trkpt>
      <trkpt lat="47.91361" lon="6.83232">
        <ele>890.5</ele>
        <time>2022-09-02T07:46:43Z</time>
      </trkpt>
      <trkpt lat="47.91362" lon="6.83232">
        <ele>890.6</ele>
        <time>2022-09-02T07:46:44Z</time>
      </trkpt>
      <trkpt lat="47.91363" lon="6.83232">
        <ele>890.7</ele>
        <time>2022-09-02T07:46:46Z</time>
      </trkpt>
      <trkpt lat="47.91364" lon="6.83232">
        <ele>890.8</ele>
        <time>2022-09-02T07:46:48Z</time>
      </trkpt>
      <trkpt lat="47.91365" lon="6.83231">
        <ele>890.7</ele>
        <time>2022-09-02T07:46:49Z</time>
      </trkpt>
      <trkpt lat="47.91367" lon="6.83231">
        <ele>890.9</ele>
        <time>2022-09-02T07:46:56Z</time>
      </trkpt>
      <trkpt lat="47.91368" lon="6.83231">
        <ele>891</ele>
        <time>2022-09-02T07:46:57Z</time>
      </trkpt>
      <trkpt lat="47.9137" lon="6.8323">
        <ele>891</ele>
        <time>2022-09-02T07:46:58Z</time>
      </trkpt>
      <trkpt lat="47.91371" lon="6.83229">
        <ele>890.9</ele>
        <time>2022-09-02T07:46:59Z</time>
      </trkpt>
      <trkpt lat="47.91372" lon="6.83229">
        <ele>891</ele>
        <time>2022-09-02T07:47:00Z</time>
      </trkpt>
      <trkpt lat="47.91374" lon="6.83228">
        <ele>890.9</ele>
        <time>2022-09-02T07:47:01Z</time>
      </trkpt>
      <trkpt lat="47.91375" lon="6.83227">
        <ele>890.8</ele>
        <time>2022-09-02T07:47:02Z</time>
      </trkpt>
      <trkpt lat="47.91376" lon="6.83227">
        <ele>890.9</ele>
        <time>2022-09-02T07:47:03Z</time>
      </trkpt>
      <trkpt lat="47.91378" lon="6.83227">
        <ele>891.1</ele>
        <time>2022-09-02T07:47:04Z</time>
      </trkpt>
      <trkpt lat="47.91379" lon="6.83226">
        <ele>891</ele>
        <time>2022-09-02T07:47:05Z</time>
      </trkpt>
      <trkpt lat="47.9138" lon="6.83226">
        <ele>891.1</ele>
        <time>2022-09-02T07:47:06Z</time>
      </trkpt>
      <trkpt lat="47.91381" lon="6.83226">
        <ele>891.2</ele>
        <time>2022-09-02T07:47:07Z</time>
      </trkpt>
      <trkpt lat="47.91382" lon="6.83226">
        <ele>891.3</ele>
        <time>2022-09-02T07:47:08Z</time>
      </trkpt>
      <trkpt lat="47.91383" lon="6.83226">
        <ele>891.4</ele>
        <time>2022-09-02T07:47:09Z</time>
      </trkpt>
      <trkpt lat="47.91384" lon="6.83226">
        <ele>891.5</ele>
        <time>2022-09-02T07:47:10Z</time>
      </trkpt>
      <trkpt lat="47.91386" lon="6.83225">
        <ele>891.5</ele>
        <time>2022-09-02T07:47:11Z</time>
      </trkpt>
      <trkpt lat="47.91387" lon="6.83225">
        <ele>891.6</ele>
        <time>2022-09-02T07:47:12Z</time>
      </trkpt>
      <trkpt lat="47.91388" lon="6.83225">
        <ele>891.7</ele>
        <time>2022-09-02T07:47:13Z</time>
      </trkpt>
      <trkpt lat="47.9139" lon="6.83224">
        <ele>891.7</ele>
        <time>2022-09-02T07:47:14Z</time>
      </trkpt>
      <trkpt lat="47.91391" lon="6.83223">
        <ele>891.6</ele>
        <time>2022-09-02T07:47:15Z</time>
      </trkpt>
      <trkpt lat="47.91392" lon="6.83223">
        <ele>891.8</ele>
        <time>2022-09-02T07:47:16Z</time>
      </trkpt>
      <trkpt lat="47.91394" lon="6.83222">
        <ele>891.8</ele>
        <time>2022-09-02T07:47:17Z</time>
      </trkpt>
      <trkpt lat="47.91395" lon="6.83222">
        <ele>892</ele>
        <time>2022-09-02T07:47:18Z</time>
      </trkpt>
      <trkpt lat="47.91395" lon="6.83221">
        <ele>891.7</ele>
        <time>2022-09-02T07:47:19Z</time>
      </trkpt>
      <trkpt lat="47.91396" lon="6.83221">
        <ele>891.9</ele>
        <time>2022-09-02T07:47:20Z</time>
      </trkpt>
      <trkpt lat="47.91397" lon="6.83221">
        <ele>892.1</ele>
        <time>2022-09-02T07:47:21Z</time>
      </trkpt>
      <trkpt lat="47.91398" lon="6.83221">
        <ele>892.2</ele>
        <time>2022-09-02T07:47:22Z</time>
      </trkpt>
      <trkpt lat="47.91399" lon="6.83221">
        <ele>892.4</ele>
        <time>2022-09-02T07:47:24Z</time>
      </trkpt>
      <trkpt lat="47.914" lon="6.83221">
        <ele>892.6</ele>
        <time>2022-09-02T07:47:25Z</time>
      </trkpt>
      <trkpt lat="47.91401" lon="6.83221">
        <ele>892.8</ele>
        <time>2022-09-02T07:47:26Z</time>
      </trkpt>
      <trkpt lat="47.91402" lon="6.83221">
        <ele>892.9</ele>
        <time>2022-09-02T07:47:27Z</time>
      </trkpt>
      <trkpt lat="47.91403" lon="6.8322">
        <ele>892.8</ele>
        <time>2022-09-02T07:47:28Z</time>
      </trkpt>
      <trkpt lat="47.91404" lon="6.8322">
        <ele>893</ele>
        <time>2022-09-02T07:47:29Z</time>
      </trkpt>
      <trkpt lat="47.91406" lon="6.8322">
        <ele>893.3</ele>
        <time>2022-09-02T07:47:30Z</time>
      </trkpt>
      <trkpt lat="47.91407" lon="6.8322">
        <ele>893.5</ele>
        <time>2022-09-02T07:47:31Z</time>
      </trkpt>
      <trkpt lat="47.91408" lon="6.83219">
        <ele>893.3</ele>
        <time>2022-09-02T07:47:32Z</time>
      </trkpt>
      <trkpt lat="47.9141" lon="6.83219">
        <ele>893.7</ele>
        <time>2022-09-02T07:47:33Z</time>
      </trkpt>
      <trkpt lat="47.91411" lon="6.83219">
        <ele>893.8</ele>
        <time>2022-09-02T07:47:34Z</time>
      </trkpt>
      <trkpt lat="47.91412" lon="6.83218">
        <ele>893.7</ele>
        <time>2022-09-02T07:47:35Z</time>
      </trkpt>
      <trkpt lat="47.91414" lon="6.83218">
        <ele>894</ele>
        <time>2022-09-02T07:47:36Z</time>
      </trkpt>
      <trkpt lat="47.91415" lon="6.83218">
        <ele>894.2</ele>
        <time>2022-09-02T07:47:37Z</time>
      </trkpt>
      <trkpt lat="47.91416" lon="6.83217">
        <ele>894</ele>
        <time>2022-09-02T07:47:38Z</time>
      </trkpt>
      <trkpt lat="47.91417" lon="6.83217">
        <ele>894.2</ele>
        <time>2022-09-02T07:47:39Z</time>
      </trkpt>
      <trkpt lat="47.91419" lon="6.83217">
        <ele>894.4</ele>
        <time>2022-09-02T07:47:40Z</time>
      </trkpt>
      <trkpt lat="47.9142" lon="6.83217">
        <ele>894.6</ele>
        <time>2022-09-02T07:47:41Z</time>
      </trkpt>
      <trkpt lat="47.91421" lon="6.83217">
        <ele>894.7</ele>
        <time>2022-09-02T07:47:42Z</time>
      </trkpt>
      <trkpt lat="47.91422" lon="6.83216">
        <ele>894.5</ele>
        <time>2022-09-02T07:47:43Z</time>
      </trkpt>
      <trkpt lat="47.91423" lon="6.83216">
        <ele>894.6</ele>
        <time>2022-09-02T07:47:44Z</time>
      </trkpt>
      <trkpt lat="47.91424" lon="6.83216">
        <ele>894.8</ele>
        <time>2022-09-02T07:47:45Z</time>
      </trkpt>
      <trkpt lat="47.91425" lon="6.83216">
        <ele>894.9</ele>
        <time>2022-09-02T07:47:46Z</time>
      </trkpt>
      <trkpt lat="47.91426" lon="6.83216">
        <ele>895</ele>
        <time>2022-09-02T07:47:47Z</time>
      </trkpt>
      <trkpt lat="47.91427" lon="6.83216">
        <ele>895.2</ele>
        <time>2022-09-02T07:47:49Z</time>
      </trkpt>
      <trkpt lat="47.91428" lon="6.83216">
        <ele>895.3</ele>
        <time>2022-09-02T07:47:50Z</time>
      </trkpt>
      <trkpt lat="47.9143" lon="6.83216">
        <ele>895.6</ele>
        <time>2022-09-02T07:47:51Z</time>
      </trkpt>
      <trkpt lat="47.91431" lon="6.83216">
        <ele>895.7</ele>
        <time>2022-09-02T07:47:52Z</time>
      </trkpt>
      <trkpt lat="47.91433" lon="6.83215">
        <ele>895.6</ele>
        <time>2022-09-02T07:47:53Z</time>
      </trkpt>
      <trkpt lat="47.91434" lon="6.83215">
        <ele>895.7</ele>
        <time>2022-09-02T07:47:54Z</time>
      </trkpt>
      <trkpt lat="47.91435" lon="6.83214">
        <ele>895.5</ele>
        <time>2022-09-02T07:47:55Z</time>
      </trkpt>
      <trkpt lat="47.91436" lon="6.83214">
        <ele>895.6</ele>
        <time>2022-09-02T07:47:56Z</time>
      </trkpt>
      <trkpt lat="47.91437" lon="6.83214">
        <ele>895.8</ele>
        <time>2022-09-02T07:47:57Z</time>
      </trkpt>
      <trkpt lat="47.91438" lon="6.83214">
        <ele>895.9</ele>
        <time>2022-09-02T07:47:58Z</time>
      </trkpt>
      <trkpt lat="47.91439" lon="6.83213">
        <ele>895.6</ele>
        <time>2022-09-02T07:48:00Z</time>
      </trkpt>
      <trkpt lat="47.9144" lon="6.83213">
        <ele>895.8</ele>
        <time>2022-09-02T07:48:01Z</time>
      </trkpt>
      <trkpt lat="47.91441" lon="6.83213">
        <ele>895.9</ele>
        <time>2022-09-02T07:48:03Z</time>
      </trkpt>
      <trkpt lat="47.91442" lon="6.83212">
        <ele>895.6</ele>
        <time>2022-09-02T07:48:04Z</time>
      </trkpt>
      <trkpt lat="47.91443" lon="6.83212">
        <ele>895.8</ele>
        <time>2022-09-02T07:48:05Z</time>
      </trkpt>
      <trkpt lat="47.91444" lon="6.83212">
        <ele>895.9</ele>
        <time>2022-09-02T07:48:06Z</time>
      </trkpt>
      <trkpt lat="47.91445" lon="6.83212">
        <ele>896</ele>
        <time>2022-09-02T07:48:07Z</time>
      </trkpt>
      <trkpt lat="47.91446" lon="6.83211">
        <ele>895.7</ele>
        <time>2022-09-02T07:48:08Z</time>
      </trkpt>
      <trkpt lat="47.91447" lon="6.83211">
        <ele>895.9</ele>
        <time>2022-09-02T07:48:10Z</time>
      </trkpt>
      <trkpt lat="47.91448" lon="6.8321">
        <ele>895.6</ele>
        <time>2022-09-02T07:48:11Z</time>
      </trkpt>
      <trkpt lat="47.9145" lon="6.8321">
        <ele>895.8</ele>
        <time>2022-09-02T07:48:12Z</time>
      </trkpt>
      <trkpt lat="47.91451" lon="6.8321">
        <ele>896</ele>
        <time>2022-09-02T07:48:13Z</time>
      </trkpt>
      <trkpt lat="47.91451" lon="6.83209">
        <ele>895.6</ele>
        <time>2022-09-02T07:48:14Z</time>
      </trkpt>
      <trkpt lat="47.91452" lon="6.83209">
        <ele>895.7</ele>
        <time>2022-09-02T07:48:15Z</time>
      </trkpt>
      <trkpt lat="47.91453" lon="6.83209">
        <ele>895.8</ele>
        <time>2022-09-02T07:48:16Z</time>
      </trkpt>
      <trkpt lat="47.91455" lon="6.83209">
        <ele>896.1</ele>
        <time>2022-09-02T07:48:17Z</time>
      </trkpt>
      <trkpt lat="47.91456" lon="6.83209">
        <ele>896.2</ele>
        <time>2022-09-02T07:48:18Z</time>
      </trkpt>
      <trkpt lat="47.91457" lon="6.83209">
        <ele>896.3</ele>
        <time>2022-09-02T07:48:19Z</time>
      </trkpt>
      <trkpt lat="47.91458" lon="6.83209">
        <ele>896.5</ele>
        <time>2022-09-02T07:48:20Z</time>
      </trkpt>
      <trkpt lat="47.91459" lon="6.83209">
        <ele>896.6</ele>
        <time>2022-09-02T07:48:21Z</time>
      </trkpt>
      <trkpt lat="47.9146" lon="6.83208">
        <ele>896.3</ele>
        <time>2022-09-02T07:48:23Z</time>
      </trkpt>
      <trkpt lat="47.91461" lon="6.83208">
        <ele>896.5</ele>
        <time>2022-09-02T07:48:24Z</time>
      </trkpt>
      <trkpt lat="47.91462" lon="6.83208">
        <ele>896.6</ele>
        <time>2022-09-02T07:48:26Z</time>
      </trkpt>
      <trkpt lat="47.91463" lon="6.83207">
        <ele>896.3</ele>
        <time>2022-09-02T07:48:27Z</time>
      </trkpt>
      <trkpt lat="47.91464" lon="6.83207">
        <ele>896.5</ele>
        <time>2022-09-02T07:48:29Z</time>
      </trkpt>
      <trkpt lat="47.91465" lon="6.83207">
        <ele>896.6</ele>
        <time>2022-09-02T07:48:30Z</time>
      </trkpt>
      <trkpt lat="47.91466" lon="6.83207">
        <ele>896.7</ele>
        <time>2022-09-02T07:48:32Z</time>
      </trkpt>
      <trkpt lat="47.91468" lon="6.83207">
        <ele>897</ele>
        <time>2022-09-02T07:48:33Z</time>
      </trkpt>
      <trkpt lat="47.91469" lon="6.83207">
        <ele>897.1</ele>
        <time>2022-09-02T07:48:34Z</time>
      </trkpt>
      <trkpt lat="47.91471" lon="6.83207">
        <ele>897.4</ele>
        <time>2022-09-02T07:48:35Z</time>
      </trkpt>
      <trkpt lat="47.91474" lon="6.83206">
        <ele>897.5</ele>
        <time>2022-09-02T07:48:36Z</time>
      </trkpt>
      <trkpt lat="47.91476" lon="6.83206">
        <ele>897.9</ele>
        <time>2022-09-02T07:48:37Z</time>
      </trkpt>
      <trkpt lat="47.91478" lon="6.83206">
        <ele>898.3</ele>
        <time>2022-09-02T07:48:38Z</time>
      </trkpt>
      <trkpt lat="47.91482" lon="6.83204">
        <ele>898.3</ele>
        <time>2022-09-02T07:48:46Z</time>
      </trkpt>
      <trkpt lat="47.91483" lon="6.83203">
        <ele>898.1</ele>
        <time>2022-09-02T07:48:47Z</time>
      </trkpt>
      <trkpt lat="47.91484" lon="6.83202">
        <ele>898</ele>
        <time>2022-09-02T07:48:48Z</time>
      </trkpt>
      <trkpt lat="47.91485" lon="6.83202">
        <ele>898.1</ele>
        <time>2022-09-02T07:48:49Z</time>
      </trkpt>
      <trkpt lat="47.91486" lon="6.83202">
        <ele>898.3</ele>
        <time>2022-09-02T07:48:50Z</time>
      </trkpt>
      <trkpt lat="47.91487" lon="6.83202">
        <ele>898.5</ele>
        <time>2022-09-02T07:48:51Z</time>
      </trkpt>
      <trkpt lat="47.91488" lon="6.83202">
        <ele>898.7</ele>
        <time>2022-09-02T07:48:52Z</time>
      </trkpt>
      <trkpt lat="47.91489" lon="6.83202">
        <ele>898.9</ele>
        <time>2022-09-02T07:48:53Z</time>
      </trkpt>
      <trkpt lat="47.9149" lon="6.83202">
        <ele>899.1</ele>
        <time>2022-09-02T07:48:54Z</time>
      </trkpt>
      <trkpt lat="47.91491" lon="6.83202">
        <ele>899.3</ele>
        <time>2022-09-02T07:48:55Z</time>
      </trkpt>
      <trkpt lat="47.91492" lon="6.83203">
        <ele>899.9</ele>
        <time>2022-09-02T07:48:56Z</time>
      </trkpt>
      <trkpt lat="47.91493" lon="6.83203">
        <ele>900.1</ele>
        <time>2022-09-02T07:48:57Z</time>
      </trkpt>
      <trkpt lat="47.91494" lon="6.83203">
        <ele>900.2</ele>
        <time>2022-09-02T07:48:58Z</time>
      </trkpt>
      <trkpt lat="47.91495" lon="6.83203">
        <ele>900.4</ele>
        <time>2022-09-02T07:49:00Z</time>
      </trkpt>
      <trkpt lat="47.91496" lon="6.83203">
        <ele>900.6</ele>
        <time>2022-09-02T07:49:01Z</time>
      </trkpt>
      <trkpt lat="47.91497" lon="6.83202">
        <ele>900.4</ele>
        <time>2022-09-02T07:49:03Z</time>
      </trkpt>
      <trkpt lat="47.91498" lon="6.83202">
        <ele>900.6</ele>
        <time>2022-09-02T07:49:04Z</time>
      </trkpt>
      <trkpt lat="47.91499" lon="6.83201">
        <ele>900.4</ele>
        <time>2022-09-02T07:49:06Z</time>
      </trkpt>
      <trkpt lat="47.915" lon="6.83201">
        <ele>900.6</ele>
        <time>2022-09-02T07:49:07Z</time>
      </trkpt>
      <trkpt lat="47.91501" lon="6.832">
        <ele>900.4</ele>
        <time>2022-09-02T07:49:08Z</time>
      </trkpt>
      <trkpt lat="47.91502" lon="6.832">
        <ele>900.6</ele>
        <time>2022-09-02T07:49:09Z</time>
      </trkpt>
      <trkpt lat="47.91503" lon="6.832">
        <ele>900.8</ele>
        <time>2022-09-02T07:49:10Z</time>
      </trkpt>
      <trkpt lat="47.91503" lon="6.83199">
        <ele>900.5</ele>
        <time>2022-09-02T07:49:11Z</time>
      </trkpt>
      <trkpt lat="47.91504" lon="6.83199">
        <ele>900.7</ele>
        <time>2022-09-02T07:49:12Z</time>
      </trkpt>
      <trkpt lat="47.91505" lon="6.83199">
        <ele>900.9</ele>
        <time>2022-09-02T07:49:13Z</time>
      </trkpt>
      <trkpt lat="47.91506" lon="6.83198">
        <ele>900.7</ele>
        <time>2022-09-02T07:49:14Z</time>
      </trkpt>
      <trkpt lat="47.91507" lon="6.83198">
        <ele>900.9</ele>
        <time>2022-09-02T07:49:15Z</time>
      </trkpt>
      <trkpt lat="47.91508" lon="6.83198">
        <ele>901.1</ele>
        <time>2022-09-02T07:49:16Z</time>
      </trkpt>
      <trkpt lat="47.91509" lon="6.83198">
        <ele>901.4</ele>
        <time>2022-09-02T07:49:17Z</time>
      </trkpt>
      <trkpt lat="47.9151" lon="6.83198">
        <ele>901.6</ele>
        <time>2022-09-02T07:49:18Z</time>
      </trkpt>
      <trkpt lat="47.91511" lon="6.83198">
        <ele>901.8</ele>
        <time>2022-09-02T07:49:19Z</time>
      </trkpt>
      <trkpt lat="47.91512" lon="6.83198">
        <ele>902</ele>
        <time>2022-09-02T07:49:20Z</time>
      </trkpt>
      <trkpt lat="47.91514" lon="6.83199">
        <ele>902.8</ele>
        <time>2022-09-02T07:49:21Z</time>
      </trkpt>
      <trkpt lat="47.91516" lon="6.83199">
        <ele>903.3</ele>
        <time>2022-09-02T07:49:22Z</time>
      </trkpt>
      <trkpt lat="47.91517" lon="6.832">
        <ele>903.9</ele>
        <time>2022-09-02T07:49:23Z</time>
      </trkpt>
      <trkpt lat="47.91518" lon="6.832">
        <ele>904.1</ele>
        <time>2022-09-02T07:49:24Z</time>
      </trkpt>
      <trkpt lat="47.91519" lon="6.832">
        <ele>904.3</ele>
        <time>2022-09-02T07:49:25Z</time>
      </trkpt>
      <trkpt lat="47.9152" lon="6.832">
        <ele>904.5</ele>
        <time>2022-09-02T07:49:26Z</time>
      </trkpt>
      <trkpt lat="47.91521" lon="6.832">
        <ele>904.7</ele>
        <time>2022-09-02T07:49:27Z</time>
      </trkpt>
      <trkpt lat="47.91522" lon="6.83199">
        <ele>904.6</ele>
        <time>2022-09-02T07:49:28Z</time>
      </trkpt>
      <trkpt lat="47.91524" lon="6.83199">
        <ele>905</ele>
        <time>2022-09-02T07:49:29Z</time>
      </trkpt>
      <trkpt lat="47.91525" lon="6.83199">
        <ele>905.2</ele>
        <time>2022-09-02T07:49:30Z</time>
      </trkpt>
      <trkpt lat="47.91527" lon="6.83199">
        <ele>905.6</ele>
        <time>2022-09-02T07:49:31Z</time>
      </trkpt>
      <trkpt lat="47.91528" lon="6.83199">
        <ele>905.8</ele>
        <time>2022-09-02T07:49:32Z</time>
      </trkpt>
      <trkpt lat="47.91529" lon="6.83199">
        <ele>905.9</ele>
        <time>2022-09-02T07:49:33Z</time>
      </trkpt>
      <trkpt lat="47.9153" lon="6.83199">
        <ele>906</ele>
        <time>2022-09-02T07:49:34Z</time>
      </trkpt>
      <trkpt lat="47.91531" lon="6.83199">
        <ele>906</ele>
        <time>2022-09-02T07:49:36Z</time>
      </trkpt>
      <trkpt lat="47.91532" lon="6.83198">
        <ele>905.7</ele>
        <time>2022-09-02T07:49:37Z</time>
      </trkpt>
      <trkpt lat="47.91532" lon="6.83197">
        <ele>905.3</ele>
        <time>2022-09-02T07:49:39Z</time>
      </trkpt>
      <trkpt lat="47.91533" lon="6.83196">
        <ele>905</ele>
        <time>2022-09-02T07:49:40Z</time>
      </trkpt>
      <trkpt lat="47.91534" lon="6.83196">
        <ele>905.1</ele>
        <time>2022-09-02T07:49:42Z</time>
      </trkpt>
      <trkpt lat="47.91535" lon="6.83196">
        <ele>905.1</ele>
        <time>2022-09-02T07:49:43Z</time>
      </trkpt>
      <trkpt lat="47.91536" lon="6.83196">
        <ele>905.2</ele>
        <time>2022-09-02T07:49:45Z</time>
      </trkpt>
      <trkpt lat="47.91537" lon="6.83196">
        <ele>905.3</ele>
        <time>2022-09-02T07:49:46Z</time>
      </trkpt>
      <trkpt lat="47.91538" lon="6.83196">
        <ele>905.4</ele>
        <time>2022-09-02T07:49:49Z</time>
      </trkpt>
      <trkpt lat="47.91538" lon="6.83195">
        <ele>905</ele>
        <time>2022-09-02T07:49:50Z</time>
      </trkpt>
      <trkpt lat="47.91539" lon="6.83195">
        <ele>905</ele>
        <time>2022-09-02T07:49:51Z</time>
      </trkpt>
      <trkpt lat="47.9154" lon="6.83195">
        <ele>905.1</ele>
        <time>2022-09-02T07:49:53Z</time>
      </trkpt>
      <trkpt lat="47.91541" lon="6.83195">
        <ele>905.2</ele>
        <time>2022-09-02T07:49:54Z</time>
      </trkpt>
      <trkpt lat="47.91542" lon="6.83195">
        <ele>905.2</ele>
        <time>2022-09-02T07:49:55Z</time>
      </trkpt>
      <trkpt lat="47.91544" lon="6.83195">
        <ele>905.4</ele>
        <time>2022-09-02T07:49:56Z</time>
      </trkpt>
      <trkpt lat="47.91545" lon="6.83196">
        <ele>905.9</ele>
        <time>2022-09-02T07:49:57Z</time>
      </trkpt>
      <trkpt lat="47.91547" lon="6.83196">
        <ele>906</ele>
        <time>2022-09-02T07:49:58Z</time>
      </trkpt>
      <trkpt lat="47.91548" lon="6.83197">
        <ele>906.5</ele>
        <time>2022-09-02T07:49:59Z</time>
      </trkpt>
      <trkpt lat="47.91549" lon="6.83197">
        <ele>906.5</ele>
        <time>2022-09-02T07:50:00Z</time>
      </trkpt>
      <trkpt lat="47.9155" lon="6.83198">
        <ele>907</ele>
        <time>2022-09-02T07:50:01Z</time>
      </trkpt>
      <trkpt lat="47.91552" lon="6.83198">
        <ele>907.2</ele>
        <time>2022-09-02T07:50:02Z</time>
      </trkpt>
      <trkpt lat="47.91553" lon="6.83199">
        <ele>907.6</ele>
        <time>2022-09-02T07:50:03Z</time>
      </trkpt>
      <trkpt lat="47.91554" lon="6.832">
        <ele>908.1</ele>
        <time>2022-09-02T07:50:04Z</time>
      </trkpt>
      <trkpt lat="47.91556" lon="6.83201">
        <ele>908.6</ele>
        <time>2022-09-02T07:50:05Z</time>
      </trkpt>
      <trkpt lat="47.91557" lon="6.83202">
        <ele>908.9</ele>
        <time>2022-09-02T07:50:06Z</time>
      </trkpt>
      <trkpt lat="47.91558" lon="6.83202">
        <ele>908.9</ele>
        <time>2022-09-02T07:50:07Z</time>
      </trkpt>
      <trkpt lat="47.91559" lon="6.83203">
        <ele>909.2</ele>
        <time>2022-09-02T07:50:08Z</time>
      </trkpt>
      <trkpt lat="47.9156" lon="6.83203">
        <ele>909.2</ele>
        <time>2022-09-02T07:50:09Z</time>
      </trkpt>
      <trkpt lat="47.91562" lon="6.83203">
        <ele>909.1</ele>
        <time>2022-09-02T07:50:10Z</time>
      </trkpt>
      <trkpt lat="47.91563" lon="6.83204">
        <ele>909.4</ele>
        <time>2022-09-02T07:50:11Z</time>
      </trkpt>
      <trkpt lat="47.91564" lon="6.83204">
        <ele>909.4</ele>
        <time>2022-09-02T07:50:12Z</time>
      </trkpt>
      <trkpt lat="47.91565" lon="6.83204">
        <ele>909.3</ele>
        <time>2022-09-02T07:50:13Z</time>
      </trkpt>
      <trkpt lat="47.91566" lon="6.83204">
        <ele>909.3</ele>
        <time>2022-09-02T07:50:14Z</time>
      </trkpt>
      <trkpt lat="47.91567" lon="6.83204">
        <ele>909.2</ele>
        <time>2022-09-02T07:50:15Z</time>
      </trkpt>
      <trkpt lat="47.91568" lon="6.83204">
        <ele>909.2</ele>
        <time>2022-09-02T07:50:16Z</time>
      </trkpt>
      <trkpt lat="47.91569" lon="6.83204">
        <ele>909.1</ele>
        <time>2022-09-02T07:50:17Z</time>
      </trkpt>
      <trkpt lat="47.9157" lon="6.83204">
        <ele>909.1</ele>
        <time>2022-09-02T07:50:18Z</time>
      </trkpt>
      <trkpt lat="47.91571" lon="6.83204">
        <ele>909</ele>
        <time>2022-09-02T07:50:19Z</time>
      </trkpt>
      <trkpt lat="47.91572" lon="6.83204">
        <ele>909</ele>
        <time>2022-09-02T07:50:20Z</time>
      </trkpt>
      <trkpt lat="47.91573" lon="6.83204">
        <ele>908.9</ele>
        <time>2022-09-02T07:50:21Z</time>
      </trkpt>
      <trkpt lat="47.91574" lon="6.83204">
        <ele>908.9</ele>
        <time>2022-09-02T07:50:22Z</time>
      </trkpt>
      <trkpt lat="47.91575" lon="6.83205">
        <ele>909.2</ele>
        <time>2022-09-02T07:50:23Z</time>
      </trkpt>
      <trkpt lat="47.91576" lon="6.83205">
        <ele>909.2</ele>
        <time>2022-09-02T07:50:24Z</time>
      </trkpt>
      <trkpt lat="47.91577" lon="6.83205">
        <ele>909.1</ele>
        <time>2022-09-02T07:50:26Z</time>
      </trkpt>
      <trkpt lat="47.91578" lon="6.83206">
        <ele>909.4</ele>
        <time>2022-09-02T07:50:27Z</time>
      </trkpt>
      <trkpt lat="47.91579" lon="6.83206">
        <ele>909.4</ele>
        <time>2022-09-02T07:50:28Z</time>
      </trkpt>
      <trkpt lat="47.9158" lon="6.83206">
        <ele>909.3</ele>
        <time>2022-09-02T07:50:30Z</time>
      </trkpt>
      <trkpt lat="47.91581" lon="6.83206">
        <ele>909.3</ele>
        <time>2022-09-02T07:50:31Z</time>
      </trkpt>
      <trkpt lat="47.91582" lon="6.83206">
        <ele>909.2</ele>
        <time>2022-09-02T07:50:32Z</time>
      </trkpt>
      <trkpt lat="47.91583" lon="6.83206">
        <ele>909.2</ele>
        <time>2022-09-02T07:50:33Z</time>
      </trkpt>
      <trkpt lat="47.91585" lon="6.83207">
        <ele>909.5</ele>
        <time>2022-09-02T07:50:35Z</time>
      </trkpt>
      <trkpt lat="47.91586" lon="6.83207">
        <ele>909.5</ele>
        <time>2022-09-02T07:50:36Z</time>
      </trkpt>
      <trkpt lat="47.91587" lon="6.83207">
        <ele>909.5</ele>
        <time>2022-09-02T07:50:37Z</time>
      </trkpt>
      <trkpt lat="47.91588" lon="6.83208">
        <ele>909.9</ele>
        <time>2022-09-02T07:50:38Z</time>
      </trkpt>
      <trkpt lat="47.91589" lon="6.83208">
        <ele>909.9</ele>
        <time>2022-09-02T07:50:39Z</time>
      </trkpt>
      <trkpt lat="47.9159" lon="6.83208">
        <ele>909.9</ele>
        <time>2022-09-02T07:50:40Z</time>
      </trkpt>
      <trkpt lat="47.91591" lon="6.83208">
        <ele>909.9</ele>
        <time>2022-09-02T07:50:41Z</time>
      </trkpt>
      <trkpt lat="47.91592" lon="6.83208">
        <ele>909.9</ele>
        <time>2022-09-02T07:50:42Z</time>
      </trkpt>
      <trkpt lat="47.91593" lon="6.83208">
        <ele>909.9</ele>
        <time>2022-09-02T07:50:43Z</time>
      </trkpt>
      <trkpt lat="47.91595" lon="6.83208">
        <ele>909.9</ele>
        <time>2022-09-02T07:50:44Z</time>
      </trkpt>
      <trkpt lat="47.91596" lon="6.83208">
        <ele>909.9</ele>
        <time>2022-09-02T07:50:45Z</time>
      </trkpt>
      <trkpt lat="47.91597" lon="6.83209">
        <ele>910.2</ele>
        <time>2022-09-02T07:50:46Z</time>
      </trkpt>
      <trkpt lat="47.91598" lon="6.83209">
        <ele>910.2</ele>
        <time>2022-09-02T07:50:47Z</time>
      </trkpt>
      <trkpt lat="47.91599" lon="6.83209">
        <ele>910.2</ele>
        <time>2022-09-02T07:50:48Z</time>
      </trkpt>
      <trkpt lat="47.916" lon="6.8321">
        <ele>910.5</ele>
        <time>2022-09-02T07:50:49Z</time>
      </trkpt>
      <trkpt lat="47.91602" lon="6.8321">
        <ele>910.5</ele>
        <time>2022-09-02T07:50:50Z</time>
      </trkpt>
      <trkpt lat="47.91603" lon="6.8321">
        <ele>910.5</ele>
        <time>2022-09-02T07:50:51Z</time>
      </trkpt>
      <trkpt lat="47.91604" lon="6.83211">
        <ele>910.8</ele>
        <time>2022-09-02T07:50:52Z</time>
      </trkpt>
      <trkpt lat="47.91605" lon="6.83211">
        <ele>910.8</ele>
        <time>2022-09-02T07:50:53Z</time>
      </trkpt>
      <trkpt lat="47.91606" lon="6.83211">
        <ele>910.8</ele>
        <time>2022-09-02T07:50:54Z</time>
      </trkpt>
      <trkpt lat="47.91607" lon="6.83211">
        <ele>910.8</ele>
        <time>2022-09-02T07:50:55Z</time>
      </trkpt>
      <trkpt lat="47.91608" lon="6.83211">
        <ele>910.8</ele>
        <time>2022-09-02T07:50:56Z</time>
      </trkpt>
      <trkpt lat="47.91609" lon="6.83212">
        <ele>911.1</ele>
        <time>2022-09-02T07:50:57Z</time>
      </trkpt>
      <trkpt lat="47.9161" lon="6.83212">
        <ele>911.1</ele>
        <time>2022-09-02T07:50:58Z</time>
      </trkpt>
      <trkpt lat="47.91611" lon="6.83212">
        <ele>911.1</ele>
        <time>2022-09-02T07:50:59Z</time>
      </trkpt>
      <trkpt lat="47.91612" lon="6.83213">
        <ele>911.3</ele>
        <time>2022-09-02T07:51:00Z</time>
      </trkpt>
      <trkpt lat="47.91613" lon="6.83213">
        <ele>911.2</ele>
        <time>2022-09-02T07:51:01Z</time>
      </trkpt>
      <trkpt lat="47.91614" lon="6.83213">
        <ele>911.1</ele>
        <time>2022-09-02T07:51:02Z</time>
      </trkpt>
      <trkpt lat="47.91615" lon="6.83214">
        <ele>911.2</ele>
        <time>2022-09-02T07:51:03Z</time>
      </trkpt>
      <trkpt lat="47.91616" lon="6.83214">
        <ele>911.1</ele>
        <time>2022-09-02T07:51:04Z</time>
      </trkpt>
      <trkpt lat="47.91617" lon="6.83215">
        <ele>911.3</ele>
        <time>2022-09-02T07:51:05Z</time>
      </trkpt>
      <trkpt lat="47.91618" lon="6.83215">
        <ele>911.2</ele>
        <time>2022-09-02T07:51:06Z</time>
      </trkpt>
      <trkpt lat="47.91619" lon="6.83216">
        <ele>911.3</ele>
        <time>2022-09-02T07:51:07Z</time>
      </trkpt>
      <trkpt lat="47.9162" lon="6.83216">
        <ele>911.2</ele>
        <time>2022-09-02T07:51:08Z</time>
      </trkpt>
      <trkpt lat="47.91621" lon="6.83217">
        <ele>911.3</ele>
        <time>2022-09-02T07:51:09Z</time>
      </trkpt>
      <trkpt lat="47.91622" lon="6.83217">
        <ele>911.2</ele>
        <time>2022-09-02T07:51:10Z</time>
      </trkpt>
      <trkpt lat="47.91623" lon="6.83218">
        <ele>911.3</ele>
        <time>2022-09-02T07:51:11Z</time>
      </trkpt>
      <trkpt lat="47.91624" lon="6.83219">
        <ele>911.4</ele>
        <time>2022-09-02T07:51:12Z</time>
      </trkpt>
      <trkpt lat="47.91626" lon="6.8322">
        <ele>911.4</ele>
        <time>2022-09-02T07:51:13Z</time>
      </trkpt>
      <trkpt lat="47.91627" lon="6.8322">
        <ele>911.3</ele>
        <time>2022-09-02T07:51:14Z</time>
      </trkpt>
      <trkpt lat="47.91628" lon="6.83221">
        <ele>911.3</ele>
        <time>2022-09-02T07:51:15Z</time>
      </trkpt>
      <trkpt lat="47.9163" lon="6.83222">
        <ele>911.2</ele>
        <time>2022-09-02T07:51:16Z</time>
      </trkpt>
      <trkpt lat="47.91631" lon="6.83223">
        <ele>911.3</ele>
        <time>2022-09-02T07:51:17Z</time>
      </trkpt>
      <trkpt lat="47.91633" lon="6.83224">
        <ele>911.3</ele>
        <time>2022-09-02T07:51:18Z</time>
      </trkpt>
      <trkpt lat="47.91634" lon="6.83225">
        <ele>911.4</ele>
        <time>2022-09-02T07:51:19Z</time>
      </trkpt>
      <trkpt lat="47.91635" lon="6.83226">
        <ele>911.4</ele>
        <time>2022-09-02T07:51:20Z</time>
      </trkpt>
      <trkpt lat="47.91636" lon="6.83227">
        <ele>911.5</ele>
        <time>2022-09-02T07:51:21Z</time>
      </trkpt>
      <trkpt lat="47.91637" lon="6.83228">
        <ele>911.6</ele>
        <time>2022-09-02T07:51:22Z</time>
      </trkpt>
      <trkpt lat="47.91638" lon="6.83229">
        <ele>911.6</ele>
        <time>2022-09-02T07:51:23Z</time>
      </trkpt>
      <trkpt lat="47.91639" lon="6.8323">
        <ele>911.7</ele>
        <time>2022-09-02T07:51:24Z</time>
      </trkpt>
      <trkpt lat="47.9164" lon="6.83231">
        <ele>911.9</ele>
        <time>2022-09-02T07:51:25Z</time>
      </trkpt>
      <trkpt lat="47.91641" lon="6.83231">
        <ele>911.9</ele>
        <time>2022-09-02T07:51:26Z</time>
      </trkpt>
      <trkpt lat="47.91642" lon="6.83232">
        <ele>912.1</ele>
        <time>2022-09-02T07:51:27Z</time>
      </trkpt>
      <trkpt lat="47.91643" lon="6.83233">
        <ele>912.2</ele>
        <time>2022-09-02T07:51:28Z</time>
      </trkpt>
      <trkpt lat="47.91644" lon="6.83234">
        <ele>912.4</ele>
        <time>2022-09-02T07:51:29Z</time>
      </trkpt>
      <trkpt lat="47.91645" lon="6.83235">
        <ele>912.6</ele>
        <time>2022-09-02T07:51:30Z</time>
      </trkpt>
      <trkpt lat="47.91646" lon="6.83236">
        <ele>912.7</ele>
        <time>2022-09-02T07:51:31Z</time>
      </trkpt>
      <trkpt lat="47.91647" lon="6.83238">
        <ele>913</ele>
        <time>2022-09-02T07:51:32Z</time>
      </trkpt>
      <trkpt lat="47.91648" lon="6.83239">
        <ele>913.2</ele>
        <time>2022-09-02T07:51:33Z</time>
      </trkpt>
      <trkpt lat="47.91648" lon="6.83241">
        <ele>913.5</ele>
        <time>2022-09-02T07:51:34Z</time>
      </trkpt>
      <trkpt lat="47.91649" lon="6.83242">
        <ele>913.6</ele>
        <time>2022-09-02T07:51:35Z</time>
      </trkpt>
      <trkpt lat="47.9165" lon="6.83244">
        <ele>913.8</ele>
        <time>2022-09-02T07:51:36Z</time>
      </trkpt>
      <trkpt lat="47.9165" lon="6.83245">
        <ele>914</ele>
        <time>2022-09-02T07:51:37Z</time>
      </trkpt>
      <trkpt lat="47.91651" lon="6.83246">
        <ele>914.1</ele>
        <time>2022-09-02T07:51:38Z</time>
      </trkpt>
      <trkpt lat="47.91652" lon="6.83248">
        <ele>914.3</ele>
        <time>2022-09-02T07:51:39Z</time>
      </trkpt>
      <trkpt lat="47.91652" lon="6.83249">
        <ele>914.4</ele>
        <time>2022-09-02T07:51:40Z</time>
      </trkpt>
      <trkpt lat="47.91653" lon="6.8325">
        <ele>914.5</ele>
        <time>2022-09-02T07:51:41Z</time>
      </trkpt>
      <trkpt lat="47.91654" lon="6.83251">
        <ele>914.5</ele>
        <time>2022-09-02T07:51:42Z</time>
      </trkpt>
      <trkpt lat="47.91655" lon="6.83252">
        <ele>914.6</ele>
        <time>2022-09-02T07:51:43Z</time>
      </trkpt>
      <trkpt lat="47.91656" lon="6.83253">
        <ele>914.6</ele>
        <time>2022-09-02T07:51:44Z</time>
      </trkpt>
      <trkpt lat="47.91656" lon="6.83254">
        <ele>914.8</ele>
        <time>2022-09-02T07:51:45Z</time>
      </trkpt>
      <trkpt lat="47.91657" lon="6.83256">
        <ele>915</ele>
        <time>2022-09-02T07:51:46Z</time>
      </trkpt>
      <trkpt lat="47.91658" lon="6.83257">
        <ele>915</ele>
        <time>2022-09-02T07:51:47Z</time>
      </trkpt>
      <trkpt lat="47.91659" lon="6.83258">
        <ele>915</ele>
        <time>2022-09-02T07:51:48Z</time>
      </trkpt>
      <trkpt lat="47.9166" lon="6.83259">
        <ele>915</ele>
        <time>2022-09-02T07:51:49Z</time>
      </trkpt>
      <trkpt lat="47.91661" lon="6.8326">
        <ele>915</ele>
        <time>2022-09-02T07:51:50Z</time>
      </trkpt>
      <trkpt lat="47.91661" lon="6.83261">
        <ele>915.1</ele>
        <time>2022-09-02T07:51:51Z</time>
      </trkpt>
      <trkpt lat="47.91662" lon="6.83262">
        <ele>915.1</ele>
        <time>2022-09-02T07:51:52Z</time>
      </trkpt>
      <trkpt lat="47.91663" lon="6.83263">
        <ele>915</ele>
        <time>2022-09-02T07:51:53Z</time>
      </trkpt>
      <trkpt lat="47.91663" lon="6.83264">
        <ele>915.2</ele>
        <time>2022-09-02T07:51:54Z</time>
      </trkpt>
      <trkpt lat="47.91664" lon="6.83266">
        <ele>915.2</ele>
        <time>2022-09-02T07:51:55Z</time>
      </trkpt>
      <trkpt lat="47.91665" lon="6.83267">
        <ele>915.2</ele>
        <time>2022-09-02T07:51:57Z</time>
      </trkpt>
      <trkpt lat="47.91666" lon="6.83269">
        <ele>915.2</ele>
        <time>2022-09-02T07:51:58Z</time>
      </trkpt>
      <trkpt lat="47.91666" lon="6.8327">
        <ele>915.3</ele>
        <time>2022-09-02T07:51:59Z</time>
      </trkpt>
      <trkpt lat="47.91667" lon="6.83271">
        <ele>915.3</ele>
        <time>2022-09-02T07:52:00Z</time>
      </trkpt>
      <trkpt lat="47.91668" lon="6.83272">
        <ele>915.4</ele>
        <time>2022-09-02T07:52:01Z</time>
      </trkpt>
      <trkpt lat="47.91669" lon="6.83273">
        <ele>915.5</ele>
        <time>2022-09-02T07:52:02Z</time>
      </trkpt>
      <trkpt lat="47.9167" lon="6.83274">
        <ele>915.6</ele>
        <time>2022-09-02T07:52:03Z</time>
      </trkpt>
      <trkpt lat="47.9167" lon="6.83275">
        <ele>915.7</ele>
        <time>2022-09-02T07:52:04Z</time>
      </trkpt>
      <trkpt lat="47.91671" lon="6.83275">
        <ele>915.7</ele>
        <time>2022-09-02T07:52:05Z</time>
      </trkpt>
      <trkpt lat="47.91671" lon="6.83276">
        <ele>915.8</ele>
        <time>2022-09-02T07:52:08Z</time>
      </trkpt>
      <trkpt lat="47.91672" lon="6.83276">
        <ele>915.8</ele>
        <time>2022-09-02T07:52:09Z</time>
      </trkpt>
      <trkpt lat="47.91673" lon="6.83277">
        <ele>915.9</ele>
        <time>2022-09-02T07:52:11Z</time>
      </trkpt>
      <trkpt lat="47.91674" lon="6.83277">
        <ele>915.9</ele>
        <time>2022-09-02T07:52:12Z</time>
      </trkpt>
      <trkpt lat="47.91675" lon="6.83278">
        <ele>916</ele>
        <time>2022-09-02T07:52:13Z</time>
      </trkpt>
      <trkpt lat="47.91676" lon="6.83279">
        <ele>916.1</ele>
        <time>2022-09-02T07:52:15Z</time>
      </trkpt>
      <trkpt lat="47.91678" lon="6.83277">
        <ele>915.9</ele>
        <time>2022-09-02T07:57:14Z</time>
      </trkpt>
      <trkpt lat="47.91678" lon="6.83276">
        <ele>915.9</ele>
        <time>2022-09-02T07:57:15Z</time>
      </trkpt>
      <trkpt lat="47.91679" lon="6.83276">
        <ele>915.9</ele>
        <time>2022-09-02T07:57:16Z</time>
      </trkpt>
      <trkpt lat="47.91679" lon="6.83277">
        <ele>915.9</ele>
        <time>2022-09-02T07:57:19Z</time>
      </trkpt>
      <trkpt lat="47.91679" lon="6.83278">
        <ele>916</ele>
        <time>2022-09-02T07:57:20Z</time>
      </trkpt>
      <trkpt lat="47.91678" lon="6.83279">
        <ele>916.1</ele>
        <time>2022-09-02T07:57:21Z</time>
      </trkpt>
      <trkpt lat="47.91678" lon="6.8328">
        <ele>916.3</ele>
        <time>2022-09-02T07:57:22Z</time>
      </trkpt>
      <trkpt lat="47.91678" lon="6.83281">
        <ele>916.4</ele>
        <time>2022-09-02T07:58:12Z</time>
      </trkpt>
      <trkpt lat="47.91679" lon="6.8328">
        <ele>916.2</ele>
        <time>2022-09-02T07:58:14Z</time>
      </trkpt>
      <trkpt lat="47.91679" lon="6.83279">
        <ele>916.1</ele>
        <time>2022-09-02T07:58:37Z</time>
      </trkpt>
      <trkpt lat="47.9168" lon="6.83279">
        <ele>916.1</ele>
        <time>2022-09-02T07:58:38Z</time>
      </trkpt>
      <trkpt lat="47.9168" lon="6.83278">
        <ele>916</ele>
        <time>2022-09-02T07:58:40Z</time>
      </trkpt>
      <trkpt lat="47.91681" lon="6.83278">
        <ele>916</ele>
        <time>2022-09-02T07:58:41Z</time>
      </trkpt>
      <trkpt lat="47.91682" lon="6.83278">
        <ele>916</ele>
        <time>2022-09-02T07:58:42Z</time>
      </trkpt>
      <trkpt lat="47.91683" lon="6.83278">
        <ele>916</ele>
        <time>2022-09-02T07:58:44Z</time>
      </trkpt>
      <trkpt lat="47.91683" lon="6.83277">
        <ele>915.9</ele>
        <time>2022-09-02T07:58:45Z</time>
      </trkpt>
      <trkpt lat="47.91684" lon="6.83277">
        <ele>916</ele>
        <time>2022-09-02T07:58:46Z</time>
      </trkpt>
      <trkpt lat="47.91685" lon="6.83276">
        <ele>915.9</ele>
        <time>2022-09-02T07:58:47Z</time>
      </trkpt>
      <trkpt lat="47.91686" lon="6.83275">
        <ele>915.8</ele>
        <time>2022-09-02T07:58:49Z</time>
      </trkpt>
      <trkpt lat="47.91686" lon="6.83274">
        <ele>915.8</ele>
        <time>2022-09-02T07:58:51Z</time>
      </trkpt>
      <trkpt lat="47.91687" lon="6.83273">
        <ele>915.7</ele>
        <time>2022-09-02T07:58:52Z</time>
      </trkpt>
      <trkpt lat="47.91687" lon="6.83272">
        <ele>915.7</ele>
        <time>2022-09-02T07:58:53Z</time>
      </trkpt>
      <trkpt lat="47.91687" lon="6.83271">
        <ele>915.6</ele>
        <time>2022-09-02T07:58:54Z</time>
      </trkpt>
      <trkpt lat="47.91687" lon="6.8327">
        <ele>915.6</ele>
        <time>2022-09-02T07:58:55Z</time>
      </trkpt>
      <trkpt lat="47.91688" lon="6.83269">
        <ele>915.5</ele>
        <time>2022-09-02T07:58:56Z</time>
      </trkpt>
      <trkpt lat="47.91688" lon="6.83268">
        <ele>915.5</ele>
        <time>2022-09-02T07:58:58Z</time>
      </trkpt>
      <trkpt lat="47.91688" lon="6.83267">
        <ele>915.4</ele>
        <time>2022-09-02T07:58:59Z</time>
      </trkpt>
      <trkpt lat="47.91688" lon="6.83266">
        <ele>915.4</ele>
        <time>2022-09-02T07:59:00Z</time>
      </trkpt>
      <trkpt lat="47.91689" lon="6.83265">
        <ele>915.4</ele>
        <time>2022-09-02T07:59:02Z</time>
      </trkpt>
      <trkpt lat="47.91689" lon="6.83264">
        <ele>915.3</ele>
        <time>2022-09-02T07:59:03Z</time>
      </trkpt>
      <trkpt lat="47.91689" lon="6.83263">
        <ele>915.3</ele>
        <time>2022-09-02T07:59:04Z</time>
      </trkpt>
      <trkpt lat="47.9169" lon="6.83262">
        <ele>915.3</ele>
        <time>2022-09-02T07:59:05Z</time>
      </trkpt>
      <trkpt lat="47.91691" lon="6.83262">
        <ele>915.3</ele>
        <time>2022-09-02T08:00:58Z</time>
      </trkpt>
      <trkpt lat="47.91692" lon="6.83262">
        <ele>915.3</ele>
        <time>2022-09-02T08:00:59Z</time>
      </trkpt>
      <trkpt lat="47.91692" lon="6.83263">
        <ele>915.4</ele>
        <time>2022-09-02T08:01:02Z</time>
      </trkpt>
      <trkpt lat="47.91691" lon="6.83263">
        <ele>915.3</ele>
        <time>2022-09-02T08:01:03Z</time>
      </trkpt>
      <trkpt lat="47.91691" lon="6.83264">
        <ele>915.4</ele>
        <time>2022-09-02T08:01:04Z</time>
      </trkpt>
      <trkpt lat="47.9169" lon="6.83265">
        <ele>915.4</ele>
        <time>2022-09-02T08:01:05Z</time>
      </trkpt>
      <trkpt lat="47.91689" lon="6.83266">
        <ele>915.4</ele>
        <time>2022-09-02T08:01:06Z</time>
      </trkpt>
      <trkpt lat="47.91689" lon="6.83267">
        <ele>915.5</ele>
        <time>2022-09-02T08:01:07Z</time>
      </trkpt>
      <trkpt lat="47.91688" lon="6.83268">
        <ele>915.5</ele>
        <time>2022-09-02T08:01:08Z</time>
      </trkpt>
      <trkpt lat="47.91687" lon="6.83269">
        <ele>915.5</ele>
        <time>2022-09-02T08:01:09Z</time>
      </trkpt>
      <trkpt lat="47.91687" lon="6.8327">
        <ele>915.6</ele>
        <time>2022-09-02T08:01:10Z</time>
      </trkpt>
      <trkpt lat="47.91686" lon="6.83271">
        <ele>915.6</ele>
        <time>2022-09-02T08:01:11Z</time>
      </trkpt>
      <trkpt lat="47.91685" lon="6.83272">
        <ele>915.7</ele>
        <time>2022-09-02T08:01:12Z</time>
      </trkpt>
      <trkpt lat="47.91685" lon="6.83273">
        <ele>915.7</ele>
        <time>2022-09-02T08:01:13Z</time>
      </trkpt>
      <trkpt lat="47.91684" lon="6.83273">
        <ele>915.7</ele>
        <time>2022-09-02T08:01:14Z</time>
      </trkpt>
      <trkpt lat="47.91684" lon="6.83274">
        <ele>915.8</ele>
        <time>2022-09-02T08:01:15Z</time>
      </trkpt>
      <trkpt lat="47.91683" lon="6.83275">
        <ele>915.8</ele>
        <time>2022-09-02T08:01:16Z</time>
      </trkpt>
      <trkpt lat="47.91681" lon="6.83276">
        <ele>915.9</ele>
        <time>2022-09-02T08:01:27Z</time>
      </trkpt>
      <trkpt lat="47.9168" lon="6.83276">
        <ele>915.9</ele>
        <time>2022-09-02T08:01:28Z</time>
      </trkpt>
      <trkpt lat="47.91678" lon="6.83275">
        <ele>915.8</ele>
        <time>2022-09-02T08:02:17Z</time>
      </trkpt>
      <trkpt lat="47.91677" lon="6.83275">
        <ele>915.8</ele>
        <time>2022-09-02T08:02:18Z</time>
      </trkpt>
      <trkpt lat="47.91677" lon="6.83274">
        <ele>915.7</ele>
        <time>2022-09-02T08:02:19Z</time>
      </trkpt>
      <trkpt lat="47.91678" lon="6.83274">
        <ele>915.7</ele>
        <time>2022-09-02T08:02:21Z</time>
      </trkpt>
      <trkpt lat="47.91679" lon="6.83273">
        <ele>915.6</ele>
        <time>2022-09-02T08:02:23Z</time>
      </trkpt>
      <trkpt lat="47.9168" lon="6.83273">
        <ele>915.6</ele>
        <time>2022-09-02T08:02:24Z</time>
      </trkpt>
      <trkpt lat="47.91681" lon="6.83273">
        <ele>915.7</ele>
        <time>2022-09-02T08:02:26Z</time>
      </trkpt>
      <trkpt lat="47.91682" lon="6.83273">
        <ele>915.7</ele>
        <time>2022-09-02T08:02:27Z</time>
      </trkpt>
      <trkpt lat="47.91683" lon="6.83273">
        <ele>915.7</ele>
        <time>2022-09-02T08:02:29Z</time>
      </trkpt>
      <trkpt lat="47.91684" lon="6.83273">
        <ele>915.7</ele>
        <time>2022-09-02T08:02:31Z</time>
      </trkpt>
      <trkpt lat="47.91684" lon="6.83272">
        <ele>915.6</ele>
        <time>2022-09-02T08:02:32Z</time>
      </trkpt>
      <trkpt lat="47.91685" lon="6.83272">
        <ele>915.7</ele>
        <time>2022-09-02T08:02:33Z</time>
      </trkpt>
      <trkpt lat="47.91685" lon="6.83271">
        <ele>915.6</ele>
        <time>2022-09-02T08:02:34Z</time>
      </trkpt>
      <trkpt lat="47.91686" lon="6.8327">
        <ele>915.5</ele>
        <time>2022-09-02T08:02:35Z</time>
      </trkpt>
      <trkpt lat="47.91686" lon="6.83269">
        <ele>915.5</ele>
        <time>2022-09-02T08:02:36Z</time>
      </trkpt>
      <trkpt lat="47.91686" lon="6.83268">
        <ele>915.4</ele>
        <time>2022-09-02T08:02:37Z</time>
      </trkpt>
      <trkpt lat="47.91687" lon="6.83267">
        <ele>915.4</ele>
        <time>2022-09-02T08:02:38Z</time>
      </trkpt>
      <trkpt lat="47.91687" lon="6.83266">
        <ele>915.3</ele>
        <time>2022-09-02T08:02:39Z</time>
      </trkpt>
      <trkpt lat="47.91687" lon="6.83265">
        <ele>915.3</ele>
        <time>2022-09-02T08:02:40Z</time>
      </trkpt>
      <trkpt lat="47.91688" lon="6.83264">
        <ele>915.3</ele>
        <time>2022-09-02T08:02:41Z</time>
      </trkpt>
      <trkpt lat="47.91688" lon="6.83263">
        <ele>915.2</ele>
        <time>2022-09-02T08:02:42Z</time>
      </trkpt>
      <trkpt lat="47.91689" lon="6.83262">
        <ele>915.2</ele>
        <time>2022-09-02T08:02:43Z</time>
      </trkpt>
      <trkpt lat="47.91689" lon="6.83261">
        <ele>915.2</ele>
        <time>2022-09-02T08:02:44Z</time>
      </trkpt>
      <trkpt lat="47.9169" lon="6.8326">
        <ele>915.2</ele>
        <time>2022-09-02T08:02:45Z</time>
      </trkpt>
      <trkpt lat="47.9169" lon="6.83258">
        <ele>915.1</ele>
        <time>2022-09-02T08:02:53Z</time>
      </trkpt>
      <trkpt lat="47.91691" lon="6.83257">
        <ele>915.1</ele>
        <time>2022-09-02T08:02:54Z</time>
      </trkpt>
      <trkpt lat="47.91691" lon="6.83256">
        <ele>915</ele>
        <time>2022-09-02T08:02:55Z</time>
      </trkpt>
      <trkpt lat="47.91691" lon="6.83255">
        <ele>915</ele>
        <time>2022-09-02T08:02:56Z</time>
      </trkpt>
      <trkpt lat="47.91692" lon="6.83255">
        <ele>915</ele>
        <time>2022-09-02T08:02:57Z</time>
      </trkpt>
      <trkpt lat="47.91692" lon="6.83253">
        <ele>915</ele>
        <time>2022-09-02T08:02:58Z</time>
      </trkpt>
      <trkpt lat="47.91692" lon="6.83252">
        <ele>914.9</ele>
        <time>2022-09-02T08:02:59Z</time>
      </trkpt>
      <trkpt lat="47.91692" lon="6.83251">
        <ele>914.9</ele>
        <time>2022-09-02T08:03:00Z</time>
      </trkpt>
      <trkpt lat="47.91692" lon="6.83249">
        <ele>914.9</ele>
        <time>2022-09-02T08:03:01Z</time>
      </trkpt>
      <trkpt lat="47.91692" lon="6.83248">
        <ele>914.9</ele>
        <time>2022-09-02T08:03:02Z</time>
      </trkpt>
      <trkpt lat="47.91692" lon="6.83246">
        <ele>914.9</ele>
        <time>2022-09-02T08:03:03Z</time>
      </trkpt>
      <trkpt lat="47.91692" lon="6.83245">
        <ele>915</ele>
        <time>2022-09-02T08:03:04Z</time>
      </trkpt>
      <trkpt lat="47.91692" lon="6.83243">
        <ele>915</ele>
        <time>2022-09-02T08:03:05Z</time>
      </trkpt>
      <trkpt lat="47.91692" lon="6.83242">
        <ele>915</ele>
        <time>2022-09-02T08:03:06Z</time>
      </trkpt>
      <trkpt lat="47.91693" lon="6.8324">
        <ele>915.2</ele>
        <time>2022-09-02T08:03:07Z</time>
      </trkpt>
      <trkpt lat="47.91693" lon="6.83239">
        <ele>915.2</ele>
        <time>2022-09-02T08:03:08Z</time>
      </trkpt>
      <trkpt lat="47.91693" lon="6.83237">
        <ele>915.3</ele>
        <time>2022-09-02T08:03:09Z</time>
      </trkpt>
      <trkpt lat="47.91693" lon="6.83236">
        <ele>915.3</ele>
        <time>2022-09-02T08:03:10Z</time>
      </trkpt>
      <trkpt lat="47.91693" lon="6.83235">
        <ele>915.4</ele>
        <time>2022-09-02T08:03:11Z</time>
      </trkpt>
      <trkpt lat="47.91694" lon="6.83233">
        <ele>915.6</ele>
        <time>2022-09-02T08:03:12Z</time>
      </trkpt>
      <trkpt lat="47.91694" lon="6.83232">
        <ele>915.6</ele>
        <time>2022-09-02T08:03:13Z</time>
      </trkpt>
      <trkpt lat="47.91694" lon="6.8323">
        <ele>915.7</ele>
        <time>2022-09-02T08:03:14Z</time>
      </trkpt>
      <trkpt lat="47.91694" lon="6.83229">
        <ele>915.7</ele>
        <time>2022-09-02T08:03:15Z</time>
      </trkpt>
      <trkpt lat="47.91694" lon="6.83227">
        <ele>915.8</ele>
        <time>2022-09-02T08:03:16Z</time>
      </trkpt>
      <trkpt lat="47.91694" lon="6.83226">
        <ele>915.8</ele>
        <time>2022-09-02T08:03:17Z</time>
      </trkpt>
      <trkpt lat="47.91694" lon="6.83225">
        <ele>915.8</ele>
        <time>2022-09-02T08:03:18Z</time>
      </trkpt>
      <trkpt lat="47.91694" lon="6.83223">
        <ele>915.9</ele>
        <time>2022-09-02T08:03:19Z</time>
      </trkpt>
      <trkpt lat="47.91694" lon="6.83222">
        <ele>915.9</ele>
        <time>2022-09-02T08:03:20Z</time>
      </trkpt>
      <trkpt lat="47.91694" lon="6.83221">
        <ele>916</ele>
        <time>2022-09-02T08:03:21Z</time>
      </trkpt>
      <trkpt lat="47.91695" lon="6.83219">
        <ele>916</ele>
        <time>2022-09-02T08:03:22Z</time>
      </trkpt>
      <trkpt lat="47.91695" lon="6.83218">
        <ele>916.1</ele>
        <time>2022-09-02T08:03:23Z</time>
      </trkpt>
      <trkpt lat="47.91695" lon="6.83216">
        <ele>916.1</ele>
        <time>2022-09-02T08:03:24Z</time>
      </trkpt>
      <trkpt lat="47.91696" lon="6.83215">
        <ele>916.1</ele>
        <time>2022-09-02T08:03:25Z</time>
      </trkpt>
      <trkpt lat="47.91696" lon="6.83213">
        <ele>916.1</ele>
        <time>2022-09-02T08:03:26Z</time>
      </trkpt>
      <trkpt lat="47.91696" lon="6.83212">
        <ele>916.2</ele>
        <time>2022-09-02T08:03:27Z</time>
      </trkpt>
      <trkpt lat="47.91696" lon="6.83211">
        <ele>916.2</ele>
        <time>2022-09-02T08:03:28Z</time>
      </trkpt>
      <trkpt lat="47.91696" lon="6.83209">
        <ele>916.3</ele>
        <time>2022-09-02T08:03:29Z</time>
      </trkpt>
      <trkpt lat="47.91696" lon="6.83208">
        <ele>916.3</ele>
        <time>2022-09-02T08:03:30Z</time>
      </trkpt>
      <trkpt lat="47.91696" lon="6.83207">
        <ele>916.4</ele>
        <time>2022-09-02T08:03:31Z</time>
      </trkpt>
      <trkpt lat="47.91696" lon="6.83205">
        <ele>916.4</ele>
        <time>2022-09-02T08:03:32Z</time>
      </trkpt>
      <trkpt lat="47.91696" lon="6.83204">
        <ele>916.5</ele>
        <time>2022-09-02T08:03:33Z</time>
      </trkpt>
      <trkpt lat="47.91696" lon="6.83203">
        <ele>916.5</ele>
        <time>2022-09-02T08:03:34Z</time>
      </trkpt>
      <trkpt lat="47.91696" lon="6.83201">
        <ele>916.6</ele>
        <time>2022-09-02T08:03:35Z</time>
      </trkpt>
      <trkpt lat="47.91697" lon="6.83199">
        <ele>916.5</ele>
        <time>2022-09-02T08:03:53Z</time>
      </trkpt>
      <trkpt lat="47.91697" lon="6.83198">
        <ele>916.6</ele>
        <time>2022-09-02T08:03:54Z</time>
      </trkpt>
      <trkpt lat="47.91697" lon="6.83196">
        <ele>916.7</ele>
        <time>2022-09-02T08:03:55Z</time>
      </trkpt>
      <trkpt lat="47.91697" lon="6.83195">
        <ele>916.7</ele>
        <time>2022-09-02T08:03:56Z</time>
      </trkpt>
      <trkpt lat="47.91698" lon="6.83194">
        <ele>916.7</ele>
        <time>2022-09-02T08:03:57Z</time>
      </trkpt>
      <trkpt lat="47.91698" lon="6.83193">
        <ele>916.8</ele>
        <time>2022-09-02T08:03:58Z</time>
      </trkpt>
      <trkpt lat="47.91698" lon="6.83191">
        <ele>917</ele>
        <time>2022-09-02T08:03:59Z</time>
      </trkpt>
      <trkpt lat="47.91699" lon="6.8319">
        <ele>916.9</ele>
        <time>2022-09-02T08:04:00Z</time>
      </trkpt>
      <trkpt lat="47.91699" lon="6.83189">
        <ele>917</ele>
        <time>2022-09-02T08:04:01Z</time>
      </trkpt>
      <trkpt lat="47.91699" lon="6.83187">
        <ele>917.2</ele>
        <time>2022-09-02T08:04:02Z</time>
      </trkpt>
      <trkpt lat="47.917" lon="6.83186">
        <ele>917.2</ele>
        <time>2022-09-02T08:04:03Z</time>
      </trkpt>
      <trkpt lat="47.917" lon="6.83184">
        <ele>917.4</ele>
        <time>2022-09-02T08:04:04Z</time>
      </trkpt>
      <trkpt lat="47.91701" lon="6.83183">
        <ele>917.3</ele>
        <time>2022-09-02T08:04:05Z</time>
      </trkpt>
      <trkpt lat="47.91701" lon="6.83182">
        <ele>917.4</ele>
        <time>2022-09-02T08:04:06Z</time>
      </trkpt>
      <trkpt lat="47.91701" lon="6.8318">
        <ele>917.6</ele>
        <time>2022-09-02T08:04:07Z</time>
      </trkpt>
      <trkpt lat="47.91702" lon="6.83179">
        <ele>917.5</ele>
        <time>2022-09-02T08:04:08Z</time>
      </trkpt>
      <trkpt lat="47.91702" lon="6.83178">
        <ele>917.6</ele>
        <time>2022-09-02T08:04:09Z</time>
      </trkpt>
      <trkpt lat="47.91703" lon="6.83177">
        <ele>917.6</ele>
        <time>2022-09-02T08:04:10Z</time>
      </trkpt>
      <trkpt lat="47.91703" lon="6.83175">
        <ele>917.7</ele>
        <time>2022-09-02T08:04:11Z</time>
      </trkpt>
      <trkpt lat="47.91703" lon="6.83174">
        <ele>917.8</ele>
        <time>2022-09-02T08:04:12Z</time>
      </trkpt>
      <trkpt lat="47.91704" lon="6.83173">
        <ele>917.8</ele>
        <time>2022-09-02T08:04:13Z</time>
      </trkpt>
      <trkpt lat="47.91704" lon="6.83172">
        <ele>917.8</ele>
        <time>2022-09-02T08:04:14Z</time>
      </trkpt>
      <trkpt lat="47.91704" lon="6.83171">
        <ele>917.9</ele>
        <time>2022-09-02T08:04:15Z</time>
      </trkpt>
      <trkpt lat="47.91704" lon="6.83169">
        <ele>918.1</ele>
        <time>2022-09-02T08:04:16Z</time>
      </trkpt>
      <trkpt lat="47.91704" lon="6.83168">
        <ele>918.2</ele>
        <time>2022-09-02T08:04:17Z</time>
      </trkpt>
      <trkpt lat="47.91704" lon="6.83167">
        <ele>918.3</ele>
        <time>2022-09-02T08:04:18Z</time>
      </trkpt>
      <trkpt lat="47.91704" lon="6.83166">
        <ele>918.4</ele>
        <time>2022-09-02T08:04:19Z</time>
      </trkpt>
      <trkpt lat="47.91704" lon="6.83164">
        <ele>918.7</ele>
        <time>2022-09-02T08:04:20Z</time>
      </trkpt>
      <trkpt lat="47.91704" lon="6.83163">
        <ele>918.8</ele>
        <time>2022-09-02T08:04:21Z</time>
      </trkpt>
      <trkpt lat="47.91704" lon="6.83162">
        <ele>919</ele>
        <time>2022-09-02T08:04:22Z</time>
      </trkpt>
      <trkpt lat="47.91704" lon="6.8316">
        <ele>919.3</ele>
        <time>2022-09-02T08:04:23Z</time>
      </trkpt>
      <trkpt lat="47.91704" lon="6.83159">
        <ele>919.5</ele>
        <time>2022-09-02T08:04:24Z</time>
      </trkpt>
      <trkpt lat="47.91704" lon="6.83158">
        <ele>919.6</ele>
        <time>2022-09-02T08:04:25Z</time>
      </trkpt>
      <trkpt lat="47.91704" lon="6.83156">
        <ele>919.9</ele>
        <time>2022-09-02T08:04:26Z</time>
      </trkpt>
      <trkpt lat="47.91704" lon="6.83155">
        <ele>920.1</ele>
        <time>2022-09-02T08:04:27Z</time>
      </trkpt>
      <trkpt lat="47.91704" lon="6.83154">
        <ele>920.2</ele>
        <time>2022-09-02T08:04:28Z</time>
      </trkpt>
      <trkpt lat="47.91705" lon="6.83152">
        <ele>920.3</ele>
        <time>2022-09-02T08:04:29Z</time>
      </trkpt>
      <trkpt lat="47.91705" lon="6.83151">
        <ele>920.5</ele>
        <time>2022-09-02T08:04:30Z</time>
      </trkpt>
      <trkpt lat="47.91705" lon="6.83149">
        <ele>920.8</ele>
        <time>2022-09-02T08:04:31Z</time>
      </trkpt>
      <trkpt lat="47.91705" lon="6.83148">
        <ele>920.9</ele>
        <time>2022-09-02T08:04:32Z</time>
      </trkpt>
      <trkpt lat="47.91705" lon="6.83147">
        <ele>921.1</ele>
        <time>2022-09-02T08:04:33Z</time>
      </trkpt>
      <trkpt lat="47.91705" lon="6.83145">
        <ele>921.4</ele>
        <time>2022-09-02T08:04:34Z</time>
      </trkpt>
      <trkpt lat="47.91705" lon="6.83144">
        <ele>921.6</ele>
        <time>2022-09-02T08:04:35Z</time>
      </trkpt>
      <trkpt lat="47.91705" lon="6.83143">
        <ele>921.7</ele>
        <time>2022-09-02T08:04:36Z</time>
      </trkpt>
      <trkpt lat="47.91706" lon="6.83142">
        <ele>921.6</ele>
        <time>2022-09-02T08:04:37Z</time>
      </trkpt>
      <trkpt lat="47.91706" lon="6.8314">
        <ele>921.9</ele>
        <time>2022-09-02T08:04:38Z</time>
      </trkpt>
      <trkpt lat="47.91706" lon="6.83139">
        <ele>922.1</ele>
        <time>2022-09-02T08:04:39Z</time>
      </trkpt>
      <trkpt lat="47.91706" lon="6.83138">
        <ele>922.2</ele>
        <time>2022-09-02T08:04:40Z</time>
      </trkpt>
      <trkpt lat="47.91706" lon="6.83136">
        <ele>922.5</ele>
        <time>2022-09-02T08:04:41Z</time>
      </trkpt>
      <trkpt lat="47.91706" lon="6.83135">
        <ele>922.7</ele>
        <time>2022-09-02T08:04:42Z</time>
      </trkpt>
      <trkpt lat="47.91706" lon="6.83133">
        <ele>923</ele>
        <time>2022-09-02T08:04:43Z</time>
      </trkpt>
      <trkpt lat="47.91706" lon="6.83132">
        <ele>923.2</ele>
        <time>2022-09-02T08:04:44Z</time>
      </trkpt>
      <trkpt lat="47.91705" lon="6.8313">
        <ele>923.7</ele>
        <time>2022-09-02T08:04:45Z</time>
      </trkpt>
      <trkpt lat="47.91706" lon="6.83129">
        <ele>923.7</ele>
        <time>2022-09-02T08:04:46Z</time>
      </trkpt>
      <trkpt lat="47.91706" lon="6.83128">
        <ele>923.8</ele>
        <time>2022-09-02T08:04:47Z</time>
      </trkpt>
      <trkpt lat="47.91706" lon="6.83126">
        <ele>924.1</ele>
        <time>2022-09-02T08:04:48Z</time>
      </trkpt>
      <trkpt lat="47.91706" lon="6.83125">
        <ele>924.3</ele>
        <time>2022-09-02T08:04:49Z</time>
      </trkpt>
      <trkpt lat="47.91706" lon="6.83124">
        <ele>924.5</ele>
        <time>2022-09-02T08:04:50Z</time>
      </trkpt>
      <trkpt lat="47.91706" lon="6.83122">
        <ele>924.8</ele>
        <time>2022-09-02T08:04:51Z</time>
      </trkpt>
      <trkpt lat="47.91706" lon="6.83121">
        <ele>924.9</ele>
        <time>2022-09-02T08:04:52Z</time>
      </trkpt>
      <trkpt lat="47.91707" lon="6.8312">
        <ele>924.9</ele>
        <time>2022-09-02T08:04:53Z</time>
      </trkpt>
      <trkpt lat="47.91707" lon="6.83118">
        <ele>925.2</ele>
        <time>2022-09-02T08:04:54Z</time>
      </trkpt>
      <trkpt lat="47.91707" lon="6.83117">
        <ele>925.3</ele>
        <time>2022-09-02T08:04:55Z</time>
      </trkpt>
      <trkpt lat="47.91707" lon="6.83116">
        <ele>925.5</ele>
        <time>2022-09-02T08:04:56Z</time>
      </trkpt>
      <trkpt lat="47.91707" lon="6.83114">
        <ele>925.8</ele>
        <time>2022-09-02T08:04:57Z</time>
      </trkpt>
      <trkpt lat="47.91708" lon="6.83113">
        <ele>925.8</ele>
        <time>2022-09-02T08:04:58Z</time>
      </trkpt>
      <trkpt lat="47.91708" lon="6.83112">
        <ele>925.9</ele>
        <time>2022-09-02T08:04:59Z</time>
      </trkpt>
      <trkpt lat="47.91708" lon="6.8311">
        <ele>926.3</ele>
        <time>2022-09-02T08:05:00Z</time>
      </trkpt>
      <trkpt lat="47.91708" lon="6.83109">
        <ele>926.4</ele>
        <time>2022-09-02T08:05:01Z</time>
      </trkpt>
      <trkpt lat="47.91709" lon="6.83108">
        <ele>926.4</ele>
        <time>2022-09-02T08:05:02Z</time>
      </trkpt>
      <trkpt lat="47.91709" lon="6.83107">
        <ele>926.5</ele>
        <time>2022-09-02T08:05:03Z</time>
      </trkpt>
      <trkpt lat="47.91709" lon="6.83106">
        <ele>926.7</ele>
        <time>2022-09-02T08:05:04Z</time>
      </trkpt>
      <trkpt lat="47.9171" lon="6.83105">
        <ele>926.6</ele>
        <time>2022-09-02T08:05:05Z</time>
      </trkpt>
      <trkpt lat="47.9171" lon="6.83104">
        <ele>926.8</ele>
        <time>2022-09-02T08:05:06Z</time>
      </trkpt>
      <trkpt lat="47.9171" lon="6.83102">
        <ele>927.1</ele>
        <time>2022-09-02T08:05:07Z</time>
      </trkpt>
      <trkpt lat="47.91711" lon="6.83101">
        <ele>927</ele>
        <time>2022-09-02T08:05:08Z</time>
      </trkpt>
      <trkpt lat="47.91711" lon="6.831">
        <ele>927.2</ele>
        <time>2022-09-02T08:05:09Z</time>
      </trkpt>
      <trkpt lat="47.91711" lon="6.83099">
        <ele>927.3</ele>
        <time>2022-09-02T08:05:10Z</time>
      </trkpt>
      <trkpt lat="47.91712" lon="6.83098">
        <ele>927.3</ele>
        <time>2022-09-02T08:05:11Z</time>
      </trkpt>
      <trkpt lat="47.91712" lon="6.83097">
        <ele>927.4</ele>
        <time>2022-09-02T08:05:12Z</time>
      </trkpt>
      <trkpt lat="47.91712" lon="6.83096">
        <ele>927.6</ele>
        <time>2022-09-02T08:05:13Z</time>
      </trkpt>
      <trkpt lat="47.91713" lon="6.83095">
        <ele>927.5</ele>
        <time>2022-09-02T08:05:14Z</time>
      </trkpt>
      <trkpt lat="47.91713" lon="6.83093">
        <ele>927.8</ele>
        <time>2022-09-02T08:05:15Z</time>
      </trkpt>
      <trkpt lat="47.91714" lon="6.83092">
        <ele>927.7</ele>
        <time>2022-09-02T08:05:16Z</time>
      </trkpt>
      <trkpt lat="47.91714" lon="6.83091">
        <ele>927.9</ele>
        <time>2022-09-02T08:05:17Z</time>
      </trkpt>
      <trkpt lat="47.91714" lon="6.8309">
        <ele>928</ele>
        <time>2022-09-02T08:05:18Z</time>
      </trkpt>
      <trkpt lat="47.91715" lon="6.83089">
        <ele>928</ele>
        <time>2022-09-02T08:05:19Z</time>
      </trkpt>
      <trkpt lat="47.91715" lon="6.83087">
        <ele>928.3</ele>
        <time>2022-09-02T08:05:20Z</time>
      </trkpt>
      <trkpt lat="47.91715" lon="6.83086">
        <ele>928.4</ele>
        <time>2022-09-02T08:05:21Z</time>
      </trkpt>
      <trkpt lat="47.91715" lon="6.83085">
        <ele>928.6</ele>
        <time>2022-09-02T08:05:22Z</time>
      </trkpt>
      <trkpt lat="47.91715" lon="6.83084">
        <ele>928.7</ele>
        <time>2022-09-02T08:05:23Z</time>
      </trkpt>
      <trkpt lat="47.91715" lon="6.83082">
        <ele>929</ele>
        <time>2022-09-02T08:05:24Z</time>
      </trkpt>
      <trkpt lat="47.91715" lon="6.83081">
        <ele>929.1</ele>
        <time>2022-09-02T08:05:25Z</time>
      </trkpt>
      <trkpt lat="47.91715" lon="6.8308">
        <ele>929.2</ele>
        <time>2022-09-02T08:05:26Z</time>
      </trkpt>
      <trkpt lat="47.91715" lon="6.83079">
        <ele>929.4</ele>
        <time>2022-09-02T08:05:27Z</time>
      </trkpt>
      <trkpt lat="47.91715" lon="6.83078">
        <ele>929.5</ele>
        <time>2022-09-02T08:05:28Z</time>
      </trkpt>
      <trkpt lat="47.91716" lon="6.83077">
        <ele>929.4</ele>
        <time>2022-09-02T08:05:29Z</time>
      </trkpt>
      <trkpt lat="47.91716" lon="6.83076">
        <ele>929.5</ele>
        <time>2022-09-02T08:05:30Z</time>
      </trkpt>
      <trkpt lat="47.91716" lon="6.83075">
        <ele>929.6</ele>
        <time>2022-09-02T08:05:31Z</time>
      </trkpt>
      <trkpt lat="47.91716" lon="6.83074">
        <ele>929.7</ele>
        <time>2022-09-02T08:05:32Z</time>
      </trkpt>
      <trkpt lat="47.91717" lon="6.83073">
        <ele>929.6</ele>
        <time>2022-09-02T08:05:33Z</time>
      </trkpt>
      <trkpt lat="47.91717" lon="6.83072">
        <ele>929.7</ele>
        <time>2022-09-02T08:05:34Z</time>
      </trkpt>
      <trkpt lat="47.91717" lon="6.83071">
        <ele>929.8</ele>
        <time>2022-09-02T08:05:35Z</time>
      </trkpt>
      <trkpt lat="47.91718" lon="6.8307">
        <ele>929.6</ele>
        <time>2022-09-02T08:05:36Z</time>
      </trkpt>
      <trkpt lat="47.91718" lon="6.83069">
        <ele>929.8</ele>
        <time>2022-09-02T08:05:37Z</time>
      </trkpt>
      <trkpt lat="47.91718" lon="6.83068">
        <ele>929.9</ele>
        <time>2022-09-02T08:05:38Z</time>
      </trkpt>
      <trkpt lat="47.91718" lon="6.83067">
        <ele>930</ele>
        <time>2022-09-02T08:05:39Z</time>
      </trkpt>
      <trkpt lat="47.91718" lon="6.83066">
        <ele>930.1</ele>
        <time>2022-09-02T08:05:40Z</time>
      </trkpt>
      <trkpt lat="47.91719" lon="6.83065">
        <ele>929.9</ele>
        <time>2022-09-02T08:05:41Z</time>
      </trkpt>
      <trkpt lat="47.91719" lon="6.83064">
        <ele>930.1</ele>
        <time>2022-09-02T08:05:42Z</time>
      </trkpt>
      <trkpt lat="47.91719" lon="6.83063">
        <ele>930.2</ele>
        <time>2022-09-02T08:05:43Z</time>
      </trkpt>
      <trkpt lat="47.91719" lon="6.83061">
        <ele>930.4</ele>
        <time>2022-09-02T08:05:44Z</time>
      </trkpt>
      <trkpt lat="47.91719" lon="6.8306">
        <ele>930.5</ele>
        <time>2022-09-02T08:05:45Z</time>
      </trkpt>
      <trkpt lat="47.9172" lon="6.83059">
        <ele>930.3</ele>
        <time>2022-09-02T08:05:46Z</time>
      </trkpt>
      <trkpt lat="47.9172" lon="6.83058">
        <ele>930.4</ele>
        <time>2022-09-02T08:05:47Z</time>
      </trkpt>
      <trkpt lat="47.9172" lon="6.83057">
        <ele>930.6</ele>
        <time>2022-09-02T08:05:48Z</time>
      </trkpt>
      <trkpt lat="47.91721" lon="6.83056">
        <ele>930.3</ele>
        <time>2022-09-02T08:05:49Z</time>
      </trkpt>
      <trkpt lat="47.91721" lon="6.83055">
        <ele>930.5</ele>
        <time>2022-09-02T08:05:50Z</time>
      </trkpt>
      <trkpt lat="47.91721" lon="6.83053">
        <ele>930.8</ele>
        <time>2022-09-02T08:05:51Z</time>
      </trkpt>
      <trkpt lat="47.91721" lon="6.83052">
        <ele>930.9</ele>
        <time>2022-09-02T08:05:52Z</time>
      </trkpt>
      <trkpt lat="47.91721" lon="6.83051">
        <ele>931.1</ele>
        <time>2022-09-02T08:05:53Z</time>
      </trkpt>
      <trkpt lat="47.91721" lon="6.8305">
        <ele>931.2</ele>
        <time>2022-09-02T08:05:54Z</time>
      </trkpt>
      <trkpt lat="47.91721" lon="6.83048">
        <ele>931.5</ele>
        <time>2022-09-02T08:05:55Z</time>
      </trkpt>
      <trkpt lat="47.91721" lon="6.83047">
        <ele>931.6</ele>
        <time>2022-09-02T08:05:56Z</time>
      </trkpt>
      <trkpt lat="47.91721" lon="6.83046">
        <ele>931.8</ele>
        <time>2022-09-02T08:05:57Z</time>
      </trkpt>
      <trkpt lat="47.91721" lon="6.83045">
        <ele>931.9</ele>
        <time>2022-09-02T08:05:58Z</time>
      </trkpt>
      <trkpt lat="47.91721" lon="6.83044">
        <ele>932.1</ele>
        <time>2022-09-02T08:05:59Z</time>
      </trkpt>
      <trkpt lat="47.91721" lon="6.83043">
        <ele>932.2</ele>
        <time>2022-09-02T08:06:00Z</time>
      </trkpt>
      <trkpt lat="47.91721" lon="6.83041">
        <ele>932.5</ele>
        <time>2022-09-02T08:06:01Z</time>
      </trkpt>
      <trkpt lat="47.91721" lon="6.8304">
        <ele>932.6</ele>
        <time>2022-09-02T08:06:02Z</time>
      </trkpt>
      <trkpt lat="47.91721" lon="6.83039">
        <ele>932.8</ele>
        <time>2022-09-02T08:06:03Z</time>
      </trkpt>
      <trkpt lat="47.91722" lon="6.83038">
        <ele>932.6</ele>
        <time>2022-09-02T08:06:04Z</time>
      </trkpt>
      <trkpt lat="47.91722" lon="6.83037">
        <ele>932.7</ele>
        <time>2022-09-02T08:06:05Z</time>
      </trkpt>
      <trkpt lat="47.91722" lon="6.83036">
        <ele>932.9</ele>
        <time>2022-09-02T08:06:06Z</time>
      </trkpt>
      <trkpt lat="47.91722" lon="6.83035">
        <ele>933</ele>
        <time>2022-09-02T08:06:07Z</time>
      </trkpt>
      <trkpt lat="47.91723" lon="6.83033">
        <ele>933</ele>
        <time>2022-09-02T08:06:08Z</time>
      </trkpt>
      <trkpt lat="47.91723" lon="6.83032">
        <ele>933.1</ele>
        <time>2022-09-02T08:06:09Z</time>
      </trkpt>
      <trkpt lat="47.91723" lon="6.83031">
        <ele>933.3</ele>
        <time>2022-09-02T08:06:10Z</time>
      </trkpt>
      <trkpt lat="47.91723" lon="6.8303">
        <ele>933.4</ele>
        <time>2022-09-02T08:06:11Z</time>
      </trkpt>
      <trkpt lat="47.91723" lon="6.83029">
        <ele>933.6</ele>
        <time>2022-09-02T08:06:12Z</time>
      </trkpt>
      <trkpt lat="47.91723" lon="6.83027">
        <ele>933.8</ele>
        <time>2022-09-02T08:06:13Z</time>
      </trkpt>
      <trkpt lat="47.91723" lon="6.83026">
        <ele>933.9</ele>
        <time>2022-09-02T08:06:14Z</time>
      </trkpt>
      <trkpt lat="47.91723" lon="6.83025">
        <ele>934.1</ele>
        <time>2022-09-02T08:06:15Z</time>
      </trkpt>
      <trkpt lat="47.91724" lon="6.83023">
        <ele>934</ele>
        <time>2022-09-02T08:06:16Z</time>
      </trkpt>
      <trkpt lat="47.91724" lon="6.83022">
        <ele>934.1</ele>
        <time>2022-09-02T08:06:17Z</time>
      </trkpt>
      <trkpt lat="47.91724" lon="6.83021">
        <ele>934.2</ele>
        <time>2022-09-02T08:06:18Z</time>
      </trkpt>
      <trkpt lat="47.91724" lon="6.83019">
        <ele>934.4</ele>
        <time>2022-09-02T08:06:19Z</time>
      </trkpt>
      <trkpt lat="47.91724" lon="6.83018">
        <ele>934.5</ele>
        <time>2022-09-02T08:06:20Z</time>
      </trkpt>
      <trkpt lat="47.91724" lon="6.83017">
        <ele>934.6</ele>
        <time>2022-09-02T08:06:21Z</time>
      </trkpt>
      <trkpt lat="47.91724" lon="6.83016">
        <ele>934.7</ele>
        <time>2022-09-02T08:06:22Z</time>
      </trkpt>
      <trkpt lat="47.91724" lon="6.83015">
        <ele>934.8</ele>
        <time>2022-09-02T08:06:23Z</time>
      </trkpt>
      <trkpt lat="47.91724" lon="6.83013">
        <ele>935.1</ele>
        <time>2022-09-02T08:06:24Z</time>
      </trkpt>
      <trkpt lat="47.91724" lon="6.83012">
        <ele>935.2</ele>
        <time>2022-09-02T08:06:25Z</time>
      </trkpt>
      <trkpt lat="47.91724" lon="6.83011">
        <ele>935.3</ele>
        <time>2022-09-02T08:06:26Z</time>
      </trkpt>
      <trkpt lat="47.91724" lon="6.8301">
        <ele>935.4</ele>
        <time>2022-09-02T08:06:27Z</time>
      </trkpt>
      <trkpt lat="47.91725" lon="6.83009">
        <ele>935.2</ele>
        <time>2022-09-02T08:06:28Z</time>
      </trkpt>
      <trkpt lat="47.91725" lon="6.83008">
        <ele>935.3</ele>
        <time>2022-09-02T08:06:29Z</time>
      </trkpt>
      <trkpt lat="47.91725" lon="6.83007">
        <ele>935.4</ele>
        <time>2022-09-02T08:06:48Z</time>
      </trkpt>
      <trkpt lat="47.91725" lon="6.83006">
        <ele>935.5</ele>
        <time>2022-09-02T08:06:49Z</time>
      </trkpt>
      <trkpt lat="47.91726" lon="6.83006">
        <ele>935.2</ele>
        <time>2022-09-02T08:06:50Z</time>
      </trkpt>
      <trkpt lat="47.91726" lon="6.83005">
        <ele>935.3</ele>
        <time>2022-09-02T08:06:51Z</time>
      </trkpt>
      <trkpt lat="47.91726" lon="6.83004">
        <ele>935.5</ele>
        <time>2022-09-02T08:06:52Z</time>
      </trkpt>
      <trkpt lat="47.91726" lon="6.83003">
        <ele>935.6</ele>
        <time>2022-09-02T08:06:53Z</time>
      </trkpt>
      <trkpt lat="47.91726" lon="6.83001">
        <ele>935.8</ele>
        <time>2022-09-02T08:06:54Z</time>
      </trkpt>
      <trkpt lat="47.91726" lon="6.83">
        <ele>935.9</ele>
        <time>2022-09-02T08:06:55Z</time>
      </trkpt>
      <trkpt lat="47.91726" lon="6.82999">
        <ele>936.1</ele>
        <time>2022-09-02T08:06:56Z</time>
      </trkpt>
      <trkpt lat="47.91726" lon="6.82997">
        <ele>936.4</ele>
        <time>2022-09-02T08:06:57Z</time>
      </trkpt>
      <trkpt lat="47.91726" lon="6.82996">
        <ele>936.6</ele>
        <time>2022-09-02T08:06:58Z</time>
      </trkpt>
      <trkpt lat="47.91726" lon="6.82995">
        <ele>936.8</ele>
        <time>2022-09-02T08:06:59Z</time>
      </trkpt>
      <trkpt lat="47.91726" lon="6.82993">
        <ele>937.1</ele>
        <time>2022-09-02T08:07:00Z</time>
      </trkpt>
      <trkpt lat="47.91726" lon="6.82992">
        <ele>937.3</ele>
        <time>2022-09-02T08:07:02Z</time>
      </trkpt>
      <trkpt lat="47.91726" lon="6.8299">
        <ele>937.6</ele>
        <time>2022-09-02T08:07:03Z</time>
      </trkpt>
      <trkpt lat="47.91726" lon="6.82989">
        <ele>937.8</ele>
        <time>2022-09-02T08:07:04Z</time>
      </trkpt>
      <trkpt lat="47.91726" lon="6.82988">
        <ele>938</ele>
        <time>2022-09-02T08:07:05Z</time>
      </trkpt>
      <trkpt lat="47.91726" lon="6.82987">
        <ele>938.1</ele>
        <time>2022-09-02T08:07:06Z</time>
      </trkpt>
      <trkpt lat="47.91726" lon="6.82986">
        <ele>938.3</ele>
        <time>2022-09-02T08:07:07Z</time>
      </trkpt>
      <trkpt lat="47.91726" lon="6.82985">
        <ele>938.5</ele>
        <time>2022-09-02T08:07:08Z</time>
      </trkpt>
      <trkpt lat="47.91726" lon="6.82984">
        <ele>938.6</ele>
        <time>2022-09-02T08:07:09Z</time>
      </trkpt>
      <trkpt lat="47.91726" lon="6.82983">
        <ele>938.8</ele>
        <time>2022-09-02T08:07:10Z</time>
      </trkpt>
      <trkpt lat="47.91726" lon="6.82982">
        <ele>939</ele>
        <time>2022-09-02T08:07:11Z</time>
      </trkpt>
      <trkpt lat="47.91726" lon="6.8298">
        <ele>939.3</ele>
        <time>2022-09-02T08:07:12Z</time>
      </trkpt>
      <trkpt lat="47.91726" lon="6.82979">
        <ele>939.5</ele>
        <time>2022-09-02T08:07:13Z</time>
      </trkpt>
      <trkpt lat="47.91726" lon="6.82978">
        <ele>939.7</ele>
        <time>2022-09-02T08:07:14Z</time>
      </trkpt>
      <trkpt lat="47.91726" lon="6.82977">
        <ele>939.8</ele>
        <time>2022-09-02T08:07:15Z</time>
      </trkpt>
      <trkpt lat="47.91727" lon="6.82976">
        <ele>939.6</ele>
        <time>2022-09-02T08:07:16Z</time>
      </trkpt>
      <trkpt lat="47.91727" lon="6.82975">
        <ele>939.8</ele>
        <time>2022-09-02T08:07:17Z</time>
      </trkpt>
      <trkpt lat="47.91727" lon="6.82974">
        <ele>940</ele>
        <time>2022-09-02T08:07:18Z</time>
      </trkpt>
      <trkpt lat="47.91727" lon="6.82973">
        <ele>940.1</ele>
        <time>2022-09-02T08:07:19Z</time>
      </trkpt>
      <trkpt lat="47.91727" lon="6.82971">
        <ele>940.5</ele>
        <time>2022-09-02T08:07:20Z</time>
      </trkpt>
      <trkpt lat="47.91728" lon="6.8297">
        <ele>940.2</ele>
        <time>2022-09-02T08:07:22Z</time>
      </trkpt>
      <trkpt lat="47.91728" lon="6.82969">
        <ele>940.4</ele>
        <time>2022-09-02T08:07:23Z</time>
      </trkpt>
      <trkpt lat="47.91728" lon="6.82968">
        <ele>940.5</ele>
        <time>2022-09-02T08:07:24Z</time>
      </trkpt>
      <trkpt lat="47.91728" lon="6.82966">
        <ele>940.8</ele>
        <time>2022-09-02T08:07:25Z</time>
      </trkpt>
      <trkpt lat="47.91728" lon="6.82965">
        <ele>941</ele>
        <time>2022-09-02T08:07:26Z</time>
      </trkpt>
      <trkpt lat="47.91728" lon="6.82964">
        <ele>941.1</ele>
        <time>2022-09-02T08:07:27Z</time>
      </trkpt>
      <trkpt lat="47.91727" lon="6.82963">
        <ele>941.6</ele>
        <time>2022-09-02T08:07:28Z</time>
      </trkpt>
      <trkpt lat="47.91727" lon="6.82962">
        <ele>941.8</ele>
        <time>2022-09-02T08:07:29Z</time>
      </trkpt>
      <trkpt lat="47.91727" lon="6.8296">
        <ele>942</ele>
        <time>2022-09-02T08:07:30Z</time>
      </trkpt>
      <trkpt lat="47.91728" lon="6.82959">
        <ele>941.8</ele>
        <time>2022-09-02T08:07:31Z</time>
      </trkpt>
      <trkpt lat="47.91728" lon="6.82958">
        <ele>942</ele>
        <time>2022-09-02T08:07:32Z</time>
      </trkpt>
      <trkpt lat="47.91728" lon="6.82957">
        <ele>942.1</ele>
        <time>2022-09-02T08:07:33Z</time>
      </trkpt>
      <trkpt lat="47.91728" lon="6.82956">
        <ele>942.3</ele>
        <time>2022-09-02T08:07:34Z</time>
      </trkpt>
      <trkpt lat="47.91728" lon="6.82955">
        <ele>942.4</ele>
        <time>2022-09-02T08:07:35Z</time>
      </trkpt>
      <trkpt lat="47.91728" lon="6.82954">
        <ele>942.5</ele>
        <time>2022-09-02T08:07:36Z</time>
      </trkpt>
      <trkpt lat="47.91728" lon="6.82953">
        <ele>942.7</ele>
        <time>2022-09-02T08:07:37Z</time>
      </trkpt>
      <trkpt lat="47.91728" lon="6.82952">
        <ele>942.8</ele>
        <time>2022-09-02T08:07:38Z</time>
      </trkpt>
      <trkpt lat="47.91728" lon="6.82951">
        <ele>943</ele>
        <time>2022-09-02T08:07:39Z</time>
      </trkpt>
      <trkpt lat="47.91729" lon="6.8295">
        <ele>942.8</ele>
        <time>2022-09-02T08:07:40Z</time>
      </trkpt>
      <trkpt lat="47.91729" lon="6.82948">
        <ele>943</ele>
        <time>2022-09-02T08:07:41Z</time>
      </trkpt>
      <trkpt lat="47.91729" lon="6.82947">
        <ele>943.2</ele>
        <time>2022-09-02T08:07:42Z</time>
      </trkpt>
      <trkpt lat="47.91729" lon="6.82946">
        <ele>943.3</ele>
        <time>2022-09-02T08:07:43Z</time>
      </trkpt>
      <trkpt lat="47.91729" lon="6.82945">
        <ele>943.5</ele>
        <time>2022-09-02T08:07:44Z</time>
      </trkpt>
      <trkpt lat="47.91729" lon="6.82944">
        <ele>943.6</ele>
        <time>2022-09-02T08:07:45Z</time>
      </trkpt>
      <trkpt lat="47.91729" lon="6.82943">
        <ele>943.8</ele>
        <time>2022-09-02T08:07:46Z</time>
      </trkpt>
      <trkpt lat="47.91729" lon="6.82942">
        <ele>943.9</ele>
        <time>2022-09-02T08:07:47Z</time>
      </trkpt>
      <trkpt lat="47.91729" lon="6.82941">
        <ele>944.1</ele>
        <time>2022-09-02T08:07:48Z</time>
      </trkpt>
      <trkpt lat="47.91729" lon="6.8294">
        <ele>944.2</ele>
        <time>2022-09-02T08:07:49Z</time>
      </trkpt>
      <trkpt lat="47.91729" lon="6.82939">
        <ele>944.4</ele>
        <time>2022-09-02T08:07:50Z</time>
      </trkpt>
      <trkpt lat="47.91729" lon="6.82938">
        <ele>944.5</ele>
        <time>2022-09-02T08:07:51Z</time>
      </trkpt>
      <trkpt lat="47.91728" lon="6.82937">
        <ele>945</ele>
        <time>2022-09-02T08:07:52Z</time>
      </trkpt>
      <trkpt lat="47.91728" lon="6.82936">
        <ele>945.2</ele>
        <time>2022-09-02T08:07:53Z</time>
      </trkpt>
      <trkpt lat="47.91727" lon="6.82935">
        <ele>945.7</ele>
        <time>2022-09-02T08:07:54Z</time>
      </trkpt>
      <trkpt lat="47.91726" lon="6.82935">
        <ele>946</ele>
        <time>2022-09-02T08:07:56Z</time>
      </trkpt>
      <trkpt lat="47.91725" lon="6.82936">
        <ele>946.2</ele>
        <time>2022-09-02T08:07:58Z</time>
      </trkpt>
      <trkpt lat="47.91724" lon="6.82936">
        <ele>946.6</ele>
        <time>2022-09-02T08:08:00Z</time>
      </trkpt>
      <trkpt lat="47.91724" lon="6.82937">
        <ele>946.4</ele>
        <time>2022-09-02T08:08:01Z</time>
      </trkpt>
      <trkpt lat="47.91723" lon="6.82938">
        <ele>946.7</ele>
        <time>2022-09-02T08:08:02Z</time>
      </trkpt>
      <trkpt lat="47.91723" lon="6.82939">
        <ele>946.5</ele>
        <time>2022-09-02T08:08:03Z</time>
      </trkpt>
      <trkpt lat="47.91722" lon="6.8294">
        <ele>946.7</ele>
        <time>2022-09-02T08:08:04Z</time>
      </trkpt>
      <trkpt lat="47.91722" lon="6.82941">
        <ele>946.6</ele>
        <time>2022-09-02T08:08:05Z</time>
      </trkpt>
      <trkpt lat="47.91721" lon="6.82942">
        <ele>946.8</ele>
        <time>2022-09-02T08:08:06Z</time>
      </trkpt>
      <trkpt lat="47.9172" lon="6.82943">
        <ele>947</ele>
        <time>2022-09-02T08:08:08Z</time>
      </trkpt>
      <trkpt lat="47.9172" lon="6.82944">
        <ele>946.9</ele>
        <time>2022-09-02T08:08:09Z</time>
      </trkpt>
      <trkpt lat="47.91719" lon="6.82944">
        <ele>947.2</ele>
        <time>2022-09-02T08:08:10Z</time>
      </trkpt>
      <trkpt lat="47.91719" lon="6.82945">
        <ele>947.1</ele>
        <time>2022-09-02T08:08:11Z</time>
      </trkpt>
      <trkpt lat="47.91718" lon="6.82946">
        <ele>947.3</ele>
        <time>2022-09-02T08:08:12Z</time>
      </trkpt>
      <trkpt lat="47.91718" lon="6.82947">
        <ele>947.2</ele>
        <time>2022-09-02T08:08:13Z</time>
      </trkpt>
      <trkpt lat="47.91718" lon="6.82948">
        <ele>947</ele>
        <time>2022-09-02T08:08:14Z</time>
      </trkpt>
      <trkpt lat="47.91717" lon="6.8295">
        <ele>947.1</ele>
        <time>2022-09-02T08:08:37Z</time>
      </trkpt>
      <trkpt lat="47.91717" lon="6.82951">
        <ele>946.9</ele>
        <time>2022-09-02T08:08:38Z</time>
      </trkpt>
      <trkpt lat="47.91716" lon="6.82952">
        <ele>947.2</ele>
        <time>2022-09-02T08:08:39Z</time>
      </trkpt>
      <trkpt lat="47.91716" lon="6.82953">
        <ele>947</ele>
        <time>2022-09-02T08:08:41Z</time>
      </trkpt>
      <trkpt lat="47.91715" lon="6.82954">
        <ele>947.2</ele>
        <time>2022-09-02T08:08:42Z</time>
      </trkpt>
      <trkpt lat="47.91714" lon="6.82954">
        <ele>947.6</ele>
        <time>2022-09-02T08:08:43Z</time>
      </trkpt>
      <trkpt lat="47.91714" lon="6.82955">
        <ele>947.4</ele>
        <time>2022-09-02T08:08:44Z</time>
      </trkpt>
      <trkpt lat="47.91713" lon="6.82956">
        <ele>947.7</ele>
        <time>2022-09-02T08:08:45Z</time>
      </trkpt>
      <trkpt lat="47.91712" lon="6.82957">
        <ele>947.9</ele>
        <time>2022-09-02T08:08:46Z</time>
      </trkpt>
      <trkpt lat="47.91711" lon="6.82957">
        <ele>948.2</ele>
        <time>2022-09-02T08:08:47Z</time>
      </trkpt>
      <trkpt lat="47.91711" lon="6.82958">
        <ele>948.1</ele>
        <time>2022-09-02T08:08:48Z</time>
      </trkpt>
      <trkpt lat="47.9171" lon="6.82959">
        <ele>948.3</ele>
        <time>2022-09-02T08:08:49Z</time>
      </trkpt>
      <trkpt lat="47.91709" lon="6.82959">
        <ele>948.7</ele>
        <time>2022-09-02T08:08:50Z</time>
      </trkpt>
      <trkpt lat="47.91709" lon="6.8296">
        <ele>948.5</ele>
        <time>2022-09-02T08:08:51Z</time>
      </trkpt>
      <trkpt lat="47.91707" lon="6.8296">
        <ele>949.2</ele>
        <time>2022-09-02T08:08:57Z</time>
      </trkpt>
      <trkpt lat="47.91707" lon="6.82961">
        <ele>949.1</ele>
        <time>2022-09-02T08:08:59Z</time>
      </trkpt>
      <trkpt lat="47.91706" lon="6.82961">
        <ele>949.5</ele>
        <time>2022-09-02T08:09:00Z</time>
      </trkpt>
      <trkpt lat="47.91705" lon="6.82962">
        <ele>949.7</ele>
        <time>2022-09-02T08:09:01Z</time>
      </trkpt>
      <trkpt lat="47.91705" lon="6.82963">
        <ele>949.5</ele>
        <time>2022-09-02T08:09:02Z</time>
      </trkpt>
      <trkpt lat="47.91704" lon="6.82963">
        <ele>949.9</ele>
        <time>2022-09-02T08:09:03Z</time>
      </trkpt>
      <trkpt lat="47.91703" lon="6.82964">
        <ele>950.1</ele>
        <time>2022-09-02T08:09:04Z</time>
      </trkpt>
      <trkpt lat="47.91703" lon="6.82965">
        <ele>950</ele>
        <time>2022-09-02T08:09:05Z</time>
      </trkpt>
      <trkpt lat="47.91702" lon="6.82966">
        <ele>950.2</ele>
        <time>2022-09-02T08:09:06Z</time>
      </trkpt>
      <trkpt lat="47.91701" lon="6.82966">
        <ele>950.5</ele>
        <time>2022-09-02T08:09:07Z</time>
      </trkpt>
      <trkpt lat="47.917" lon="6.82967">
        <ele>950.8</ele>
        <time>2022-09-02T08:09:08Z</time>
      </trkpt>
      <trkpt lat="47.91699" lon="6.82968">
        <ele>951</ele>
        <time>2022-09-02T08:09:10Z</time>
      </trkpt>
      <trkpt lat="47.91698" lon="6.82969">
        <ele>951.2</ele>
        <time>2022-09-02T08:09:11Z</time>
      </trkpt>
      <trkpt lat="47.91697" lon="6.82969">
        <ele>951.5</ele>
        <time>2022-09-02T08:09:12Z</time>
      </trkpt>
      <trkpt lat="47.91697" lon="6.8297">
        <ele>951.4</ele>
        <time>2022-09-02T08:09:13Z</time>
      </trkpt>
      <trkpt lat="47.91696" lon="6.82971">
        <ele>951.6</ele>
        <time>2022-09-02T08:09:14Z</time>
      </trkpt>
      <trkpt lat="47.91695" lon="6.82971">
        <ele>952</ele>
        <time>2022-09-02T08:09:15Z</time>
      </trkpt>
      <trkpt lat="47.91695" lon="6.82972">
        <ele>951.8</ele>
        <time>2022-09-02T08:09:16Z</time>
      </trkpt>
      <trkpt lat="47.91694" lon="6.82972">
        <ele>952.2</ele>
        <time>2022-09-02T08:09:17Z</time>
      </trkpt>
      <trkpt lat="47.91693" lon="6.82973">
        <ele>952.3</ele>
        <time>2022-09-02T08:09:18Z</time>
      </trkpt>
      <trkpt lat="47.91692" lon="6.82974">
        <ele>952.4</ele>
        <time>2022-09-02T08:09:20Z</time>
      </trkpt>
      <trkpt lat="47.91691" lon="6.82974">
        <ele>952.7</ele>
        <time>2022-09-02T08:09:21Z</time>
      </trkpt>
      <trkpt lat="47.9169" lon="6.82975">
        <ele>952.8</ele>
        <time>2022-09-02T08:09:22Z</time>
      </trkpt>
      <trkpt lat="47.91689" lon="6.82975">
        <ele>953.1</ele>
        <time>2022-09-02T08:09:23Z</time>
      </trkpt>
      <trkpt lat="47.91689" lon="6.82976">
        <ele>952.9</ele>
        <time>2022-09-02T08:09:24Z</time>
      </trkpt>
      <trkpt lat="47.91688" lon="6.82976">
        <ele>953.2</ele>
        <time>2022-09-02T08:09:25Z</time>
      </trkpt>
      <trkpt lat="47.91687" lon="6.82976">
        <ele>953.5</ele>
        <time>2022-09-02T08:09:26Z</time>
      </trkpt>
      <trkpt lat="47.91686" lon="6.82977">
        <ele>953.6</ele>
        <time>2022-09-02T08:09:27Z</time>
      </trkpt>
      <trkpt lat="47.91685" lon="6.82978">
        <ele>953.7</ele>
        <time>2022-09-02T08:09:29Z</time>
      </trkpt>
      <trkpt lat="47.91684" lon="6.82978">
        <ele>954</ele>
        <time>2022-09-02T08:09:30Z</time>
      </trkpt>
      <trkpt lat="47.91683" lon="6.82979">
        <ele>954.1</ele>
        <time>2022-09-02T08:09:32Z</time>
      </trkpt>
      <trkpt lat="47.91682" lon="6.8298">
        <ele>954.2</ele>
        <time>2022-09-02T08:09:33Z</time>
      </trkpt>
      <trkpt lat="47.91681" lon="6.8298">
        <ele>954.5</ele>
        <time>2022-09-02T08:09:34Z</time>
      </trkpt>
      <trkpt lat="47.91681" lon="6.82981">
        <ele>954.3</ele>
        <time>2022-09-02T08:09:35Z</time>
      </trkpt>
      <trkpt lat="47.9168" lon="6.82981">
        <ele>954.6</ele>
        <time>2022-09-02T08:09:36Z</time>
      </trkpt>
      <trkpt lat="47.91679" lon="6.82982">
        <ele>954.7</ele>
        <time>2022-09-02T08:09:37Z</time>
      </trkpt>
      <trkpt lat="47.91678" lon="6.82982">
        <ele>955</ele>
        <time>2022-09-02T08:09:39Z</time>
      </trkpt>
      <trkpt lat="47.91677" lon="6.82983">
        <ele>955.1</ele>
        <time>2022-09-02T08:09:40Z</time>
      </trkpt>
      <trkpt lat="47.91676" lon="6.82983">
        <ele>955.4</ele>
        <time>2022-09-02T08:09:41Z</time>
      </trkpt>
      <trkpt lat="47.91675" lon="6.82983">
        <ele>955.7</ele>
        <time>2022-09-02T08:09:42Z</time>
      </trkpt>
      <trkpt lat="47.91674" lon="6.82984">
        <ele>955.8</ele>
        <time>2022-09-02T08:09:43Z</time>
      </trkpt>
      <trkpt lat="47.91673" lon="6.82985">
        <ele>955.9</ele>
        <time>2022-09-02T08:09:45Z</time>
      </trkpt>
      <trkpt lat="47.91672" lon="6.82985">
        <ele>956.2</ele>
        <time>2022-09-02T08:09:46Z</time>
      </trkpt>
      <trkpt lat="47.91671" lon="6.82985">
        <ele>956.5</ele>
        <time>2022-09-02T08:09:47Z</time>
      </trkpt>
      <trkpt lat="47.9167" lon="6.82985">
        <ele>956.7</ele>
        <time>2022-09-02T08:09:48Z</time>
      </trkpt>
      <trkpt lat="47.91669" lon="6.82986">
        <ele>956.8</ele>
        <time>2022-09-02T08:09:50Z</time>
      </trkpt>
      <trkpt lat="47.91668" lon="6.82986">
        <ele>957.1</ele>
        <time>2022-09-02T08:09:51Z</time>
      </trkpt>
      <trkpt lat="47.91667" lon="6.82986">
        <ele>957.4</ele>
        <time>2022-09-02T08:09:52Z</time>
      </trkpt>
      <trkpt lat="47.91666" lon="6.82986">
        <ele>957.7</ele>
        <time>2022-09-02T08:09:53Z</time>
      </trkpt>
      <trkpt lat="47.91665" lon="6.82986">
        <ele>957.9</ele>
        <time>2022-09-02T08:09:55Z</time>
      </trkpt>
      <trkpt lat="47.91664" lon="6.82986">
        <ele>958</ele>
        <time>2022-09-02T08:09:56Z</time>
      </trkpt>
      <trkpt lat="47.91663" lon="6.82986">
        <ele>958.2</ele>
        <time>2022-09-02T08:09:57Z</time>
      </trkpt>
      <trkpt lat="47.91662" lon="6.82986">
        <ele>958.4</ele>
        <time>2022-09-02T08:09:58Z</time>
      </trkpt>
      <trkpt lat="47.91661" lon="6.82986">
        <ele>958.6</ele>
        <time>2022-09-02T08:10:00Z</time>
      </trkpt>
      <trkpt lat="47.9166" lon="6.82986">
        <ele>958.8</ele>
        <time>2022-09-02T08:10:01Z</time>
      </trkpt>
      <trkpt lat="47.91659" lon="6.82986">
        <ele>959</ele>
        <time>2022-09-02T08:10:02Z</time>
      </trkpt>
      <trkpt lat="47.91658" lon="6.82986">
        <ele>959.2</ele>
        <time>2022-09-02T08:10:03Z</time>
      </trkpt>
      <trkpt lat="47.91657" lon="6.82986">
        <ele>959.4</ele>
        <time>2022-09-02T08:10:04Z</time>
      </trkpt>
      <trkpt lat="47.91656" lon="6.82986">
        <ele>959.6</ele>
        <time>2022-09-02T08:10:06Z</time>
      </trkpt>
      <trkpt lat="47.91655" lon="6.82986">
        <ele>959.8</ele>
        <time>2022-09-02T08:10:07Z</time>
      </trkpt>
      <trkpt lat="47.91654" lon="6.82986">
        <ele>960</ele>
        <time>2022-09-02T08:10:08Z</time>
      </trkpt>
      <trkpt lat="47.91653" lon="6.82986">
        <ele>960.2</ele>
        <time>2022-09-02T08:10:09Z</time>
      </trkpt>
      <trkpt lat="47.91652" lon="6.82986">
        <ele>960.4</ele>
        <time>2022-09-02T08:10:11Z</time>
      </trkpt>
      <trkpt lat="47.91651" lon="6.82985">
        <ele>960.8</ele>
        <time>2022-09-02T08:10:12Z</time>
      </trkpt>
      <trkpt lat="47.9165" lon="6.82985">
        <ele>961</ele>
        <time>2022-09-02T08:10:13Z</time>
      </trkpt>
      <trkpt lat="47.91649" lon="6.82985">
        <ele>961.2</ele>
        <time>2022-09-02T08:10:14Z</time>
      </trkpt>
      <trkpt lat="47.91648" lon="6.82985">
        <ele>961.4</ele>
        <time>2022-09-02T08:10:15Z</time>
      </trkpt>
      <trkpt lat="47.91647" lon="6.82985">
        <ele>961.6</ele>
        <time>2022-09-02T08:10:16Z</time>
      </trkpt>
      <trkpt lat="47.91646" lon="6.82985">
        <ele>961.8</ele>
        <time>2022-09-02T08:10:17Z</time>
      </trkpt>
      <trkpt lat="47.91645" lon="6.82985">
        <ele>962</ele>
        <time>2022-09-02T08:10:18Z</time>
      </trkpt>
      <trkpt lat="47.91644" lon="6.82985">
        <ele>962.2</ele>
        <time>2022-09-02T08:10:20Z</time>
      </trkpt>
      <trkpt lat="47.91643" lon="6.82985">
        <ele>962.4</ele>
        <time>2022-09-02T08:10:21Z</time>
      </trkpt>
      <trkpt lat="47.91642" lon="6.82985">
        <ele>962.6</ele>
        <time>2022-09-02T08:10:22Z</time>
      </trkpt>
      <trkpt lat="47.91641" lon="6.82986">
        <ele>962.6</ele>
        <time>2022-09-02T08:10:23Z</time>
      </trkpt>
      <trkpt lat="47.91641" lon="6.82985">
        <ele>962.8</ele>
        <time>2022-09-02T08:10:24Z</time>
      </trkpt>
      <trkpt lat="47.9164" lon="6.82985">
        <ele>963</ele>
        <time>2022-09-02T08:10:25Z</time>
      </trkpt>
      <trkpt lat="47.91639" lon="6.82985">
        <ele>963.2</ele>
        <time>2022-09-02T08:10:26Z</time>
      </trkpt>
      <trkpt lat="47.91638" lon="6.82985">
        <ele>963.2</ele>
        <time>2022-09-02T08:10:27Z</time>
      </trkpt>
      <trkpt lat="47.91637" lon="6.82984">
        <ele>963.5</ele>
        <time>2022-09-02T08:10:28Z</time>
      </trkpt>
      <trkpt lat="47.91636" lon="6.82984">
        <ele>963.5</ele>
        <time>2022-09-02T08:10:30Z</time>
      </trkpt>
      <trkpt lat="47.91635" lon="6.82983">
        <ele>963.7</ele>
        <time>2022-09-02T08:10:31Z</time>
      </trkpt>
      <trkpt lat="47.91634" lon="6.82982">
        <ele>963.9</ele>
        <time>2022-09-02T08:10:34Z</time>
      </trkpt>
      <trkpt lat="47.91633" lon="6.82982">
        <ele>964</ele>
        <time>2022-09-02T08:10:37Z</time>
      </trkpt>
      <trkpt lat="47.91633" lon="6.82981">
        <ele>964.2</ele>
        <time>2022-09-02T08:10:38Z</time>
      </trkpt>
      <trkpt lat="47.91632" lon="6.82981">
        <ele>964.2</ele>
        <time>2022-09-02T08:10:39Z</time>
      </trkpt>
      <trkpt lat="47.91631" lon="6.8298">
        <ele>964.4</ele>
        <time>2022-09-02T08:10:41Z</time>
      </trkpt>
      <trkpt lat="47.9163" lon="6.8298">
        <ele>964.5</ele>
        <time>2022-09-02T08:10:42Z</time>
      </trkpt>
      <trkpt lat="47.91629" lon="6.82979">
        <ele>964.7</ele>
        <time>2022-09-02T08:10:43Z</time>
      </trkpt>
      <trkpt lat="47.91628" lon="6.82978">
        <ele>965</ele>
        <time>2022-09-02T08:10:45Z</time>
      </trkpt>
      <trkpt lat="47.91627" lon="6.82978">
        <ele>965</ele>
        <time>2022-09-02T08:10:46Z</time>
      </trkpt>
      <trkpt lat="47.91626" lon="6.82977">
        <ele>965.3</ele>
        <time>2022-09-02T08:10:47Z</time>
      </trkpt>
      <trkpt lat="47.91625" lon="6.82976">
        <ele>965.5</ele>
        <time>2022-09-02T08:10:48Z</time>
      </trkpt>
      <trkpt lat="47.91624" lon="6.82975">
        <ele>965.8</ele>
        <time>2022-09-02T08:10:50Z</time>
      </trkpt>
      <trkpt lat="47.91623" lon="6.82974">
        <ele>966.1</ele>
        <time>2022-09-02T08:10:51Z</time>
      </trkpt>
      <trkpt lat="47.91622" lon="6.82973">
        <ele>966.4</ele>
        <time>2022-09-02T08:10:53Z</time>
      </trkpt>
      <trkpt lat="47.91621" lon="6.82972">
        <ele>966.7</ele>
        <time>2022-09-02T08:10:54Z</time>
      </trkpt>
      <trkpt lat="47.91621" lon="6.82971">
        <ele>966.9</ele>
        <time>2022-09-02T08:10:55Z</time>
      </trkpt>
      <trkpt lat="47.9162" lon="6.82971">
        <ele>967</ele>
        <time>2022-09-02T08:10:56Z</time>
      </trkpt>
      <trkpt lat="47.9162" lon="6.8297">
        <ele>967.2</ele>
        <time>2022-09-02T08:10:57Z</time>
      </trkpt>
      <trkpt lat="47.91619" lon="6.82969">
        <ele>967.5</ele>
        <time>2022-09-02T08:10:58Z</time>
      </trkpt>
      <trkpt lat="47.91618" lon="6.82967">
        <ele>968</ele>
        <time>2022-09-02T08:11:14Z</time>
      </trkpt>
      <trkpt lat="47.91617" lon="6.82967">
        <ele>968</ele>
        <time>2022-09-02T08:11:15Z</time>
      </trkpt>
      <trkpt lat="47.91617" lon="6.82966">
        <ele>968.3</ele>
        <time>2022-09-02T08:11:16Z</time>
      </trkpt>
      <trkpt lat="47.91616" lon="6.82966">
        <ele>968.3</ele>
        <time>2022-09-02T08:11:17Z</time>
      </trkpt>
      <trkpt lat="47.91615" lon="6.82966">
        <ele>968.4</ele>
        <time>2022-09-02T08:11:19Z</time>
      </trkpt>
      <trkpt lat="47.91614" lon="6.82966">
        <ele>968.4</ele>
        <time>2022-09-02T08:11:20Z</time>
      </trkpt>
      <trkpt lat="47.91613" lon="6.82965">
        <ele>968.7</ele>
        <time>2022-09-02T08:11:21Z</time>
      </trkpt>
      <trkpt lat="47.91612" lon="6.82965">
        <ele>968.8</ele>
        <time>2022-09-02T08:11:22Z</time>
      </trkpt>
      <trkpt lat="47.91612" lon="6.82964">
        <ele>969</ele>
        <time>2022-09-02T08:11:23Z</time>
      </trkpt>
      <trkpt lat="47.91611" lon="6.82964">
        <ele>969.1</ele>
        <time>2022-09-02T08:11:24Z</time>
      </trkpt>
      <trkpt lat="47.9161" lon="6.82964">
        <ele>969</ele>
        <time>2022-09-02T08:11:25Z</time>
      </trkpt>
      <trkpt lat="47.91609" lon="6.82963">
        <ele>969.1</ele>
        <time>2022-09-02T08:11:26Z</time>
      </trkpt>
      <trkpt lat="47.91608" lon="6.82962">
        <ele>969.3</ele>
        <time>2022-09-02T08:11:28Z</time>
      </trkpt>
      <trkpt lat="47.91607" lon="6.82962">
        <ele>969.2</ele>
        <time>2022-09-02T08:11:29Z</time>
      </trkpt>
      <trkpt lat="47.91606" lon="6.82961">
        <ele>969.4</ele>
        <time>2022-09-02T08:11:30Z</time>
      </trkpt>
      <trkpt lat="47.91605" lon="6.8296">
        <ele>969.6</ele>
        <time>2022-09-02T08:11:39Z</time>
      </trkpt>
      <trkpt lat="47.91604" lon="6.82959">
        <ele>969.8</ele>
        <time>2022-09-02T08:11:40Z</time>
      </trkpt>
      <trkpt lat="47.91603" lon="6.82958">
        <ele>970</ele>
        <time>2022-09-02T08:11:42Z</time>
      </trkpt>
      <trkpt lat="47.91602" lon="6.82957">
        <ele>970.2</ele>
        <time>2022-09-02T08:11:44Z</time>
      </trkpt>
      <trkpt lat="47.91601" lon="6.82957">
        <ele>970.1</ele>
        <time>2022-09-02T08:11:45Z</time>
      </trkpt>
      <trkpt lat="47.916" lon="6.82956">
        <ele>970.4</ele>
        <time>2022-09-02T08:11:46Z</time>
      </trkpt>
      <trkpt lat="47.91599" lon="6.82955">
        <ele>970.6</ele>
        <time>2022-09-02T08:11:47Z</time>
      </trkpt>
      <trkpt lat="47.91598" lon="6.82954">
        <ele>970.8</ele>
        <time>2022-09-02T08:11:48Z</time>
      </trkpt>
      <trkpt lat="47.91597" lon="6.82953">
        <ele>971</ele>
        <time>2022-09-02T08:11:50Z</time>
      </trkpt>
      <trkpt lat="47.91596" lon="6.82952">
        <ele>971.3</ele>
        <time>2022-09-02T08:11:51Z</time>
      </trkpt>
      <trkpt lat="47.91595" lon="6.82951">
        <ele>971.5</ele>
        <time>2022-09-02T08:11:52Z</time>
      </trkpt>
      <trkpt lat="47.91594" lon="6.8295">
        <ele>971.7</ele>
        <time>2022-09-02T08:11:53Z</time>
      </trkpt>
      <trkpt lat="47.91593" lon="6.8295">
        <ele>971.7</ele>
        <time>2022-09-02T08:11:54Z</time>
      </trkpt>
      <trkpt lat="47.91593" lon="6.82949">
        <ele>972</ele>
        <time>2022-09-02T08:11:55Z</time>
      </trkpt>
      <trkpt lat="47.91592" lon="6.82948">
        <ele>972.2</ele>
        <time>2022-09-02T08:11:56Z</time>
      </trkpt>
      <trkpt lat="47.91591" lon="6.82948">
        <ele>972.2</ele>
        <time>2022-09-02T08:11:57Z</time>
      </trkpt>
      <trkpt lat="47.91591" lon="6.82947">
        <ele>972.5</ele>
        <time>2022-09-02T08:11:58Z</time>
      </trkpt>
      <trkpt lat="47.9159" lon="6.82946">
        <ele>972.8</ele>
        <time>2022-09-02T08:11:59Z</time>
      </trkpt>
      <trkpt lat="47.91589" lon="6.82945">
        <ele>973</ele>
        <time>2022-09-02T08:12:00Z</time>
      </trkpt>
      <trkpt lat="47.91588" lon="6.82945">
        <ele>973</ele>
        <time>2022-09-02T08:12:01Z</time>
      </trkpt>
      <trkpt lat="47.91588" lon="6.82944">
        <ele>973.3</ele>
        <time>2022-09-02T08:12:02Z</time>
      </trkpt>
      <trkpt lat="47.91587" lon="6.82943">
        <ele>973.4</ele>
        <time>2022-09-02T08:12:03Z</time>
      </trkpt>
      <trkpt lat="47.91586" lon="6.82942">
        <ele>973.6</ele>
        <time>2022-09-02T08:12:04Z</time>
      </trkpt>
      <trkpt lat="47.91585" lon="6.82941">
        <ele>973.8</ele>
        <time>2022-09-02T08:12:06Z</time>
      </trkpt>
      <trkpt lat="47.91584" lon="6.8294">
        <ele>974</ele>
        <time>2022-09-02T08:12:07Z</time>
      </trkpt>
      <trkpt lat="47.91584" lon="6.82939">
        <ele>974.2</ele>
        <time>2022-09-02T08:12:08Z</time>
      </trkpt>
      <trkpt lat="47.91583" lon="6.82939">
        <ele>974.1</ele>
        <time>2022-09-02T08:12:09Z</time>
      </trkpt>
      <trkpt lat="47.91582" lon="6.82938">
        <ele>974.2</ele>
        <time>2022-09-02T08:12:10Z</time>
      </trkpt>
      <trkpt lat="47.91582" lon="6.82937">
        <ele>974.4</ele>
        <time>2022-09-02T08:12:11Z</time>
      </trkpt>
      <trkpt lat="47.91581" lon="6.82936">
        <ele>974.4</ele>
        <time>2022-09-02T08:12:12Z</time>
      </trkpt>
      <trkpt lat="47.9158" lon="6.82936">
        <ele>974.3</ele>
        <time>2022-09-02T08:12:13Z</time>
      </trkpt>
      <trkpt lat="47.9158" lon="6.82935">
        <ele>974.5</ele>
        <time>2022-09-02T08:12:14Z</time>
      </trkpt>
      <trkpt lat="47.91579" lon="6.82934">
        <ele>974.5</ele>
        <time>2022-09-02T08:12:15Z</time>
      </trkpt>
      <trkpt lat="47.91578" lon="6.82933">
        <ele>974.6</ele>
        <time>2022-09-02T08:12:16Z</time>
      </trkpt>
      <trkpt lat="47.91577" lon="6.82932">
        <ele>974.7</ele>
        <time>2022-09-02T08:12:18Z</time>
      </trkpt>
      <trkpt lat="47.91576" lon="6.82931">
        <ele>974.7</ele>
        <time>2022-09-02T08:12:19Z</time>
      </trkpt>
      <trkpt lat="47.91575" lon="6.8293">
        <ele>974.8</ele>
        <time>2022-09-02T08:12:21Z</time>
      </trkpt>
      <trkpt lat="47.91575" lon="6.82929">
        <ele>975</ele>
        <time>2022-09-02T08:12:22Z</time>
      </trkpt>
      <trkpt lat="47.91574" lon="6.82928">
        <ele>975.1</ele>
        <time>2022-09-02T08:12:23Z</time>
      </trkpt>
      <trkpt lat="47.91573" lon="6.82927">
        <ele>975.1</ele>
        <time>2022-09-02T08:12:24Z</time>
      </trkpt>
      <trkpt lat="47.91573" lon="6.82926">
        <ele>975.4</ele>
        <time>2022-09-02T08:12:25Z</time>
      </trkpt>
      <trkpt lat="47.91572" lon="6.82925">
        <ele>975.4</ele>
        <time>2022-09-02T08:12:26Z</time>
      </trkpt>
      <trkpt lat="47.91571" lon="6.82924">
        <ele>975.5</ele>
        <time>2022-09-02T08:12:27Z</time>
      </trkpt>
      <trkpt lat="47.9157" lon="6.82923">
        <ele>975.6</ele>
        <time>2022-09-02T08:12:29Z</time>
      </trkpt>
      <trkpt lat="47.91569" lon="6.82922">
        <ele>975.7</ele>
        <time>2022-09-02T08:12:30Z</time>
      </trkpt>
      <trkpt lat="47.91568" lon="6.82921">
        <ele>975.8</ele>
        <time>2022-09-02T08:12:31Z</time>
      </trkpt>
      <trkpt lat="47.91568" lon="6.8292">
        <ele>976</ele>
        <time>2022-09-02T08:12:32Z</time>
      </trkpt>
      <trkpt lat="47.91567" lon="6.82919">
        <ele>976.1</ele>
        <time>2022-09-02T08:12:33Z</time>
      </trkpt>
      <trkpt lat="47.91566" lon="6.82918">
        <ele>976.2</ele>
        <time>2022-09-02T08:12:34Z</time>
      </trkpt>
      <trkpt lat="47.91566" lon="6.82917">
        <ele>976.4</ele>
        <time>2022-09-02T08:12:35Z</time>
      </trkpt>
      <trkpt lat="47.91565" lon="6.82916">
        <ele>976.5</ele>
        <time>2022-09-02T08:12:36Z</time>
      </trkpt>
      <trkpt lat="47.91564" lon="6.82914">
        <ele>976.6</ele>
        <time>2022-09-02T08:12:37Z</time>
      </trkpt>
      <trkpt lat="47.91564" lon="6.82913">
        <ele>976.8</ele>
        <time>2022-09-02T08:12:38Z</time>
      </trkpt>
      <trkpt lat="47.91563" lon="6.82912">
        <ele>976.8</ele>
        <time>2022-09-02T08:12:39Z</time>
      </trkpt>
      <trkpt lat="47.91563" lon="6.82911">
        <ele>976.9</ele>
        <time>2022-09-02T08:12:40Z</time>
      </trkpt>
      <trkpt lat="47.91562" lon="6.82909">
        <ele>977.1</ele>
        <time>2022-09-02T08:12:41Z</time>
      </trkpt>
      <trkpt lat="47.91562" lon="6.82908">
        <ele>977.2</ele>
        <time>2022-09-02T08:12:42Z</time>
      </trkpt>
      <trkpt lat="47.91561" lon="6.82906">
        <ele>977.4</ele>
        <time>2022-09-02T08:12:43Z</time>
      </trkpt>
      <trkpt lat="47.91561" lon="6.82905">
        <ele>977.5</ele>
        <time>2022-09-02T08:12:44Z</time>
      </trkpt>
      <trkpt lat="47.91561" lon="6.82904">
        <ele>977.7</ele>
        <time>2022-09-02T08:12:45Z</time>
      </trkpt>
      <trkpt lat="47.9156" lon="6.82902">
        <ele>977.8</ele>
        <time>2022-09-02T08:12:46Z</time>
      </trkpt>
      <trkpt lat="47.9156" lon="6.82901">
        <ele>978</ele>
        <time>2022-09-02T08:12:47Z</time>
      </trkpt>
      <trkpt lat="47.91559" lon="6.829">
        <ele>978</ele>
        <time>2022-09-02T08:13:12Z</time>
      </trkpt>
      <trkpt lat="47.91559" lon="6.82899">
        <ele>978.1</ele>
        <time>2022-09-02T08:13:13Z</time>
      </trkpt>
      <trkpt lat="47.91559" lon="6.82898">
        <ele>978.3</ele>
        <time>2022-09-02T08:13:14Z</time>
      </trkpt>
      <trkpt lat="47.91558" lon="6.82898">
        <ele>978.1</ele>
        <time>2022-09-02T08:13:15Z</time>
      </trkpt>
      <trkpt lat="47.91558" lon="6.82897">
        <ele>978.2</ele>
        <time>2022-09-02T08:13:16Z</time>
      </trkpt>
      <trkpt lat="47.91557" lon="6.82896">
        <ele>978.2</ele>
        <time>2022-09-02T08:13:17Z</time>
      </trkpt>
      <trkpt lat="47.91557" lon="6.82894">
        <ele>978.5</ele>
        <time>2022-09-02T08:13:18Z</time>
      </trkpt>
      <trkpt lat="47.91556" lon="6.82893">
        <ele>978.5</ele>
        <time>2022-09-02T08:13:19Z</time>
      </trkpt>
      <trkpt lat="47.91556" lon="6.82892">
        <ele>978.6</ele>
        <time>2022-09-02T08:13:20Z</time>
      </trkpt>
      <trkpt lat="47.91555" lon="6.8289">
        <ele>978.7</ele>
        <time>2022-09-02T08:13:21Z</time>
      </trkpt>
      <trkpt lat="47.91555" lon="6.82888">
        <ele>979</ele>
        <time>2022-09-02T08:13:22Z</time>
      </trkpt>
      <trkpt lat="47.91554" lon="6.82887">
        <ele>978.9</ele>
        <time>2022-09-02T08:13:23Z</time>
      </trkpt>
      <trkpt lat="47.91554" lon="6.82886">
        <ele>979.1</ele>
        <time>2022-09-02T08:13:24Z</time>
      </trkpt>
      <trkpt lat="47.91553" lon="6.82884">
        <ele>979.2</ele>
        <time>2022-09-02T08:13:25Z</time>
      </trkpt>
      <trkpt lat="47.91553" lon="6.82883">
        <ele>979.3</ele>
        <time>2022-09-02T08:13:26Z</time>
      </trkpt>
      <trkpt lat="47.91552" lon="6.82881">
        <ele>979.4</ele>
        <time>2022-09-02T08:13:27Z</time>
      </trkpt>
      <trkpt lat="47.91552" lon="6.8288">
        <ele>979.5</ele>
        <time>2022-09-02T08:13:28Z</time>
      </trkpt>
      <trkpt lat="47.91551" lon="6.82879">
        <ele>979.4</ele>
        <time>2022-09-02T08:13:29Z</time>
      </trkpt>
      <trkpt lat="47.9155" lon="6.82877">
        <ele>979.5</ele>
        <time>2022-09-02T08:13:30Z</time>
      </trkpt>
      <trkpt lat="47.9155" lon="6.82876">
        <ele>979.7</ele>
        <time>2022-09-02T08:13:31Z</time>
      </trkpt>
      <trkpt lat="47.91549" lon="6.82874">
        <ele>979.7</ele>
        <time>2022-09-02T08:13:32Z</time>
      </trkpt>
      <trkpt lat="47.91549" lon="6.82873">
        <ele>979.9</ele>
        <time>2022-09-02T08:13:33Z</time>
      </trkpt>
      <trkpt lat="47.91548" lon="6.82872">
        <ele>979.8</ele>
        <time>2022-09-02T08:13:34Z</time>
      </trkpt>
      <trkpt lat="47.91547" lon="6.8287">
        <ele>979.9</ele>
        <time>2022-09-02T08:13:35Z</time>
      </trkpt>
      <trkpt lat="47.91547" lon="6.82869">
        <ele>980</ele>
        <time>2022-09-02T08:13:36Z</time>
      </trkpt>
      <trkpt lat="47.91546" lon="6.82868">
        <ele>979.9</ele>
        <time>2022-09-02T08:13:37Z</time>
      </trkpt>
      <trkpt lat="47.91545" lon="6.82867">
        <ele>979.9</ele>
        <time>2022-09-02T08:13:38Z</time>
      </trkpt>
      <trkpt lat="47.91545" lon="6.82865">
        <ele>980.2</ele>
        <time>2022-09-02T08:13:39Z</time>
      </trkpt>
      <trkpt lat="47.91544" lon="6.82864">
        <ele>980.1</ele>
        <time>2022-09-02T08:13:40Z</time>
      </trkpt>
      <trkpt lat="47.91543" lon="6.82863">
        <ele>980</ele>
        <time>2022-09-02T08:13:41Z</time>
      </trkpt>
      <trkpt lat="47.91543" lon="6.82862">
        <ele>980.2</ele>
        <time>2022-09-02T08:13:42Z</time>
      </trkpt>
      <trkpt lat="47.91542" lon="6.8286">
        <ele>980.2</ele>
        <time>2022-09-02T08:13:43Z</time>
      </trkpt>
      <trkpt lat="47.91542" lon="6.82859">
        <ele>980.4</ele>
        <time>2022-09-02T08:13:44Z</time>
      </trkpt>
      <trkpt lat="47.91541" lon="6.82858">
        <ele>980.3</ele>
        <time>2022-09-02T08:13:45Z</time>
      </trkpt>
      <trkpt lat="47.91541" lon="6.82857">
        <ele>980.4</ele>
        <time>2022-09-02T08:13:46Z</time>
      </trkpt>
      <trkpt lat="47.9154" lon="6.82855">
        <ele>980.5</ele>
        <time>2022-09-02T08:13:47Z</time>
      </trkpt>
      <trkpt lat="47.91539" lon="6.82854">
        <ele>980.4</ele>
        <time>2022-09-02T08:13:48Z</time>
      </trkpt>
      <trkpt lat="47.91539" lon="6.82853">
        <ele>980.6</ele>
        <time>2022-09-02T08:13:49Z</time>
      </trkpt>
      <trkpt lat="47.91538" lon="6.82852">
        <ele>980.5</ele>
        <time>2022-09-02T08:13:50Z</time>
      </trkpt>
      <trkpt lat="47.91538" lon="6.8285">
        <ele>980.8</ele>
        <time>2022-09-02T08:13:51Z</time>
      </trkpt>
      <trkpt lat="47.91537" lon="6.82849">
        <ele>980.7</ele>
        <time>2022-09-02T08:13:52Z</time>
      </trkpt>
      <trkpt lat="47.91536" lon="6.82848">
        <ele>980.7</ele>
        <time>2022-09-02T08:13:53Z</time>
      </trkpt>
      <trkpt lat="47.91536" lon="6.82846">
        <ele>981</ele>
        <time>2022-09-02T08:13:54Z</time>
      </trkpt>
      <trkpt lat="47.91535" lon="6.82845">
        <ele>980.9</ele>
        <time>2022-09-02T08:13:55Z</time>
      </trkpt>
      <trkpt lat="47.91534" lon="6.82844">
        <ele>980.8</ele>
        <time>2022-09-02T08:13:56Z</time>
      </trkpt>
      <trkpt lat="47.91534" lon="6.82842">
        <ele>981.1</ele>
        <time>2022-09-02T08:13:57Z</time>
      </trkpt>
      <trkpt lat="47.91533" lon="6.82841">
        <ele>981</ele>
        <time>2022-09-02T08:13:58Z</time>
      </trkpt>
      <trkpt lat="47.91532" lon="6.8284">
        <ele>981</ele>
        <time>2022-09-02T08:13:59Z</time>
      </trkpt>
      <trkpt lat="47.91532" lon="6.82839">
        <ele>981.1</ele>
        <time>2022-09-02T08:14:00Z</time>
      </trkpt>
      <trkpt lat="47.91531" lon="6.82837">
        <ele>981.2</ele>
        <time>2022-09-02T08:14:01Z</time>
      </trkpt>
      <trkpt lat="47.91531" lon="6.82836">
        <ele>981.3</ele>
        <time>2022-09-02T08:14:02Z</time>
      </trkpt>
      <trkpt lat="47.9153" lon="6.82835">
        <ele>981.2</ele>
        <time>2022-09-02T08:14:03Z</time>
      </trkpt>
      <trkpt lat="47.91529" lon="6.82834">
        <ele>981.2</ele>
        <time>2022-09-02T08:14:04Z</time>
      </trkpt>
      <trkpt lat="47.91529" lon="6.82832">
        <ele>981.4</ele>
        <time>2022-09-02T08:14:05Z</time>
      </trkpt>
      <trkpt lat="47.91528" lon="6.82831">
        <ele>981.2</ele>
        <time>2022-09-02T08:14:06Z</time>
      </trkpt>
      <trkpt lat="47.91528" lon="6.8283">
        <ele>981.3</ele>
        <time>2022-09-02T08:14:07Z</time>
      </trkpt>
      <trkpt lat="47.91527" lon="6.82829">
        <ele>981.1</ele>
        <time>2022-09-02T08:14:08Z</time>
      </trkpt>
      <trkpt lat="47.91527" lon="6.82826">
        <ele>981.3</ele>
        <time>2022-09-02T08:14:21Z</time>
      </trkpt>
      <trkpt lat="47.91527" lon="6.82825">
        <ele>981.4</ele>
        <time>2022-09-02T08:14:22Z</time>
      </trkpt>
      <trkpt lat="47.91527" lon="6.82824">
        <ele>981.4</ele>
        <time>2022-09-02T08:14:23Z</time>
      </trkpt>
      <trkpt lat="47.91527" lon="6.82823">
        <ele>981.5</ele>
        <time>2022-09-02T08:14:24Z</time>
      </trkpt>
      <trkpt lat="47.91527" lon="6.82822">
        <ele>981.6</ele>
        <time>2022-09-02T08:14:26Z</time>
      </trkpt>
      <trkpt lat="47.91528" lon="6.82822">
        <ele>981.9</ele>
        <time>2022-09-02T08:14:28Z</time>
      </trkpt>
      <trkpt lat="47.91528" lon="6.82821">
        <ele>981.9</ele>
        <time>2022-09-02T08:14:29Z</time>
      </trkpt>
      <trkpt lat="47.91529" lon="6.82821">
        <ele>982.2</ele>
        <time>2022-09-02T08:14:30Z</time>
      </trkpt>
      <trkpt lat="47.91529" lon="6.8282">
        <ele>982.2</ele>
        <time>2022-09-02T08:14:31Z</time>
      </trkpt>
      <trkpt lat="47.9153" lon="6.82819">
        <ele>982.5</ele>
        <time>2022-09-02T08:14:32Z</time>
      </trkpt>
      <trkpt lat="47.91531" lon="6.82818">
        <ele>982.8</ele>
        <time>2022-09-02T08:14:34Z</time>
      </trkpt>
      <trkpt lat="47.91532" lon="6.82817">
        <ele>983.1</ele>
        <time>2022-09-02T08:14:35Z</time>
      </trkpt>
      <trkpt lat="47.91533" lon="6.82816">
        <ele>983.4</ele>
        <time>2022-09-02T08:14:37Z</time>
      </trkpt>
      <trkpt lat="47.91533" lon="6.82815">
        <ele>983.4</ele>
        <time>2022-09-02T08:14:38Z</time>
      </trkpt>
      <trkpt lat="47.91534" lon="6.82814">
        <ele>983.7</ele>
        <time>2022-09-02T08:14:39Z</time>
      </trkpt>
      <trkpt lat="47.91534" lon="6.82813">
        <ele>983.8</ele>
        <time>2022-09-02T08:14:40Z</time>
      </trkpt>
      <trkpt lat="47.91535" lon="6.82812">
        <ele>984.1</ele>
        <time>2022-09-02T08:14:41Z</time>
      </trkpt>
      <trkpt lat="47.91535" lon="6.82811">
        <ele>984.2</ele>
        <time>2022-09-02T08:14:42Z</time>
      </trkpt>
      <trkpt lat="47.91536" lon="6.8281">
        <ele>984.5</ele>
        <time>2022-09-02T08:14:43Z</time>
      </trkpt>
      <trkpt lat="47.91537" lon="6.82809">
        <ele>984.7</ele>
        <time>2022-09-02T08:14:45Z</time>
      </trkpt>
      <trkpt lat="47.91538" lon="6.82808">
        <ele>985</ele>
        <time>2022-09-02T08:14:46Z</time>
      </trkpt>
      <trkpt lat="47.91538" lon="6.82807">
        <ele>985.1</ele>
        <time>2022-09-02T08:14:47Z</time>
      </trkpt>
      <trkpt lat="47.91539" lon="6.82807">
        <ele>985.3</ele>
        <time>2022-09-02T08:14:48Z</time>
      </trkpt>
      <trkpt lat="47.91539" lon="6.82806">
        <ele>985.4</ele>
        <time>2022-09-02T08:14:49Z</time>
      </trkpt>
      <trkpt lat="47.9154" lon="6.82805">
        <ele>985.6</ele>
        <time>2022-09-02T08:14:50Z</time>
      </trkpt>
      <trkpt lat="47.91541" lon="6.82805">
        <ele>985.9</ele>
        <time>2022-09-02T08:14:51Z</time>
      </trkpt>
      <trkpt lat="47.91541" lon="6.82804">
        <ele>985.9</ele>
        <time>2022-09-02T08:14:52Z</time>
      </trkpt>
      <trkpt lat="47.91542" lon="6.82803">
        <ele>986.1</ele>
        <time>2022-09-02T08:14:53Z</time>
      </trkpt>
      <trkpt lat="47.91543" lon="6.82802">
        <ele>986.3</ele>
        <time>2022-09-02T08:14:55Z</time>
      </trkpt>
      <trkpt lat="47.91543" lon="6.82801">
        <ele>986.3</ele>
        <time>2022-09-02T08:14:56Z</time>
      </trkpt>
      <trkpt lat="47.91544" lon="6.828">
        <ele>986.5</ele>
        <time>2022-09-02T08:14:57Z</time>
      </trkpt>
      <trkpt lat="47.91544" lon="6.82799">
        <ele>986.5</ele>
        <time>2022-09-02T08:14:58Z</time>
      </trkpt>
      <trkpt lat="47.91545" lon="6.82799">
        <ele>986.7</ele>
        <time>2022-09-02T08:14:59Z</time>
      </trkpt>
      <trkpt lat="47.91546" lon="6.82798">
        <ele>986.9</ele>
        <time>2022-09-02T08:15:00Z</time>
      </trkpt>
      <trkpt lat="47.91546" lon="6.82797">
        <ele>986.9</ele>
        <time>2022-09-02T08:15:01Z</time>
      </trkpt>
      <trkpt lat="47.91547" lon="6.82796">
        <ele>987.2</ele>
        <time>2022-09-02T08:15:02Z</time>
      </trkpt>
      <trkpt lat="47.91548" lon="6.82795">
        <ele>987.4</ele>
        <time>2022-09-02T08:15:03Z</time>
      </trkpt>
      <trkpt lat="47.91549" lon="6.82794">
        <ele>987.6</ele>
        <time>2022-09-02T08:15:05Z</time>
      </trkpt>
      <trkpt lat="47.91549" lon="6.82793">
        <ele>987.6</ele>
        <time>2022-09-02T08:15:06Z</time>
      </trkpt>
      <trkpt lat="47.9155" lon="6.82792">
        <ele>987.8</ele>
        <time>2022-09-02T08:15:07Z</time>
      </trkpt>
      <trkpt lat="47.9155" lon="6.82791">
        <ele>987.8</ele>
        <time>2022-09-02T08:15:08Z</time>
      </trkpt>
      <trkpt lat="47.91551" lon="6.8279">
        <ele>988</ele>
        <time>2022-09-02T08:15:09Z</time>
      </trkpt>
      <trkpt lat="47.91552" lon="6.82789">
        <ele>988.2</ele>
        <time>2022-09-02T08:15:10Z</time>
      </trkpt>
      <trkpt lat="47.91552" lon="6.82788">
        <ele>988.2</ele>
        <time>2022-09-02T08:15:11Z</time>
      </trkpt>
      <trkpt lat="47.91553" lon="6.82787">
        <ele>988.4</ele>
        <time>2022-09-02T08:15:12Z</time>
      </trkpt>
      <trkpt lat="47.91554" lon="6.82786">
        <ele>988.7</ele>
        <time>2022-09-02T08:15:13Z</time>
      </trkpt>
      <trkpt lat="47.91554" lon="6.82785">
        <ele>988.7</ele>
        <time>2022-09-02T08:15:14Z</time>
      </trkpt>
      <trkpt lat="47.91555" lon="6.82784">
        <ele>988.9</ele>
        <time>2022-09-02T08:15:15Z</time>
      </trkpt>
      <trkpt lat="47.91556" lon="6.82783">
        <ele>989.1</ele>
        <time>2022-09-02T08:15:17Z</time>
      </trkpt>
      <trkpt lat="47.91556" lon="6.82782">
        <ele>989.1</ele>
        <time>2022-09-02T08:15:18Z</time>
      </trkpt>
      <trkpt lat="47.91557" lon="6.82781">
        <ele>989.3</ele>
        <time>2022-09-02T08:15:19Z</time>
      </trkpt>
      <trkpt lat="47.91557" lon="6.8278">
        <ele>989.3</ele>
        <time>2022-09-02T08:15:20Z</time>
      </trkpt>
      <trkpt lat="47.91558" lon="6.8278">
        <ele>989.5</ele>
        <time>2022-09-02T08:15:21Z</time>
      </trkpt>
      <trkpt lat="47.91559" lon="6.82779">
        <ele>989.7</ele>
        <time>2022-09-02T08:15:22Z</time>
      </trkpt>
      <trkpt lat="47.91559" lon="6.82778">
        <ele>989.7</ele>
        <time>2022-09-02T08:15:23Z</time>
      </trkpt>
      <trkpt lat="47.9156" lon="6.82778">
        <ele>990</ele>
        <time>2022-09-02T08:15:24Z</time>
      </trkpt>
      <trkpt lat="47.91561" lon="6.82777">
        <ele>990.2</ele>
        <time>2022-09-02T08:15:25Z</time>
      </trkpt>
      <trkpt lat="47.91562" lon="6.82776">
        <ele>990.5</ele>
        <time>2022-09-02T08:15:26Z</time>
      </trkpt>
      <trkpt lat="47.91563" lon="6.82775">
        <ele>990.7</ele>
        <time>2022-09-02T08:15:28Z</time>
      </trkpt>
      <trkpt lat="47.91564" lon="6.82775">
        <ele>990.9</ele>
        <time>2022-09-02T08:15:29Z</time>
      </trkpt>
      <trkpt lat="47.91565" lon="6.82774">
        <ele>991.2</ele>
        <time>2022-09-02T08:15:30Z</time>
      </trkpt>
      <trkpt lat="47.91566" lon="6.82773">
        <ele>991.4</ele>
        <time>2022-09-02T08:15:32Z</time>
      </trkpt>
      <trkpt lat="47.91566" lon="6.82772">
        <ele>991.5</ele>
        <time>2022-09-02T08:15:33Z</time>
      </trkpt>
      <trkpt lat="47.91567" lon="6.82772">
        <ele>991.7</ele>
        <time>2022-09-02T08:15:34Z</time>
      </trkpt>
      <trkpt lat="47.91567" lon="6.82771">
        <ele>991.7</ele>
        <time>2022-09-02T08:15:35Z</time>
      </trkpt>
      <trkpt lat="47.91568" lon="6.8277">
        <ele>992</ele>
        <time>2022-09-02T08:15:36Z</time>
      </trkpt>
      <trkpt lat="47.91569" lon="6.82769">
        <ele>992.2</ele>
        <time>2022-09-02T08:15:38Z</time>
      </trkpt>
      <trkpt lat="47.9157" lon="6.82768">
        <ele>992.5</ele>
        <time>2022-09-02T08:15:40Z</time>
      </trkpt>
      <trkpt lat="47.91571" lon="6.82768">
        <ele>992.7</ele>
        <time>2022-09-02T08:15:41Z</time>
      </trkpt>
      <trkpt lat="47.91571" lon="6.82767">
        <ele>992.7</ele>
        <time>2022-09-02T08:15:42Z</time>
      </trkpt>
      <trkpt lat="47.91572" lon="6.82767">
        <ele>992.9</ele>
        <time>2022-09-02T08:15:43Z</time>
      </trkpt>
      <trkpt lat="47.91572" lon="6.82766">
        <ele>993</ele>
        <time>2022-09-02T08:15:44Z</time>
      </trkpt>
      <trkpt lat="47.91573" lon="6.82765">
        <ele>993.2</ele>
        <time>2022-09-02T08:15:45Z</time>
      </trkpt>
      <trkpt lat="47.91573" lon="6.82764">
        <ele>993.3</ele>
        <time>2022-09-02T08:15:47Z</time>
      </trkpt>
      <trkpt lat="47.91574" lon="6.82763">
        <ele>993.5</ele>
        <time>2022-09-02T08:15:48Z</time>
      </trkpt>
      <trkpt lat="47.91574" lon="6.82761">
        <ele>993.6</ele>
        <time>2022-09-02T08:16:00Z</time>
      </trkpt>
      <trkpt lat="47.91574" lon="6.8276">
        <ele>993.6</ele>
        <time>2022-09-02T08:16:01Z</time>
      </trkpt>
      <trkpt lat="47.91575" lon="6.82759">
        <ele>993.9</ele>
        <time>2022-09-02T08:16:02Z</time>
      </trkpt>
      <trkpt lat="47.91575" lon="6.82758">
        <ele>993.9</ele>
        <time>2022-09-02T08:16:03Z</time>
      </trkpt>
      <trkpt lat="47.91575" lon="6.82757">
        <ele>993.9</ele>
        <time>2022-09-02T08:16:04Z</time>
      </trkpt>
      <trkpt lat="47.91576" lon="6.82756">
        <ele>994.2</ele>
        <time>2022-09-02T08:16:05Z</time>
      </trkpt>
      <trkpt lat="47.91576" lon="6.82755">
        <ele>994.2</ele>
        <time>2022-09-02T08:16:06Z</time>
      </trkpt>
      <trkpt lat="47.91577" lon="6.82754">
        <ele>994.5</ele>
        <time>2022-09-02T08:16:07Z</time>
      </trkpt>
      <trkpt lat="47.91578" lon="6.82753">
        <ele>994.7</ele>
        <time>2022-09-02T08:16:09Z</time>
      </trkpt>
      <trkpt lat="47.91579" lon="6.82753">
        <ele>995</ele>
        <time>2022-09-02T08:16:10Z</time>
      </trkpt>
      <trkpt lat="47.9158" lon="6.82752">
        <ele>995.2</ele>
        <time>2022-09-02T08:16:11Z</time>
      </trkpt>
      <trkpt lat="47.91581" lon="6.82752">
        <ele>995.4</ele>
        <time>2022-09-02T08:16:12Z</time>
      </trkpt>
      <trkpt lat="47.91582" lon="6.82752">
        <ele>995.6</ele>
        <time>2022-09-02T08:16:14Z</time>
      </trkpt>
      <trkpt lat="47.91583" lon="6.82753">
        <ele>995.8</ele>
        <time>2022-09-02T08:16:16Z</time>
      </trkpt>
      <trkpt lat="47.91584" lon="6.82753">
        <ele>995.9</ele>
        <time>2022-09-02T08:16:17Z</time>
      </trkpt>
      <trkpt lat="47.91584" lon="6.82754">
        <ele>995.9</ele>
        <time>2022-09-02T08:16:18Z</time>
      </trkpt>
      <trkpt lat="47.91584" lon="6.82755">
        <ele>995.8</ele>
        <time>2022-09-02T08:16:20Z</time>
      </trkpt>
      <trkpt lat="47.91584" lon="6.82756">
        <ele>995.8</ele>
        <time>2022-09-02T08:16:21Z</time>
      </trkpt>
      <trkpt lat="47.91584" lon="6.82757">
        <ele>995.7</ele>
        <time>2022-09-02T08:16:23Z</time>
      </trkpt>
      <trkpt lat="47.91584" lon="6.82758">
        <ele>995.7</ele>
        <time>2022-09-02T08:21:46Z</time>
      </trkpt>
      <trkpt lat="47.91584" lon="6.82759">
        <ele>995.7</ele>
        <time>2022-09-02T08:21:48Z</time>
      </trkpt>
      <trkpt lat="47.91583" lon="6.82758">
        <ele>995.6</ele>
        <time>2022-09-02T08:21:49Z</time>
      </trkpt>
      <trkpt lat="47.91583" lon="6.82757">
        <ele>995.7</ele>
        <time>2022-09-02T08:21:52Z</time>
      </trkpt>
      <trkpt lat="47.91583" lon="6.82756">
        <ele>995.7</ele>
        <time>2022-09-02T08:21:58Z</time>
      </trkpt>
      <trkpt lat="47.91583" lon="6.82755">
        <ele>995.7</ele>
        <time>2022-09-02T08:22:00Z</time>
      </trkpt>
      <trkpt lat="47.91582" lon="6.82754">
        <ele>995.6</ele>
        <time>2022-09-02T08:22:02Z</time>
      </trkpt>
      <trkpt lat="47.91581" lon="6.82753">
        <ele>995.4</ele>
        <time>2022-09-02T08:22:04Z</time>
      </trkpt>
      <trkpt lat="47.9158" lon="6.82753">
        <ele>995.2</ele>
        <time>2022-09-02T08:22:05Z</time>
      </trkpt>
      <trkpt lat="47.91579" lon="6.82752">
        <ele>995</ele>
        <time>2022-09-02T08:22:07Z</time>
      </trkpt>
      <trkpt lat="47.91578" lon="6.82752">
        <ele>994.8</ele>
        <time>2022-09-02T08:22:08Z</time>
      </trkpt>
      <trkpt lat="47.91577" lon="6.82752">
        <ele>994.6</ele>
        <time>2022-09-02T08:22:09Z</time>
      </trkpt>
      <trkpt lat="47.91577" lon="6.82751">
        <ele>994.6</ele>
        <time>2022-09-02T08:22:10Z</time>
      </trkpt>
      <trkpt lat="47.91576" lon="6.82751">
        <ele>994.4</ele>
        <time>2022-09-02T08:22:11Z</time>
      </trkpt>
      <trkpt lat="47.91576" lon="6.82752">
        <ele>994.3</ele>
        <time>2022-09-02T08:22:13Z</time>
      </trkpt>
      <trkpt lat="47.91577" lon="6.82752">
        <ele>994.6</ele>
        <time>2022-09-02T08:22:16Z</time>
      </trkpt>
      <trkpt lat="47.91578" lon="6.82753">
        <ele>994.7</ele>
        <time>2022-09-02T08:22:17Z</time>
      </trkpt>
      <trkpt lat="47.91579" lon="6.82753">
        <ele>995</ele>
        <time>2022-09-02T08:22:18Z</time>
      </trkpt>
      <trkpt lat="47.9158" lon="6.82753">
        <ele>995.2</ele>
        <time>2022-09-02T08:22:19Z</time>
      </trkpt>
      <trkpt lat="47.91581" lon="6.82754">
        <ele>995.4</ele>
        <time>2022-09-02T08:22:20Z</time>
      </trkpt>
      <trkpt lat="47.91582" lon="6.82755">
        <ele>995.5</ele>
        <time>2022-09-02T08:22:22Z</time>
      </trkpt>
      <trkpt lat="47.91583" lon="6.82755">
        <ele>995.7</ele>
        <time>2022-09-02T08:22:23Z</time>
      </trkpt>
      <trkpt lat="47.91584" lon="6.82756">
        <ele>995.8</ele>
        <time>2022-09-02T08:22:24Z</time>
      </trkpt>
      <trkpt lat="47.91584" lon="6.82758">
        <ele>995.7</ele>
        <time>2022-09-02T08:23:00Z</time>
      </trkpt>
      <trkpt lat="47.91584" lon="6.82759">
        <ele>995.7</ele>
        <time>2022-09-02T08:23:01Z</time>
      </trkpt>
      <trkpt lat="47.91585" lon="6.82759">
        <ele>995.7</ele>
        <time>2022-09-02T08:23:02Z</time>
      </trkpt>
      <trkpt lat="47.91584" lon="6.82759">
        <ele>995.7</ele>
        <time>2022-09-02T08:23:03Z</time>
      </trkpt>
      <trkpt lat="47.91584" lon="6.82758">
        <ele>995.7</ele>
        <time>2022-09-02T08:23:05Z</time>
      </trkpt>
      <trkpt lat="47.91583" lon="6.82757">
        <ele>995.7</ele>
        <time>2022-09-02T08:23:06Z</time>
      </trkpt>
      <trkpt lat="47.91582" lon="6.82756">
        <ele>995.5</ele>
        <time>2022-09-02T08:23:08Z</time>
      </trkpt>
      <trkpt lat="47.91582" lon="6.82755">
        <ele>995.5</ele>
        <time>2022-09-02T08:23:09Z</time>
      </trkpt>
      <trkpt lat="47.91581" lon="6.82754">
        <ele>995.4</ele>
        <time>2022-09-02T08:23:10Z</time>
      </trkpt>
      <trkpt lat="47.9158" lon="6.82753">
        <ele>995.2</ele>
        <time>2022-09-02T08:23:12Z</time>
      </trkpt>
      <trkpt lat="47.91579" lon="6.82753">
        <ele>995</ele>
        <time>2022-09-02T08:23:13Z</time>
      </trkpt>
      <trkpt lat="47.91578" lon="6.82752">
        <ele>994.8</ele>
        <time>2022-09-02T08:23:14Z</time>
      </trkpt>
      <trkpt lat="47.91577" lon="6.82752">
        <ele>994.6</ele>
        <time>2022-09-02T08:23:16Z</time>
      </trkpt>
      <trkpt lat="47.91576" lon="6.82752">
        <ele>994.3</ele>
        <time>2022-09-02T08:23:17Z</time>
      </trkpt>
      <trkpt lat="47.91575" lon="6.82752">
        <ele>994.1</ele>
        <time>2022-09-02T08:23:18Z</time>
      </trkpt>
      <trkpt lat="47.91574" lon="6.82752">
        <ele>993.9</ele>
        <time>2022-09-02T08:23:19Z</time>
      </trkpt>
      <trkpt lat="47.91573" lon="6.82751">
        <ele>993.7</ele>
        <time>2022-09-02T08:23:20Z</time>
      </trkpt>
      <trkpt lat="47.91572" lon="6.82752">
        <ele>993.5</ele>
        <time>2022-09-02T08:23:21Z</time>
      </trkpt>
      <trkpt lat="47.91571" lon="6.82752">
        <ele>993.3</ele>
        <time>2022-09-02T08:23:22Z</time>
      </trkpt>
      <trkpt lat="47.9157" lon="6.82752">
        <ele>993</ele>
        <time>2022-09-02T08:23:24Z</time>
      </trkpt>
      <trkpt lat="47.91569" lon="6.82752">
        <ele>992.8</ele>
        <time>2022-09-02T08:23:25Z</time>
      </trkpt>
      <trkpt lat="47.91568" lon="6.82752">
        <ele>992.6</ele>
        <time>2022-09-02T08:23:26Z</time>
      </trkpt>
      <trkpt lat="47.91567" lon="6.82751">
        <ele>992.4</ele>
        <time>2022-09-02T08:23:27Z</time>
      </trkpt>
      <trkpt lat="47.91566" lon="6.8275">
        <ele>992.3</ele>
        <time>2022-09-02T08:23:29Z</time>
      </trkpt>
      <trkpt lat="47.91566" lon="6.82749">
        <ele>992.2</ele>
        <time>2022-09-02T08:23:30Z</time>
      </trkpt>
      <trkpt lat="47.91565" lon="6.82748">
        <ele>991.9</ele>
        <time>2022-09-02T08:23:31Z</time>
      </trkpt>
      <trkpt lat="47.91565" lon="6.82747">
        <ele>991.8</ele>
        <time>2022-09-02T08:23:33Z</time>
      </trkpt>
      <trkpt lat="47.91564" lon="6.82746">
        <ele>991.5</ele>
        <time>2022-09-02T08:23:34Z</time>
      </trkpt>
      <trkpt lat="47.91563" lon="6.82745">
        <ele>991.2</ele>
        <time>2022-09-02T08:23:36Z</time>
      </trkpt>
      <trkpt lat="47.91563" lon="6.82744">
        <ele>991.1</ele>
        <time>2022-09-02T08:23:37Z</time>
      </trkpt>
      <trkpt lat="47.91562" lon="6.82744">
        <ele>990.9</ele>
        <time>2022-09-02T08:23:38Z</time>
      </trkpt>
      <trkpt lat="47.91562" lon="6.82743">
        <ele>990.8</ele>
        <time>2022-09-02T08:23:39Z</time>
      </trkpt>
      <trkpt lat="47.91562" lon="6.82742">
        <ele>990.7</ele>
        <time>2022-09-02T08:23:40Z</time>
      </trkpt>
      <trkpt lat="47.91561" lon="6.82741">
        <ele>990.5</ele>
        <time>2022-09-02T08:23:41Z</time>
      </trkpt>
      <trkpt lat="47.9156" lon="6.8274">
        <ele>990.2</ele>
        <time>2022-09-02T08:23:43Z</time>
      </trkpt>
      <trkpt lat="47.9156" lon="6.82739">
        <ele>990.1</ele>
        <time>2022-09-02T08:23:44Z</time>
      </trkpt>
      <trkpt lat="47.91559" lon="6.82738">
        <ele>989.8</ele>
        <time>2022-09-02T08:23:45Z</time>
      </trkpt>
      <trkpt lat="47.91559" lon="6.82737">
        <ele>989.7</ele>
        <time>2022-09-02T08:23:46Z</time>
      </trkpt>
      <trkpt lat="47.91558" lon="6.82736">
        <ele>989.5</ele>
        <time>2022-09-02T08:23:47Z</time>
      </trkpt>
      <trkpt lat="47.91558" lon="6.82735">
        <ele>989.4</ele>
        <time>2022-09-02T08:23:48Z</time>
      </trkpt>
      <trkpt lat="47.91557" lon="6.82734">
        <ele>989.1</ele>
        <time>2022-09-02T08:23:49Z</time>
      </trkpt>
      <trkpt lat="47.91556" lon="6.82733">
        <ele>988.9</ele>
        <time>2022-09-02T08:23:51Z</time>
      </trkpt>
      <trkpt lat="47.91556" lon="6.82732">
        <ele>988.8</ele>
        <time>2022-09-02T08:23:52Z</time>
      </trkpt>
      <trkpt lat="47.91556" lon="6.82731">
        <ele>988.7</ele>
        <time>2022-09-02T08:23:53Z</time>
      </trkpt>
      <trkpt lat="47.91555" lon="6.82731">
        <ele>988.5</ele>
        <time>2022-09-02T08:23:56Z</time>
      </trkpt>
      <trkpt lat="47.91555" lon="6.8273">
        <ele>988.4</ele>
        <time>2022-09-02T08:23:57Z</time>
      </trkpt>
      <trkpt lat="47.91554" lon="6.82729">
        <ele>988.2</ele>
        <time>2022-09-02T08:23:59Z</time>
      </trkpt>
      <trkpt lat="47.91554" lon="6.82728">
        <ele>988.1</ele>
        <time>2022-09-02T08:24:00Z</time>
      </trkpt>
      <trkpt lat="47.91553" lon="6.82728">
        <ele>987.9</ele>
        <time>2022-09-02T08:24:01Z</time>
      </trkpt>
      <trkpt lat="47.91553" lon="6.82727">
        <ele>987.9</ele>
        <time>2022-09-02T08:24:02Z</time>
      </trkpt>
      <trkpt lat="47.91552" lon="6.82726">
        <ele>987.6</ele>
        <time>2022-09-02T08:24:03Z</time>
      </trkpt>
      <trkpt lat="47.91551" lon="6.82725">
        <ele>987.3</ele>
        <time>2022-09-02T08:24:05Z</time>
      </trkpt>
      <trkpt lat="47.91551" lon="6.82724">
        <ele>987.3</ele>
        <time>2022-09-02T08:24:06Z</time>
      </trkpt>
      <trkpt lat="47.9155" lon="6.82723">
        <ele>987</ele>
        <time>2022-09-02T08:24:07Z</time>
      </trkpt>
      <trkpt lat="47.9155" lon="6.82722">
        <ele>987</ele>
        <time>2022-09-02T08:24:08Z</time>
      </trkpt>
      <trkpt lat="47.91549" lon="6.82721">
        <ele>986.7</ele>
        <time>2022-09-02T08:24:09Z</time>
      </trkpt>
      <trkpt lat="47.91549" lon="6.8272">
        <ele>986.7</ele>
        <time>2022-09-02T08:24:10Z</time>
      </trkpt>
      <trkpt lat="47.91549" lon="6.82719">
        <ele>986.6</ele>
        <time>2022-09-02T08:24:11Z</time>
      </trkpt>
      <trkpt lat="47.91548" lon="6.82718">
        <ele>986.3</ele>
        <time>2022-09-02T08:24:12Z</time>
      </trkpt>
      <trkpt lat="47.91548" lon="6.82717">
        <ele>986.3</ele>
        <time>2022-09-02T08:24:13Z</time>
      </trkpt>
      <trkpt lat="47.91548" lon="6.82716">
        <ele>986.2</ele>
        <time>2022-09-02T08:24:14Z</time>
      </trkpt>
      <trkpt lat="47.91547" lon="6.82715">
        <ele>986</ele>
        <time>2022-09-02T08:24:15Z</time>
      </trkpt>
      <trkpt lat="47.91547" lon="6.82714">
        <ele>985.9</ele>
        <time>2022-09-02T08:24:16Z</time>
      </trkpt>
      <trkpt lat="47.91547" lon="6.82712">
        <ele>985.8</ele>
        <time>2022-09-02T08:24:17Z</time>
      </trkpt>
      <trkpt lat="47.91546" lon="6.82711">
        <ele>985.6</ele>
        <time>2022-09-02T08:24:18Z</time>
      </trkpt>
      <trkpt lat="47.91546" lon="6.8271">
        <ele>985.6</ele>
        <time>2022-09-02T08:24:19Z</time>
      </trkpt>
      <trkpt lat="47.91546" lon="6.82708">
        <ele>985.4</ele>
        <time>2022-09-02T08:24:20Z</time>
      </trkpt>
      <trkpt lat="47.91546" lon="6.82707">
        <ele>985.4</ele>
        <time>2022-09-02T08:24:21Z</time>
      </trkpt>
      <trkpt lat="47.91546" lon="6.82706">
        <ele>985.3</ele>
        <time>2022-09-02T08:24:22Z</time>
      </trkpt>
      <trkpt lat="47.91546" lon="6.82704">
        <ele>985.2</ele>
        <time>2022-09-02T08:24:23Z</time>
      </trkpt>
      <trkpt lat="47.91545" lon="6.82703">
        <ele>985.1</ele>
        <time>2022-09-02T08:24:24Z</time>
      </trkpt>
      <trkpt lat="47.91545" lon="6.82701">
        <ele>985</ele>
        <time>2022-09-02T08:24:25Z</time>
      </trkpt>
      <trkpt lat="47.91546" lon="6.827">
        <ele>985</ele>
        <time>2022-09-02T08:24:26Z</time>
      </trkpt>
      <trkpt lat="47.91546" lon="6.82698">
        <ele>984.9</ele>
        <time>2022-09-02T08:24:27Z</time>
      </trkpt>
      <trkpt lat="47.91546" lon="6.82697">
        <ele>984.8</ele>
        <time>2022-09-02T08:24:28Z</time>
      </trkpt>
      <trkpt lat="47.91546" lon="6.82695">
        <ele>984.7</ele>
        <time>2022-09-02T08:24:29Z</time>
      </trkpt>
      <trkpt lat="47.91546" lon="6.82694">
        <ele>984.6</ele>
        <time>2022-09-02T08:24:30Z</time>
      </trkpt>
      <trkpt lat="47.91546" lon="6.82692">
        <ele>984.6</ele>
        <time>2022-09-02T08:24:31Z</time>
      </trkpt>
      <trkpt lat="47.91546" lon="6.82691">
        <ele>984.5</ele>
        <time>2022-09-02T08:24:32Z</time>
      </trkpt>
      <trkpt lat="47.91546" lon="6.8269">
        <ele>984.5</ele>
        <time>2022-09-02T08:24:33Z</time>
      </trkpt>
      <trkpt lat="47.91546" lon="6.82688">
        <ele>984.4</ele>
        <time>2022-09-02T08:24:34Z</time>
      </trkpt>
      <trkpt lat="47.91546" lon="6.82687">
        <ele>984.4</ele>
        <time>2022-09-02T08:24:35Z</time>
      </trkpt>
      <trkpt lat="47.91547" lon="6.82686">
        <ele>984.4</ele>
        <time>2022-09-02T08:24:36Z</time>
      </trkpt>
      <trkpt lat="47.91547" lon="6.82684">
        <ele>984.3</ele>
        <time>2022-09-02T08:24:37Z</time>
      </trkpt>
      <trkpt lat="47.91547" lon="6.82683">
        <ele>984.3</ele>
        <time>2022-09-02T08:24:38Z</time>
      </trkpt>
      <trkpt lat="47.91547" lon="6.82681">
        <ele>984.2</ele>
        <time>2022-09-02T08:24:39Z</time>
      </trkpt>
      <trkpt lat="47.91548" lon="6.8268">
        <ele>984.2</ele>
        <time>2022-09-02T08:24:40Z</time>
      </trkpt>
      <trkpt lat="47.91548" lon="6.82678">
        <ele>984.1</ele>
        <time>2022-09-02T08:24:41Z</time>
      </trkpt>
      <trkpt lat="47.91548" lon="6.82677">
        <ele>984.1</ele>
        <time>2022-09-02T08:24:42Z</time>
      </trkpt>
      <trkpt lat="47.91549" lon="6.82675">
        <ele>984.1</ele>
        <time>2022-09-02T08:24:43Z</time>
      </trkpt>
      <trkpt lat="47.91549" lon="6.82674">
        <ele>984</ele>
        <time>2022-09-02T08:24:44Z</time>
      </trkpt>
      <trkpt lat="47.91549" lon="6.82673">
        <ele>984</ele>
        <time>2022-09-02T08:24:45Z</time>
      </trkpt>
      <trkpt lat="47.91549" lon="6.82671">
        <ele>983.9</ele>
        <time>2022-09-02T08:24:46Z</time>
      </trkpt>
      <trkpt lat="47.91549" lon="6.8267">
        <ele>983.9</ele>
        <time>2022-09-02T08:24:47Z</time>
      </trkpt>
      <trkpt lat="47.91549" lon="6.82668">
        <ele>983.8</ele>
        <time>2022-09-02T08:24:48Z</time>
      </trkpt>
      <trkpt lat="47.9155" lon="6.82667">
        <ele>983.8</ele>
        <time>2022-09-02T08:24:49Z</time>
      </trkpt>
      <trkpt lat="47.9155" lon="6.82665">
        <ele>983.7</ele>
        <time>2022-09-02T08:24:50Z</time>
      </trkpt>
      <trkpt lat="47.9155" lon="6.82664">
        <ele>983.6</ele>
        <time>2022-09-02T08:24:51Z</time>
      </trkpt>
      <trkpt lat="47.9155" lon="6.82662">
        <ele>983.4</ele>
        <time>2022-09-02T08:24:52Z</time>
      </trkpt>
      <trkpt lat="47.9155" lon="6.82661">
        <ele>983.3</ele>
        <time>2022-09-02T08:24:53Z</time>
      </trkpt>
      <trkpt lat="47.9155" lon="6.82659">
        <ele>983.1</ele>
        <time>2022-09-02T08:24:54Z</time>
      </trkpt>
      <trkpt lat="47.91551" lon="6.82658">
        <ele>983.1</ele>
        <time>2022-09-02T08:24:55Z</time>
      </trkpt>
      <trkpt lat="47.91551" lon="6.82657">
        <ele>983</ele>
        <time>2022-09-02T08:24:56Z</time>
      </trkpt>
      <trkpt lat="47.91551" lon="6.82656">
        <ele>982.9</ele>
        <time>2022-09-02T08:24:57Z</time>
      </trkpt>
      <trkpt lat="47.91551" lon="6.82655">
        <ele>982.9</ele>
        <time>2022-09-02T08:24:58Z</time>
      </trkpt>
      <trkpt lat="47.91551" lon="6.82654">
        <ele>982.8</ele>
        <time>2022-09-02T08:24:59Z</time>
      </trkpt>
      <trkpt lat="47.91551" lon="6.82653">
        <ele>982.7</ele>
        <time>2022-09-02T08:25:00Z</time>
      </trkpt>
      <trkpt lat="47.91551" lon="6.82652">
        <ele>982.6</ele>
        <time>2022-09-02T08:25:02Z</time>
      </trkpt>
      <trkpt lat="47.91552" lon="6.82651">
        <ele>982.6</ele>
        <time>2022-09-02T08:25:03Z</time>
      </trkpt>
      <trkpt lat="47.91552" lon="6.8265">
        <ele>982.5</ele>
        <time>2022-09-02T08:25:04Z</time>
      </trkpt>
      <trkpt lat="47.91552" lon="6.82649">
        <ele>982.4</ele>
        <time>2022-09-02T08:25:05Z</time>
      </trkpt>
      <trkpt lat="47.91552" lon="6.82648">
        <ele>982.4</ele>
        <time>2022-09-02T08:25:06Z</time>
      </trkpt>
      <trkpt lat="47.91552" lon="6.82646">
        <ele>982.2</ele>
        <time>2022-09-02T08:25:07Z</time>
      </trkpt>
      <trkpt lat="47.91552" lon="6.82645">
        <ele>982.1</ele>
        <time>2022-09-02T08:25:08Z</time>
      </trkpt>
      <trkpt lat="47.91553" lon="6.82643">
        <ele>982</ele>
        <time>2022-09-02T08:25:09Z</time>
      </trkpt>
      <trkpt lat="47.91553" lon="6.82642">
        <ele>982</ele>
        <time>2022-09-02T08:25:10Z</time>
      </trkpt>
      <trkpt lat="47.91553" lon="6.8264">
        <ele>981.8</ele>
        <time>2022-09-02T08:25:11Z</time>
      </trkpt>
      <trkpt lat="47.91553" lon="6.82639">
        <ele>981.7</ele>
        <time>2022-09-02T08:25:12Z</time>
      </trkpt>
      <trkpt lat="47.91553" lon="6.82637">
        <ele>981.6</ele>
        <time>2022-09-02T08:25:13Z</time>
      </trkpt>
      <trkpt lat="47.91553" lon="6.82636">
        <ele>981.6</ele>
        <time>2022-09-02T08:25:14Z</time>
      </trkpt>
      <trkpt lat="47.91553" lon="6.82634">
        <ele>981.5</ele>
        <time>2022-09-02T08:25:15Z</time>
      </trkpt>
      <trkpt lat="47.91553" lon="6.82633">
        <ele>981.5</ele>
        <time>2022-09-02T08:25:16Z</time>
      </trkpt>
      <trkpt lat="47.91553" lon="6.82631">
        <ele>981.4</ele>
        <time>2022-09-02T08:25:17Z</time>
      </trkpt>
      <trkpt lat="47.91554" lon="6.8263">
        <ele>981.5</ele>
        <time>2022-09-02T08:25:18Z</time>
      </trkpt>
      <trkpt lat="47.91554" lon="6.82629">
        <ele>981.5</ele>
        <time>2022-09-02T08:25:19Z</time>
      </trkpt>
      <trkpt lat="47.91554" lon="6.82627">
        <ele>981.4</ele>
        <time>2022-09-02T08:25:20Z</time>
      </trkpt>
      <trkpt lat="47.91554" lon="6.82626">
        <ele>981.3</ele>
        <time>2022-09-02T08:25:21Z</time>
      </trkpt>
      <trkpt lat="47.91553" lon="6.82625">
        <ele>981.2</ele>
        <time>2022-09-02T08:25:22Z</time>
      </trkpt>
      <trkpt lat="47.91553" lon="6.82623">
        <ele>981.1</ele>
        <time>2022-09-02T08:25:23Z</time>
      </trkpt>
      <trkpt lat="47.91553" lon="6.82621">
        <ele>981</ele>
        <time>2022-09-02T08:25:24Z</time>
      </trkpt>
      <trkpt lat="47.91553" lon="6.8262">
        <ele>981</ele>
        <time>2022-09-02T08:25:25Z</time>
      </trkpt>
      <trkpt lat="47.91553" lon="6.82619">
        <ele>980.9</ele>
        <time>2022-09-02T08:25:26Z</time>
      </trkpt>
      <trkpt lat="47.91552" lon="6.82617">
        <ele>980.7</ele>
        <time>2022-09-02T08:25:27Z</time>
      </trkpt>
      <trkpt lat="47.91552" lon="6.82616">
        <ele>980.7</ele>
        <time>2022-09-02T08:25:28Z</time>
      </trkpt>
      <trkpt lat="47.91551" lon="6.82614">
        <ele>980.5</ele>
        <time>2022-09-02T08:25:29Z</time>
      </trkpt>
      <trkpt lat="47.91551" lon="6.82613">
        <ele>980.4</ele>
        <time>2022-09-02T08:25:30Z</time>
      </trkpt>
      <trkpt lat="47.91551" lon="6.82612">
        <ele>980.4</ele>
        <time>2022-09-02T08:25:31Z</time>
      </trkpt>
      <trkpt lat="47.9155" lon="6.8261">
        <ele>980.1</ele>
        <time>2022-09-02T08:25:32Z</time>
      </trkpt>
      <trkpt lat="47.9155" lon="6.82609">
        <ele>980</ele>
        <time>2022-09-02T08:25:33Z</time>
      </trkpt>
      <trkpt lat="47.9155" lon="6.82608">
        <ele>980</ele>
        <time>2022-09-02T08:25:34Z</time>
      </trkpt>
      <trkpt lat="47.9155" lon="6.82606">
        <ele>979.8</ele>
        <time>2022-09-02T08:25:35Z</time>
      </trkpt>
      <trkpt lat="47.91549" lon="6.82605">
        <ele>979.6</ele>
        <time>2022-09-02T08:25:36Z</time>
      </trkpt>
      <trkpt lat="47.91549" lon="6.82604">
        <ele>979.5</ele>
        <time>2022-09-02T08:25:37Z</time>
      </trkpt>
      <trkpt lat="47.91549" lon="6.82602">
        <ele>979.4</ele>
        <time>2022-09-02T08:25:38Z</time>
      </trkpt>
      <trkpt lat="47.91548" lon="6.82601">
        <ele>979.2</ele>
        <time>2022-09-02T08:25:39Z</time>
      </trkpt>
      <trkpt lat="47.91548" lon="6.82599">
        <ele>979</ele>
        <time>2022-09-02T08:25:40Z</time>
      </trkpt>
      <trkpt lat="47.91548" lon="6.82598">
        <ele>979</ele>
        <time>2022-09-02T08:25:41Z</time>
      </trkpt>
      <trkpt lat="47.91548" lon="6.82597">
        <ele>978.9</ele>
        <time>2022-09-02T08:25:42Z</time>
      </trkpt>
      <trkpt lat="47.91547" lon="6.82595">
        <ele>978.6</ele>
        <time>2022-09-02T08:25:43Z</time>
      </trkpt>
      <trkpt lat="47.91547" lon="6.82594">
        <ele>978.5</ele>
        <time>2022-09-02T08:25:44Z</time>
      </trkpt>
      <trkpt lat="47.91547" lon="6.82593">
        <ele>978.5</ele>
        <time>2022-09-02T08:25:45Z</time>
      </trkpt>
      <trkpt lat="47.91547" lon="6.82591">
        <ele>978.3</ele>
        <time>2022-09-02T08:25:46Z</time>
      </trkpt>
      <trkpt lat="47.91546" lon="6.8259">
        <ele>978.1</ele>
        <time>2022-09-02T08:25:47Z</time>
      </trkpt>
      <trkpt lat="47.91546" lon="6.82588">
        <ele>978</ele>
        <time>2022-09-02T08:25:48Z</time>
      </trkpt>
      <trkpt lat="47.91546" lon="6.82587">
        <ele>977.9</ele>
        <time>2022-09-02T08:25:49Z</time>
      </trkpt>
      <trkpt lat="47.91546" lon="6.82585">
        <ele>977.7</ele>
        <time>2022-09-02T08:25:50Z</time>
      </trkpt>
      <trkpt lat="47.91545" lon="6.82584">
        <ele>977.5</ele>
        <time>2022-09-02T08:25:51Z</time>
      </trkpt>
      <trkpt lat="47.91545" lon="6.82583">
        <ele>977.5</ele>
        <time>2022-09-02T08:25:52Z</time>
      </trkpt>
      <trkpt lat="47.91545" lon="6.82581">
        <ele>977.3</ele>
        <time>2022-09-02T08:25:53Z</time>
      </trkpt>
      <trkpt lat="47.91544" lon="6.8258">
        <ele>977.1</ele>
        <time>2022-09-02T08:25:54Z</time>
      </trkpt>
      <trkpt lat="47.91544" lon="6.82579">
        <ele>977</ele>
        <time>2022-09-02T08:25:55Z</time>
      </trkpt>
      <trkpt lat="47.91544" lon="6.82578">
        <ele>977</ele>
        <time>2022-09-02T08:25:56Z</time>
      </trkpt>
      <trkpt lat="47.91544" lon="6.82576">
        <ele>976.8</ele>
        <time>2022-09-02T08:25:57Z</time>
      </trkpt>
      <trkpt lat="47.91543" lon="6.82575">
        <ele>976.6</ele>
        <time>2022-09-02T08:25:58Z</time>
      </trkpt>
      <trkpt lat="47.91543" lon="6.82574">
        <ele>976.5</ele>
        <time>2022-09-02T08:25:59Z</time>
      </trkpt>
      <trkpt lat="47.91543" lon="6.82572">
        <ele>976.4</ele>
        <time>2022-09-02T08:26:00Z</time>
      </trkpt>
      <trkpt lat="47.91543" lon="6.82571">
        <ele>976.3</ele>
        <time>2022-09-02T08:26:01Z</time>
      </trkpt>
      <trkpt lat="47.91543" lon="6.8257">
        <ele>976.2</ele>
        <time>2022-09-02T08:26:02Z</time>
      </trkpt>
      <trkpt lat="47.91543" lon="6.82568">
        <ele>976.1</ele>
        <time>2022-09-02T08:26:03Z</time>
      </trkpt>
      <trkpt lat="47.91542" lon="6.82567">
        <ele>975.9</ele>
        <time>2022-09-02T08:26:04Z</time>
      </trkpt>
      <trkpt lat="47.91542" lon="6.82566">
        <ele>975.8</ele>
        <time>2022-09-02T08:26:05Z</time>
      </trkpt>
      <trkpt lat="47.91542" lon="6.82564">
        <ele>975.7</ele>
        <time>2022-09-02T08:26:06Z</time>
      </trkpt>
      <trkpt lat="47.91542" lon="6.82563">
        <ele>975.6</ele>
        <time>2022-09-02T08:26:07Z</time>
      </trkpt>
      <trkpt lat="47.91542" lon="6.82562">
        <ele>975.5</ele>
        <time>2022-09-02T08:26:08Z</time>
      </trkpt>
      <trkpt lat="47.91543" lon="6.8256">
        <ele>975.5</ele>
        <time>2022-09-02T08:26:09Z</time>
      </trkpt>
      <trkpt lat="47.91543" lon="6.82559">
        <ele>975.4</ele>
        <time>2022-09-02T08:26:10Z</time>
      </trkpt>
      <trkpt lat="47.91543" lon="6.82558">
        <ele>975.4</ele>
        <time>2022-09-02T08:26:11Z</time>
      </trkpt>
      <trkpt lat="47.91543" lon="6.82556">
        <ele>975.2</ele>
        <time>2022-09-02T08:26:12Z</time>
      </trkpt>
      <trkpt lat="47.91543" lon="6.82555">
        <ele>975.1</ele>
        <time>2022-09-02T08:26:13Z</time>
      </trkpt>
      <trkpt lat="47.91543" lon="6.82554">
        <ele>975</ele>
        <time>2022-09-02T08:26:14Z</time>
      </trkpt>
      <trkpt lat="47.91543" lon="6.82552">
        <ele>974.8</ele>
        <time>2022-09-02T08:26:15Z</time>
      </trkpt>
      <trkpt lat="47.91543" lon="6.82551">
        <ele>974.7</ele>
        <time>2022-09-02T08:26:16Z</time>
      </trkpt>
      <trkpt lat="47.91543" lon="6.8255">
        <ele>974.6</ele>
        <time>2022-09-02T08:26:17Z</time>
      </trkpt>
      <trkpt lat="47.91544" lon="6.82548">
        <ele>974.6</ele>
        <time>2022-09-02T08:26:18Z</time>
      </trkpt>
      <trkpt lat="47.91544" lon="6.82547">
        <ele>974.5</ele>
        <time>2022-09-02T08:26:19Z</time>
      </trkpt>
      <trkpt lat="47.91544" lon="6.82546">
        <ele>974.4</ele>
        <time>2022-09-02T08:26:20Z</time>
      </trkpt>
      <trkpt lat="47.91543" lon="6.82545">
        <ele>974.1</ele>
        <time>2022-09-02T08:26:21Z</time>
      </trkpt>
      <trkpt lat="47.91543" lon="6.82543">
        <ele>973.9</ele>
        <time>2022-09-02T08:26:22Z</time>
      </trkpt>
      <trkpt lat="47.91543" lon="6.82542">
        <ele>973.8</ele>
        <time>2022-09-02T08:26:23Z</time>
      </trkpt>
      <trkpt lat="47.91543" lon="6.8254">
        <ele>973.6</ele>
        <time>2022-09-02T08:26:24Z</time>
      </trkpt>
      <trkpt lat="47.91543" lon="6.82539">
        <ele>973.5</ele>
        <time>2022-09-02T08:26:25Z</time>
      </trkpt>
      <trkpt lat="47.91543" lon="6.82538">
        <ele>973.4</ele>
        <time>2022-09-02T08:26:26Z</time>
      </trkpt>
      <trkpt lat="47.91544" lon="6.82536">
        <ele>973.3</ele>
        <time>2022-09-02T08:26:27Z</time>
      </trkpt>
      <trkpt lat="47.91544" lon="6.82535">
        <ele>973.2</ele>
        <time>2022-09-02T08:26:28Z</time>
      </trkpt>
      <trkpt lat="47.91544" lon="6.82534">
        <ele>973.1</ele>
        <time>2022-09-02T08:26:29Z</time>
      </trkpt>
      <trkpt lat="47.91544" lon="6.82532">
        <ele>972.9</ele>
        <time>2022-09-02T08:26:30Z</time>
      </trkpt>
      <trkpt lat="47.91544" lon="6.82531">
        <ele>972.8</ele>
        <time>2022-09-02T08:26:31Z</time>
      </trkpt>
      <trkpt lat="47.91544" lon="6.8253">
        <ele>972.7</ele>
        <time>2022-09-02T08:26:32Z</time>
      </trkpt>
      <trkpt lat="47.91544" lon="6.82529">
        <ele>972.6</ele>
        <time>2022-09-02T08:26:33Z</time>
      </trkpt>
      <trkpt lat="47.91544" lon="6.82527">
        <ele>972.4</ele>
        <time>2022-09-02T08:26:34Z</time>
      </trkpt>
      <trkpt lat="47.91544" lon="6.82524">
        <ele>972.2</ele>
        <time>2022-09-02T08:27:14Z</time>
      </trkpt>
      <trkpt lat="47.91544" lon="6.82523">
        <ele>972.1</ele>
        <time>2022-09-02T08:27:15Z</time>
      </trkpt>
      <trkpt lat="47.91544" lon="6.82522">
        <ele>972</ele>
        <time>2022-09-02T08:27:16Z</time>
      </trkpt>
      <trkpt lat="47.91544" lon="6.8252">
        <ele>971.8</ele>
        <time>2022-09-02T08:27:17Z</time>
      </trkpt>
      <trkpt lat="47.91544" lon="6.82519">
        <ele>971.7</ele>
        <time>2022-09-02T08:27:18Z</time>
      </trkpt>
      <trkpt lat="47.91544" lon="6.82518">
        <ele>971.7</ele>
        <time>2022-09-02T08:27:19Z</time>
      </trkpt>
      <trkpt lat="47.91544" lon="6.82517">
        <ele>971.6</ele>
        <time>2022-09-02T08:27:20Z</time>
      </trkpt>
      <trkpt lat="47.91544" lon="6.82515">
        <ele>971.4</ele>
        <time>2022-09-02T08:27:21Z</time>
      </trkpt>
      <trkpt lat="47.91544" lon="6.82514">
        <ele>971.3</ele>
        <time>2022-09-02T08:27:22Z</time>
      </trkpt>
      <trkpt lat="47.91544" lon="6.82513">
        <ele>971.2</ele>
        <time>2022-09-02T08:27:23Z</time>
      </trkpt>
      <trkpt lat="47.91544" lon="6.82511">
        <ele>971</ele>
        <time>2022-09-02T08:27:24Z</time>
      </trkpt>
      <trkpt lat="47.91544" lon="6.8251">
        <ele>971</ele>
        <time>2022-09-02T08:27:25Z</time>
      </trkpt>
      <trkpt lat="47.91544" lon="6.82509">
        <ele>970.9</ele>
        <time>2022-09-02T08:27:26Z</time>
      </trkpt>
      <trkpt lat="47.91544" lon="6.82507">
        <ele>970.7</ele>
        <time>2022-09-02T08:27:27Z</time>
      </trkpt>
      <trkpt lat="47.91543" lon="6.82506">
        <ele>970.4</ele>
        <time>2022-09-02T08:27:28Z</time>
      </trkpt>
      <trkpt lat="47.91543" lon="6.82505">
        <ele>970.3</ele>
        <time>2022-09-02T08:27:29Z</time>
      </trkpt>
      <trkpt lat="47.91543" lon="6.82503">
        <ele>970.1</ele>
        <time>2022-09-02T08:27:30Z</time>
      </trkpt>
      <trkpt lat="47.91543" lon="6.82502">
        <ele>970</ele>
        <time>2022-09-02T08:27:31Z</time>
      </trkpt>
      <trkpt lat="47.91543" lon="6.82501">
        <ele>969.9</ele>
        <time>2022-09-02T08:27:32Z</time>
      </trkpt>
      <trkpt lat="47.91543" lon="6.82499">
        <ele>969.7</ele>
        <time>2022-09-02T08:27:33Z</time>
      </trkpt>
      <trkpt lat="47.91543" lon="6.82498">
        <ele>969.6</ele>
        <time>2022-09-02T08:27:34Z</time>
      </trkpt>
      <trkpt lat="47.91543" lon="6.82497">
        <ele>969.5</ele>
        <time>2022-09-02T08:27:35Z</time>
      </trkpt>
      <trkpt lat="47.91543" lon="6.82496">
        <ele>969.3</ele>
        <time>2022-09-02T08:27:36Z</time>
      </trkpt>
      <trkpt lat="47.91543" lon="6.82495">
        <ele>969.2</ele>
        <time>2022-09-02T08:27:37Z</time>
      </trkpt>
      <trkpt lat="47.91543" lon="6.82493">
        <ele>969</ele>
        <time>2022-09-02T08:27:38Z</time>
      </trkpt>
      <trkpt lat="47.91543" lon="6.82492">
        <ele>968.8</ele>
        <time>2022-09-02T08:27:39Z</time>
      </trkpt>
      <trkpt lat="47.91543" lon="6.82491">
        <ele>968.7</ele>
        <time>2022-09-02T08:27:40Z</time>
      </trkpt>
      <trkpt lat="47.91543" lon="6.82489">
        <ele>968.5</ele>
        <time>2022-09-02T08:27:41Z</time>
      </trkpt>
      <trkpt lat="47.91543" lon="6.82488">
        <ele>968.3</ele>
        <time>2022-09-02T08:27:42Z</time>
      </trkpt>
      <trkpt lat="47.91543" lon="6.82486">
        <ele>968.1</ele>
        <time>2022-09-02T08:27:43Z</time>
      </trkpt>
      <trkpt lat="47.91543" lon="6.82485">
        <ele>968</ele>
        <time>2022-09-02T08:27:44Z</time>
      </trkpt>
      <trkpt lat="47.91543" lon="6.82483">
        <ele>967.7</ele>
        <time>2022-09-02T08:27:45Z</time>
      </trkpt>
      <trkpt lat="47.91543" lon="6.82482">
        <ele>967.6</ele>
        <time>2022-09-02T08:27:46Z</time>
      </trkpt>
      <trkpt lat="47.91543" lon="6.8248">
        <ele>967.4</ele>
        <time>2022-09-02T08:27:47Z</time>
      </trkpt>
      <trkpt lat="47.91543" lon="6.82479">
        <ele>967.2</ele>
        <time>2022-09-02T08:27:48Z</time>
      </trkpt>
      <trkpt lat="47.91543" lon="6.82477">
        <ele>967</ele>
        <time>2022-09-02T08:27:49Z</time>
      </trkpt>
      <trkpt lat="47.91543" lon="6.82476">
        <ele>966.9</ele>
        <time>2022-09-02T08:27:50Z</time>
      </trkpt>
      <trkpt lat="47.91543" lon="6.82474">
        <ele>966.6</ele>
        <time>2022-09-02T08:27:51Z</time>
      </trkpt>
      <trkpt lat="47.91543" lon="6.82472">
        <ele>966.4</ele>
        <time>2022-09-02T08:27:52Z</time>
      </trkpt>
      <trkpt lat="47.91543" lon="6.82471">
        <ele>966.3</ele>
        <time>2022-09-02T08:27:53Z</time>
      </trkpt>
      <trkpt lat="47.91543" lon="6.82469">
        <ele>966.1</ele>
        <time>2022-09-02T08:27:54Z</time>
      </trkpt>
      <trkpt lat="47.91544" lon="6.82468">
        <ele>966.3</ele>
        <time>2022-09-02T08:27:55Z</time>
      </trkpt>
      <trkpt lat="47.91544" lon="6.82466">
        <ele>966.1</ele>
        <time>2022-09-02T08:27:56Z</time>
      </trkpt>
      <trkpt lat="47.91544" lon="6.82464">
        <ele>966</ele>
        <time>2022-09-02T08:27:57Z</time>
      </trkpt>
      <trkpt lat="47.91544" lon="6.82463">
        <ele>965.9</ele>
        <time>2022-09-02T08:27:58Z</time>
      </trkpt>
      <trkpt lat="47.91544" lon="6.82461">
        <ele>965.7</ele>
        <time>2022-09-02T08:27:59Z</time>
      </trkpt>
      <trkpt lat="47.91544" lon="6.8246">
        <ele>965.6</ele>
        <time>2022-09-02T08:28:00Z</time>
      </trkpt>
      <trkpt lat="47.91543" lon="6.82458">
        <ele>965.1</ele>
        <time>2022-09-02T08:28:01Z</time>
      </trkpt>
      <trkpt lat="47.91543" lon="6.82457">
        <ele>965</ele>
        <time>2022-09-02T08:28:02Z</time>
      </trkpt>
      <trkpt lat="47.91543" lon="6.82455">
        <ele>964.9</ele>
        <time>2022-09-02T08:28:03Z</time>
      </trkpt>
      <trkpt lat="47.91543" lon="6.82454">
        <ele>964.8</ele>
        <time>2022-09-02T08:28:04Z</time>
      </trkpt>
      <trkpt lat="47.91543" lon="6.82452">
        <ele>964.6</ele>
        <time>2022-09-02T08:28:05Z</time>
      </trkpt>
      <trkpt lat="47.91543" lon="6.8245">
        <ele>964.4</ele>
        <time>2022-09-02T08:28:06Z</time>
      </trkpt>
      <trkpt lat="47.91543" lon="6.82449">
        <ele>964.3</ele>
        <time>2022-09-02T08:28:07Z</time>
      </trkpt>
      <trkpt lat="47.91543" lon="6.82447">
        <ele>964.2</ele>
        <time>2022-09-02T08:28:08Z</time>
      </trkpt>
      <trkpt lat="47.91543" lon="6.82446">
        <ele>964.1</ele>
        <time>2022-09-02T08:28:09Z</time>
      </trkpt>
      <trkpt lat="47.91543" lon="6.82445">
        <ele>964</ele>
        <time>2022-09-02T08:28:10Z</time>
      </trkpt>
      <trkpt lat="47.91543" lon="6.82443">
        <ele>963.9</ele>
        <time>2022-09-02T08:28:11Z</time>
      </trkpt>
      <trkpt lat="47.91542" lon="6.82442">
        <ele>963.5</ele>
        <time>2022-09-02T08:28:12Z</time>
      </trkpt>
      <trkpt lat="47.91542" lon="6.8244">
        <ele>963.4</ele>
        <time>2022-09-02T08:28:13Z</time>
      </trkpt>
      <trkpt lat="47.91542" lon="6.82439">
        <ele>963.3</ele>
        <time>2022-09-02T08:28:14Z</time>
      </trkpt>
      <trkpt lat="47.91542" lon="6.82437">
        <ele>963.2</ele>
        <time>2022-09-02T08:28:15Z</time>
      </trkpt>
      <trkpt lat="47.91542" lon="6.82436">
        <ele>963.2</ele>
        <time>2022-09-02T08:28:16Z</time>
      </trkpt>
      <trkpt lat="47.91542" lon="6.82434">
        <ele>963</ele>
        <time>2022-09-02T08:28:17Z</time>
      </trkpt>
      <trkpt lat="47.91543" lon="6.82432">
        <ele>963.3</ele>
        <time>2022-09-02T08:28:18Z</time>
      </trkpt>
      <trkpt lat="47.91543" lon="6.82431">
        <ele>963.2</ele>
        <time>2022-09-02T08:28:19Z</time>
      </trkpt>
      <trkpt lat="47.91543" lon="6.82429">
        <ele>963.1</ele>
        <time>2022-09-02T08:28:20Z</time>
      </trkpt>
      <trkpt lat="47.91543" lon="6.82428">
        <ele>963.1</ele>
        <time>2022-09-02T08:28:21Z</time>
      </trkpt>
      <trkpt lat="47.91543" lon="6.82426">
        <ele>963</ele>
        <time>2022-09-02T08:28:22Z</time>
      </trkpt>
      <trkpt lat="47.91543" lon="6.82424">
        <ele>962.9</ele>
        <time>2022-09-02T08:28:23Z</time>
      </trkpt>
      <trkpt lat="47.91543" lon="6.82423">
        <ele>962.8</ele>
        <time>2022-09-02T08:28:24Z</time>
      </trkpt>
      <trkpt lat="47.91542" lon="6.82421">
        <ele>962.4</ele>
        <time>2022-09-02T08:28:25Z</time>
      </trkpt>
      <trkpt lat="47.91542" lon="6.8242">
        <ele>962.3</ele>
        <time>2022-09-02T08:28:26Z</time>
      </trkpt>
      <trkpt lat="47.91542" lon="6.82418">
        <ele>962.2</ele>
        <time>2022-09-02T08:28:27Z</time>
      </trkpt>
      <trkpt lat="47.91542" lon="6.82416">
        <ele>962.1</ele>
        <time>2022-09-02T08:28:28Z</time>
      </trkpt>
      <trkpt lat="47.91542" lon="6.82415">
        <ele>962.1</ele>
        <time>2022-09-02T08:28:29Z</time>
      </trkpt>
      <trkpt lat="47.91542" lon="6.82414">
        <ele>962.1</ele>
        <time>2022-09-02T08:28:30Z</time>
      </trkpt>
      <trkpt lat="47.91541" lon="6.82412">
        <ele>961.7</ele>
        <time>2022-09-02T08:28:31Z</time>
      </trkpt>
      <trkpt lat="47.91541" lon="6.82411">
        <ele>961.7</ele>
        <time>2022-09-02T08:28:32Z</time>
      </trkpt>
      <trkpt lat="47.91541" lon="6.82409">
        <ele>961.6</ele>
        <time>2022-09-02T08:28:33Z</time>
      </trkpt>
      <trkpt lat="47.91541" lon="6.82408">
        <ele>961.6</ele>
        <time>2022-09-02T08:28:34Z</time>
      </trkpt>
      <trkpt lat="47.9154" lon="6.82406">
        <ele>961.3</ele>
        <time>2022-09-02T08:28:35Z</time>
      </trkpt>
      <trkpt lat="47.9154" lon="6.82405">
        <ele>961.3</ele>
        <time>2022-09-02T08:28:36Z</time>
      </trkpt>
      <trkpt lat="47.9154" lon="6.82403">
        <ele>961.2</ele>
        <time>2022-09-02T08:28:37Z</time>
      </trkpt>
      <trkpt lat="47.9154" lon="6.82401">
        <ele>961.2</ele>
        <time>2022-09-02T08:28:38Z</time>
      </trkpt>
      <trkpt lat="47.91539" lon="6.824">
        <ele>960.9</ele>
        <time>2022-09-02T08:28:39Z</time>
      </trkpt>
      <trkpt lat="47.91539" lon="6.82398">
        <ele>960.9</ele>
        <time>2022-09-02T08:28:40Z</time>
      </trkpt>
      <trkpt lat="47.91539" lon="6.82397">
        <ele>960.9</ele>
        <time>2022-09-02T08:28:41Z</time>
      </trkpt>
      <trkpt lat="47.91539" lon="6.82395">
        <ele>960.9</ele>
        <time>2022-09-02T08:28:42Z</time>
      </trkpt>
      <trkpt lat="47.91538" lon="6.82394">
        <ele>960.6</ele>
        <time>2022-09-02T08:28:43Z</time>
      </trkpt>
      <trkpt lat="47.91538" lon="6.82392">
        <ele>960.6</ele>
        <time>2022-09-02T08:28:44Z</time>
      </trkpt>
      <trkpt lat="47.91538" lon="6.82391">
        <ele>960.6</ele>
        <time>2022-09-02T08:28:45Z</time>
      </trkpt>
      <trkpt lat="47.91537" lon="6.82389">
        <ele>960.3</ele>
        <time>2022-09-02T08:28:46Z</time>
      </trkpt>
      <trkpt lat="47.91537" lon="6.82388">
        <ele>960.3</ele>
        <time>2022-09-02T08:28:47Z</time>
      </trkpt>
      <trkpt lat="47.91537" lon="6.82386">
        <ele>960.4</ele>
        <time>2022-09-02T08:28:48Z</time>
      </trkpt>
      <trkpt lat="47.91537" lon="6.82385">
        <ele>960.4</ele>
        <time>2022-09-02T08:28:49Z</time>
      </trkpt>
      <trkpt lat="47.91536" lon="6.82383">
        <ele>960.2</ele>
        <time>2022-09-02T08:28:50Z</time>
      </trkpt>
      <trkpt lat="47.91536" lon="6.82382">
        <ele>960.2</ele>
        <time>2022-09-02T08:28:51Z</time>
      </trkpt>
      <trkpt lat="47.91536" lon="6.82381">
        <ele>960.2</ele>
        <time>2022-09-02T08:28:52Z</time>
      </trkpt>
      <trkpt lat="47.91535" lon="6.82379">
        <ele>960</ele>
        <time>2022-09-02T08:28:53Z</time>
      </trkpt>
      <trkpt lat="47.91535" lon="6.82378">
        <ele>960</ele>
        <time>2022-09-02T08:28:54Z</time>
      </trkpt>
      <trkpt lat="47.91535" lon="6.82376">
        <ele>960</ele>
        <time>2022-09-02T08:28:55Z</time>
      </trkpt>
      <trkpt lat="47.91535" lon="6.82375">
        <ele>960.1</ele>
        <time>2022-09-02T08:28:56Z</time>
      </trkpt>
      <trkpt lat="47.91534" lon="6.82373">
        <ele>959.9</ele>
        <time>2022-09-02T08:28:57Z</time>
      </trkpt>
      <trkpt lat="47.91534" lon="6.82372">
        <ele>959.9</ele>
        <time>2022-09-02T08:28:58Z</time>
      </trkpt>
      <trkpt lat="47.91534" lon="6.8237">
        <ele>959.9</ele>
        <time>2022-09-02T08:28:59Z</time>
      </trkpt>
      <trkpt lat="47.91533" lon="6.82369">
        <ele>959.8</ele>
        <time>2022-09-02T08:29:00Z</time>
      </trkpt>
      <trkpt lat="47.91533" lon="6.82368">
        <ele>959.8</ele>
        <time>2022-09-02T08:29:01Z</time>
      </trkpt>
      <trkpt lat="47.91533" lon="6.82366">
        <ele>959.8</ele>
        <time>2022-09-02T08:29:02Z</time>
      </trkpt>
      <trkpt lat="47.91532" lon="6.82365">
        <ele>959.7</ele>
        <time>2022-09-02T08:29:03Z</time>
      </trkpt>
      <trkpt lat="47.91532" lon="6.82363">
        <ele>959.7</ele>
        <time>2022-09-02T08:29:04Z</time>
      </trkpt>
      <trkpt lat="47.91532" lon="6.82362">
        <ele>959.7</ele>
        <time>2022-09-02T08:29:05Z</time>
      </trkpt>
      <trkpt lat="47.91532" lon="6.82361">
        <ele>959.8</ele>
        <time>2022-09-02T08:29:06Z</time>
      </trkpt>
      <trkpt lat="47.91531" lon="6.82359">
        <ele>959.6</ele>
        <time>2022-09-02T08:29:07Z</time>
      </trkpt>
      <trkpt lat="47.91531" lon="6.82358">
        <ele>959.7</ele>
        <time>2022-09-02T08:29:08Z</time>
      </trkpt>
      <trkpt lat="47.91531" lon="6.82356">
        <ele>959.7</ele>
        <time>2022-09-02T08:29:09Z</time>
      </trkpt>
      <trkpt lat="47.91531" lon="6.82355">
        <ele>959.7</ele>
        <time>2022-09-02T08:29:10Z</time>
      </trkpt>
      <trkpt lat="47.9153" lon="6.82354">
        <ele>959.6</ele>
        <time>2022-09-02T08:29:11Z</time>
      </trkpt>
      <trkpt lat="47.9153" lon="6.82352">
        <ele>959.6</ele>
        <time>2022-09-02T08:29:12Z</time>
      </trkpt>
      <trkpt lat="47.91529" lon="6.82351">
        <ele>959.5</ele>
        <time>2022-09-02T08:29:13Z</time>
      </trkpt>
      <trkpt lat="47.91529" lon="6.8235">
        <ele>959.6</ele>
        <time>2022-09-02T08:29:14Z</time>
      </trkpt>
      <trkpt lat="47.91528" lon="6.82348">
        <ele>959.5</ele>
        <time>2022-09-02T08:29:15Z</time>
      </trkpt>
      <trkpt lat="47.91528" lon="6.82347">
        <ele>959.5</ele>
        <time>2022-09-02T08:29:16Z</time>
      </trkpt>
      <trkpt lat="47.91527" lon="6.82345">
        <ele>959.3</ele>
        <time>2022-09-02T08:29:17Z</time>
      </trkpt>
      <trkpt lat="47.91527" lon="6.82344">
        <ele>959.3</ele>
        <time>2022-09-02T08:29:18Z</time>
      </trkpt>
      <trkpt lat="47.91526" lon="6.82343">
        <ele>959</ele>
        <time>2022-09-02T08:29:19Z</time>
      </trkpt>
      <trkpt lat="47.91526" lon="6.82341">
        <ele>959.1</ele>
        <time>2022-09-02T08:29:20Z</time>
      </trkpt>
      <trkpt lat="47.91525" lon="6.8234">
        <ele>958.7</ele>
        <time>2022-09-02T08:29:21Z</time>
      </trkpt>
      <trkpt lat="47.91525" lon="6.82339">
        <ele>958.8</ele>
        <time>2022-09-02T08:29:22Z</time>
      </trkpt>
      <trkpt lat="47.91524" lon="6.82338">
        <ele>958.4</ele>
        <time>2022-09-02T08:29:23Z</time>
      </trkpt>
      <trkpt lat="47.91524" lon="6.82336">
        <ele>958.5</ele>
        <time>2022-09-02T08:29:24Z</time>
      </trkpt>
      <trkpt lat="47.91523" lon="6.82335">
        <ele>958.2</ele>
        <time>2022-09-02T08:29:25Z</time>
      </trkpt>
      <trkpt lat="47.91523" lon="6.82334">
        <ele>958.3</ele>
        <time>2022-09-02T08:29:26Z</time>
      </trkpt>
      <trkpt lat="47.91522" lon="6.82332">
        <ele>957.9</ele>
        <time>2022-09-02T08:29:27Z</time>
      </trkpt>
      <trkpt lat="47.91522" lon="6.82331">
        <ele>958</ele>
        <time>2022-09-02T08:29:28Z</time>
      </trkpt>
      <trkpt lat="47.91521" lon="6.8233">
        <ele>957.6</ele>
        <time>2022-09-02T08:29:29Z</time>
      </trkpt>
      <trkpt lat="47.91521" lon="6.82328">
        <ele>957.7</ele>
        <time>2022-09-02T08:29:30Z</time>
      </trkpt>
      <trkpt lat="47.9152" lon="6.82327">
        <ele>957.4</ele>
        <time>2022-09-02T08:29:31Z</time>
      </trkpt>
      <trkpt lat="47.91519" lon="6.82326">
        <ele>957.1</ele>
        <time>2022-09-02T08:29:32Z</time>
      </trkpt>
      <trkpt lat="47.91519" lon="6.82325">
        <ele>957.1</ele>
        <time>2022-09-02T08:29:33Z</time>
      </trkpt>
      <trkpt lat="47.91518" lon="6.82323">
        <ele>956.9</ele>
        <time>2022-09-02T08:29:34Z</time>
      </trkpt>
      <trkpt lat="47.91517" lon="6.82322">
        <ele>956.6</ele>
        <time>2022-09-02T08:29:35Z</time>
      </trkpt>
      <trkpt lat="47.91517" lon="6.82321">
        <ele>956.6</ele>
        <time>2022-09-02T08:29:36Z</time>
      </trkpt>
      <trkpt lat="47.91516" lon="6.8232">
        <ele>956.4</ele>
        <time>2022-09-02T08:29:37Z</time>
      </trkpt>
      <trkpt lat="47.91515" lon="6.82319">
        <ele>956.1</ele>
        <time>2022-09-02T08:29:38Z</time>
      </trkpt>
      <trkpt lat="47.91515" lon="6.82318">
        <ele>956.2</ele>
        <time>2022-09-02T08:29:39Z</time>
      </trkpt>
      <trkpt lat="47.91514" lon="6.82317">
        <ele>955.9</ele>
        <time>2022-09-02T08:29:40Z</time>
      </trkpt>
      <trkpt lat="47.91513" lon="6.82315">
        <ele>955.7</ele>
        <time>2022-09-02T08:29:41Z</time>
      </trkpt>
      <trkpt lat="47.91512" lon="6.82314">
        <ele>955.5</ele>
        <time>2022-09-02T08:29:42Z</time>
      </trkpt>
      <trkpt lat="47.91511" lon="6.82313">
        <ele>955.3</ele>
        <time>2022-09-02T08:29:43Z</time>
      </trkpt>
      <trkpt lat="47.9151" lon="6.82312">
        <ele>955.1</ele>
        <time>2022-09-02T08:29:44Z</time>
      </trkpt>
      <trkpt lat="47.9151" lon="6.82311">
        <ele>955.1</ele>
        <time>2022-09-02T08:29:45Z</time>
      </trkpt>
      <trkpt lat="47.91509" lon="6.8231">
        <ele>954.9</ele>
        <time>2022-09-02T08:29:46Z</time>
      </trkpt>
      <trkpt lat="47.91508" lon="6.82308">
        <ele>954.8</ele>
        <time>2022-09-02T08:29:47Z</time>
      </trkpt>
      <trkpt lat="47.91508" lon="6.82307">
        <ele>954.9</ele>
        <time>2022-09-02T08:29:48Z</time>
      </trkpt>
      <trkpt lat="47.91507" lon="6.82306">
        <ele>954.7</ele>
        <time>2022-09-02T08:29:49Z</time>
      </trkpt>
      <trkpt lat="47.91506" lon="6.82305">
        <ele>954.6</ele>
        <time>2022-09-02T08:29:50Z</time>
      </trkpt>
      <trkpt lat="47.91505" lon="6.82304">
        <ele>954.4</ele>
        <time>2022-09-02T08:29:52Z</time>
      </trkpt>
      <trkpt lat="47.91504" lon="6.82303">
        <ele>954.2</ele>
        <time>2022-09-02T08:29:53Z</time>
      </trkpt>
      <trkpt lat="47.91504" lon="6.82302">
        <ele>954.3</ele>
        <time>2022-09-02T08:29:54Z</time>
      </trkpt>
      <trkpt lat="47.91503" lon="6.82301">
        <ele>954.2</ele>
        <time>2022-09-02T08:29:55Z</time>
      </trkpt>
      <trkpt lat="47.91503" lon="6.823">
        <ele>954.3</ele>
        <time>2022-09-02T08:29:56Z</time>
      </trkpt>
      <trkpt lat="47.91502" lon="6.82299">
        <ele>954.2</ele>
        <time>2022-09-02T08:29:57Z</time>
      </trkpt>
      <trkpt lat="47.91502" lon="6.82298">
        <ele>954.3</ele>
        <time>2022-09-02T08:29:58Z</time>
      </trkpt>
      <trkpt lat="47.91501" lon="6.82297">
        <ele>954.1</ele>
        <time>2022-09-02T08:29:59Z</time>
      </trkpt>
      <trkpt lat="47.91501" lon="6.82296">
        <ele>954.2</ele>
        <time>2022-09-02T08:30:00Z</time>
      </trkpt>
      <trkpt lat="47.915" lon="6.82295">
        <ele>954.1</ele>
        <time>2022-09-02T08:30:01Z</time>
      </trkpt>
      <trkpt lat="47.91499" lon="6.82294">
        <ele>953.9</ele>
        <time>2022-09-02T08:30:02Z</time>
      </trkpt>
      <trkpt lat="47.91498" lon="6.82293">
        <ele>953.7</ele>
        <time>2022-09-02T08:30:03Z</time>
      </trkpt>
      <trkpt lat="47.91498" lon="6.82292">
        <ele>953.8</ele>
        <time>2022-09-02T08:30:04Z</time>
      </trkpt>
      <trkpt lat="47.91497" lon="6.82291">
        <ele>953.5</ele>
        <time>2022-09-02T08:30:05Z</time>
      </trkpt>
      <trkpt lat="47.91496" lon="6.8229">
        <ele>953.3</ele>
        <time>2022-09-02T08:30:06Z</time>
      </trkpt>
      <trkpt lat="47.91495" lon="6.82289">
        <ele>953.1</ele>
        <time>2022-09-02T08:30:07Z</time>
      </trkpt>
      <trkpt lat="47.91495" lon="6.82288">
        <ele>953.2</ele>
        <time>2022-09-02T08:30:08Z</time>
      </trkpt>
      <trkpt lat="47.91494" lon="6.82287">
        <ele>953</ele>
        <time>2022-09-02T08:30:09Z</time>
      </trkpt>
      <trkpt lat="47.91493" lon="6.82286">
        <ele>952.8</ele>
        <time>2022-09-02T08:30:10Z</time>
      </trkpt>
      <trkpt lat="47.91492" lon="6.82285">
        <ele>952.6</ele>
        <time>2022-09-02T08:30:11Z</time>
      </trkpt>
      <trkpt lat="47.91492" lon="6.82284">
        <ele>952.7</ele>
        <time>2022-09-02T08:30:12Z</time>
      </trkpt>
      <trkpt lat="47.91491" lon="6.82283">
        <ele>952.5</ele>
        <time>2022-09-02T08:30:27Z</time>
      </trkpt>
      <trkpt lat="47.9149" lon="6.82282">
        <ele>952.2</ele>
        <time>2022-09-02T08:30:29Z</time>
      </trkpt>
      <trkpt lat="47.9149" lon="6.82281">
        <ele>952.4</ele>
        <time>2022-09-02T08:30:30Z</time>
      </trkpt>
      <trkpt lat="47.91489" lon="6.82281">
        <ele>952</ele>
        <time>2022-09-02T08:30:31Z</time>
      </trkpt>
      <trkpt lat="47.91489" lon="6.8228">
        <ele>952.2</ele>
        <time>2022-09-02T08:30:32Z</time>
      </trkpt>
      <trkpt lat="47.91488" lon="6.82279">
        <ele>952</ele>
        <time>2022-09-02T08:30:33Z</time>
      </trkpt>
      <trkpt lat="47.91487" lon="6.82278">
        <ele>951.8</ele>
        <time>2022-09-02T08:30:34Z</time>
      </trkpt>
      <trkpt lat="47.91486" lon="6.82277">
        <ele>951.5</ele>
        <time>2022-09-02T08:30:35Z</time>
      </trkpt>
      <trkpt lat="47.91486" lon="6.82276">
        <ele>951.6</ele>
        <time>2022-09-02T08:30:36Z</time>
      </trkpt>
      <trkpt lat="47.91485" lon="6.82275">
        <ele>951.3</ele>
        <time>2022-09-02T08:30:37Z</time>
      </trkpt>
      <trkpt lat="47.91484" lon="6.82274">
        <ele>951.1</ele>
        <time>2022-09-02T08:30:38Z</time>
      </trkpt>
      <trkpt lat="47.91484" lon="6.82273">
        <ele>951.2</ele>
        <time>2022-09-02T08:30:39Z</time>
      </trkpt>
      <trkpt lat="47.91483" lon="6.82272">
        <ele>951</ele>
        <time>2022-09-02T08:30:40Z</time>
      </trkpt>
      <trkpt lat="47.91482" lon="6.82271">
        <ele>950.7</ele>
        <time>2022-09-02T08:30:41Z</time>
      </trkpt>
      <trkpt lat="47.91481" lon="6.8227">
        <ele>950.5</ele>
        <time>2022-09-02T08:30:42Z</time>
      </trkpt>
      <trkpt lat="47.9148" lon="6.82269">
        <ele>950.3</ele>
        <time>2022-09-02T08:30:43Z</time>
      </trkpt>
      <trkpt lat="47.91479" lon="6.82268">
        <ele>950.1</ele>
        <time>2022-09-02T08:30:45Z</time>
      </trkpt>
      <trkpt lat="47.91478" lon="6.82267">
        <ele>949.9</ele>
        <time>2022-09-02T08:30:46Z</time>
      </trkpt>
      <trkpt lat="47.91477" lon="6.82266">
        <ele>949.7</ele>
        <time>2022-09-02T08:30:47Z</time>
      </trkpt>
      <trkpt lat="47.91477" lon="6.82265">
        <ele>949.8</ele>
        <time>2022-09-02T08:30:48Z</time>
      </trkpt>
      <trkpt lat="47.91476" lon="6.82265">
        <ele>949.5</ele>
        <time>2022-09-02T08:30:49Z</time>
      </trkpt>
      <trkpt lat="47.91475" lon="6.82264">
        <ele>949.3</ele>
        <time>2022-09-02T08:30:50Z</time>
      </trkpt>
      <trkpt lat="47.91475" lon="6.82263">
        <ele>949.4</ele>
        <time>2022-09-02T08:30:51Z</time>
      </trkpt>
      <trkpt lat="47.91474" lon="6.82262">
        <ele>949.2</ele>
        <time>2022-09-02T08:30:52Z</time>
      </trkpt>
      <trkpt lat="47.91473" lon="6.82262">
        <ele>948.9</ele>
        <time>2022-09-02T08:30:53Z</time>
      </trkpt>
      <trkpt lat="47.91472" lon="6.82261">
        <ele>948.7</ele>
        <time>2022-09-02T08:30:54Z</time>
      </trkpt>
      <trkpt lat="47.91471" lon="6.8226">
        <ele>948.5</ele>
        <time>2022-09-02T08:30:55Z</time>
      </trkpt>
      <trkpt lat="47.91471" lon="6.82259">
        <ele>948.6</ele>
        <time>2022-09-02T08:30:56Z</time>
      </trkpt>
      <trkpt lat="47.9147" lon="6.82258">
        <ele>948.4</ele>
        <time>2022-09-02T08:30:57Z</time>
      </trkpt>
      <trkpt lat="47.91469" lon="6.82257">
        <ele>948.2</ele>
        <time>2022-09-02T08:30:58Z</time>
      </trkpt>
      <trkpt lat="47.91468" lon="6.82257">
        <ele>947.9</ele>
        <time>2022-09-02T08:30:59Z</time>
      </trkpt>
      <trkpt lat="47.91467" lon="6.82256">
        <ele>947.7</ele>
        <time>2022-09-02T08:31:00Z</time>
      </trkpt>
      <trkpt lat="47.91467" lon="6.82255">
        <ele>947.9</ele>
        <time>2022-09-02T08:31:01Z</time>
      </trkpt>
      <trkpt lat="47.91466" lon="6.82255">
        <ele>947.5</ele>
        <time>2022-09-02T08:31:02Z</time>
      </trkpt>
      <trkpt lat="47.91465" lon="6.82254">
        <ele>947.4</ele>
        <time>2022-09-02T08:31:03Z</time>
      </trkpt>
      <trkpt lat="47.91464" lon="6.82254">
        <ele>947.1</ele>
        <time>2022-09-02T08:31:04Z</time>
      </trkpt>
      <trkpt lat="47.91463" lon="6.82253">
        <ele>946.9</ele>
        <time>2022-09-02T08:31:05Z</time>
      </trkpt>
      <trkpt lat="47.91463" lon="6.82252">
        <ele>947.1</ele>
        <time>2022-09-02T08:31:06Z</time>
      </trkpt>
      <trkpt lat="47.91462" lon="6.82252">
        <ele>946.8</ele>
        <time>2022-09-02T08:31:07Z</time>
      </trkpt>
      <trkpt lat="47.91461" lon="6.82251">
        <ele>946.6</ele>
        <time>2022-09-02T08:31:08Z</time>
      </trkpt>
      <trkpt lat="47.9146" lon="6.82251">
        <ele>946.3</ele>
        <time>2022-09-02T08:31:09Z</time>
      </trkpt>
      <trkpt lat="47.91459" lon="6.8225">
        <ele>946.2</ele>
        <time>2022-09-02T08:31:10Z</time>
      </trkpt>
      <trkpt lat="47.91458" lon="6.8225">
        <ele>945.9</ele>
        <time>2022-09-02T08:31:11Z</time>
      </trkpt>
      <trkpt lat="47.91457" lon="6.82249">
        <ele>945.7</ele>
        <time>2022-09-02T08:31:12Z</time>
      </trkpt>
      <trkpt lat="47.91456" lon="6.82248">
        <ele>945.5</ele>
        <time>2022-09-02T08:31:14Z</time>
      </trkpt>
      <trkpt lat="47.91455" lon="6.82247">
        <ele>945.3</ele>
        <time>2022-09-02T08:31:15Z</time>
      </trkpt>
      <trkpt lat="47.91454" lon="6.82247">
        <ele>945</ele>
        <time>2022-09-02T08:31:16Z</time>
      </trkpt>
      <trkpt lat="47.91453" lon="6.82246">
        <ele>944.8</ele>
        <time>2022-09-02T08:31:17Z</time>
      </trkpt>
      <trkpt lat="47.91452" lon="6.82246">
        <ele>944.5</ele>
        <time>2022-09-02T08:31:18Z</time>
      </trkpt>
      <trkpt lat="47.91452" lon="6.82245">
        <ele>944.6</ele>
        <time>2022-09-02T08:31:19Z</time>
      </trkpt>
      <trkpt lat="47.91451" lon="6.82244">
        <ele>944.4</ele>
        <time>2022-09-02T08:31:20Z</time>
      </trkpt>
      <trkpt lat="47.9145" lon="6.82244">
        <ele>944.2</ele>
        <time>2022-09-02T08:31:21Z</time>
      </trkpt>
      <trkpt lat="47.91449" lon="6.82243">
        <ele>944</ele>
        <time>2022-09-02T08:31:22Z</time>
      </trkpt>
      <trkpt lat="47.91449" lon="6.82242">
        <ele>944.1</ele>
        <time>2022-09-02T08:31:23Z</time>
      </trkpt>
      <trkpt lat="47.91448" lon="6.82242">
        <ele>943.8</ele>
        <time>2022-09-02T08:31:24Z</time>
      </trkpt>
      <trkpt lat="47.91447" lon="6.82241">
        <ele>943.6</ele>
        <time>2022-09-02T08:31:25Z</time>
      </trkpt>
      <trkpt lat="47.91446" lon="6.82241">
        <ele>943.4</ele>
        <time>2022-09-02T08:31:26Z</time>
      </trkpt>
      <trkpt lat="47.91446" lon="6.8224">
        <ele>943.5</ele>
        <time>2022-09-02T08:31:27Z</time>
      </trkpt>
      <trkpt lat="47.91445" lon="6.82239">
        <ele>943.3</ele>
        <time>2022-09-02T08:31:28Z</time>
      </trkpt>
      <trkpt lat="47.91444" lon="6.82239">
        <ele>943</ele>
        <time>2022-09-02T08:31:29Z</time>
      </trkpt>
      <trkpt lat="47.91443" lon="6.82238">
        <ele>942.8</ele>
        <time>2022-09-02T08:31:30Z</time>
      </trkpt>
      <trkpt lat="47.91443" lon="6.82237">
        <ele>942.9</ele>
        <time>2022-09-02T08:31:31Z</time>
      </trkpt>
      <trkpt lat="47.91442" lon="6.82236">
        <ele>942.6</ele>
        <time>2022-09-02T08:31:32Z</time>
      </trkpt>
      <trkpt lat="47.91441" lon="6.82235">
        <ele>942.4</ele>
        <time>2022-09-02T08:31:33Z</time>
      </trkpt>
      <trkpt lat="47.9144" lon="6.82234">
        <ele>942.2</ele>
        <time>2022-09-02T08:31:34Z</time>
      </trkpt>
      <trkpt lat="47.91439" lon="6.82233">
        <ele>941.9</ele>
        <time>2022-09-02T08:31:35Z</time>
      </trkpt>
      <trkpt lat="47.91439" lon="6.82232">
        <ele>942</ele>
        <time>2022-09-02T08:31:36Z</time>
      </trkpt>
      <trkpt lat="47.91438" lon="6.82231">
        <ele>941.8</ele>
        <time>2022-09-02T08:31:37Z</time>
      </trkpt>
      <trkpt lat="47.91437" lon="6.8223">
        <ele>941.6</ele>
        <time>2022-09-02T08:31:38Z</time>
      </trkpt>
      <trkpt lat="47.91436" lon="6.82229">
        <ele>941.4</ele>
        <time>2022-09-02T08:31:40Z</time>
      </trkpt>
      <trkpt lat="47.91435" lon="6.82228">
        <ele>941.2</ele>
        <time>2022-09-02T08:31:41Z</time>
      </trkpt>
      <trkpt lat="47.91434" lon="6.82227">
        <ele>941</ele>
        <time>2022-09-02T08:31:42Z</time>
      </trkpt>
      <trkpt lat="47.91434" lon="6.82226">
        <ele>941.1</ele>
        <time>2022-09-02T08:31:43Z</time>
      </trkpt>
      <trkpt lat="47.91433" lon="6.82225">
        <ele>940.9</ele>
        <time>2022-09-02T08:31:44Z</time>
      </trkpt>
      <trkpt lat="47.91432" lon="6.82224">
        <ele>940.7</ele>
        <time>2022-09-02T08:31:45Z</time>
      </trkpt>
      <trkpt lat="47.91431" lon="6.82223">
        <ele>940.5</ele>
        <time>2022-09-02T08:31:46Z</time>
      </trkpt>
      <trkpt lat="47.91431" lon="6.82222">
        <ele>940.7</ele>
        <time>2022-09-02T08:31:47Z</time>
      </trkpt>
      <trkpt lat="47.9143" lon="6.82221">
        <ele>940.4</ele>
        <time>2022-09-02T08:31:48Z</time>
      </trkpt>
      <trkpt lat="47.91429" lon="6.8222">
        <ele>940.1</ele>
        <time>2022-09-02T08:31:49Z</time>
      </trkpt>
      <trkpt lat="47.91428" lon="6.82219">
        <ele>939.9</ele>
        <time>2022-09-02T08:31:50Z</time>
      </trkpt>
      <trkpt lat="47.91428" lon="6.82218">
        <ele>939.9</ele>
        <time>2022-09-02T08:31:51Z</time>
      </trkpt>
      <trkpt lat="47.91427" lon="6.82217">
        <ele>939.7</ele>
        <time>2022-09-02T08:31:52Z</time>
      </trkpt>
      <trkpt lat="47.91426" lon="6.82216">
        <ele>939.4</ele>
        <time>2022-09-02T08:31:53Z</time>
      </trkpt>
      <trkpt lat="47.91426" lon="6.82215">
        <ele>939.5</ele>
        <time>2022-09-02T08:31:54Z</time>
      </trkpt>
      <trkpt lat="47.91425" lon="6.82214">
        <ele>939.2</ele>
        <time>2022-09-02T08:31:55Z</time>
      </trkpt>
      <trkpt lat="47.91424" lon="6.82212">
        <ele>939</ele>
        <time>2022-09-02T08:31:56Z</time>
      </trkpt>
      <trkpt lat="47.91424" lon="6.82211">
        <ele>939.1</ele>
        <time>2022-09-02T08:31:57Z</time>
      </trkpt>
      <trkpt lat="47.91423" lon="6.8221">
        <ele>938.8</ele>
        <time>2022-09-02T08:31:58Z</time>
      </trkpt>
      <trkpt lat="47.91423" lon="6.82209">
        <ele>938.9</ele>
        <time>2022-09-02T08:31:59Z</time>
      </trkpt>
      <trkpt lat="47.91422" lon="6.82207">
        <ele>938.7</ele>
        <time>2022-09-02T08:32:00Z</time>
      </trkpt>
      <trkpt lat="47.91422" lon="6.82206">
        <ele>938.8</ele>
        <time>2022-09-02T08:32:01Z</time>
      </trkpt>
      <trkpt lat="47.91421" lon="6.82205">
        <ele>938.5</ele>
        <time>2022-09-02T08:32:02Z</time>
      </trkpt>
      <trkpt lat="47.9142" lon="6.82204">
        <ele>938.3</ele>
        <time>2022-09-02T08:32:03Z</time>
      </trkpt>
      <trkpt lat="47.9142" lon="6.82203">
        <ele>938.4</ele>
        <time>2022-09-02T08:32:04Z</time>
      </trkpt>
      <trkpt lat="47.91419" lon="6.82201">
        <ele>938.2</ele>
        <time>2022-09-02T08:32:05Z</time>
      </trkpt>
      <trkpt lat="47.91419" lon="6.822">
        <ele>938.3</ele>
        <time>2022-09-02T08:32:06Z</time>
      </trkpt>
      <trkpt lat="47.91418" lon="6.82199">
        <ele>938.1</ele>
        <time>2022-09-02T08:32:07Z</time>
      </trkpt>
      <trkpt lat="47.91418" lon="6.82198">
        <ele>938.1</ele>
        <time>2022-09-02T08:32:08Z</time>
      </trkpt>
      <trkpt lat="47.91417" lon="6.82197">
        <ele>937.9</ele>
        <time>2022-09-02T08:32:09Z</time>
      </trkpt>
      <trkpt lat="47.91417" lon="6.82195">
        <ele>938.1</ele>
        <time>2022-09-02T08:32:10Z</time>
      </trkpt>
      <trkpt lat="47.91416" lon="6.82194">
        <ele>937.8</ele>
        <time>2022-09-02T08:32:11Z</time>
      </trkpt>
      <trkpt lat="47.91416" lon="6.82193">
        <ele>937.8</ele>
        <time>2022-09-02T08:32:12Z</time>
      </trkpt>
      <trkpt lat="47.91415" lon="6.82192">
        <ele>937.5</ele>
        <time>2022-09-02T08:32:13Z</time>
      </trkpt>
      <trkpt lat="47.91415" lon="6.8219">
        <ele>937.5</ele>
        <time>2022-09-02T08:32:14Z</time>
      </trkpt>
      <trkpt lat="47.91415" lon="6.82189">
        <ele>937.6</ele>
        <time>2022-09-02T08:32:15Z</time>
      </trkpt>
      <trkpt lat="47.91414" lon="6.82188">
        <ele>937.3</ele>
        <time>2022-09-02T08:32:16Z</time>
      </trkpt>
      <trkpt lat="47.91414" lon="6.82187">
        <ele>937.3</ele>
        <time>2022-09-02T08:32:17Z</time>
      </trkpt>
      <trkpt lat="47.91414" lon="6.82186">
        <ele>937.3</ele>
        <time>2022-09-02T08:32:18Z</time>
      </trkpt>
      <trkpt lat="47.91413" lon="6.82184">
        <ele>937.1</ele>
        <time>2022-09-02T08:32:19Z</time>
      </trkpt>
      <trkpt lat="47.91413" lon="6.82183">
        <ele>937.1</ele>
        <time>2022-09-02T08:32:20Z</time>
      </trkpt>
      <trkpt lat="47.91412" lon="6.82182">
        <ele>936.9</ele>
        <time>2022-09-02T08:32:21Z</time>
      </trkpt>
      <trkpt lat="47.91412" lon="6.82181">
        <ele>936.9</ele>
        <time>2022-09-02T08:32:22Z</time>
      </trkpt>
      <trkpt lat="47.91411" lon="6.8218">
        <ele>936.7</ele>
        <time>2022-09-02T08:32:23Z</time>
      </trkpt>
      <trkpt lat="47.91411" lon="6.82179">
        <ele>936.7</ele>
        <time>2022-09-02T08:32:24Z</time>
      </trkpt>
      <trkpt lat="47.9141" lon="6.82178">
        <ele>936.5</ele>
        <time>2022-09-02T08:32:25Z</time>
      </trkpt>
      <trkpt lat="47.9141" lon="6.82177">
        <ele>936.5</ele>
        <time>2022-09-02T08:32:26Z</time>
      </trkpt>
      <trkpt lat="47.91409" lon="6.82176">
        <ele>936.3</ele>
        <time>2022-09-02T08:32:27Z</time>
      </trkpt>
      <trkpt lat="47.91409" lon="6.82175">
        <ele>936.4</ele>
        <time>2022-09-02T08:32:28Z</time>
      </trkpt>
      <trkpt lat="47.91408" lon="6.82175">
        <ele>936.2</ele>
        <time>2022-09-02T08:32:29Z</time>
      </trkpt>
      <trkpt lat="47.91408" lon="6.82174">
        <ele>936.2</ele>
        <time>2022-09-02T08:32:30Z</time>
      </trkpt>
      <trkpt lat="47.91407" lon="6.82173">
        <ele>936</ele>
        <time>2022-09-02T08:32:31Z</time>
      </trkpt>
      <trkpt lat="47.91406" lon="6.82172">
        <ele>935.9</ele>
        <time>2022-09-02T08:32:32Z</time>
      </trkpt>
      <trkpt lat="47.91406" lon="6.82171">
        <ele>935.9</ele>
        <time>2022-09-02T08:32:33Z</time>
      </trkpt>
      <trkpt lat="47.91405" lon="6.8217">
        <ele>935.7</ele>
        <time>2022-09-02T08:32:34Z</time>
      </trkpt>
      <trkpt lat="47.91404" lon="6.8217">
        <ele>935.6</ele>
        <time>2022-09-02T08:32:35Z</time>
      </trkpt>
      <trkpt lat="47.91403" lon="6.82169">
        <ele>935.4</ele>
        <time>2022-09-02T08:32:36Z</time>
      </trkpt>
      <trkpt lat="47.91402" lon="6.82168">
        <ele>935.3</ele>
        <time>2022-09-02T08:32:37Z</time>
      </trkpt>
      <trkpt lat="47.91402" lon="6.82167">
        <ele>935.3</ele>
        <time>2022-09-02T08:32:38Z</time>
      </trkpt>
      <trkpt lat="47.91401" lon="6.82167">
        <ele>935.2</ele>
        <time>2022-09-02T08:32:39Z</time>
      </trkpt>
      <trkpt lat="47.914" lon="6.82166">
        <ele>934.9</ele>
        <time>2022-09-02T08:32:40Z</time>
      </trkpt>
      <trkpt lat="47.91399" lon="6.82165">
        <ele>934.5</ele>
        <time>2022-09-02T08:32:41Z</time>
      </trkpt>
      <trkpt lat="47.91398" lon="6.82164">
        <ele>934.2</ele>
        <time>2022-09-02T08:32:43Z</time>
      </trkpt>
      <trkpt lat="47.91397" lon="6.82164">
        <ele>934</ele>
        <time>2022-09-02T08:32:44Z</time>
      </trkpt>
      <trkpt lat="47.91396" lon="6.82163">
        <ele>933.6</ele>
        <time>2022-09-02T08:32:45Z</time>
      </trkpt>
      <trkpt lat="47.91395" lon="6.82163">
        <ele>933.4</ele>
        <time>2022-09-02T08:32:46Z</time>
      </trkpt>
      <trkpt lat="47.91394" lon="6.82163">
        <ele>933.2</ele>
        <time>2022-09-02T08:32:48Z</time>
      </trkpt>
      <trkpt lat="47.91393" lon="6.82163">
        <ele>933</ele>
        <time>2022-09-02T08:32:49Z</time>
      </trkpt>
      <trkpt lat="47.91392" lon="6.82163">
        <ele>932.8</ele>
        <time>2022-09-02T08:32:50Z</time>
      </trkpt>
      <trkpt lat="47.91392" lon="6.82164">
        <ele>933</ele>
        <time>2022-09-02T08:32:51Z</time>
      </trkpt>
      <trkpt lat="47.91391" lon="6.82164">
        <ele>932.8</ele>
        <time>2022-09-02T08:32:52Z</time>
      </trkpt>
      <trkpt lat="47.9139" lon="6.82164">
        <ele>932.6</ele>
        <time>2022-09-02T08:32:53Z</time>
      </trkpt>
      <trkpt lat="47.91389" lon="6.82164">
        <ele>932.4</ele>
        <time>2022-09-02T08:32:55Z</time>
      </trkpt>
      <trkpt lat="47.91388" lon="6.82164">
        <ele>932.2</ele>
        <time>2022-09-02T08:32:56Z</time>
      </trkpt>
      <trkpt lat="47.91387" lon="6.82164">
        <ele>931.8</ele>
        <time>2022-09-02T08:32:58Z</time>
      </trkpt>
      <trkpt lat="47.91386" lon="6.82163">
        <ele>931.3</ele>
        <time>2022-09-02T08:33:00Z</time>
      </trkpt>
      <trkpt lat="47.91385" lon="6.82163">
        <ele>931</ele>
        <time>2022-09-02T08:33:02Z</time>
      </trkpt>
      <trkpt lat="47.91384" lon="6.82163">
        <ele>930.7</ele>
        <time>2022-09-02T08:33:03Z</time>
      </trkpt>
      <trkpt lat="47.91383" lon="6.82162">
        <ele>930.3</ele>
        <time>2022-09-02T08:33:05Z</time>
      </trkpt>
      <trkpt lat="47.91382" lon="6.82161">
        <ele>929.8</ele>
        <time>2022-09-02T08:33:07Z</time>
      </trkpt>
      <trkpt lat="47.91381" lon="6.82161">
        <ele>929.5</ele>
        <time>2022-09-02T08:33:09Z</time>
      </trkpt>
      <trkpt lat="47.9138" lon="6.82161">
        <ele>929.2</ele>
        <time>2022-09-02T08:33:11Z</time>
      </trkpt>
      <trkpt lat="47.91379" lon="6.82161">
        <ele>928.9</ele>
        <time>2022-09-02T08:33:14Z</time>
      </trkpt>
      <trkpt lat="47.91378" lon="6.82161">
        <ele>928.6</ele>
        <time>2022-09-02T08:33:16Z</time>
      </trkpt>
      <trkpt lat="47.91378" lon="6.82162">
        <ele>928.8</ele>
        <time>2022-09-02T08:33:17Z</time>
      </trkpt>
      <trkpt lat="47.91377" lon="6.82162">
        <ele>928.5</ele>
        <time>2022-09-02T08:33:18Z</time>
      </trkpt>
      <trkpt lat="47.91376" lon="6.82162">
        <ele>928.2</ele>
        <time>2022-09-02T08:33:19Z</time>
      </trkpt>
      <trkpt lat="47.91376" lon="6.82163">
        <ele>928.3</ele>
        <time>2022-09-02T08:33:20Z</time>
      </trkpt>
      <trkpt lat="47.91375" lon="6.82163">
        <ele>928</ele>
        <time>2022-09-02T08:33:21Z</time>
      </trkpt>
      <trkpt lat="47.91374" lon="6.82163">
        <ele>927.7</ele>
        <time>2022-09-02T08:33:23Z</time>
      </trkpt>
      <trkpt lat="47.91374" lon="6.82164">
        <ele>927.9</ele>
        <time>2022-09-02T08:33:24Z</time>
      </trkpt>
      <trkpt lat="47.91373" lon="6.82164">
        <ele>927.6</ele>
        <time>2022-09-02T08:33:26Z</time>
      </trkpt>
      <trkpt lat="47.91372" lon="6.82165">
        <ele>927.4</ele>
        <time>2022-09-02T08:33:27Z</time>
      </trkpt>
      <trkpt lat="47.91371" lon="6.82166">
        <ele>927.1</ele>
        <time>2022-09-02T08:33:29Z</time>
      </trkpt>
      <trkpt lat="47.9137" lon="6.82167">
        <ele>926.8</ele>
        <time>2022-09-02T08:33:45Z</time>
      </trkpt>
      <trkpt lat="47.91369" lon="6.82167">
        <ele>926.5</ele>
        <time>2022-09-02T08:33:47Z</time>
      </trkpt>
      <trkpt lat="47.91369" lon="6.82166">
        <ele>926.5</ele>
        <time>2022-09-02T08:33:48Z</time>
      </trkpt>
      <trkpt lat="47.91368" lon="6.82166">
        <ele>926.2</ele>
        <time>2022-09-02T08:33:49Z</time>
      </trkpt>
      <trkpt lat="47.91368" lon="6.82165">
        <ele>926.1</ele>
        <time>2022-09-02T08:33:50Z</time>
      </trkpt>
      <trkpt lat="47.91368" lon="6.82164">
        <ele>926</ele>
        <time>2022-09-02T08:33:51Z</time>
      </trkpt>
      <trkpt lat="47.91367" lon="6.82163">
        <ele>925.6</ele>
        <time>2022-09-02T08:33:52Z</time>
      </trkpt>
      <trkpt lat="47.91366" lon="6.82162">
        <ele>925.3</ele>
        <time>2022-09-02T08:33:53Z</time>
      </trkpt>
      <trkpt lat="47.91366" lon="6.82161">
        <ele>925.2</ele>
        <time>2022-09-02T08:33:54Z</time>
      </trkpt>
      <trkpt lat="47.91365" lon="6.8216">
        <ele>924.9</ele>
        <time>2022-09-02T08:33:55Z</time>
      </trkpt>
      <trkpt lat="47.91364" lon="6.82159">
        <ele>924.5</ele>
        <time>2022-09-02T08:33:56Z</time>
      </trkpt>
      <trkpt lat="47.91364" lon="6.82158">
        <ele>924.5</ele>
        <time>2022-09-02T08:33:57Z</time>
      </trkpt>
      <trkpt lat="47.91363" lon="6.82157">
        <ele>924.1</ele>
        <time>2022-09-02T08:33:58Z</time>
      </trkpt>
      <trkpt lat="47.91362" lon="6.82156">
        <ele>923.8</ele>
        <time>2022-09-02T08:33:59Z</time>
      </trkpt>
      <trkpt lat="47.91362" lon="6.82155">
        <ele>923.8</ele>
        <time>2022-09-02T08:34:00Z</time>
      </trkpt>
      <trkpt lat="47.91361" lon="6.82154">
        <ele>923.5</ele>
        <time>2022-09-02T08:34:01Z</time>
      </trkpt>
      <trkpt lat="47.9136" lon="6.82153">
        <ele>923.3</ele>
        <time>2022-09-02T08:34:02Z</time>
      </trkpt>
      <trkpt lat="47.91359" lon="6.82152">
        <ele>923.1</ele>
        <time>2022-09-02T08:34:03Z</time>
      </trkpt>
      <trkpt lat="47.91358" lon="6.82149">
        <ele>922.8</ele>
        <time>2022-09-02T08:34:24Z</time>
      </trkpt>
      <trkpt lat="47.91357" lon="6.82149">
        <ele>922.7</ele>
        <time>2022-09-02T08:34:25Z</time>
      </trkpt>
      <trkpt lat="47.91357" lon="6.82148">
        <ele>922.6</ele>
        <time>2022-09-02T08:34:26Z</time>
      </trkpt>
      <trkpt lat="47.91356" lon="6.82148">
        <ele>922.5</ele>
        <time>2022-09-02T08:34:27Z</time>
      </trkpt>
      <trkpt lat="47.91356" lon="6.82147">
        <ele>922.5</ele>
        <time>2022-09-02T08:34:28Z</time>
      </trkpt>
      <trkpt lat="47.91355" lon="6.82147">
        <ele>922.3</ele>
        <time>2022-09-02T08:34:29Z</time>
      </trkpt>
      <trkpt lat="47.91354" lon="6.82146">
        <ele>922.2</ele>
        <time>2022-09-02T08:34:30Z</time>
      </trkpt>
      <trkpt lat="47.91353" lon="6.82146">
        <ele>922</ele>
        <time>2022-09-02T08:34:31Z</time>
      </trkpt>
      <trkpt lat="47.91352" lon="6.82145">
        <ele>921.9</ele>
        <time>2022-09-02T08:34:32Z</time>
      </trkpt>
      <trkpt lat="47.91351" lon="6.82144">
        <ele>921.8</ele>
        <time>2022-09-02T08:34:34Z</time>
      </trkpt>
      <trkpt lat="47.9135" lon="6.82144">
        <ele>921.6</ele>
        <time>2022-09-02T08:34:35Z</time>
      </trkpt>
      <trkpt lat="47.91349" lon="6.82144">
        <ele>921.5</ele>
        <time>2022-09-02T08:34:36Z</time>
      </trkpt>
      <trkpt lat="47.91348" lon="6.82144">
        <ele>921.3</ele>
        <time>2022-09-02T08:34:37Z</time>
      </trkpt>
      <trkpt lat="47.91347" lon="6.82144">
        <ele>921.2</ele>
        <time>2022-09-02T08:34:38Z</time>
      </trkpt>
      <trkpt lat="47.91346" lon="6.82143">
        <ele>921.1</ele>
        <time>2022-09-02T08:36:00Z</time>
      </trkpt>
      <trkpt lat="47.91346" lon="6.82142">
        <ele>921.2</ele>
        <time>2022-09-02T08:36:01Z</time>
      </trkpt>
      <trkpt lat="47.91346" lon="6.82141">
        <ele>921.2</ele>
        <time>2022-09-02T08:36:02Z</time>
      </trkpt>
      <trkpt lat="47.91345" lon="6.82141">
        <ele>921.1</ele>
        <time>2022-09-02T08:36:03Z</time>
      </trkpt>
      <trkpt lat="47.91345" lon="6.8214">
        <ele>921.2</ele>
        <time>2022-09-02T08:36:04Z</time>
      </trkpt>
      <trkpt lat="47.91345" lon="6.82139">
        <ele>921.3</ele>
        <time>2022-09-02T08:36:05Z</time>
      </trkpt>
      <trkpt lat="47.91346" lon="6.82137">
        <ele>921.3</ele>
        <time>2022-09-02T08:36:06Z</time>
      </trkpt>
      <trkpt lat="47.91346" lon="6.82136">
        <ele>921.3</ele>
        <time>2022-09-02T08:36:08Z</time>
      </trkpt>
      <trkpt lat="47.91347" lon="6.82136">
        <ele>921.4</ele>
        <time>2022-09-02T08:36:10Z</time>
      </trkpt>
      <trkpt lat="47.91347" lon="6.82135">
        <ele>921.4</ele>
        <time>2022-09-02T08:36:11Z</time>
      </trkpt>
      <trkpt lat="47.91348" lon="6.82135">
        <ele>921.5</ele>
        <time>2022-09-02T08:36:13Z</time>
      </trkpt>
      <trkpt lat="47.91349" lon="6.82136">
        <ele>921.6</ele>
        <time>2022-09-02T08:36:15Z</time>
      </trkpt>
      <trkpt lat="47.91349" lon="6.82137">
        <ele>921.7</ele>
        <time>2022-09-02T08:36:16Z</time>
      </trkpt>
      <trkpt lat="47.91349" lon="6.82138">
        <ele>921.7</ele>
        <time>2022-09-02T08:36:17Z</time>
      </trkpt>
      <trkpt lat="47.91349" lon="6.82139">
        <ele>921.7</ele>
        <time>2022-09-02T08:36:18Z</time>
      </trkpt>
      <trkpt lat="47.9135" lon="6.8214">
        <ele>921.8</ele>
        <time>2022-09-02T08:36:19Z</time>
      </trkpt>
      <trkpt lat="47.9135" lon="6.82141">
        <ele>921.7</ele>
        <time>2022-09-02T08:36:20Z</time>
      </trkpt>
      <trkpt lat="47.9135" lon="6.82142">
        <ele>921.7</ele>
        <time>2022-09-02T08:36:23Z</time>
      </trkpt>
      <trkpt lat="47.91351" lon="6.82142">
        <ele>921.8</ele>
        <time>2022-09-02T08:36:25Z</time>
      </trkpt>
      <trkpt lat="47.91351" lon="6.82141">
        <ele>921.8</ele>
        <time>2022-09-02T08:36:28Z</time>
      </trkpt>
      <trkpt lat="47.91351" lon="6.8214">
        <ele>921.9</ele>
        <time>2022-09-02T08:36:30Z</time>
      </trkpt>
      <trkpt lat="47.91351" lon="6.82139">
        <ele>921.9</ele>
        <time>2022-09-02T08:36:31Z</time>
      </trkpt>
      <trkpt lat="47.91352" lon="6.82137">
        <ele>922</ele>
        <time>2022-09-02T08:37:00Z</time>
      </trkpt>
      <trkpt lat="47.91352" lon="6.82136">
        <ele>921.9</ele>
        <time>2022-09-02T08:37:01Z</time>
      </trkpt>
      <trkpt lat="47.91352" lon="6.82135">
        <ele>921.9</ele>
        <time>2022-09-02T08:37:02Z</time>
      </trkpt>
      <trkpt lat="47.91352" lon="6.82136">
        <ele>921.9</ele>
        <time>2022-09-02T08:37:05Z</time>
      </trkpt>
      <trkpt lat="47.91352" lon="6.82137">
        <ele>922</ele>
        <time>2022-09-02T08:37:06Z</time>
      </trkpt>
      <trkpt lat="47.91352" lon="6.82138">
        <ele>922</ele>
        <time>2022-09-02T08:37:07Z</time>
      </trkpt>
      <trkpt lat="47.91352" lon="6.82139">
        <ele>922</ele>
        <time>2022-09-02T08:37:08Z</time>
      </trkpt>
      <trkpt lat="47.91352" lon="6.8214">
        <ele>922</ele>
        <time>2022-09-02T08:37:09Z</time>
      </trkpt>
      <trkpt lat="47.91352" lon="6.82141">
        <ele>922</ele>
        <time>2022-09-02T08:37:10Z</time>
      </trkpt>
      <trkpt lat="47.91353" lon="6.82141">
        <ele>922.1</ele>
        <time>2022-09-02T08:37:11Z</time>
      </trkpt>
      <trkpt lat="47.91353" lon="6.82142">
        <ele>922.1</ele>
        <time>2022-09-02T08:37:12Z</time>
      </trkpt>
      <trkpt lat="47.91353" lon="6.82143">
        <ele>922.1</ele>
        <time>2022-09-02T08:37:13Z</time>
      </trkpt>
      <trkpt lat="47.91354" lon="6.82144">
        <ele>922.2</ele>
        <time>2022-09-02T08:37:14Z</time>
      </trkpt>
      <trkpt lat="47.91355" lon="6.82145">
        <ele>922.3</ele>
        <time>2022-09-02T08:37:16Z</time>
      </trkpt>
      <trkpt lat="47.91356" lon="6.82145">
        <ele>922.5</ele>
        <time>2022-09-02T08:37:17Z</time>
      </trkpt>
      <trkpt lat="47.91357" lon="6.82146">
        <ele>922.6</ele>
        <time>2022-09-02T08:37:18Z</time>
      </trkpt>
      <trkpt lat="47.91358" lon="6.82147">
        <ele>922.8</ele>
        <time>2022-09-02T08:37:40Z</time>
      </trkpt>
      <trkpt lat="47.91359" lon="6.82147">
        <ele>923</ele>
        <time>2022-09-02T08:37:41Z</time>
      </trkpt>
      <trkpt lat="47.9136" lon="6.82148">
        <ele>923.1</ele>
        <time>2022-09-02T08:37:42Z</time>
      </trkpt>
      <trkpt lat="47.9136" lon="6.82147">
        <ele>923.1</ele>
        <time>2022-09-02T08:37:43Z</time>
      </trkpt>
      <trkpt lat="47.91361" lon="6.82147">
        <ele>923.3</ele>
        <time>2022-09-02T08:37:44Z</time>
      </trkpt>
      <trkpt lat="47.91361" lon="6.82146">
        <ele>923.2</ele>
        <time>2022-09-02T08:37:45Z</time>
      </trkpt>
      <trkpt lat="47.91361" lon="6.82145">
        <ele>923.2</ele>
        <time>2022-09-02T08:37:46Z</time>
      </trkpt>
      <trkpt lat="47.91361" lon="6.82143">
        <ele>923.1</ele>
        <time>2022-09-02T08:37:47Z</time>
      </trkpt>
      <trkpt lat="47.91361" lon="6.82142">
        <ele>923.1</ele>
        <time>2022-09-02T08:37:48Z</time>
      </trkpt>
      <trkpt lat="47.91362" lon="6.8214">
        <ele>923.2</ele>
        <time>2022-09-02T08:37:49Z</time>
      </trkpt>
      <trkpt lat="47.91362" lon="6.82139">
        <ele>923.1</ele>
        <time>2022-09-02T08:37:50Z</time>
      </trkpt>
      <trkpt lat="47.91362" lon="6.82137">
        <ele>923.1</ele>
        <time>2022-09-02T08:37:51Z</time>
      </trkpt>
      <trkpt lat="47.91363" lon="6.82136">
        <ele>923.1</ele>
        <time>2022-09-02T08:37:52Z</time>
      </trkpt>
      <trkpt lat="47.91363" lon="6.82135">
        <ele>923.1</ele>
        <time>2022-09-02T08:37:53Z</time>
      </trkpt>
      <trkpt lat="47.91364" lon="6.82133">
        <ele>923.1</ele>
        <time>2022-09-02T08:37:54Z</time>
      </trkpt>
      <trkpt lat="47.91364" lon="6.82132">
        <ele>923.1</ele>
        <time>2022-09-02T08:37:55Z</time>
      </trkpt>
      <trkpt lat="47.91364" lon="6.8213">
        <ele>923</ele>
        <time>2022-09-02T08:37:56Z</time>
      </trkpt>
      <trkpt lat="47.91364" lon="6.82129">
        <ele>922.9</ele>
        <time>2022-09-02T08:37:57Z</time>
      </trkpt>
      <trkpt lat="47.91365" lon="6.82128">
        <ele>923</ele>
        <time>2022-09-02T08:37:58Z</time>
      </trkpt>
      <trkpt lat="47.91365" lon="6.82126">
        <ele>922.9</ele>
        <time>2022-09-02T08:37:59Z</time>
      </trkpt>
      <trkpt lat="47.91365" lon="6.82125">
        <ele>922.8</ele>
        <time>2022-09-02T08:38:00Z</time>
      </trkpt>
      <trkpt lat="47.91365" lon="6.82123">
        <ele>922.7</ele>
        <time>2022-09-02T08:38:01Z</time>
      </trkpt>
      <trkpt lat="47.91365" lon="6.82121">
        <ele>922.6</ele>
        <time>2022-09-02T08:38:02Z</time>
      </trkpt>
      <trkpt lat="47.91365" lon="6.8212">
        <ele>922.6</ele>
        <time>2022-09-02T08:38:03Z</time>
      </trkpt>
      <trkpt lat="47.91366" lon="6.82118">
        <ele>922.6</ele>
        <time>2022-09-02T08:38:04Z</time>
      </trkpt>
      <trkpt lat="47.91366" lon="6.82117">
        <ele>922.5</ele>
        <time>2022-09-02T08:38:05Z</time>
      </trkpt>
      <trkpt lat="47.91366" lon="6.82115">
        <ele>922.4</ele>
        <time>2022-09-02T08:38:06Z</time>
      </trkpt>
      <trkpt lat="47.91366" lon="6.82114">
        <ele>922.3</ele>
        <time>2022-09-02T08:38:07Z</time>
      </trkpt>
      <trkpt lat="47.91366" lon="6.82113">
        <ele>922.3</ele>
        <time>2022-09-02T08:38:08Z</time>
      </trkpt>
      <trkpt lat="47.91367" lon="6.82112">
        <ele>922.3</ele>
        <time>2022-09-02T08:38:09Z</time>
      </trkpt>
      <trkpt lat="47.91367" lon="6.82111">
        <ele>922.2</ele>
        <time>2022-09-02T08:38:10Z</time>
      </trkpt>
      <trkpt lat="47.91367" lon="6.8211">
        <ele>922</ele>
        <time>2022-09-02T08:38:11Z</time>
      </trkpt>
      <trkpt lat="47.91367" lon="6.82109">
        <ele>921.8</ele>
        <time>2022-09-02T08:38:12Z</time>
      </trkpt>
      <trkpt lat="47.91367" lon="6.82108">
        <ele>921.6</ele>
        <time>2022-09-02T08:38:13Z</time>
      </trkpt>
      <trkpt lat="47.91367" lon="6.82107">
        <ele>921.4</ele>
        <time>2022-09-02T08:38:14Z</time>
      </trkpt>
      <trkpt lat="47.91367" lon="6.82106">
        <ele>921.2</ele>
        <time>2022-09-02T08:38:15Z</time>
      </trkpt>
      <trkpt lat="47.91368" lon="6.82105">
        <ele>921</ele>
        <time>2022-09-02T08:38:16Z</time>
      </trkpt>
      <trkpt lat="47.91368" lon="6.82103">
        <ele>920.6</ele>
        <time>2022-09-02T08:38:17Z</time>
      </trkpt>
      <trkpt lat="47.91368" lon="6.82102">
        <ele>920.4</ele>
        <time>2022-09-02T08:38:18Z</time>
      </trkpt>
      <trkpt lat="47.91368" lon="6.82101">
        <ele>920.2</ele>
        <time>2022-09-02T08:38:19Z</time>
      </trkpt>
      <trkpt lat="47.91368" lon="6.821">
        <ele>920</ele>
        <time>2022-09-02T08:38:20Z</time>
      </trkpt>
      <trkpt lat="47.91369" lon="6.82098">
        <ele>919.7</ele>
        <time>2022-09-02T08:38:21Z</time>
      </trkpt>
      <trkpt lat="47.91369" lon="6.82097">
        <ele>919.5</ele>
        <time>2022-09-02T08:38:22Z</time>
      </trkpt>
      <trkpt lat="47.91369" lon="6.82096">
        <ele>919.3</ele>
        <time>2022-09-02T08:38:23Z</time>
      </trkpt>
      <trkpt lat="47.91369" lon="6.82094">
        <ele>918.9</ele>
        <time>2022-09-02T08:38:24Z</time>
      </trkpt>
      <trkpt lat="47.91369" lon="6.82093">
        <ele>918.7</ele>
        <time>2022-09-02T08:38:25Z</time>
      </trkpt>
      <trkpt lat="47.91369" lon="6.82092">
        <ele>918.5</ele>
        <time>2022-09-02T08:38:26Z</time>
      </trkpt>
      <trkpt lat="47.9137" lon="6.82091">
        <ele>918.4</ele>
        <time>2022-09-02T08:38:27Z</time>
      </trkpt>
      <trkpt lat="47.9137" lon="6.82089">
        <ele>918.1</ele>
        <time>2022-09-02T08:38:28Z</time>
      </trkpt>
      <trkpt lat="47.9137" lon="6.82088">
        <ele>917.9</ele>
        <time>2022-09-02T08:38:29Z</time>
      </trkpt>
      <trkpt lat="47.9137" lon="6.82087">
        <ele>917.7</ele>
        <time>2022-09-02T08:38:30Z</time>
      </trkpt>
      <trkpt lat="47.9137" lon="6.82086">
        <ele>917.5</ele>
        <time>2022-09-02T08:38:31Z</time>
      </trkpt>
      <trkpt lat="47.91371" lon="6.82084">
        <ele>917.2</ele>
        <time>2022-09-02T08:38:32Z</time>
      </trkpt>
      <trkpt lat="47.91371" lon="6.82083">
        <ele>917</ele>
        <time>2022-09-02T08:38:33Z</time>
      </trkpt>
      <trkpt lat="47.91371" lon="6.82082">
        <ele>916.8</ele>
        <time>2022-09-02T08:38:34Z</time>
      </trkpt>
      <trkpt lat="47.91371" lon="6.82081">
        <ele>916.6</ele>
        <time>2022-09-02T08:38:35Z</time>
      </trkpt>
      <trkpt lat="47.91371" lon="6.82079">
        <ele>916.2</ele>
        <time>2022-09-02T08:38:36Z</time>
      </trkpt>
      <trkpt lat="47.91371" lon="6.82078">
        <ele>916</ele>
        <time>2022-09-02T08:38:37Z</time>
      </trkpt>
      <trkpt lat="47.91372" lon="6.82077">
        <ele>915.9</ele>
        <time>2022-09-02T08:38:38Z</time>
      </trkpt>
      <trkpt lat="47.91372" lon="6.82076">
        <ele>915.7</ele>
        <time>2022-09-02T08:38:39Z</time>
      </trkpt>
      <trkpt lat="47.91372" lon="6.82075">
        <ele>915.5</ele>
        <time>2022-09-02T08:38:40Z</time>
      </trkpt>
      <trkpt lat="47.91372" lon="6.82074">
        <ele>915.3</ele>
        <time>2022-09-02T08:38:41Z</time>
      </trkpt>
      <trkpt lat="47.91372" lon="6.82072">
        <ele>914.9</ele>
        <time>2022-09-02T08:38:42Z</time>
      </trkpt>
      <trkpt lat="47.91372" lon="6.82071">
        <ele>914.7</ele>
        <time>2022-09-02T08:38:43Z</time>
      </trkpt>
      <trkpt lat="47.91372" lon="6.8207">
        <ele>914.5</ele>
        <time>2022-09-02T08:38:44Z</time>
      </trkpt>
      <trkpt lat="47.91373" lon="6.82069">
        <ele>914.4</ele>
        <time>2022-09-02T08:38:45Z</time>
      </trkpt>
      <trkpt lat="47.91373" lon="6.82068">
        <ele>914.2</ele>
        <time>2022-09-02T08:38:46Z</time>
      </trkpt>
      <trkpt lat="47.91373" lon="6.82067">
        <ele>914</ele>
        <time>2022-09-02T08:38:47Z</time>
      </trkpt>
      <trkpt lat="47.91373" lon="6.82066">
        <ele>913.8</ele>
        <time>2022-09-02T08:38:48Z</time>
      </trkpt>
      <trkpt lat="47.91373" lon="6.82065">
        <ele>913.6</ele>
        <time>2022-09-02T08:38:49Z</time>
      </trkpt>
      <trkpt lat="47.91374" lon="6.82064">
        <ele>913.5</ele>
        <time>2022-09-02T08:38:50Z</time>
      </trkpt>
      <trkpt lat="47.91374" lon="6.82063">
        <ele>913.3</ele>
        <time>2022-09-02T08:38:51Z</time>
      </trkpt>
      <trkpt lat="47.91374" lon="6.82062">
        <ele>913.1</ele>
        <time>2022-09-02T08:38:52Z</time>
      </trkpt>
      <trkpt lat="47.91374" lon="6.82061">
        <ele>912.9</ele>
        <time>2022-09-02T08:38:53Z</time>
      </trkpt>
      <trkpt lat="47.91374" lon="6.82059">
        <ele>912.5</ele>
        <time>2022-09-02T08:38:54Z</time>
      </trkpt>
      <trkpt lat="47.91374" lon="6.82058">
        <ele>912.3</ele>
        <time>2022-09-02T08:38:55Z</time>
      </trkpt>
      <trkpt lat="47.91375" lon="6.82057">
        <ele>912.3</ele>
        <time>2022-09-02T08:38:56Z</time>
      </trkpt>
      <trkpt lat="47.91375" lon="6.82056">
        <ele>912.1</ele>
        <time>2022-09-02T08:38:57Z</time>
      </trkpt>
      <trkpt lat="47.91375" lon="6.82055">
        <ele>911.9</ele>
        <time>2022-09-02T08:38:58Z</time>
      </trkpt>
      <trkpt lat="47.91375" lon="6.82054">
        <ele>911.7</ele>
        <time>2022-09-02T08:39:16Z</time>
      </trkpt>
      <trkpt lat="47.91376" lon="6.82053">
        <ele>911.6</ele>
        <time>2022-09-02T08:39:17Z</time>
      </trkpt>
      <trkpt lat="47.91376" lon="6.82052">
        <ele>911.4</ele>
        <time>2022-09-02T08:39:19Z</time>
      </trkpt>
      <trkpt lat="47.91376" lon="6.82051">
        <ele>911.2</ele>
        <time>2022-09-02T08:39:20Z</time>
      </trkpt>
      <trkpt lat="47.91376" lon="6.8205">
        <ele>911.1</ele>
        <time>2022-09-02T08:39:21Z</time>
      </trkpt>
      <trkpt lat="47.91377" lon="6.82048">
        <ele>910.8</ele>
        <time>2022-09-02T08:39:22Z</time>
      </trkpt>
      <trkpt lat="47.91377" lon="6.82047">
        <ele>910.6</ele>
        <time>2022-09-02T08:39:23Z</time>
      </trkpt>
      <trkpt lat="47.91377" lon="6.82046">
        <ele>910.4</ele>
        <time>2022-09-02T08:39:24Z</time>
      </trkpt>
      <trkpt lat="47.91378" lon="6.82044">
        <ele>910.2</ele>
        <time>2022-09-02T08:39:25Z</time>
      </trkpt>
      <trkpt lat="47.91378" lon="6.82043">
        <ele>910</ele>
        <time>2022-09-02T08:39:26Z</time>
      </trkpt>
      <trkpt lat="47.91378" lon="6.82042">
        <ele>909.8</ele>
        <time>2022-09-02T08:39:27Z</time>
      </trkpt>
      <trkpt lat="47.91379" lon="6.8204">
        <ele>909.6</ele>
        <time>2022-09-02T08:39:28Z</time>
      </trkpt>
      <trkpt lat="47.91379" lon="6.82039">
        <ele>909.4</ele>
        <time>2022-09-02T08:39:29Z</time>
      </trkpt>
      <trkpt lat="47.91379" lon="6.82038">
        <ele>909.2</ele>
        <time>2022-09-02T08:39:30Z</time>
      </trkpt>
      <trkpt lat="47.91379" lon="6.82037">
        <ele>909</ele>
        <time>2022-09-02T08:39:31Z</time>
      </trkpt>
      <trkpt lat="47.9138" lon="6.82035">
        <ele>908.8</ele>
        <time>2022-09-02T08:39:32Z</time>
      </trkpt>
      <trkpt lat="47.9138" lon="6.82034">
        <ele>908.6</ele>
        <time>2022-09-02T08:39:33Z</time>
      </trkpt>
      <trkpt lat="47.9138" lon="6.82033">
        <ele>908.4</ele>
        <time>2022-09-02T08:39:34Z</time>
      </trkpt>
      <trkpt lat="47.9138" lon="6.82032">
        <ele>908.2</ele>
        <time>2022-09-02T08:39:35Z</time>
      </trkpt>
      <trkpt lat="47.91381" lon="6.8203">
        <ele>908</ele>
        <time>2022-09-02T08:39:36Z</time>
      </trkpt>
      <trkpt lat="47.91381" lon="6.82029">
        <ele>907.8</ele>
        <time>2022-09-02T08:39:37Z</time>
      </trkpt>
      <trkpt lat="47.91381" lon="6.82028">
        <ele>907.6</ele>
        <time>2022-09-02T08:39:38Z</time>
      </trkpt>
      <trkpt lat="47.91382" lon="6.82026">
        <ele>907.4</ele>
        <time>2022-09-02T08:39:39Z</time>
      </trkpt>
      <trkpt lat="47.91382" lon="6.82025">
        <ele>907.3</ele>
        <time>2022-09-02T08:39:40Z</time>
      </trkpt>
      <trkpt lat="47.91382" lon="6.82024">
        <ele>907.1</ele>
        <time>2022-09-02T08:39:41Z</time>
      </trkpt>
      <trkpt lat="47.91382" lon="6.82023">
        <ele>906.9</ele>
        <time>2022-09-02T08:39:42Z</time>
      </trkpt>
      <trkpt lat="47.91382" lon="6.82021">
        <ele>906.5</ele>
        <time>2022-09-02T08:39:43Z</time>
      </trkpt>
      <trkpt lat="47.91382" lon="6.8202">
        <ele>906.4</ele>
        <time>2022-09-02T08:39:44Z</time>
      </trkpt>
      <trkpt lat="47.91383" lon="6.82019">
        <ele>906.4</ele>
        <time>2022-09-02T08:39:45Z</time>
      </trkpt>
      <trkpt lat="47.91383" lon="6.82018">
        <ele>906.2</ele>
        <time>2022-09-02T08:39:46Z</time>
      </trkpt>
      <trkpt lat="47.91383" lon="6.82017">
        <ele>906</ele>
        <time>2022-09-02T08:39:47Z</time>
      </trkpt>
      <trkpt lat="47.91383" lon="6.82016">
        <ele>905.8</ele>
        <time>2022-09-02T08:39:48Z</time>
      </trkpt>
      <trkpt lat="47.91383" lon="6.82014">
        <ele>905.5</ele>
        <time>2022-09-02T08:39:49Z</time>
      </trkpt>
      <trkpt lat="47.91384" lon="6.82013">
        <ele>905.5</ele>
        <time>2022-09-02T08:39:50Z</time>
      </trkpt>
      <trkpt lat="47.91384" lon="6.82012">
        <ele>905.3</ele>
        <time>2022-09-02T08:39:51Z</time>
      </trkpt>
      <trkpt lat="47.91384" lon="6.82011">
        <ele>905.1</ele>
        <time>2022-09-02T08:39:52Z</time>
      </trkpt>
      <trkpt lat="47.91385" lon="6.8201">
        <ele>905.1</ele>
        <time>2022-09-02T08:39:53Z</time>
      </trkpt>
      <trkpt lat="47.91385" lon="6.82009">
        <ele>904.9</ele>
        <time>2022-09-02T08:39:54Z</time>
      </trkpt>
      <trkpt lat="47.91385" lon="6.82008">
        <ele>904.7</ele>
        <time>2022-09-02T08:39:55Z</time>
      </trkpt>
      <trkpt lat="47.91385" lon="6.82006">
        <ele>904.4</ele>
        <time>2022-09-02T08:39:56Z</time>
      </trkpt>
      <trkpt lat="47.91386" lon="6.82005">
        <ele>904.4</ele>
        <time>2022-09-02T08:39:57Z</time>
      </trkpt>
      <trkpt lat="47.91386" lon="6.82004">
        <ele>904.2</ele>
        <time>2022-09-02T08:39:58Z</time>
      </trkpt>
      <trkpt lat="47.91386" lon="6.82003">
        <ele>904</ele>
        <time>2022-09-02T08:39:59Z</time>
      </trkpt>
      <trkpt lat="47.91386" lon="6.82001">
        <ele>903.7</ele>
        <time>2022-09-02T08:40:00Z</time>
      </trkpt>
      <trkpt lat="47.91387" lon="6.82">
        <ele>903.7</ele>
        <time>2022-09-02T08:40:01Z</time>
      </trkpt>
      <trkpt lat="47.91387" lon="6.81999">
        <ele>903.5</ele>
        <time>2022-09-02T08:40:02Z</time>
      </trkpt>
      <trkpt lat="47.91387" lon="6.81998">
        <ele>903.3</ele>
        <time>2022-09-02T08:40:03Z</time>
      </trkpt>
      <trkpt lat="47.91388" lon="6.81997">
        <ele>903.3</ele>
        <time>2022-09-02T08:40:04Z</time>
      </trkpt>
      <trkpt lat="47.91388" lon="6.81995">
        <ele>902.9</ele>
        <time>2022-09-02T08:40:05Z</time>
      </trkpt>
      <trkpt lat="47.91388" lon="6.81994">
        <ele>902.7</ele>
        <time>2022-09-02T08:40:06Z</time>
      </trkpt>
      <trkpt lat="47.91388" lon="6.81993">
        <ele>902.6</ele>
        <time>2022-09-02T08:40:07Z</time>
      </trkpt>
      <trkpt lat="47.91389" lon="6.81992">
        <ele>902.6</ele>
        <time>2022-09-02T08:40:08Z</time>
      </trkpt>
      <trkpt lat="47.91389" lon="6.81991">
        <ele>902.4</ele>
        <time>2022-09-02T08:40:09Z</time>
      </trkpt>
      <trkpt lat="47.91389" lon="6.81989">
        <ele>902.1</ele>
        <time>2022-09-02T08:40:10Z</time>
      </trkpt>
      <trkpt lat="47.9139" lon="6.81988">
        <ele>902.2</ele>
        <time>2022-09-02T08:40:11Z</time>
      </trkpt>
      <trkpt lat="47.9139" lon="6.81987">
        <ele>902</ele>
        <time>2022-09-02T08:40:12Z</time>
      </trkpt>
      <trkpt lat="47.9139" lon="6.81986">
        <ele>901.8</ele>
        <time>2022-09-02T08:40:13Z</time>
      </trkpt>
      <trkpt lat="47.91391" lon="6.81985">
        <ele>901.9</ele>
        <time>2022-09-02T08:40:14Z</time>
      </trkpt>
      <trkpt lat="47.91391" lon="6.81983">
        <ele>901.5</ele>
        <time>2022-09-02T08:40:15Z</time>
      </trkpt>
      <trkpt lat="47.91391" lon="6.81982">
        <ele>901.4</ele>
        <time>2022-09-02T08:40:16Z</time>
      </trkpt>
      <trkpt lat="47.91392" lon="6.8198">
        <ele>901.3</ele>
        <time>2022-09-02T08:40:17Z</time>
      </trkpt>
      <trkpt lat="47.91392" lon="6.81979">
        <ele>901.1</ele>
        <time>2022-09-02T08:40:18Z</time>
      </trkpt>
      <trkpt lat="47.91392" lon="6.81978">
        <ele>900.9</ele>
        <time>2022-09-02T08:40:19Z</time>
      </trkpt>
      <trkpt lat="47.91392" lon="6.81976">
        <ele>900.6</ele>
        <time>2022-09-02T08:40:20Z</time>
      </trkpt>
      <trkpt lat="47.91393" lon="6.81975">
        <ele>900.7</ele>
        <time>2022-09-02T08:40:21Z</time>
      </trkpt>
      <trkpt lat="47.91393" lon="6.81974">
        <ele>900.5</ele>
        <time>2022-09-02T08:40:22Z</time>
      </trkpt>
      <trkpt lat="47.91393" lon="6.81972">
        <ele>900.1</ele>
        <time>2022-09-02T08:40:23Z</time>
      </trkpt>
      <trkpt lat="47.91394" lon="6.81971">
        <ele>900.2</ele>
        <time>2022-09-02T08:40:24Z</time>
      </trkpt>
      <trkpt lat="47.91394" lon="6.8197">
        <ele>900.1</ele>
        <time>2022-09-02T08:40:25Z</time>
      </trkpt>
      <trkpt lat="47.91394" lon="6.81968">
        <ele>899.7</ele>
        <time>2022-09-02T08:40:26Z</time>
      </trkpt>
      <trkpt lat="47.91395" lon="6.81967">
        <ele>899.8</ele>
        <time>2022-09-02T08:40:27Z</time>
      </trkpt>
      <trkpt lat="47.91395" lon="6.81966">
        <ele>899.6</ele>
        <time>2022-09-02T08:40:28Z</time>
      </trkpt>
      <trkpt lat="47.91396" lon="6.81965">
        <ele>899.7</ele>
        <time>2022-09-02T08:40:29Z</time>
      </trkpt>
      <trkpt lat="47.91396" lon="6.81964">
        <ele>899.5</ele>
        <time>2022-09-02T08:40:30Z</time>
      </trkpt>
      <trkpt lat="47.91397" lon="6.81962">
        <ele>899.4</ele>
        <time>2022-09-02T08:40:31Z</time>
      </trkpt>
      <trkpt lat="47.91397" lon="6.81961">
        <ele>899.2</ele>
        <time>2022-09-02T08:40:32Z</time>
      </trkpt>
      <trkpt lat="47.91398" lon="6.8196">
        <ele>899.3</ele>
        <time>2022-09-02T08:40:33Z</time>
      </trkpt>
      <trkpt lat="47.91398" lon="6.81959">
        <ele>899.1</ele>
        <time>2022-09-02T08:40:34Z</time>
      </trkpt>
      <trkpt lat="47.91398" lon="6.81957">
        <ele>898.7</ele>
        <time>2022-09-02T08:40:35Z</time>
      </trkpt>
      <trkpt lat="47.91399" lon="6.81956">
        <ele>898.8</ele>
        <time>2022-09-02T08:40:36Z</time>
      </trkpt>
      <trkpt lat="47.91399" lon="6.81955">
        <ele>898.6</ele>
        <time>2022-09-02T08:40:37Z</time>
      </trkpt>
      <trkpt lat="47.914" lon="6.81954">
        <ele>898.7</ele>
        <time>2022-09-02T08:40:38Z</time>
      </trkpt>
      <trkpt lat="47.914" lon="6.81952">
        <ele>898.3</ele>
        <time>2022-09-02T08:40:39Z</time>
      </trkpt>
      <trkpt lat="47.91401" lon="6.81951">
        <ele>898.3</ele>
        <time>2022-09-02T08:40:40Z</time>
      </trkpt>
      <trkpt lat="47.91401" lon="6.8195">
        <ele>898.1</ele>
        <time>2022-09-02T08:40:41Z</time>
      </trkpt>
      <trkpt lat="47.91402" lon="6.81949">
        <ele>898.2</ele>
        <time>2022-09-02T08:40:42Z</time>
      </trkpt>
      <trkpt lat="47.91403" lon="6.81947">
        <ele>898.1</ele>
        <time>2022-09-02T08:40:43Z</time>
      </trkpt>
      <trkpt lat="47.91403" lon="6.81946">
        <ele>897.9</ele>
        <time>2022-09-02T08:40:44Z</time>
      </trkpt>
      <trkpt lat="47.91404" lon="6.81945">
        <ele>897.9</ele>
        <time>2022-09-02T08:40:45Z</time>
      </trkpt>
      <trkpt lat="47.91404" lon="6.81943">
        <ele>897.5</ele>
        <time>2022-09-02T08:40:46Z</time>
      </trkpt>
      <trkpt lat="47.91405" lon="6.81942">
        <ele>897.6</ele>
        <time>2022-09-02T08:40:47Z</time>
      </trkpt>
      <trkpt lat="47.91405" lon="6.81941">
        <ele>897.4</ele>
        <time>2022-09-02T08:40:48Z</time>
      </trkpt>
      <trkpt lat="47.91406" lon="6.8194">
        <ele>897.5</ele>
        <time>2022-09-02T08:40:49Z</time>
      </trkpt>
      <trkpt lat="47.91406" lon="6.81939">
        <ele>897.3</ele>
        <time>2022-09-02T08:40:50Z</time>
      </trkpt>
      <trkpt lat="47.91407" lon="6.81938">
        <ele>897.4</ele>
        <time>2022-09-02T08:40:51Z</time>
      </trkpt>
      <trkpt lat="47.91407" lon="6.81937">
        <ele>897.2</ele>
        <time>2022-09-02T08:40:52Z</time>
      </trkpt>
      <trkpt lat="47.91408" lon="6.81936">
        <ele>897.3</ele>
        <time>2022-09-02T08:40:53Z</time>
      </trkpt>
      <trkpt lat="47.91408" lon="6.81934">
        <ele>896.9</ele>
        <time>2022-09-02T08:40:54Z</time>
      </trkpt>
      <trkpt lat="47.91409" lon="6.81933">
        <ele>897</ele>
        <time>2022-09-02T08:40:55Z</time>
      </trkpt>
      <trkpt lat="47.91409" lon="6.81932">
        <ele>896.8</ele>
        <time>2022-09-02T08:40:56Z</time>
      </trkpt>
      <trkpt lat="47.9141" lon="6.81931">
        <ele>896.9</ele>
        <time>2022-09-02T08:40:57Z</time>
      </trkpt>
      <trkpt lat="47.9141" lon="6.8193">
        <ele>896.7</ele>
        <time>2022-09-02T08:40:58Z</time>
      </trkpt>
      <trkpt lat="47.91411" lon="6.81929">
        <ele>896.8</ele>
        <time>2022-09-02T08:40:59Z</time>
      </trkpt>
      <trkpt lat="47.91411" lon="6.81928">
        <ele>896.6</ele>
        <time>2022-09-02T08:41:00Z</time>
      </trkpt>
      <trkpt lat="47.91412" lon="6.81926">
        <ele>896.5</ele>
        <time>2022-09-02T08:41:01Z</time>
      </trkpt>
      <trkpt lat="47.91413" lon="6.81925">
        <ele>896.6</ele>
        <time>2022-09-02T08:41:02Z</time>
      </trkpt>
      <trkpt lat="47.91413" lon="6.81924">
        <ele>896.4</ele>
        <time>2022-09-02T08:41:03Z</time>
      </trkpt>
      <trkpt lat="47.91414" lon="6.81923">
        <ele>896.5</ele>
        <time>2022-09-02T08:41:04Z</time>
      </trkpt>
      <trkpt lat="47.91414" lon="6.81922">
        <ele>896.3</ele>
        <time>2022-09-02T08:41:05Z</time>
      </trkpt>
      <trkpt lat="47.91415" lon="6.81921">
        <ele>896.4</ele>
        <time>2022-09-02T08:41:06Z</time>
      </trkpt>
      <trkpt lat="47.91416" lon="6.8192">
        <ele>896.4</ele>
        <time>2022-09-02T08:41:07Z</time>
      </trkpt>
      <trkpt lat="47.91416" lon="6.81919">
        <ele>896.3</ele>
        <time>2022-09-02T08:41:08Z</time>
      </trkpt>
      <trkpt lat="47.91417" lon="6.81918">
        <ele>896.3</ele>
        <time>2022-09-02T08:41:09Z</time>
      </trkpt>
      <trkpt lat="47.91417" lon="6.81917">
        <ele>896.1</ele>
        <time>2022-09-02T08:41:10Z</time>
      </trkpt>
      <trkpt lat="47.91418" lon="6.81915">
        <ele>895.9</ele>
        <time>2022-09-02T08:41:11Z</time>
      </trkpt>
      <trkpt lat="47.91418" lon="6.81914">
        <ele>895.8</ele>
        <time>2022-09-02T08:41:12Z</time>
      </trkpt>
      <trkpt lat="47.91419" lon="6.81913">
        <ele>895.8</ele>
        <time>2022-09-02T08:41:13Z</time>
      </trkpt>
      <trkpt lat="47.91419" lon="6.81912">
        <ele>895.6</ele>
        <time>2022-09-02T08:41:14Z</time>
      </trkpt>
      <trkpt lat="47.9142" lon="6.81911">
        <ele>895.6</ele>
        <time>2022-09-02T08:41:15Z</time>
      </trkpt>
      <trkpt lat="47.9142" lon="6.8191">
        <ele>895.4</ele>
        <time>2022-09-02T08:41:16Z</time>
      </trkpt>
      <trkpt lat="47.91421" lon="6.81909">
        <ele>895.4</ele>
        <time>2022-09-02T08:41:17Z</time>
      </trkpt>
      <trkpt lat="47.91421" lon="6.81908">
        <ele>895.2</ele>
        <time>2022-09-02T08:41:18Z</time>
      </trkpt>
      <trkpt lat="47.91421" lon="6.81907">
        <ele>895</ele>
        <time>2022-09-02T08:41:19Z</time>
      </trkpt>
      <trkpt lat="47.91422" lon="6.81906">
        <ele>895</ele>
        <time>2022-09-02T08:41:20Z</time>
      </trkpt>
      <trkpt lat="47.91422" lon="6.81905">
        <ele>894.9</ele>
        <time>2022-09-02T08:41:21Z</time>
      </trkpt>
      <trkpt lat="47.91423" lon="6.81903">
        <ele>894.7</ele>
        <time>2022-09-02T08:41:22Z</time>
      </trkpt>
      <trkpt lat="47.91423" lon="6.81902">
        <ele>894.5</ele>
        <time>2022-09-02T08:41:23Z</time>
      </trkpt>
      <trkpt lat="47.91424" lon="6.81901">
        <ele>894.5</ele>
        <time>2022-09-02T08:41:24Z</time>
      </trkpt>
      <trkpt lat="47.91424" lon="6.819">
        <ele>894.3</ele>
        <time>2022-09-02T08:41:25Z</time>
      </trkpt>
      <trkpt lat="47.91424" lon="6.81899">
        <ele>894.1</ele>
        <time>2022-09-02T08:41:26Z</time>
      </trkpt>
      <trkpt lat="47.91425" lon="6.81898">
        <ele>894.1</ele>
        <time>2022-09-02T08:41:27Z</time>
      </trkpt>
      <trkpt lat="47.91425" lon="6.81896">
        <ele>893.8</ele>
        <time>2022-09-02T08:41:28Z</time>
      </trkpt>
      <trkpt lat="47.91426" lon="6.81895">
        <ele>893.8</ele>
        <time>2022-09-02T08:41:29Z</time>
      </trkpt>
      <trkpt lat="47.91426" lon="6.81894">
        <ele>893.6</ele>
        <time>2022-09-02T08:41:30Z</time>
      </trkpt>
      <trkpt lat="47.91427" lon="6.81893">
        <ele>893.6</ele>
        <time>2022-09-02T08:41:31Z</time>
      </trkpt>
      <trkpt lat="47.91427" lon="6.81892">
        <ele>893.4</ele>
        <time>2022-09-02T08:41:32Z</time>
      </trkpt>
      <trkpt lat="47.91428" lon="6.8189">
        <ele>893.2</ele>
        <time>2022-09-02T08:41:33Z</time>
      </trkpt>
      <trkpt lat="47.91428" lon="6.81889">
        <ele>893.1</ele>
        <time>2022-09-02T08:41:34Z</time>
      </trkpt>
      <trkpt lat="47.91429" lon="6.81888">
        <ele>893.1</ele>
        <time>2022-09-02T08:41:35Z</time>
      </trkpt>
      <trkpt lat="47.91429" lon="6.81887">
        <ele>892.9</ele>
        <time>2022-09-02T08:41:36Z</time>
      </trkpt>
      <trkpt lat="47.9143" lon="6.81886">
        <ele>892.9</ele>
        <time>2022-09-02T08:41:37Z</time>
      </trkpt>
      <trkpt lat="47.9143" lon="6.81884">
        <ele>892.6</ele>
        <time>2022-09-02T08:41:38Z</time>
      </trkpt>
      <trkpt lat="47.91431" lon="6.81883">
        <ele>892.6</ele>
        <time>2022-09-02T08:41:39Z</time>
      </trkpt>
      <trkpt lat="47.91431" lon="6.81882">
        <ele>892.5</ele>
        <time>2022-09-02T08:41:40Z</time>
      </trkpt>
      <trkpt lat="47.91431" lon="6.81881">
        <ele>892.3</ele>
        <time>2022-09-02T08:41:41Z</time>
      </trkpt>
      <trkpt lat="47.91432" lon="6.8188">
        <ele>892.3</ele>
        <time>2022-09-02T08:41:42Z</time>
      </trkpt>
      <trkpt lat="47.91432" lon="6.81879">
        <ele>892.1</ele>
        <time>2022-09-02T08:41:43Z</time>
      </trkpt>
      <trkpt lat="47.91433" lon="6.81878">
        <ele>892.1</ele>
        <time>2022-09-02T08:41:44Z</time>
      </trkpt>
      <trkpt lat="47.91433" lon="6.81877">
        <ele>892</ele>
        <time>2022-09-02T08:41:45Z</time>
      </trkpt>
      <trkpt lat="47.91433" lon="6.81876">
        <ele>891.8</ele>
        <time>2022-09-02T08:41:46Z</time>
      </trkpt>
      <trkpt lat="47.91434" lon="6.81875">
        <ele>891.8</ele>
        <time>2022-09-02T08:41:47Z</time>
      </trkpt>
      <trkpt lat="47.91434" lon="6.81873">
        <ele>891.5</ele>
        <time>2022-09-02T08:41:48Z</time>
      </trkpt>
      <trkpt lat="47.91435" lon="6.81872">
        <ele>891.5</ele>
        <time>2022-09-02T08:41:49Z</time>
      </trkpt>
      <trkpt lat="47.91435" lon="6.81871">
        <ele>891.3</ele>
        <time>2022-09-02T08:41:50Z</time>
      </trkpt>
      <trkpt lat="47.91436" lon="6.8187">
        <ele>891.3</ele>
        <time>2022-09-02T08:41:51Z</time>
      </trkpt>
      <trkpt lat="47.91436" lon="6.81869">
        <ele>891.1</ele>
        <time>2022-09-02T08:41:52Z</time>
      </trkpt>
      <trkpt lat="47.91436" lon="6.81868">
        <ele>890.9</ele>
        <time>2022-09-02T08:41:53Z</time>
      </trkpt>
      <trkpt lat="47.91437" lon="6.81867">
        <ele>890.9</ele>
        <time>2022-09-02T08:41:54Z</time>
      </trkpt>
      <trkpt lat="47.91437" lon="6.81866">
        <ele>890.8</ele>
        <time>2022-09-02T08:41:55Z</time>
      </trkpt>
      <trkpt lat="47.91437" lon="6.81865">
        <ele>890.6</ele>
        <time>2022-09-02T08:41:56Z</time>
      </trkpt>
      <trkpt lat="47.91437" lon="6.81864">
        <ele>890.4</ele>
        <time>2022-09-02T08:41:57Z</time>
      </trkpt>
      <trkpt lat="47.91437" lon="6.81863">
        <ele>890.2</ele>
        <time>2022-09-02T08:41:58Z</time>
      </trkpt>
      <trkpt lat="47.91438" lon="6.81862">
        <ele>890.2</ele>
        <time>2022-09-02T08:41:59Z</time>
      </trkpt>
      <trkpt lat="47.91438" lon="6.81861">
        <ele>890.1</ele>
        <time>2022-09-02T08:42:00Z</time>
      </trkpt>
      <trkpt lat="47.91438" lon="6.8186">
        <ele>889.9</ele>
        <time>2022-09-02T08:42:01Z</time>
      </trkpt>
      <trkpt lat="47.91438" lon="6.81859">
        <ele>889.8</ele>
        <time>2022-09-02T08:42:02Z</time>
      </trkpt>
      <trkpt lat="47.91438" lon="6.81857">
        <ele>889.4</ele>
        <time>2022-09-02T08:42:03Z</time>
      </trkpt>
      <trkpt lat="47.91438" lon="6.81856">
        <ele>889.3</ele>
        <time>2022-09-02T08:42:04Z</time>
      </trkpt>
      <trkpt lat="47.91438" lon="6.81855">
        <ele>889.1</ele>
        <time>2022-09-02T08:42:06Z</time>
      </trkpt>
      <trkpt lat="47.91438" lon="6.81854">
        <ele>889</ele>
        <time>2022-09-02T08:42:07Z</time>
      </trkpt>
      <trkpt lat="47.91438" lon="6.81853">
        <ele>888.8</ele>
        <time>2022-09-02T08:42:08Z</time>
      </trkpt>
      <trkpt lat="47.91438" lon="6.81851">
        <ele>888.5</ele>
        <time>2022-09-02T08:42:37Z</time>
      </trkpt>
      <trkpt lat="47.91438" lon="6.81849">
        <ele>888.2</ele>
        <time>2022-09-02T08:42:38Z</time>
      </trkpt>
      <trkpt lat="47.91438" lon="6.81848">
        <ele>888.1</ele>
        <time>2022-09-02T08:42:39Z</time>
      </trkpt>
      <trkpt lat="47.91439" lon="6.81847">
        <ele>888.1</ele>
        <time>2022-09-02T08:42:40Z</time>
      </trkpt>
      <trkpt lat="47.91439" lon="6.81846">
        <ele>887.9</ele>
        <time>2022-09-02T08:42:41Z</time>
      </trkpt>
      <trkpt lat="47.9144" lon="6.81845">
        <ele>887.9</ele>
        <time>2022-09-02T08:42:42Z</time>
      </trkpt>
      <trkpt lat="47.9144" lon="6.81844">
        <ele>887.8</ele>
        <time>2022-09-02T08:42:43Z</time>
      </trkpt>
      <trkpt lat="47.91441" lon="6.81844">
        <ele>888</ele>
        <time>2022-09-02T08:42:44Z</time>
      </trkpt>
      <trkpt lat="47.91442" lon="6.81843">
        <ele>888</ele>
        <time>2022-09-02T08:42:45Z</time>
      </trkpt>
      <trkpt lat="47.91442" lon="6.81842">
        <ele>887.8</ele>
        <time>2022-09-02T08:42:46Z</time>
      </trkpt>
      <trkpt lat="47.91443" lon="6.81841">
        <ele>887.9</ele>
        <time>2022-09-02T08:42:47Z</time>
      </trkpt>
      <trkpt lat="47.91444" lon="6.8184">
        <ele>887.9</ele>
        <time>2022-09-02T08:42:48Z</time>
      </trkpt>
      <trkpt lat="47.91445" lon="6.81839">
        <ele>887.9</ele>
        <time>2022-09-02T08:42:49Z</time>
      </trkpt>
      <trkpt lat="47.91445" lon="6.81838">
        <ele>887.8</ele>
        <time>2022-09-02T08:42:50Z</time>
      </trkpt>
      <trkpt lat="47.91446" lon="6.81837">
        <ele>887.8</ele>
        <time>2022-09-02T08:42:51Z</time>
      </trkpt>
      <trkpt lat="47.91447" lon="6.81836">
        <ele>887.8</ele>
        <time>2022-09-02T08:42:52Z</time>
      </trkpt>
      <trkpt lat="47.91448" lon="6.81835">
        <ele>887.8</ele>
        <time>2022-09-02T08:42:54Z</time>
      </trkpt>
      <trkpt lat="47.91449" lon="6.81834">
        <ele>887.8</ele>
        <time>2022-09-02T08:42:55Z</time>
      </trkpt>
      <trkpt lat="47.91449" lon="6.81833">
        <ele>887.6</ele>
        <time>2022-09-02T08:42:56Z</time>
      </trkpt>
      <trkpt lat="47.9145" lon="6.81832">
        <ele>887.6</ele>
        <time>2022-09-02T08:42:57Z</time>
      </trkpt>
      <trkpt lat="47.9145" lon="6.81831">
        <ele>887.4</ele>
        <time>2022-09-02T08:42:58Z</time>
      </trkpt>
      <trkpt lat="47.91451" lon="6.8183">
        <ele>887.3</ele>
        <time>2022-09-02T08:42:59Z</time>
      </trkpt>
      <trkpt lat="47.91451" lon="6.81829">
        <ele>887.1</ele>
        <time>2022-09-02T08:43:00Z</time>
      </trkpt>
      <trkpt lat="47.91452" lon="6.81828">
        <ele>887.1</ele>
        <time>2022-09-02T08:43:01Z</time>
      </trkpt>
      <trkpt lat="47.91452" lon="6.81827">
        <ele>886.9</ele>
        <time>2022-09-02T08:43:02Z</time>
      </trkpt>
      <trkpt lat="47.91452" lon="6.81826">
        <ele>886.7</ele>
        <time>2022-09-02T08:43:03Z</time>
      </trkpt>
      <trkpt lat="47.91453" lon="6.81825">
        <ele>886.6</ele>
        <time>2022-09-02T08:43:04Z</time>
      </trkpt>
      <trkpt lat="47.91453" lon="6.81824">
        <ele>886.4</ele>
        <time>2022-09-02T08:43:05Z</time>
      </trkpt>
      <trkpt lat="47.91454" lon="6.81823">
        <ele>886.4</ele>
        <time>2022-09-02T08:43:06Z</time>
      </trkpt>
      <trkpt lat="47.91454" lon="6.81822">
        <ele>886.2</ele>
        <time>2022-09-02T08:43:07Z</time>
      </trkpt>
      <trkpt lat="47.91455" lon="6.81821">
        <ele>886.1</ele>
        <time>2022-09-02T08:43:08Z</time>
      </trkpt>
      <trkpt lat="47.91456" lon="6.8182">
        <ele>886.1</ele>
        <time>2022-09-02T08:43:09Z</time>
      </trkpt>
      <trkpt lat="47.91456" lon="6.81819">
        <ele>885.9</ele>
        <time>2022-09-02T08:43:10Z</time>
      </trkpt>
      <trkpt lat="47.91457" lon="6.81818">
        <ele>885.8</ele>
        <time>2022-09-02T08:43:11Z</time>
      </trkpt>
      <trkpt lat="47.91457" lon="6.81817">
        <ele>885.6</ele>
        <time>2022-09-02T08:43:12Z</time>
      </trkpt>
      <trkpt lat="47.91458" lon="6.81816">
        <ele>885.5</ele>
        <time>2022-09-02T08:43:13Z</time>
      </trkpt>
      <trkpt lat="47.91459" lon="6.81815">
        <ele>885.5</ele>
        <time>2022-09-02T08:43:14Z</time>
      </trkpt>
      <trkpt lat="47.91459" lon="6.81814">
        <ele>885.3</ele>
        <time>2022-09-02T08:43:15Z</time>
      </trkpt>
      <trkpt lat="47.9146" lon="6.81813">
        <ele>885.2</ele>
        <time>2022-09-02T08:43:17Z</time>
      </trkpt>
      <trkpt lat="47.91461" lon="6.81812">
        <ele>885.1</ele>
        <time>2022-09-02T08:43:19Z</time>
      </trkpt>
      <trkpt lat="47.91462" lon="6.81811">
        <ele>885</ele>
        <time>2022-09-02T08:43:21Z</time>
      </trkpt>
      <trkpt lat="47.91463" lon="6.8181">
        <ele>884.9</ele>
        <time>2022-09-02T08:43:34Z</time>
      </trkpt>
      <trkpt lat="47.91464" lon="6.81809">
        <ele>884.8</ele>
        <time>2022-09-02T08:43:35Z</time>
      </trkpt>
      <trkpt lat="47.91465" lon="6.81808">
        <ele>884.7</ele>
        <time>2022-09-02T08:43:37Z</time>
      </trkpt>
      <trkpt lat="47.91465" lon="6.81807">
        <ele>884.5</ele>
        <time>2022-09-02T08:43:38Z</time>
      </trkpt>
      <trkpt lat="47.91466" lon="6.81807">
        <ele>884.6</ele>
        <time>2022-09-02T08:43:39Z</time>
      </trkpt>
      <trkpt lat="47.91467" lon="6.81806">
        <ele>884.5</ele>
        <time>2022-09-02T08:43:40Z</time>
      </trkpt>
      <trkpt lat="47.91467" lon="6.81805">
        <ele>884.3</ele>
        <time>2022-09-02T08:43:41Z</time>
      </trkpt>
      <trkpt lat="47.91468" lon="6.81804">
        <ele>884.2</ele>
        <time>2022-09-02T08:43:42Z</time>
      </trkpt>
      <trkpt lat="47.91469" lon="6.81804">
        <ele>884.3</ele>
        <time>2022-09-02T08:43:43Z</time>
      </trkpt>
      <trkpt lat="47.9147" lon="6.81803">
        <ele>884.2</ele>
        <time>2022-09-02T08:43:44Z</time>
      </trkpt>
      <trkpt lat="47.9147" lon="6.81802">
        <ele>884</ele>
        <time>2022-09-02T08:43:45Z</time>
      </trkpt>
      <trkpt lat="47.91471" lon="6.81801">
        <ele>883.9</ele>
        <time>2022-09-02T08:43:46Z</time>
      </trkpt>
      <trkpt lat="47.91472" lon="6.81801">
        <ele>884</ele>
        <time>2022-09-02T08:43:47Z</time>
      </trkpt>
      <trkpt lat="47.91473" lon="6.818">
        <ele>883.8</ele>
        <time>2022-09-02T08:43:48Z</time>
      </trkpt>
      <trkpt lat="47.91473" lon="6.81799">
        <ele>883.6</ele>
        <time>2022-09-02T08:43:49Z</time>
      </trkpt>
      <trkpt lat="47.91474" lon="6.81798">
        <ele>883.4</ele>
        <time>2022-09-02T08:43:50Z</time>
      </trkpt>
      <trkpt lat="47.91475" lon="6.81798">
        <ele>883.4</ele>
        <time>2022-09-02T08:43:51Z</time>
      </trkpt>
      <trkpt lat="47.91476" lon="6.81797">
        <ele>883.2</ele>
        <time>2022-09-02T08:43:52Z</time>
      </trkpt>
      <trkpt lat="47.91477" lon="6.81796">
        <ele>883</ele>
        <time>2022-09-02T08:43:53Z</time>
      </trkpt>
      <trkpt lat="47.91478" lon="6.81795">
        <ele>882.8</ele>
        <time>2022-09-02T08:43:55Z</time>
      </trkpt>
      <trkpt lat="47.91479" lon="6.81794">
        <ele>882.6</ele>
        <time>2022-09-02T08:43:56Z</time>
      </trkpt>
      <trkpt lat="47.9148" lon="6.81794">
        <ele>882.7</ele>
        <time>2022-09-02T08:43:57Z</time>
      </trkpt>
      <trkpt lat="47.91481" lon="6.81793">
        <ele>882.5</ele>
        <time>2022-09-02T08:43:58Z</time>
      </trkpt>
      <trkpt lat="47.91482" lon="6.81792">
        <ele>882.3</ele>
        <time>2022-09-02T08:43:59Z</time>
      </trkpt>
      <trkpt lat="47.91483" lon="6.81791">
        <ele>882</ele>
        <time>2022-09-02T08:44:00Z</time>
      </trkpt>
      <trkpt lat="47.91484" lon="6.81791">
        <ele>882.1</ele>
        <time>2022-09-02T08:44:01Z</time>
      </trkpt>
      <trkpt lat="47.91485" lon="6.8179">
        <ele>881.8</ele>
        <time>2022-09-02T08:44:02Z</time>
      </trkpt>
      <trkpt lat="47.91486" lon="6.81789">
        <ele>881.6</ele>
        <time>2022-09-02T08:44:03Z</time>
      </trkpt>
      <trkpt lat="47.91487" lon="6.81789">
        <ele>881.6</ele>
        <time>2022-09-02T08:44:04Z</time>
      </trkpt>
      <trkpt lat="47.91487" lon="6.81788">
        <ele>881.4</ele>
        <time>2022-09-02T08:44:05Z</time>
      </trkpt>
      <trkpt lat="47.91488" lon="6.81788">
        <ele>881.4</ele>
        <time>2022-09-02T08:44:06Z</time>
      </trkpt>
      <trkpt lat="47.91489" lon="6.81787">
        <ele>881.2</ele>
        <time>2022-09-02T08:44:07Z</time>
      </trkpt>
      <trkpt lat="47.9149" lon="6.81787">
        <ele>881.2</ele>
        <time>2022-09-02T08:44:08Z</time>
      </trkpt>
      <trkpt lat="47.91491" lon="6.81786">
        <ele>881</ele>
        <time>2022-09-02T08:44:09Z</time>
      </trkpt>
      <trkpt lat="47.91492" lon="6.81786">
        <ele>881</ele>
        <time>2022-09-02T08:44:10Z</time>
      </trkpt>
      <trkpt lat="47.91493" lon="6.81785">
        <ele>880.8</ele>
        <time>2022-09-02T08:44:11Z</time>
      </trkpt>
      <trkpt lat="47.91494" lon="6.81785">
        <ele>880.8</ele>
        <time>2022-09-02T08:44:12Z</time>
      </trkpt>
      <trkpt lat="47.91495" lon="6.81785">
        <ele>880.8</ele>
        <time>2022-09-02T08:44:13Z</time>
      </trkpt>
      <trkpt lat="47.91495" lon="6.81784">
        <ele>880.5</ele>
        <time>2022-09-02T08:44:14Z</time>
      </trkpt>
      <trkpt lat="47.91496" lon="6.81784">
        <ele>880.5</ele>
        <time>2022-09-02T08:44:15Z</time>
      </trkpt>
      <trkpt lat="47.91497" lon="6.81783">
        <ele>880.3</ele>
        <time>2022-09-02T08:44:16Z</time>
      </trkpt>
      <trkpt lat="47.91498" lon="6.81783">
        <ele>880.3</ele>
        <time>2022-09-02T08:44:17Z</time>
      </trkpt>
      <trkpt lat="47.91499" lon="6.81782">
        <ele>880.1</ele>
        <time>2022-09-02T08:44:18Z</time>
      </trkpt>
      <trkpt lat="47.915" lon="6.81782">
        <ele>880.1</ele>
        <time>2022-09-02T08:44:19Z</time>
      </trkpt>
      <trkpt lat="47.91501" lon="6.81781">
        <ele>879.8</ele>
        <time>2022-09-02T08:44:20Z</time>
      </trkpt>
      <trkpt lat="47.91502" lon="6.81781">
        <ele>879.7</ele>
        <time>2022-09-02T08:44:21Z</time>
      </trkpt>
      <trkpt lat="47.91503" lon="6.8178">
        <ele>879.4</ele>
        <time>2022-09-02T08:44:22Z</time>
      </trkpt>
      <trkpt lat="47.91504" lon="6.81779">
        <ele>879.2</ele>
        <time>2022-09-02T08:44:24Z</time>
      </trkpt>
      <trkpt lat="47.91505" lon="6.81778">
        <ele>878.9</ele>
        <time>2022-09-02T08:44:25Z</time>
      </trkpt>
      <trkpt lat="47.91506" lon="6.81778">
        <ele>878.8</ele>
        <time>2022-09-02T08:44:26Z</time>
      </trkpt>
      <trkpt lat="47.91507" lon="6.81777">
        <ele>878.6</ele>
        <time>2022-09-02T08:44:27Z</time>
      </trkpt>
      <trkpt lat="47.91508" lon="6.81777">
        <ele>878.6</ele>
        <time>2022-09-02T08:44:28Z</time>
      </trkpt>
      <trkpt lat="47.91509" lon="6.81777">
        <ele>878.5</ele>
        <time>2022-09-02T08:44:29Z</time>
      </trkpt>
      <trkpt lat="47.91509" lon="6.81776">
        <ele>878.3</ele>
        <time>2022-09-02T08:44:30Z</time>
      </trkpt>
      <trkpt lat="47.9151" lon="6.81776">
        <ele>878.3</ele>
        <time>2022-09-02T08:44:31Z</time>
      </trkpt>
      <trkpt lat="47.91511" lon="6.81775">
        <ele>878.1</ele>
        <time>2022-09-02T08:44:32Z</time>
      </trkpt>
      <trkpt lat="47.91512" lon="6.81775">
        <ele>878</ele>
        <time>2022-09-02T08:44:33Z</time>
      </trkpt>
      <trkpt lat="47.91513" lon="6.81775">
        <ele>878</ele>
        <time>2022-09-02T08:44:34Z</time>
      </trkpt>
      <trkpt lat="47.91514" lon="6.81775">
        <ele>877.9</ele>
        <time>2022-09-02T08:44:35Z</time>
      </trkpt>
      <trkpt lat="47.91515" lon="6.81775">
        <ele>877.9</ele>
        <time>2022-09-02T08:44:36Z</time>
      </trkpt>
      <trkpt lat="47.91516" lon="6.81776">
        <ele>878.1</ele>
        <time>2022-09-02T08:44:37Z</time>
      </trkpt>
      <trkpt lat="47.91517" lon="6.81776">
        <ele>878</ele>
        <time>2022-09-02T08:44:38Z</time>
      </trkpt>
      <trkpt lat="47.91518" lon="6.81777">
        <ele>878.2</ele>
        <time>2022-09-02T08:44:39Z</time>
      </trkpt>
      <trkpt lat="47.91519" lon="6.81777">
        <ele>878.2</ele>
        <time>2022-09-02T08:44:40Z</time>
      </trkpt>
      <trkpt lat="47.9152" lon="6.81778">
        <ele>878.3</ele>
        <time>2022-09-02T08:44:41Z</time>
      </trkpt>
      <trkpt lat="47.91521" lon="6.81779">
        <ele>878.5</ele>
        <time>2022-09-02T08:44:42Z</time>
      </trkpt>
      <trkpt lat="47.91522" lon="6.81779">
        <ele>878.4</ele>
        <time>2022-09-02T08:44:43Z</time>
      </trkpt>
      <trkpt lat="47.91523" lon="6.8178">
        <ele>878.6</ele>
        <time>2022-09-02T08:44:44Z</time>
      </trkpt>
      <trkpt lat="47.91524" lon="6.8178">
        <ele>878.6</ele>
        <time>2022-09-02T08:44:45Z</time>
      </trkpt>
      <trkpt lat="47.91525" lon="6.81781">
        <ele>878.7</ele>
        <time>2022-09-02T08:44:46Z</time>
      </trkpt>
      <trkpt lat="47.91526" lon="6.81782">
        <ele>878.8</ele>
        <time>2022-09-02T08:44:47Z</time>
      </trkpt>
      <trkpt lat="47.91527" lon="6.81782">
        <ele>878.8</ele>
        <time>2022-09-02T08:44:48Z</time>
      </trkpt>
      <trkpt lat="47.91528" lon="6.81782">
        <ele>878.7</ele>
        <time>2022-09-02T08:44:49Z</time>
      </trkpt>
      <trkpt lat="47.91529" lon="6.81783">
        <ele>878.7</ele>
        <time>2022-09-02T08:44:50Z</time>
      </trkpt>
      <trkpt lat="47.9153" lon="6.81783">
        <ele>878.5</ele>
        <time>2022-09-02T08:44:51Z</time>
      </trkpt>
      <trkpt lat="47.91531" lon="6.81784">
        <ele>878.4</ele>
        <time>2022-09-02T08:44:52Z</time>
      </trkpt>
      <trkpt lat="47.91532" lon="6.81784">
        <ele>878.2</ele>
        <time>2022-09-02T08:44:53Z</time>
      </trkpt>
      <trkpt lat="47.91533" lon="6.81785">
        <ele>878.2</ele>
        <time>2022-09-02T08:44:54Z</time>
      </trkpt>
      <trkpt lat="47.91534" lon="6.81786">
        <ele>878.1</ele>
        <time>2022-09-02T08:44:56Z</time>
      </trkpt>
      <trkpt lat="47.91535" lon="6.81786">
        <ele>877.9</ele>
        <time>2022-09-02T08:44:57Z</time>
      </trkpt>
      <trkpt lat="47.91536" lon="6.81787">
        <ele>877.9</ele>
        <time>2022-09-02T08:44:58Z</time>
      </trkpt>
      <trkpt lat="47.91537" lon="6.81787">
        <ele>877.7</ele>
        <time>2022-09-02T08:44:59Z</time>
      </trkpt>
      <trkpt lat="47.91537" lon="6.81788">
        <ele>877.8</ele>
        <time>2022-09-02T08:45:00Z</time>
      </trkpt>
      <trkpt lat="47.91538" lon="6.81788">
        <ele>877.6</ele>
        <time>2022-09-02T08:45:01Z</time>
      </trkpt>
      <trkpt lat="47.91539" lon="6.81788">
        <ele>877.4</ele>
        <time>2022-09-02T08:45:02Z</time>
      </trkpt>
      <trkpt lat="47.9154" lon="6.81789">
        <ele>877.4</ele>
        <time>2022-09-02T08:45:03Z</time>
      </trkpt>
      <trkpt lat="47.91541" lon="6.81789">
        <ele>877.2</ele>
        <time>2022-09-02T08:45:04Z</time>
      </trkpt>
      <trkpt lat="47.91542" lon="6.81789">
        <ele>876.9</ele>
        <time>2022-09-02T08:45:05Z</time>
      </trkpt>
      <trkpt lat="47.91543" lon="6.8179">
        <ele>876.9</ele>
        <time>2022-09-02T08:45:06Z</time>
      </trkpt>
      <trkpt lat="47.91544" lon="6.8179">
        <ele>876.7</ele>
        <time>2022-09-02T08:45:08Z</time>
      </trkpt>
      <trkpt lat="47.91545" lon="6.81791">
        <ele>876.7</ele>
        <time>2022-09-02T08:45:09Z</time>
      </trkpt>
      <trkpt lat="47.91546" lon="6.81791">
        <ele>876.4</ele>
        <time>2022-09-02T08:45:10Z</time>
      </trkpt>
      <trkpt lat="47.91547" lon="6.81792">
        <ele>876.4</ele>
        <time>2022-09-02T08:45:11Z</time>
      </trkpt>
      <trkpt lat="47.91548" lon="6.81792">
        <ele>876.2</ele>
        <time>2022-09-02T08:45:12Z</time>
      </trkpt>
      <trkpt lat="47.91549" lon="6.81793">
        <ele>876.2</ele>
        <time>2022-09-02T08:45:13Z</time>
      </trkpt>
      <trkpt lat="47.9155" lon="6.81793">
        <ele>875.9</ele>
        <time>2022-09-02T08:45:14Z</time>
      </trkpt>
      <trkpt lat="47.91551" lon="6.81794">
        <ele>875.9</ele>
        <time>2022-09-02T08:45:15Z</time>
      </trkpt>
      <trkpt lat="47.91552" lon="6.81794">
        <ele>875.7</ele>
        <time>2022-09-02T08:45:16Z</time>
      </trkpt>
      <trkpt lat="47.91552" lon="6.81795">
        <ele>875.9</ele>
        <time>2022-09-02T08:45:17Z</time>
      </trkpt>
      <trkpt lat="47.91553" lon="6.81795">
        <ele>875.7</ele>
        <time>2022-09-02T08:45:18Z</time>
      </trkpt>
      <trkpt lat="47.91554" lon="6.81795">
        <ele>875.4</ele>
        <time>2022-09-02T08:45:19Z</time>
      </trkpt>
      <trkpt lat="47.91555" lon="6.81796">
        <ele>875.4</ele>
        <time>2022-09-02T08:45:20Z</time>
      </trkpt>
      <trkpt lat="47.91556" lon="6.81796">
        <ele>875.1</ele>
        <time>2022-09-02T08:45:21Z</time>
      </trkpt>
      <trkpt lat="47.91557" lon="6.81797">
        <ele>875</ele>
        <time>2022-09-02T08:45:22Z</time>
      </trkpt>
      <trkpt lat="47.91558" lon="6.81798">
        <ele>874.9</ele>
        <time>2022-09-02T08:45:23Z</time>
      </trkpt>
      <trkpt lat="47.91559" lon="6.81798">
        <ele>874.6</ele>
        <time>2022-09-02T08:45:24Z</time>
      </trkpt>
      <trkpt lat="47.9156" lon="6.81799">
        <ele>874.5</ele>
        <time>2022-09-02T08:45:25Z</time>
      </trkpt>
      <trkpt lat="47.91561" lon="6.818">
        <ele>874.4</ele>
        <time>2022-09-02T08:45:26Z</time>
      </trkpt>
      <trkpt lat="47.91562" lon="6.81801">
        <ele>874.3</ele>
        <time>2022-09-02T08:45:27Z</time>
      </trkpt>
      <trkpt lat="47.91563" lon="6.81802">
        <ele>874.2</ele>
        <time>2022-09-02T08:45:29Z</time>
      </trkpt>
      <trkpt lat="47.91564" lon="6.81803">
        <ele>874.1</ele>
        <time>2022-09-02T08:45:30Z</time>
      </trkpt>
      <trkpt lat="47.91565" lon="6.81804">
        <ele>874</ele>
        <time>2022-09-02T08:45:31Z</time>
      </trkpt>
      <trkpt lat="47.91566" lon="6.81804">
        <ele>873.7</ele>
        <time>2022-09-02T08:45:32Z</time>
      </trkpt>
      <trkpt lat="47.91567" lon="6.81805">
        <ele>873.6</ele>
        <time>2022-09-02T08:45:33Z</time>
      </trkpt>
      <trkpt lat="47.91568" lon="6.81805">
        <ele>873.3</ele>
        <time>2022-09-02T08:45:34Z</time>
      </trkpt>
      <trkpt lat="47.91569" lon="6.81806">
        <ele>873.2</ele>
        <time>2022-09-02T08:45:35Z</time>
      </trkpt>
      <trkpt lat="47.9157" lon="6.81807">
        <ele>873.1</ele>
        <time>2022-09-02T08:45:37Z</time>
      </trkpt>
      <trkpt lat="47.91571" lon="6.81808">
        <ele>873</ele>
        <time>2022-09-02T08:45:38Z</time>
      </trkpt>
      <trkpt lat="47.91572" lon="6.81808">
        <ele>872.7</ele>
        <time>2022-09-02T08:45:39Z</time>
      </trkpt>
      <trkpt lat="47.91573" lon="6.81809">
        <ele>872.6</ele>
        <time>2022-09-02T08:45:40Z</time>
      </trkpt>
      <trkpt lat="47.91574" lon="6.8181">
        <ele>872.5</ele>
        <time>2022-09-02T08:45:41Z</time>
      </trkpt>
      <trkpt lat="47.91575" lon="6.81811">
        <ele>872.4</ele>
        <time>2022-09-02T08:45:42Z</time>
      </trkpt>
      <trkpt lat="47.91576" lon="6.81811">
        <ele>872.1</ele>
        <time>2022-09-02T08:45:43Z</time>
      </trkpt>
      <trkpt lat="47.91577" lon="6.81812">
        <ele>872</ele>
        <time>2022-09-02T08:45:44Z</time>
      </trkpt>
      <trkpt lat="47.91577" lon="6.81813">
        <ele>872.2</ele>
        <time>2022-09-02T08:45:45Z</time>
      </trkpt>
      <trkpt lat="47.91578" lon="6.81814">
        <ele>872.1</ele>
        <time>2022-09-02T08:45:46Z</time>
      </trkpt>
      <trkpt lat="47.91579" lon="6.81815">
        <ele>871.9</ele>
        <time>2022-09-02T08:45:47Z</time>
      </trkpt>
      <trkpt lat="47.9158" lon="6.81816">
        <ele>871.8</ele>
        <time>2022-09-02T08:45:48Z</time>
      </trkpt>
      <trkpt lat="47.9158" lon="6.81817">
        <ele>872</ele>
        <time>2022-09-02T08:45:49Z</time>
      </trkpt>
      <trkpt lat="47.91581" lon="6.81818">
        <ele>871.9</ele>
        <time>2022-09-02T08:45:50Z</time>
      </trkpt>
      <trkpt lat="47.91582" lon="6.81819">
        <ele>871.8</ele>
        <time>2022-09-02T08:45:51Z</time>
      </trkpt>
      <trkpt lat="47.91583" lon="6.8182">
        <ele>871.7</ele>
        <time>2022-09-02T08:45:52Z</time>
      </trkpt>
      <trkpt lat="47.91584" lon="6.81821">
        <ele>871.6</ele>
        <time>2022-09-02T08:45:53Z</time>
      </trkpt>
      <trkpt lat="47.91584" lon="6.81822">
        <ele>871.8</ele>
        <time>2022-09-02T08:45:54Z</time>
      </trkpt>
      <trkpt lat="47.91585" lon="6.81823">
        <ele>871.7</ele>
        <time>2022-09-02T08:45:55Z</time>
      </trkpt>
      <trkpt lat="47.91586" lon="6.81824">
        <ele>871.6</ele>
        <time>2022-09-02T08:45:56Z</time>
      </trkpt>
      <trkpt lat="47.91586" lon="6.81825">
        <ele>871.8</ele>
        <time>2022-09-02T08:45:57Z</time>
      </trkpt>
      <trkpt lat="47.91587" lon="6.81826">
        <ele>871.7</ele>
        <time>2022-09-02T08:45:58Z</time>
      </trkpt>
      <trkpt lat="47.91588" lon="6.81827">
        <ele>871.6</ele>
        <time>2022-09-02T08:45:59Z</time>
      </trkpt>
      <trkpt lat="47.91589" lon="6.81828">
        <ele>871.6</ele>
        <time>2022-09-02T08:46:00Z</time>
      </trkpt>
      <trkpt lat="47.9159" lon="6.81829">
        <ele>871.5</ele>
        <time>2022-09-02T08:46:01Z</time>
      </trkpt>
      <trkpt lat="47.91591" lon="6.8183">
        <ele>871.4</ele>
        <time>2022-09-02T08:46:02Z</time>
      </trkpt>
      <trkpt lat="47.91592" lon="6.81831">
        <ele>871.4</ele>
        <time>2022-09-02T08:46:03Z</time>
      </trkpt>
      <trkpt lat="47.91593" lon="6.81831">
        <ele>871.1</ele>
        <time>2022-09-02T08:46:04Z</time>
      </trkpt>
      <trkpt lat="47.91594" lon="6.81832">
        <ele>871.1</ele>
        <time>2022-09-02T08:46:05Z</time>
      </trkpt>
      <trkpt lat="47.91595" lon="6.81833">
        <ele>871</ele>
        <time>2022-09-02T08:46:06Z</time>
      </trkpt>
      <trkpt lat="47.91595" lon="6.81834">
        <ele>871.2</ele>
        <time>2022-09-02T08:46:07Z</time>
      </trkpt>
      <trkpt lat="47.91596" lon="6.81834">
        <ele>871</ele>
        <time>2022-09-02T08:46:08Z</time>
      </trkpt>
      <trkpt lat="47.91597" lon="6.81835">
        <ele>870.9</ele>
        <time>2022-09-02T08:46:09Z</time>
      </trkpt>
      <trkpt lat="47.91598" lon="6.81835">
        <ele>870.7</ele>
        <time>2022-09-02T08:46:10Z</time>
      </trkpt>
      <trkpt lat="47.91599" lon="6.81836">
        <ele>870.6</ele>
        <time>2022-09-02T08:46:11Z</time>
      </trkpt>
      <trkpt lat="47.916" lon="6.81837">
        <ele>870.6</ele>
        <time>2022-09-02T08:46:12Z</time>
      </trkpt>
      <trkpt lat="47.91601" lon="6.81837">
        <ele>870.3</ele>
        <time>2022-09-02T08:46:13Z</time>
      </trkpt>
      <trkpt lat="47.91601" lon="6.81838">
        <ele>870.5</ele>
        <time>2022-09-02T08:46:14Z</time>
      </trkpt>
      <trkpt lat="47.91602" lon="6.81838">
        <ele>870.2</ele>
        <time>2022-09-02T08:46:15Z</time>
      </trkpt>
      <trkpt lat="47.91603" lon="6.81839">
        <ele>870.2</ele>
        <time>2022-09-02T08:46:16Z</time>
      </trkpt>
      <trkpt lat="47.91604" lon="6.8184">
        <ele>870.1</ele>
        <time>2022-09-02T08:46:17Z</time>
      </trkpt>
      <trkpt lat="47.91605" lon="6.81841">
        <ele>870</ele>
        <time>2022-09-02T08:46:18Z</time>
      </trkpt>
      <trkpt lat="47.91606" lon="6.81841">
        <ele>869.8</ele>
        <time>2022-09-02T08:46:19Z</time>
      </trkpt>
      <trkpt lat="47.91607" lon="6.81842">
        <ele>869.7</ele>
        <time>2022-09-02T08:46:20Z</time>
      </trkpt>
      <trkpt lat="47.91607" lon="6.81843">
        <ele>869.9</ele>
        <time>2022-09-02T08:46:21Z</time>
      </trkpt>
      <trkpt lat="47.91608" lon="6.81844">
        <ele>869.8</ele>
        <time>2022-09-02T08:46:22Z</time>
      </trkpt>
      <trkpt lat="47.91609" lon="6.81844">
        <ele>869.5</ele>
        <time>2022-09-02T08:46:23Z</time>
      </trkpt>
      <trkpt lat="47.9161" lon="6.81845">
        <ele>869.4</ele>
        <time>2022-09-02T08:46:24Z</time>
      </trkpt>
      <trkpt lat="47.91611" lon="6.81846">
        <ele>869.3</ele>
        <time>2022-09-02T08:46:25Z</time>
      </trkpt>
      <trkpt lat="47.91612" lon="6.81847">
        <ele>869.2</ele>
        <time>2022-09-02T08:46:26Z</time>
      </trkpt>
      <trkpt lat="47.91613" lon="6.81847">
        <ele>868.9</ele>
        <time>2022-09-02T08:46:27Z</time>
      </trkpt>
      <trkpt lat="47.91614" lon="6.81848">
        <ele>868.8</ele>
        <time>2022-09-02T08:46:28Z</time>
      </trkpt>
      <trkpt lat="47.91615" lon="6.81849">
        <ele>868.7</ele>
        <time>2022-09-02T08:46:29Z</time>
      </trkpt>
      <trkpt lat="47.91616" lon="6.81849">
        <ele>868.4</ele>
        <time>2022-09-02T08:46:30Z</time>
      </trkpt>
      <trkpt lat="47.91617" lon="6.8185">
        <ele>868.3</ele>
        <time>2022-09-02T08:46:31Z</time>
      </trkpt>
      <trkpt lat="47.91618" lon="6.8185">
        <ele>868.1</ele>
        <time>2022-09-02T08:46:32Z</time>
      </trkpt>
      <trkpt lat="47.91619" lon="6.8185">
        <ele>867.8</ele>
        <time>2022-09-02T08:46:34Z</time>
      </trkpt>
      <trkpt lat="47.9162" lon="6.8185">
        <ele>867.5</ele>
        <time>2022-09-02T08:46:35Z</time>
      </trkpt>
      <trkpt lat="47.91621" lon="6.8185">
        <ele>867.2</ele>
        <time>2022-09-02T08:46:36Z</time>
      </trkpt>
      <trkpt lat="47.91622" lon="6.8185">
        <ele>866.9</ele>
        <time>2022-09-02T08:47:01Z</time>
      </trkpt>
      <trkpt lat="47.91623" lon="6.81851">
        <ele>866.9</ele>
        <time>2022-09-02T08:47:02Z</time>
      </trkpt>
      <trkpt lat="47.91624" lon="6.81851">
        <ele>866.6</ele>
        <time>2022-09-02T08:47:03Z</time>
      </trkpt>
      <trkpt lat="47.91625" lon="6.81852">
        <ele>866.5</ele>
        <time>2022-09-02T08:47:05Z</time>
      </trkpt>
      <trkpt lat="47.91625" lon="6.81853">
        <ele>866.7</ele>
        <time>2022-09-02T08:47:06Z</time>
      </trkpt>
      <trkpt lat="47.91626" lon="6.81853">
        <ele>866.5</ele>
        <time>2022-09-02T08:47:07Z</time>
      </trkpt>
      <trkpt lat="47.91626" lon="6.81854">
        <ele>866.7</ele>
        <time>2022-09-02T08:47:08Z</time>
      </trkpt>
      <trkpt lat="47.91627" lon="6.81855">
        <ele>866.6</ele>
        <time>2022-09-02T08:47:09Z</time>
      </trkpt>
      <trkpt lat="47.91628" lon="6.81856">
        <ele>866.6</ele>
        <time>2022-09-02T08:47:10Z</time>
      </trkpt>
      <trkpt lat="47.91629" lon="6.81857">
        <ele>866.6</ele>
        <time>2022-09-02T08:47:11Z</time>
      </trkpt>
      <trkpt lat="47.91629" lon="6.81858">
        <ele>866.8</ele>
        <time>2022-09-02T08:47:12Z</time>
      </trkpt>
      <trkpt lat="47.9163" lon="6.81859">
        <ele>866.8</ele>
        <time>2022-09-02T08:47:13Z</time>
      </trkpt>
      <trkpt lat="47.91631" lon="6.8186">
        <ele>866.7</ele>
        <time>2022-09-02T08:47:14Z</time>
      </trkpt>
      <trkpt lat="47.91631" lon="6.81861">
        <ele>867</ele>
        <time>2022-09-02T08:47:15Z</time>
      </trkpt>
      <trkpt lat="47.91632" lon="6.81862">
        <ele>866.9</ele>
        <time>2022-09-02T08:47:16Z</time>
      </trkpt>
      <trkpt lat="47.91633" lon="6.81863">
        <ele>866.8</ele>
        <time>2022-09-02T08:47:17Z</time>
      </trkpt>
      <trkpt lat="47.91634" lon="6.81864">
        <ele>866.8</ele>
        <time>2022-09-02T08:47:18Z</time>
      </trkpt>
      <trkpt lat="47.91635" lon="6.81865">
        <ele>866.7</ele>
        <time>2022-09-02T08:47:19Z</time>
      </trkpt>
      <trkpt lat="47.91635" lon="6.81866">
        <ele>866.9</ele>
        <time>2022-09-02T08:47:20Z</time>
      </trkpt>
      <trkpt lat="47.91636" lon="6.81866">
        <ele>866.6</ele>
        <time>2022-09-02T08:47:21Z</time>
      </trkpt>
      <trkpt lat="47.91637" lon="6.81867">
        <ele>866.6</ele>
        <time>2022-09-02T08:47:22Z</time>
      </trkpt>
      <trkpt lat="47.91638" lon="6.81868">
        <ele>866.5</ele>
        <time>2022-09-02T08:47:23Z</time>
      </trkpt>
      <trkpt lat="47.91639" lon="6.81868">
        <ele>866.2</ele>
        <time>2022-09-02T08:47:24Z</time>
      </trkpt>
      <trkpt lat="47.91639" lon="6.81869">
        <ele>866.4</ele>
        <time>2022-09-02T08:47:25Z</time>
      </trkpt>
      <trkpt lat="47.9164" lon="6.81869">
        <ele>866</ele>
        <time>2022-09-02T08:47:26Z</time>
      </trkpt>
      <trkpt lat="47.91641" lon="6.8187">
        <ele>865.9</ele>
        <time>2022-09-02T08:47:27Z</time>
      </trkpt>
      <trkpt lat="47.91642" lon="6.8187">
        <ele>865.5</ele>
        <time>2022-09-02T08:47:28Z</time>
      </trkpt>
      <trkpt lat="47.91643" lon="6.81871">
        <ele>865.4</ele>
        <time>2022-09-02T08:47:29Z</time>
      </trkpt>
      <trkpt lat="47.91644" lon="6.81871">
        <ele>865</ele>
        <time>2022-09-02T08:47:30Z</time>
      </trkpt>
      <trkpt lat="47.91645" lon="6.81872">
        <ele>864.8</ele>
        <time>2022-09-02T08:47:32Z</time>
      </trkpt>
      <trkpt lat="47.91646" lon="6.81873">
        <ele>864.7</ele>
        <time>2022-09-02T08:47:33Z</time>
      </trkpt>
      <trkpt lat="47.91647" lon="6.81873">
        <ele>864.3</ele>
        <time>2022-09-02T08:47:34Z</time>
      </trkpt>
      <trkpt lat="47.91648" lon="6.81874">
        <ele>864.2</ele>
        <time>2022-09-02T08:47:35Z</time>
      </trkpt>
      <trkpt lat="47.91649" lon="6.81875">
        <ele>864</ele>
        <time>2022-09-02T08:47:37Z</time>
      </trkpt>
      <trkpt lat="47.9165" lon="6.81876">
        <ele>863.9</ele>
        <time>2022-09-02T08:47:38Z</time>
      </trkpt>
      <trkpt lat="47.91651" lon="6.81877">
        <ele>863.7</ele>
        <time>2022-09-02T08:47:39Z</time>
      </trkpt>
      <trkpt lat="47.91652" lon="6.81877">
        <ele>863.4</ele>
        <time>2022-09-02T08:47:40Z</time>
      </trkpt>
      <trkpt lat="47.91652" lon="6.81878">
        <ele>863.6</ele>
        <time>2022-09-02T08:47:41Z</time>
      </trkpt>
      <trkpt lat="47.91653" lon="6.81879">
        <ele>863.5</ele>
        <time>2022-09-02T08:47:42Z</time>
      </trkpt>
      <trkpt lat="47.91654" lon="6.8188">
        <ele>863.3</ele>
        <time>2022-09-02T08:47:43Z</time>
      </trkpt>
      <trkpt lat="47.91655" lon="6.81881">
        <ele>863.2</ele>
        <time>2022-09-02T08:47:44Z</time>
      </trkpt>
      <trkpt lat="47.91655" lon="6.81882">
        <ele>863.4</ele>
        <time>2022-09-02T08:47:45Z</time>
      </trkpt>
      <trkpt lat="47.91656" lon="6.81882">
        <ele>863.1</ele>
        <time>2022-09-02T08:47:46Z</time>
      </trkpt>
      <trkpt lat="47.91657" lon="6.81883">
        <ele>862.9</ele>
        <time>2022-09-02T08:47:47Z</time>
      </trkpt>
      <trkpt lat="47.91658" lon="6.81884">
        <ele>862.8</ele>
        <time>2022-09-02T08:47:48Z</time>
      </trkpt>
      <trkpt lat="47.91658" lon="6.81885">
        <ele>863</ele>
        <time>2022-09-02T08:47:49Z</time>
      </trkpt>
      <trkpt lat="47.91659" lon="6.81886">
        <ele>862.9</ele>
        <time>2022-09-02T08:47:50Z</time>
      </trkpt>
      <trkpt lat="47.9166" lon="6.81887">
        <ele>862.8</ele>
        <time>2022-09-02T08:47:51Z</time>
      </trkpt>
      <trkpt lat="47.91661" lon="6.81888">
        <ele>862.7</ele>
        <time>2022-09-02T08:47:52Z</time>
      </trkpt>
      <trkpt lat="47.91662" lon="6.81889">
        <ele>862.5</ele>
        <time>2022-09-02T08:47:53Z</time>
      </trkpt>
      <trkpt lat="47.91663" lon="6.8189">
        <ele>862.4</ele>
        <time>2022-09-02T08:47:54Z</time>
      </trkpt>
      <trkpt lat="47.91664" lon="6.81891">
        <ele>862.2</ele>
        <time>2022-09-02T08:47:56Z</time>
      </trkpt>
      <trkpt lat="47.91665" lon="6.81892">
        <ele>862</ele>
        <time>2022-09-02T08:47:57Z</time>
      </trkpt>
      <trkpt lat="47.91666" lon="6.81893">
        <ele>861.8</ele>
        <time>2022-09-02T08:47:58Z</time>
      </trkpt>
      <trkpt lat="47.91667" lon="6.81894">
        <ele>861.6</ele>
        <time>2022-09-02T08:47:59Z</time>
      </trkpt>
      <trkpt lat="47.91668" lon="6.81895">
        <ele>861.4</ele>
        <time>2022-09-02T08:48:00Z</time>
      </trkpt>
      <trkpt lat="47.91668" lon="6.81896">
        <ele>861.5</ele>
        <time>2022-09-02T08:48:01Z</time>
      </trkpt>
      <trkpt lat="47.91669" lon="6.81897">
        <ele>861.3</ele>
        <time>2022-09-02T08:48:02Z</time>
      </trkpt>
      <trkpt lat="47.9167" lon="6.81898">
        <ele>861.1</ele>
        <time>2022-09-02T08:48:03Z</time>
      </trkpt>
      <trkpt lat="47.9167" lon="6.81899">
        <ele>861.2</ele>
        <time>2022-09-02T08:48:04Z</time>
      </trkpt>
      <trkpt lat="47.91671" lon="6.81901">
        <ele>861.1</ele>
        <time>2022-09-02T08:48:05Z</time>
      </trkpt>
      <trkpt lat="47.91672" lon="6.81901">
        <ele>860.7</ele>
        <time>2022-09-02T08:48:06Z</time>
      </trkpt>
      <trkpt lat="47.91672" lon="6.81902">
        <ele>860.9</ele>
        <time>2022-09-02T08:48:07Z</time>
      </trkpt>
      <trkpt lat="47.91673" lon="6.81903">
        <ele>860.6</ele>
        <time>2022-09-02T08:48:08Z</time>
      </trkpt>
      <trkpt lat="47.91674" lon="6.81904">
        <ele>860.4</ele>
        <time>2022-09-02T08:48:09Z</time>
      </trkpt>
      <trkpt lat="47.91675" lon="6.81905">
        <ele>860.1</ele>
        <time>2022-09-02T08:48:10Z</time>
      </trkpt>
      <trkpt lat="47.91675" lon="6.81906">
        <ele>860.3</ele>
        <time>2022-09-02T08:48:11Z</time>
      </trkpt>
      <trkpt lat="47.91676" lon="6.81907">
        <ele>860</ele>
        <time>2022-09-02T08:48:12Z</time>
      </trkpt>
      <trkpt lat="47.91677" lon="6.81908">
        <ele>859.8</ele>
        <time>2022-09-02T08:48:13Z</time>
      </trkpt>
      <trkpt lat="47.91678" lon="6.81909">
        <ele>859.5</ele>
        <time>2022-09-02T08:48:14Z</time>
      </trkpt>
      <trkpt lat="47.91678" lon="6.8191">
        <ele>859.6</ele>
        <time>2022-09-02T08:48:15Z</time>
      </trkpt>
      <trkpt lat="47.91679" lon="6.81911">
        <ele>859.4</ele>
        <time>2022-09-02T08:48:16Z</time>
      </trkpt>
      <trkpt lat="47.9168" lon="6.81912">
        <ele>859.1</ele>
        <time>2022-09-02T08:48:17Z</time>
      </trkpt>
      <trkpt lat="47.9168" lon="6.81914">
        <ele>859.4</ele>
        <time>2022-09-02T08:48:18Z</time>
      </trkpt>
      <trkpt lat="47.91681" lon="6.81915">
        <ele>859.1</ele>
        <time>2022-09-02T08:48:19Z</time>
      </trkpt>
      <trkpt lat="47.91681" lon="6.81916">
        <ele>859.2</ele>
        <time>2022-09-02T08:48:20Z</time>
      </trkpt>
      <trkpt lat="47.91682" lon="6.81918">
        <ele>859.1</ele>
        <time>2022-09-02T08:48:21Z</time>
      </trkpt>
      <trkpt lat="47.91682" lon="6.81919">
        <ele>859.3</ele>
        <time>2022-09-02T08:48:22Z</time>
      </trkpt>
      <trkpt lat="47.91683" lon="6.81921">
        <ele>859.2</ele>
        <time>2022-09-02T08:48:23Z</time>
      </trkpt>
      <trkpt lat="47.91683" lon="6.81922">
        <ele>859.3</ele>
        <time>2022-09-02T08:48:24Z</time>
      </trkpt>
      <trkpt lat="47.91684" lon="6.81923">
        <ele>859</ele>
        <time>2022-09-02T08:48:25Z</time>
      </trkpt>
      <trkpt lat="47.91685" lon="6.81925">
        <ele>858.9</ele>
        <time>2022-09-02T08:48:26Z</time>
      </trkpt>
      <trkpt lat="47.91685" lon="6.81926">
        <ele>859.1</ele>
        <time>2022-09-02T08:48:27Z</time>
      </trkpt>
      <trkpt lat="47.91686" lon="6.81928">
        <ele>859</ele>
        <time>2022-09-02T08:48:28Z</time>
      </trkpt>
      <trkpt lat="47.91687" lon="6.81929">
        <ele>858.7</ele>
        <time>2022-09-02T08:48:29Z</time>
      </trkpt>
      <trkpt lat="47.91688" lon="6.8193">
        <ele>858.5</ele>
        <time>2022-09-02T08:48:30Z</time>
      </trkpt>
      <trkpt lat="47.91689" lon="6.81932">
        <ele>858.4</ele>
        <time>2022-09-02T08:48:31Z</time>
      </trkpt>
      <trkpt lat="47.9169" lon="6.81933">
        <ele>858.1</ele>
        <time>2022-09-02T08:48:32Z</time>
      </trkpt>
      <trkpt lat="47.91691" lon="6.81934">
        <ele>857.9</ele>
        <time>2022-09-02T08:48:33Z</time>
      </trkpt>
      <trkpt lat="47.91692" lon="6.81935">
        <ele>857.6</ele>
        <time>2022-09-02T08:48:34Z</time>
      </trkpt>
      <trkpt lat="47.91692" lon="6.81937">
        <ele>857.9</ele>
        <time>2022-09-02T08:48:35Z</time>
      </trkpt>
      <trkpt lat="47.91693" lon="6.81938">
        <ele>857.6</ele>
        <time>2022-09-02T08:48:36Z</time>
      </trkpt>
      <trkpt lat="47.91694" lon="6.81939">
        <ele>857.4</ele>
        <time>2022-09-02T08:48:37Z</time>
      </trkpt>
      <trkpt lat="47.91694" lon="6.81941">
        <ele>857.7</ele>
        <time>2022-09-02T08:48:38Z</time>
      </trkpt>
      <trkpt lat="47.91695" lon="6.81942">
        <ele>857.4</ele>
        <time>2022-09-02T08:48:39Z</time>
      </trkpt>
      <trkpt lat="47.91696" lon="6.81943">
        <ele>857.2</ele>
        <time>2022-09-02T08:48:40Z</time>
      </trkpt>
      <trkpt lat="47.91696" lon="6.81944">
        <ele>857.3</ele>
        <time>2022-09-02T08:48:41Z</time>
      </trkpt>
      <trkpt lat="47.91697" lon="6.81946">
        <ele>857.2</ele>
        <time>2022-09-02T08:48:42Z</time>
      </trkpt>
      <trkpt lat="47.91698" lon="6.81947">
        <ele>857</ele>
        <time>2022-09-02T08:48:43Z</time>
      </trkpt>
      <trkpt lat="47.91698" lon="6.81948">
        <ele>857.1</ele>
        <time>2022-09-02T08:48:44Z</time>
      </trkpt>
      <trkpt lat="47.91699" lon="6.81949">
        <ele>856.9</ele>
        <time>2022-09-02T08:48:45Z</time>
      </trkpt>
      <trkpt lat="47.917" lon="6.81951">
        <ele>856.7</ele>
        <time>2022-09-02T08:48:46Z</time>
      </trkpt>
      <trkpt lat="47.917" lon="6.81952">
        <ele>856.9</ele>
        <time>2022-09-02T08:48:47Z</time>
      </trkpt>
      <trkpt lat="47.91701" lon="6.81953">
        <ele>856.6</ele>
        <time>2022-09-02T08:48:48Z</time>
      </trkpt>
      <trkpt lat="47.91702" lon="6.81954">
        <ele>856.4</ele>
        <time>2022-09-02T08:48:49Z</time>
      </trkpt>
      <trkpt lat="47.91703" lon="6.81955">
        <ele>856.1</ele>
        <time>2022-09-02T08:48:50Z</time>
      </trkpt>
      <trkpt lat="47.91703" lon="6.81956">
        <ele>856.3</ele>
        <time>2022-09-02T08:48:51Z</time>
      </trkpt>
      <trkpt lat="47.91704" lon="6.81957">
        <ele>856</ele>
        <time>2022-09-02T08:48:52Z</time>
      </trkpt>
      <trkpt lat="47.91705" lon="6.81958">
        <ele>855.8</ele>
        <time>2022-09-02T08:48:53Z</time>
      </trkpt>
      <trkpt lat="47.91706" lon="6.8196">
        <ele>855.7</ele>
        <time>2022-09-02T08:48:54Z</time>
      </trkpt>
      <trkpt lat="47.91707" lon="6.81961">
        <ele>855.4</ele>
        <time>2022-09-02T08:48:55Z</time>
      </trkpt>
      <trkpt lat="47.91707" lon="6.81962">
        <ele>855.6</ele>
        <time>2022-09-02T08:48:56Z</time>
      </trkpt>
      <trkpt lat="47.91708" lon="6.81963">
        <ele>855.3</ele>
        <time>2022-09-02T08:48:57Z</time>
      </trkpt>
      <trkpt lat="47.91709" lon="6.81965">
        <ele>855.2</ele>
        <time>2022-09-02T08:48:58Z</time>
      </trkpt>
      <trkpt lat="47.91709" lon="6.81966">
        <ele>855.3</ele>
        <time>2022-09-02T08:48:59Z</time>
      </trkpt>
      <trkpt lat="47.9171" lon="6.81967">
        <ele>855.1</ele>
        <time>2022-09-02T08:49:00Z</time>
      </trkpt>
      <trkpt lat="47.91711" lon="6.81968">
        <ele>854.8</ele>
        <time>2022-09-02T08:49:01Z</time>
      </trkpt>
      <trkpt lat="47.91711" lon="6.81969">
        <ele>855</ele>
        <time>2022-09-02T08:49:02Z</time>
      </trkpt>
      <trkpt lat="47.91712" lon="6.8197">
        <ele>854.7</ele>
        <time>2022-09-02T08:49:03Z</time>
      </trkpt>
      <trkpt lat="47.91713" lon="6.81972">
        <ele>854.6</ele>
        <time>2022-09-02T08:49:04Z</time>
      </trkpt>
      <trkpt lat="47.91713" lon="6.81973">
        <ele>854.8</ele>
        <time>2022-09-02T08:49:05Z</time>
      </trkpt>
      <trkpt lat="47.91714" lon="6.81974">
        <ele>854.5</ele>
        <time>2022-09-02T08:49:06Z</time>
      </trkpt>
      <trkpt lat="47.91715" lon="6.81975">
        <ele>854.3</ele>
        <time>2022-09-02T08:49:07Z</time>
      </trkpt>
      <trkpt lat="47.91715" lon="6.81976">
        <ele>854.4</ele>
        <time>2022-09-02T08:49:08Z</time>
      </trkpt>
      <trkpt lat="47.91716" lon="6.81977">
        <ele>854.2</ele>
        <time>2022-09-02T08:49:09Z</time>
      </trkpt>
      <trkpt lat="47.91716" lon="6.81978">
        <ele>854.3</ele>
        <time>2022-09-02T08:49:10Z</time>
      </trkpt>
      <trkpt lat="47.91717" lon="6.81979">
        <ele>854</ele>
        <time>2022-09-02T08:49:11Z</time>
      </trkpt>
      <trkpt lat="47.91717" lon="6.8198">
        <ele>854.2</ele>
        <time>2022-09-02T08:49:12Z</time>
      </trkpt>
      <trkpt lat="47.91718" lon="6.81981">
        <ele>853.9</ele>
        <time>2022-09-02T08:49:13Z</time>
      </trkpt>
      <trkpt lat="47.91719" lon="6.81982">
        <ele>853.7</ele>
        <time>2022-09-02T08:49:14Z</time>
      </trkpt>
      <trkpt lat="47.91719" lon="6.81983">
        <ele>853.8</ele>
        <time>2022-09-02T08:49:15Z</time>
      </trkpt>
      <trkpt lat="47.9172" lon="6.81984">
        <ele>853.6</ele>
        <time>2022-09-02T08:49:16Z</time>
      </trkpt>
      <trkpt lat="47.91721" lon="6.81985">
        <ele>853.3</ele>
        <time>2022-09-02T08:49:17Z</time>
      </trkpt>
      <trkpt lat="47.91722" lon="6.81986">
        <ele>853.1</ele>
        <time>2022-09-02T08:49:18Z</time>
      </trkpt>
      <trkpt lat="47.91723" lon="6.81988">
        <ele>853</ele>
        <time>2022-09-02T08:49:19Z</time>
      </trkpt>
      <trkpt lat="47.91723" lon="6.81989">
        <ele>853.1</ele>
        <time>2022-09-02T08:49:20Z</time>
      </trkpt>
      <trkpt lat="47.91724" lon="6.8199">
        <ele>852.9</ele>
        <time>2022-09-02T08:49:21Z</time>
      </trkpt>
      <trkpt lat="47.91725" lon="6.81991">
        <ele>852.6</ele>
        <time>2022-09-02T08:49:22Z</time>
      </trkpt>
      <trkpt lat="47.91726" lon="6.81992">
        <ele>852.4</ele>
        <time>2022-09-02T08:49:23Z</time>
      </trkpt>
      <trkpt lat="47.91726" lon="6.81993">
        <ele>852.5</ele>
        <time>2022-09-02T08:49:24Z</time>
      </trkpt>
      <trkpt lat="47.91727" lon="6.81994">
        <ele>852.2</ele>
        <time>2022-09-02T08:49:25Z</time>
      </trkpt>
      <trkpt lat="47.91728" lon="6.81995">
        <ele>852</ele>
        <time>2022-09-02T08:49:26Z</time>
      </trkpt>
      <trkpt lat="47.91728" lon="6.81996">
        <ele>852.1</ele>
        <time>2022-09-02T08:49:27Z</time>
      </trkpt>
      <trkpt lat="47.91729" lon="6.81997">
        <ele>851.9</ele>
        <time>2022-09-02T08:49:28Z</time>
      </trkpt>
      <trkpt lat="47.9173" lon="6.81998">
        <ele>851.6</ele>
        <time>2022-09-02T08:49:29Z</time>
      </trkpt>
      <trkpt lat="47.91731" lon="6.81999">
        <ele>851.4</ele>
        <time>2022-09-02T08:49:30Z</time>
      </trkpt>
      <trkpt lat="47.91732" lon="6.82">
        <ele>851.1</ele>
        <time>2022-09-02T08:49:31Z</time>
      </trkpt>
      <trkpt lat="47.91733" lon="6.82001">
        <ele>850.9</ele>
        <time>2022-09-02T08:49:32Z</time>
      </trkpt>
      <trkpt lat="47.91734" lon="6.82002">
        <ele>850.6</ele>
        <time>2022-09-02T08:49:33Z</time>
      </trkpt>
      <trkpt lat="47.91734" lon="6.82003">
        <ele>850.8</ele>
        <time>2022-09-02T08:49:34Z</time>
      </trkpt>
      <trkpt lat="47.91735" lon="6.82004">
        <ele>850.5</ele>
        <time>2022-09-02T08:49:35Z</time>
      </trkpt>
      <trkpt lat="47.91736" lon="6.82005">
        <ele>850.3</ele>
        <time>2022-09-02T08:49:36Z</time>
      </trkpt>
      <trkpt lat="47.91736" lon="6.82006">
        <ele>850.4</ele>
        <time>2022-09-02T08:49:37Z</time>
      </trkpt>
      <trkpt lat="47.91737" lon="6.82007">
        <ele>850.2</ele>
        <time>2022-09-02T08:49:38Z</time>
      </trkpt>
      <trkpt lat="47.91737" lon="6.82008">
        <ele>850.3</ele>
        <time>2022-09-02T08:49:39Z</time>
      </trkpt>
      <trkpt lat="47.91738" lon="6.82009">
        <ele>850</ele>
        <time>2022-09-02T08:49:40Z</time>
      </trkpt>
      <trkpt lat="47.91739" lon="6.8201">
        <ele>849.8</ele>
        <time>2022-09-02T08:49:41Z</time>
      </trkpt>
      <trkpt lat="47.91739" lon="6.82011">
        <ele>849.9</ele>
        <time>2022-09-02T08:49:42Z</time>
      </trkpt>
      <trkpt lat="47.9174" lon="6.82012">
        <ele>849.7</ele>
        <time>2022-09-02T08:49:43Z</time>
      </trkpt>
      <trkpt lat="47.91741" lon="6.82013">
        <ele>849.4</ele>
        <time>2022-09-02T08:49:44Z</time>
      </trkpt>
      <trkpt lat="47.91742" lon="6.82014">
        <ele>849.2</ele>
        <time>2022-09-02T08:49:45Z</time>
      </trkpt>
      <trkpt lat="47.91743" lon="6.82015">
        <ele>848.9</ele>
        <time>2022-09-02T08:49:46Z</time>
      </trkpt>
      <trkpt lat="47.91743" lon="6.82016">
        <ele>849.1</ele>
        <time>2022-09-02T08:49:47Z</time>
      </trkpt>
      <trkpt lat="47.91744" lon="6.82017">
        <ele>848.8</ele>
        <time>2022-09-02T08:49:48Z</time>
      </trkpt>
      <trkpt lat="47.91745" lon="6.82018">
        <ele>848.6</ele>
        <time>2022-09-02T08:49:49Z</time>
      </trkpt>
      <trkpt lat="47.91746" lon="6.82019">
        <ele>848.3</ele>
        <time>2022-09-02T08:49:50Z</time>
      </trkpt>
      <trkpt lat="47.91747" lon="6.8202">
        <ele>848.1</ele>
        <time>2022-09-02T08:49:51Z</time>
      </trkpt>
      <trkpt lat="47.91747" lon="6.82021">
        <ele>848.2</ele>
        <time>2022-09-02T08:49:52Z</time>
      </trkpt>
      <trkpt lat="47.91748" lon="6.82022">
        <ele>848</ele>
        <time>2022-09-02T08:49:53Z</time>
      </trkpt>
      <trkpt lat="47.91749" lon="6.82023">
        <ele>847.7</ele>
        <time>2022-09-02T08:49:54Z</time>
      </trkpt>
      <trkpt lat="47.9175" lon="6.82024">
        <ele>847.5</ele>
        <time>2022-09-02T08:49:55Z</time>
      </trkpt>
      <trkpt lat="47.9175" lon="6.82025">
        <ele>847.6</ele>
        <time>2022-09-02T08:49:56Z</time>
      </trkpt>
      <trkpt lat="47.91751" lon="6.82026">
        <ele>847.4</ele>
        <time>2022-09-02T08:49:57Z</time>
      </trkpt>
      <trkpt lat="47.91752" lon="6.82027">
        <ele>847.2</ele>
        <time>2022-09-02T08:49:58Z</time>
      </trkpt>
      <trkpt lat="47.91752" lon="6.82028">
        <ele>847.4</ele>
        <time>2022-09-02T08:49:59Z</time>
      </trkpt>
      <trkpt lat="47.91753" lon="6.82029">
        <ele>847.2</ele>
        <time>2022-09-02T08:50:00Z</time>
      </trkpt>
      <trkpt lat="47.91754" lon="6.8203">
        <ele>847</ele>
        <time>2022-09-02T08:50:01Z</time>
      </trkpt>
      <trkpt lat="47.91755" lon="6.82031">
        <ele>846.8</ele>
        <time>2022-09-02T08:50:02Z</time>
      </trkpt>
      <trkpt lat="47.91755" lon="6.82032">
        <ele>847</ele>
        <time>2022-09-02T08:50:03Z</time>
      </trkpt>
      <trkpt lat="47.91756" lon="6.82033">
        <ele>846.8</ele>
        <time>2022-09-02T08:50:04Z</time>
      </trkpt>
      <trkpt lat="47.91757" lon="6.82035">
        <ele>846.8</ele>
        <time>2022-09-02T08:50:05Z</time>
      </trkpt>
      <trkpt lat="47.91758" lon="6.82036">
        <ele>846.6</ele>
        <time>2022-09-02T08:50:06Z</time>
      </trkpt>
      <trkpt lat="47.91759" lon="6.82036">
        <ele>846.3</ele>
        <time>2022-09-02T08:50:07Z</time>
      </trkpt>
      <trkpt lat="47.91759" lon="6.82037">
        <ele>846.4</ele>
        <time>2022-09-02T08:50:08Z</time>
      </trkpt>
      <trkpt lat="47.9176" lon="6.82038">
        <ele>846.2</ele>
        <time>2022-09-02T08:50:09Z</time>
      </trkpt>
      <trkpt lat="47.91761" lon="6.82039">
        <ele>846.1</ele>
        <time>2022-09-02T08:50:10Z</time>
      </trkpt>
      <trkpt lat="47.91762" lon="6.8204">
        <ele>845.9</ele>
        <time>2022-09-02T08:50:11Z</time>
      </trkpt>
      <trkpt lat="47.91762" lon="6.82042">
        <ele>846.2</ele>
        <time>2022-09-02T08:50:12Z</time>
      </trkpt>
      <trkpt lat="47.91763" lon="6.82043">
        <ele>846</ele>
        <time>2022-09-02T08:50:13Z</time>
      </trkpt>
      <trkpt lat="47.91764" lon="6.82044">
        <ele>845.8</ele>
        <time>2022-09-02T08:50:14Z</time>
      </trkpt>
      <trkpt lat="47.91765" lon="6.82045">
        <ele>845.6</ele>
        <time>2022-09-02T08:50:15Z</time>
      </trkpt>
      <trkpt lat="47.91765" lon="6.82047">
        <ele>845.9</ele>
        <time>2022-09-02T08:50:16Z</time>
      </trkpt>
      <trkpt lat="47.91766" lon="6.82048">
        <ele>845.7</ele>
        <time>2022-09-02T08:50:17Z</time>
      </trkpt>
      <trkpt lat="47.91767" lon="6.82049">
        <ele>845.5</ele>
        <time>2022-09-02T08:50:18Z</time>
      </trkpt>
      <trkpt lat="47.91767" lon="6.8205">
        <ele>845.7</ele>
        <time>2022-09-02T08:50:19Z</time>
      </trkpt>
      <trkpt lat="47.91768" lon="6.82051">
        <ele>845.5</ele>
        <time>2022-09-02T08:50:20Z</time>
      </trkpt>
      <trkpt lat="47.91769" lon="6.82052">
        <ele>845.3</ele>
        <time>2022-09-02T08:50:21Z</time>
      </trkpt>
      <trkpt lat="47.9177" lon="6.82053">
        <ele>845.2</ele>
        <time>2022-09-02T08:50:22Z</time>
      </trkpt>
      <trkpt lat="47.91771" lon="6.82054">
        <ele>845</ele>
        <time>2022-09-02T08:50:23Z</time>
      </trkpt>
      <trkpt lat="47.91771" lon="6.82055">
        <ele>845.1</ele>
        <time>2022-09-02T08:50:24Z</time>
      </trkpt>
      <trkpt lat="47.91772" lon="6.82056">
        <ele>844.9</ele>
        <time>2022-09-02T08:50:25Z</time>
      </trkpt>
      <trkpt lat="47.91773" lon="6.82057">
        <ele>844.8</ele>
        <time>2022-09-02T08:50:26Z</time>
      </trkpt>
      <trkpt lat="47.91774" lon="6.82058">
        <ele>844.6</ele>
        <time>2022-09-02T08:50:27Z</time>
      </trkpt>
      <trkpt lat="47.91775" lon="6.82059">
        <ele>844.4</ele>
        <time>2022-09-02T08:50:28Z</time>
      </trkpt>
      <trkpt lat="47.91776" lon="6.8206">
        <ele>844.2</ele>
        <time>2022-09-02T08:50:29Z</time>
      </trkpt>
      <trkpt lat="47.91777" lon="6.82061">
        <ele>844</ele>
        <time>2022-09-02T08:50:30Z</time>
      </trkpt>
      <trkpt lat="47.91778" lon="6.82062">
        <ele>843.9</ele>
        <time>2022-09-02T08:50:31Z</time>
      </trkpt>
      <trkpt lat="47.91778" lon="6.82063">
        <ele>844</ele>
        <time>2022-09-02T08:50:32Z</time>
      </trkpt>
      <trkpt lat="47.91779" lon="6.82064">
        <ele>843.8</ele>
        <time>2022-09-02T08:50:33Z</time>
      </trkpt>
      <trkpt lat="47.9178" lon="6.82065">
        <ele>843.6</ele>
        <time>2022-09-02T08:50:34Z</time>
      </trkpt>
      <trkpt lat="47.91781" lon="6.82066">
        <ele>843.5</ele>
        <time>2022-09-02T08:50:35Z</time>
      </trkpt>
      <trkpt lat="47.91782" lon="6.82067">
        <ele>843.3</ele>
        <time>2022-09-02T08:50:36Z</time>
      </trkpt>
      <trkpt lat="47.91783" lon="6.82068">
        <ele>843.1</ele>
        <time>2022-09-02T08:50:37Z</time>
      </trkpt>
      <trkpt lat="47.91783" lon="6.82069">
        <ele>843.2</ele>
        <time>2022-09-02T08:50:38Z</time>
      </trkpt>
      <trkpt lat="47.91784" lon="6.82069">
        <ele>842.9</ele>
        <time>2022-09-02T08:50:39Z</time>
      </trkpt>
      <trkpt lat="47.91785" lon="6.8207">
        <ele>842.7</ele>
        <time>2022-09-02T08:50:40Z</time>
      </trkpt>
      <trkpt lat="47.91786" lon="6.82071">
        <ele>842.6</ele>
        <time>2022-09-02T08:50:41Z</time>
      </trkpt>
      <trkpt lat="47.91786" lon="6.82072">
        <ele>842.7</ele>
        <time>2022-09-02T08:50:42Z</time>
      </trkpt>
      <trkpt lat="47.91787" lon="6.82074">
        <ele>842.7</ele>
        <time>2022-09-02T08:50:43Z</time>
      </trkpt>
      <trkpt lat="47.91788" lon="6.82075">
        <ele>842.5</ele>
        <time>2022-09-02T08:50:44Z</time>
      </trkpt>
      <trkpt lat="47.91789" lon="6.82076">
        <ele>842.3</ele>
        <time>2022-09-02T08:50:45Z</time>
      </trkpt>
      <trkpt lat="47.9179" lon="6.82077">
        <ele>842.1</ele>
        <time>2022-09-02T08:50:46Z</time>
      </trkpt>
      <trkpt lat="47.9179" lon="6.82078">
        <ele>842.3</ele>
        <time>2022-09-02T08:50:47Z</time>
      </trkpt>
      <trkpt lat="47.91791" lon="6.82079">
        <ele>842.1</ele>
        <time>2022-09-02T08:50:48Z</time>
      </trkpt>
      <trkpt lat="47.91792" lon="6.8208">
        <ele>841.9</ele>
        <time>2022-09-02T08:50:49Z</time>
      </trkpt>
      <trkpt lat="47.91793" lon="6.82081">
        <ele>841.7</ele>
        <time>2022-09-02T08:50:50Z</time>
      </trkpt>
      <trkpt lat="47.91793" lon="6.82082">
        <ele>841.9</ele>
        <time>2022-09-02T08:50:51Z</time>
      </trkpt>
      <trkpt lat="47.91794" lon="6.82083">
        <ele>841.7</ele>
        <time>2022-09-02T08:50:52Z</time>
      </trkpt>
      <trkpt lat="47.91795" lon="6.82084">
        <ele>841.5</ele>
        <time>2022-09-02T08:50:53Z</time>
      </trkpt>
      <trkpt lat="47.91796" lon="6.82085">
        <ele>841.4</ele>
        <time>2022-09-02T08:50:54Z</time>
      </trkpt>
      <trkpt lat="47.91796" lon="6.82086">
        <ele>841.5</ele>
        <time>2022-09-02T08:50:55Z</time>
      </trkpt>
      <trkpt lat="47.91797" lon="6.82087">
        <ele>841.4</ele>
        <time>2022-09-02T08:50:56Z</time>
      </trkpt>
      <trkpt lat="47.91798" lon="6.82088">
        <ele>841.2</ele>
        <time>2022-09-02T08:50:57Z</time>
      </trkpt>
      <trkpt lat="47.91799" lon="6.82089">
        <ele>841</ele>
        <time>2022-09-02T08:50:58Z</time>
      </trkpt>
      <trkpt lat="47.91799" lon="6.8209">
        <ele>841.2</ele>
        <time>2022-09-02T08:50:59Z</time>
      </trkpt>
      <trkpt lat="47.918" lon="6.82091">
        <ele>841</ele>
        <time>2022-09-02T08:51:00Z</time>
      </trkpt>
      <trkpt lat="47.91801" lon="6.82092">
        <ele>840.8</ele>
        <time>2022-09-02T08:51:01Z</time>
      </trkpt>
      <trkpt lat="47.91802" lon="6.82092">
        <ele>840.5</ele>
        <time>2022-09-02T08:51:02Z</time>
      </trkpt>
      <trkpt lat="47.91803" lon="6.82093">
        <ele>840.3</ele>
        <time>2022-09-02T08:51:03Z</time>
      </trkpt>
      <trkpt lat="47.91803" lon="6.82094">
        <ele>840.4</ele>
        <time>2022-09-02T08:51:04Z</time>
      </trkpt>
      <trkpt lat="47.91804" lon="6.82095">
        <ele>840.2</ele>
        <time>2022-09-02T08:51:05Z</time>
      </trkpt>
      <trkpt lat="47.91805" lon="6.82096">
        <ele>840</ele>
        <time>2022-09-02T08:51:06Z</time>
      </trkpt>
      <trkpt lat="47.91806" lon="6.82097">
        <ele>839.8</ele>
        <time>2022-09-02T08:51:07Z</time>
      </trkpt>
      <trkpt lat="47.91806" lon="6.82098">
        <ele>840</ele>
        <time>2022-09-02T08:51:08Z</time>
      </trkpt>
      <trkpt lat="47.91807" lon="6.82099">
        <ele>839.8</ele>
        <time>2022-09-02T08:51:09Z</time>
      </trkpt>
      <trkpt lat="47.91808" lon="6.82099">
        <ele>839.5</ele>
        <time>2022-09-02T08:51:10Z</time>
      </trkpt>
      <trkpt lat="47.91809" lon="6.821">
        <ele>839.4</ele>
        <time>2022-09-02T08:51:11Z</time>
      </trkpt>
      <trkpt lat="47.9181" lon="6.82101">
        <ele>839.2</ele>
        <time>2022-09-02T08:51:12Z</time>
      </trkpt>
      <trkpt lat="47.9181" lon="6.82102">
        <ele>839.4</ele>
        <time>2022-09-02T08:51:13Z</time>
      </trkpt>
      <trkpt lat="47.91811" lon="6.82102">
        <ele>839.1</ele>
        <time>2022-09-02T08:51:14Z</time>
      </trkpt>
      <trkpt lat="47.91812" lon="6.82103">
        <ele>838.9</ele>
        <time>2022-09-02T08:51:15Z</time>
      </trkpt>
      <trkpt lat="47.91813" lon="6.82104">
        <ele>838.8</ele>
        <time>2022-09-02T08:51:16Z</time>
      </trkpt>
      <trkpt lat="47.91814" lon="6.82105">
        <ele>838.6</ele>
        <time>2022-09-02T08:51:17Z</time>
      </trkpt>
      <trkpt lat="47.91815" lon="6.82105">
        <ele>838.3</ele>
        <time>2022-09-02T08:51:18Z</time>
      </trkpt>
      <trkpt lat="47.91816" lon="6.82106">
        <ele>838.2</ele>
        <time>2022-09-02T08:51:19Z</time>
      </trkpt>
      <trkpt lat="47.91816" lon="6.82107">
        <ele>838.3</ele>
        <time>2022-09-02T08:51:20Z</time>
      </trkpt>
      <trkpt lat="47.91817" lon="6.82107">
        <ele>838.1</ele>
        <time>2022-09-02T08:51:21Z</time>
      </trkpt>
      <trkpt lat="47.91818" lon="6.82108">
        <ele>837.9</ele>
        <time>2022-09-02T08:51:22Z</time>
      </trkpt>
      <trkpt lat="47.91819" lon="6.82109">
        <ele>837.8</ele>
        <time>2022-09-02T08:51:23Z</time>
      </trkpt>
      <trkpt lat="47.9182" lon="6.8211">
        <ele>837.7</ele>
        <time>2022-09-02T08:51:24Z</time>
      </trkpt>
      <trkpt lat="47.91821" lon="6.82111">
        <ele>837.5</ele>
        <time>2022-09-02T08:51:26Z</time>
      </trkpt>
      <trkpt lat="47.91822" lon="6.82112">
        <ele>837.4</ele>
        <time>2022-09-02T08:51:27Z</time>
      </trkpt>
      <trkpt lat="47.91823" lon="6.82113">
        <ele>837.3</ele>
        <time>2022-09-02T08:51:28Z</time>
      </trkpt>
      <trkpt lat="47.91823" lon="6.82114">
        <ele>837.4</ele>
        <time>2022-09-02T08:51:29Z</time>
      </trkpt>
      <trkpt lat="47.91824" lon="6.82116">
        <ele>837.5</ele>
        <time>2022-09-02T08:51:30Z</time>
      </trkpt>
      <trkpt lat="47.91825" lon="6.82117">
        <ele>837.3</ele>
        <time>2022-09-02T08:51:31Z</time>
      </trkpt>
      <trkpt lat="47.91826" lon="6.82118">
        <ele>837.2</ele>
        <time>2022-09-02T08:51:32Z</time>
      </trkpt>
      <trkpt lat="47.91826" lon="6.82119">
        <ele>837.3</ele>
        <time>2022-09-02T08:51:33Z</time>
      </trkpt>
      <trkpt lat="47.91827" lon="6.8212">
        <ele>837.2</ele>
        <time>2022-09-02T08:51:34Z</time>
      </trkpt>
      <trkpt lat="47.91828" lon="6.82121">
        <ele>837</ele>
        <time>2022-09-02T08:51:35Z</time>
      </trkpt>
      <trkpt lat="47.91828" lon="6.82123">
        <ele>837.3</ele>
        <time>2022-09-02T08:51:36Z</time>
      </trkpt>
      <trkpt lat="47.91829" lon="6.82124">
        <ele>837.2</ele>
        <time>2022-09-02T08:51:37Z</time>
      </trkpt>
      <trkpt lat="47.9183" lon="6.82125">
        <ele>837</ele>
        <time>2022-09-02T08:51:38Z</time>
      </trkpt>
      <trkpt lat="47.9183" lon="6.82126">
        <ele>837.2</ele>
        <time>2022-09-02T08:51:39Z</time>
      </trkpt>
      <trkpt lat="47.91831" lon="6.82127">
        <ele>837</ele>
        <time>2022-09-02T08:51:40Z</time>
      </trkpt>
      <trkpt lat="47.91832" lon="6.82129">
        <ele>837</ele>
        <time>2022-09-02T08:51:41Z</time>
      </trkpt>
      <trkpt lat="47.91833" lon="6.8213">
        <ele>836.8</ele>
        <time>2022-09-02T08:51:42Z</time>
      </trkpt>
      <trkpt lat="47.91833" lon="6.82131">
        <ele>837</ele>
        <time>2022-09-02T08:51:43Z</time>
      </trkpt>
      <trkpt lat="47.91834" lon="6.82132">
        <ele>836.8</ele>
        <time>2022-09-02T08:51:44Z</time>
      </trkpt>
      <trkpt lat="47.91835" lon="6.82133">
        <ele>836.6</ele>
        <time>2022-09-02T08:51:45Z</time>
      </trkpt>
      <trkpt lat="47.91836" lon="6.82134">
        <ele>836.4</ele>
        <time>2022-09-02T08:51:46Z</time>
      </trkpt>
      <trkpt lat="47.91836" lon="6.82135">
        <ele>836.6</ele>
        <time>2022-09-02T08:51:47Z</time>
      </trkpt>
      <trkpt lat="47.91837" lon="6.82136">
        <ele>836.4</ele>
        <time>2022-09-02T08:51:48Z</time>
      </trkpt>
      <trkpt lat="47.91838" lon="6.82137">
        <ele>836.2</ele>
        <time>2022-09-02T08:51:49Z</time>
      </trkpt>
      <trkpt lat="47.91838" lon="6.82138">
        <ele>836.4</ele>
        <time>2022-09-02T08:51:50Z</time>
      </trkpt>
      <trkpt lat="47.91839" lon="6.82139">
        <ele>836.2</ele>
        <time>2022-09-02T08:51:51Z</time>
      </trkpt>
      <trkpt lat="47.91839" lon="6.82141">
        <ele>836.5</ele>
        <time>2022-09-02T08:51:52Z</time>
      </trkpt>
      <trkpt lat="47.9184" lon="6.82142">
        <ele>836.4</ele>
        <time>2022-09-02T08:51:53Z</time>
      </trkpt>
      <trkpt lat="47.9184" lon="6.82143">
        <ele>836.6</ele>
        <time>2022-09-02T08:51:54Z</time>
      </trkpt>
      <trkpt lat="47.91841" lon="6.82144">
        <ele>836.4</ele>
        <time>2022-09-02T08:51:55Z</time>
      </trkpt>
      <trkpt lat="47.91841" lon="6.82145">
        <ele>836.6</ele>
        <time>2022-09-02T08:51:58Z</time>
      </trkpt>
      <trkpt lat="47.91842" lon="6.82145">
        <ele>836.3</ele>
        <time>2022-09-02T08:51:59Z</time>
      </trkpt>
      <trkpt lat="47.91843" lon="6.82146">
        <ele>836.1</ele>
        <time>2022-09-02T08:52:01Z</time>
      </trkpt>
      <trkpt lat="47.91844" lon="6.82147">
        <ele>836</ele>
        <time>2022-09-02T08:52:03Z</time>
      </trkpt>
      <trkpt lat="47.91844" lon="6.82148">
        <ele>836.2</ele>
        <time>2022-09-02T08:52:04Z</time>
      </trkpt>
      <trkpt lat="47.91845" lon="6.82149">
        <ele>836</ele>
        <time>2022-09-02T08:52:05Z</time>
      </trkpt>
      <trkpt lat="47.91846" lon="6.8215">
        <ele>835.9</ele>
        <time>2022-09-02T08:52:07Z</time>
      </trkpt>
      <trkpt lat="47.91846" lon="6.82151">
        <ele>836.1</ele>
        <time>2022-09-02T08:52:08Z</time>
      </trkpt>
      <trkpt lat="47.91847" lon="6.82152">
        <ele>835.9</ele>
        <time>2022-09-02T08:52:09Z</time>
      </trkpt>
      <trkpt lat="47.91848" lon="6.82152">
        <ele>835.6</ele>
        <time>2022-09-02T08:52:10Z</time>
      </trkpt>
      <trkpt lat="47.91848" lon="6.82153">
        <ele>835.8</ele>
        <time>2022-09-02T08:52:11Z</time>
      </trkpt>
      <trkpt lat="47.91849" lon="6.82153">
        <ele>835.5</ele>
        <time>2022-09-02T08:52:12Z</time>
      </trkpt>
      <trkpt lat="47.9185" lon="6.82152">
        <ele>835</ele>
        <time>2022-09-02T08:52:14Z</time>
      </trkpt>
      <trkpt lat="47.9185" lon="6.82151">
        <ele>834.8</ele>
        <time>2022-09-02T08:52:15Z</time>
      </trkpt>
      <trkpt lat="47.9185" lon="6.8215">
        <ele>834.6</ele>
        <time>2022-09-02T08:52:16Z</time>
      </trkpt>
      <trkpt lat="47.91849" lon="6.82149">
        <ele>834.7</ele>
        <time>2022-09-02T08:52:17Z</time>
      </trkpt>
      <trkpt lat="47.91849" lon="6.82148">
        <ele>834.6</ele>
        <time>2022-09-02T08:52:18Z</time>
      </trkpt>
      <trkpt lat="47.91849" lon="6.82147">
        <ele>834.4</ele>
        <time>2022-09-02T08:52:19Z</time>
      </trkpt>
      <trkpt lat="47.91848" lon="6.82146">
        <ele>834.5</ele>
        <time>2022-09-02T08:52:20Z</time>
      </trkpt>
      <trkpt lat="47.91848" lon="6.82144">
        <ele>834.2</ele>
        <time>2022-09-02T08:52:21Z</time>
      </trkpt>
      <trkpt lat="47.91848" lon="6.82143">
        <ele>834</ele>
        <time>2022-09-02T08:52:22Z</time>
      </trkpt>
      <trkpt lat="47.91847" lon="6.82142">
        <ele>834.1</ele>
        <time>2022-09-02T08:52:23Z</time>
      </trkpt>
      <trkpt lat="47.91847" lon="6.82141">
        <ele>834</ele>
        <time>2022-09-02T08:52:24Z</time>
      </trkpt>
      <trkpt lat="47.91846" lon="6.82139">
        <ele>833.9</ele>
        <time>2022-09-02T08:52:25Z</time>
      </trkpt>
      <trkpt lat="47.91846" lon="6.82138">
        <ele>833.8</ele>
        <time>2022-09-02T08:52:26Z</time>
      </trkpt>
      <trkpt lat="47.91845" lon="6.82137">
        <ele>834</ele>
        <time>2022-09-02T08:52:27Z</time>
      </trkpt>
      <trkpt lat="47.91845" lon="6.82135">
        <ele>833.7</ele>
        <time>2022-09-02T08:52:28Z</time>
      </trkpt>
      <trkpt lat="47.91845" lon="6.82134">
        <ele>833.6</ele>
        <time>2022-09-02T08:52:29Z</time>
      </trkpt>
      <trkpt lat="47.91844" lon="6.82133">
        <ele>833.8</ele>
        <time>2022-09-02T08:52:30Z</time>
      </trkpt>
      <trkpt lat="47.91844" lon="6.82132">
        <ele>833.6</ele>
        <time>2022-09-02T08:52:31Z</time>
      </trkpt>
      <trkpt lat="47.91844" lon="6.82131">
        <ele>833.5</ele>
        <time>2022-09-02T08:52:32Z</time>
      </trkpt>
      <trkpt lat="47.91843" lon="6.82129">
        <ele>833.6</ele>
        <time>2022-09-02T08:52:33Z</time>
      </trkpt>
      <trkpt lat="47.91843" lon="6.82128">
        <ele>833.4</ele>
        <time>2022-09-02T08:52:34Z</time>
      </trkpt>
      <trkpt lat="47.91843" lon="6.82127">
        <ele>833.3</ele>
        <time>2022-09-02T08:52:35Z</time>
      </trkpt>
      <trkpt lat="47.91843" lon="6.82126">
        <ele>833.2</ele>
        <time>2022-09-02T08:52:36Z</time>
      </trkpt>
      <trkpt lat="47.91842" lon="6.82124">
        <ele>833.2</ele>
        <time>2022-09-02T08:52:37Z</time>
      </trkpt>
      <trkpt lat="47.91842" lon="6.82123">
        <ele>833.1</ele>
        <time>2022-09-02T08:52:38Z</time>
      </trkpt>
      <trkpt lat="47.91842" lon="6.82122">
        <ele>832.9</ele>
        <time>2022-09-02T08:52:39Z</time>
      </trkpt>
      <trkpt lat="47.91841" lon="6.8212">
        <ele>833</ele>
        <time>2022-09-02T08:52:40Z</time>
      </trkpt>
      <trkpt lat="47.91841" lon="6.82119">
        <ele>832.8</ele>
        <time>2022-09-02T08:52:41Z</time>
      </trkpt>
      <trkpt lat="47.91841" lon="6.82118">
        <ele>832.7</ele>
        <time>2022-09-02T08:52:42Z</time>
      </trkpt>
      <trkpt lat="47.9184" lon="6.82116">
        <ele>832.7</ele>
        <time>2022-09-02T08:52:43Z</time>
      </trkpt>
      <trkpt lat="47.9184" lon="6.82115">
        <ele>832.6</ele>
        <time>2022-09-02T08:52:44Z</time>
      </trkpt>
      <trkpt lat="47.9184" lon="6.82114">
        <ele>832.5</ele>
        <time>2022-09-02T08:52:45Z</time>
      </trkpt>
      <trkpt lat="47.91839" lon="6.82112">
        <ele>832.5</ele>
        <time>2022-09-02T08:52:46Z</time>
      </trkpt>
      <trkpt lat="47.91839" lon="6.82111">
        <ele>832.3</ele>
        <time>2022-09-02T08:52:47Z</time>
      </trkpt>
      <trkpt lat="47.91839" lon="6.8211">
        <ele>832.2</ele>
        <time>2022-09-02T08:52:48Z</time>
      </trkpt>
      <trkpt lat="47.91838" lon="6.82108">
        <ele>832.1</ele>
        <time>2022-09-02T08:52:49Z</time>
      </trkpt>
      <trkpt lat="47.91838" lon="6.82107">
        <ele>831.9</ele>
        <time>2022-09-02T08:52:50Z</time>
      </trkpt>
      <trkpt lat="47.91838" lon="6.82106">
        <ele>831.8</ele>
        <time>2022-09-02T08:52:51Z</time>
      </trkpt>
      <trkpt lat="47.91837" lon="6.82104">
        <ele>831.7</ele>
        <time>2022-09-02T08:52:52Z</time>
      </trkpt>
      <trkpt lat="47.91837" lon="6.82103">
        <ele>831.5</ele>
        <time>2022-09-02T08:52:53Z</time>
      </trkpt>
      <trkpt lat="47.91837" lon="6.82101">
        <ele>831.2</ele>
        <time>2022-09-02T08:52:54Z</time>
      </trkpt>
      <trkpt lat="47.91837" lon="6.821">
        <ele>831</ele>
        <time>2022-09-02T08:52:55Z</time>
      </trkpt>
      <trkpt lat="47.91837" lon="6.82098">
        <ele>830.6</ele>
        <time>2022-09-02T08:52:56Z</time>
      </trkpt>
      <trkpt lat="47.91837" lon="6.82097">
        <ele>830.5</ele>
        <time>2022-09-02T08:52:57Z</time>
      </trkpt>
      <trkpt lat="47.91837" lon="6.82095">
        <ele>830.1</ele>
        <time>2022-09-02T08:52:58Z</time>
      </trkpt>
      <trkpt lat="47.91837" lon="6.82094">
        <ele>829.9</ele>
        <time>2022-09-02T08:52:59Z</time>
      </trkpt>
      <trkpt lat="47.91837" lon="6.82092">
        <ele>829.6</ele>
        <time>2022-09-02T08:53:00Z</time>
      </trkpt>
      <trkpt lat="47.91836" lon="6.82091">
        <ele>829.7</ele>
        <time>2022-09-02T08:53:01Z</time>
      </trkpt>
      <trkpt lat="47.91836" lon="6.82089">
        <ele>829.3</ele>
        <time>2022-09-02T08:53:02Z</time>
      </trkpt>
      <trkpt lat="47.91836" lon="6.82088">
        <ele>829.2</ele>
        <time>2022-09-02T08:53:03Z</time>
      </trkpt>
      <trkpt lat="47.91836" lon="6.82087">
        <ele>829</ele>
        <time>2022-09-02T08:53:04Z</time>
      </trkpt>
      <trkpt lat="47.91835" lon="6.82085">
        <ele>828.9</ele>
        <time>2022-09-02T08:53:05Z</time>
      </trkpt>
      <trkpt lat="47.91835" lon="6.82084">
        <ele>828.7</ele>
        <time>2022-09-02T08:53:06Z</time>
      </trkpt>
      <trkpt lat="47.91835" lon="6.82083">
        <ele>828.5</ele>
        <time>2022-09-02T08:53:07Z</time>
      </trkpt>
      <trkpt lat="47.91835" lon="6.82081">
        <ele>828.2</ele>
        <time>2022-09-02T08:53:08Z</time>
      </trkpt>
      <trkpt lat="47.91834" lon="6.8208">
        <ele>828.3</ele>
        <time>2022-09-02T08:53:09Z</time>
      </trkpt>
      <trkpt lat="47.91834" lon="6.82078">
        <ele>828.1</ele>
        <time>2022-09-02T08:53:10Z</time>
      </trkpt>
      <trkpt lat="47.91834" lon="6.82077">
        <ele>827.9</ele>
        <time>2022-09-02T08:53:11Z</time>
      </trkpt>
      <trkpt lat="47.91834" lon="6.82075">
        <ele>827.6</ele>
        <time>2022-09-02T08:53:12Z</time>
      </trkpt>
      <trkpt lat="47.91833" lon="6.82074">
        <ele>827.8</ele>
        <time>2022-09-02T08:53:13Z</time>
      </trkpt>
      <trkpt lat="47.91833" lon="6.82072">
        <ele>827.5</ele>
        <time>2022-09-02T08:53:14Z</time>
      </trkpt>
      <trkpt lat="47.91833" lon="6.82071">
        <ele>827.3</ele>
        <time>2022-09-02T08:53:15Z</time>
      </trkpt>
      <trkpt lat="47.91833" lon="6.8207">
        <ele>827.2</ele>
        <time>2022-09-02T08:53:16Z</time>
      </trkpt>
      <trkpt lat="47.91832" lon="6.82068">
        <ele>827.2</ele>
        <time>2022-09-02T08:53:17Z</time>
      </trkpt>
      <trkpt lat="47.91832" lon="6.82067">
        <ele>827.1</ele>
        <time>2022-09-02T08:53:18Z</time>
      </trkpt>
      <trkpt lat="47.91832" lon="6.82065">
        <ele>826.8</ele>
        <time>2022-09-02T08:53:19Z</time>
      </trkpt>
      <trkpt lat="47.91832" lon="6.82064">
        <ele>826.6</ele>
        <time>2022-09-02T08:53:20Z</time>
      </trkpt>
      <trkpt lat="47.91832" lon="6.82063">
        <ele>826.5</ele>
        <time>2022-09-02T08:53:21Z</time>
      </trkpt>
      <trkpt lat="47.91831" lon="6.82061">
        <ele>826.5</ele>
        <time>2022-09-02T08:53:22Z</time>
      </trkpt>
      <trkpt lat="47.91831" lon="6.8206">
        <ele>826.4</ele>
        <time>2022-09-02T08:53:23Z</time>
      </trkpt>
      <trkpt lat="47.91831" lon="6.82059">
        <ele>826.3</ele>
        <time>2022-09-02T08:53:24Z</time>
      </trkpt>
      <trkpt lat="47.91831" lon="6.82057">
        <ele>826</ele>
        <time>2022-09-02T08:53:25Z</time>
      </trkpt>
      <trkpt lat="47.9183" lon="6.82056">
        <ele>826.1</ele>
        <time>2022-09-02T08:53:26Z</time>
      </trkpt>
      <trkpt lat="47.9183" lon="6.82054">
        <ele>825.8</ele>
        <time>2022-09-02T08:53:27Z</time>
      </trkpt>
      <trkpt lat="47.9183" lon="6.82053">
        <ele>825.6</ele>
        <time>2022-09-02T08:53:28Z</time>
      </trkpt>
      <trkpt lat="47.91829" lon="6.82052">
        <ele>825.8</ele>
        <time>2022-09-02T08:53:29Z</time>
      </trkpt>
      <trkpt lat="47.91829" lon="6.8205">
        <ele>825.4</ele>
        <time>2022-09-02T08:53:30Z</time>
      </trkpt>
      <trkpt lat="47.91829" lon="6.82049">
        <ele>825.3</ele>
        <time>2022-09-02T08:53:31Z</time>
      </trkpt>
      <trkpt lat="47.91829" lon="6.82047">
        <ele>824.9</ele>
        <time>2022-09-02T08:53:32Z</time>
      </trkpt>
      <trkpt lat="47.91828" lon="6.82046">
        <ele>825.1</ele>
        <time>2022-09-02T08:53:33Z</time>
      </trkpt>
      <trkpt lat="47.91828" lon="6.82044">
        <ele>824.7</ele>
        <time>2022-09-02T08:53:34Z</time>
      </trkpt>
      <trkpt lat="47.91828" lon="6.82043">
        <ele>824.6</ele>
        <time>2022-09-02T08:53:35Z</time>
      </trkpt>
      <trkpt lat="47.91827" lon="6.82042">
        <ele>824.7</ele>
        <time>2022-09-02T08:53:36Z</time>
      </trkpt>
      <trkpt lat="47.91827" lon="6.8204">
        <ele>824.4</ele>
        <time>2022-09-02T08:53:37Z</time>
      </trkpt>
      <trkpt lat="47.91827" lon="6.82039">
        <ele>824.2</ele>
        <time>2022-09-02T08:53:38Z</time>
      </trkpt>
      <trkpt lat="47.91826" lon="6.82037">
        <ele>824.2</ele>
        <time>2022-09-02T08:53:39Z</time>
      </trkpt>
      <trkpt lat="47.91826" lon="6.82036">
        <ele>824</ele>
        <time>2022-09-02T08:53:40Z</time>
      </trkpt>
      <trkpt lat="47.91826" lon="6.82035">
        <ele>823.9</ele>
        <time>2022-09-02T08:53:41Z</time>
      </trkpt>
      <trkpt lat="47.91825" lon="6.82033">
        <ele>823.9</ele>
        <time>2022-09-02T08:53:42Z</time>
      </trkpt>
      <trkpt lat="47.91825" lon="6.82032">
        <ele>823.7</ele>
        <time>2022-09-02T08:53:43Z</time>
      </trkpt>
      <trkpt lat="47.91825" lon="6.8203">
        <ele>823.4</ele>
        <time>2022-09-02T08:53:44Z</time>
      </trkpt>
      <trkpt lat="47.91824" lon="6.82029">
        <ele>823.6</ele>
        <time>2022-09-02T08:53:45Z</time>
      </trkpt>
      <trkpt lat="47.91824" lon="6.82027">
        <ele>823.3</ele>
        <time>2022-09-02T08:53:46Z</time>
      </trkpt>
      <trkpt lat="47.91824" lon="6.82026">
        <ele>823.2</ele>
        <time>2022-09-02T08:53:47Z</time>
      </trkpt>
      <trkpt lat="47.91824" lon="6.82024">
        <ele>823</ele>
        <time>2022-09-02T08:53:48Z</time>
      </trkpt>
      <trkpt lat="47.91823" lon="6.82023">
        <ele>823.2</ele>
        <time>2022-09-02T08:53:49Z</time>
      </trkpt>
      <trkpt lat="47.91823" lon="6.82021">
        <ele>823.1</ele>
        <time>2022-09-02T08:53:50Z</time>
      </trkpt>
      <trkpt lat="47.91823" lon="6.8202">
        <ele>823</ele>
        <time>2022-09-02T08:53:51Z</time>
      </trkpt>
      <trkpt lat="47.91822" lon="6.82018">
        <ele>823.1</ele>
        <time>2022-09-02T08:53:52Z</time>
      </trkpt>
      <trkpt lat="47.91822" lon="6.82017">
        <ele>823</ele>
        <time>2022-09-02T08:53:53Z</time>
      </trkpt>
      <trkpt lat="47.91822" lon="6.82015">
        <ele>822.8</ele>
        <time>2022-09-02T08:53:54Z</time>
      </trkpt>
      <trkpt lat="47.91821" lon="6.82014">
        <ele>823</ele>
        <time>2022-09-02T08:53:55Z</time>
      </trkpt>
      <trkpt lat="47.91821" lon="6.82013">
        <ele>822.9</ele>
        <time>2022-09-02T08:53:56Z</time>
      </trkpt>
      <trkpt lat="47.9182" lon="6.82011">
        <ele>823</ele>
        <time>2022-09-02T08:53:57Z</time>
      </trkpt>
      <trkpt lat="47.9182" lon="6.8201">
        <ele>822.9</ele>
        <time>2022-09-02T08:53:58Z</time>
      </trkpt>
      <trkpt lat="47.9182" lon="6.82008">
        <ele>822.7</ele>
        <time>2022-09-02T08:53:59Z</time>
      </trkpt>
      <trkpt lat="47.91819" lon="6.82007">
        <ele>822.9</ele>
        <time>2022-09-02T08:54:00Z</time>
      </trkpt>
      <trkpt lat="47.91819" lon="6.82006">
        <ele>822.8</ele>
        <time>2022-09-02T08:54:01Z</time>
      </trkpt>
      <trkpt lat="47.91819" lon="6.82004">
        <ele>822.6</ele>
        <time>2022-09-02T08:54:02Z</time>
      </trkpt>
      <trkpt lat="47.91818" lon="6.82003">
        <ele>822.8</ele>
        <time>2022-09-02T08:54:03Z</time>
      </trkpt>
      <trkpt lat="47.91818" lon="6.82001">
        <ele>822.5</ele>
        <time>2022-09-02T08:54:04Z</time>
      </trkpt>
      <trkpt lat="47.91818" lon="6.82">
        <ele>822.4</ele>
        <time>2022-09-02T08:54:05Z</time>
      </trkpt>
      <trkpt lat="47.91818" lon="6.81998">
        <ele>822.1</ele>
        <time>2022-09-02T08:54:06Z</time>
      </trkpt>
      <trkpt lat="47.91817" lon="6.81997">
        <ele>822.2</ele>
        <time>2022-09-02T08:54:07Z</time>
      </trkpt>
      <trkpt lat="47.91817" lon="6.81995">
        <ele>821.9</ele>
        <time>2022-09-02T08:54:08Z</time>
      </trkpt>
      <trkpt lat="47.91817" lon="6.81994">
        <ele>821.8</ele>
        <time>2022-09-02T08:54:09Z</time>
      </trkpt>
      <trkpt lat="47.91816" lon="6.81992">
        <ele>821.7</ele>
        <time>2022-09-02T08:54:10Z</time>
      </trkpt>
      <trkpt lat="47.91816" lon="6.81991">
        <ele>821.6</ele>
        <time>2022-09-02T08:54:11Z</time>
      </trkpt>
      <trkpt lat="47.91816" lon="6.81989">
        <ele>821.3</ele>
        <time>2022-09-02T08:54:12Z</time>
      </trkpt>
      <trkpt lat="47.91815" lon="6.81988">
        <ele>821.4</ele>
        <time>2022-09-02T08:54:13Z</time>
      </trkpt>
      <trkpt lat="47.91815" lon="6.81986">
        <ele>821.1</ele>
        <time>2022-09-02T08:54:14Z</time>
      </trkpt>
      <trkpt lat="47.91815" lon="6.81985">
        <ele>820.9</ele>
        <time>2022-09-02T08:54:15Z</time>
      </trkpt>
      <trkpt lat="47.91814" lon="6.81983">
        <ele>820.9</ele>
        <time>2022-09-02T08:54:16Z</time>
      </trkpt>
      <trkpt lat="47.91814" lon="6.81982">
        <ele>820.8</ele>
        <time>2022-09-02T08:54:17Z</time>
      </trkpt>
      <trkpt lat="47.91813" lon="6.8198">
        <ele>820.8</ele>
        <time>2022-09-02T08:54:18Z</time>
      </trkpt>
      <trkpt lat="47.91813" lon="6.81979">
        <ele>820.6</ele>
        <time>2022-09-02T08:54:19Z</time>
      </trkpt>
      <trkpt lat="47.91813" lon="6.81977">
        <ele>820.3</ele>
        <time>2022-09-02T08:54:20Z</time>
      </trkpt>
      <trkpt lat="47.91812" lon="6.81976">
        <ele>820.5</ele>
        <time>2022-09-02T08:54:21Z</time>
      </trkpt>
      <trkpt lat="47.91812" lon="6.81974">
        <ele>820.2</ele>
        <time>2022-09-02T08:54:22Z</time>
      </trkpt>
      <trkpt lat="47.91812" lon="6.81973">
        <ele>820</ele>
        <time>2022-09-02T08:54:23Z</time>
      </trkpt>
      <trkpt lat="47.91811" lon="6.81971">
        <ele>820.1</ele>
        <time>2022-09-02T08:54:24Z</time>
      </trkpt>
      <trkpt lat="47.91811" lon="6.81969">
        <ele>819.8</ele>
        <time>2022-09-02T08:54:25Z</time>
      </trkpt>
      <trkpt lat="47.91811" lon="6.81968">
        <ele>819.7</ele>
        <time>2022-09-02T08:54:26Z</time>
      </trkpt>
      <trkpt lat="47.9181" lon="6.81966">
        <ele>819.7</ele>
        <time>2022-09-02T08:54:27Z</time>
      </trkpt>
      <trkpt lat="47.9181" lon="6.81965">
        <ele>819.6</ele>
        <time>2022-09-02T08:54:28Z</time>
      </trkpt>
      <trkpt lat="47.9181" lon="6.81963">
        <ele>819.3</ele>
        <time>2022-09-02T08:54:29Z</time>
      </trkpt>
      <trkpt lat="47.91809" lon="6.81961">
        <ele>819.3</ele>
        <time>2022-09-02T08:54:30Z</time>
      </trkpt>
      <trkpt lat="47.91809" lon="6.8196">
        <ele>819.2</ele>
        <time>2022-09-02T08:54:31Z</time>
      </trkpt>
      <trkpt lat="47.91809" lon="6.81958">
        <ele>818.9</ele>
        <time>2022-09-02T08:54:32Z</time>
      </trkpt>
      <trkpt lat="47.91808" lon="6.81957">
        <ele>819.1</ele>
        <time>2022-09-02T08:54:33Z</time>
      </trkpt>
      <trkpt lat="47.91808" lon="6.81956">
        <ele>818.9</ele>
        <time>2022-09-02T08:54:34Z</time>
      </trkpt>
      <trkpt lat="47.91808" lon="6.81954">
        <ele>818.6</ele>
        <time>2022-09-02T08:54:35Z</time>
      </trkpt>
      <trkpt lat="47.91808" lon="6.81953">
        <ele>818.5</ele>
        <time>2022-09-02T08:54:36Z</time>
      </trkpt>
      <trkpt lat="47.91807" lon="6.81951">
        <ele>818.5</ele>
        <time>2022-09-02T08:54:37Z</time>
      </trkpt>
      <trkpt lat="47.91807" lon="6.8195">
        <ele>818.4</ele>
        <time>2022-09-02T08:54:38Z</time>
      </trkpt>
      <trkpt lat="47.91806" lon="6.81948">
        <ele>818.4</ele>
        <time>2022-09-02T08:54:39Z</time>
      </trkpt>
      <trkpt lat="47.91806" lon="6.81947">
        <ele>818.2</ele>
        <time>2022-09-02T08:54:40Z</time>
      </trkpt>
      <trkpt lat="47.91806" lon="6.81945">
        <ele>818</ele>
        <time>2022-09-02T08:54:41Z</time>
      </trkpt>
      <trkpt lat="47.91806" lon="6.81944">
        <ele>817.8</ele>
        <time>2022-09-02T08:54:42Z</time>
      </trkpt>
      <trkpt lat="47.91805" lon="6.81942">
        <ele>818</ele>
        <time>2022-09-02T08:54:43Z</time>
      </trkpt>
      <trkpt lat="47.91805" lon="6.8194">
        <ele>817.9</ele>
        <time>2022-09-02T08:54:44Z</time>
      </trkpt>
      <trkpt lat="47.91805" lon="6.81939">
        <ele>817.8</ele>
        <time>2022-09-02T08:54:45Z</time>
      </trkpt>
      <trkpt lat="47.91804" lon="6.81937">
        <ele>818</ele>
        <time>2022-09-02T08:54:46Z</time>
      </trkpt>
      <trkpt lat="47.91804" lon="6.81936">
        <ele>817.9</ele>
        <time>2022-09-02T08:54:47Z</time>
      </trkpt>
      <trkpt lat="47.91804" lon="6.81934">
        <ele>817.8</ele>
        <time>2022-09-02T08:54:48Z</time>
      </trkpt>
      <trkpt lat="47.91804" lon="6.81933">
        <ele>817.7</ele>
        <time>2022-09-02T08:54:49Z</time>
      </trkpt>
      <trkpt lat="47.91803" lon="6.81931">
        <ele>817.9</ele>
        <time>2022-09-02T08:54:50Z</time>
      </trkpt>
      <trkpt lat="47.91803" lon="6.8193">
        <ele>817.8</ele>
        <time>2022-09-02T08:54:51Z</time>
      </trkpt>
      <trkpt lat="47.91803" lon="6.81928">
        <ele>817.6</ele>
        <time>2022-09-02T08:54:52Z</time>
      </trkpt>
      <trkpt lat="47.91803" lon="6.81927">
        <ele>817.6</ele>
        <time>2022-09-02T08:54:53Z</time>
      </trkpt>
      <trkpt lat="47.91802" lon="6.81926">
        <ele>817.8</ele>
        <time>2022-09-02T08:54:54Z</time>
      </trkpt>
      <trkpt lat="47.91802" lon="6.81924">
        <ele>817.7</ele>
        <time>2022-09-02T08:54:55Z</time>
      </trkpt>
      <trkpt lat="47.91802" lon="6.81923">
        <ele>817.6</ele>
        <time>2022-09-02T08:54:56Z</time>
      </trkpt>
      <trkpt lat="47.91802" lon="6.81921">
        <ele>817.5</ele>
        <time>2022-09-02T08:54:57Z</time>
      </trkpt>
      <trkpt lat="47.91801" lon="6.8192">
        <ele>817.7</ele>
        <time>2022-09-02T08:54:58Z</time>
      </trkpt>
      <trkpt lat="47.91801" lon="6.81919">
        <ele>817.6</ele>
        <time>2022-09-02T08:54:59Z</time>
      </trkpt>
      <trkpt lat="47.91801" lon="6.81918">
        <ele>817.6</ele>
        <time>2022-09-02T08:55:00Z</time>
      </trkpt>
      <trkpt lat="47.91801" lon="6.81916">
        <ele>817.4</ele>
        <time>2022-09-02T08:55:01Z</time>
      </trkpt>
      <trkpt lat="47.91801" lon="6.81915">
        <ele>817.3</ele>
        <time>2022-09-02T08:55:02Z</time>
      </trkpt>
      <trkpt lat="47.91801" lon="6.81914">
        <ele>817.2</ele>
        <time>2022-09-02T08:55:03Z</time>
      </trkpt>
      <trkpt lat="47.918" lon="6.81912">
        <ele>817.3</ele>
        <time>2022-09-02T08:55:04Z</time>
      </trkpt>
      <trkpt lat="47.918" lon="6.81911">
        <ele>817.2</ele>
        <time>2022-09-02T08:55:05Z</time>
      </trkpt>
      <trkpt lat="47.918" lon="6.81909">
        <ele>817</ele>
        <time>2022-09-02T08:55:06Z</time>
      </trkpt>
      <trkpt lat="47.918" lon="6.81908">
        <ele>816.9</ele>
        <time>2022-09-02T08:55:07Z</time>
      </trkpt>
      <trkpt lat="47.91799" lon="6.81907">
        <ele>817.2</ele>
        <time>2022-09-02T08:55:08Z</time>
      </trkpt>
      <trkpt lat="47.91799" lon="6.81905">
        <ele>817</ele>
        <time>2022-09-02T08:55:09Z</time>
      </trkpt>
      <trkpt lat="47.91799" lon="6.81904">
        <ele>816.9</ele>
        <time>2022-09-02T08:55:10Z</time>
      </trkpt>
      <trkpt lat="47.91799" lon="6.81902">
        <ele>816.7</ele>
        <time>2022-09-02T08:55:11Z</time>
      </trkpt>
      <trkpt lat="47.91799" lon="6.81901">
        <ele>816.6</ele>
        <time>2022-09-02T08:55:12Z</time>
      </trkpt>
      <trkpt lat="47.91798" lon="6.81899">
        <ele>816.7</ele>
        <time>2022-09-02T08:55:13Z</time>
      </trkpt>
      <trkpt lat="47.91798" lon="6.81898">
        <ele>816.6</ele>
        <time>2022-09-02T08:55:14Z</time>
      </trkpt>
      <trkpt lat="47.91798" lon="6.81896">
        <ele>816.4</ele>
        <time>2022-09-02T08:55:15Z</time>
      </trkpt>
      <trkpt lat="47.91797" lon="6.81895">
        <ele>816.7</ele>
        <time>2022-09-02T08:55:16Z</time>
      </trkpt>
      <trkpt lat="47.91797" lon="6.81893">
        <ele>816.5</ele>
        <time>2022-09-02T08:55:17Z</time>
      </trkpt>
      <trkpt lat="47.91797" lon="6.81891">
        <ele>816.3</ele>
        <time>2022-09-02T08:55:18Z</time>
      </trkpt>
      <trkpt lat="47.91797" lon="6.8189">
        <ele>816.2</ele>
        <time>2022-09-02T08:55:19Z</time>
      </trkpt>
      <trkpt lat="47.91797" lon="6.81888">
        <ele>816</ele>
        <time>2022-09-02T08:55:20Z</time>
      </trkpt>
      <trkpt lat="47.91797" lon="6.81887">
        <ele>815.9</ele>
        <time>2022-09-02T08:55:21Z</time>
      </trkpt>
      <trkpt lat="47.91797" lon="6.81885">
        <ele>815.8</ele>
        <time>2022-09-02T08:55:22Z</time>
      </trkpt>
      <trkpt lat="47.91796" lon="6.81883">
        <ele>815.9</ele>
        <time>2022-09-02T08:55:23Z</time>
      </trkpt>
      <trkpt lat="47.91796" lon="6.81882">
        <ele>815.9</ele>
        <time>2022-09-02T08:55:24Z</time>
      </trkpt>
      <trkpt lat="47.91796" lon="6.8188">
        <ele>815.7</ele>
        <time>2022-09-02T08:55:25Z</time>
      </trkpt>
      <trkpt lat="47.91795" lon="6.81879">
        <ele>816</ele>
        <time>2022-09-02T08:55:26Z</time>
      </trkpt>
      <trkpt lat="47.91795" lon="6.81875">
        <ele>815.6</ele>
        <time>2022-09-02T08:55:37Z</time>
      </trkpt>
      <trkpt lat="47.91795" lon="6.81873">
        <ele>815.4</ele>
        <time>2022-09-02T08:55:38Z</time>
      </trkpt>
      <trkpt lat="47.91794" lon="6.81872">
        <ele>815.7</ele>
        <time>2022-09-02T08:55:39Z</time>
      </trkpt>
      <trkpt lat="47.91794" lon="6.81871">
        <ele>815.6</ele>
        <time>2022-09-02T08:55:40Z</time>
      </trkpt>
      <trkpt lat="47.91794" lon="6.81869">
        <ele>815.4</ele>
        <time>2022-09-02T08:55:41Z</time>
      </trkpt>
      <trkpt lat="47.91794" lon="6.81868">
        <ele>815.3</ele>
        <time>2022-09-02T08:55:42Z</time>
      </trkpt>
      <trkpt lat="47.91794" lon="6.81867">
        <ele>815.3</ele>
        <time>2022-09-02T08:55:43Z</time>
      </trkpt>
      <trkpt lat="47.91793" lon="6.81865">
        <ele>815.4</ele>
        <time>2022-09-02T08:55:44Z</time>
      </trkpt>
      <trkpt lat="47.91793" lon="6.81864">
        <ele>815.3</ele>
        <time>2022-09-02T08:55:45Z</time>
      </trkpt>
      <trkpt lat="47.91793" lon="6.81862">
        <ele>815.1</ele>
        <time>2022-09-02T08:55:46Z</time>
      </trkpt>
      <trkpt lat="47.91793" lon="6.81861">
        <ele>815.1</ele>
        <time>2022-09-02T08:55:47Z</time>
      </trkpt>
      <trkpt lat="47.91793" lon="6.81859">
        <ele>814.8</ele>
        <time>2022-09-02T08:55:48Z</time>
      </trkpt>
      <trkpt lat="47.91793" lon="6.81857">
        <ele>814.5</ele>
        <time>2022-09-02T08:55:49Z</time>
      </trkpt>
      <trkpt lat="47.91792" lon="6.81856">
        <ele>814.7</ele>
        <time>2022-09-02T08:55:50Z</time>
      </trkpt>
      <trkpt lat="47.91792" lon="6.81854">
        <ele>814.4</ele>
        <time>2022-09-02T08:55:51Z</time>
      </trkpt>
      <trkpt lat="47.91792" lon="6.81853">
        <ele>814.2</ele>
        <time>2022-09-02T08:55:52Z</time>
      </trkpt>
      <trkpt lat="47.91792" lon="6.81851">
        <ele>813.9</ele>
        <time>2022-09-02T08:55:53Z</time>
      </trkpt>
      <trkpt lat="47.91791" lon="6.8185">
        <ele>814.1</ele>
        <time>2022-09-02T08:55:54Z</time>
      </trkpt>
      <trkpt lat="47.91791" lon="6.81848">
        <ele>813.8</ele>
        <time>2022-09-02T08:55:55Z</time>
      </trkpt>
      <trkpt lat="47.91791" lon="6.81847">
        <ele>813.7</ele>
        <time>2022-09-02T08:55:56Z</time>
      </trkpt>
      <trkpt lat="47.91791" lon="6.81845">
        <ele>813.4</ele>
        <time>2022-09-02T08:55:57Z</time>
      </trkpt>
      <trkpt lat="47.9179" lon="6.81844">
        <ele>813.6</ele>
        <time>2022-09-02T08:55:58Z</time>
      </trkpt>
      <trkpt lat="47.9179" lon="6.81842">
        <ele>813.3</ele>
        <time>2022-09-02T08:55:59Z</time>
      </trkpt>
      <trkpt lat="47.91789" lon="6.81841">
        <ele>813.5</ele>
        <time>2022-09-02T08:56:00Z</time>
      </trkpt>
      <trkpt lat="47.91789" lon="6.81839">
        <ele>813.2</ele>
        <time>2022-09-02T08:56:01Z</time>
      </trkpt>
      <trkpt lat="47.91789" lon="6.81838">
        <ele>813</ele>
        <time>2022-09-02T08:56:02Z</time>
      </trkpt>
      <trkpt lat="47.91789" lon="6.81836">
        <ele>812.7</ele>
        <time>2022-09-02T08:56:03Z</time>
      </trkpt>
      <trkpt lat="47.91788" lon="6.81835">
        <ele>812.9</ele>
        <time>2022-09-02T08:56:04Z</time>
      </trkpt>
      <trkpt lat="47.91788" lon="6.81833">
        <ele>812.6</ele>
        <time>2022-09-02T08:56:05Z</time>
      </trkpt>
      <trkpt lat="47.91788" lon="6.81832">
        <ele>812.5</ele>
        <time>2022-09-02T08:56:06Z</time>
      </trkpt>
      <trkpt lat="47.91787" lon="6.8183">
        <ele>812.5</ele>
        <time>2022-09-02T08:56:07Z</time>
      </trkpt>
      <trkpt lat="47.91787" lon="6.81829">
        <ele>812.3</ele>
        <time>2022-09-02T08:56:08Z</time>
      </trkpt>
      <trkpt lat="47.91786" lon="6.81827">
        <ele>812.3</ele>
        <time>2022-09-02T08:56:09Z</time>
      </trkpt>
      <trkpt lat="47.91786" lon="6.81826">
        <ele>812.1</ele>
        <time>2022-09-02T08:56:10Z</time>
      </trkpt>
      <trkpt lat="47.91785" lon="6.81824">
        <ele>812.1</ele>
        <time>2022-09-02T08:56:11Z</time>
      </trkpt>
      <trkpt lat="47.91785" lon="6.81823">
        <ele>811.9</ele>
        <time>2022-09-02T08:56:12Z</time>
      </trkpt>
      <trkpt lat="47.91784" lon="6.81821">
        <ele>811.9</ele>
        <time>2022-09-02T08:56:13Z</time>
      </trkpt>
      <trkpt lat="47.91784" lon="6.8182">
        <ele>811.7</ele>
        <time>2022-09-02T08:56:14Z</time>
      </trkpt>
      <trkpt lat="47.91783" lon="6.81819">
        <ele>811.8</ele>
        <time>2022-09-02T08:56:15Z</time>
      </trkpt>
      <trkpt lat="47.91783" lon="6.81817">
        <ele>811.5</ele>
        <time>2022-09-02T08:56:16Z</time>
      </trkpt>
      <trkpt lat="47.91782" lon="6.81816">
        <ele>811.6</ele>
        <time>2022-09-02T08:56:17Z</time>
      </trkpt>
      <trkpt lat="47.91781" lon="6.81815">
        <ele>811.7</ele>
        <time>2022-09-02T08:56:18Z</time>
      </trkpt>
      <trkpt lat="47.91781" lon="6.81813">
        <ele>811.4</ele>
        <time>2022-09-02T08:56:19Z</time>
      </trkpt>
      <trkpt lat="47.9178" lon="6.81812">
        <ele>811.5</ele>
        <time>2022-09-02T08:56:20Z</time>
      </trkpt>
      <trkpt lat="47.9178" lon="6.81811">
        <ele>811.3</ele>
        <time>2022-09-02T08:56:21Z</time>
      </trkpt>
      <trkpt lat="47.91779" lon="6.81809">
        <ele>811.3</ele>
        <time>2022-09-02T08:56:22Z</time>
      </trkpt>
      <trkpt lat="47.91779" lon="6.81808">
        <ele>811.1</ele>
        <time>2022-09-02T08:56:23Z</time>
      </trkpt>
      <trkpt lat="47.91778" lon="6.81807">
        <ele>811.2</ele>
        <time>2022-09-02T08:56:24Z</time>
      </trkpt>
      <trkpt lat="47.91778" lon="6.81805">
        <ele>810.9</ele>
        <time>2022-09-02T08:56:25Z</time>
      </trkpt>
      <trkpt lat="47.91777" lon="6.81804">
        <ele>811.1</ele>
        <time>2022-09-02T08:56:26Z</time>
      </trkpt>
      <trkpt lat="47.91777" lon="6.81802">
        <ele>810.9</ele>
        <time>2022-09-02T08:56:27Z</time>
      </trkpt>
      <trkpt lat="47.91776" lon="6.818">
        <ele>811</ele>
        <time>2022-09-02T08:56:28Z</time>
      </trkpt>
      <trkpt lat="47.91775" lon="6.81799">
        <ele>811.2</ele>
        <time>2022-09-02T08:56:29Z</time>
      </trkpt>
      <trkpt lat="47.91775" lon="6.81797">
        <ele>810.9</ele>
        <time>2022-09-02T08:56:30Z</time>
      </trkpt>
      <trkpt lat="47.91774" lon="6.81796">
        <ele>811.1</ele>
        <time>2022-09-02T08:56:31Z</time>
      </trkpt>
      <trkpt lat="47.91774" lon="6.81794">
        <ele>810.9</ele>
        <time>2022-09-02T08:56:32Z</time>
      </trkpt>
      <trkpt lat="47.91773" lon="6.81793">
        <ele>811.1</ele>
        <time>2022-09-02T08:56:33Z</time>
      </trkpt>
      <trkpt lat="47.91773" lon="6.81792">
        <ele>811</ele>
        <time>2022-09-02T08:56:34Z</time>
      </trkpt>
      <trkpt lat="47.91773" lon="6.8179">
        <ele>810.8</ele>
        <time>2022-09-02T08:56:35Z</time>
      </trkpt>
      <trkpt lat="47.91772" lon="6.81789">
        <ele>811</ele>
        <time>2022-09-02T08:56:36Z</time>
      </trkpt>
      <trkpt lat="47.91772" lon="6.81788">
        <ele>810.8</ele>
        <time>2022-09-02T08:56:37Z</time>
      </trkpt>
      <trkpt lat="47.91772" lon="6.81786">
        <ele>810.6</ele>
        <time>2022-09-02T08:56:38Z</time>
      </trkpt>
      <trkpt lat="47.91771" lon="6.81785">
        <ele>810.8</ele>
        <time>2022-09-02T08:56:39Z</time>
      </trkpt>
      <trkpt lat="47.91771" lon="6.81784">
        <ele>810.7</ele>
        <time>2022-09-02T08:56:40Z</time>
      </trkpt>
      <trkpt lat="47.91771" lon="6.81782">
        <ele>810.4</ele>
        <time>2022-09-02T08:56:41Z</time>
      </trkpt>
      <trkpt lat="47.91771" lon="6.81781">
        <ele>810.3</ele>
        <time>2022-09-02T08:56:42Z</time>
      </trkpt>
      <trkpt lat="47.9177" lon="6.81779">
        <ele>810.4</ele>
        <time>2022-09-02T08:56:43Z</time>
      </trkpt>
      <trkpt lat="47.9177" lon="6.81778">
        <ele>810.3</ele>
        <time>2022-09-02T08:56:44Z</time>
      </trkpt>
      <trkpt lat="47.9177" lon="6.81776">
        <ele>810</ele>
        <time>2022-09-02T08:56:45Z</time>
      </trkpt>
      <trkpt lat="47.9177" lon="6.81775">
        <ele>809.9</ele>
        <time>2022-09-02T08:56:46Z</time>
      </trkpt>
      <trkpt lat="47.91769" lon="6.81774">
        <ele>810</ele>
        <time>2022-09-02T08:56:47Z</time>
      </trkpt>
      <trkpt lat="47.91769" lon="6.81772">
        <ele>809.8</ele>
        <time>2022-09-02T08:56:48Z</time>
      </trkpt>
      <trkpt lat="47.91769" lon="6.81771">
        <ele>809.6</ele>
        <time>2022-09-02T08:56:49Z</time>
      </trkpt>
      <trkpt lat="47.91768" lon="6.81769">
        <ele>809.7</ele>
        <time>2022-09-02T08:56:50Z</time>
      </trkpt>
      <trkpt lat="47.91768" lon="6.81768">
        <ele>809.5</ele>
        <time>2022-09-02T08:56:51Z</time>
      </trkpt>
      <trkpt lat="47.91767" lon="6.81766">
        <ele>809.6</ele>
        <time>2022-09-02T08:56:52Z</time>
      </trkpt>
      <trkpt lat="47.91767" lon="6.81765">
        <ele>809.4</ele>
        <time>2022-09-02T08:56:53Z</time>
      </trkpt>
      <trkpt lat="47.91767" lon="6.81763">
        <ele>809.2</ele>
        <time>2022-09-02T08:56:54Z</time>
      </trkpt>
      <trkpt lat="47.91766" lon="6.81762">
        <ele>809.4</ele>
        <time>2022-09-02T08:56:55Z</time>
      </trkpt>
      <trkpt lat="47.91766" lon="6.8176">
        <ele>809.1</ele>
        <time>2022-09-02T08:56:56Z</time>
      </trkpt>
      <trkpt lat="47.91766" lon="6.81759">
        <ele>809</ele>
        <time>2022-09-02T08:56:57Z</time>
      </trkpt>
      <trkpt lat="47.91766" lon="6.81757">
        <ele>808.7</ele>
        <time>2022-09-02T08:56:58Z</time>
      </trkpt>
      <trkpt lat="47.91765" lon="6.81756">
        <ele>808.9</ele>
        <time>2022-09-02T08:56:59Z</time>
      </trkpt>
      <trkpt lat="47.91765" lon="6.81755">
        <ele>808.8</ele>
        <time>2022-09-02T08:57:00Z</time>
      </trkpt>
      <trkpt lat="47.91765" lon="6.81753">
        <ele>808.5</ele>
        <time>2022-09-02T08:57:01Z</time>
      </trkpt>
      <trkpt lat="47.91765" lon="6.81752">
        <ele>808.4</ele>
        <time>2022-09-02T08:57:02Z</time>
      </trkpt>
      <trkpt lat="47.91764" lon="6.8175">
        <ele>808.5</ele>
        <time>2022-09-02T08:57:03Z</time>
      </trkpt>
      <trkpt lat="47.91764" lon="6.81749">
        <ele>808.3</ele>
        <time>2022-09-02T08:57:04Z</time>
      </trkpt>
      <trkpt lat="47.91764" lon="6.81747">
        <ele>808</ele>
        <time>2022-09-02T08:57:05Z</time>
      </trkpt>
      <trkpt lat="47.91763" lon="6.81746">
        <ele>808.2</ele>
        <time>2022-09-02T08:57:06Z</time>
      </trkpt>
      <trkpt lat="47.91763" lon="6.81745">
        <ele>808.1</ele>
        <time>2022-09-02T08:57:07Z</time>
      </trkpt>
      <trkpt lat="47.91763" lon="6.81744">
        <ele>807.9</ele>
        <time>2022-09-02T08:57:08Z</time>
      </trkpt>
      <trkpt lat="47.91762" lon="6.81742">
        <ele>807.9</ele>
        <time>2022-09-02T08:57:09Z</time>
      </trkpt>
      <trkpt lat="47.91762" lon="6.81741">
        <ele>807.8</ele>
        <time>2022-09-02T08:57:10Z</time>
      </trkpt>
      <trkpt lat="47.91762" lon="6.8174">
        <ele>807.6</ele>
        <time>2022-09-02T08:57:11Z</time>
      </trkpt>
      <trkpt lat="47.91761" lon="6.81738">
        <ele>807.6</ele>
        <time>2022-09-02T08:57:12Z</time>
      </trkpt>
      <trkpt lat="47.91761" lon="6.81737">
        <ele>807.5</ele>
        <time>2022-09-02T08:57:13Z</time>
      </trkpt>
      <trkpt lat="47.91761" lon="6.81736">
        <ele>807.3</ele>
        <time>2022-09-02T08:57:14Z</time>
      </trkpt>
      <trkpt lat="47.91761" lon="6.81734">
        <ele>807</ele>
        <time>2022-09-02T08:57:15Z</time>
      </trkpt>
      <trkpt lat="47.9176" lon="6.81733">
        <ele>807.1</ele>
        <time>2022-09-02T08:57:16Z</time>
      </trkpt>
      <trkpt lat="47.9176" lon="6.81731">
        <ele>806.8</ele>
        <time>2022-09-02T08:57:17Z</time>
      </trkpt>
      <trkpt lat="47.9176" lon="6.8173">
        <ele>806.7</ele>
        <time>2022-09-02T08:57:18Z</time>
      </trkpt>
      <trkpt lat="47.9176" lon="6.81728">
        <ele>806.4</ele>
        <time>2022-09-02T08:57:19Z</time>
      </trkpt>
      <trkpt lat="47.91759" lon="6.81727">
        <ele>806.5</ele>
        <time>2022-09-02T08:57:20Z</time>
      </trkpt>
      <trkpt lat="47.91759" lon="6.81725">
        <ele>806.2</ele>
        <time>2022-09-02T08:57:21Z</time>
      </trkpt>
      <trkpt lat="47.91759" lon="6.81724">
        <ele>806</ele>
        <time>2022-09-02T08:57:22Z</time>
      </trkpt>
      <trkpt lat="47.91759" lon="6.81722">
        <ele>805.7</ele>
        <time>2022-09-02T08:57:23Z</time>
      </trkpt>
      <trkpt lat="47.91758" lon="6.81721">
        <ele>805.8</ele>
        <time>2022-09-02T08:57:24Z</time>
      </trkpt>
      <trkpt lat="47.91758" lon="6.81719">
        <ele>805.4</ele>
        <time>2022-09-02T08:57:25Z</time>
      </trkpt>
      <trkpt lat="47.91758" lon="6.81718">
        <ele>805.3</ele>
        <time>2022-09-02T08:57:26Z</time>
      </trkpt>
      <trkpt lat="47.91758" lon="6.81716">
        <ele>804.9</ele>
        <time>2022-09-02T08:57:27Z</time>
      </trkpt>
      <trkpt lat="47.91757" lon="6.81715">
        <ele>805</ele>
        <time>2022-09-02T08:57:28Z</time>
      </trkpt>
      <trkpt lat="47.91757" lon="6.81714">
        <ele>804.8</ele>
        <time>2022-09-02T08:57:29Z</time>
      </trkpt>
      <trkpt lat="47.91757" lon="6.81712">
        <ele>804.5</ele>
        <time>2022-09-02T08:57:30Z</time>
      </trkpt>
      <trkpt lat="47.91756" lon="6.81711">
        <ele>804.6</ele>
        <time>2022-09-02T08:57:31Z</time>
      </trkpt>
      <trkpt lat="47.91756" lon="6.8171">
        <ele>804.4</ele>
        <time>2022-09-02T08:57:32Z</time>
      </trkpt>
      <trkpt lat="47.91756" lon="6.81708">
        <ele>804</ele>
        <time>2022-09-02T08:57:33Z</time>
      </trkpt>
      <trkpt lat="47.91755" lon="6.81707">
        <ele>804.1</ele>
        <time>2022-09-02T08:57:34Z</time>
      </trkpt>
      <trkpt lat="47.91755" lon="6.81706">
        <ele>803.9</ele>
        <time>2022-09-02T08:57:35Z</time>
      </trkpt>
      <trkpt lat="47.91755" lon="6.81704">
        <ele>803.6</ele>
        <time>2022-09-02T08:57:36Z</time>
      </trkpt>
      <trkpt lat="47.91754" lon="6.81703">
        <ele>803.6</ele>
        <time>2022-09-02T08:57:37Z</time>
      </trkpt>
      <trkpt lat="47.91754" lon="6.81702">
        <ele>803.5</ele>
        <time>2022-09-02T08:57:38Z</time>
      </trkpt>
      <trkpt lat="47.91754" lon="6.81701">
        <ele>803.3</ele>
        <time>2022-09-02T08:57:39Z</time>
      </trkpt>
      <trkpt lat="47.91753" lon="6.817">
        <ele>803.3</ele>
        <time>2022-09-02T08:57:40Z</time>
      </trkpt>
      <trkpt lat="47.91753" lon="6.81698">
        <ele>803</ele>
        <time>2022-09-02T08:57:41Z</time>
      </trkpt>
      <trkpt lat="47.91753" lon="6.81697">
        <ele>802.8</ele>
        <time>2022-09-02T08:57:42Z</time>
      </trkpt>
      <trkpt lat="47.91752" lon="6.81696">
        <ele>802.8</ele>
        <time>2022-09-02T08:57:43Z</time>
      </trkpt>
      <trkpt lat="47.91752" lon="6.81695">
        <ele>802.7</ele>
        <time>2022-09-02T08:57:44Z</time>
      </trkpt>
      <trkpt lat="47.91752" lon="6.81693">
        <ele>802.4</ele>
        <time>2022-09-02T08:57:45Z</time>
      </trkpt>
      <trkpt lat="47.91751" lon="6.81692">
        <ele>802.4</ele>
        <time>2022-09-02T08:57:46Z</time>
      </trkpt>
      <trkpt lat="47.91751" lon="6.8169">
        <ele>802.1</ele>
        <time>2022-09-02T08:57:47Z</time>
      </trkpt>
      <trkpt lat="47.91751" lon="6.81689">
        <ele>802</ele>
        <time>2022-09-02T08:57:48Z</time>
      </trkpt>
      <trkpt lat="47.91751" lon="6.81687">
        <ele>801.7</ele>
        <time>2022-09-02T08:57:49Z</time>
      </trkpt>
      <trkpt lat="47.9175" lon="6.81686">
        <ele>801.8</ele>
        <time>2022-09-02T08:57:50Z</time>
      </trkpt>
      <trkpt lat="47.9175" lon="6.81685">
        <ele>801.6</ele>
        <time>2022-09-02T08:57:51Z</time>
      </trkpt>
      <trkpt lat="47.9175" lon="6.81683">
        <ele>801.4</ele>
        <time>2022-09-02T08:57:52Z</time>
      </trkpt>
      <trkpt lat="47.91749" lon="6.81682">
        <ele>801.5</ele>
        <time>2022-09-02T08:57:53Z</time>
      </trkpt>
      <trkpt lat="47.91749" lon="6.81681">
        <ele>801.4</ele>
        <time>2022-09-02T08:57:54Z</time>
      </trkpt>
      <trkpt lat="47.91749" lon="6.81679">
        <ele>801.1</ele>
        <time>2022-09-02T08:57:55Z</time>
      </trkpt>
      <trkpt lat="47.91748" lon="6.81678">
        <ele>801.2</ele>
        <time>2022-09-02T08:57:56Z</time>
      </trkpt>
      <trkpt lat="47.91748" lon="6.81677">
        <ele>801.1</ele>
        <time>2022-09-02T08:57:57Z</time>
      </trkpt>
      <trkpt lat="47.91748" lon="6.81676">
        <ele>800.9</ele>
        <time>2022-09-02T08:57:58Z</time>
      </trkpt>
      <trkpt lat="47.91747" lon="6.81674">
        <ele>800.9</ele>
        <time>2022-09-02T08:57:59Z</time>
      </trkpt>
      <trkpt lat="47.91747" lon="6.81673">
        <ele>800.8</ele>
        <time>2022-09-02T08:58:00Z</time>
      </trkpt>
      <trkpt lat="47.91746" lon="6.81672">
        <ele>800.9</ele>
        <time>2022-09-02T08:58:01Z</time>
      </trkpt>
      <trkpt lat="47.91746" lon="6.81671">
        <ele>800.8</ele>
        <time>2022-09-02T08:58:02Z</time>
      </trkpt>
      <trkpt lat="47.91746" lon="6.81669">
        <ele>800.5</ele>
        <time>2022-09-02T08:58:03Z</time>
      </trkpt>
      <trkpt lat="47.91745" lon="6.81668">
        <ele>800.6</ele>
        <time>2022-09-02T08:58:04Z</time>
      </trkpt>
      <trkpt lat="47.91745" lon="6.81666">
        <ele>800.4</ele>
        <time>2022-09-02T08:58:05Z</time>
      </trkpt>
      <trkpt lat="47.91744" lon="6.81665">
        <ele>800.5</ele>
        <time>2022-09-02T08:58:06Z</time>
      </trkpt>
      <trkpt lat="47.91744" lon="6.81663">
        <ele>800.3</ele>
        <time>2022-09-02T08:58:07Z</time>
      </trkpt>
      <trkpt lat="47.91744" lon="6.81662">
        <ele>800.2</ele>
        <time>2022-09-02T08:58:08Z</time>
      </trkpt>
      <trkpt lat="47.91743" lon="6.81661">
        <ele>800.4</ele>
        <time>2022-09-02T08:58:09Z</time>
      </trkpt>
      <trkpt lat="47.91743" lon="6.81659">
        <ele>800.1</ele>
        <time>2022-09-02T08:58:10Z</time>
      </trkpt>
      <trkpt lat="47.91743" lon="6.81658">
        <ele>800</ele>
        <time>2022-09-02T08:58:11Z</time>
      </trkpt>
      <trkpt lat="47.91742" lon="6.81656">
        <ele>800</ele>
        <time>2022-09-02T08:58:12Z</time>
      </trkpt>
      <trkpt lat="47.91742" lon="6.81655">
        <ele>799.9</ele>
        <time>2022-09-02T08:58:13Z</time>
      </trkpt>
      <trkpt lat="47.91742" lon="6.81653">
        <ele>799.7</ele>
        <time>2022-09-02T08:58:14Z</time>
      </trkpt>
      <trkpt lat="47.91741" lon="6.81652">
        <ele>799.8</ele>
        <time>2022-09-02T08:58:15Z</time>
      </trkpt>
      <trkpt lat="47.91741" lon="6.8165">
        <ele>799.6</ele>
        <time>2022-09-02T08:58:16Z</time>
      </trkpt>
      <trkpt lat="47.9174" lon="6.81649">
        <ele>799.7</ele>
        <time>2022-09-02T08:58:17Z</time>
      </trkpt>
      <trkpt lat="47.9174" lon="6.81647">
        <ele>799.5</ele>
        <time>2022-09-02T08:58:18Z</time>
      </trkpt>
      <trkpt lat="47.9174" lon="6.81646">
        <ele>799.4</ele>
        <time>2022-09-02T08:58:19Z</time>
      </trkpt>
      <trkpt lat="47.91739" lon="6.81644">
        <ele>799.4</ele>
        <time>2022-09-02T08:58:20Z</time>
      </trkpt>
      <trkpt lat="47.91739" lon="6.81643">
        <ele>799.3</ele>
        <time>2022-09-02T08:58:21Z</time>
      </trkpt>
      <trkpt lat="47.91739" lon="6.81641">
        <ele>799</ele>
        <time>2022-09-02T08:58:22Z</time>
      </trkpt>
      <trkpt lat="47.91738" lon="6.8164">
        <ele>799.2</ele>
        <time>2022-09-02T08:58:23Z</time>
      </trkpt>
      <trkpt lat="47.91738" lon="6.81638">
        <ele>798.9</ele>
        <time>2022-09-02T08:58:24Z</time>
      </trkpt>
      <trkpt lat="47.91738" lon="6.81637">
        <ele>798.7</ele>
        <time>2022-09-02T08:58:25Z</time>
      </trkpt>
      <trkpt lat="47.91737" lon="6.81635">
        <ele>798.7</ele>
        <time>2022-09-02T08:58:26Z</time>
      </trkpt>
      <trkpt lat="47.91737" lon="6.81634">
        <ele>798.5</ele>
        <time>2022-09-02T08:58:27Z</time>
      </trkpt>
      <trkpt lat="47.91737" lon="6.81632">
        <ele>798.2</ele>
        <time>2022-09-02T08:58:28Z</time>
      </trkpt>
      <trkpt lat="47.91736" lon="6.81631">
        <ele>798.2</ele>
        <time>2022-09-02T08:58:29Z</time>
      </trkpt>
      <trkpt lat="47.91736" lon="6.81629">
        <ele>797.9</ele>
        <time>2022-09-02T08:58:30Z</time>
      </trkpt>
      <trkpt lat="47.91736" lon="6.81628">
        <ele>797.8</ele>
        <time>2022-09-02T08:58:31Z</time>
      </trkpt>
      <trkpt lat="47.91736" lon="6.81626">
        <ele>797.4</ele>
        <time>2022-09-02T08:58:32Z</time>
      </trkpt>
      <trkpt lat="47.91735" lon="6.81625">
        <ele>797.5</ele>
        <time>2022-09-02T08:58:33Z</time>
      </trkpt>
      <trkpt lat="47.91735" lon="6.81623">
        <ele>797.2</ele>
        <time>2022-09-02T08:58:34Z</time>
      </trkpt>
      <trkpt lat="47.91735" lon="6.81621">
        <ele>796.9</ele>
        <time>2022-09-02T08:58:35Z</time>
      </trkpt>
      <trkpt lat="47.91735" lon="6.8162">
        <ele>796.7</ele>
        <time>2022-09-02T08:58:36Z</time>
      </trkpt>
      <trkpt lat="47.91735" lon="6.81618">
        <ele>796.4</ele>
        <time>2022-09-02T08:58:37Z</time>
      </trkpt>
      <trkpt lat="47.91734" lon="6.81617">
        <ele>796.4</ele>
        <time>2022-09-02T08:58:38Z</time>
      </trkpt>
      <trkpt lat="47.91734" lon="6.81615">
        <ele>796.1</ele>
        <time>2022-09-02T08:58:39Z</time>
      </trkpt>
      <trkpt lat="47.91734" lon="6.81614">
        <ele>795.9</ele>
        <time>2022-09-02T08:58:40Z</time>
      </trkpt>
      <trkpt lat="47.91734" lon="6.81612">
        <ele>795.6</ele>
        <time>2022-09-02T08:58:41Z</time>
      </trkpt>
      <trkpt lat="47.91733" lon="6.81611">
        <ele>795.7</ele>
        <time>2022-09-02T08:58:42Z</time>
      </trkpt>
      <trkpt lat="47.91733" lon="6.81609">
        <ele>795.4</ele>
        <time>2022-09-02T08:58:43Z</time>
      </trkpt>
      <trkpt lat="47.91733" lon="6.81607">
        <ele>795.2</ele>
        <time>2022-09-02T08:58:44Z</time>
      </trkpt>
      <trkpt lat="47.91733" lon="6.81606">
        <ele>795.1</ele>
        <time>2022-09-02T08:58:45Z</time>
      </trkpt>
      <trkpt lat="47.91733" lon="6.81604">
        <ele>794.9</ele>
        <time>2022-09-02T08:58:46Z</time>
      </trkpt>
      <trkpt lat="47.91733" lon="6.81603">
        <ele>794.8</ele>
        <time>2022-09-02T08:58:47Z</time>
      </trkpt>
      <trkpt lat="47.91733" lon="6.81601">
        <ele>794.6</ele>
        <time>2022-09-02T08:58:48Z</time>
      </trkpt>
      <trkpt lat="47.91733" lon="6.816">
        <ele>794.5</ele>
        <time>2022-09-02T08:58:49Z</time>
      </trkpt>
      <trkpt lat="47.91732" lon="6.81598">
        <ele>794.5</ele>
        <time>2022-09-02T08:58:50Z</time>
      </trkpt>
      <trkpt lat="47.91732" lon="6.81597">
        <ele>794.4</ele>
        <time>2022-09-02T08:58:51Z</time>
      </trkpt>
      <trkpt lat="47.91732" lon="6.81595">
        <ele>794.1</ele>
        <time>2022-09-02T08:58:52Z</time>
      </trkpt>
      <trkpt lat="47.91732" lon="6.81594">
        <ele>794</ele>
        <time>2022-09-02T08:58:53Z</time>
      </trkpt>
      <trkpt lat="47.91732" lon="6.81592">
        <ele>793.8</ele>
        <time>2022-09-02T08:58:54Z</time>
      </trkpt>
      <trkpt lat="47.91731" lon="6.81591">
        <ele>793.9</ele>
        <time>2022-09-02T08:58:55Z</time>
      </trkpt>
      <trkpt lat="47.91731" lon="6.81589">
        <ele>793.7</ele>
        <time>2022-09-02T08:58:56Z</time>
      </trkpt>
      <trkpt lat="47.91731" lon="6.81588">
        <ele>793.6</ele>
        <time>2022-09-02T08:58:57Z</time>
      </trkpt>
      <trkpt lat="47.91731" lon="6.81586">
        <ele>793.4</ele>
        <time>2022-09-02T08:58:58Z</time>
      </trkpt>
      <trkpt lat="47.91731" lon="6.81585">
        <ele>793.3</ele>
        <time>2022-09-02T08:58:59Z</time>
      </trkpt>
      <trkpt lat="47.91731" lon="6.81583">
        <ele>793.1</ele>
        <time>2022-09-02T08:59:00Z</time>
      </trkpt>
      <trkpt lat="47.91731" lon="6.81582">
        <ele>792.9</ele>
        <time>2022-09-02T08:59:01Z</time>
      </trkpt>
      <trkpt lat="47.91731" lon="6.8158">
        <ele>792.6</ele>
        <time>2022-09-02T08:59:02Z</time>
      </trkpt>
      <trkpt lat="47.91731" lon="6.81579">
        <ele>792.4</ele>
        <time>2022-09-02T08:59:03Z</time>
      </trkpt>
      <trkpt lat="47.91731" lon="6.81577">
        <ele>792.1</ele>
        <time>2022-09-02T08:59:04Z</time>
      </trkpt>
      <trkpt lat="47.9173" lon="6.81576">
        <ele>792.2</ele>
        <time>2022-09-02T08:59:05Z</time>
      </trkpt>
      <trkpt lat="47.9173" lon="6.81574">
        <ele>791.9</ele>
        <time>2022-09-02T08:59:06Z</time>
      </trkpt>
      <trkpt lat="47.9173" lon="6.81573">
        <ele>791.7</ele>
        <time>2022-09-02T08:59:07Z</time>
      </trkpt>
      <trkpt lat="47.9173" lon="6.81571">
        <ele>791.4</ele>
        <time>2022-09-02T08:59:08Z</time>
      </trkpt>
      <trkpt lat="47.9173" lon="6.8157">
        <ele>791.3</ele>
        <time>2022-09-02T08:59:09Z</time>
      </trkpt>
      <trkpt lat="47.9173" lon="6.81568">
        <ele>791</ele>
        <time>2022-09-02T08:59:10Z</time>
      </trkpt>
      <trkpt lat="47.91729" lon="6.81567">
        <ele>791</ele>
        <time>2022-09-02T08:59:11Z</time>
      </trkpt>
      <trkpt lat="47.91729" lon="6.81565">
        <ele>790.7</ele>
        <time>2022-09-02T08:59:12Z</time>
      </trkpt>
      <trkpt lat="47.91729" lon="6.81564">
        <ele>790.6</ele>
        <time>2022-09-02T08:59:13Z</time>
      </trkpt>
      <trkpt lat="47.91729" lon="6.81562">
        <ele>790.3</ele>
        <time>2022-09-02T08:59:14Z</time>
      </trkpt>
      <trkpt lat="47.91729" lon="6.81561">
        <ele>790.1</ele>
        <time>2022-09-02T08:59:15Z</time>
      </trkpt>
      <trkpt lat="47.91728" lon="6.81559">
        <ele>790.1</ele>
        <time>2022-09-02T08:59:16Z</time>
      </trkpt>
      <trkpt lat="47.91728" lon="6.81558">
        <ele>789.9</ele>
        <time>2022-09-02T08:59:17Z</time>
      </trkpt>
      <trkpt lat="47.91728" lon="6.81557">
        <ele>789.8</ele>
        <time>2022-09-02T08:59:18Z</time>
      </trkpt>
      <trkpt lat="47.91727" lon="6.81555">
        <ele>789.7</ele>
        <time>2022-09-02T08:59:19Z</time>
      </trkpt>
      <trkpt lat="47.91727" lon="6.81554">
        <ele>789.6</ele>
        <time>2022-09-02T08:59:20Z</time>
      </trkpt>
      <trkpt lat="47.91727" lon="6.81552">
        <ele>789.4</ele>
        <time>2022-09-02T08:59:21Z</time>
      </trkpt>
      <trkpt lat="47.91726" lon="6.81551">
        <ele>789.5</ele>
        <time>2022-09-02T08:59:22Z</time>
      </trkpt>
      <trkpt lat="47.91726" lon="6.8155">
        <ele>789.4</ele>
        <time>2022-09-02T08:59:23Z</time>
      </trkpt>
      <trkpt lat="47.91725" lon="6.81548">
        <ele>789.5</ele>
        <time>2022-09-02T08:59:24Z</time>
      </trkpt>
      <trkpt lat="47.91725" lon="6.81547">
        <ele>789.3</ele>
        <time>2022-09-02T08:59:25Z</time>
      </trkpt>
      <trkpt lat="47.91725" lon="6.81545">
        <ele>789.1</ele>
        <time>2022-09-02T08:59:26Z</time>
      </trkpt>
      <trkpt lat="47.91724" lon="6.81544">
        <ele>789.3</ele>
        <time>2022-09-02T08:59:27Z</time>
      </trkpt>
      <trkpt lat="47.91724" lon="6.81542">
        <ele>789.1</ele>
        <time>2022-09-02T08:59:28Z</time>
      </trkpt>
      <trkpt lat="47.91724" lon="6.81541">
        <ele>788.9</ele>
        <time>2022-09-02T08:59:29Z</time>
      </trkpt>
      <trkpt lat="47.91723" lon="6.8154">
        <ele>789.1</ele>
        <time>2022-09-02T08:59:30Z</time>
      </trkpt>
      <trkpt lat="47.91723" lon="6.81538">
        <ele>788.9</ele>
        <time>2022-09-02T08:59:31Z</time>
      </trkpt>
      <trkpt lat="47.91723" lon="6.81537">
        <ele>788.8</ele>
        <time>2022-09-02T08:59:32Z</time>
      </trkpt>
      <trkpt lat="47.91722" lon="6.81535">
        <ele>788.8</ele>
        <time>2022-09-02T08:59:33Z</time>
      </trkpt>
      <trkpt lat="47.91722" lon="6.81534">
        <ele>788.7</ele>
        <time>2022-09-02T08:59:34Z</time>
      </trkpt>
      <trkpt lat="47.91721" lon="6.81532">
        <ele>788.7</ele>
        <time>2022-09-02T08:59:35Z</time>
      </trkpt>
      <trkpt lat="47.91721" lon="6.81531">
        <ele>788.6</ele>
        <time>2022-09-02T08:59:36Z</time>
      </trkpt>
      <trkpt lat="47.91721" lon="6.81529">
        <ele>788.4</ele>
        <time>2022-09-02T08:59:37Z</time>
      </trkpt>
      <trkpt lat="47.9172" lon="6.81528">
        <ele>788.5</ele>
        <time>2022-09-02T08:59:38Z</time>
      </trkpt>
      <trkpt lat="47.9172" lon="6.81527">
        <ele>788.4</ele>
        <time>2022-09-02T08:59:39Z</time>
      </trkpt>
      <trkpt lat="47.91719" lon="6.81525">
        <ele>788.3</ele>
        <time>2022-09-02T08:59:40Z</time>
      </trkpt>
      <trkpt lat="47.91719" lon="6.81524">
        <ele>788.1</ele>
        <time>2022-09-02T08:59:41Z</time>
      </trkpt>
      <trkpt lat="47.91719" lon="6.81523">
        <ele>788</ele>
        <time>2022-09-02T08:59:42Z</time>
      </trkpt>
      <trkpt lat="47.91718" lon="6.81521">
        <ele>787.9</ele>
        <time>2022-09-02T08:59:43Z</time>
      </trkpt>
      <trkpt lat="47.91718" lon="6.8152">
        <ele>787.7</ele>
        <time>2022-09-02T08:59:44Z</time>
      </trkpt>
      <trkpt lat="47.91717" lon="6.81518">
        <ele>787.7</ele>
        <time>2022-09-02T08:59:45Z</time>
      </trkpt>
      <trkpt lat="47.91717" lon="6.81517">
        <ele>787.5</ele>
        <time>2022-09-02T08:59:46Z</time>
      </trkpt>
      <trkpt lat="47.91717" lon="6.81516">
        <ele>787.4</ele>
        <time>2022-09-02T08:59:47Z</time>
      </trkpt>
      <trkpt lat="47.91716" lon="6.81514">
        <ele>787.2</ele>
        <time>2022-09-02T08:59:48Z</time>
      </trkpt>
      <trkpt lat="47.91716" lon="6.81513">
        <ele>787.1</ele>
        <time>2022-09-02T08:59:49Z</time>
      </trkpt>
      <trkpt lat="47.91715" lon="6.81511">
        <ele>787</ele>
        <time>2022-09-02T08:59:50Z</time>
      </trkpt>
      <trkpt lat="47.91715" lon="6.8151">
        <ele>786.8</ele>
        <time>2022-09-02T08:59:51Z</time>
      </trkpt>
      <trkpt lat="47.91714" lon="6.81508">
        <ele>786.7</ele>
        <time>2022-09-02T08:59:52Z</time>
      </trkpt>
      <trkpt lat="47.91714" lon="6.81507">
        <ele>786.6</ele>
        <time>2022-09-02T08:59:53Z</time>
      </trkpt>
      <trkpt lat="47.91713" lon="6.81506">
        <ele>786.6</ele>
        <time>2022-09-02T08:59:54Z</time>
      </trkpt>
      <trkpt lat="47.91713" lon="6.81504">
        <ele>786.3</ele>
        <time>2022-09-02T08:59:55Z</time>
      </trkpt>
      <trkpt lat="47.91713" lon="6.81503">
        <ele>786.1</ele>
        <time>2022-09-02T08:59:56Z</time>
      </trkpt>
      <trkpt lat="47.91712" lon="6.81502">
        <ele>786.2</ele>
        <time>2022-09-02T08:59:57Z</time>
      </trkpt>
      <trkpt lat="47.91712" lon="6.815">
        <ele>785.8</ele>
        <time>2022-09-02T08:59:58Z</time>
      </trkpt>
      <trkpt lat="47.91711" lon="6.81499">
        <ele>785.9</ele>
        <time>2022-09-02T08:59:59Z</time>
      </trkpt>
      <trkpt lat="47.91711" lon="6.81497">
        <ele>785.6</ele>
        <time>2022-09-02T09:00:00Z</time>
      </trkpt>
      <trkpt lat="47.91711" lon="6.81496">
        <ele>785.4</ele>
        <time>2022-09-02T09:00:01Z</time>
      </trkpt>
      <trkpt lat="47.9171" lon="6.81495">
        <ele>785.5</ele>
        <time>2022-09-02T09:00:02Z</time>
      </trkpt>
      <trkpt lat="47.9171" lon="6.81493">
        <ele>785.2</ele>
        <time>2022-09-02T09:00:03Z</time>
      </trkpt>
      <trkpt lat="47.9171" lon="6.81492">
        <ele>785</ele>
        <time>2022-09-02T09:00:04Z</time>
      </trkpt>
      <trkpt lat="47.91709" lon="6.81491">
        <ele>785.1</ele>
        <time>2022-09-02T09:00:05Z</time>
      </trkpt>
      <trkpt lat="47.91709" lon="6.81489">
        <ele>784.8</ele>
        <time>2022-09-02T09:00:06Z</time>
      </trkpt>
      <trkpt lat="47.91709" lon="6.81488">
        <ele>784.7</ele>
        <time>2022-09-02T09:00:07Z</time>
      </trkpt>
      <trkpt lat="47.91708" lon="6.81487">
        <ele>784.7</ele>
        <time>2022-09-02T09:00:08Z</time>
      </trkpt>
      <trkpt lat="47.91708" lon="6.81485">
        <ele>784.4</ele>
        <time>2022-09-02T09:00:09Z</time>
      </trkpt>
      <trkpt lat="47.91708" lon="6.81484">
        <ele>784.3</ele>
        <time>2022-09-02T09:00:10Z</time>
      </trkpt>
      <trkpt lat="47.91708" lon="6.81482">
        <ele>784</ele>
        <time>2022-09-02T09:00:11Z</time>
      </trkpt>
      <trkpt lat="47.91707" lon="6.81481">
        <ele>784</ele>
        <time>2022-09-02T09:00:12Z</time>
      </trkpt>
      <trkpt lat="47.91707" lon="6.81479">
        <ele>783.7</ele>
        <time>2022-09-02T09:00:13Z</time>
      </trkpt>
      <trkpt lat="47.91707" lon="6.81478">
        <ele>783.6</ele>
        <time>2022-09-02T09:00:14Z</time>
      </trkpt>
      <trkpt lat="47.91707" lon="6.81477">
        <ele>783.4</ele>
        <time>2022-09-02T09:00:15Z</time>
      </trkpt>
      <trkpt lat="47.91707" lon="6.81475">
        <ele>783.1</ele>
        <time>2022-09-02T09:00:16Z</time>
      </trkpt>
      <trkpt lat="47.91707" lon="6.81474">
        <ele>783</ele>
        <time>2022-09-02T09:00:17Z</time>
      </trkpt>
      <trkpt lat="47.91707" lon="6.81472">
        <ele>782.7</ele>
        <time>2022-09-02T09:00:18Z</time>
      </trkpt>
      <trkpt lat="47.91707" lon="6.81471">
        <ele>782.6</ele>
        <time>2022-09-02T09:00:19Z</time>
      </trkpt>
      <trkpt lat="47.91707" lon="6.8147">
        <ele>782.5</ele>
        <time>2022-09-02T09:00:20Z</time>
      </trkpt>
      <trkpt lat="47.91707" lon="6.81468">
        <ele>782.4</ele>
        <time>2022-09-02T09:00:21Z</time>
      </trkpt>
      <trkpt lat="47.91707" lon="6.81467">
        <ele>782.3</ele>
        <time>2022-09-02T09:00:22Z</time>
      </trkpt>
      <trkpt lat="47.91707" lon="6.81465">
        <ele>782.1</ele>
        <time>2022-09-02T09:00:23Z</time>
      </trkpt>
      <trkpt lat="47.91706" lon="6.81464">
        <ele>782.2</ele>
        <time>2022-09-02T09:00:24Z</time>
      </trkpt>
      <trkpt lat="47.91706" lon="6.81462">
        <ele>782</ele>
        <time>2022-09-02T09:00:25Z</time>
      </trkpt>
      <trkpt lat="47.91706" lon="6.81461">
        <ele>781.9</ele>
        <time>2022-09-02T09:00:26Z</time>
      </trkpt>
      <trkpt lat="47.91706" lon="6.8146">
        <ele>781.9</ele>
        <time>2022-09-02T09:00:27Z</time>
      </trkpt>
      <trkpt lat="47.91706" lon="6.81458">
        <ele>781.7</ele>
        <time>2022-09-02T09:00:28Z</time>
      </trkpt>
      <trkpt lat="47.91706" lon="6.81457">
        <ele>781.6</ele>
        <time>2022-09-02T09:00:29Z</time>
      </trkpt>
      <trkpt lat="47.91706" lon="6.81455">
        <ele>781.4</ele>
        <time>2022-09-02T09:00:30Z</time>
      </trkpt>
      <trkpt lat="47.91706" lon="6.81454">
        <ele>781.3</ele>
        <time>2022-09-02T09:00:31Z</time>
      </trkpt>
      <trkpt lat="47.91706" lon="6.81453">
        <ele>781.2</ele>
        <time>2022-09-02T09:00:32Z</time>
      </trkpt>
      <trkpt lat="47.91706" lon="6.81451">
        <ele>781.1</ele>
        <time>2022-09-02T09:00:33Z</time>
      </trkpt>
      <trkpt lat="47.91706" lon="6.8145">
        <ele>781</ele>
        <time>2022-09-02T09:00:34Z</time>
      </trkpt>
      <trkpt lat="47.91706" lon="6.81448">
        <ele>780.8</ele>
        <time>2022-09-02T09:00:35Z</time>
      </trkpt>
      <trkpt lat="47.91706" lon="6.81447">
        <ele>780.7</ele>
        <time>2022-09-02T09:00:36Z</time>
      </trkpt>
      <trkpt lat="47.91706" lon="6.81445">
        <ele>780.6</ele>
        <time>2022-09-02T09:00:37Z</time>
      </trkpt>
      <trkpt lat="47.91706" lon="6.81444">
        <ele>780.5</ele>
        <time>2022-09-02T09:00:38Z</time>
      </trkpt>
      <trkpt lat="47.91706" lon="6.81443">
        <ele>780.3</ele>
        <time>2022-09-02T09:00:39Z</time>
      </trkpt>
      <trkpt lat="47.91706" lon="6.81441">
        <ele>780.1</ele>
        <time>2022-09-02T09:00:40Z</time>
      </trkpt>
      <trkpt lat="47.91706" lon="6.8144">
        <ele>780</ele>
        <time>2022-09-02T09:00:41Z</time>
      </trkpt>
      <trkpt lat="47.91706" lon="6.81438">
        <ele>779.8</ele>
        <time>2022-09-02T09:00:42Z</time>
      </trkpt>
      <trkpt lat="47.91706" lon="6.81437">
        <ele>779.7</ele>
        <time>2022-09-02T09:00:43Z</time>
      </trkpt>
      <trkpt lat="47.91705" lon="6.81435">
        <ele>779.7</ele>
        <time>2022-09-02T09:00:44Z</time>
      </trkpt>
      <trkpt lat="47.91705" lon="6.81434">
        <ele>779.6</ele>
        <time>2022-09-02T09:00:45Z</time>
      </trkpt>
      <trkpt lat="47.91705" lon="6.81432">
        <ele>779.4</ele>
        <time>2022-09-02T09:00:46Z</time>
      </trkpt>
      <trkpt lat="47.91705" lon="6.8143">
        <ele>779.2</ele>
        <time>2022-09-02T09:00:47Z</time>
      </trkpt>
      <trkpt lat="47.91705" lon="6.81429">
        <ele>779.1</ele>
        <time>2022-09-02T09:00:48Z</time>
      </trkpt>
      <trkpt lat="47.91705" lon="6.81427">
        <ele>778.8</ele>
        <time>2022-09-02T09:00:49Z</time>
      </trkpt>
      <trkpt lat="47.91705" lon="6.81426">
        <ele>778.7</ele>
        <time>2022-09-02T09:00:50Z</time>
      </trkpt>
      <trkpt lat="47.91705" lon="6.81424">
        <ele>778.5</ele>
        <time>2022-09-02T09:00:51Z</time>
      </trkpt>
      <trkpt lat="47.91705" lon="6.81422">
        <ele>778.3</ele>
        <time>2022-09-02T09:00:52Z</time>
      </trkpt>
      <trkpt lat="47.91705" lon="6.81421">
        <ele>778.2</ele>
        <time>2022-09-02T09:00:53Z</time>
      </trkpt>
      <trkpt lat="47.91705" lon="6.81419">
        <ele>778</ele>
        <time>2022-09-02T09:00:54Z</time>
      </trkpt>
      <trkpt lat="47.91705" lon="6.81418">
        <ele>777.9</ele>
        <time>2022-09-02T09:00:55Z</time>
      </trkpt>
      <trkpt lat="47.91705" lon="6.81416">
        <ele>777.7</ele>
        <time>2022-09-02T09:00:56Z</time>
      </trkpt>
      <trkpt lat="47.91706" lon="6.81415">
        <ele>777.4</ele>
        <time>2022-09-02T09:00:57Z</time>
      </trkpt>
      <trkpt lat="47.91706" lon="6.81413">
        <ele>777.3</ele>
        <time>2022-09-02T09:00:58Z</time>
      </trkpt>
      <trkpt lat="47.91706" lon="6.81412">
        <ele>777.2</ele>
        <time>2022-09-02T09:00:59Z</time>
      </trkpt>
      <trkpt lat="47.91706" lon="6.8141">
        <ele>777.1</ele>
        <time>2022-09-02T09:01:00Z</time>
      </trkpt>
      <trkpt lat="47.91706" lon="6.81409">
        <ele>777</ele>
        <time>2022-09-02T09:01:01Z</time>
      </trkpt>
      <trkpt lat="47.91706" lon="6.81407">
        <ele>776.9</ele>
        <time>2022-09-02T09:01:02Z</time>
      </trkpt>
      <trkpt lat="47.91706" lon="6.81405">
        <ele>776.7</ele>
        <time>2022-09-02T09:01:03Z</time>
      </trkpt>
      <trkpt lat="47.91706" lon="6.81404">
        <ele>776.7</ele>
        <time>2022-09-02T09:01:04Z</time>
      </trkpt>
      <trkpt lat="47.91706" lon="6.81402">
        <ele>776.5</ele>
        <time>2022-09-02T09:01:05Z</time>
      </trkpt>
      <trkpt lat="47.91707" lon="6.81401">
        <ele>776.2</ele>
        <time>2022-09-02T09:01:06Z</time>
      </trkpt>
      <trkpt lat="47.91707" lon="6.81399">
        <ele>776.1</ele>
        <time>2022-09-02T09:01:07Z</time>
      </trkpt>
      <trkpt lat="47.91707" lon="6.81398">
        <ele>776</ele>
        <time>2022-09-02T09:01:08Z</time>
      </trkpt>
      <trkpt lat="47.91707" lon="6.81396">
        <ele>775.9</ele>
        <time>2022-09-02T09:01:09Z</time>
      </trkpt>
      <trkpt lat="47.91707" lon="6.81394">
        <ele>775.7</ele>
        <time>2022-09-02T09:01:10Z</time>
      </trkpt>
      <trkpt lat="47.91707" lon="6.81393">
        <ele>775.7</ele>
        <time>2022-09-02T09:01:11Z</time>
      </trkpt>
      <trkpt lat="47.91708" lon="6.81391">
        <ele>775.2</ele>
        <time>2022-09-02T09:01:12Z</time>
      </trkpt>
      <trkpt lat="47.91708" lon="6.8139">
        <ele>775.2</ele>
        <time>2022-09-02T09:01:13Z</time>
      </trkpt>
      <trkpt lat="47.91708" lon="6.81388">
        <ele>775</ele>
        <time>2022-09-02T09:01:14Z</time>
      </trkpt>
      <trkpt lat="47.91708" lon="6.81387">
        <ele>775</ele>
        <time>2022-09-02T09:01:15Z</time>
      </trkpt>
      <trkpt lat="47.91708" lon="6.81385">
        <ele>774.9</ele>
        <time>2022-09-02T09:01:16Z</time>
      </trkpt>
      <trkpt lat="47.91709" lon="6.81383">
        <ele>774.5</ele>
        <time>2022-09-02T09:01:17Z</time>
      </trkpt>
      <trkpt lat="47.91709" lon="6.81382">
        <ele>774.4</ele>
        <time>2022-09-02T09:01:18Z</time>
      </trkpt>
      <trkpt lat="47.91709" lon="6.8138">
        <ele>774.3</ele>
        <time>2022-09-02T09:01:19Z</time>
      </trkpt>
      <trkpt lat="47.91709" lon="6.81379">
        <ele>774.3</ele>
        <time>2022-09-02T09:01:20Z</time>
      </trkpt>
      <trkpt lat="47.9171" lon="6.81377">
        <ele>773.9</ele>
        <time>2022-09-02T09:01:21Z</time>
      </trkpt>
      <trkpt lat="47.9171" lon="6.81375">
        <ele>773.8</ele>
        <time>2022-09-02T09:01:22Z</time>
      </trkpt>
      <trkpt lat="47.9171" lon="6.81374">
        <ele>773.7</ele>
        <time>2022-09-02T09:01:23Z</time>
      </trkpt>
      <trkpt lat="47.9171" lon="6.81372">
        <ele>773.6</ele>
        <time>2022-09-02T09:01:24Z</time>
      </trkpt>
      <trkpt lat="47.91711" lon="6.81371">
        <ele>773.3</ele>
        <time>2022-09-02T09:01:25Z</time>
      </trkpt>
      <trkpt lat="47.91711" lon="6.81369">
        <ele>773.2</ele>
        <time>2022-09-02T09:01:26Z</time>
      </trkpt>
      <trkpt lat="47.91711" lon="6.81368">
        <ele>773.2</ele>
        <time>2022-09-02T09:01:27Z</time>
      </trkpt>
      <trkpt lat="47.91711" lon="6.81366">
        <ele>773.1</ele>
        <time>2022-09-02T09:01:28Z</time>
      </trkpt>
      <trkpt lat="47.91712" lon="6.81365">
        <ele>772.8</ele>
        <time>2022-09-02T09:01:29Z</time>
      </trkpt>
      <trkpt lat="47.91712" lon="6.81364">
        <ele>772.7</ele>
        <time>2022-09-02T09:01:30Z</time>
      </trkpt>
      <trkpt lat="47.91712" lon="6.81362">
        <ele>772.6</ele>
        <time>2022-09-02T09:01:31Z</time>
      </trkpt>
      <trkpt lat="47.91712" lon="6.81361">
        <ele>772.6</ele>
        <time>2022-09-02T09:01:32Z</time>
      </trkpt>
      <trkpt lat="47.91713" lon="6.81359">
        <ele>772.2</ele>
        <time>2022-09-02T09:01:33Z</time>
      </trkpt>
      <trkpt lat="47.91713" lon="6.81358">
        <ele>772.2</ele>
        <time>2022-09-02T09:01:34Z</time>
      </trkpt>
      <trkpt lat="47.91713" lon="6.81356">
        <ele>772.1</ele>
        <time>2022-09-02T09:01:35Z</time>
      </trkpt>
      <trkpt lat="47.91714" lon="6.81355">
        <ele>771.9</ele>
        <time>2022-09-02T09:01:36Z</time>
      </trkpt>
      <trkpt lat="47.91714" lon="6.81353">
        <ele>771.8</ele>
        <time>2022-09-02T09:01:37Z</time>
      </trkpt>
      <trkpt lat="47.91714" lon="6.81351">
        <ele>771.7</ele>
        <time>2022-09-02T09:01:38Z</time>
      </trkpt>
      <trkpt lat="47.91714" lon="6.8135">
        <ele>771.7</ele>
        <time>2022-09-02T09:01:39Z</time>
      </trkpt>
      <trkpt lat="47.91715" lon="6.81348">
        <ele>771.3</ele>
        <time>2022-09-02T09:01:40Z</time>
      </trkpt>
      <trkpt lat="47.91715" lon="6.81347">
        <ele>771.3</ele>
        <time>2022-09-02T09:01:41Z</time>
      </trkpt>
      <trkpt lat="47.91715" lon="6.81345">
        <ele>771.2</ele>
        <time>2022-09-02T09:01:42Z</time>
      </trkpt>
      <trkpt lat="47.91715" lon="6.81344">
        <ele>771.2</ele>
        <time>2022-09-02T09:01:43Z</time>
      </trkpt>
      <trkpt lat="47.91715" lon="6.81342">
        <ele>771.1</ele>
        <time>2022-09-02T09:01:44Z</time>
      </trkpt>
      <trkpt lat="47.91716" lon="6.81341">
        <ele>770.8</ele>
        <time>2022-09-02T09:01:45Z</time>
      </trkpt>
      <trkpt lat="47.91716" lon="6.81339">
        <ele>770.8</ele>
        <time>2022-09-02T09:01:46Z</time>
      </trkpt>
      <trkpt lat="47.91716" lon="6.81338">
        <ele>770.7</ele>
        <time>2022-09-02T09:01:47Z</time>
      </trkpt>
      <trkpt lat="47.91716" lon="6.81336">
        <ele>770.7</ele>
        <time>2022-09-02T09:01:48Z</time>
      </trkpt>
      <trkpt lat="47.91716" lon="6.81335">
        <ele>770.6</ele>
        <time>2022-09-02T09:01:49Z</time>
      </trkpt>
      <trkpt lat="47.91716" lon="6.81333">
        <ele>770.5</ele>
        <time>2022-09-02T09:01:50Z</time>
      </trkpt>
      <trkpt lat="47.91716" lon="6.81332">
        <ele>770.5</ele>
        <time>2022-09-02T09:01:51Z</time>
      </trkpt>
      <trkpt lat="47.91716" lon="6.8133">
        <ele>770.3</ele>
        <time>2022-09-02T09:01:52Z</time>
      </trkpt>
      <trkpt lat="47.91716" lon="6.81329">
        <ele>770.3</ele>
        <time>2022-09-02T09:01:53Z</time>
      </trkpt>
      <trkpt lat="47.91716" lon="6.81327">
        <ele>770.1</ele>
        <time>2022-09-02T09:01:54Z</time>
      </trkpt>
      <trkpt lat="47.91716" lon="6.81326">
        <ele>770</ele>
        <time>2022-09-02T09:01:55Z</time>
      </trkpt>
      <trkpt lat="47.91716" lon="6.81324">
        <ele>769.9</ele>
        <time>2022-09-02T09:01:56Z</time>
      </trkpt>
      <trkpt lat="47.91716" lon="6.81323">
        <ele>769.8</ele>
        <time>2022-09-02T09:01:57Z</time>
      </trkpt>
      <trkpt lat="47.91716" lon="6.81321">
        <ele>769.7</ele>
        <time>2022-09-02T09:01:58Z</time>
      </trkpt>
      <trkpt lat="47.91716" lon="6.8132">
        <ele>769.6</ele>
        <time>2022-09-02T09:01:59Z</time>
      </trkpt>
      <trkpt lat="47.91716" lon="6.81318">
        <ele>769.5</ele>
        <time>2022-09-02T09:02:00Z</time>
      </trkpt>
      <trkpt lat="47.91716" lon="6.81317">
        <ele>769.4</ele>
        <time>2022-09-02T09:02:01Z</time>
      </trkpt>
      <trkpt lat="47.91716" lon="6.81315">
        <ele>769.2</ele>
        <time>2022-09-02T09:02:02Z</time>
      </trkpt>
      <trkpt lat="47.91716" lon="6.81313">
        <ele>769.1</ele>
        <time>2022-09-02T09:02:03Z</time>
      </trkpt>
      <trkpt lat="47.91716" lon="6.81312">
        <ele>769</ele>
        <time>2022-09-02T09:02:04Z</time>
      </trkpt>
      <trkpt lat="47.91716" lon="6.8131">
        <ele>768.9</ele>
        <time>2022-09-02T09:02:05Z</time>
      </trkpt>
      <trkpt lat="47.91716" lon="6.81309">
        <ele>768.8</ele>
        <time>2022-09-02T09:02:06Z</time>
      </trkpt>
      <trkpt lat="47.91716" lon="6.81307">
        <ele>768.7</ele>
        <time>2022-09-02T09:02:07Z</time>
      </trkpt>
      <trkpt lat="47.91716" lon="6.81306">
        <ele>768.6</ele>
        <time>2022-09-02T09:02:08Z</time>
      </trkpt>
      <trkpt lat="47.91716" lon="6.81305">
        <ele>768.5</ele>
        <time>2022-09-02T09:02:09Z</time>
      </trkpt>
      <trkpt lat="47.91716" lon="6.81304">
        <ele>768.5</ele>
        <time>2022-09-02T09:02:10Z</time>
      </trkpt>
      <trkpt lat="47.91716" lon="6.81302">
        <ele>768.3</ele>
        <time>2022-09-02T09:02:11Z</time>
      </trkpt>
      <trkpt lat="47.91716" lon="6.81301">
        <ele>768.3</ele>
        <time>2022-09-02T09:02:12Z</time>
      </trkpt>
      <trkpt lat="47.91716" lon="6.813">
        <ele>768.2</ele>
        <time>2022-09-02T09:02:13Z</time>
      </trkpt>
      <trkpt lat="47.91716" lon="6.81298">
        <ele>768.1</ele>
        <time>2022-09-02T09:02:14Z</time>
      </trkpt>
      <trkpt lat="47.91716" lon="6.81297">
        <ele>768</ele>
        <time>2022-09-02T09:02:15Z</time>
      </trkpt>
      <trkpt lat="47.91716" lon="6.81296">
        <ele>768</ele>
        <time>2022-09-02T09:02:16Z</time>
      </trkpt>
      <trkpt lat="47.91716" lon="6.81294">
        <ele>767.8</ele>
        <time>2022-09-02T09:02:17Z</time>
      </trkpt>
      <trkpt lat="47.91716" lon="6.81293">
        <ele>767.8</ele>
        <time>2022-09-02T09:02:18Z</time>
      </trkpt>
      <trkpt lat="47.91716" lon="6.81292">
        <ele>767.7</ele>
        <time>2022-09-02T09:02:19Z</time>
      </trkpt>
      <trkpt lat="47.91716" lon="6.8129">
        <ele>767.6</ele>
        <time>2022-09-02T09:02:20Z</time>
      </trkpt>
      <trkpt lat="47.91716" lon="6.81289">
        <ele>767.5</ele>
        <time>2022-09-02T09:02:21Z</time>
      </trkpt>
      <trkpt lat="47.91716" lon="6.81287">
        <ele>767.4</ele>
        <time>2022-09-02T09:02:22Z</time>
      </trkpt>
      <trkpt lat="47.91716" lon="6.81286">
        <ele>767.3</ele>
        <time>2022-09-02T09:02:23Z</time>
      </trkpt>
      <trkpt lat="47.91716" lon="6.81284">
        <ele>767.2</ele>
        <time>2022-09-02T09:02:24Z</time>
      </trkpt>
      <trkpt lat="47.91716" lon="6.81283">
        <ele>767.1</ele>
        <time>2022-09-02T09:02:25Z</time>
      </trkpt>
      <trkpt lat="47.91716" lon="6.81282">
        <ele>767.1</ele>
        <time>2022-09-02T09:02:26Z</time>
      </trkpt>
      <trkpt lat="47.91716" lon="6.8128">
        <ele>766.9</ele>
        <time>2022-09-02T09:02:27Z</time>
      </trkpt>
      <trkpt lat="47.91716" lon="6.81279">
        <ele>766.9</ele>
        <time>2022-09-02T09:02:28Z</time>
      </trkpt>
      <trkpt lat="47.91716" lon="6.81278">
        <ele>766.8</ele>
        <time>2022-09-02T09:02:29Z</time>
      </trkpt>
      <trkpt lat="47.91716" lon="6.81276">
        <ele>766.7</ele>
        <time>2022-09-02T09:02:30Z</time>
      </trkpt>
      <trkpt lat="47.91716" lon="6.81275">
        <ele>766.7</ele>
        <time>2022-09-02T09:02:31Z</time>
      </trkpt>
      <trkpt lat="47.91716" lon="6.81274">
        <ele>766.6</ele>
        <time>2022-09-02T09:02:32Z</time>
      </trkpt>
      <trkpt lat="47.91716" lon="6.81272">
        <ele>766.5</ele>
        <time>2022-09-02T09:02:33Z</time>
      </trkpt>
      <trkpt lat="47.91716" lon="6.81271">
        <ele>766.5</ele>
        <time>2022-09-02T09:02:34Z</time>
      </trkpt>
      <trkpt lat="47.91716" lon="6.81269">
        <ele>766.4</ele>
        <time>2022-09-02T09:02:35Z</time>
      </trkpt>
      <trkpt lat="47.91716" lon="6.81268">
        <ele>766.4</ele>
        <time>2022-09-02T09:02:36Z</time>
      </trkpt>
      <trkpt lat="47.91717" lon="6.81266">
        <ele>766</ele>
        <time>2022-09-02T09:02:37Z</time>
      </trkpt>
      <trkpt lat="47.91717" lon="6.81265">
        <ele>766</ele>
        <time>2022-09-02T09:02:38Z</time>
      </trkpt>
      <trkpt lat="47.91717" lon="6.81263">
        <ele>765.9</ele>
        <time>2022-09-02T09:02:39Z</time>
      </trkpt>
      <trkpt lat="47.91718" lon="6.81262">
        <ele>765.6</ele>
        <time>2022-09-02T09:02:40Z</time>
      </trkpt>
      <trkpt lat="47.91718" lon="6.81261">
        <ele>765.5</ele>
        <time>2022-09-02T09:02:41Z</time>
      </trkpt>
      <trkpt lat="47.91719" lon="6.8126">
        <ele>765.2</ele>
        <time>2022-09-02T09:02:42Z</time>
      </trkpt>
      <trkpt lat="47.9172" lon="6.81258">
        <ele>764.9</ele>
        <time>2022-09-02T09:02:43Z</time>
      </trkpt>
      <trkpt lat="47.9172" lon="6.81257">
        <ele>764.8</ele>
        <time>2022-09-02T09:02:44Z</time>
      </trkpt>
      <trkpt lat="47.91721" lon="6.81256">
        <ele>764.5</ele>
        <time>2022-09-02T09:02:45Z</time>
      </trkpt>
      <trkpt lat="47.91722" lon="6.81255">
        <ele>764.2</ele>
        <time>2022-09-02T09:02:46Z</time>
      </trkpt>
      <trkpt lat="47.91723" lon="6.81254">
        <ele>764</ele>
        <time>2022-09-02T09:02:47Z</time>
      </trkpt>
      <trkpt lat="47.91724" lon="6.81253">
        <ele>763.8</ele>
        <time>2022-09-02T09:02:48Z</time>
      </trkpt>
      <trkpt lat="47.91725" lon="6.81252">
        <ele>763.7</ele>
        <time>2022-09-02T09:02:49Z</time>
      </trkpt>
      <trkpt lat="47.91726" lon="6.81251">
        <ele>763.5</ele>
        <time>2022-09-02T09:02:50Z</time>
      </trkpt>
      <trkpt lat="47.91726" lon="6.8125">
        <ele>763.5</ele>
        <time>2022-09-02T09:02:51Z</time>
      </trkpt>
      <trkpt lat="47.91727" lon="6.81249">
        <ele>763.3</ele>
        <time>2022-09-02T09:02:52Z</time>
      </trkpt>
      <trkpt lat="47.91728" lon="6.81248">
        <ele>763.1</ele>
        <time>2022-09-02T09:02:53Z</time>
      </trkpt>
      <trkpt lat="47.91729" lon="6.81248">
        <ele>762.9</ele>
        <time>2022-09-02T09:02:54Z</time>
      </trkpt>
      <trkpt lat="47.9173" lon="6.81247">
        <ele>762.7</ele>
        <time>2022-09-02T09:02:55Z</time>
      </trkpt>
      <trkpt lat="47.91731" lon="6.81246">
        <ele>762.5</ele>
        <time>2022-09-02T09:02:56Z</time>
      </trkpt>
      <trkpt lat="47.91732" lon="6.81245">
        <ele>762.3</ele>
        <time>2022-09-02T09:02:57Z</time>
      </trkpt>
      <trkpt lat="47.91733" lon="6.81245">
        <ele>762.1</ele>
        <time>2022-09-02T09:02:58Z</time>
      </trkpt>
      <trkpt lat="47.91734" lon="6.81244">
        <ele>761.9</ele>
        <time>2022-09-02T09:02:59Z</time>
      </trkpt>
      <trkpt lat="47.91735" lon="6.81244">
        <ele>761.7</ele>
        <time>2022-09-02T09:03:00Z</time>
      </trkpt>
      <trkpt lat="47.91736" lon="6.81244">
        <ele>761.6</ele>
        <time>2022-09-02T09:03:01Z</time>
      </trkpt>
      <trkpt lat="47.91737" lon="6.81244">
        <ele>761.4</ele>
        <time>2022-09-02T09:03:02Z</time>
      </trkpt>
      <trkpt lat="47.91738" lon="6.81245">
        <ele>761.3</ele>
        <time>2022-09-02T09:03:03Z</time>
      </trkpt>
      <trkpt lat="47.91739" lon="6.81245">
        <ele>761.2</ele>
        <time>2022-09-02T09:03:04Z</time>
      </trkpt>
      <trkpt lat="47.9174" lon="6.81246">
        <ele>761.1</ele>
        <time>2022-09-02T09:03:05Z</time>
      </trkpt>
      <trkpt lat="47.91741" lon="6.81246">
        <ele>761</ele>
        <time>2022-09-02T09:03:06Z</time>
      </trkpt>
      <trkpt lat="47.91742" lon="6.81247">
        <ele>760.9</ele>
        <time>2022-09-02T09:03:07Z</time>
      </trkpt>
      <trkpt lat="47.91743" lon="6.81248">
        <ele>760.8</ele>
        <time>2022-09-02T09:03:08Z</time>
      </trkpt>
      <trkpt lat="47.91744" lon="6.81249">
        <ele>760.8</ele>
        <time>2022-09-02T09:03:09Z</time>
      </trkpt>
      <trkpt lat="47.91744" lon="6.8125">
        <ele>760.9</ele>
        <time>2022-09-02T09:03:10Z</time>
      </trkpt>
      <trkpt lat="47.91745" lon="6.81251">
        <ele>760.7</ele>
        <time>2022-09-02T09:03:11Z</time>
      </trkpt>
      <trkpt lat="47.91746" lon="6.81252">
        <ele>760.5</ele>
        <time>2022-09-02T09:03:12Z</time>
      </trkpt>
      <trkpt lat="47.91747" lon="6.81253">
        <ele>760.3</ele>
        <time>2022-09-02T09:03:13Z</time>
      </trkpt>
      <trkpt lat="47.91747" lon="6.81254">
        <ele>760.3</ele>
        <time>2022-09-02T09:03:14Z</time>
      </trkpt>
      <trkpt lat="47.91748" lon="6.81255">
        <ele>760.1</ele>
        <time>2022-09-02T09:03:15Z</time>
      </trkpt>
      <trkpt lat="47.91749" lon="6.81256">
        <ele>759.9</ele>
        <time>2022-09-02T09:03:16Z</time>
      </trkpt>
      <trkpt lat="47.9175" lon="6.81257">
        <ele>759.7</ele>
        <time>2022-09-02T09:03:17Z</time>
      </trkpt>
      <trkpt lat="47.9175" lon="6.81258">
        <ele>759.7</ele>
        <time>2022-09-02T09:03:18Z</time>
      </trkpt>
      <trkpt lat="47.91751" lon="6.81259">
        <ele>759.4</ele>
        <time>2022-09-02T09:03:19Z</time>
      </trkpt>
      <trkpt lat="47.91752" lon="6.8126">
        <ele>759</ele>
        <time>2022-09-02T09:03:20Z</time>
      </trkpt>
      <trkpt lat="47.91753" lon="6.81261">
        <ele>758.7</ele>
        <time>2022-09-02T09:03:21Z</time>
      </trkpt>
      <trkpt lat="47.91753" lon="6.81262">
        <ele>758.7</ele>
        <time>2022-09-02T09:03:22Z</time>
      </trkpt>
      <trkpt lat="47.91754" lon="6.81263">
        <ele>758.4</ele>
        <time>2022-09-02T09:03:23Z</time>
      </trkpt>
      <trkpt lat="47.91755" lon="6.81265">
        <ele>758</ele>
        <time>2022-09-02T09:03:24Z</time>
      </trkpt>
      <trkpt lat="47.91756" lon="6.81266">
        <ele>757.7</ele>
        <time>2022-09-02T09:03:25Z</time>
      </trkpt>
      <trkpt lat="47.91756" lon="6.81268">
        <ele>757.7</ele>
        <time>2022-09-02T09:03:26Z</time>
      </trkpt>
      <trkpt lat="47.91757" lon="6.81269">
        <ele>757.4</ele>
        <time>2022-09-02T09:03:27Z</time>
      </trkpt>
      <trkpt lat="47.91757" lon="6.8127">
        <ele>757.4</ele>
        <time>2022-09-02T09:03:28Z</time>
      </trkpt>
      <trkpt lat="47.91758" lon="6.81272">
        <ele>757.1</ele>
        <time>2022-09-02T09:03:29Z</time>
      </trkpt>
      <trkpt lat="47.91758" lon="6.81273">
        <ele>757.1</ele>
        <time>2022-09-02T09:03:30Z</time>
      </trkpt>
      <trkpt lat="47.91759" lon="6.81274">
        <ele>756.8</ele>
        <time>2022-09-02T09:03:31Z</time>
      </trkpt>
      <trkpt lat="47.91759" lon="6.81275">
        <ele>756.8</ele>
        <time>2022-09-02T09:03:32Z</time>
      </trkpt>
      <trkpt lat="47.9176" lon="6.81277">
        <ele>756.5</ele>
        <time>2022-09-02T09:03:33Z</time>
      </trkpt>
      <trkpt lat="47.91761" lon="6.81278">
        <ele>756.2</ele>
        <time>2022-09-02T09:03:34Z</time>
      </trkpt>
      <trkpt lat="47.91761" lon="6.81279">
        <ele>756.3</ele>
        <time>2022-09-02T09:03:35Z</time>
      </trkpt>
      <trkpt lat="47.91762" lon="6.8128">
        <ele>756.1</ele>
        <time>2022-09-02T09:03:36Z</time>
      </trkpt>
      <trkpt lat="47.91762" lon="6.81282">
        <ele>756.3</ele>
        <time>2022-09-02T09:03:37Z</time>
      </trkpt>
      <trkpt lat="47.91763" lon="6.81283">
        <ele>756.1</ele>
        <time>2022-09-02T09:03:38Z</time>
      </trkpt>
      <trkpt lat="47.91764" lon="6.81284">
        <ele>755.9</ele>
        <time>2022-09-02T09:03:39Z</time>
      </trkpt>
      <trkpt lat="47.91764" lon="6.81285">
        <ele>756</ele>
        <time>2022-09-02T09:03:40Z</time>
      </trkpt>
      <trkpt lat="47.91765" lon="6.81286">
        <ele>755.8</ele>
        <time>2022-09-02T09:03:41Z</time>
      </trkpt>
      <trkpt lat="47.91766" lon="6.81288">
        <ele>755.8</ele>
        <time>2022-09-02T09:03:42Z</time>
      </trkpt>
      <trkpt lat="47.91766" lon="6.81289">
        <ele>755.8</ele>
        <time>2022-09-02T09:03:43Z</time>
      </trkpt>
      <trkpt lat="47.91767" lon="6.8129">
        <ele>755.7</ele>
        <time>2022-09-02T09:03:44Z</time>
      </trkpt>
      <trkpt lat="47.91768" lon="6.81291">
        <ele>755.6</ele>
        <time>2022-09-02T09:03:45Z</time>
      </trkpt>
      <trkpt lat="47.91768" lon="6.81293">
        <ele>755.7</ele>
        <time>2022-09-02T09:03:46Z</time>
      </trkpt>
      <trkpt lat="47.91769" lon="6.81294">
        <ele>755.6</ele>
        <time>2022-09-02T09:03:47Z</time>
      </trkpt>
      <trkpt lat="47.91769" lon="6.81295">
        <ele>755.7</ele>
        <time>2022-09-02T09:03:48Z</time>
      </trkpt>
      <trkpt lat="47.9177" lon="6.81296">
        <ele>755.6</ele>
        <time>2022-09-02T09:03:49Z</time>
      </trkpt>
      <trkpt lat="47.91771" lon="6.81297">
        <ele>755.4</ele>
        <time>2022-09-02T09:03:50Z</time>
      </trkpt>
      <trkpt lat="47.91771" lon="6.81299">
        <ele>755.6</ele>
        <time>2022-09-02T09:03:51Z</time>
      </trkpt>
      <trkpt lat="47.91772" lon="6.813">
        <ele>755.5</ele>
        <time>2022-09-02T09:03:52Z</time>
      </trkpt>
      <trkpt lat="47.91773" lon="6.81302">
        <ele>755.5</ele>
        <time>2022-09-02T09:03:53Z</time>
      </trkpt>
      <trkpt lat="47.91774" lon="6.81303">
        <ele>755.4</ele>
        <time>2022-09-02T09:03:54Z</time>
      </trkpt>
      <trkpt lat="47.91775" lon="6.81304">
        <ele>755.3</ele>
        <time>2022-09-02T09:03:55Z</time>
      </trkpt>
      <trkpt lat="47.91776" lon="6.81306">
        <ele>755.3</ele>
        <time>2022-09-02T09:03:56Z</time>
      </trkpt>
      <trkpt lat="47.91776" lon="6.81307">
        <ele>755.4</ele>
        <time>2022-09-02T09:03:57Z</time>
      </trkpt>
      <trkpt lat="47.91777" lon="6.81308">
        <ele>755.2</ele>
        <time>2022-09-02T09:03:58Z</time>
      </trkpt>
      <trkpt lat="47.91778" lon="6.81309">
        <ele>755.1</ele>
        <time>2022-09-02T09:03:59Z</time>
      </trkpt>
      <trkpt lat="47.91779" lon="6.8131">
        <ele>754.8</ele>
        <time>2022-09-02T09:04:00Z</time>
      </trkpt>
      <trkpt lat="47.9178" lon="6.81311">
        <ele>754.6</ele>
        <time>2022-09-02T09:04:01Z</time>
      </trkpt>
      <trkpt lat="47.9178" lon="6.81312">
        <ele>754.6</ele>
        <time>2022-09-02T09:04:02Z</time>
      </trkpt>
      <trkpt lat="47.91781" lon="6.81314">
        <ele>754.4</ele>
        <time>2022-09-02T09:04:03Z</time>
      </trkpt>
      <trkpt lat="47.91782" lon="6.81315">
        <ele>754.2</ele>
        <time>2022-09-02T09:04:04Z</time>
      </trkpt>
      <trkpt lat="47.91783" lon="6.81316">
        <ele>754</ele>
        <time>2022-09-02T09:04:05Z</time>
      </trkpt>
      <trkpt lat="47.91783" lon="6.81317">
        <ele>754.1</ele>
        <time>2022-09-02T09:04:06Z</time>
      </trkpt>
      <trkpt lat="47.91784" lon="6.81318">
        <ele>753.9</ele>
        <time>2022-09-02T09:04:07Z</time>
      </trkpt>
      <trkpt lat="47.91785" lon="6.81319">
        <ele>753.7</ele>
        <time>2022-09-02T09:04:08Z</time>
      </trkpt>
      <trkpt lat="47.91786" lon="6.8132">
        <ele>753.5</ele>
        <time>2022-09-02T09:04:09Z</time>
      </trkpt>
      <trkpt lat="47.91786" lon="6.81322">
        <ele>753.6</ele>
        <time>2022-09-02T09:04:10Z</time>
      </trkpt>
      <trkpt lat="47.91787" lon="6.81323">
        <ele>753.4</ele>
        <time>2022-09-02T09:04:11Z</time>
      </trkpt>
      <trkpt lat="47.91788" lon="6.81324">
        <ele>753.2</ele>
        <time>2022-09-02T09:04:12Z</time>
      </trkpt>
      <trkpt lat="47.91789" lon="6.81325">
        <ele>753</ele>
        <time>2022-09-02T09:04:13Z</time>
      </trkpt>
      <trkpt lat="47.91789" lon="6.81327">
        <ele>753.2</ele>
        <time>2022-09-02T09:04:14Z</time>
      </trkpt>
      <trkpt lat="47.9179" lon="6.81328">
        <ele>753</ele>
        <time>2022-09-02T09:04:15Z</time>
      </trkpt>
      <trkpt lat="47.91791" lon="6.81329">
        <ele>752.8</ele>
        <time>2022-09-02T09:04:16Z</time>
      </trkpt>
      <trkpt lat="47.91792" lon="6.8133">
        <ele>752.7</ele>
        <time>2022-09-02T09:04:17Z</time>
      </trkpt>
      <trkpt lat="47.91793" lon="6.81331">
        <ele>752.5</ele>
        <time>2022-09-02T09:04:18Z</time>
      </trkpt>
      <trkpt lat="47.91794" lon="6.81332">
        <ele>752.4</ele>
        <time>2022-09-02T09:04:19Z</time>
      </trkpt>
      <trkpt lat="47.91795" lon="6.81333">
        <ele>752.3</ele>
        <time>2022-09-02T09:04:20Z</time>
      </trkpt>
      <trkpt lat="47.91796" lon="6.81334">
        <ele>752.1</ele>
        <time>2022-09-02T09:04:21Z</time>
      </trkpt>
      <trkpt lat="47.91796" lon="6.81335">
        <ele>752.2</ele>
        <time>2022-09-02T09:04:22Z</time>
      </trkpt>
      <trkpt lat="47.91797" lon="6.81336">
        <ele>752.1</ele>
        <time>2022-09-02T09:04:23Z</time>
      </trkpt>
      <trkpt lat="47.91798" lon="6.81337">
        <ele>752</ele>
        <time>2022-09-02T09:04:24Z</time>
      </trkpt>
      <trkpt lat="47.91799" lon="6.81338">
        <ele>751.9</ele>
        <time>2022-09-02T09:04:25Z</time>
      </trkpt>
      <trkpt lat="47.918" lon="6.81339">
        <ele>751.8</ele>
        <time>2022-09-02T09:04:26Z</time>
      </trkpt>
      <trkpt lat="47.91801" lon="6.8134">
        <ele>751.7</ele>
        <time>2022-09-02T09:04:27Z</time>
      </trkpt>
      <trkpt lat="47.91801" lon="6.81341">
        <ele>751.8</ele>
        <time>2022-09-02T09:04:28Z</time>
      </trkpt>
      <trkpt lat="47.91802" lon="6.81342">
        <ele>751.7</ele>
        <time>2022-09-02T09:04:29Z</time>
      </trkpt>
      <trkpt lat="47.91803" lon="6.81342">
        <ele>751.5</ele>
        <time>2022-09-02T09:04:30Z</time>
      </trkpt>
      <trkpt lat="47.91804" lon="6.81343">
        <ele>751.4</ele>
        <time>2022-09-02T09:04:31Z</time>
      </trkpt>
      <trkpt lat="47.91805" lon="6.81344">
        <ele>751.3</ele>
        <time>2022-09-02T09:04:32Z</time>
      </trkpt>
      <trkpt lat="47.91806" lon="6.81345">
        <ele>751.1</ele>
        <time>2022-09-02T09:04:33Z</time>
      </trkpt>
      <trkpt lat="47.91807" lon="6.81346">
        <ele>751</ele>
        <time>2022-09-02T09:04:34Z</time>
      </trkpt>
      <trkpt lat="47.91808" lon="6.81347">
        <ele>750.9</ele>
        <time>2022-09-02T09:04:35Z</time>
      </trkpt>
      <trkpt lat="47.91809" lon="6.81348">
        <ele>750.7</ele>
        <time>2022-09-02T09:04:36Z</time>
      </trkpt>
      <trkpt lat="47.9181" lon="6.81349">
        <ele>750.6</ele>
        <time>2022-09-02T09:04:37Z</time>
      </trkpt>
      <trkpt lat="47.91811" lon="6.8135">
        <ele>750.5</ele>
        <time>2022-09-02T09:04:38Z</time>
      </trkpt>
      <trkpt lat="47.91812" lon="6.81351">
        <ele>750.3</ele>
        <time>2022-09-02T09:04:39Z</time>
      </trkpt>
      <trkpt lat="47.91812" lon="6.81352">
        <ele>750.5</ele>
        <time>2022-09-02T09:04:40Z</time>
      </trkpt>
      <trkpt lat="47.91813" lon="6.81353">
        <ele>750.4</ele>
        <time>2022-09-02T09:04:41Z</time>
      </trkpt>
      <trkpt lat="47.91814" lon="6.81353">
        <ele>750.1</ele>
        <time>2022-09-02T09:04:42Z</time>
      </trkpt>
      <trkpt lat="47.91815" lon="6.81354">
        <ele>750</ele>
        <time>2022-09-02T09:04:43Z</time>
      </trkpt>
      <trkpt lat="47.91816" lon="6.81355">
        <ele>749.9</ele>
        <time>2022-09-02T09:04:44Z</time>
      </trkpt>
      <trkpt lat="47.91817" lon="6.81356">
        <ele>749.8</ele>
        <time>2022-09-02T09:04:45Z</time>
      </trkpt>
      <trkpt lat="47.91818" lon="6.81357">
        <ele>749.7</ele>
        <time>2022-09-02T09:04:46Z</time>
      </trkpt>
      <trkpt lat="47.91819" lon="6.81358">
        <ele>749.7</ele>
        <time>2022-09-02T09:04:47Z</time>
      </trkpt>
      <trkpt lat="47.9182" lon="6.81359">
        <ele>749.6</ele>
        <time>2022-09-02T09:04:48Z</time>
      </trkpt>
      <trkpt lat="47.91821" lon="6.81359">
        <ele>749.4</ele>
        <time>2022-09-02T09:04:49Z</time>
      </trkpt>
      <trkpt lat="47.91822" lon="6.8136">
        <ele>749.3</ele>
        <time>2022-09-02T09:04:50Z</time>
      </trkpt>
      <trkpt lat="47.91822" lon="6.81361">
        <ele>749.4</ele>
        <time>2022-09-02T09:04:51Z</time>
      </trkpt>
      <trkpt lat="47.91823" lon="6.81362">
        <ele>749.3</ele>
        <time>2022-09-02T09:04:52Z</time>
      </trkpt>
      <trkpt lat="47.91824" lon="6.81363">
        <ele>749.2</ele>
        <time>2022-09-02T09:04:53Z</time>
      </trkpt>
      <trkpt lat="47.91825" lon="6.81364">
        <ele>749</ele>
        <time>2022-09-02T09:04:54Z</time>
      </trkpt>
      <trkpt lat="47.91826" lon="6.81365">
        <ele>748.9</ele>
        <time>2022-09-02T09:04:55Z</time>
      </trkpt>
      <trkpt lat="47.91826" lon="6.81366">
        <ele>748.9</ele>
        <time>2022-09-02T09:04:56Z</time>
      </trkpt>
      <trkpt lat="47.91827" lon="6.81367">
        <ele>748.8</ele>
        <time>2022-09-02T09:04:57Z</time>
      </trkpt>
      <trkpt lat="47.91828" lon="6.81368">
        <ele>748.6</ele>
        <time>2022-09-02T09:04:58Z</time>
      </trkpt>
      <trkpt lat="47.91829" lon="6.81369">
        <ele>748.5</ele>
        <time>2022-09-02T09:04:59Z</time>
      </trkpt>
      <trkpt lat="47.9183" lon="6.8137">
        <ele>748.4</ele>
        <time>2022-09-02T09:05:00Z</time>
      </trkpt>
      <trkpt lat="47.91831" lon="6.81371">
        <ele>748.2</ele>
        <time>2022-09-02T09:05:01Z</time>
      </trkpt>
      <trkpt lat="47.91832" lon="6.81372">
        <ele>748.1</ele>
        <time>2022-09-02T09:05:02Z</time>
      </trkpt>
      <trkpt lat="47.91833" lon="6.81373">
        <ele>747.9</ele>
        <time>2022-09-02T09:05:03Z</time>
      </trkpt>
      <trkpt lat="47.91834" lon="6.81374">
        <ele>747.7</ele>
        <time>2022-09-02T09:05:04Z</time>
      </trkpt>
      <trkpt lat="47.91834" lon="6.81375">
        <ele>747.8</ele>
        <time>2022-09-02T09:05:05Z</time>
      </trkpt>
      <trkpt lat="47.91835" lon="6.81376">
        <ele>747.6</ele>
        <time>2022-09-02T09:05:06Z</time>
      </trkpt>
      <trkpt lat="47.91836" lon="6.81377">
        <ele>747.3</ele>
        <time>2022-09-02T09:05:07Z</time>
      </trkpt>
      <trkpt lat="47.91837" lon="6.81378">
        <ele>747.1</ele>
        <time>2022-09-02T09:05:08Z</time>
      </trkpt>
      <trkpt lat="47.91838" lon="6.8138">
        <ele>747</ele>
        <time>2022-09-02T09:05:09Z</time>
      </trkpt>
      <trkpt lat="47.91839" lon="6.81381">
        <ele>746.7</ele>
        <time>2022-09-02T09:05:10Z</time>
      </trkpt>
      <trkpt lat="47.91839" lon="6.81382">
        <ele>746.8</ele>
        <time>2022-09-02T09:05:11Z</time>
      </trkpt>
      <trkpt lat="47.9184" lon="6.81383">
        <ele>746.6</ele>
        <time>2022-09-02T09:05:12Z</time>
      </trkpt>
      <trkpt lat="47.91841" lon="6.81384">
        <ele>746.4</ele>
        <time>2022-09-02T09:05:13Z</time>
      </trkpt>
      <trkpt lat="47.91842" lon="6.81385">
        <ele>746.2</ele>
        <time>2022-09-02T09:05:14Z</time>
      </trkpt>
      <trkpt lat="47.91842" lon="6.81386">
        <ele>746.3</ele>
        <time>2022-09-02T09:05:15Z</time>
      </trkpt>
      <trkpt lat="47.91843" lon="6.81388">
        <ele>746.1</ele>
        <time>2022-09-02T09:05:16Z</time>
      </trkpt>
      <trkpt lat="47.91844" lon="6.81389">
        <ele>745.9</ele>
        <time>2022-09-02T09:05:17Z</time>
      </trkpt>
      <trkpt lat="47.91845" lon="6.8139">
        <ele>745.7</ele>
        <time>2022-09-02T09:05:18Z</time>
      </trkpt>
      <trkpt lat="47.91846" lon="6.81391">
        <ele>745.5</ele>
        <time>2022-09-02T09:05:19Z</time>
      </trkpt>
      <trkpt lat="47.91846" lon="6.81392">
        <ele>745.6</ele>
        <time>2022-09-02T09:05:20Z</time>
      </trkpt>
      <trkpt lat="47.91847" lon="6.81393">
        <ele>745.4</ele>
        <time>2022-09-02T09:05:21Z</time>
      </trkpt>
      <trkpt lat="47.91848" lon="6.81394">
        <ele>745.1</ele>
        <time>2022-09-02T09:05:22Z</time>
      </trkpt>
      <trkpt lat="47.91848" lon="6.81396">
        <ele>745.3</ele>
        <time>2022-09-02T09:05:23Z</time>
      </trkpt>
      <trkpt lat="47.91849" lon="6.81397">
        <ele>745.1</ele>
        <time>2022-09-02T09:05:24Z</time>
      </trkpt>
      <trkpt lat="47.9185" lon="6.81398">
        <ele>744.9</ele>
        <time>2022-09-02T09:05:25Z</time>
      </trkpt>
      <trkpt lat="47.9185" lon="6.81399">
        <ele>744.9</ele>
        <time>2022-09-02T09:05:26Z</time>
      </trkpt>
      <trkpt lat="47.91851" lon="6.81401">
        <ele>744.8</ele>
        <time>2022-09-02T09:05:27Z</time>
      </trkpt>
      <trkpt lat="47.91851" lon="6.81402">
        <ele>744.9</ele>
        <time>2022-09-02T09:05:28Z</time>
      </trkpt>
      <trkpt lat="47.91852" lon="6.81403">
        <ele>744.6</ele>
        <time>2022-09-02T09:05:29Z</time>
      </trkpt>
      <trkpt lat="47.91852" lon="6.81404">
        <ele>744.7</ele>
        <time>2022-09-02T09:05:30Z</time>
      </trkpt>
      <trkpt lat="47.91853" lon="6.81405">
        <ele>744.5</ele>
        <time>2022-09-02T09:05:31Z</time>
      </trkpt>
      <trkpt lat="47.91854" lon="6.81407">
        <ele>744.4</ele>
        <time>2022-09-02T09:05:32Z</time>
      </trkpt>
      <trkpt lat="47.91854" lon="6.81408">
        <ele>744.4</ele>
        <time>2022-09-02T09:05:33Z</time>
      </trkpt>
      <trkpt lat="47.91855" lon="6.81409">
        <ele>744.2</ele>
        <time>2022-09-02T09:05:34Z</time>
      </trkpt>
      <trkpt lat="47.91855" lon="6.8141">
        <ele>744.3</ele>
        <time>2022-09-02T09:05:35Z</time>
      </trkpt>
      <trkpt lat="47.91856" lon="6.81411">
        <ele>744.1</ele>
        <time>2022-09-02T09:05:36Z</time>
      </trkpt>
      <trkpt lat="47.91857" lon="6.81413">
        <ele>743.9</ele>
        <time>2022-09-02T09:05:37Z</time>
      </trkpt>
      <trkpt lat="47.91857" lon="6.81414">
        <ele>744</ele>
        <time>2022-09-02T09:05:38Z</time>
      </trkpt>
      <trkpt lat="47.91858" lon="6.81415">
        <ele>743.8</ele>
        <time>2022-09-02T09:05:39Z</time>
      </trkpt>
      <trkpt lat="47.91859" lon="6.81416">
        <ele>743.6</ele>
        <time>2022-09-02T09:05:40Z</time>
      </trkpt>
      <trkpt lat="47.91859" lon="6.81417">
        <ele>743.6</ele>
        <time>2022-09-02T09:05:41Z</time>
      </trkpt>
      <trkpt lat="47.9186" lon="6.81418">
        <ele>743.4</ele>
        <time>2022-09-02T09:05:42Z</time>
      </trkpt>
      <trkpt lat="47.91861" lon="6.81419">
        <ele>743.1</ele>
        <time>2022-09-02T09:05:43Z</time>
      </trkpt>
      <trkpt lat="47.91861" lon="6.8142">
        <ele>743.2</ele>
        <time>2022-09-02T09:05:44Z</time>
      </trkpt>
      <trkpt lat="47.91862" lon="6.81422">
        <ele>743</ele>
        <time>2022-09-02T09:05:45Z</time>
      </trkpt>
      <trkpt lat="47.91863" lon="6.81423">
        <ele>742.8</ele>
        <time>2022-09-02T09:05:46Z</time>
      </trkpt>
      <trkpt lat="47.91863" lon="6.81424">
        <ele>742.8</ele>
        <time>2022-09-02T09:05:47Z</time>
      </trkpt>
      <trkpt lat="47.91864" lon="6.81425">
        <ele>742.6</ele>
        <time>2022-09-02T09:05:48Z</time>
      </trkpt>
      <trkpt lat="47.91865" lon="6.81426">
        <ele>742.4</ele>
        <time>2022-09-02T09:05:49Z</time>
      </trkpt>
      <trkpt lat="47.91865" lon="6.81428">
        <ele>742.5</ele>
        <time>2022-09-02T09:05:50Z</time>
      </trkpt>
      <trkpt lat="47.91866" lon="6.81429">
        <ele>742.3</ele>
        <time>2022-09-02T09:05:51Z</time>
      </trkpt>
      <trkpt lat="47.91866" lon="6.8143">
        <ele>742.3</ele>
        <time>2022-09-02T09:05:52Z</time>
      </trkpt>
      <trkpt lat="47.91867" lon="6.81432">
        <ele>742.2</ele>
        <time>2022-09-02T09:05:53Z</time>
      </trkpt>
      <trkpt lat="47.91868" lon="6.81433">
        <ele>742</ele>
        <time>2022-09-02T09:05:54Z</time>
      </trkpt>
      <trkpt lat="47.91868" lon="6.81434">
        <ele>742</ele>
        <time>2022-09-02T09:05:55Z</time>
      </trkpt>
      <trkpt lat="47.91869" lon="6.81435">
        <ele>741.8</ele>
        <time>2022-09-02T09:05:56Z</time>
      </trkpt>
      <trkpt lat="47.91869" lon="6.81436">
        <ele>741.8</ele>
        <time>2022-09-02T09:05:57Z</time>
      </trkpt>
      <trkpt lat="47.9187" lon="6.81437">
        <ele>741.6</ele>
        <time>2022-09-02T09:05:58Z</time>
      </trkpt>
      <trkpt lat="47.91871" lon="6.81439">
        <ele>741.4</ele>
        <time>2022-09-02T09:05:59Z</time>
      </trkpt>
      <trkpt lat="47.91872" lon="6.8144">
        <ele>741.2</ele>
        <time>2022-09-02T09:06:00Z</time>
      </trkpt>
      <trkpt lat="47.91872" lon="6.81441">
        <ele>741.2</ele>
        <time>2022-09-02T09:06:01Z</time>
      </trkpt>
      <trkpt lat="47.91873" lon="6.81442">
        <ele>741</ele>
        <time>2022-09-02T09:06:02Z</time>
      </trkpt>
      <trkpt lat="47.91874" lon="6.81444">
        <ele>740.7</ele>
        <time>2022-09-02T09:06:03Z</time>
      </trkpt>
      <trkpt lat="47.91875" lon="6.81445">
        <ele>740.5</ele>
        <time>2022-09-02T09:06:04Z</time>
      </trkpt>
      <trkpt lat="47.91875" lon="6.81446">
        <ele>740.6</ele>
        <time>2022-09-02T09:06:05Z</time>
      </trkpt>
      <trkpt lat="47.91876" lon="6.81448">
        <ele>740.6</ele>
        <time>2022-09-02T09:06:06Z</time>
      </trkpt>
      <trkpt lat="47.91877" lon="6.81449">
        <ele>740.4</ele>
        <time>2022-09-02T09:06:07Z</time>
      </trkpt>
      <trkpt lat="47.91877" lon="6.8145">
        <ele>740.5</ele>
        <time>2022-09-02T09:06:08Z</time>
      </trkpt>
      <trkpt lat="47.91878" lon="6.81451">
        <ele>740.3</ele>
        <time>2022-09-02T09:06:09Z</time>
      </trkpt>
      <trkpt lat="47.91878" lon="6.81452">
        <ele>740.4</ele>
        <time>2022-09-02T09:06:10Z</time>
      </trkpt>
      <trkpt lat="47.91879" lon="6.81454">
        <ele>740.3</ele>
        <time>2022-09-02T09:06:11Z</time>
      </trkpt>
      <trkpt lat="47.9188" lon="6.81455">
        <ele>740.1</ele>
        <time>2022-09-02T09:06:12Z</time>
      </trkpt>
      <trkpt lat="47.9188" lon="6.81456">
        <ele>740.2</ele>
        <time>2022-09-02T09:06:13Z</time>
      </trkpt>
      <trkpt lat="47.91881" lon="6.81457">
        <ele>740</ele>
        <time>2022-09-02T09:06:14Z</time>
      </trkpt>
      <trkpt lat="47.91882" lon="6.81458">
        <ele>739.8</ele>
        <time>2022-09-02T09:06:15Z</time>
      </trkpt>
      <trkpt lat="47.91883" lon="6.81459">
        <ele>739.6</ele>
        <time>2022-09-02T09:06:16Z</time>
      </trkpt>
      <trkpt lat="47.91884" lon="6.81461">
        <ele>739.5</ele>
        <time>2022-09-02T09:06:17Z</time>
      </trkpt>
      <trkpt lat="47.91885" lon="6.81462">
        <ele>739.3</ele>
        <time>2022-09-02T09:06:19Z</time>
      </trkpt>
      <trkpt lat="47.91886" lon="6.81463">
        <ele>739.1</ele>
        <time>2022-09-02T09:06:20Z</time>
      </trkpt>
      <trkpt lat="47.91886" lon="6.81464">
        <ele>739.2</ele>
        <time>2022-09-02T09:06:21Z</time>
      </trkpt>
      <trkpt lat="47.91887" lon="6.81465">
        <ele>739</ele>
        <time>2022-09-02T09:06:22Z</time>
      </trkpt>
      <trkpt lat="47.91888" lon="6.81465">
        <ele>738.7</ele>
        <time>2022-09-02T09:06:23Z</time>
      </trkpt>
      <trkpt lat="47.91888" lon="6.81466">
        <ele>738.8</ele>
        <time>2022-09-02T09:06:24Z</time>
      </trkpt>
      <trkpt lat="47.91889" lon="6.81466">
        <ele>738.5</ele>
        <time>2022-09-02T09:06:26Z</time>
      </trkpt>
      <trkpt lat="47.91889" lon="6.81467">
        <ele>738.6</ele>
        <time>2022-09-02T09:06:27Z</time>
      </trkpt>
      <trkpt lat="47.9189" lon="6.81468">
        <ele>738.4</ele>
        <time>2022-09-02T09:06:29Z</time>
      </trkpt>
      <trkpt lat="47.9189" lon="6.81469">
        <ele>738.4</ele>
        <time>2022-09-02T09:06:30Z</time>
      </trkpt>
      <trkpt lat="47.91891" lon="6.8147">
        <ele>738.2</ele>
        <time>2022-09-02T09:06:31Z</time>
      </trkpt>
      <trkpt lat="47.91891" lon="6.81471">
        <ele>738.3</ele>
        <time>2022-09-02T09:06:32Z</time>
      </trkpt>
      <trkpt lat="47.91892" lon="6.81472">
        <ele>738.1</ele>
        <time>2022-09-02T09:06:33Z</time>
      </trkpt>
      <trkpt lat="47.91892" lon="6.81473">
        <ele>738.2</ele>
        <time>2022-09-02T09:06:34Z</time>
      </trkpt>
      <trkpt lat="47.91893" lon="6.81474">
        <ele>738.1</ele>
        <time>2022-09-02T09:06:35Z</time>
      </trkpt>
      <trkpt lat="47.91894" lon="6.81474">
        <ele>737.8</ele>
        <time>2022-09-02T09:06:36Z</time>
      </trkpt>
      <trkpt lat="47.91894" lon="6.81475">
        <ele>737.9</ele>
        <time>2022-09-02T09:06:37Z</time>
      </trkpt>
      <trkpt lat="47.91895" lon="6.81475">
        <ele>737.6</ele>
        <time>2022-09-02T09:06:38Z</time>
      </trkpt>
      <trkpt lat="47.91895" lon="6.81474">
        <ele>737.5</ele>
        <time>2022-09-02T09:06:39Z</time>
      </trkpt>
      <trkpt lat="47.91896" lon="6.81474">
        <ele>737.2</ele>
        <time>2022-09-02T09:06:40Z</time>
      </trkpt>
      <trkpt lat="47.91896" lon="6.81473">
        <ele>737.1</ele>
        <time>2022-09-02T09:06:41Z</time>
      </trkpt>
      <trkpt lat="47.91896" lon="6.81471">
        <ele>736.9</ele>
        <time>2022-09-02T09:06:42Z</time>
      </trkpt>
      <trkpt lat="47.91896" lon="6.8147">
        <ele>736.8</ele>
        <time>2022-09-02T09:06:43Z</time>
      </trkpt>
      <trkpt lat="47.91896" lon="6.81469">
        <ele>736.7</ele>
        <time>2022-09-02T09:06:44Z</time>
      </trkpt>
      <trkpt lat="47.91896" lon="6.81467">
        <ele>736.6</ele>
        <time>2022-09-02T09:06:45Z</time>
      </trkpt>
      <trkpt lat="47.91896" lon="6.81466">
        <ele>736.5</ele>
        <time>2022-09-02T09:06:46Z</time>
      </trkpt>
      <trkpt lat="47.91896" lon="6.81464">
        <ele>736.4</ele>
        <time>2022-09-02T09:06:47Z</time>
      </trkpt>
      <trkpt lat="47.91896" lon="6.81463">
        <ele>736.3</ele>
        <time>2022-09-02T09:06:48Z</time>
      </trkpt>
      <trkpt lat="47.91896" lon="6.81462">
        <ele>736.2</ele>
        <time>2022-09-02T09:06:49Z</time>
      </trkpt>
      <trkpt lat="47.91896" lon="6.81461">
        <ele>736.1</ele>
        <time>2022-09-02T09:06:50Z</time>
      </trkpt>
      <trkpt lat="47.91896" lon="6.8146">
        <ele>736.1</ele>
        <time>2022-09-02T09:06:51Z</time>
      </trkpt>
      <trkpt lat="47.91895" lon="6.81458">
        <ele>736.2</ele>
        <time>2022-09-02T09:06:52Z</time>
      </trkpt>
      <trkpt lat="47.91895" lon="6.81457">
        <ele>736.1</ele>
        <time>2022-09-02T09:06:53Z</time>
      </trkpt>
      <trkpt lat="47.91895" lon="6.81456">
        <ele>736.1</ele>
        <time>2022-09-02T09:06:54Z</time>
      </trkpt>
      <trkpt lat="47.91894" lon="6.81454">
        <ele>736.2</ele>
        <time>2022-09-02T09:06:55Z</time>
      </trkpt>
      <trkpt lat="47.91894" lon="6.81453">
        <ele>736.1</ele>
        <time>2022-09-02T09:06:56Z</time>
      </trkpt>
      <trkpt lat="47.91893" lon="6.81451">
        <ele>736.3</ele>
        <time>2022-09-02T09:06:57Z</time>
      </trkpt>
      <trkpt lat="47.91893" lon="6.8145">
        <ele>736.2</ele>
        <time>2022-09-02T09:06:58Z</time>
      </trkpt>
      <trkpt lat="47.91892" lon="6.81448">
        <ele>736.4</ele>
        <time>2022-09-02T09:06:59Z</time>
      </trkpt>
      <trkpt lat="47.91892" lon="6.81446">
        <ele>736.2</ele>
        <time>2022-09-02T09:07:00Z</time>
      </trkpt>
      <trkpt lat="47.91891" lon="6.81445">
        <ele>736.4</ele>
        <time>2022-09-02T09:07:01Z</time>
      </trkpt>
      <trkpt lat="47.91891" lon="6.81443">
        <ele>736.4</ele>
        <time>2022-09-02T09:07:02Z</time>
      </trkpt>
      <trkpt lat="47.9189" lon="6.81442">
        <ele>736.7</ele>
        <time>2022-09-02T09:07:03Z</time>
      </trkpt>
      <trkpt lat="47.9189" lon="6.8144">
        <ele>736.7</ele>
        <time>2022-09-02T09:07:04Z</time>
      </trkpt>
      <trkpt lat="47.91889" lon="6.81439">
        <ele>737</ele>
        <time>2022-09-02T09:07:05Z</time>
      </trkpt>
      <trkpt lat="47.91889" lon="6.81438">
        <ele>737</ele>
        <time>2022-09-02T09:07:06Z</time>
      </trkpt>
      <trkpt lat="47.91889" lon="6.81437">
        <ele>737</ele>
        <time>2022-09-02T09:07:07Z</time>
      </trkpt>
      <trkpt lat="47.91889" lon="6.81436">
        <ele>737</ele>
        <time>2022-09-02T09:07:08Z</time>
      </trkpt>
      <trkpt lat="47.91888" lon="6.81435">
        <ele>737.2</ele>
        <time>2022-09-02T09:07:09Z</time>
      </trkpt>
      <trkpt lat="47.91888" lon="6.81434">
        <ele>737.2</ele>
        <time>2022-09-02T09:07:10Z</time>
      </trkpt>
      <trkpt lat="47.91887" lon="6.81432">
        <ele>737.4</ele>
        <time>2022-09-02T09:07:12Z</time>
      </trkpt>
      <trkpt lat="47.91887" lon="6.81431">
        <ele>737.4</ele>
        <time>2022-09-02T09:07:13Z</time>
      </trkpt>
      <trkpt lat="47.91886" lon="6.8143">
        <ele>737.7</ele>
        <time>2022-09-02T09:07:14Z</time>
      </trkpt>
      <trkpt lat="47.91886" lon="6.81429">
        <ele>737.7</ele>
        <time>2022-09-02T09:07:15Z</time>
      </trkpt>
      <trkpt lat="47.91885" lon="6.81427">
        <ele>737.9</ele>
        <time>2022-09-02T09:07:16Z</time>
      </trkpt>
      <trkpt lat="47.91884" lon="6.81426">
        <ele>738.1</ele>
        <time>2022-09-02T09:07:17Z</time>
      </trkpt>
      <trkpt lat="47.91884" lon="6.81425">
        <ele>738.1</ele>
        <time>2022-09-02T09:07:18Z</time>
      </trkpt>
      <trkpt lat="47.91883" lon="6.81423">
        <ele>738.3</ele>
        <time>2022-09-02T09:07:19Z</time>
      </trkpt>
      <trkpt lat="47.91883" lon="6.81422">
        <ele>738.3</ele>
        <time>2022-09-02T09:07:20Z</time>
      </trkpt>
      <trkpt lat="47.91882" lon="6.81421">
        <ele>738.5</ele>
        <time>2022-09-02T09:07:21Z</time>
      </trkpt>
      <trkpt lat="47.91882" lon="6.81419">
        <ele>738.5</ele>
        <time>2022-09-02T09:07:22Z</time>
      </trkpt>
      <trkpt lat="47.91881" lon="6.81417">
        <ele>738.7</ele>
        <time>2022-09-02T09:07:23Z</time>
      </trkpt>
      <trkpt lat="47.91881" lon="6.81416">
        <ele>738.7</ele>
        <time>2022-09-02T09:07:24Z</time>
      </trkpt>
      <trkpt lat="47.9188" lon="6.81414">
        <ele>738.7</ele>
        <time>2022-09-02T09:07:25Z</time>
      </trkpt>
      <trkpt lat="47.9188" lon="6.81413">
        <ele>738.7</ele>
        <time>2022-09-02T09:07:26Z</time>
      </trkpt>
      <trkpt lat="47.91879" lon="6.81412">
        <ele>738.8</ele>
        <time>2022-09-02T09:07:27Z</time>
      </trkpt>
      <trkpt lat="47.91879" lon="6.8141">
        <ele>738.7</ele>
        <time>2022-09-02T09:07:28Z</time>
      </trkpt>
      <trkpt lat="47.91879" lon="6.81408">
        <ele>738.5</ele>
        <time>2022-09-02T09:07:29Z</time>
      </trkpt>
      <trkpt lat="47.91879" lon="6.81407">
        <ele>738.4</ele>
        <time>2022-09-02T09:07:30Z</time>
      </trkpt>
      <trkpt lat="47.91878" lon="6.81405">
        <ele>738.5</ele>
        <time>2022-09-02T09:07:31Z</time>
      </trkpt>
      <trkpt lat="47.91878" lon="6.81404">
        <ele>738.4</ele>
        <time>2022-09-02T09:07:32Z</time>
      </trkpt>
      <trkpt lat="47.91877" lon="6.81402">
        <ele>738.5</ele>
        <time>2022-09-02T09:07:33Z</time>
      </trkpt>
      <trkpt lat="47.91877" lon="6.81401">
        <ele>738.4</ele>
        <time>2022-09-02T09:07:34Z</time>
      </trkpt>
      <trkpt lat="47.91876" lon="6.81399">
        <ele>738.5</ele>
        <time>2022-09-02T09:07:35Z</time>
      </trkpt>
      <trkpt lat="47.91876" lon="6.81398">
        <ele>738.4</ele>
        <time>2022-09-02T09:07:36Z</time>
      </trkpt>
      <trkpt lat="47.91875" lon="6.81396">
        <ele>738.5</ele>
        <time>2022-09-02T09:07:37Z</time>
      </trkpt>
      <trkpt lat="47.91875" lon="6.81395">
        <ele>738.4</ele>
        <time>2022-09-02T09:07:38Z</time>
      </trkpt>
      <trkpt lat="47.91874" lon="6.81393">
        <ele>738.5</ele>
        <time>2022-09-02T09:07:39Z</time>
      </trkpt>
      <trkpt lat="47.91874" lon="6.81392">
        <ele>738.4</ele>
        <time>2022-09-02T09:07:40Z</time>
      </trkpt>
      <trkpt lat="47.91873" lon="6.8139">
        <ele>738.5</ele>
        <time>2022-09-02T09:07:41Z</time>
      </trkpt>
      <trkpt lat="47.91873" lon="6.81389">
        <ele>738.4</ele>
        <time>2022-09-02T09:07:42Z</time>
      </trkpt>
      <trkpt lat="47.91872" lon="6.81387">
        <ele>738.4</ele>
        <time>2022-09-02T09:07:43Z</time>
      </trkpt>
      <trkpt lat="47.91872" lon="6.81386">
        <ele>738.3</ele>
        <time>2022-09-02T09:07:44Z</time>
      </trkpt>
      <trkpt lat="47.91871" lon="6.81384">
        <ele>738.2</ele>
        <time>2022-09-02T09:07:45Z</time>
      </trkpt>
      <trkpt lat="47.91871" lon="6.81383">
        <ele>738.1</ele>
        <time>2022-09-02T09:07:46Z</time>
      </trkpt>
      <trkpt lat="47.9187" lon="6.81381">
        <ele>738</ele>
        <time>2022-09-02T09:07:47Z</time>
      </trkpt>
      <trkpt lat="47.9187" lon="6.8138">
        <ele>737.9</ele>
        <time>2022-09-02T09:07:48Z</time>
      </trkpt>
      <trkpt lat="47.91869" lon="6.81378">
        <ele>737.9</ele>
        <time>2022-09-02T09:07:49Z</time>
      </trkpt>
      <trkpt lat="47.91869" lon="6.81377">
        <ele>737.8</ele>
        <time>2022-09-02T09:07:50Z</time>
      </trkpt>
      <trkpt lat="47.91868" lon="6.81375">
        <ele>737.8</ele>
        <time>2022-09-02T09:07:51Z</time>
      </trkpt>
      <trkpt lat="47.91868" lon="6.81374">
        <ele>737.6</ele>
        <time>2022-09-02T09:07:52Z</time>
      </trkpt>
      <trkpt lat="47.91868" lon="6.81372">
        <ele>737.4</ele>
        <time>2022-09-02T09:07:53Z</time>
      </trkpt>
      <trkpt lat="47.91867" lon="6.81371">
        <ele>737.5</ele>
        <time>2022-09-02T09:07:54Z</time>
      </trkpt>
      <trkpt lat="47.91867" lon="6.8137">
        <ele>737.4</ele>
        <time>2022-09-02T09:07:55Z</time>
      </trkpt>
      <trkpt lat="47.91866" lon="6.81368">
        <ele>737.4</ele>
        <time>2022-09-02T09:07:56Z</time>
      </trkpt>
      <trkpt lat="47.91866" lon="6.81367">
        <ele>737.3</ele>
        <time>2022-09-02T09:07:57Z</time>
      </trkpt>
      <trkpt lat="47.91865" lon="6.81365">
        <ele>737.3</ele>
        <time>2022-09-02T09:07:58Z</time>
      </trkpt>
      <trkpt lat="47.91865" lon="6.81364">
        <ele>737.2</ele>
        <time>2022-09-02T09:07:59Z</time>
      </trkpt>
      <trkpt lat="47.91864" lon="6.81363">
        <ele>737.4</ele>
        <time>2022-09-02T09:08:00Z</time>
      </trkpt>
      <trkpt lat="47.91864" lon="6.81361">
        <ele>737.2</ele>
        <time>2022-09-02T09:08:01Z</time>
      </trkpt>
      <trkpt lat="47.91863" lon="6.8136">
        <ele>737.3</ele>
        <time>2022-09-02T09:08:02Z</time>
      </trkpt>
      <trkpt lat="47.91863" lon="6.81358">
        <ele>737.1</ele>
        <time>2022-09-02T09:08:03Z</time>
      </trkpt>
      <trkpt lat="47.91862" lon="6.81357">
        <ele>737.3</ele>
        <time>2022-09-02T09:08:04Z</time>
      </trkpt>
      <trkpt lat="47.91862" lon="6.81356">
        <ele>737.2</ele>
        <time>2022-09-02T09:08:05Z</time>
      </trkpt>
      <trkpt lat="47.91862" lon="6.81354">
        <ele>737</ele>
        <time>2022-09-02T09:08:06Z</time>
      </trkpt>
      <trkpt lat="47.91861" lon="6.81353">
        <ele>737.2</ele>
        <time>2022-09-02T09:08:07Z</time>
      </trkpt>
      <trkpt lat="47.91861" lon="6.81352">
        <ele>737</ele>
        <time>2022-09-02T09:08:08Z</time>
      </trkpt>
      <trkpt lat="47.91861" lon="6.81351">
        <ele>736.9</ele>
        <time>2022-09-02T09:08:09Z</time>
      </trkpt>
      <trkpt lat="47.91861" lon="6.81349">
        <ele>736.7</ele>
        <time>2022-09-02T09:08:10Z</time>
      </trkpt>
      <trkpt lat="47.91861" lon="6.81348">
        <ele>736.6</ele>
        <time>2022-09-02T09:08:11Z</time>
      </trkpt>
      <trkpt lat="47.9186" lon="6.81346">
        <ele>736.7</ele>
        <time>2022-09-02T09:08:12Z</time>
      </trkpt>
      <trkpt lat="47.9186" lon="6.81345">
        <ele>736.6</ele>
        <time>2022-09-02T09:08:13Z</time>
      </trkpt>
      <trkpt lat="47.9186" lon="6.81343">
        <ele>736.4</ele>
        <time>2022-09-02T09:08:14Z</time>
      </trkpt>
      <trkpt lat="47.91859" lon="6.81341">
        <ele>736.4</ele>
        <time>2022-09-02T09:08:15Z</time>
      </trkpt>
      <trkpt lat="47.91859" lon="6.8134">
        <ele>736.3</ele>
        <time>2022-09-02T09:08:16Z</time>
      </trkpt>
      <trkpt lat="47.91859" lon="6.81339">
        <ele>736.2</ele>
        <time>2022-09-02T09:08:17Z</time>
      </trkpt>
      <trkpt lat="47.91859" lon="6.81337">
        <ele>735.9</ele>
        <time>2022-09-02T09:08:18Z</time>
      </trkpt>
      <trkpt lat="47.91858" lon="6.81336">
        <ele>736.1</ele>
        <time>2022-09-02T09:08:19Z</time>
      </trkpt>
      <trkpt lat="47.91858" lon="6.81334">
        <ele>735.9</ele>
        <time>2022-09-02T09:08:20Z</time>
      </trkpt>
      <trkpt lat="47.91858" lon="6.81333">
        <ele>735.8</ele>
        <time>2022-09-02T09:08:21Z</time>
      </trkpt>
      <trkpt lat="47.91858" lon="6.81331">
        <ele>735.6</ele>
        <time>2022-09-02T09:08:22Z</time>
      </trkpt>
      <trkpt lat="47.91858" lon="6.81329">
        <ele>735.4</ele>
        <time>2022-09-02T09:08:23Z</time>
      </trkpt>
      <trkpt lat="47.91858" lon="6.81328">
        <ele>735.3</ele>
        <time>2022-09-02T09:08:24Z</time>
      </trkpt>
      <trkpt lat="47.91857" lon="6.81326">
        <ele>735.3</ele>
        <time>2022-09-02T09:08:25Z</time>
      </trkpt>
      <trkpt lat="47.91857" lon="6.81325">
        <ele>735.2</ele>
        <time>2022-09-02T09:08:26Z</time>
      </trkpt>
      <trkpt lat="47.91857" lon="6.81323">
        <ele>735</ele>
        <time>2022-09-02T09:08:27Z</time>
      </trkpt>
      <trkpt lat="47.91857" lon="6.81322">
        <ele>734.9</ele>
        <time>2022-09-02T09:08:28Z</time>
      </trkpt>
      <trkpt lat="47.91857" lon="6.8132">
        <ele>734.7</ele>
        <time>2022-09-02T09:08:29Z</time>
      </trkpt>
      <trkpt lat="47.91857" lon="6.81319">
        <ele>734.6</ele>
        <time>2022-09-02T09:08:30Z</time>
      </trkpt>
      <trkpt lat="47.91857" lon="6.81317">
        <ele>734.4</ele>
        <time>2022-09-02T09:08:31Z</time>
      </trkpt>
      <trkpt lat="47.91857" lon="6.81315">
        <ele>734.3</ele>
        <time>2022-09-02T09:08:32Z</time>
      </trkpt>
      <trkpt lat="47.91857" lon="6.81314">
        <ele>734.2</ele>
        <time>2022-09-02T09:08:33Z</time>
      </trkpt>
      <trkpt lat="47.91857" lon="6.81312">
        <ele>734</ele>
        <time>2022-09-02T09:08:34Z</time>
      </trkpt>
      <trkpt lat="47.91856" lon="6.8131">
        <ele>734.1</ele>
        <time>2022-09-02T09:08:35Z</time>
      </trkpt>
      <trkpt lat="47.91856" lon="6.81309">
        <ele>734</ele>
        <time>2022-09-02T09:08:36Z</time>
      </trkpt>
      <trkpt lat="47.91856" lon="6.81307">
        <ele>733.8</ele>
        <time>2022-09-02T09:08:37Z</time>
      </trkpt>
      <trkpt lat="47.91856" lon="6.81305">
        <ele>733.6</ele>
        <time>2022-09-02T09:08:38Z</time>
      </trkpt>
      <trkpt lat="47.91856" lon="6.81303">
        <ele>733.5</ele>
        <time>2022-09-02T09:08:39Z</time>
      </trkpt>
      <trkpt lat="47.91856" lon="6.81302">
        <ele>733.5</ele>
        <time>2022-09-02T09:08:40Z</time>
      </trkpt>
      <trkpt lat="47.91856" lon="6.813">
        <ele>733.4</ele>
        <time>2022-09-02T09:08:41Z</time>
      </trkpt>
      <trkpt lat="47.91856" lon="6.81298">
        <ele>733.3</ele>
        <time>2022-09-02T09:08:42Z</time>
      </trkpt>
      <trkpt lat="47.91856" lon="6.81297">
        <ele>733.3</ele>
        <time>2022-09-02T09:08:43Z</time>
      </trkpt>
      <trkpt lat="47.91856" lon="6.81295">
        <ele>733.2</ele>
        <time>2022-09-02T09:08:44Z</time>
      </trkpt>
      <trkpt lat="47.91856" lon="6.81294">
        <ele>733.2</ele>
        <time>2022-09-02T09:08:45Z</time>
      </trkpt>
      <trkpt lat="47.91856" lon="6.81292">
        <ele>733.1</ele>
        <time>2022-09-02T09:08:46Z</time>
      </trkpt>
      <trkpt lat="47.91856" lon="6.81291">
        <ele>733</ele>
        <time>2022-09-02T09:08:47Z</time>
      </trkpt>
      <trkpt lat="47.91855" lon="6.81289">
        <ele>733.3</ele>
        <time>2022-09-02T09:08:48Z</time>
      </trkpt>
      <trkpt lat="47.91855" lon="6.81288">
        <ele>733.2</ele>
        <time>2022-09-02T09:08:49Z</time>
      </trkpt>
      <trkpt lat="47.91855" lon="6.81286">
        <ele>733.1</ele>
        <time>2022-09-02T09:08:50Z</time>
      </trkpt>
      <trkpt lat="47.91855" lon="6.81284">
        <ele>733</ele>
        <time>2022-09-02T09:08:51Z</time>
      </trkpt>
      <trkpt lat="47.91855" lon="6.81283">
        <ele>733</ele>
        <time>2022-09-02T09:08:52Z</time>
      </trkpt>
      <trkpt lat="47.91855" lon="6.81281">
        <ele>732.9</ele>
        <time>2022-09-02T09:08:53Z</time>
      </trkpt>
      <trkpt lat="47.91854" lon="6.8128">
        <ele>733.1</ele>
        <time>2022-09-02T09:08:54Z</time>
      </trkpt>
      <trkpt lat="47.91854" lon="6.81278">
        <ele>733.1</ele>
        <time>2022-09-02T09:08:55Z</time>
      </trkpt>
      <trkpt lat="47.91854" lon="6.81277">
        <ele>733</ele>
        <time>2022-09-02T09:08:56Z</time>
      </trkpt>
      <trkpt lat="47.91854" lon="6.81275">
        <ele>732.8</ele>
        <time>2022-09-02T09:08:57Z</time>
      </trkpt>
      <trkpt lat="47.91854" lon="6.81274">
        <ele>732.7</ele>
        <time>2022-09-02T09:08:58Z</time>
      </trkpt>
      <trkpt lat="47.91853" lon="6.81272">
        <ele>732.8</ele>
        <time>2022-09-02T09:08:59Z</time>
      </trkpt>
      <trkpt lat="47.91853" lon="6.81271">
        <ele>732.7</ele>
        <time>2022-09-02T09:09:00Z</time>
      </trkpt>
      <trkpt lat="47.91853" lon="6.81269">
        <ele>732.5</ele>
        <time>2022-09-02T09:09:01Z</time>
      </trkpt>
      <trkpt lat="47.91853" lon="6.81268">
        <ele>732.4</ele>
        <time>2022-09-02T09:09:02Z</time>
      </trkpt>
      <trkpt lat="47.91853" lon="6.81266">
        <ele>732.2</ele>
        <time>2022-09-02T09:09:03Z</time>
      </trkpt>
      <trkpt lat="47.91852" lon="6.81265">
        <ele>732.4</ele>
        <time>2022-09-02T09:09:04Z</time>
      </trkpt>
      <trkpt lat="47.91852" lon="6.81263">
        <ele>732.2</ele>
        <time>2022-09-02T09:09:05Z</time>
      </trkpt>
      <trkpt lat="47.91852" lon="6.81262">
        <ele>732.1</ele>
        <time>2022-09-02T09:09:06Z</time>
      </trkpt>
      <trkpt lat="47.91852" lon="6.8126">
        <ele>731.9</ele>
        <time>2022-09-02T09:09:07Z</time>
      </trkpt>
      <trkpt lat="47.91852" lon="6.81258">
        <ele>731.7</ele>
        <time>2022-09-02T09:09:08Z</time>
      </trkpt>
      <trkpt lat="47.91851" lon="6.81257">
        <ele>731.9</ele>
        <time>2022-09-02T09:09:09Z</time>
      </trkpt>
      <trkpt lat="47.91851" lon="6.81255">
        <ele>731.8</ele>
        <time>2022-09-02T09:09:10Z</time>
      </trkpt>
      <trkpt lat="47.91851" lon="6.81253">
        <ele>731.6</ele>
        <time>2022-09-02T09:09:11Z</time>
      </trkpt>
      <trkpt lat="47.91851" lon="6.81252">
        <ele>731.5</ele>
        <time>2022-09-02T09:09:12Z</time>
      </trkpt>
      <trkpt lat="47.91851" lon="6.8125">
        <ele>731.3</ele>
        <time>2022-09-02T09:09:13Z</time>
      </trkpt>
      <trkpt lat="47.91851" lon="6.81248">
        <ele>731.2</ele>
        <time>2022-09-02T09:09:14Z</time>
      </trkpt>
      <trkpt lat="47.91851" lon="6.81246">
        <ele>731.2</ele>
        <time>2022-09-02T09:09:15Z</time>
      </trkpt>
      <trkpt lat="47.91851" lon="6.81244">
        <ele>731.2</ele>
        <time>2022-09-02T09:09:16Z</time>
      </trkpt>
      <trkpt lat="47.9185" lon="6.81243">
        <ele>731.5</ele>
        <time>2022-09-02T09:09:17Z</time>
      </trkpt>
      <trkpt lat="47.9185" lon="6.81241">
        <ele>731.5</ele>
        <time>2022-09-02T09:09:18Z</time>
      </trkpt>
      <trkpt lat="47.9185" lon="6.81239">
        <ele>731.4</ele>
        <time>2022-09-02T09:09:19Z</time>
      </trkpt>
      <trkpt lat="47.9185" lon="6.81238">
        <ele>731.4</ele>
        <time>2022-09-02T09:09:20Z</time>
      </trkpt>
      <trkpt lat="47.9185" lon="6.81236">
        <ele>731.4</ele>
        <time>2022-09-02T09:09:21Z</time>
      </trkpt>
      <trkpt lat="47.9185" lon="6.81234">
        <ele>731.4</ele>
        <time>2022-09-02T09:09:22Z</time>
      </trkpt>
      <trkpt lat="47.9185" lon="6.81233">
        <ele>731.4</ele>
        <time>2022-09-02T09:09:23Z</time>
      </trkpt>
      <trkpt lat="47.9185" lon="6.81231">
        <ele>731.3</ele>
        <time>2022-09-02T09:09:24Z</time>
      </trkpt>
      <trkpt lat="47.91849" lon="6.81229">
        <ele>731.6</ele>
        <time>2022-09-02T09:09:25Z</time>
      </trkpt>
      <trkpt lat="47.91849" lon="6.81228">
        <ele>731.6</ele>
        <time>2022-09-02T09:09:26Z</time>
      </trkpt>
      <trkpt lat="47.91849" lon="6.81226">
        <ele>731.5</ele>
        <time>2022-09-02T09:09:27Z</time>
      </trkpt>
      <trkpt lat="47.91849" lon="6.81225">
        <ele>731.5</ele>
        <time>2022-09-02T09:09:28Z</time>
      </trkpt>
      <trkpt lat="47.91849" lon="6.81223">
        <ele>731.5</ele>
        <time>2022-09-02T09:09:29Z</time>
      </trkpt>
      <trkpt lat="47.91849" lon="6.81222">
        <ele>731.5</ele>
        <time>2022-09-02T09:09:30Z</time>
      </trkpt>
      <trkpt lat="47.91849" lon="6.8122">
        <ele>731.3</ele>
        <time>2022-09-02T09:09:31Z</time>
      </trkpt>
      <trkpt lat="47.91848" lon="6.81219">
        <ele>731.5</ele>
        <time>2022-09-02T09:09:32Z</time>
      </trkpt>
      <trkpt lat="47.91848" lon="6.81217">
        <ele>731.4</ele>
        <time>2022-09-02T09:09:33Z</time>
      </trkpt>
      <trkpt lat="47.91848" lon="6.81216">
        <ele>731.3</ele>
        <time>2022-09-02T09:09:34Z</time>
      </trkpt>
      <trkpt lat="47.91847" lon="6.81214">
        <ele>731.5</ele>
        <time>2022-09-02T09:09:35Z</time>
      </trkpt>
      <trkpt lat="47.91847" lon="6.81213">
        <ele>731.4</ele>
        <time>2022-09-02T09:09:36Z</time>
      </trkpt>
      <trkpt lat="47.91847" lon="6.81211">
        <ele>731.3</ele>
        <time>2022-09-02T09:09:37Z</time>
      </trkpt>
      <trkpt lat="47.91847" lon="6.8121">
        <ele>731.2</ele>
        <time>2022-09-02T09:09:38Z</time>
      </trkpt>
      <trkpt lat="47.91846" lon="6.81208">
        <ele>731.3</ele>
        <time>2022-09-02T09:09:39Z</time>
      </trkpt>
      <trkpt lat="47.91846" lon="6.81207">
        <ele>731.3</ele>
        <time>2022-09-02T09:09:40Z</time>
      </trkpt>
      <trkpt lat="47.91846" lon="6.81205">
        <ele>731.1</ele>
        <time>2022-09-02T09:09:41Z</time>
      </trkpt>
      <trkpt lat="47.91846" lon="6.81204">
        <ele>731</ele>
        <time>2022-09-02T09:09:42Z</time>
      </trkpt>
      <trkpt lat="47.91846" lon="6.81202">
        <ele>730.9</ele>
        <time>2022-09-02T09:09:43Z</time>
      </trkpt>
      <trkpt lat="47.91846" lon="6.81201">
        <ele>730.8</ele>
        <time>2022-09-02T09:09:44Z</time>
      </trkpt>
      <trkpt lat="47.91845" lon="6.81199">
        <ele>731</ele>
        <time>2022-09-02T09:09:45Z</time>
      </trkpt>
      <trkpt lat="47.91845" lon="6.81198">
        <ele>730.9</ele>
        <time>2022-09-02T09:09:46Z</time>
      </trkpt>
      <trkpt lat="47.91845" lon="6.81196">
        <ele>730.8</ele>
        <time>2022-09-02T09:09:47Z</time>
      </trkpt>
      <trkpt lat="47.91844" lon="6.81195">
        <ele>731</ele>
        <time>2022-09-02T09:09:48Z</time>
      </trkpt>
      <trkpt lat="47.91844" lon="6.81193">
        <ele>730.8</ele>
        <time>2022-09-02T09:09:49Z</time>
      </trkpt>
      <trkpt lat="47.91844" lon="6.81192">
        <ele>730.7</ele>
        <time>2022-09-02T09:09:50Z</time>
      </trkpt>
      <trkpt lat="47.91843" lon="6.8119">
        <ele>730.8</ele>
        <time>2022-09-02T09:09:51Z</time>
      </trkpt>
      <trkpt lat="47.91843" lon="6.81188">
        <ele>730.7</ele>
        <time>2022-09-02T09:09:52Z</time>
      </trkpt>
      <trkpt lat="47.91843" lon="6.81187">
        <ele>730.6</ele>
        <time>2022-09-02T09:09:53Z</time>
      </trkpt>
      <trkpt lat="47.91843" lon="6.81186">
        <ele>730.5</ele>
        <time>2022-09-02T09:09:54Z</time>
      </trkpt>
      <trkpt lat="47.91842" lon="6.81184">
        <ele>730.6</ele>
        <time>2022-09-02T09:09:55Z</time>
      </trkpt>
      <trkpt lat="47.91842" lon="6.81183">
        <ele>730.5</ele>
        <time>2022-09-02T09:09:56Z</time>
      </trkpt>
      <trkpt lat="47.91842" lon="6.81181">
        <ele>730.4</ele>
        <time>2022-09-02T09:09:57Z</time>
      </trkpt>
      <trkpt lat="47.91842" lon="6.8118">
        <ele>730.3</ele>
        <time>2022-09-02T09:09:58Z</time>
      </trkpt>
      <trkpt lat="47.91841" lon="6.81178">
        <ele>730.3</ele>
        <time>2022-09-02T09:09:59Z</time>
      </trkpt>
      <trkpt lat="47.91841" lon="6.81176">
        <ele>730.2</ele>
        <time>2022-09-02T09:10:00Z</time>
      </trkpt>
      <trkpt lat="47.9184" lon="6.81175">
        <ele>730.3</ele>
        <time>2022-09-02T09:10:01Z</time>
      </trkpt>
      <trkpt lat="47.9184" lon="6.81173">
        <ele>730.1</ele>
        <time>2022-09-02T09:10:02Z</time>
      </trkpt>
      <trkpt lat="47.91839" lon="6.81171">
        <ele>730.2</ele>
        <time>2022-09-02T09:10:03Z</time>
      </trkpt>
      <trkpt lat="47.91839" lon="6.8117">
        <ele>730.1</ele>
        <time>2022-09-02T09:10:04Z</time>
      </trkpt>
      <trkpt lat="47.91838" lon="6.81168">
        <ele>730.1</ele>
        <time>2022-09-02T09:10:05Z</time>
      </trkpt>
      <trkpt lat="47.91838" lon="6.81167">
        <ele>730</ele>
        <time>2022-09-02T09:10:06Z</time>
      </trkpt>
      <trkpt lat="47.91837" lon="6.81165">
        <ele>730.1</ele>
        <time>2022-09-02T09:10:07Z</time>
      </trkpt>
      <trkpt lat="47.91837" lon="6.81163">
        <ele>730.1</ele>
        <time>2022-09-02T09:10:08Z</time>
      </trkpt>
      <trkpt lat="47.91837" lon="6.81162">
        <ele>730</ele>
        <time>2022-09-02T09:10:09Z</time>
      </trkpt>
      <trkpt lat="47.91836" lon="6.8116">
        <ele>730.2</ele>
        <time>2022-09-02T09:10:10Z</time>
      </trkpt>
      <trkpt lat="47.91836" lon="6.81159">
        <ele>730.1</ele>
        <time>2022-09-02T09:10:11Z</time>
      </trkpt>
      <trkpt lat="47.91835" lon="6.81157">
        <ele>730.3</ele>
        <time>2022-09-02T09:10:12Z</time>
      </trkpt>
      <trkpt lat="47.91835" lon="6.81155">
        <ele>730.2</ele>
        <time>2022-09-02T09:10:13Z</time>
      </trkpt>
      <trkpt lat="47.91835" lon="6.81153">
        <ele>730.1</ele>
        <time>2022-09-02T09:10:14Z</time>
      </trkpt>
      <trkpt lat="47.91834" lon="6.81152">
        <ele>730.3</ele>
        <time>2022-09-02T09:10:15Z</time>
      </trkpt>
      <trkpt lat="47.91834" lon="6.8115">
        <ele>730.2</ele>
        <time>2022-09-02T09:10:16Z</time>
      </trkpt>
      <trkpt lat="47.91833" lon="6.81148">
        <ele>730.4</ele>
        <time>2022-09-02T09:10:17Z</time>
      </trkpt>
      <trkpt lat="47.91833" lon="6.81147">
        <ele>730.4</ele>
        <time>2022-09-02T09:10:18Z</time>
      </trkpt>
      <trkpt lat="47.91832" lon="6.81145">
        <ele>730.6</ele>
        <time>2022-09-02T09:10:19Z</time>
      </trkpt>
      <trkpt lat="47.91832" lon="6.81143">
        <ele>730.5</ele>
        <time>2022-09-02T09:10:20Z</time>
      </trkpt>
      <trkpt lat="47.91832" lon="6.81142">
        <ele>730.5</ele>
        <time>2022-09-02T09:10:21Z</time>
      </trkpt>
      <trkpt lat="47.91831" lon="6.8114">
        <ele>730.6</ele>
        <time>2022-09-02T09:10:22Z</time>
      </trkpt>
      <trkpt lat="47.91831" lon="6.81138">
        <ele>730.5</ele>
        <time>2022-09-02T09:10:23Z</time>
      </trkpt>
      <trkpt lat="47.91831" lon="6.81136">
        <ele>730.3</ele>
        <time>2022-09-02T09:10:24Z</time>
      </trkpt>
      <trkpt lat="47.9183" lon="6.81135">
        <ele>730.4</ele>
        <time>2022-09-02T09:10:25Z</time>
      </trkpt>
      <trkpt lat="47.9183" lon="6.81133">
        <ele>730.2</ele>
        <time>2022-09-02T09:10:26Z</time>
      </trkpt>
      <trkpt lat="47.9183" lon="6.81131">
        <ele>730</ele>
        <time>2022-09-02T09:10:27Z</time>
      </trkpt>
      <trkpt lat="47.91829" lon="6.8113">
        <ele>730.1</ele>
        <time>2022-09-02T09:10:28Z</time>
      </trkpt>
      <trkpt lat="47.91829" lon="6.81128">
        <ele>729.9</ele>
        <time>2022-09-02T09:10:29Z</time>
      </trkpt>
      <trkpt lat="47.91828" lon="6.81126">
        <ele>730</ele>
        <time>2022-09-02T09:10:30Z</time>
      </trkpt>
      <trkpt lat="47.91828" lon="6.81125">
        <ele>729.8</ele>
        <time>2022-09-02T09:10:31Z</time>
      </trkpt>
      <trkpt lat="47.91827" lon="6.81123">
        <ele>729.9</ele>
        <time>2022-09-02T09:10:32Z</time>
      </trkpt>
      <trkpt lat="47.91827" lon="6.81121">
        <ele>729.7</ele>
        <time>2022-09-02T09:10:33Z</time>
      </trkpt>
      <trkpt lat="47.91826" lon="6.8112">
        <ele>729.8</ele>
        <time>2022-09-02T09:10:34Z</time>
      </trkpt>
      <trkpt lat="47.91826" lon="6.81118">
        <ele>729.6</ele>
        <time>2022-09-02T09:10:35Z</time>
      </trkpt>
      <trkpt lat="47.91825" lon="6.81117">
        <ele>729.7</ele>
        <time>2022-09-02T09:10:36Z</time>
      </trkpt>
      <trkpt lat="47.91825" lon="6.81115">
        <ele>729.5</ele>
        <time>2022-09-02T09:10:37Z</time>
      </trkpt>
      <trkpt lat="47.91824" lon="6.81114">
        <ele>729.7</ele>
        <time>2022-09-02T09:10:38Z</time>
      </trkpt>
      <trkpt lat="47.91824" lon="6.81112">
        <ele>729.4</ele>
        <time>2022-09-02T09:10:39Z</time>
      </trkpt>
      <trkpt lat="47.91824" lon="6.8111">
        <ele>729.3</ele>
        <time>2022-09-02T09:10:40Z</time>
      </trkpt>
      <trkpt lat="47.91823" lon="6.81109">
        <ele>729.5</ele>
        <time>2022-09-02T09:10:41Z</time>
      </trkpt>
      <trkpt lat="47.91823" lon="6.81107">
        <ele>729.3</ele>
        <time>2022-09-02T09:10:42Z</time>
      </trkpt>
      <trkpt lat="47.91822" lon="6.81105">
        <ele>729.4</ele>
        <time>2022-09-02T09:10:43Z</time>
      </trkpt>
      <trkpt lat="47.91822" lon="6.81104">
        <ele>729.3</ele>
        <time>2022-09-02T09:10:44Z</time>
      </trkpt>
      <trkpt lat="47.91821" lon="6.81102">
        <ele>729.5</ele>
        <time>2022-09-02T09:10:45Z</time>
      </trkpt>
      <trkpt lat="47.91821" lon="6.811">
        <ele>729.3</ele>
        <time>2022-09-02T09:10:46Z</time>
      </trkpt>
      <trkpt lat="47.9182" lon="6.81098">
        <ele>729.4</ele>
        <time>2022-09-02T09:10:47Z</time>
      </trkpt>
      <trkpt lat="47.9182" lon="6.81096">
        <ele>729.3</ele>
        <time>2022-09-02T09:10:48Z</time>
      </trkpt>
      <trkpt lat="47.91819" lon="6.81095">
        <ele>729.5</ele>
        <time>2022-09-02T09:10:49Z</time>
      </trkpt>
      <trkpt lat="47.91819" lon="6.81093">
        <ele>729.3</ele>
        <time>2022-09-02T09:10:50Z</time>
      </trkpt>
      <trkpt lat="47.91818" lon="6.81091">
        <ele>729.4</ele>
        <time>2022-09-02T09:10:51Z</time>
      </trkpt>
      <trkpt lat="47.91818" lon="6.81089">
        <ele>729.3</ele>
        <time>2022-09-02T09:10:52Z</time>
      </trkpt>
      <trkpt lat="47.91818" lon="6.81088">
        <ele>729.2</ele>
        <time>2022-09-02T09:10:53Z</time>
      </trkpt>
      <trkpt lat="47.91817" lon="6.81086">
        <ele>729.3</ele>
        <time>2022-09-02T09:10:54Z</time>
      </trkpt>
      <trkpt lat="47.91817" lon="6.81084">
        <ele>729.2</ele>
        <time>2022-09-02T09:10:55Z</time>
      </trkpt>
      <trkpt lat="47.91816" lon="6.81083">
        <ele>729.3</ele>
        <time>2022-09-02T09:10:56Z</time>
      </trkpt>
      <trkpt lat="47.91816" lon="6.81081">
        <ele>729.2</ele>
        <time>2022-09-02T09:10:57Z</time>
      </trkpt>
      <trkpt lat="47.91815" lon="6.81079">
        <ele>729.3</ele>
        <time>2022-09-02T09:10:58Z</time>
      </trkpt>
      <trkpt lat="47.91815" lon="6.81078">
        <ele>729.2</ele>
        <time>2022-09-02T09:10:59Z</time>
      </trkpt>
      <trkpt lat="47.91814" lon="6.81076">
        <ele>729.3</ele>
        <time>2022-09-02T09:11:00Z</time>
      </trkpt>
      <trkpt lat="47.91814" lon="6.81075">
        <ele>729.3</ele>
        <time>2022-09-02T09:11:01Z</time>
      </trkpt>
      <trkpt lat="47.91813" lon="6.81073">
        <ele>729.4</ele>
        <time>2022-09-02T09:11:02Z</time>
      </trkpt>
      <trkpt lat="47.91813" lon="6.81072">
        <ele>729.3</ele>
        <time>2022-09-02T09:11:03Z</time>
      </trkpt>
      <trkpt lat="47.91812" lon="6.8107">
        <ele>729.4</ele>
        <time>2022-09-02T09:11:04Z</time>
      </trkpt>
      <trkpt lat="47.91812" lon="6.81069">
        <ele>729.3</ele>
        <time>2022-09-02T09:11:05Z</time>
      </trkpt>
      <trkpt lat="47.91811" lon="6.81068">
        <ele>729.5</ele>
        <time>2022-09-02T09:11:06Z</time>
      </trkpt>
      <trkpt lat="47.9181" lon="6.81066">
        <ele>729.6</ele>
        <time>2022-09-02T09:11:07Z</time>
      </trkpt>
      <trkpt lat="47.9181" lon="6.81065">
        <ele>729.6</ele>
        <time>2022-09-02T09:11:08Z</time>
      </trkpt>
      <trkpt lat="47.91809" lon="6.81064">
        <ele>729.7</ele>
        <time>2022-09-02T09:11:09Z</time>
      </trkpt>
      <trkpt lat="47.91808" lon="6.81062">
        <ele>729.8</ele>
        <time>2022-09-02T09:11:10Z</time>
      </trkpt>
      <trkpt lat="47.91808" lon="6.81061">
        <ele>729.8</ele>
        <time>2022-09-02T09:11:11Z</time>
      </trkpt>
      <trkpt lat="47.91807" lon="6.8106">
        <ele>730</ele>
        <time>2022-09-02T09:11:12Z</time>
      </trkpt>
      <trkpt lat="47.91806" lon="6.81058">
        <ele>730.1</ele>
        <time>2022-09-02T09:11:13Z</time>
      </trkpt>
      <trkpt lat="47.91806" lon="6.81057">
        <ele>730</ele>
        <time>2022-09-02T09:11:14Z</time>
      </trkpt>
      <trkpt lat="47.91805" lon="6.81056">
        <ele>730.1</ele>
        <time>2022-09-02T09:11:15Z</time>
      </trkpt>
      <trkpt lat="47.91804" lon="6.81054">
        <ele>730.1</ele>
        <time>2022-09-02T09:11:16Z</time>
      </trkpt>
      <trkpt lat="47.91803" lon="6.81053">
        <ele>730.2</ele>
        <time>2022-09-02T09:11:17Z</time>
      </trkpt>
      <trkpt lat="47.91803" lon="6.81052">
        <ele>730.1</ele>
        <time>2022-09-02T09:11:18Z</time>
      </trkpt>
      <trkpt lat="47.91802" lon="6.8105">
        <ele>730.1</ele>
        <time>2022-09-02T09:11:19Z</time>
      </trkpt>
      <trkpt lat="47.91801" lon="6.81049">
        <ele>730.1</ele>
        <time>2022-09-02T09:11:20Z</time>
      </trkpt>
      <trkpt lat="47.91801" lon="6.81047">
        <ele>730</ele>
        <time>2022-09-02T09:11:21Z</time>
      </trkpt>
      <trkpt lat="47.918" lon="6.81046">
        <ele>730</ele>
        <time>2022-09-02T09:11:22Z</time>
      </trkpt>
      <trkpt lat="47.91799" lon="6.81045">
        <ele>730.1</ele>
        <time>2022-09-02T09:11:23Z</time>
      </trkpt>
      <trkpt lat="47.91799" lon="6.81043">
        <ele>729.9</ele>
        <time>2022-09-02T09:11:24Z</time>
      </trkpt>
      <trkpt lat="47.91798" lon="6.81042">
        <ele>730</ele>
        <time>2022-09-02T09:11:25Z</time>
      </trkpt>
      <trkpt lat="47.91797" lon="6.81041">
        <ele>730</ele>
        <time>2022-09-02T09:11:26Z</time>
      </trkpt>
      <trkpt lat="47.91796" lon="6.8104">
        <ele>730.1</ele>
        <time>2022-09-02T09:11:27Z</time>
      </trkpt>
      <trkpt lat="47.91795" lon="6.81039">
        <ele>730.1</ele>
        <time>2022-09-02T09:11:28Z</time>
      </trkpt>
      <trkpt lat="47.91795" lon="6.81038">
        <ele>730</ele>
        <time>2022-09-02T09:11:29Z</time>
      </trkpt>
      <trkpt lat="47.91794" lon="6.81036">
        <ele>730</ele>
        <time>2022-09-02T09:11:30Z</time>
      </trkpt>
      <trkpt lat="47.91793" lon="6.81035">
        <ele>730</ele>
        <time>2022-09-02T09:11:31Z</time>
      </trkpt>
      <trkpt lat="47.91793" lon="6.81034">
        <ele>729.9</ele>
        <time>2022-09-02T09:11:32Z</time>
      </trkpt>
      <trkpt lat="47.91792" lon="6.81032">
        <ele>729.8</ele>
        <time>2022-09-02T09:11:33Z</time>
      </trkpt>
      <trkpt lat="47.91791" lon="6.81031">
        <ele>729.9</ele>
        <time>2022-09-02T09:11:34Z</time>
      </trkpt>
      <trkpt lat="47.91791" lon="6.8103">
        <ele>729.8</ele>
        <time>2022-09-02T09:11:35Z</time>
      </trkpt>
      <trkpt lat="47.9179" lon="6.81028">
        <ele>729.7</ele>
        <time>2022-09-02T09:11:36Z</time>
      </trkpt>
      <trkpt lat="47.91789" lon="6.81027">
        <ele>729.7</ele>
        <time>2022-09-02T09:11:37Z</time>
      </trkpt>
      <trkpt lat="47.91788" lon="6.81026">
        <ele>729.8</ele>
        <time>2022-09-02T09:11:38Z</time>
      </trkpt>
      <trkpt lat="47.91788" lon="6.81025">
        <ele>729.7</ele>
        <time>2022-09-02T09:11:39Z</time>
      </trkpt>
      <trkpt lat="47.91787" lon="6.81023">
        <ele>729.6</ele>
        <time>2022-09-02T09:11:40Z</time>
      </trkpt>
      <trkpt lat="47.91786" lon="6.81022">
        <ele>729.6</ele>
        <time>2022-09-02T09:11:41Z</time>
      </trkpt>
      <trkpt lat="47.91786" lon="6.81021">
        <ele>729.5</ele>
        <time>2022-09-02T09:11:42Z</time>
      </trkpt>
      <trkpt lat="47.91785" lon="6.8102">
        <ele>729.5</ele>
        <time>2022-09-02T09:11:43Z</time>
      </trkpt>
      <trkpt lat="47.91784" lon="6.81018">
        <ele>729.4</ele>
        <time>2022-09-02T09:11:44Z</time>
      </trkpt>
      <trkpt lat="47.91783" lon="6.81017">
        <ele>729.4</ele>
        <time>2022-09-02T09:11:45Z</time>
      </trkpt>
      <trkpt lat="47.91782" lon="6.81016">
        <ele>729.4</ele>
        <time>2022-09-02T09:11:46Z</time>
      </trkpt>
      <trkpt lat="47.91781" lon="6.81015">
        <ele>729.4</ele>
        <time>2022-09-02T09:11:47Z</time>
      </trkpt>
      <trkpt lat="47.91781" lon="6.81014">
        <ele>729.3</ele>
        <time>2022-09-02T09:11:48Z</time>
      </trkpt>
      <trkpt lat="47.9178" lon="6.81012">
        <ele>729.1</ele>
        <time>2022-09-02T09:11:49Z</time>
      </trkpt>
      <trkpt lat="47.91779" lon="6.81011">
        <ele>729.1</ele>
        <time>2022-09-02T09:11:50Z</time>
      </trkpt>
      <trkpt lat="47.91778" lon="6.8101">
        <ele>729.1</ele>
        <time>2022-09-02T09:11:51Z</time>
      </trkpt>
      <trkpt lat="47.91777" lon="6.81009">
        <ele>729.1</ele>
        <time>2022-09-02T09:11:52Z</time>
      </trkpt>
      <trkpt lat="47.91776" lon="6.81007">
        <ele>729</ele>
        <time>2022-09-02T09:11:53Z</time>
      </trkpt>
      <trkpt lat="47.91776" lon="6.81006">
        <ele>728.9</ele>
        <time>2022-09-02T09:11:54Z</time>
      </trkpt>
      <trkpt lat="47.91775" lon="6.81005">
        <ele>728.9</ele>
        <time>2022-09-02T09:11:55Z</time>
      </trkpt>
      <trkpt lat="47.91774" lon="6.81003">
        <ele>728.8</ele>
        <time>2022-09-02T09:11:56Z</time>
      </trkpt>
      <trkpt lat="47.91773" lon="6.81002">
        <ele>728.8</ele>
        <time>2022-09-02T09:11:57Z</time>
      </trkpt>
      <trkpt lat="47.91773" lon="6.81001">
        <ele>728.6</ele>
        <time>2022-09-02T09:11:58Z</time>
      </trkpt>
      <trkpt lat="47.91772" lon="6.80999">
        <ele>728.6</ele>
        <time>2022-09-02T09:11:59Z</time>
      </trkpt>
      <trkpt lat="47.91771" lon="6.80998">
        <ele>728.7</ele>
        <time>2022-09-02T09:12:00Z</time>
      </trkpt>
      <trkpt lat="47.91771" lon="6.80997">
        <ele>728.7</ele>
        <time>2022-09-02T09:12:01Z</time>
      </trkpt>
      <trkpt lat="47.9177" lon="6.80995">
        <ele>728.7</ele>
        <time>2022-09-02T09:12:02Z</time>
      </trkpt>
      <trkpt lat="47.91769" lon="6.80994">
        <ele>728.8</ele>
        <time>2022-09-02T09:12:03Z</time>
      </trkpt>
      <trkpt lat="47.91768" lon="6.80993">
        <ele>728.9</ele>
        <time>2022-09-02T09:12:04Z</time>
      </trkpt>
      <trkpt lat="47.91768" lon="6.80991">
        <ele>728.8</ele>
        <time>2022-09-02T09:12:05Z</time>
      </trkpt>
      <trkpt lat="47.91767" lon="6.8099">
        <ele>728.9</ele>
        <time>2022-09-02T09:12:06Z</time>
      </trkpt>
      <trkpt lat="47.91766" lon="6.80989">
        <ele>728.9</ele>
        <time>2022-09-02T09:12:07Z</time>
      </trkpt>
      <trkpt lat="47.91765" lon="6.80987">
        <ele>728.9</ele>
        <time>2022-09-02T09:12:08Z</time>
      </trkpt>
      <trkpt lat="47.91765" lon="6.80986">
        <ele>728.9</ele>
        <time>2022-09-02T09:12:09Z</time>
      </trkpt>
      <trkpt lat="47.91764" lon="6.80985">
        <ele>729</ele>
        <time>2022-09-02T09:12:10Z</time>
      </trkpt>
      <trkpt lat="47.91763" lon="6.80983">
        <ele>728.9</ele>
        <time>2022-09-02T09:12:11Z</time>
      </trkpt>
      <trkpt lat="47.91763" lon="6.80982">
        <ele>728.9</ele>
        <time>2022-09-02T09:12:12Z</time>
      </trkpt>
      <trkpt lat="47.91762" lon="6.80981">
        <ele>728.9</ele>
        <time>2022-09-02T09:12:13Z</time>
      </trkpt>
      <trkpt lat="47.91761" lon="6.80979">
        <ele>728.9</ele>
        <time>2022-09-02T09:12:14Z</time>
      </trkpt>
      <trkpt lat="47.91761" lon="6.80978">
        <ele>728.9</ele>
        <time>2022-09-02T09:12:15Z</time>
      </trkpt>
      <trkpt lat="47.9176" lon="6.80977">
        <ele>728.9</ele>
        <time>2022-09-02T09:12:16Z</time>
      </trkpt>
      <trkpt lat="47.91759" lon="6.80975">
        <ele>728.8</ele>
        <time>2022-09-02T09:12:17Z</time>
      </trkpt>
      <trkpt lat="47.91759" lon="6.80974">
        <ele>728.8</ele>
        <time>2022-09-02T09:12:18Z</time>
      </trkpt>
      <trkpt lat="47.91758" lon="6.80972">
        <ele>728.7</ele>
        <time>2022-09-02T09:12:19Z</time>
      </trkpt>
      <trkpt lat="47.91758" lon="6.80971">
        <ele>728.6</ele>
        <time>2022-09-02T09:12:20Z</time>
      </trkpt>
      <trkpt lat="47.91757" lon="6.80969">
        <ele>728.5</ele>
        <time>2022-09-02T09:12:21Z</time>
      </trkpt>
      <trkpt lat="47.91757" lon="6.80968">
        <ele>728.4</ele>
        <time>2022-09-02T09:12:22Z</time>
      </trkpt>
      <trkpt lat="47.91756" lon="6.80966">
        <ele>728.3</ele>
        <time>2022-09-02T09:12:23Z</time>
      </trkpt>
      <trkpt lat="47.91756" lon="6.80965">
        <ele>728.3</ele>
        <time>2022-09-02T09:12:24Z</time>
      </trkpt>
      <trkpt lat="47.91755" lon="6.80963">
        <ele>728.2</ele>
        <time>2022-09-02T09:12:25Z</time>
      </trkpt>
      <trkpt lat="47.91754" lon="6.80962">
        <ele>728.1</ele>
        <time>2022-09-02T09:12:26Z</time>
      </trkpt>
      <trkpt lat="47.91754" lon="6.8096">
        <ele>728</ele>
        <time>2022-09-02T09:12:27Z</time>
      </trkpt>
      <trkpt lat="47.91753" lon="6.80958">
        <ele>727.9</ele>
        <time>2022-09-02T09:12:28Z</time>
      </trkpt>
      <trkpt lat="47.91753" lon="6.80957">
        <ele>727.8</ele>
        <time>2022-09-02T09:12:29Z</time>
      </trkpt>
      <trkpt lat="47.91752" lon="6.80955">
        <ele>727.7</ele>
        <time>2022-09-02T09:12:30Z</time>
      </trkpt>
      <trkpt lat="47.91751" lon="6.80954">
        <ele>727.7</ele>
        <time>2022-09-02T09:12:31Z</time>
      </trkpt>
      <trkpt lat="47.91751" lon="6.80952">
        <ele>727.5</ele>
        <time>2022-09-02T09:12:32Z</time>
      </trkpt>
      <trkpt lat="47.9175" lon="6.80951">
        <ele>727.5</ele>
        <time>2022-09-02T09:12:33Z</time>
      </trkpt>
      <trkpt lat="47.9175" lon="6.8095">
        <ele>727.4</ele>
        <time>2022-09-02T09:12:34Z</time>
      </trkpt>
      <trkpt lat="47.91749" lon="6.80948">
        <ele>727.2</ele>
        <time>2022-09-02T09:12:35Z</time>
      </trkpt>
      <trkpt lat="47.91749" lon="6.80947">
        <ele>727.2</ele>
        <time>2022-09-02T09:12:36Z</time>
      </trkpt>
      <trkpt lat="47.91748" lon="6.80946">
        <ele>727.1</ele>
        <time>2022-09-02T09:12:37Z</time>
      </trkpt>
      <trkpt lat="47.91748" lon="6.80945">
        <ele>727</ele>
        <time>2022-09-02T09:12:38Z</time>
      </trkpt>
      <trkpt lat="47.91748" lon="6.80943">
        <ele>726.9</ele>
        <time>2022-09-02T09:12:39Z</time>
      </trkpt>
      <trkpt lat="47.91747" lon="6.80942">
        <ele>726.8</ele>
        <time>2022-09-02T09:12:40Z</time>
      </trkpt>
      <trkpt lat="47.91747" lon="6.80941">
        <ele>726.7</ele>
        <time>2022-09-02T09:12:41Z</time>
      </trkpt>
      <trkpt lat="47.91746" lon="6.8094">
        <ele>726.6</ele>
        <time>2022-09-02T09:12:42Z</time>
      </trkpt>
      <trkpt lat="47.91745" lon="6.80939">
        <ele>726.6</ele>
        <time>2022-09-02T09:12:43Z</time>
      </trkpt>
      <trkpt lat="47.91744" lon="6.80938">
        <ele>726.5</ele>
        <time>2022-09-02T09:12:44Z</time>
      </trkpt>
      <trkpt lat="47.91744" lon="6.80937">
        <ele>726.4</ele>
        <time>2022-09-02T09:12:45Z</time>
      </trkpt>
      <trkpt lat="47.91743" lon="6.80936">
        <ele>726.3</ele>
        <time>2022-09-02T09:12:46Z</time>
      </trkpt>
      <trkpt lat="47.91742" lon="6.80935">
        <ele>726.2</ele>
        <time>2022-09-02T09:12:47Z</time>
      </trkpt>
      <trkpt lat="47.91742" lon="6.80934">
        <ele>726.1</ele>
        <time>2022-09-02T09:12:48Z</time>
      </trkpt>
      <trkpt lat="47.91741" lon="6.80933">
        <ele>726</ele>
        <time>2022-09-02T09:12:49Z</time>
      </trkpt>
      <trkpt lat="47.91741" lon="6.80932">
        <ele>725.9</ele>
        <time>2022-09-02T09:12:50Z</time>
      </trkpt>
      <trkpt lat="47.9174" lon="6.80931">
        <ele>725.8</ele>
        <time>2022-09-02T09:12:51Z</time>
      </trkpt>
      <trkpt lat="47.91739" lon="6.8093">
        <ele>725.7</ele>
        <time>2022-09-02T09:12:52Z</time>
      </trkpt>
      <trkpt lat="47.91739" lon="6.80929">
        <ele>725.6</ele>
        <time>2022-09-02T09:12:53Z</time>
      </trkpt>
      <trkpt lat="47.91738" lon="6.80928">
        <ele>725.5</ele>
        <time>2022-09-02T09:12:54Z</time>
      </trkpt>
      <trkpt lat="47.91738" lon="6.80927">
        <ele>725.4</ele>
        <time>2022-09-02T09:12:55Z</time>
      </trkpt>
      <trkpt lat="47.91737" lon="6.80926">
        <ele>725.2</ele>
        <time>2022-09-02T09:12:56Z</time>
      </trkpt>
      <trkpt lat="47.91737" lon="6.80925">
        <ele>725.2</ele>
        <time>2022-09-02T09:12:57Z</time>
      </trkpt>
      <trkpt lat="47.91736" lon="6.80924">
        <ele>725</ele>
        <time>2022-09-02T09:12:58Z</time>
      </trkpt>
      <trkpt lat="47.91735" lon="6.80922">
        <ele>724.8</ele>
        <time>2022-09-02T09:12:59Z</time>
      </trkpt>
      <trkpt lat="47.91734" lon="6.80921">
        <ele>724.6</ele>
        <time>2022-09-02T09:13:00Z</time>
      </trkpt>
      <trkpt lat="47.91734" lon="6.8092">
        <ele>724.5</ele>
        <time>2022-09-02T09:13:01Z</time>
      </trkpt>
      <trkpt lat="47.91733" lon="6.80919">
        <ele>724.4</ele>
        <time>2022-09-02T09:13:02Z</time>
      </trkpt>
      <trkpt lat="47.91732" lon="6.80919">
        <ele>724.2</ele>
        <time>2022-09-02T09:13:03Z</time>
      </trkpt>
      <trkpt lat="47.91731" lon="6.80918">
        <ele>724.1</ele>
        <time>2022-09-02T09:13:04Z</time>
      </trkpt>
      <trkpt lat="47.9173" lon="6.80917">
        <ele>723.9</ele>
        <time>2022-09-02T09:13:05Z</time>
      </trkpt>
      <trkpt lat="47.91729" lon="6.80916">
        <ele>723.7</ele>
        <time>2022-09-02T09:13:06Z</time>
      </trkpt>
      <trkpt lat="47.91728" lon="6.80915">
        <ele>723.6</ele>
        <time>2022-09-02T09:13:07Z</time>
      </trkpt>
      <trkpt lat="47.91728" lon="6.80914">
        <ele>723.7</ele>
        <time>2022-09-02T09:13:08Z</time>
      </trkpt>
      <trkpt lat="47.91727" lon="6.80914">
        <ele>723.6</ele>
        <time>2022-09-02T09:13:09Z</time>
      </trkpt>
      <trkpt lat="47.91726" lon="6.80913">
        <ele>723.5</ele>
        <time>2022-09-02T09:13:10Z</time>
      </trkpt>
      <trkpt lat="47.91726" lon="6.80912">
        <ele>723.5</ele>
        <time>2022-09-02T09:13:11Z</time>
      </trkpt>
      <trkpt lat="47.91725" lon="6.80911">
        <ele>723.4</ele>
        <time>2022-09-02T09:13:12Z</time>
      </trkpt>
      <trkpt lat="47.91724" lon="6.8091">
        <ele>723.4</ele>
        <time>2022-09-02T09:13:13Z</time>
      </trkpt>
      <trkpt lat="47.91724" lon="6.80909">
        <ele>723.4</ele>
        <time>2022-09-02T09:13:14Z</time>
      </trkpt>
      <trkpt lat="47.91723" lon="6.80908">
        <ele>723.4</ele>
        <time>2022-09-02T09:13:15Z</time>
      </trkpt>
      <trkpt lat="47.91722" lon="6.80907">
        <ele>723.3</ele>
        <time>2022-09-02T09:13:16Z</time>
      </trkpt>
      <trkpt lat="47.91721" lon="6.80906">
        <ele>723.4</ele>
        <time>2022-09-02T09:13:17Z</time>
      </trkpt>
      <trkpt lat="47.9172" lon="6.80905">
        <ele>723.4</ele>
        <time>2022-09-02T09:13:18Z</time>
      </trkpt>
      <trkpt lat="47.91719" lon="6.80904">
        <ele>723.4</ele>
        <time>2022-09-02T09:13:19Z</time>
      </trkpt>
      <trkpt lat="47.91719" lon="6.80903">
        <ele>723.4</ele>
        <time>2022-09-02T09:13:20Z</time>
      </trkpt>
      <trkpt lat="47.91718" lon="6.80902">
        <ele>723.4</ele>
        <time>2022-09-02T09:13:21Z</time>
      </trkpt>
      <trkpt lat="47.91717" lon="6.80902">
        <ele>723.3</ele>
        <time>2022-09-02T09:13:22Z</time>
      </trkpt>
      <trkpt lat="47.91716" lon="6.80901">
        <ele>723.3</ele>
        <time>2022-09-02T09:13:23Z</time>
      </trkpt>
      <trkpt lat="47.91716" lon="6.809">
        <ele>723.2</ele>
        <time>2022-09-02T09:13:24Z</time>
      </trkpt>
      <trkpt lat="47.91715" lon="6.80899">
        <ele>723.2</ele>
        <time>2022-09-02T09:13:25Z</time>
      </trkpt>
      <trkpt lat="47.91714" lon="6.80898">
        <ele>723.1</ele>
        <time>2022-09-02T09:13:26Z</time>
      </trkpt>
      <trkpt lat="47.91713" lon="6.80897">
        <ele>723</ele>
        <time>2022-09-02T09:13:27Z</time>
      </trkpt>
      <trkpt lat="47.91712" lon="6.80897">
        <ele>722.9</ele>
        <time>2022-09-02T09:13:28Z</time>
      </trkpt>
      <trkpt lat="47.91711" lon="6.80896">
        <ele>722.7</ele>
        <time>2022-09-02T09:13:29Z</time>
      </trkpt>
      <trkpt lat="47.9171" lon="6.80895">
        <ele>722.6</ele>
        <time>2022-09-02T09:13:30Z</time>
      </trkpt>
      <trkpt lat="47.91709" lon="6.80894">
        <ele>722.4</ele>
        <time>2022-09-02T09:13:31Z</time>
      </trkpt>
      <trkpt lat="47.91708" lon="6.80894">
        <ele>722.3</ele>
        <time>2022-09-02T09:13:32Z</time>
      </trkpt>
      <trkpt lat="47.91707" lon="6.80893">
        <ele>722.1</ele>
        <time>2022-09-02T09:13:33Z</time>
      </trkpt>
      <trkpt lat="47.91706" lon="6.80892">
        <ele>721.9</ele>
        <time>2022-09-02T09:13:34Z</time>
      </trkpt>
      <trkpt lat="47.91705" lon="6.80892">
        <ele>721.8</ele>
        <time>2022-09-02T09:13:35Z</time>
      </trkpt>
      <trkpt lat="47.91705" lon="6.80891">
        <ele>721.7</ele>
        <time>2022-09-02T09:13:36Z</time>
      </trkpt>
      <trkpt lat="47.91704" lon="6.80891">
        <ele>721.6</ele>
        <time>2022-09-02T09:13:37Z</time>
      </trkpt>
      <trkpt lat="47.91703" lon="6.8089">
        <ele>721.4</ele>
        <time>2022-09-02T09:13:38Z</time>
      </trkpt>
      <trkpt lat="47.91702" lon="6.80889">
        <ele>721.1</ele>
        <time>2022-09-02T09:13:39Z</time>
      </trkpt>
      <trkpt lat="47.91702" lon="6.80888">
        <ele>721.1</ele>
        <time>2022-09-02T09:13:40Z</time>
      </trkpt>
      <trkpt lat="47.91701" lon="6.80887">
        <ele>721</ele>
        <time>2022-09-02T09:13:41Z</time>
      </trkpt>
      <trkpt lat="47.917" lon="6.80886">
        <ele>720.9</ele>
        <time>2022-09-02T09:13:42Z</time>
      </trkpt>
      <trkpt lat="47.91699" lon="6.80885">
        <ele>720.8</ele>
        <time>2022-09-02T09:13:43Z</time>
      </trkpt>
      <trkpt lat="47.91698" lon="6.80885">
        <ele>720.6</ele>
        <time>2022-09-02T09:13:44Z</time>
      </trkpt>
      <trkpt lat="47.91697" lon="6.80884">
        <ele>720.5</ele>
        <time>2022-09-02T09:13:45Z</time>
      </trkpt>
      <trkpt lat="47.91696" lon="6.80883">
        <ele>720.4</ele>
        <time>2022-09-02T09:13:46Z</time>
      </trkpt>
      <trkpt lat="47.91695" lon="6.80882">
        <ele>720.3</ele>
        <time>2022-09-02T09:13:47Z</time>
      </trkpt>
      <trkpt lat="47.91694" lon="6.80882">
        <ele>720.3</ele>
        <time>2022-09-02T09:13:48Z</time>
      </trkpt>
      <trkpt lat="47.91693" lon="6.80881">
        <ele>720.3</ele>
        <time>2022-09-02T09:13:49Z</time>
      </trkpt>
      <trkpt lat="47.91693" lon="6.8088">
        <ele>720.3</ele>
        <time>2022-09-02T09:13:50Z</time>
      </trkpt>
      <trkpt lat="47.91692" lon="6.80879">
        <ele>720.3</ele>
        <time>2022-09-02T09:13:51Z</time>
      </trkpt>
      <trkpt lat="47.91691" lon="6.80878">
        <ele>720.3</ele>
        <time>2022-09-02T09:13:52Z</time>
      </trkpt>
      <trkpt lat="47.9169" lon="6.80877">
        <ele>720.3</ele>
        <time>2022-09-02T09:13:53Z</time>
      </trkpt>
      <trkpt lat="47.9169" lon="6.80876">
        <ele>720.3</ele>
        <time>2022-09-02T09:13:54Z</time>
      </trkpt>
      <trkpt lat="47.91689" lon="6.80875">
        <ele>720.3</ele>
        <time>2022-09-02T09:13:55Z</time>
      </trkpt>
      <trkpt lat="47.91689" lon="6.80874">
        <ele>720.3</ele>
        <time>2022-09-02T09:13:56Z</time>
      </trkpt>
      <trkpt lat="47.91688" lon="6.80873">
        <ele>720.2</ele>
        <time>2022-09-02T09:13:57Z</time>
      </trkpt>
      <trkpt lat="47.91687" lon="6.80871">
        <ele>720.1</ele>
        <time>2022-09-02T09:13:58Z</time>
      </trkpt>
      <trkpt lat="47.91687" lon="6.8087">
        <ele>720.1</ele>
        <time>2022-09-02T09:13:59Z</time>
      </trkpt>
      <trkpt lat="47.91686" lon="6.80869">
        <ele>720</ele>
        <time>2022-09-02T09:14:00Z</time>
      </trkpt>
      <trkpt lat="47.91686" lon="6.80867">
        <ele>720</ele>
        <time>2022-09-02T09:14:01Z</time>
      </trkpt>
      <trkpt lat="47.91685" lon="6.80866">
        <ele>719.8</ele>
        <time>2022-09-02T09:14:02Z</time>
      </trkpt>
      <trkpt lat="47.91685" lon="6.80865">
        <ele>719.8</ele>
        <time>2022-09-02T09:14:03Z</time>
      </trkpt>
      <trkpt lat="47.91684" lon="6.80863">
        <ele>719.6</ele>
        <time>2022-09-02T09:14:04Z</time>
      </trkpt>
      <trkpt lat="47.91684" lon="6.80862">
        <ele>719.5</ele>
        <time>2022-09-02T09:14:05Z</time>
      </trkpt>
      <trkpt lat="47.91683" lon="6.80861">
        <ele>719.4</ele>
        <time>2022-09-02T09:14:06Z</time>
      </trkpt>
      <trkpt lat="47.91683" lon="6.8086">
        <ele>719.4</ele>
        <time>2022-09-02T09:14:07Z</time>
      </trkpt>
      <trkpt lat="47.91682" lon="6.80858">
        <ele>719.3</ele>
        <time>2022-09-02T09:14:08Z</time>
      </trkpt>
      <trkpt lat="47.91682" lon="6.80857">
        <ele>719.4</ele>
        <time>2022-09-02T09:14:09Z</time>
      </trkpt>
      <trkpt lat="47.91681" lon="6.80856">
        <ele>719.2</ele>
        <time>2022-09-02T09:14:10Z</time>
      </trkpt>
      <trkpt lat="47.9168" lon="6.80855">
        <ele>719.1</ele>
        <time>2022-09-02T09:14:11Z</time>
      </trkpt>
      <trkpt lat="47.91679" lon="6.80854">
        <ele>719</ele>
        <time>2022-09-02T09:14:12Z</time>
      </trkpt>
      <trkpt lat="47.91679" lon="6.80853">
        <ele>719.1</ele>
        <time>2022-09-02T09:14:13Z</time>
      </trkpt>
      <trkpt lat="47.91678" lon="6.80852">
        <ele>719</ele>
        <time>2022-09-02T09:14:14Z</time>
      </trkpt>
      <trkpt lat="47.91677" lon="6.80851">
        <ele>718.9</ele>
        <time>2022-09-02T09:14:15Z</time>
      </trkpt>
      <trkpt lat="47.91676" lon="6.8085">
        <ele>718.7</ele>
        <time>2022-09-02T09:14:16Z</time>
      </trkpt>
      <trkpt lat="47.91676" lon="6.80849">
        <ele>718.8</ele>
        <time>2022-09-02T09:14:17Z</time>
      </trkpt>
      <trkpt lat="47.91675" lon="6.80847">
        <ele>718.7</ele>
        <time>2022-09-02T09:14:18Z</time>
      </trkpt>
      <trkpt lat="47.91674" lon="6.80846">
        <ele>718.6</ele>
        <time>2022-09-02T09:14:19Z</time>
      </trkpt>
      <trkpt lat="47.91674" lon="6.80845">
        <ele>718.6</ele>
        <time>2022-09-02T09:14:20Z</time>
      </trkpt>
      <trkpt lat="47.91673" lon="6.80844">
        <ele>718.5</ele>
        <time>2022-09-02T09:14:21Z</time>
      </trkpt>
      <trkpt lat="47.91672" lon="6.80842">
        <ele>718.5</ele>
        <time>2022-09-02T09:14:22Z</time>
      </trkpt>
      <trkpt lat="47.91672" lon="6.80841">
        <ele>718.5</ele>
        <time>2022-09-02T09:14:23Z</time>
      </trkpt>
      <trkpt lat="47.91671" lon="6.8084">
        <ele>718.4</ele>
        <time>2022-09-02T09:14:24Z</time>
      </trkpt>
      <trkpt lat="47.9167" lon="6.80839">
        <ele>718.3</ele>
        <time>2022-09-02T09:14:25Z</time>
      </trkpt>
      <trkpt lat="47.9167" lon="6.80837">
        <ele>718.3</ele>
        <time>2022-09-02T09:14:26Z</time>
      </trkpt>
      <trkpt lat="47.91669" lon="6.80836">
        <ele>718.2</ele>
        <time>2022-09-02T09:14:27Z</time>
      </trkpt>
      <trkpt lat="47.91668" lon="6.80835">
        <ele>718.1</ele>
        <time>2022-09-02T09:14:28Z</time>
      </trkpt>
      <trkpt lat="47.91667" lon="6.80834">
        <ele>718</ele>
        <time>2022-09-02T09:14:29Z</time>
      </trkpt>
      <trkpt lat="47.91666" lon="6.80832">
        <ele>718</ele>
        <time>2022-09-02T09:14:30Z</time>
      </trkpt>
      <trkpt lat="47.91666" lon="6.80831">
        <ele>718</ele>
        <time>2022-09-02T09:14:31Z</time>
      </trkpt>
      <trkpt lat="47.91665" lon="6.8083">
        <ele>717.9</ele>
        <time>2022-09-02T09:14:46Z</time>
      </trkpt>
      <trkpt lat="47.91664" lon="6.80829">
        <ele>717.8</ele>
        <time>2022-09-02T09:14:47Z</time>
      </trkpt>
      <trkpt lat="47.91664" lon="6.80828">
        <ele>717.8</ele>
        <time>2022-09-02T09:14:48Z</time>
      </trkpt>
      <trkpt lat="47.91664" lon="6.80827">
        <ele>717.9</ele>
        <time>2022-09-02T09:14:49Z</time>
      </trkpt>
      <trkpt lat="47.91663" lon="6.80826">
        <ele>717.8</ele>
        <time>2022-09-02T09:14:50Z</time>
      </trkpt>
      <trkpt lat="47.91663" lon="6.80825">
        <ele>717.8</ele>
        <time>2022-09-02T09:14:51Z</time>
      </trkpt>
      <trkpt lat="47.91662" lon="6.80825">
        <ele>717.6</ele>
        <time>2022-09-02T09:14:52Z</time>
      </trkpt>
      <trkpt lat="47.91662" lon="6.80824">
        <ele>717.7</ele>
        <time>2022-09-02T09:14:53Z</time>
      </trkpt>
      <trkpt lat="47.91661" lon="6.80823">
        <ele>717.5</ele>
        <time>2022-09-02T09:14:54Z</time>
      </trkpt>
      <trkpt lat="47.9166" lon="6.80821">
        <ele>717.4</ele>
        <time>2022-09-02T09:14:55Z</time>
      </trkpt>
      <trkpt lat="47.9166" lon="6.8082">
        <ele>717.4</ele>
        <time>2022-09-02T09:14:56Z</time>
      </trkpt>
      <trkpt lat="47.91659" lon="6.80819">
        <ele>717.2</ele>
        <time>2022-09-02T09:14:57Z</time>
      </trkpt>
      <trkpt lat="47.91659" lon="6.80818">
        <ele>717.3</ele>
        <time>2022-09-02T09:14:58Z</time>
      </trkpt>
      <trkpt lat="47.91658" lon="6.80816">
        <ele>717.1</ele>
        <time>2022-09-02T09:14:59Z</time>
      </trkpt>
      <trkpt lat="47.91658" lon="6.80815">
        <ele>717.1</ele>
        <time>2022-09-02T09:15:00Z</time>
      </trkpt>
      <trkpt lat="47.91657" lon="6.80814">
        <ele>716.9</ele>
        <time>2022-09-02T09:15:01Z</time>
      </trkpt>
      <trkpt lat="47.91657" lon="6.80813">
        <ele>717</ele>
        <time>2022-09-02T09:15:02Z</time>
      </trkpt>
      <trkpt lat="47.91656" lon="6.80812">
        <ele>716.7</ele>
        <time>2022-09-02T09:15:03Z</time>
      </trkpt>
      <trkpt lat="47.91656" lon="6.8081">
        <ele>716.8</ele>
        <time>2022-09-02T09:15:04Z</time>
      </trkpt>
      <trkpt lat="47.91655" lon="6.80809">
        <ele>716.5</ele>
        <time>2022-09-02T09:15:05Z</time>
      </trkpt>
      <trkpt lat="47.91655" lon="6.80808">
        <ele>716.6</ele>
        <time>2022-09-02T09:15:06Z</time>
      </trkpt>
      <trkpt lat="47.91654" lon="6.80807">
        <ele>716.3</ele>
        <time>2022-09-02T09:15:07Z</time>
      </trkpt>
      <trkpt lat="47.91654" lon="6.80806">
        <ele>716.3</ele>
        <time>2022-09-02T09:15:08Z</time>
      </trkpt>
      <trkpt lat="47.91653" lon="6.80805">
        <ele>716.1</ele>
        <time>2022-09-02T09:15:09Z</time>
      </trkpt>
      <trkpt lat="47.91653" lon="6.80803">
        <ele>716.1</ele>
        <time>2022-09-02T09:15:10Z</time>
      </trkpt>
      <trkpt lat="47.91652" lon="6.80802">
        <ele>715.9</ele>
        <time>2022-09-02T09:15:11Z</time>
      </trkpt>
      <trkpt lat="47.91652" lon="6.80801">
        <ele>715.9</ele>
        <time>2022-09-02T09:15:12Z</time>
      </trkpt>
      <trkpt lat="47.91651" lon="6.80799">
        <ele>715.7</ele>
        <time>2022-09-02T09:15:13Z</time>
      </trkpt>
      <trkpt lat="47.91651" lon="6.80798">
        <ele>715.7</ele>
        <time>2022-09-02T09:15:14Z</time>
      </trkpt>
      <trkpt lat="47.91651" lon="6.80797">
        <ele>715.7</ele>
        <time>2022-09-02T09:15:15Z</time>
      </trkpt>
      <trkpt lat="47.9165" lon="6.80795">
        <ele>715.5</ele>
        <time>2022-09-02T09:15:16Z</time>
      </trkpt>
      <trkpt lat="47.9165" lon="6.80794">
        <ele>715.5</ele>
        <time>2022-09-02T09:15:17Z</time>
      </trkpt>
      <trkpt lat="47.91649" lon="6.80793">
        <ele>715.3</ele>
        <time>2022-09-02T09:15:18Z</time>
      </trkpt>
      <trkpt lat="47.91649" lon="6.80792">
        <ele>715.4</ele>
        <time>2022-09-02T09:15:19Z</time>
      </trkpt>
      <trkpt lat="47.91648" lon="6.8079">
        <ele>715.2</ele>
        <time>2022-09-02T09:15:20Z</time>
      </trkpt>
      <trkpt lat="47.91648" lon="6.80789">
        <ele>715.2</ele>
        <time>2022-09-02T09:15:21Z</time>
      </trkpt>
      <trkpt lat="47.91647" lon="6.80788">
        <ele>715</ele>
        <time>2022-09-02T09:15:22Z</time>
      </trkpt>
      <trkpt lat="47.91646" lon="6.80786">
        <ele>714.9</ele>
        <time>2022-09-02T09:15:23Z</time>
      </trkpt>
      <trkpt lat="47.91646" lon="6.80785">
        <ele>715</ele>
        <time>2022-09-02T09:15:24Z</time>
      </trkpt>
      <trkpt lat="47.91645" lon="6.80784">
        <ele>714.8</ele>
        <time>2022-09-02T09:15:25Z</time>
      </trkpt>
      <trkpt lat="47.91645" lon="6.80783">
        <ele>714.8</ele>
        <time>2022-09-02T09:15:26Z</time>
      </trkpt>
      <trkpt lat="47.91644" lon="6.80782">
        <ele>714.7</ele>
        <time>2022-09-02T09:15:27Z</time>
      </trkpt>
      <trkpt lat="47.91643" lon="6.80781">
        <ele>714.6</ele>
        <time>2022-09-02T09:15:28Z</time>
      </trkpt>
      <trkpt lat="47.91643" lon="6.8078">
        <ele>714.6</ele>
        <time>2022-09-02T09:15:29Z</time>
      </trkpt>
      <trkpt lat="47.91642" lon="6.80779">
        <ele>714.5</ele>
        <time>2022-09-02T09:15:30Z</time>
      </trkpt>
      <trkpt lat="47.91642" lon="6.80778">
        <ele>714.5</ele>
        <time>2022-09-02T09:15:31Z</time>
      </trkpt>
      <trkpt lat="47.91641" lon="6.80776">
        <ele>714.5</ele>
        <time>2022-09-02T09:15:32Z</time>
      </trkpt>
      <trkpt lat="47.91641" lon="6.80775">
        <ele>714.6</ele>
        <time>2022-09-02T09:15:33Z</time>
      </trkpt>
      <trkpt lat="47.91641" lon="6.80773">
        <ele>714.7</ele>
        <time>2022-09-02T09:15:34Z</time>
      </trkpt>
      <trkpt lat="47.9164" lon="6.80772">
        <ele>714.6</ele>
        <time>2022-09-02T09:15:35Z</time>
      </trkpt>
      <trkpt lat="47.9164" lon="6.8077">
        <ele>714.7</ele>
        <time>2022-09-02T09:15:36Z</time>
      </trkpt>
      <trkpt lat="47.9164" lon="6.80769">
        <ele>714.8</ele>
        <time>2022-09-02T09:15:37Z</time>
      </trkpt>
      <trkpt lat="47.9164" lon="6.80768">
        <ele>714.9</ele>
        <time>2022-09-02T09:15:38Z</time>
      </trkpt>
      <trkpt lat="47.9164" lon="6.80767">
        <ele>715</ele>
        <time>2022-09-02T09:15:39Z</time>
      </trkpt>
      <trkpt lat="47.9164" lon="6.80766">
        <ele>715</ele>
        <time>2022-09-02T09:15:40Z</time>
      </trkpt>
      <trkpt lat="47.9164" lon="6.80765">
        <ele>715.1</ele>
        <time>2022-09-02T09:15:41Z</time>
      </trkpt>
      <trkpt lat="47.91641" lon="6.80763">
        <ele>715.4</ele>
        <time>2022-09-02T09:15:42Z</time>
      </trkpt>
      <trkpt lat="47.91641" lon="6.80762">
        <ele>715.5</ele>
        <time>2022-09-02T09:15:43Z</time>
      </trkpt>
      <trkpt lat="47.91641" lon="6.8076">
        <ele>715.6</ele>
        <time>2022-09-02T09:15:45Z</time>
      </trkpt>
      <trkpt lat="47.91642" lon="6.80759">
        <ele>715.8</ele>
        <time>2022-09-02T09:15:46Z</time>
      </trkpt>
      <trkpt lat="47.91642" lon="6.80758">
        <ele>715.9</ele>
        <time>2022-09-02T09:15:47Z</time>
      </trkpt>
      <trkpt lat="47.91642" lon="6.80757">
        <ele>716</ele>
        <time>2022-09-02T09:15:48Z</time>
      </trkpt>
      <trkpt lat="47.91642" lon="6.80756">
        <ele>716</ele>
        <time>2022-09-02T09:15:49Z</time>
      </trkpt>
      <trkpt lat="47.91641" lon="6.80755">
        <ele>716</ele>
        <time>2022-09-02T09:15:50Z</time>
      </trkpt>
      <trkpt lat="47.91641" lon="6.80753">
        <ele>716.1</ele>
        <time>2022-09-02T09:15:51Z</time>
      </trkpt>
      <trkpt lat="47.91641" lon="6.80752">
        <ele>716.2</ele>
        <time>2022-09-02T09:15:52Z</time>
      </trkpt>
      <trkpt lat="47.9164" lon="6.80751">
        <ele>716.1</ele>
        <time>2022-09-02T09:15:53Z</time>
      </trkpt>
      <trkpt lat="47.9164" lon="6.8075">
        <ele>716.2</ele>
        <time>2022-09-02T09:15:54Z</time>
      </trkpt>
      <trkpt lat="47.91639" lon="6.80749">
        <ele>716.1</ele>
        <time>2022-09-02T09:15:55Z</time>
      </trkpt>
      <trkpt lat="47.91639" lon="6.80748">
        <ele>716.2</ele>
        <time>2022-09-02T09:15:56Z</time>
      </trkpt>
      <trkpt lat="47.91638" lon="6.80747">
        <ele>715.9</ele>
        <time>2022-09-02T09:15:57Z</time>
      </trkpt>
      <trkpt lat="47.91638" lon="6.80746">
        <ele>716</ele>
        <time>2022-09-02T09:15:58Z</time>
      </trkpt>
      <trkpt lat="47.91637" lon="6.80745">
        <ele>715.7</ele>
        <time>2022-09-02T09:15:59Z</time>
      </trkpt>
      <trkpt lat="47.91637" lon="6.80743">
        <ele>715.9</ele>
        <time>2022-09-02T09:16:00Z</time>
      </trkpt>
      <trkpt lat="47.91637" lon="6.80742">
        <ele>716</ele>
        <time>2022-09-02T09:16:01Z</time>
      </trkpt>
      <trkpt lat="47.91636" lon="6.8074">
        <ele>715.8</ele>
        <time>2022-09-02T09:16:02Z</time>
      </trkpt>
      <trkpt lat="47.91636" lon="6.80739">
        <ele>715.9</ele>
        <time>2022-09-02T09:16:03Z</time>
      </trkpt>
      <trkpt lat="47.91636" lon="6.80737">
        <ele>716</ele>
        <time>2022-09-02T09:16:04Z</time>
      </trkpt>
      <trkpt lat="47.91636" lon="6.80736">
        <ele>716.1</ele>
        <time>2022-09-02T09:16:05Z</time>
      </trkpt>
      <trkpt lat="47.91636" lon="6.80734">
        <ele>716.3</ele>
        <time>2022-09-02T09:16:06Z</time>
      </trkpt>
      <trkpt lat="47.91636" lon="6.80733">
        <ele>716.4</ele>
        <time>2022-09-02T09:16:07Z</time>
      </trkpt>
      <trkpt lat="47.91637" lon="6.80731">
        <ele>716.8</ele>
        <time>2022-09-02T09:16:08Z</time>
      </trkpt>
      <trkpt lat="47.91636" lon="6.80729">
        <ele>716.7</ele>
        <time>2022-09-02T09:16:09Z</time>
      </trkpt>
      <trkpt lat="47.91636" lon="6.80728">
        <ele>716.8</ele>
        <time>2022-09-02T09:16:10Z</time>
      </trkpt>
      <trkpt lat="47.91636" lon="6.80726">
        <ele>717</ele>
        <time>2022-09-02T09:16:11Z</time>
      </trkpt>
      <trkpt lat="47.91636" lon="6.80725">
        <ele>717</ele>
        <time>2022-09-02T09:16:12Z</time>
      </trkpt>
      <trkpt lat="47.91636" lon="6.80723">
        <ele>717.2</ele>
        <time>2022-09-02T09:16:13Z</time>
      </trkpt>
      <trkpt lat="47.91637" lon="6.80722">
        <ele>717.6</ele>
        <time>2022-09-02T09:16:14Z</time>
      </trkpt>
      <trkpt lat="47.91637" lon="6.80721">
        <ele>717.7</ele>
        <time>2022-09-02T09:16:15Z</time>
      </trkpt>
      <trkpt lat="47.91637" lon="6.8072">
        <ele>717.8</ele>
        <time>2022-09-02T09:16:16Z</time>
      </trkpt>
      <trkpt lat="47.91638" lon="6.80719">
        <ele>718.2</ele>
        <time>2022-09-02T09:16:17Z</time>
      </trkpt>
      <trkpt lat="47.91638" lon="6.80718">
        <ele>718.4</ele>
        <time>2022-09-02T09:16:18Z</time>
      </trkpt>
      <trkpt lat="47.91639" lon="6.80717">
        <ele>718.8</ele>
        <time>2022-09-02T09:16:19Z</time>
      </trkpt>
      <trkpt lat="47.9164" lon="6.80716">
        <ele>719</ele>
        <time>2022-09-02T09:16:20Z</time>
      </trkpt>
      <trkpt lat="47.91641" lon="6.80715">
        <ele>719.2</ele>
        <time>2022-09-02T09:16:22Z</time>
      </trkpt>
      <trkpt lat="47.91641" lon="6.80714">
        <ele>719.3</ele>
        <time>2022-09-02T09:16:23Z</time>
      </trkpt>
      <trkpt lat="47.91642" lon="6.80714">
        <ele>719.3</ele>
        <time>2022-09-02T09:16:24Z</time>
      </trkpt>
      <trkpt lat="47.91642" lon="6.80713">
        <ele>719.5</ele>
        <time>2022-09-02T09:16:25Z</time>
      </trkpt>
      <trkpt lat="47.91643" lon="6.80713">
        <ele>719.5</ele>
        <time>2022-09-02T09:16:26Z</time>
      </trkpt>
      <trkpt lat="47.91644" lon="6.80712">
        <ele>719.7</ele>
        <time>2022-09-02T09:16:27Z</time>
      </trkpt>
      <trkpt lat="47.91645" lon="6.80711">
        <ele>719.9</ele>
        <time>2022-09-02T09:16:29Z</time>
      </trkpt>
      <trkpt lat="47.91645" lon="6.8071">
        <ele>720</ele>
        <time>2022-09-02T09:16:30Z</time>
      </trkpt>
      <trkpt lat="47.91646" lon="6.8071">
        <ele>720</ele>
        <time>2022-09-02T09:16:31Z</time>
      </trkpt>
      <trkpt lat="47.91647" lon="6.80709">
        <ele>720.2</ele>
        <time>2022-09-02T09:16:32Z</time>
      </trkpt>
      <trkpt lat="47.91647" lon="6.80708">
        <ele>720.3</ele>
        <time>2022-09-02T09:16:33Z</time>
      </trkpt>
      <trkpt lat="47.91648" lon="6.80708">
        <ele>720.4</ele>
        <time>2022-09-02T09:16:34Z</time>
      </trkpt>
      <trkpt lat="47.91648" lon="6.80707">
        <ele>720.5</ele>
        <time>2022-09-02T09:16:35Z</time>
      </trkpt>
      <trkpt lat="47.91649" lon="6.80707">
        <ele>720.5</ele>
        <time>2022-09-02T09:16:36Z</time>
      </trkpt>
      <trkpt lat="47.91649" lon="6.80706">
        <ele>720.6</ele>
        <time>2022-09-02T09:16:37Z</time>
      </trkpt>
      <trkpt lat="47.91649" lon="6.80703">
        <ele>721</ele>
        <time>2022-09-02T09:16:53Z</time>
      </trkpt>
      <trkpt lat="47.91648" lon="6.80702">
        <ele>721.1</ele>
        <time>2022-09-02T09:16:54Z</time>
      </trkpt>
      <trkpt lat="47.91648" lon="6.80701">
        <ele>721.2</ele>
        <time>2022-09-02T09:16:55Z</time>
      </trkpt>
      <trkpt lat="47.91647" lon="6.807">
        <ele>721.3</ele>
        <time>2022-09-02T09:16:57Z</time>
      </trkpt>
      <trkpt lat="47.91647" lon="6.80699">
        <ele>721.4</ele>
        <time>2022-09-02T09:16:58Z</time>
      </trkpt>
      <trkpt lat="47.91647" lon="6.80698">
        <ele>721.6</ele>
        <time>2022-09-02T09:16:59Z</time>
      </trkpt>
      <trkpt lat="47.91646" lon="6.80697">
        <ele>721.7</ele>
        <time>2022-09-02T09:17:00Z</time>
      </trkpt>
      <trkpt lat="47.91645" lon="6.80696">
        <ele>721.8</ele>
        <time>2022-09-02T09:17:02Z</time>
      </trkpt>
      <trkpt lat="47.91644" lon="6.80695">
        <ele>721.9</ele>
        <time>2022-09-02T09:17:03Z</time>
      </trkpt>
      <trkpt lat="47.91644" lon="6.80694">
        <ele>722.1</ele>
        <time>2022-09-02T09:17:04Z</time>
      </trkpt>
      <trkpt lat="47.91643" lon="6.80694">
        <ele>722.1</ele>
        <time>2022-09-02T09:17:05Z</time>
      </trkpt>
      <trkpt lat="47.91642" lon="6.80693">
        <ele>722.3</ele>
        <time>2022-09-02T09:17:06Z</time>
      </trkpt>
      <trkpt lat="47.91642" lon="6.80692">
        <ele>722.5</ele>
        <time>2022-09-02T09:17:07Z</time>
      </trkpt>
      <trkpt lat="47.91641" lon="6.80692">
        <ele>722.5</ele>
        <time>2022-09-02T09:17:08Z</time>
      </trkpt>
      <trkpt lat="47.9164" lon="6.80691">
        <ele>722.7</ele>
        <time>2022-09-02T09:17:09Z</time>
      </trkpt>
      <trkpt lat="47.9164" lon="6.8069">
        <ele>722.9</ele>
        <time>2022-09-02T09:17:10Z</time>
      </trkpt>
      <trkpt lat="47.91639" lon="6.80689">
        <ele>723.2</ele>
        <time>2022-09-02T09:17:11Z</time>
      </trkpt>
      <trkpt lat="47.91638" lon="6.80689">
        <ele>722.9</ele>
        <time>2022-09-02T09:17:12Z</time>
      </trkpt>
      <trkpt lat="47.91638" lon="6.80688">
        <ele>723.1</ele>
        <time>2022-09-02T09:17:13Z</time>
      </trkpt>
      <trkpt lat="47.91637" lon="6.80687">
        <ele>723</ele>
        <time>2022-09-02T09:17:14Z</time>
      </trkpt>
      <trkpt lat="47.91636" lon="6.80686">
        <ele>723</ele>
        <time>2022-09-02T09:17:15Z</time>
      </trkpt>
      <trkpt lat="47.91635" lon="6.80686">
        <ele>722.7</ele>
        <time>2022-09-02T09:17:16Z</time>
      </trkpt>
      <trkpt lat="47.91635" lon="6.80685">
        <ele>722.9</ele>
        <time>2022-09-02T09:17:17Z</time>
      </trkpt>
      <trkpt lat="47.91634" lon="6.80684">
        <ele>722.8</ele>
        <time>2022-09-02T09:17:18Z</time>
      </trkpt>
      <trkpt lat="47.91633" lon="6.80683">
        <ele>722.7</ele>
        <time>2022-09-02T09:17:19Z</time>
      </trkpt>
      <trkpt lat="47.91632" lon="6.80683">
        <ele>722.4</ele>
        <time>2022-09-02T09:17:20Z</time>
      </trkpt>
      <trkpt lat="47.91631" lon="6.80682">
        <ele>722.3</ele>
        <time>2022-09-02T09:17:21Z</time>
      </trkpt>
      <trkpt lat="47.9163" lon="6.80682">
        <ele>722</ele>
        <time>2022-09-02T09:17:22Z</time>
      </trkpt>
      <trkpt lat="47.91629" lon="6.80681">
        <ele>721.9</ele>
        <time>2022-09-02T09:17:23Z</time>
      </trkpt>
      <trkpt lat="47.91629" lon="6.8068">
        <ele>722.1</ele>
        <time>2022-09-02T09:17:24Z</time>
      </trkpt>
      <trkpt lat="47.91628" lon="6.80679">
        <ele>722</ele>
        <time>2022-09-02T09:17:25Z</time>
      </trkpt>
      <trkpt lat="47.91627" lon="6.80678">
        <ele>721.9</ele>
        <time>2022-09-02T09:17:26Z</time>
      </trkpt>
      <trkpt lat="47.91626" lon="6.80677">
        <ele>721.8</ele>
        <time>2022-09-02T09:17:27Z</time>
      </trkpt>
      <trkpt lat="47.91626" lon="6.80676">
        <ele>722</ele>
        <time>2022-09-02T09:17:28Z</time>
      </trkpt>
      <trkpt lat="47.91625" lon="6.80676">
        <ele>721.7</ele>
        <time>2022-09-02T09:17:29Z</time>
      </trkpt>
      <trkpt lat="47.91624" lon="6.80675">
        <ele>721.5</ele>
        <time>2022-09-02T09:17:30Z</time>
      </trkpt>
      <trkpt lat="47.91624" lon="6.80674">
        <ele>721.7</ele>
        <time>2022-09-02T09:17:31Z</time>
      </trkpt>
      <trkpt lat="47.91623" lon="6.80673">
        <ele>721.6</ele>
        <time>2022-09-02T09:17:32Z</time>
      </trkpt>
      <trkpt lat="47.91622" lon="6.80672">
        <ele>721.5</ele>
        <time>2022-09-02T09:17:33Z</time>
      </trkpt>
      <trkpt lat="47.91622" lon="6.80671">
        <ele>721.7</ele>
        <time>2022-09-02T09:17:34Z</time>
      </trkpt>
      <trkpt lat="47.91621" lon="6.8067">
        <ele>721.6</ele>
        <time>2022-09-02T09:17:35Z</time>
      </trkpt>
      <trkpt lat="47.9162" lon="6.80669">
        <ele>721.4</ele>
        <time>2022-09-02T09:17:36Z</time>
      </trkpt>
      <trkpt lat="47.9162" lon="6.80668">
        <ele>721.6</ele>
        <time>2022-09-02T09:17:37Z</time>
      </trkpt>
      <trkpt lat="47.91619" lon="6.80666">
        <ele>721.6</ele>
        <time>2022-09-02T09:17:38Z</time>
      </trkpt>
      <trkpt lat="47.91619" lon="6.80665">
        <ele>721.8</ele>
        <time>2022-09-02T09:17:39Z</time>
      </trkpt>
      <trkpt lat="47.91618" lon="6.80663">
        <ele>721.8</ele>
        <time>2022-09-02T09:17:40Z</time>
      </trkpt>
      <trkpt lat="47.91618" lon="6.80662">
        <ele>721.9</ele>
        <time>2022-09-02T09:17:41Z</time>
      </trkpt>
      <trkpt lat="47.91617" lon="6.80661">
        <ele>721.8</ele>
        <time>2022-09-02T09:17:42Z</time>
      </trkpt>
      <trkpt lat="47.91617" lon="6.80659">
        <ele>722.1</ele>
        <time>2022-09-02T09:17:43Z</time>
      </trkpt>
      <trkpt lat="47.91616" lon="6.80658">
        <ele>721.9</ele>
        <time>2022-09-02T09:17:44Z</time>
      </trkpt>
      <trkpt lat="47.91615" lon="6.80656">
        <ele>722</ele>
        <time>2022-09-02T09:17:45Z</time>
      </trkpt>
      <trkpt lat="47.91615" lon="6.80655">
        <ele>722.1</ele>
        <time>2022-09-02T09:17:46Z</time>
      </trkpt>
      <trkpt lat="47.91614" lon="6.80653">
        <ele>722.2</ele>
        <time>2022-09-02T09:17:47Z</time>
      </trkpt>
      <trkpt lat="47.91614" lon="6.80652">
        <ele>722.4</ele>
        <time>2022-09-02T09:17:48Z</time>
      </trkpt>
      <trkpt lat="47.91614" lon="6.8065">
        <ele>722.7</ele>
        <time>2022-09-02T09:17:49Z</time>
      </trkpt>
      <trkpt lat="47.91613" lon="6.80648">
        <ele>722.8</ele>
        <time>2022-09-02T09:17:50Z</time>
      </trkpt>
      <trkpt lat="47.91613" lon="6.80647">
        <ele>723</ele>
        <time>2022-09-02T09:17:51Z</time>
      </trkpt>
      <trkpt lat="47.91613" lon="6.80645">
        <ele>723.3</ele>
        <time>2022-09-02T09:17:52Z</time>
      </trkpt>
      <trkpt lat="47.91612" lon="6.80644">
        <ele>723.3</ele>
        <time>2022-09-02T09:17:53Z</time>
      </trkpt>
      <trkpt lat="47.91612" lon="6.80643">
        <ele>723.4</ele>
        <time>2022-09-02T09:17:54Z</time>
      </trkpt>
      <trkpt lat="47.91611" lon="6.80641">
        <ele>723.6</ele>
        <time>2022-09-02T09:17:55Z</time>
      </trkpt>
      <trkpt lat="47.91611" lon="6.8064">
        <ele>723.7</ele>
        <time>2022-09-02T09:17:56Z</time>
      </trkpt>
      <trkpt lat="47.91611" lon="6.80638">
        <ele>724</ele>
        <time>2022-09-02T09:17:57Z</time>
      </trkpt>
      <trkpt lat="47.9161" lon="6.80637">
        <ele>723.6</ele>
        <time>2022-09-02T09:17:58Z</time>
      </trkpt>
      <trkpt lat="47.9161" lon="6.80635">
        <ele>723.6</ele>
        <time>2022-09-02T09:17:59Z</time>
      </trkpt>
      <trkpt lat="47.9161" lon="6.80634">
        <ele>723.7</ele>
        <time>2022-09-02T09:18:00Z</time>
      </trkpt>
      <trkpt lat="47.91609" lon="6.80632">
        <ele>723.3</ele>
        <time>2022-09-02T09:18:01Z</time>
      </trkpt>
      <trkpt lat="47.91609" lon="6.80631">
        <ele>723.4</ele>
        <time>2022-09-02T09:18:02Z</time>
      </trkpt>
      <trkpt lat="47.91609" lon="6.8063">
        <ele>723.4</ele>
        <time>2022-09-02T09:18:03Z</time>
      </trkpt>
      <trkpt lat="47.91608" lon="6.80628">
        <ele>723.1</ele>
        <time>2022-09-02T09:18:04Z</time>
      </trkpt>
      <trkpt lat="47.91608" lon="6.80627">
        <ele>723.1</ele>
        <time>2022-09-02T09:18:05Z</time>
      </trkpt>
      <trkpt lat="47.91608" lon="6.80626">
        <ele>723.2</ele>
        <time>2022-09-02T09:18:06Z</time>
      </trkpt>
      <trkpt lat="47.91608" lon="6.80624">
        <ele>723.3</ele>
        <time>2022-09-02T09:18:07Z</time>
      </trkpt>
      <trkpt lat="47.91608" lon="6.80623">
        <ele>723.3</ele>
        <time>2022-09-02T09:18:08Z</time>
      </trkpt>
      <trkpt lat="47.91608" lon="6.80622">
        <ele>723.4</ele>
        <time>2022-09-02T09:18:09Z</time>
      </trkpt>
      <trkpt lat="47.91608" lon="6.8062">
        <ele>723.5</ele>
        <time>2022-09-02T09:18:10Z</time>
      </trkpt>
      <trkpt lat="47.91609" lon="6.80619">
        <ele>723.9</ele>
        <time>2022-09-02T09:18:11Z</time>
      </trkpt>
      <trkpt lat="47.91609" lon="6.80618">
        <ele>723.9</ele>
        <time>2022-09-02T09:18:12Z</time>
      </trkpt>
      <trkpt lat="47.91609" lon="6.80617">
        <ele>724</ele>
        <time>2022-09-02T09:18:13Z</time>
      </trkpt>
      <trkpt lat="47.9161" lon="6.80616">
        <ele>724.4</ele>
        <time>2022-09-02T09:18:14Z</time>
      </trkpt>
      <trkpt lat="47.9161" lon="6.80614">
        <ele>724.5</ele>
        <time>2022-09-02T09:18:15Z</time>
      </trkpt>
      <trkpt lat="47.91612" lon="6.80612">
        <ele>725.2</ele>
        <time>2022-09-02T09:18:36Z</time>
      </trkpt>
      <trkpt lat="47.91613" lon="6.80611">
        <ele>725.5</ele>
        <time>2022-09-02T09:18:38Z</time>
      </trkpt>
      <trkpt lat="47.91613" lon="6.8061">
        <ele>725.6</ele>
        <time>2022-09-02T09:18:39Z</time>
      </trkpt>
      <trkpt lat="47.91613" lon="6.80609">
        <ele>725.6</ele>
        <time>2022-09-02T09:18:40Z</time>
      </trkpt>
      <trkpt lat="47.91613" lon="6.80608">
        <ele>725.6</ele>
        <time>2022-09-02T09:18:41Z</time>
      </trkpt>
      <trkpt lat="47.91614" lon="6.80607">
        <ele>725.9</ele>
        <time>2022-09-02T09:18:43Z</time>
      </trkpt>
      <trkpt lat="47.91615" lon="6.80606">
        <ele>726.3</ele>
        <time>2022-09-02T09:18:44Z</time>
      </trkpt>
      <trkpt lat="47.91615" lon="6.80605">
        <ele>726.3</ele>
        <time>2022-09-02T09:18:45Z</time>
      </trkpt>
      <trkpt lat="47.91616" lon="6.80605">
        <ele>726.6</ele>
        <time>2022-09-02T09:18:46Z</time>
      </trkpt>
      <trkpt lat="47.91617" lon="6.80605">
        <ele>726.8</ele>
        <time>2022-09-02T09:18:47Z</time>
      </trkpt>
      <trkpt lat="47.91618" lon="6.80605">
        <ele>727.1</ele>
        <time>2022-09-02T09:18:59Z</time>
      </trkpt>
      <trkpt lat="47.91619" lon="6.80605">
        <ele>727.4</ele>
        <time>2022-09-02T09:19:01Z</time>
      </trkpt>
      <trkpt lat="47.91619" lon="6.80604">
        <ele>727.4</ele>
        <time>2022-09-02T09:19:03Z</time>
      </trkpt>
      <trkpt lat="47.91619" lon="6.80603">
        <ele>727.4</ele>
        <time>2022-09-02T09:19:04Z</time>
      </trkpt>
      <trkpt lat="47.91618" lon="6.80601">
        <ele>727.2</ele>
        <time>2022-09-02T09:19:06Z</time>
      </trkpt>
      <trkpt lat="47.91618" lon="6.806">
        <ele>727.2</ele>
        <time>2022-09-02T09:19:07Z</time>
      </trkpt>
      <trkpt lat="47.91618" lon="6.80599">
        <ele>727.2</ele>
        <time>2022-09-02T09:19:08Z</time>
      </trkpt>
      <trkpt lat="47.91617" lon="6.80598">
        <ele>727</ele>
        <time>2022-09-02T09:19:09Z</time>
      </trkpt>
      <trkpt lat="47.91617" lon="6.80597">
        <ele>727</ele>
        <time>2022-09-02T09:19:10Z</time>
      </trkpt>
      <trkpt lat="47.91616" lon="6.80596">
        <ele>726.8</ele>
        <time>2022-09-02T09:19:11Z</time>
      </trkpt>
      <trkpt lat="47.91616" lon="6.80595">
        <ele>726.8</ele>
        <time>2022-09-02T09:19:12Z</time>
      </trkpt>
      <trkpt lat="47.91615" lon="6.80594">
        <ele>726.6</ele>
        <time>2022-09-02T09:19:13Z</time>
      </trkpt>
      <trkpt lat="47.91615" lon="6.80593">
        <ele>726.6</ele>
        <time>2022-09-02T09:19:14Z</time>
      </trkpt>
      <trkpt lat="47.91614" lon="6.80592">
        <ele>726.4</ele>
        <time>2022-09-02T09:19:15Z</time>
      </trkpt>
      <trkpt lat="47.91613" lon="6.80591">
        <ele>726.2</ele>
        <time>2022-09-02T09:19:17Z</time>
      </trkpt>
      <trkpt lat="47.91613" lon="6.8059">
        <ele>726.2</ele>
        <time>2022-09-02T09:19:18Z</time>
      </trkpt>
      <trkpt lat="47.91613" lon="6.80589">
        <ele>726.2</ele>
        <time>2022-09-02T09:19:30Z</time>
      </trkpt>
      <trkpt lat="47.91612" lon="6.80589">
        <ele>726</ele>
        <time>2022-09-02T09:19:31Z</time>
      </trkpt>
      <trkpt lat="47.91612" lon="6.80588">
        <ele>726</ele>
        <time>2022-09-02T09:19:32Z</time>
      </trkpt>
      <trkpt lat="47.91611" lon="6.80588">
        <ele>725.8</ele>
        <time>2022-09-02T09:19:33Z</time>
      </trkpt>
      <trkpt lat="47.91611" lon="6.80589">
        <ele>725.8</ele>
        <time>2022-09-02T09:19:34Z</time>
      </trkpt>
      <trkpt lat="47.9161" lon="6.80589">
        <ele>725.4</ele>
        <time>2022-09-02T09:19:35Z</time>
      </trkpt>
      <trkpt lat="47.9161" lon="6.8059">
        <ele>725.4</ele>
        <time>2022-09-02T09:19:36Z</time>
      </trkpt>
      <trkpt lat="47.91609" lon="6.8059">
        <ele>725.1</ele>
        <time>2022-09-02T09:19:37Z</time>
      </trkpt>
      <trkpt lat="47.91608" lon="6.80591">
        <ele>724.7</ele>
        <time>2022-09-02T09:19:38Z</time>
      </trkpt>
      <trkpt lat="47.91607" lon="6.80591">
        <ele>724.4</ele>
        <time>2022-09-02T09:19:40Z</time>
      </trkpt>
      <trkpt lat="47.91606" lon="6.80591">
        <ele>724</ele>
        <time>2022-09-02T09:19:41Z</time>
      </trkpt>
      <trkpt lat="47.91606" lon="6.80592">
        <ele>724</ele>
        <time>2022-09-02T09:19:42Z</time>
      </trkpt>
      <trkpt lat="47.91605" lon="6.80592">
        <ele>723.6</ele>
        <time>2022-09-02T09:19:43Z</time>
      </trkpt>
      <trkpt lat="47.91605" lon="6.80593">
        <ele>723.6</ele>
        <time>2022-09-02T09:19:44Z</time>
      </trkpt>
      <trkpt lat="47.91604" lon="6.80594">
        <ele>723.2</ele>
        <time>2022-09-02T09:19:45Z</time>
      </trkpt>
      <trkpt lat="47.91604" lon="6.80595">
        <ele>723.2</ele>
        <time>2022-09-02T09:19:46Z</time>
      </trkpt>
      <trkpt lat="47.91603" lon="6.80596">
        <ele>722.8</ele>
        <time>2022-09-02T09:19:47Z</time>
      </trkpt>
      <trkpt lat="47.91602" lon="6.80597">
        <ele>722.4</ele>
        <time>2022-09-02T09:19:49Z</time>
      </trkpt>
      <trkpt lat="47.91601" lon="6.80598">
        <ele>722</ele>
        <time>2022-09-02T09:19:50Z</time>
      </trkpt>
      <trkpt lat="47.916" lon="6.80599">
        <ele>721.6</ele>
        <time>2022-09-02T09:19:59Z</time>
      </trkpt>
      <trkpt lat="47.916" lon="6.80598">
        <ele>721.7</ele>
        <time>2022-09-02T09:20:02Z</time>
      </trkpt>
      <trkpt lat="47.916" lon="6.80597">
        <ele>721.7</ele>
        <time>2022-09-02T09:20:03Z</time>
      </trkpt>
      <trkpt lat="47.916" lon="6.80596">
        <ele>721.8</ele>
        <time>2022-09-02T09:20:04Z</time>
      </trkpt>
      <trkpt lat="47.91601" lon="6.80595">
        <ele>722.2</ele>
        <time>2022-09-02T09:20:05Z</time>
      </trkpt>
      <trkpt lat="47.91601" lon="6.80594">
        <ele>722.2</ele>
        <time>2022-09-02T09:20:06Z</time>
      </trkpt>
      <trkpt lat="47.91602" lon="6.80593">
        <ele>722.6</ele>
        <time>2022-09-02T09:20:07Z</time>
      </trkpt>
      <trkpt lat="47.91603" lon="6.80592">
        <ele>723</ele>
        <time>2022-09-02T09:20:09Z</time>
      </trkpt>
      <trkpt lat="47.91604" lon="6.80592">
        <ele>723.3</ele>
        <time>2022-09-02T09:20:10Z</time>
      </trkpt>
      <trkpt lat="47.91604" lon="6.80591">
        <ele>723.3</ele>
        <time>2022-09-02T09:20:11Z</time>
      </trkpt>
      <trkpt lat="47.91606" lon="6.80591">
        <ele>724</ele>
        <time>2022-09-02T09:20:25Z</time>
      </trkpt>
      <trkpt lat="47.91606" lon="6.8059">
        <ele>724.1</ele>
        <time>2022-09-02T09:20:26Z</time>
      </trkpt>
      <trkpt lat="47.91605" lon="6.8059">
        <ele>723.7</ele>
        <time>2022-09-02T09:20:28Z</time>
      </trkpt>
      <trkpt lat="47.91605" lon="6.80589">
        <ele>723.8</ele>
        <time>2022-09-02T09:20:29Z</time>
      </trkpt>
      <trkpt lat="47.91605" lon="6.80588">
        <ele>723.8</ele>
        <time>2022-09-02T09:20:30Z</time>
      </trkpt>
      <trkpt lat="47.91604" lon="6.80588">
        <ele>723.5</ele>
        <time>2022-09-02T09:20:31Z</time>
      </trkpt>
      <trkpt lat="47.91604" lon="6.80587">
        <ele>723.5</ele>
        <time>2022-09-02T09:20:32Z</time>
      </trkpt>
      <trkpt lat="47.91603" lon="6.80586">
        <ele>723.2</ele>
        <time>2022-09-02T09:20:33Z</time>
      </trkpt>
      <trkpt lat="47.91603" lon="6.80585">
        <ele>723.3</ele>
        <time>2022-09-02T09:20:34Z</time>
      </trkpt>
      <trkpt lat="47.91602" lon="6.80584">
        <ele>723</ele>
        <time>2022-09-02T09:20:35Z</time>
      </trkpt>
      <trkpt lat="47.91601" lon="6.80584">
        <ele>722.7</ele>
        <time>2022-09-02T09:20:36Z</time>
      </trkpt>
      <trkpt lat="47.91601" lon="6.80583">
        <ele>722.7</ele>
        <time>2022-09-02T09:20:37Z</time>
      </trkpt>
      <trkpt lat="47.916" lon="6.80583">
        <ele>722.4</ele>
        <time>2022-09-02T09:20:38Z</time>
      </trkpt>
      <trkpt lat="47.916" lon="6.80582">
        <ele>722.3</ele>
        <time>2022-09-02T09:20:39Z</time>
      </trkpt>
      <trkpt lat="47.91599" lon="6.80582">
        <ele>722</ele>
        <time>2022-09-02T09:20:40Z</time>
      </trkpt>
      <trkpt lat="47.91598" lon="6.80581">
        <ele>721.6</ele>
        <time>2022-09-02T09:20:41Z</time>
      </trkpt>
      <trkpt lat="47.91598" lon="6.8058">
        <ele>721.6</ele>
        <time>2022-09-02T09:20:43Z</time>
      </trkpt>
      <trkpt lat="47.91597" lon="6.8058">
        <ele>721.3</ele>
        <time>2022-09-02T09:20:44Z</time>
      </trkpt>
      <trkpt lat="47.91597" lon="6.80579">
        <ele>721.2</ele>
        <time>2022-09-02T09:20:45Z</time>
      </trkpt>
      <trkpt lat="47.91596" lon="6.80579">
        <ele>720.9</ele>
        <time>2022-09-02T09:20:46Z</time>
      </trkpt>
      <trkpt lat="47.91596" lon="6.80578">
        <ele>720.8</ele>
        <time>2022-09-02T09:20:47Z</time>
      </trkpt>
      <trkpt lat="47.91595" lon="6.80578">
        <ele>720.5</ele>
        <time>2022-09-02T09:20:49Z</time>
      </trkpt>
      <trkpt lat="47.91595" lon="6.80577">
        <ele>720.5</ele>
        <time>2022-09-02T09:20:50Z</time>
      </trkpt>
      <trkpt lat="47.91594" lon="6.80576">
        <ele>720.2</ele>
        <time>2022-09-02T09:20:51Z</time>
      </trkpt>
      <trkpt lat="47.91594" lon="6.80575">
        <ele>720.1</ele>
        <time>2022-09-02T09:20:53Z</time>
      </trkpt>
      <trkpt lat="47.91594" lon="6.80574">
        <ele>720.1</ele>
        <time>2022-09-02T09:20:54Z</time>
      </trkpt>
      <trkpt lat="47.91593" lon="6.80573">
        <ele>719.7</ele>
        <time>2022-09-02T09:20:55Z</time>
      </trkpt>
      <trkpt lat="47.91593" lon="6.80572">
        <ele>719.7</ele>
        <time>2022-09-02T09:20:56Z</time>
      </trkpt>
      <trkpt lat="47.91593" lon="6.80571">
        <ele>719.7</ele>
        <time>2022-09-02T09:20:57Z</time>
      </trkpt>
      <trkpt lat="47.91593" lon="6.80569">
        <ele>719.6</ele>
        <time>2022-09-02T09:20:58Z</time>
      </trkpt>
      <trkpt lat="47.91593" lon="6.80568">
        <ele>719.6</ele>
        <time>2022-09-02T09:20:59Z</time>
      </trkpt>
      <trkpt lat="47.91594" lon="6.80567">
        <ele>719.8</ele>
        <time>2022-09-02T09:21:00Z</time>
      </trkpt>
      <trkpt lat="47.91594" lon="6.80566">
        <ele>719.7</ele>
        <time>2022-09-02T09:21:01Z</time>
      </trkpt>
      <trkpt lat="47.91594" lon="6.80565">
        <ele>719.7</ele>
        <time>2022-09-02T09:21:02Z</time>
      </trkpt>
      <trkpt lat="47.91595" lon="6.80564">
        <ele>719.9</ele>
        <time>2022-09-02T09:21:04Z</time>
      </trkpt>
      <trkpt lat="47.91595" lon="6.80563">
        <ele>719.9</ele>
        <time>2022-09-02T09:21:05Z</time>
      </trkpt>
      <trkpt lat="47.91595" lon="6.80562">
        <ele>719.8</ele>
        <time>2022-09-02T09:21:06Z</time>
      </trkpt>
      <trkpt lat="47.91596" lon="6.80561">
        <ele>720</ele>
        <time>2022-09-02T09:21:16Z</time>
      </trkpt>
      <trkpt lat="47.91596" lon="6.8056">
        <ele>720</ele>
        <time>2022-09-02T09:21:18Z</time>
      </trkpt>
      <trkpt lat="47.91597" lon="6.8056">
        <ele>720.2</ele>
        <time>2022-09-02T09:21:19Z</time>
      </trkpt>
      <trkpt lat="47.91597" lon="6.80559">
        <ele>720.1</ele>
        <time>2022-09-02T09:21:20Z</time>
      </trkpt>
      <trkpt lat="47.91597" lon="6.80557">
        <ele>720</ele>
        <time>2022-09-02T09:21:39Z</time>
      </trkpt>
      <trkpt lat="47.91597" lon="6.80556">
        <ele>720</ele>
        <time>2022-09-02T09:21:40Z</time>
      </trkpt>
      <trkpt lat="47.91597" lon="6.80555">
        <ele>719.8</ele>
        <time>2022-09-02T09:21:41Z</time>
      </trkpt>
      <trkpt lat="47.91597" lon="6.80554">
        <ele>719.5</ele>
        <time>2022-09-02T09:21:42Z</time>
      </trkpt>
      <trkpt lat="47.91596" lon="6.80553">
        <ele>719</ele>
        <time>2022-09-02T09:21:44Z</time>
      </trkpt>
      <trkpt lat="47.91595" lon="6.80553">
        <ele>718.8</ele>
        <time>2022-09-02T09:21:46Z</time>
      </trkpt>
      <trkpt lat="47.91594" lon="6.80553">
        <ele>718.6</ele>
        <time>2022-09-02T09:21:48Z</time>
      </trkpt>
      <trkpt lat="47.91593" lon="6.80553">
        <ele>718.4</ele>
        <time>2022-09-02T09:21:49Z</time>
      </trkpt>
      <trkpt lat="47.91593" lon="6.80554">
        <ele>718.7</ele>
        <time>2022-09-02T09:21:50Z</time>
      </trkpt>
      <trkpt lat="47.91592" lon="6.80553">
        <ele>718.2</ele>
        <time>2022-09-02T09:21:51Z</time>
      </trkpt>
      <trkpt lat="47.91591" lon="6.80553">
        <ele>718</ele>
        <time>2022-09-02T09:21:52Z</time>
      </trkpt>
      <trkpt lat="47.9159" lon="6.80553">
        <ele>717.8</ele>
        <time>2022-09-02T09:21:53Z</time>
      </trkpt>
      <trkpt lat="47.91589" lon="6.80553">
        <ele>717.5</ele>
        <time>2022-09-02T09:21:55Z</time>
      </trkpt>
      <trkpt lat="47.91588" lon="6.80553">
        <ele>717.3</ele>
        <time>2022-09-02T09:21:56Z</time>
      </trkpt>
      <trkpt lat="47.91587" lon="6.80553">
        <ele>717.1</ele>
        <time>2022-09-02T09:21:57Z</time>
      </trkpt>
      <trkpt lat="47.91586" lon="6.80553">
        <ele>716.9</ele>
        <time>2022-09-02T09:21:59Z</time>
      </trkpt>
      <trkpt lat="47.91585" lon="6.80552">
        <ele>716.4</ele>
        <time>2022-09-02T09:22:00Z</time>
      </trkpt>
      <trkpt lat="47.91585" lon="6.80551">
        <ele>716.2</ele>
        <time>2022-09-02T09:22:02Z</time>
      </trkpt>
      <trkpt lat="47.91584" lon="6.8055">
        <ele>715.7</ele>
        <time>2022-09-02T09:22:03Z</time>
      </trkpt>
      <trkpt lat="47.91584" lon="6.80549">
        <ele>715.5</ele>
        <time>2022-09-02T09:22:04Z</time>
      </trkpt>
      <trkpt lat="47.91584" lon="6.80548">
        <ele>715.2</ele>
        <time>2022-09-02T09:22:05Z</time>
      </trkpt>
      <trkpt lat="47.91585" lon="6.80547">
        <ele>715.2</ele>
        <time>2022-09-02T09:22:06Z</time>
      </trkpt>
      <trkpt lat="47.91585" lon="6.80544">
        <ele>714.4</ele>
        <time>2022-09-02T09:22:15Z</time>
      </trkpt>
      <trkpt lat="47.91585" lon="6.80543">
        <ele>714.1</ele>
        <time>2022-09-02T09:22:16Z</time>
      </trkpt>
      <trkpt lat="47.91585" lon="6.80541">
        <ele>713.6</ele>
        <time>2022-09-02T09:22:17Z</time>
      </trkpt>
      <trkpt lat="47.91585" lon="6.8054">
        <ele>713.4</ele>
        <time>2022-09-02T09:22:18Z</time>
      </trkpt>
      <trkpt lat="47.91584" lon="6.8054">
        <ele>713.2</ele>
        <time>2022-09-02T09:22:19Z</time>
      </trkpt>
      <trkpt lat="47.91584" lon="6.80539">
        <ele>712.9</ele>
        <time>2022-09-02T09:22:20Z</time>
      </trkpt>
      <trkpt lat="47.91584" lon="6.80538">
        <ele>712.7</ele>
        <time>2022-09-02T09:22:22Z</time>
      </trkpt>
      <trkpt lat="47.91584" lon="6.80537">
        <ele>712.4</ele>
        <time>2022-09-02T09:22:23Z</time>
      </trkpt>
      <trkpt lat="47.91584" lon="6.80536">
        <ele>712.2</ele>
        <time>2022-09-02T09:22:24Z</time>
      </trkpt>
      <trkpt lat="47.91584" lon="6.80534">
        <ele>711.7</ele>
        <time>2022-09-02T09:22:25Z</time>
      </trkpt>
      <trkpt lat="47.91583" lon="6.80534">
        <ele>711.5</ele>
        <time>2022-09-02T09:22:26Z</time>
      </trkpt>
      <trkpt lat="47.91583" lon="6.80533">
        <ele>711.2</ele>
        <time>2022-09-02T09:22:27Z</time>
      </trkpt>
      <trkpt lat="47.91583" lon="6.80532">
        <ele>711</ele>
        <time>2022-09-02T09:22:28Z</time>
      </trkpt>
      <trkpt lat="47.91583" lon="6.80531">
        <ele>710.7</ele>
        <time>2022-09-02T09:22:30Z</time>
      </trkpt>
      <trkpt lat="47.91583" lon="6.8053">
        <ele>710.5</ele>
        <time>2022-09-02T09:22:32Z</time>
      </trkpt>
      <trkpt lat="47.91582" lon="6.80529">
        <ele>710</ele>
        <time>2022-09-02T09:22:33Z</time>
      </trkpt>
      <trkpt lat="47.91582" lon="6.80528">
        <ele>709.8</ele>
        <time>2022-09-02T09:22:35Z</time>
      </trkpt>
      <trkpt lat="47.91581" lon="6.80528">
        <ele>709.5</ele>
        <time>2022-09-02T09:22:36Z</time>
      </trkpt>
      <trkpt lat="47.9158" lon="6.80528">
        <ele>709.3</ele>
        <time>2022-09-02T09:22:38Z</time>
      </trkpt>
      <trkpt lat="47.91579" lon="6.80528">
        <ele>709.1</ele>
        <time>2022-09-02T09:22:39Z</time>
      </trkpt>
      <trkpt lat="47.91578" lon="6.80528">
        <ele>708.9</ele>
        <time>2022-09-02T09:22:40Z</time>
      </trkpt>
      <trkpt lat="47.91577" lon="6.80528">
        <ele>708.7</ele>
        <time>2022-09-02T09:22:42Z</time>
      </trkpt>
      <trkpt lat="47.91576" lon="6.80529">
        <ele>708.7</ele>
        <time>2022-09-02T09:22:43Z</time>
      </trkpt>
      <trkpt lat="47.91575" lon="6.80529">
        <ele>708.4</ele>
        <time>2022-09-02T09:22:45Z</time>
      </trkpt>
      <trkpt lat="47.91573" lon="6.80529">
        <ele>708</ele>
        <time>2022-09-02T09:22:55Z</time>
      </trkpt>
      <trkpt lat="47.91572" lon="6.80529">
        <ele>707.8</ele>
        <time>2022-09-02T09:22:56Z</time>
      </trkpt>
      <trkpt lat="47.91571" lon="6.8053">
        <ele>707.7</ele>
        <time>2022-09-02T09:22:57Z</time>
      </trkpt>
      <trkpt lat="47.9157" lon="6.8053">
        <ele>707.4</ele>
        <time>2022-09-02T09:22:58Z</time>
      </trkpt>
      <trkpt lat="47.91569" lon="6.80531">
        <ele>707.4</ele>
        <time>2022-09-02T09:22:59Z</time>
      </trkpt>
      <trkpt lat="47.91568" lon="6.80531">
        <ele>707.1</ele>
        <time>2022-09-02T09:23:00Z</time>
      </trkpt>
      <trkpt lat="47.91567" lon="6.80532">
        <ele>707</ele>
        <time>2022-09-02T09:23:01Z</time>
      </trkpt>
      <trkpt lat="47.91566" lon="6.80533">
        <ele>706.9</ele>
        <time>2022-09-02T09:23:02Z</time>
      </trkpt>
      <trkpt lat="47.91565" lon="6.80534">
        <ele>706.7</ele>
        <time>2022-09-02T09:23:03Z</time>
      </trkpt>
      <trkpt lat="47.91564" lon="6.80535">
        <ele>706.6</ele>
        <time>2022-09-02T09:23:05Z</time>
      </trkpt>
      <trkpt lat="47.91563" lon="6.80536">
        <ele>706.4</ele>
        <time>2022-09-02T09:23:06Z</time>
      </trkpt>
      <trkpt lat="47.91562" lon="6.80536">
        <ele>706.1</ele>
        <time>2022-09-02T09:23:07Z</time>
      </trkpt>
      <trkpt lat="47.91561" lon="6.80537">
        <ele>705.9</ele>
        <time>2022-09-02T09:23:08Z</time>
      </trkpt>
      <trkpt lat="47.9156" lon="6.80537">
        <ele>705.6</ele>
        <time>2022-09-02T09:23:10Z</time>
      </trkpt>
      <trkpt lat="47.91559" lon="6.80538">
        <ele>705.4</ele>
        <time>2022-09-02T09:23:11Z</time>
      </trkpt>
      <trkpt lat="47.91558" lon="6.80537">
        <ele>705</ele>
        <time>2022-09-02T09:23:13Z</time>
      </trkpt>
      <trkpt lat="47.91557" lon="6.80537">
        <ele>704.7</ele>
        <time>2022-09-02T09:23:14Z</time>
      </trkpt>
      <trkpt lat="47.91556" lon="6.80537">
        <ele>704.5</ele>
        <time>2022-09-02T09:23:15Z</time>
      </trkpt>
      <trkpt lat="47.91555" lon="6.80536">
        <ele>704.2</ele>
        <time>2022-09-02T09:23:16Z</time>
      </trkpt>
      <trkpt lat="47.91554" lon="6.80535">
        <ele>704</ele>
        <time>2022-09-02T09:23:17Z</time>
      </trkpt>
      <trkpt lat="47.91553" lon="6.80535">
        <ele>703.9</ele>
        <time>2022-09-02T09:23:18Z</time>
      </trkpt>
      <trkpt lat="47.91552" lon="6.80534">
        <ele>703.8</ele>
        <time>2022-09-02T09:23:19Z</time>
      </trkpt>
      <trkpt lat="47.91551" lon="6.80533">
        <ele>703.6</ele>
        <time>2022-09-02T09:23:20Z</time>
      </trkpt>
      <trkpt lat="47.91551" lon="6.80532">
        <ele>703.6</ele>
        <time>2022-09-02T09:23:21Z</time>
      </trkpt>
      <trkpt lat="47.9155" lon="6.80531">
        <ele>703.4</ele>
        <time>2022-09-02T09:23:22Z</time>
      </trkpt>
      <trkpt lat="47.91549" lon="6.8053">
        <ele>703.3</ele>
        <time>2022-09-02T09:23:24Z</time>
      </trkpt>
      <trkpt lat="47.91549" lon="6.80529">
        <ele>703.3</ele>
        <time>2022-09-02T09:23:26Z</time>
      </trkpt>
      <trkpt lat="47.91549" lon="6.80528">
        <ele>703.3</ele>
        <time>2022-09-02T09:23:27Z</time>
      </trkpt>
      <trkpt lat="47.91549" lon="6.80526">
        <ele>703.3</ele>
        <time>2022-09-02T09:23:43Z</time>
      </trkpt>
      <trkpt lat="47.91549" lon="6.80525">
        <ele>703.3</ele>
        <time>2022-09-02T09:23:44Z</time>
      </trkpt>
      <trkpt lat="47.91549" lon="6.80524">
        <ele>703.3</ele>
        <time>2022-09-02T09:23:45Z</time>
      </trkpt>
      <trkpt lat="47.9155" lon="6.80523">
        <ele>703.3</ele>
        <time>2022-09-02T09:23:47Z</time>
      </trkpt>
      <trkpt lat="47.91551" lon="6.80523">
        <ele>703.4</ele>
        <time>2022-09-02T09:23:49Z</time>
      </trkpt>
      <trkpt lat="47.91552" lon="6.80522">
        <ele>703.5</ele>
        <time>2022-09-02T09:23:50Z</time>
      </trkpt>
      <trkpt lat="47.91553" lon="6.80522">
        <ele>703.6</ele>
        <time>2022-09-02T09:23:51Z</time>
      </trkpt>
      <trkpt lat="47.91554" lon="6.80522">
        <ele>703.7</ele>
        <time>2022-09-02T09:23:52Z</time>
      </trkpt>
      <trkpt lat="47.91555" lon="6.80522">
        <ele>703.7</ele>
        <time>2022-09-02T09:23:53Z</time>
      </trkpt>
      <trkpt lat="47.91556" lon="6.80522">
        <ele>703.9</ele>
        <time>2022-09-02T09:23:54Z</time>
      </trkpt>
      <trkpt lat="47.91557" lon="6.80522">
        <ele>704</ele>
        <time>2022-09-02T09:23:55Z</time>
      </trkpt>
      <trkpt lat="47.91558" lon="6.80522">
        <ele>704.2</ele>
        <time>2022-09-02T09:23:56Z</time>
      </trkpt>
      <trkpt lat="47.91559" lon="6.80522">
        <ele>704.4</ele>
        <time>2022-09-02T09:23:58Z</time>
      </trkpt>
      <trkpt lat="47.9156" lon="6.80521">
        <ele>704.5</ele>
        <time>2022-09-02T09:23:59Z</time>
      </trkpt>
      <trkpt lat="47.91561" lon="6.80521">
        <ele>704.7</ele>
        <time>2022-09-02T09:24:00Z</time>
      </trkpt>
      <trkpt lat="47.91562" lon="6.8052">
        <ele>704.8</ele>
        <time>2022-09-02T09:24:01Z</time>
      </trkpt>
      <trkpt lat="47.91563" lon="6.8052">
        <ele>705</ele>
        <time>2022-09-02T09:24:02Z</time>
      </trkpt>
      <trkpt lat="47.91564" lon="6.80519">
        <ele>705</ele>
        <time>2022-09-02T09:24:03Z</time>
      </trkpt>
      <trkpt lat="47.91565" lon="6.80519">
        <ele>705.2</ele>
        <time>2022-09-02T09:24:04Z</time>
      </trkpt>
      <trkpt lat="47.91565" lon="6.80518">
        <ele>705.1</ele>
        <time>2022-09-02T09:24:05Z</time>
      </trkpt>
      <trkpt lat="47.91566" lon="6.80518">
        <ele>705.2</ele>
        <time>2022-09-02T09:24:06Z</time>
      </trkpt>
      <trkpt lat="47.91567" lon="6.80517">
        <ele>705.3</ele>
        <time>2022-09-02T09:24:07Z</time>
      </trkpt>
      <trkpt lat="47.91568" lon="6.80516">
        <ele>705.3</ele>
        <time>2022-09-02T09:24:08Z</time>
      </trkpt>
      <trkpt lat="47.91569" lon="6.80515">
        <ele>705.3</ele>
        <time>2022-09-02T09:24:09Z</time>
      </trkpt>
      <trkpt lat="47.9157" lon="6.80514">
        <ele>705.3</ele>
        <time>2022-09-02T09:24:10Z</time>
      </trkpt>
      <trkpt lat="47.91571" lon="6.80513">
        <ele>705.3</ele>
        <time>2022-09-02T09:24:11Z</time>
      </trkpt>
      <trkpt lat="47.91572" lon="6.80512">
        <ele>705.3</ele>
        <time>2022-09-02T09:24:12Z</time>
      </trkpt>
      <trkpt lat="47.91572" lon="6.80511">
        <ele>705.2</ele>
        <time>2022-09-02T09:24:13Z</time>
      </trkpt>
      <trkpt lat="47.91573" lon="6.80511">
        <ele>705.3</ele>
        <time>2022-09-02T09:24:14Z</time>
      </trkpt>
      <trkpt lat="47.91574" lon="6.8051">
        <ele>705.2</ele>
        <time>2022-09-02T09:24:15Z</time>
      </trkpt>
      <trkpt lat="47.91574" lon="6.80509">
        <ele>705.1</ele>
        <time>2022-09-02T09:24:16Z</time>
      </trkpt>
      <trkpt lat="47.91575" lon="6.80508">
        <ele>705</ele>
        <time>2022-09-02T09:24:17Z</time>
      </trkpt>
      <trkpt lat="47.91576" lon="6.80508">
        <ele>705.1</ele>
        <time>2022-09-02T09:24:20Z</time>
      </trkpt>
      <trkpt lat="47.91577" lon="6.80507">
        <ele>705</ele>
        <time>2022-09-02T09:24:22Z</time>
      </trkpt>
      <trkpt lat="47.91578" lon="6.80506">
        <ele>704.9</ele>
        <time>2022-09-02T09:24:24Z</time>
      </trkpt>
      <trkpt lat="47.91579" lon="6.80506">
        <ele>705</ele>
        <time>2022-09-02T09:24:25Z</time>
      </trkpt>
      <trkpt lat="47.9158" lon="6.80505">
        <ele>704.9</ele>
        <time>2022-09-02T09:24:26Z</time>
      </trkpt>
      <trkpt lat="47.91581" lon="6.80504">
        <ele>704.7</ele>
        <time>2022-09-02T09:24:27Z</time>
      </trkpt>
      <trkpt lat="47.91582" lon="6.80503">
        <ele>704.6</ele>
        <time>2022-09-02T09:24:28Z</time>
      </trkpt>
      <trkpt lat="47.91583" lon="6.80502">
        <ele>704.4</ele>
        <time>2022-09-02T09:24:29Z</time>
      </trkpt>
      <trkpt lat="47.91583" lon="6.80501">
        <ele>704.2</ele>
        <time>2022-09-02T09:24:30Z</time>
      </trkpt>
      <trkpt lat="47.91584" lon="6.80501">
        <ele>704.2</ele>
        <time>2022-09-02T09:24:31Z</time>
      </trkpt>
      <trkpt lat="47.91585" lon="6.805">
        <ele>703.9</ele>
        <time>2022-09-02T09:24:32Z</time>
      </trkpt>
      <trkpt lat="47.91586" lon="6.805">
        <ele>703.9</ele>
        <time>2022-09-02T09:24:33Z</time>
      </trkpt>
      <trkpt lat="47.91587" lon="6.80499">
        <ele>703.7</ele>
        <time>2022-09-02T09:24:34Z</time>
      </trkpt>
      <trkpt lat="47.91588" lon="6.80499">
        <ele>703.7</ele>
        <time>2022-09-02T09:24:35Z</time>
      </trkpt>
      <trkpt lat="47.91589" lon="6.80499">
        <ele>703.6</ele>
        <time>2022-09-02T09:24:36Z</time>
      </trkpt>
      <trkpt lat="47.9159" lon="6.80499">
        <ele>703.6</ele>
        <time>2022-09-02T09:24:37Z</time>
      </trkpt>
      <trkpt lat="47.91591" lon="6.80499">
        <ele>703.6</ele>
        <time>2022-09-02T09:24:38Z</time>
      </trkpt>
      <trkpt lat="47.91592" lon="6.80498">
        <ele>703.3</ele>
        <time>2022-09-02T09:24:39Z</time>
      </trkpt>
      <trkpt lat="47.91593" lon="6.80498">
        <ele>703.3</ele>
        <time>2022-09-02T09:24:40Z</time>
      </trkpt>
      <trkpt lat="47.91594" lon="6.80497">
        <ele>703.1</ele>
        <time>2022-09-02T09:24:41Z</time>
      </trkpt>
      <trkpt lat="47.91595" lon="6.80497">
        <ele>703</ele>
        <time>2022-09-02T09:24:43Z</time>
      </trkpt>
      <trkpt lat="47.91596" lon="6.80496">
        <ele>702.8</ele>
        <time>2022-09-02T09:24:44Z</time>
      </trkpt>
      <trkpt lat="47.91597" lon="6.80496">
        <ele>702.7</ele>
        <time>2022-09-02T09:24:45Z</time>
      </trkpt>
      <trkpt lat="47.91598" lon="6.80496">
        <ele>702.7</ele>
        <time>2022-09-02T09:24:46Z</time>
      </trkpt>
      <trkpt lat="47.91599" lon="6.80496">
        <ele>702.6</ele>
        <time>2022-09-02T09:24:47Z</time>
      </trkpt>
      <trkpt lat="47.916" lon="6.80496">
        <ele>702.6</ele>
        <time>2022-09-02T09:24:48Z</time>
      </trkpt>
      <trkpt lat="47.91602" lon="6.80496">
        <ele>702.5</ele>
        <time>2022-09-02T09:24:49Z</time>
      </trkpt>
      <trkpt lat="47.91603" lon="6.80495">
        <ele>702.2</ele>
        <time>2022-09-02T09:24:50Z</time>
      </trkpt>
      <trkpt lat="47.91604" lon="6.80494">
        <ele>701.9</ele>
        <time>2022-09-02T09:24:51Z</time>
      </trkpt>
      <trkpt lat="47.91605" lon="6.80494">
        <ele>701.9</ele>
        <time>2022-09-02T09:24:52Z</time>
      </trkpt>
      <trkpt lat="47.91606" lon="6.80493">
        <ele>701.6</ele>
        <time>2022-09-02T09:24:53Z</time>
      </trkpt>
      <trkpt lat="47.91607" lon="6.80493">
        <ele>701.5</ele>
        <time>2022-09-02T09:24:54Z</time>
      </trkpt>
      <trkpt lat="47.91609" lon="6.80492">
        <ele>701.1</ele>
        <time>2022-09-02T09:24:55Z</time>
      </trkpt>
      <trkpt lat="47.9161" lon="6.80492">
        <ele>701.1</ele>
        <time>2022-09-02T09:24:56Z</time>
      </trkpt>
      <trkpt lat="47.91611" lon="6.80492">
        <ele>701</ele>
        <time>2022-09-02T09:24:57Z</time>
      </trkpt>
      <trkpt lat="47.91612" lon="6.80492">
        <ele>701</ele>
        <time>2022-09-02T09:24:58Z</time>
      </trkpt>
      <trkpt lat="47.91613" lon="6.80492">
        <ele>701</ele>
        <time>2022-09-02T09:24:59Z</time>
      </trkpt>
      <trkpt lat="47.91614" lon="6.80492">
        <ele>701</ele>
        <time>2022-09-02T09:25:00Z</time>
      </trkpt>
      <trkpt lat="47.91615" lon="6.80492">
        <ele>701</ele>
        <time>2022-09-02T09:25:01Z</time>
      </trkpt>
      <trkpt lat="47.91616" lon="6.80492">
        <ele>701</ele>
        <time>2022-09-02T09:25:02Z</time>
      </trkpt>
      <trkpt lat="47.91617" lon="6.80492">
        <ele>701</ele>
        <time>2022-09-02T09:25:03Z</time>
      </trkpt>
      <trkpt lat="47.91618" lon="6.80492">
        <ele>700.9</ele>
        <time>2022-09-02T09:25:04Z</time>
      </trkpt>
      <trkpt lat="47.91619" lon="6.80492">
        <ele>700.9</ele>
        <time>2022-09-02T09:25:05Z</time>
      </trkpt>
      <trkpt lat="47.9162" lon="6.80492">
        <ele>700.9</ele>
        <time>2022-09-02T09:25:06Z</time>
      </trkpt>
      <trkpt lat="47.91621" lon="6.80491">
        <ele>700.6</ele>
        <time>2022-09-02T09:25:07Z</time>
      </trkpt>
      <trkpt lat="47.91622" lon="6.80491">
        <ele>700.6</ele>
        <time>2022-09-02T09:25:08Z</time>
      </trkpt>
      <trkpt lat="47.91624" lon="6.80491">
        <ele>700.6</ele>
        <time>2022-09-02T09:25:09Z</time>
      </trkpt>
      <trkpt lat="47.91625" lon="6.80491">
        <ele>700.6</ele>
        <time>2022-09-02T09:25:10Z</time>
      </trkpt>
      <trkpt lat="47.91626" lon="6.8049">
        <ele>700.2</ele>
        <time>2022-09-02T09:25:11Z</time>
      </trkpt>
      <trkpt lat="47.91627" lon="6.8049">
        <ele>700.2</ele>
        <time>2022-09-02T09:25:12Z</time>
      </trkpt>
      <trkpt lat="47.91628" lon="6.8049">
        <ele>700.2</ele>
        <time>2022-09-02T09:25:13Z</time>
      </trkpt>
      <trkpt lat="47.91629" lon="6.8049">
        <ele>700.2</ele>
        <time>2022-09-02T09:25:14Z</time>
      </trkpt>
      <trkpt lat="47.9163" lon="6.8049">
        <ele>700.2</ele>
        <time>2022-09-02T09:25:15Z</time>
      </trkpt>
      <trkpt lat="47.91631" lon="6.8049">
        <ele>700.2</ele>
        <time>2022-09-02T09:25:16Z</time>
      </trkpt>
      <trkpt lat="47.91632" lon="6.80491">
        <ele>700.5</ele>
        <time>2022-09-02T09:25:17Z</time>
      </trkpt>
      <trkpt lat="47.91634" lon="6.80491">
        <ele>700.5</ele>
        <time>2022-09-02T09:25:18Z</time>
      </trkpt>
      <trkpt lat="47.91635" lon="6.80491">
        <ele>700.5</ele>
        <time>2022-09-02T09:25:19Z</time>
      </trkpt>
      <trkpt lat="47.91636" lon="6.80491">
        <ele>700.5</ele>
        <time>2022-09-02T09:25:20Z</time>
      </trkpt>
      <trkpt lat="47.91637" lon="6.80492">
        <ele>700.8</ele>
        <time>2022-09-02T09:25:21Z</time>
      </trkpt>
      <trkpt lat="47.91639" lon="6.80492">
        <ele>700.8</ele>
        <time>2022-09-02T09:25:22Z</time>
      </trkpt>
      <trkpt lat="47.91641" lon="6.80492">
        <ele>700.8</ele>
        <time>2022-09-02T09:25:32Z</time>
      </trkpt>
      <trkpt lat="47.91641" lon="6.80493">
        <ele>701.2</ele>
        <time>2022-09-02T09:25:33Z</time>
      </trkpt>
      <trkpt lat="47.91642" lon="6.80493">
        <ele>701.2</ele>
        <time>2022-09-02T09:25:34Z</time>
      </trkpt>
      <trkpt lat="47.91643" lon="6.80493">
        <ele>701.2</ele>
        <time>2022-09-02T09:25:35Z</time>
      </trkpt>
      <trkpt lat="47.91644" lon="6.80494">
        <ele>701.5</ele>
        <time>2022-09-02T09:25:37Z</time>
      </trkpt>
      <trkpt lat="47.91645" lon="6.80494">
        <ele>701.5</ele>
        <time>2022-09-02T09:25:38Z</time>
      </trkpt>
      <trkpt lat="47.91646" lon="6.80495">
        <ele>701.9</ele>
        <time>2022-09-02T09:25:39Z</time>
      </trkpt>
      <trkpt lat="47.91647" lon="6.80496">
        <ele>702.2</ele>
        <time>2022-09-02T09:25:40Z</time>
      </trkpt>
      <trkpt lat="47.91648" lon="6.80497">
        <ele>702.6</ele>
        <time>2022-09-02T09:25:42Z</time>
      </trkpt>
      <trkpt lat="47.91649" lon="6.80497">
        <ele>702.5</ele>
        <time>2022-09-02T09:25:43Z</time>
      </trkpt>
      <trkpt lat="47.9165" lon="6.80498">
        <ele>702.9</ele>
        <time>2022-09-02T09:25:44Z</time>
      </trkpt>
      <trkpt lat="47.91651" lon="6.80499">
        <ele>703.2</ele>
        <time>2022-09-02T09:25:54Z</time>
      </trkpt>
      <trkpt lat="47.91652" lon="6.80499">
        <ele>703.2</ele>
        <time>2022-09-02T09:25:55Z</time>
      </trkpt>
      <trkpt lat="47.91653" lon="6.805">
        <ele>703.5</ele>
        <time>2022-09-02T09:25:56Z</time>
      </trkpt>
      <trkpt lat="47.91655" lon="6.80501">
        <ele>703.6</ele>
        <time>2022-09-02T09:26:15Z</time>
      </trkpt>
      <trkpt lat="47.91656" lon="6.80501">
        <ele>703.5</ele>
        <time>2022-09-02T09:26:16Z</time>
      </trkpt>
      <trkpt lat="47.91657" lon="6.80501">
        <ele>703.5</ele>
        <time>2022-09-02T09:26:17Z</time>
      </trkpt>
      <trkpt lat="47.91658" lon="6.80499">
        <ele>703</ele>
        <time>2022-09-02T09:26:26Z</time>
      </trkpt>
      <trkpt lat="47.91658" lon="6.80498">
        <ele>702.6</ele>
        <time>2022-09-02T09:26:27Z</time>
      </trkpt>
      <trkpt lat="47.91658" lon="6.80497">
        <ele>702.3</ele>
        <time>2022-09-02T09:26:28Z</time>
      </trkpt>
      <trkpt lat="47.9166" lon="6.80491">
        <ele>700.2</ele>
        <time>2022-09-02T09:29:28Z</time>
      </trkpt>
      <trkpt lat="47.91661" lon="6.80488">
        <ele>699.1</ele>
        <time>2022-09-02T09:29:29Z</time>
      </trkpt>
      <trkpt lat="47.91662" lon="6.80486">
        <ele>698.5</ele>
        <time>2022-09-02T09:29:30Z</time>
      </trkpt>
      <trkpt lat="47.91662" lon="6.80485">
        <ele>698.1</ele>
        <time>2022-09-02T09:29:31Z</time>
      </trkpt>
      <trkpt lat="47.91663" lon="6.80484">
        <ele>697.8</ele>
        <time>2022-09-02T09:29:32Z</time>
      </trkpt>
      <trkpt lat="47.91664" lon="6.80483">
        <ele>697.5</ele>
        <time>2022-09-02T09:33:02Z</time>
      </trkpt>
      <trkpt lat="47.91665" lon="6.80482">
        <ele>697.2</ele>
        <time>2022-09-02T09:33:04Z</time>
      </trkpt>
      <trkpt lat="47.91666" lon="6.80482">
        <ele>697.2</ele>
        <time>2022-09-02T09:33:06Z</time>
      </trkpt>
      <trkpt lat="47.91666" lon="6.80485">
        <ele>698.1</ele>
        <time>2022-09-02T09:44:20Z</time>
      </trkpt>
      <trkpt lat="47.91666" lon="6.80486">
        <ele>698.5</ele>
        <time>2022-09-02T09:44:21Z</time>
      </trkpt>
      <trkpt lat="47.91666" lon="6.80487">
        <ele>698.8</ele>
        <time>2022-09-02T09:44:22Z</time>
      </trkpt>
      <trkpt lat="47.91666" lon="6.80488">
        <ele>699.1</ele>
        <time>2022-09-02T09:44:23Z</time>
      </trkpt>
      <trkpt lat="47.91666" lon="6.80489">
        <ele>699.4</ele>
        <time>2022-09-02T09:44:24Z</time>
      </trkpt>
      <trkpt lat="47.91666" lon="6.8049">
        <ele>699.8</ele>
        <time>2022-09-02T09:44:25Z</time>
      </trkpt>
      <trkpt lat="47.91665" lon="6.80491">
        <ele>700.1</ele>
        <time>2022-09-02T09:44:26Z</time>
      </trkpt>
      <trkpt lat="47.91665" lon="6.80493">
        <ele>700.8</ele>
        <time>2022-09-02T09:44:27Z</time>
      </trkpt>
      <trkpt lat="47.91665" lon="6.80494">
        <ele>701.1</ele>
        <time>2022-09-02T09:44:28Z</time>
      </trkpt>
      <trkpt lat="47.91664" lon="6.80495">
        <ele>701.4</ele>
        <time>2022-09-02T09:44:29Z</time>
      </trkpt>
      <trkpt lat="47.91664" lon="6.80496">
        <ele>701.8</ele>
        <time>2022-09-02T09:44:30Z</time>
      </trkpt>
      <trkpt lat="47.91664" lon="6.80498">
        <ele>702.4</ele>
        <time>2022-09-02T09:44:31Z</time>
      </trkpt>
      <trkpt lat="47.91664" lon="6.80499">
        <ele>702.8</ele>
        <time>2022-09-02T09:44:32Z</time>
      </trkpt>
      <trkpt lat="47.91663" lon="6.805">
        <ele>703.1</ele>
        <time>2022-09-02T09:44:33Z</time>
      </trkpt>
      <trkpt lat="47.91663" lon="6.80502">
        <ele>703.4</ele>
        <time>2022-09-02T09:44:34Z</time>
      </trkpt>
      <trkpt lat="47.91662" lon="6.80503">
        <ele>703.6</ele>
        <time>2022-09-02T09:44:35Z</time>
      </trkpt>
      <trkpt lat="47.91662" lon="6.80504">
        <ele>703.7</ele>
        <time>2022-09-02T09:44:36Z</time>
      </trkpt>
      <trkpt lat="47.91662" lon="6.80505">
        <ele>703.8</ele>
        <time>2022-09-02T09:44:37Z</time>
      </trkpt>
      <trkpt lat="47.91662" lon="6.80506">
        <ele>704</ele>
        <time>2022-09-02T09:44:38Z</time>
      </trkpt>
      <trkpt lat="47.91661" lon="6.80507">
        <ele>704.2</ele>
        <time>2022-09-02T09:44:39Z</time>
      </trkpt>
      <trkpt lat="47.91661" lon="6.80508">
        <ele>704.3</ele>
        <time>2022-09-02T09:44:40Z</time>
      </trkpt>
      <trkpt lat="47.91661" lon="6.80509">
        <ele>704.4</ele>
        <time>2022-09-02T09:44:41Z</time>
      </trkpt>
      <trkpt lat="47.91662" lon="6.8051">
        <ele>704.5</ele>
        <time>2022-09-02T09:44:43Z</time>
      </trkpt>
      <trkpt lat="47.91662" lon="6.80511">
        <ele>704.6</ele>
        <time>2022-09-02T09:44:44Z</time>
      </trkpt>
      <trkpt lat="47.91662" lon="6.80512">
        <ele>704.8</ele>
        <time>2022-09-02T09:44:45Z</time>
      </trkpt>
      <trkpt lat="47.91663" lon="6.80512">
        <ele>704.7</ele>
        <time>2022-09-02T09:44:46Z</time>
      </trkpt>
      <trkpt lat="47.91664" lon="6.80513">
        <ele>704.7</ele>
        <time>2022-09-02T09:44:47Z</time>
      </trkpt>
      <trkpt lat="47.91664" lon="6.80514">
        <ele>704.8</ele>
        <time>2022-09-02T09:44:48Z</time>
      </trkpt>
      <trkpt lat="47.91665" lon="6.80514">
        <ele>704.7</ele>
        <time>2022-09-02T09:44:49Z</time>
      </trkpt>
      <trkpt lat="47.91666" lon="6.80514">
        <ele>704.6</ele>
        <time>2022-09-02T09:44:50Z</time>
      </trkpt>
      <trkpt lat="47.91667" lon="6.80515">
        <ele>704.5</ele>
        <time>2022-09-02T09:44:51Z</time>
      </trkpt>
      <trkpt lat="47.91668" lon="6.80516">
        <ele>704.4</ele>
        <time>2022-09-02T09:44:53Z</time>
      </trkpt>
      <trkpt lat="47.91669" lon="6.80516">
        <ele>704.2</ele>
        <time>2022-09-02T09:44:54Z</time>
      </trkpt>
      <trkpt lat="47.91669" lon="6.80517">
        <ele>704.3</ele>
        <time>2022-09-02T09:44:55Z</time>
      </trkpt>
      <trkpt lat="47.9167" lon="6.80517">
        <ele>704</ele>
        <time>2022-09-02T09:44:56Z</time>
      </trkpt>
      <trkpt lat="47.91671" lon="6.80518">
        <ele>703.9</ele>
        <time>2022-09-02T09:44:57Z</time>
      </trkpt>
      <trkpt lat="47.91672" lon="6.80518">
        <ele>703.7</ele>
        <time>2022-09-02T09:44:58Z</time>
      </trkpt>
      <trkpt lat="47.91672" lon="6.80519">
        <ele>703.8</ele>
        <time>2022-09-02T09:44:59Z</time>
      </trkpt>
      <trkpt lat="47.91673" lon="6.80519">
        <ele>703.5</ele>
        <time>2022-09-02T09:45:00Z</time>
      </trkpt>
      <trkpt lat="47.91674" lon="6.8052">
        <ele>703.4</ele>
        <time>2022-09-02T09:45:01Z</time>
      </trkpt>
      <trkpt lat="47.91675" lon="6.8052">
        <ele>703.2</ele>
        <time>2022-09-02T09:45:02Z</time>
      </trkpt>
      <trkpt lat="47.91676" lon="6.80521">
        <ele>703.1</ele>
        <time>2022-09-02T09:45:04Z</time>
      </trkpt>
      <trkpt lat="47.91677" lon="6.80521">
        <ele>702.9</ele>
        <time>2022-09-02T09:45:05Z</time>
      </trkpt>
      <trkpt lat="47.91677" lon="6.80522">
        <ele>703</ele>
        <time>2022-09-02T09:45:06Z</time>
      </trkpt>
      <trkpt lat="47.91678" lon="6.80523">
        <ele>702.9</ele>
        <time>2022-09-02T09:45:07Z</time>
      </trkpt>
      <trkpt lat="47.91679" lon="6.80523">
        <ele>702.7</ele>
        <time>2022-09-02T09:45:08Z</time>
      </trkpt>
      <trkpt lat="47.91679" lon="6.80524">
        <ele>702.8</ele>
        <time>2022-09-02T09:45:09Z</time>
      </trkpt>
      <trkpt lat="47.9168" lon="6.80525">
        <ele>702.7</ele>
        <time>2022-09-02T09:45:10Z</time>
      </trkpt>
      <trkpt lat="47.91681" lon="6.80526">
        <ele>702.6</ele>
        <time>2022-09-02T09:45:12Z</time>
      </trkpt>
      <trkpt lat="47.91682" lon="6.80527">
        <ele>702.6</ele>
        <time>2022-09-02T09:45:13Z</time>
      </trkpt>
      <trkpt lat="47.91683" lon="6.80528">
        <ele>702.5</ele>
        <time>2022-09-02T09:45:15Z</time>
      </trkpt>
      <trkpt lat="47.91684" lon="6.80529">
        <ele>702.5</ele>
        <time>2022-09-02T09:45:16Z</time>
      </trkpt>
      <trkpt lat="47.91685" lon="6.8053">
        <ele>702.5</ele>
        <time>2022-09-02T09:45:18Z</time>
      </trkpt>
      <trkpt lat="47.91686" lon="6.80531">
        <ele>702.4</ele>
        <time>2022-09-02T09:45:19Z</time>
      </trkpt>
      <trkpt lat="47.91686" lon="6.80532">
        <ele>702.6</ele>
        <time>2022-09-02T09:45:20Z</time>
      </trkpt>
      <trkpt lat="47.91687" lon="6.80532">
        <ele>702.4</ele>
        <time>2022-09-02T09:45:21Z</time>
      </trkpt>
      <trkpt lat="47.91688" lon="6.80533">
        <ele>702.3</ele>
        <time>2022-09-02T09:45:22Z</time>
      </trkpt>
      <trkpt lat="47.91688" lon="6.80534">
        <ele>702.5</ele>
        <time>2022-09-02T09:45:23Z</time>
      </trkpt>
      <trkpt lat="47.91688" lon="6.80536">
        <ele>702.9</ele>
        <time>2022-09-02T09:45:44Z</time>
      </trkpt>
      <trkpt lat="47.91689" lon="6.80536">
        <ele>702.6</ele>
        <time>2022-09-02T09:45:45Z</time>
      </trkpt>
      <trkpt lat="47.91689" lon="6.80537">
        <ele>702.8</ele>
        <time>2022-09-02T09:45:46Z</time>
      </trkpt>
      <trkpt lat="47.9169" lon="6.80537">
        <ele>702.5</ele>
        <time>2022-09-02T09:45:48Z</time>
      </trkpt>
      <trkpt lat="47.9169" lon="6.80538">
        <ele>702.7</ele>
        <time>2022-09-02T09:45:49Z</time>
      </trkpt>
      <trkpt lat="47.91691" lon="6.80538">
        <ele>702.4</ele>
        <time>2022-09-02T09:45:50Z</time>
      </trkpt>
      <trkpt lat="47.91691" lon="6.80539">
        <ele>702.6</ele>
        <time>2022-09-02T09:45:51Z</time>
      </trkpt>
      <trkpt lat="47.91692" lon="6.8054">
        <ele>702.4</ele>
        <time>2022-09-02T09:45:52Z</time>
      </trkpt>
      <trkpt lat="47.91692" lon="6.80541">
        <ele>702.6</ele>
        <time>2022-09-02T09:45:53Z</time>
      </trkpt>
      <trkpt lat="47.91692" lon="6.80542">
        <ele>702.8</ele>
        <time>2022-09-02T09:45:54Z</time>
      </trkpt>
      <trkpt lat="47.91693" lon="6.80543">
        <ele>702.6</ele>
        <time>2022-09-02T09:45:55Z</time>
      </trkpt>
      <trkpt lat="47.91693" lon="6.80544">
        <ele>702.8</ele>
        <time>2022-09-02T09:45:56Z</time>
      </trkpt>
      <trkpt lat="47.91694" lon="6.80545">
        <ele>702.6</ele>
        <time>2022-09-02T09:45:57Z</time>
      </trkpt>
      <trkpt lat="47.91694" lon="6.80546">
        <ele>702.8</ele>
        <time>2022-09-02T09:45:58Z</time>
      </trkpt>
      <trkpt lat="47.91695" lon="6.80547">
        <ele>702.5</ele>
        <time>2022-09-02T09:46:00Z</time>
      </trkpt>
      <trkpt lat="47.91696" lon="6.80548">
        <ele>702.1</ele>
        <time>2022-09-02T09:46:49Z</time>
      </trkpt>
      <trkpt lat="47.91697" lon="6.80549">
        <ele>701.8</ele>
        <time>2022-09-02T09:46:50Z</time>
      </trkpt>
      <trkpt lat="47.91697" lon="6.8055">
        <ele>701.9</ele>
        <time>2022-09-02T09:46:51Z</time>
      </trkpt>
      <trkpt lat="47.91698" lon="6.80551">
        <ele>701.6</ele>
        <time>2022-09-02T09:46:52Z</time>
      </trkpt>
      <trkpt lat="47.91698" lon="6.80552">
        <ele>701.7</ele>
        <time>2022-09-02T09:46:54Z</time>
      </trkpt>
      <trkpt lat="47.91698" lon="6.80553">
        <ele>701.8</ele>
        <time>2022-09-02T09:46:55Z</time>
      </trkpt>
      <trkpt lat="47.91698" lon="6.80554">
        <ele>702</ele>
        <time>2022-09-02T09:46:56Z</time>
      </trkpt>
      <trkpt lat="47.91698" lon="6.80555">
        <ele>702.1</ele>
        <time>2022-09-02T09:46:57Z</time>
      </trkpt>
      <trkpt lat="47.91698" lon="6.80557">
        <ele>702.3</ele>
        <time>2022-09-02T09:48:07Z</time>
      </trkpt>
      <trkpt lat="47.91697" lon="6.80557">
        <ele>702.8</ele>
        <time>2022-09-02T09:48:08Z</time>
      </trkpt>
      <trkpt lat="47.91696" lon="6.80557">
        <ele>703.3</ele>
        <time>2022-09-02T09:48:11Z</time>
      </trkpt>
      <trkpt lat="47.91696" lon="6.80556">
        <ele>703.2</ele>
        <time>2022-09-02T09:48:12Z</time>
      </trkpt>
      <trkpt lat="47.91695" lon="6.80555">
        <ele>703.6</ele>
        <time>2022-09-02T09:48:13Z</time>
      </trkpt>
      <trkpt lat="47.91695" lon="6.80554">
        <ele>703.5</ele>
        <time>2022-09-02T09:48:14Z</time>
      </trkpt>
      <trkpt lat="47.91694" lon="6.80553">
        <ele>703.8</ele>
        <time>2022-09-02T09:48:15Z</time>
      </trkpt>
      <trkpt lat="47.91694" lon="6.80552">
        <ele>703.6</ele>
        <time>2022-09-02T09:48:42Z</time>
      </trkpt>
      <trkpt lat="47.91694" lon="6.80554">
        <ele>703.9</ele>
        <time>2022-09-02T09:48:58Z</time>
      </trkpt>
      <trkpt lat="47.91693" lon="6.80554">
        <ele>704.3</ele>
        <time>2022-09-02T09:48:59Z</time>
      </trkpt>
      <trkpt lat="47.91692" lon="6.80554">
        <ele>704.6</ele>
        <time>2022-09-02T09:49:01Z</time>
      </trkpt>
      <trkpt lat="47.91692" lon="6.80553">
        <ele>704.5</ele>
        <time>2022-09-02T09:49:02Z</time>
      </trkpt>
      <trkpt lat="47.91692" lon="6.80552">
        <ele>704.3</ele>
        <time>2022-09-02T09:49:03Z</time>
      </trkpt>
      <trkpt lat="47.91691" lon="6.8055">
        <ele>704.3</ele>
        <time>2022-09-02T09:49:04Z</time>
      </trkpt>
      <trkpt lat="47.91691" lon="6.80549">
        <ele>704.2</ele>
        <time>2022-09-02T09:49:05Z</time>
      </trkpt>
      <trkpt lat="47.91691" lon="6.80547">
        <ele>703.9</ele>
        <time>2022-09-02T09:49:06Z</time>
      </trkpt>
      <trkpt lat="47.9169" lon="6.80545">
        <ele>703.8</ele>
        <time>2022-09-02T09:49:07Z</time>
      </trkpt>
      <trkpt lat="47.9169" lon="6.80544">
        <ele>703.7</ele>
        <time>2022-09-02T09:49:08Z</time>
      </trkpt>
      <trkpt lat="47.9169" lon="6.80542">
        <ele>703.3</ele>
        <time>2022-09-02T09:49:09Z</time>
      </trkpt>
      <trkpt lat="47.91689" lon="6.8054">
        <ele>703.3</ele>
        <time>2022-09-02T09:49:10Z</time>
      </trkpt>
      <trkpt lat="47.91689" lon="6.80539">
        <ele>703.1</ele>
        <time>2022-09-02T09:49:11Z</time>
      </trkpt>
      <trkpt lat="47.91688" lon="6.80537">
        <ele>703</ele>
        <time>2022-09-02T09:49:12Z</time>
      </trkpt>
      <trkpt lat="47.91687" lon="6.80536">
        <ele>703.1</ele>
        <time>2022-09-02T09:49:13Z</time>
      </trkpt>
      <trkpt lat="47.91687" lon="6.80534">
        <ele>702.7</ele>
        <time>2022-09-02T09:49:14Z</time>
      </trkpt>
      <trkpt lat="47.91686" lon="6.80533">
        <ele>702.8</ele>
        <time>2022-09-02T09:49:15Z</time>
      </trkpt>
      <trkpt lat="47.91685" lon="6.80532">
        <ele>702.9</ele>
        <time>2022-09-02T09:49:16Z</time>
      </trkpt>
      <trkpt lat="47.91684" lon="6.80531">
        <ele>702.9</ele>
        <time>2022-09-02T09:49:17Z</time>
      </trkpt>
      <trkpt lat="47.91684" lon="6.8053">
        <ele>702.7</ele>
        <time>2022-09-02T09:49:18Z</time>
      </trkpt>
      <trkpt lat="47.91683" lon="6.80529">
        <ele>702.7</ele>
        <time>2022-09-02T09:49:19Z</time>
      </trkpt>
      <trkpt lat="47.91682" lon="6.80527">
        <ele>702.6</ele>
        <time>2022-09-02T09:49:20Z</time>
      </trkpt>
      <trkpt lat="47.91681" lon="6.80526">
        <ele>702.6</ele>
        <time>2022-09-02T09:49:21Z</time>
      </trkpt>
      <trkpt lat="47.9168" lon="6.80525">
        <ele>702.7</ele>
        <time>2022-09-02T09:49:22Z</time>
      </trkpt>
      <trkpt lat="47.91679" lon="6.80524">
        <ele>702.8</ele>
        <time>2022-09-02T09:49:23Z</time>
      </trkpt>
      <trkpt lat="47.91678" lon="6.80524">
        <ele>703</ele>
        <time>2022-09-02T09:49:24Z</time>
      </trkpt>
      <trkpt lat="47.91677" lon="6.80523">
        <ele>703.1</ele>
        <time>2022-09-02T09:49:25Z</time>
      </trkpt>
      <trkpt lat="47.91676" lon="6.80522">
        <ele>703.2</ele>
        <time>2022-09-02T09:49:26Z</time>
      </trkpt>
      <trkpt lat="47.91675" lon="6.80521">
        <ele>703.3</ele>
        <time>2022-09-02T09:49:27Z</time>
      </trkpt>
      <trkpt lat="47.91674" lon="6.8052">
        <ele>703.4</ele>
        <time>2022-09-02T09:49:28Z</time>
      </trkpt>
      <trkpt lat="47.91673" lon="6.80519">
        <ele>703.5</ele>
        <time>2022-09-02T09:49:29Z</time>
      </trkpt>
      <trkpt lat="47.91672" lon="6.80518">
        <ele>703.7</ele>
        <time>2022-09-02T09:49:30Z</time>
      </trkpt>
      <trkpt lat="47.91671" lon="6.80518">
        <ele>703.9</ele>
        <time>2022-09-02T09:49:31Z</time>
      </trkpt>
      <trkpt lat="47.9167" lon="6.80517">
        <ele>704</ele>
        <time>2022-09-02T09:49:32Z</time>
      </trkpt>
      <trkpt lat="47.91669" lon="6.80516">
        <ele>704.2</ele>
        <time>2022-09-02T09:49:33Z</time>
      </trkpt>
      <trkpt lat="47.91668" lon="6.80515">
        <ele>704.3</ele>
        <time>2022-09-02T09:49:34Z</time>
      </trkpt>
      <trkpt lat="47.91667" lon="6.80514">
        <ele>704.4</ele>
        <time>2022-09-02T09:49:35Z</time>
      </trkpt>
      <trkpt lat="47.91666" lon="6.80514">
        <ele>704.6</ele>
        <time>2022-09-02T09:49:36Z</time>
      </trkpt>
      <trkpt lat="47.91665" lon="6.80513">
        <ele>704.6</ele>
        <time>2022-09-02T09:49:37Z</time>
      </trkpt>
      <trkpt lat="47.91664" lon="6.80513">
        <ele>704.7</ele>
        <time>2022-09-02T09:49:38Z</time>
      </trkpt>
      <trkpt lat="47.91663" lon="6.80512">
        <ele>704.7</ele>
        <time>2022-09-02T09:49:39Z</time>
      </trkpt>
      <trkpt lat="47.91662" lon="6.80511">
        <ele>704.6</ele>
        <time>2022-09-02T09:49:40Z</time>
      </trkpt>
      <trkpt lat="47.91661" lon="6.8051">
        <ele>704.6</ele>
        <time>2022-09-02T09:49:41Z</time>
      </trkpt>
      <trkpt lat="47.9166" lon="6.80509">
        <ele>704.5</ele>
        <time>2022-09-02T09:49:43Z</time>
      </trkpt>
      <trkpt lat="47.91659" lon="6.80508">
        <ele>704.5</ele>
        <time>2022-09-02T09:49:44Z</time>
      </trkpt>
      <trkpt lat="47.91658" lon="6.80508">
        <ele>704.5</ele>
        <time>2022-09-02T09:49:45Z</time>
      </trkpt>
      <trkpt lat="47.91657" lon="6.80507">
        <ele>704.5</ele>
        <time>2022-09-02T09:49:46Z</time>
      </trkpt>
      <trkpt lat="47.91656" lon="6.80507">
        <ele>704.5</ele>
        <time>2022-09-02T09:49:47Z</time>
      </trkpt>
      <trkpt lat="47.91655" lon="6.80506">
        <ele>704.4</ele>
        <time>2022-09-02T09:49:48Z</time>
      </trkpt>
      <trkpt lat="47.91654" lon="6.80506">
        <ele>704.5</ele>
        <time>2022-09-02T09:49:49Z</time>
      </trkpt>
      <trkpt lat="47.91653" lon="6.80505">
        <ele>704.4</ele>
        <time>2022-09-02T09:49:50Z</time>
      </trkpt>
      <trkpt lat="47.91652" lon="6.80505">
        <ele>704.4</ele>
        <time>2022-09-02T09:49:51Z</time>
      </trkpt>
      <trkpt lat="47.9165" lon="6.80504">
        <ele>704.4</ele>
        <time>2022-09-02T09:49:52Z</time>
      </trkpt>
      <trkpt lat="47.91649" lon="6.80504">
        <ele>704.4</ele>
        <time>2022-09-02T09:49:53Z</time>
      </trkpt>
      <trkpt lat="47.91648" lon="6.80504">
        <ele>704.5</ele>
        <time>2022-09-02T09:49:54Z</time>
      </trkpt>
      <trkpt lat="47.91647" lon="6.80504">
        <ele>704.5</ele>
        <time>2022-09-02T09:49:55Z</time>
      </trkpt>
      <trkpt lat="47.91646" lon="6.80503">
        <ele>704.4</ele>
        <time>2022-09-02T09:49:56Z</time>
      </trkpt>
      <trkpt lat="47.91644" lon="6.80503">
        <ele>704.5</ele>
        <time>2022-09-02T09:49:57Z</time>
      </trkpt>
      <trkpt lat="47.91643" lon="6.80503">
        <ele>704.5</ele>
        <time>2022-09-02T09:49:58Z</time>
      </trkpt>
      <trkpt lat="47.91642" lon="6.80503">
        <ele>704.6</ele>
        <time>2022-09-02T09:49:59Z</time>
      </trkpt>
      <trkpt lat="47.91641" lon="6.80503">
        <ele>704.6</ele>
        <time>2022-09-02T09:50:00Z</time>
      </trkpt>
      <trkpt lat="47.9164" lon="6.80503">
        <ele>704.7</ele>
        <time>2022-09-02T09:50:01Z</time>
      </trkpt>
      <trkpt lat="47.91639" lon="6.80503">
        <ele>704.8</ele>
        <time>2022-09-02T09:50:02Z</time>
      </trkpt>
      <trkpt lat="47.91638" lon="6.80502">
        <ele>704.5</ele>
        <time>2022-09-02T09:50:03Z</time>
      </trkpt>
      <trkpt lat="47.91637" lon="6.80502">
        <ele>704.5</ele>
        <time>2022-09-02T09:50:04Z</time>
      </trkpt>
      <trkpt lat="47.91636" lon="6.80502">
        <ele>704.4</ele>
        <time>2022-09-02T09:50:05Z</time>
      </trkpt>
      <trkpt lat="47.91635" lon="6.80502">
        <ele>704.4</ele>
        <time>2022-09-02T09:50:06Z</time>
      </trkpt>
      <trkpt lat="47.91634" lon="6.80502">
        <ele>704.4</ele>
        <time>2022-09-02T09:50:07Z</time>
      </trkpt>
      <trkpt lat="47.91632" lon="6.80501">
        <ele>704</ele>
        <time>2022-09-02T09:50:08Z</time>
      </trkpt>
      <trkpt lat="47.91631" lon="6.80501">
        <ele>704</ele>
        <time>2022-09-02T09:50:09Z</time>
      </trkpt>
      <trkpt lat="47.9163" lon="6.80501">
        <ele>704</ele>
        <time>2022-09-02T09:50:10Z</time>
      </trkpt>
      <trkpt lat="47.91629" lon="6.80501">
        <ele>703.9</ele>
        <time>2022-09-02T09:50:11Z</time>
      </trkpt>
      <trkpt lat="47.91628" lon="6.80501">
        <ele>703.9</ele>
        <time>2022-09-02T09:50:12Z</time>
      </trkpt>
      <trkpt lat="47.91627" lon="6.80501">
        <ele>703.9</ele>
        <time>2022-09-02T09:50:13Z</time>
      </trkpt>
      <trkpt lat="47.91626" lon="6.80501">
        <ele>703.9</ele>
        <time>2022-09-02T09:50:14Z</time>
      </trkpt>
      <trkpt lat="47.91625" lon="6.80501">
        <ele>703.8</ele>
        <time>2022-09-02T09:50:15Z</time>
      </trkpt>
      <trkpt lat="47.91624" lon="6.80501">
        <ele>703.8</ele>
        <time>2022-09-02T09:50:16Z</time>
      </trkpt>
      <trkpt lat="47.91623" lon="6.80502">
        <ele>704.1</ele>
        <time>2022-09-02T09:50:17Z</time>
      </trkpt>
      <trkpt lat="47.91622" lon="6.80503">
        <ele>704.4</ele>
        <time>2022-09-02T09:50:19Z</time>
      </trkpt>
      <trkpt lat="47.91621" lon="6.80503">
        <ele>704.4</ele>
        <time>2022-09-02T09:50:20Z</time>
      </trkpt>
      <trkpt lat="47.9162" lon="6.80503">
        <ele>704.4</ele>
        <time>2022-09-02T09:50:21Z</time>
      </trkpt>
      <trkpt lat="47.91619" lon="6.80504">
        <ele>704.7</ele>
        <time>2022-09-02T09:50:22Z</time>
      </trkpt>
      <trkpt lat="47.91618" lon="6.80504">
        <ele>704.7</ele>
        <time>2022-09-02T09:50:23Z</time>
      </trkpt>
      <trkpt lat="47.91617" lon="6.80504">
        <ele>704.7</ele>
        <time>2022-09-02T09:50:24Z</time>
      </trkpt>
      <trkpt lat="47.91616" lon="6.80504">
        <ele>704.7</ele>
        <time>2022-09-02T09:50:26Z</time>
      </trkpt>
      <trkpt lat="47.91615" lon="6.80504">
        <ele>704.6</ele>
        <time>2022-09-02T09:50:27Z</time>
      </trkpt>
      <trkpt lat="47.91614" lon="6.80504">
        <ele>704.6</ele>
        <time>2022-09-02T09:50:28Z</time>
      </trkpt>
      <trkpt lat="47.91613" lon="6.80504">
        <ele>704.6</ele>
        <time>2022-09-02T09:50:29Z</time>
      </trkpt>
      <trkpt lat="47.91612" lon="6.80503">
        <ele>704.2</ele>
        <time>2022-09-02T09:50:30Z</time>
      </trkpt>
      <trkpt lat="47.91611" lon="6.80503">
        <ele>704.2</ele>
        <time>2022-09-02T09:50:31Z</time>
      </trkpt>
      <trkpt lat="47.91609" lon="6.80503">
        <ele>704.2</ele>
        <time>2022-09-02T09:50:32Z</time>
      </trkpt>
      <trkpt lat="47.91608" lon="6.80503">
        <ele>704.2</ele>
        <time>2022-09-02T09:50:33Z</time>
      </trkpt>
      <trkpt lat="47.91607" lon="6.80503">
        <ele>704.3</ele>
        <time>2022-09-02T09:50:34Z</time>
      </trkpt>
      <trkpt lat="47.91606" lon="6.80503">
        <ele>704.3</ele>
        <time>2022-09-02T09:50:35Z</time>
      </trkpt>
      <trkpt lat="47.91604" lon="6.80503">
        <ele>704.3</ele>
        <time>2022-09-02T09:50:36Z</time>
      </trkpt>
      <trkpt lat="47.91603" lon="6.80504">
        <ele>704.7</ele>
        <time>2022-09-02T09:50:37Z</time>
      </trkpt>
      <trkpt lat="47.91602" lon="6.80504">
        <ele>704.7</ele>
        <time>2022-09-02T09:50:38Z</time>
      </trkpt>
      <trkpt lat="47.916" lon="6.80504">
        <ele>704.7</ele>
        <time>2022-09-02T09:50:39Z</time>
      </trkpt>
      <trkpt lat="47.91599" lon="6.80504">
        <ele>704.7</ele>
        <time>2022-09-02T09:50:40Z</time>
      </trkpt>
      <trkpt lat="47.91598" lon="6.80505">
        <ele>705</ele>
        <time>2022-09-02T09:50:41Z</time>
      </trkpt>
      <trkpt lat="47.91597" lon="6.80505">
        <ele>705</ele>
        <time>2022-09-02T09:50:42Z</time>
      </trkpt>
      <trkpt lat="47.91595" lon="6.80505">
        <ele>705</ele>
        <time>2022-09-02T09:50:43Z</time>
      </trkpt>
      <trkpt lat="47.91594" lon="6.80505">
        <ele>705</ele>
        <time>2022-09-02T09:50:44Z</time>
      </trkpt>
      <trkpt lat="47.91593" lon="6.80506">
        <ele>705.3</ele>
        <time>2022-09-02T09:50:45Z</time>
      </trkpt>
      <trkpt lat="47.91592" lon="6.80506">
        <ele>705.3</ele>
        <time>2022-09-02T09:50:46Z</time>
      </trkpt>
      <trkpt lat="47.91591" lon="6.80506">
        <ele>705.3</ele>
        <time>2022-09-02T09:50:47Z</time>
      </trkpt>
      <trkpt lat="47.91589" lon="6.80506">
        <ele>705.3</ele>
        <time>2022-09-02T09:50:48Z</time>
      </trkpt>
      <trkpt lat="47.91588" lon="6.80506">
        <ele>705.3</ele>
        <time>2022-09-02T09:50:49Z</time>
      </trkpt>
      <trkpt lat="47.91587" lon="6.80507">
        <ele>705.5</ele>
        <time>2022-09-02T09:50:50Z</time>
      </trkpt>
      <trkpt lat="47.91586" lon="6.80507">
        <ele>705.5</ele>
        <time>2022-09-02T09:50:51Z</time>
      </trkpt>
      <trkpt lat="47.91585" lon="6.80507">
        <ele>705.5</ele>
        <time>2022-09-02T09:50:52Z</time>
      </trkpt>
      <trkpt lat="47.91584" lon="6.80507">
        <ele>705.5</ele>
        <time>2022-09-02T09:50:53Z</time>
      </trkpt>
      <trkpt lat="47.91583" lon="6.80507">
        <ele>705.5</ele>
        <time>2022-09-02T09:50:54Z</time>
      </trkpt>
      <trkpt lat="47.91582" lon="6.80507">
        <ele>705.4</ele>
        <time>2022-09-02T09:50:55Z</time>
      </trkpt>
      <trkpt lat="47.91581" lon="6.80507">
        <ele>705.3</ele>
        <time>2022-09-02T09:50:56Z</time>
      </trkpt>
      <trkpt lat="47.9158" lon="6.80507">
        <ele>705.2</ele>
        <time>2022-09-02T09:50:58Z</time>
      </trkpt>
      <trkpt lat="47.91579" lon="6.80508">
        <ele>705.3</ele>
        <time>2022-09-02T09:50:59Z</time>
      </trkpt>
      <trkpt lat="47.91578" lon="6.80509">
        <ele>705.4</ele>
        <time>2022-09-02T09:51:00Z</time>
      </trkpt>
      <trkpt lat="47.91577" lon="6.80509">
        <ele>705.3</ele>
        <time>2022-09-02T09:51:04Z</time>
      </trkpt>
      <trkpt lat="47.91577" lon="6.8051">
        <ele>705.5</ele>
        <time>2022-09-02T09:51:05Z</time>
      </trkpt>
      <trkpt lat="47.91576" lon="6.80511">
        <ele>705.6</ele>
        <time>2022-09-02T09:51:07Z</time>
      </trkpt>
      <trkpt lat="47.91575" lon="6.80512">
        <ele>705.6</ele>
        <time>2022-09-02T09:51:08Z</time>
      </trkpt>
      <trkpt lat="47.91574" lon="6.80513">
        <ele>705.7</ele>
        <time>2022-09-02T09:51:10Z</time>
      </trkpt>
      <trkpt lat="47.91573" lon="6.80513">
        <ele>705.6</ele>
        <time>2022-09-02T09:51:11Z</time>
      </trkpt>
      <trkpt lat="47.91572" lon="6.80514">
        <ele>705.6</ele>
        <time>2022-09-02T09:51:12Z</time>
      </trkpt>
      <trkpt lat="47.91571" lon="6.80515">
        <ele>705.6</ele>
        <time>2022-09-02T09:51:13Z</time>
      </trkpt>
      <trkpt lat="47.9157" lon="6.80516">
        <ele>705.6</ele>
        <time>2022-09-02T09:51:14Z</time>
      </trkpt>
      <trkpt lat="47.91569" lon="6.80516">
        <ele>705.5</ele>
        <time>2022-09-02T09:51:15Z</time>
      </trkpt>
      <trkpt lat="47.91568" lon="6.80517">
        <ele>705.4</ele>
        <time>2022-09-02T09:51:16Z</time>
      </trkpt>
      <trkpt lat="47.91567" lon="6.80517">
        <ele>705.3</ele>
        <time>2022-09-02T09:51:17Z</time>
      </trkpt>
      <trkpt lat="47.91566" lon="6.80517">
        <ele>705.1</ele>
        <time>2022-09-02T09:51:18Z</time>
      </trkpt>
      <trkpt lat="47.91565" lon="6.80518">
        <ele>705.1</ele>
        <time>2022-09-02T09:51:19Z</time>
      </trkpt>
      <trkpt lat="47.91563" lon="6.80518">
        <ele>704.8</ele>
        <time>2022-09-02T09:51:20Z</time>
      </trkpt>
      <trkpt lat="47.91562" lon="6.80519">
        <ele>704.7</ele>
        <time>2022-09-02T09:51:21Z</time>
      </trkpt>
      <trkpt lat="47.9156" lon="6.80519">
        <ele>704.4</ele>
        <time>2022-09-02T09:51:22Z</time>
      </trkpt>
      <trkpt lat="47.91559" lon="6.8052">
        <ele>704.3</ele>
        <time>2022-09-02T09:51:23Z</time>
      </trkpt>
      <trkpt lat="47.91558" lon="6.80521">
        <ele>704.2</ele>
        <time>2022-09-02T09:51:24Z</time>
      </trkpt>
      <trkpt lat="47.91556" lon="6.80521">
        <ele>703.8</ele>
        <time>2022-09-02T09:51:25Z</time>
      </trkpt>
      <trkpt lat="47.91555" lon="6.80522">
        <ele>703.7</ele>
        <time>2022-09-02T09:51:26Z</time>
      </trkpt>
      <trkpt lat="47.91554" lon="6.80522">
        <ele>703.7</ele>
        <time>2022-09-02T09:51:27Z</time>
      </trkpt>
      <trkpt lat="47.91552" lon="6.80522">
        <ele>703.5</ele>
        <time>2022-09-02T09:51:34Z</time>
      </trkpt>
      <trkpt lat="47.91551" lon="6.80522">
        <ele>703.4</ele>
        <time>2022-09-02T09:51:35Z</time>
      </trkpt>
      <trkpt lat="47.9155" lon="6.80522">
        <ele>703.3</ele>
        <time>2022-09-02T09:51:36Z</time>
      </trkpt>
      <trkpt lat="47.91549" lon="6.80521">
        <ele>703.2</ele>
        <time>2022-09-02T09:51:37Z</time>
      </trkpt>
      <trkpt lat="47.91549" lon="6.8052">
        <ele>703.2</ele>
        <time>2022-09-02T09:51:38Z</time>
      </trkpt>
      <trkpt lat="47.91548" lon="6.80519">
        <ele>703.1</ele>
        <time>2022-09-02T09:51:39Z</time>
      </trkpt>
      <trkpt lat="47.91547" lon="6.80518">
        <ele>703</ele>
        <time>2022-09-02T09:51:40Z</time>
      </trkpt>
      <trkpt lat="47.91547" lon="6.80517">
        <ele>703</ele>
        <time>2022-09-02T09:51:41Z</time>
      </trkpt>
      <trkpt lat="47.91546" lon="6.80515">
        <ele>703</ele>
        <time>2022-09-02T09:51:42Z</time>
      </trkpt>
      <trkpt lat="47.91545" lon="6.80513">
        <ele>702.9</ele>
        <time>2022-09-02T09:51:43Z</time>
      </trkpt>
      <trkpt lat="47.91545" lon="6.80512">
        <ele>702.9</ele>
        <time>2022-09-02T09:51:44Z</time>
      </trkpt>
      <trkpt lat="47.91544" lon="6.8051">
        <ele>702.9</ele>
        <time>2022-09-02T09:51:45Z</time>
      </trkpt>
      <trkpt lat="47.91544" lon="6.80509">
        <ele>702.9</ele>
        <time>2022-09-02T09:51:46Z</time>
      </trkpt>
      <trkpt lat="47.91543" lon="6.80507">
        <ele>702.9</ele>
        <time>2022-09-02T09:51:47Z</time>
      </trkpt>
      <trkpt lat="47.91543" lon="6.80506">
        <ele>702.9</ele>
        <time>2022-09-02T09:51:48Z</time>
      </trkpt>
      <trkpt lat="47.91542" lon="6.80505">
        <ele>702.9</ele>
        <time>2022-09-02T09:51:49Z</time>
      </trkpt>
      <trkpt lat="47.91541" lon="6.80504">
        <ele>702.9</ele>
        <time>2022-09-02T09:51:50Z</time>
      </trkpt>
      <trkpt lat="47.9154" lon="6.80502">
        <ele>703</ele>
        <time>2022-09-02T09:51:59Z</time>
      </trkpt>
      <trkpt lat="47.9154" lon="6.80501">
        <ele>703</ele>
        <time>2022-09-02T09:52:00Z</time>
      </trkpt>
      <trkpt lat="47.91539" lon="6.80501">
        <ele>703</ele>
        <time>2022-09-02T09:52:01Z</time>
      </trkpt>
      <trkpt lat="47.91539" lon="6.805">
        <ele>703</ele>
        <time>2022-09-02T09:52:02Z</time>
      </trkpt>
      <trkpt lat="47.91538" lon="6.80499">
        <ele>703</ele>
        <time>2022-09-02T09:52:03Z</time>
      </trkpt>
      <trkpt lat="47.91537" lon="6.80498">
        <ele>703</ele>
        <time>2022-09-02T09:52:04Z</time>
      </trkpt>
      <trkpt lat="47.91537" lon="6.80497">
        <ele>702.9</ele>
        <time>2022-09-02T09:52:05Z</time>
      </trkpt>
      <trkpt lat="47.91536" lon="6.80496">
        <ele>702.9</ele>
        <time>2022-09-02T09:52:06Z</time>
      </trkpt>
      <trkpt lat="47.91535" lon="6.80494">
        <ele>702.9</ele>
        <time>2022-09-02T09:52:07Z</time>
      </trkpt>
      <trkpt lat="47.91534" lon="6.80493">
        <ele>702.9</ele>
        <time>2022-09-02T09:52:08Z</time>
      </trkpt>
      <trkpt lat="47.91533" lon="6.80492">
        <ele>702.9</ele>
        <time>2022-09-02T09:52:09Z</time>
      </trkpt>
      <trkpt lat="47.91533" lon="6.80491">
        <ele>702.9</ele>
        <time>2022-09-02T09:52:10Z</time>
      </trkpt>
      <trkpt lat="47.91532" lon="6.80489">
        <ele>702.9</ele>
        <time>2022-09-02T09:52:11Z</time>
      </trkpt>
      <trkpt lat="47.91531" lon="6.80488">
        <ele>702.9</ele>
        <time>2022-09-02T09:52:12Z</time>
      </trkpt>
      <trkpt lat="47.91531" lon="6.80486">
        <ele>702.9</ele>
        <time>2022-09-02T09:52:13Z</time>
      </trkpt>
      <trkpt lat="47.91531" lon="6.80485">
        <ele>702.9</ele>
        <time>2022-09-02T09:52:14Z</time>
      </trkpt>
      <trkpt lat="47.9153" lon="6.80483">
        <ele>702.9</ele>
        <time>2022-09-02T09:52:15Z</time>
      </trkpt>
      <trkpt lat="47.9153" lon="6.80482">
        <ele>702.9</ele>
        <time>2022-09-02T09:52:16Z</time>
      </trkpt>
      <trkpt lat="47.91531" lon="6.8048">
        <ele>702.8</ele>
        <time>2022-09-02T09:52:17Z</time>
      </trkpt>
      <trkpt lat="47.91531" lon="6.80479">
        <ele>702.8</ele>
        <time>2022-09-02T09:52:18Z</time>
      </trkpt>
      <trkpt lat="47.91531" lon="6.80477">
        <ele>702.8</ele>
        <time>2022-09-02T09:52:19Z</time>
      </trkpt>
      <trkpt lat="47.91531" lon="6.80476">
        <ele>702.8</ele>
        <time>2022-09-02T09:52:20Z</time>
      </trkpt>
      <trkpt lat="47.91531" lon="6.80474">
        <ele>702.8</ele>
        <time>2022-09-02T09:52:21Z</time>
      </trkpt>
      <trkpt lat="47.91531" lon="6.80473">
        <ele>702.8</ele>
        <time>2022-09-02T09:52:22Z</time>
      </trkpt>
      <trkpt lat="47.9153" lon="6.80471">
        <ele>702.7</ele>
        <time>2022-09-02T09:52:23Z</time>
      </trkpt>
      <trkpt lat="47.9153" lon="6.8047">
        <ele>702.7</ele>
        <time>2022-09-02T09:52:24Z</time>
      </trkpt>
      <trkpt lat="47.91529" lon="6.80468">
        <ele>702.6</ele>
        <time>2022-09-02T09:52:25Z</time>
      </trkpt>
      <trkpt lat="47.91529" lon="6.80467">
        <ele>702.5</ele>
        <time>2022-09-02T09:52:26Z</time>
      </trkpt>
      <trkpt lat="47.91528" lon="6.80466">
        <ele>702.5</ele>
        <time>2022-09-02T09:52:27Z</time>
      </trkpt>
      <trkpt lat="47.91527" lon="6.80465">
        <ele>702.4</ele>
        <time>2022-09-02T09:52:28Z</time>
      </trkpt>
      <trkpt lat="47.91527" lon="6.80464">
        <ele>702.4</ele>
        <time>2022-09-02T09:52:29Z</time>
      </trkpt>
      <trkpt lat="47.91526" lon="6.80463">
        <ele>702.2</ele>
        <time>2022-09-02T09:52:30Z</time>
      </trkpt>
      <trkpt lat="47.91525" lon="6.80462">
        <ele>702.1</ele>
        <time>2022-09-02T09:52:31Z</time>
      </trkpt>
      <trkpt lat="47.91524" lon="6.80462">
        <ele>702</ele>
        <time>2022-09-02T09:52:32Z</time>
      </trkpt>
      <trkpt lat="47.91523" lon="6.80461">
        <ele>701.8</ele>
        <time>2022-09-02T09:52:33Z</time>
      </trkpt>
      <trkpt lat="47.91522" lon="6.80461">
        <ele>701.8</ele>
        <time>2022-09-02T09:52:34Z</time>
      </trkpt>
      <trkpt lat="47.91521" lon="6.8046">
        <ele>701.6</ele>
        <time>2022-09-02T09:52:35Z</time>
      </trkpt>
      <trkpt lat="47.91519" lon="6.8046">
        <ele>701.5</ele>
        <time>2022-09-02T09:52:36Z</time>
      </trkpt>
      <trkpt lat="47.91518" lon="6.8046">
        <ele>701.4</ele>
        <time>2022-09-02T09:52:37Z</time>
      </trkpt>
      <trkpt lat="47.91517" lon="6.80459">
        <ele>701.3</ele>
        <time>2022-09-02T09:52:38Z</time>
      </trkpt>
      <trkpt lat="47.91516" lon="6.80459">
        <ele>701.2</ele>
        <time>2022-09-02T09:52:39Z</time>
      </trkpt>
      <trkpt lat="47.91515" lon="6.8046">
        <ele>701.2</ele>
        <time>2022-09-02T09:52:40Z</time>
      </trkpt>
      <trkpt lat="47.91514" lon="6.8046">
        <ele>701.1</ele>
        <time>2022-09-02T09:52:41Z</time>
      </trkpt>
      <trkpt lat="47.91513" lon="6.8046">
        <ele>701.1</ele>
        <time>2022-09-02T09:52:42Z</time>
      </trkpt>
      <trkpt lat="47.91512" lon="6.8046">
        <ele>701</ele>
        <time>2022-09-02T09:52:43Z</time>
      </trkpt>
      <trkpt lat="47.91511" lon="6.8046">
        <ele>700.9</ele>
        <time>2022-09-02T09:52:44Z</time>
      </trkpt>
      <trkpt lat="47.9151" lon="6.8046">
        <ele>700.8</ele>
        <time>2022-09-02T09:52:45Z</time>
      </trkpt>
      <trkpt lat="47.91509" lon="6.80459">
        <ele>700.7</ele>
        <time>2022-09-02T09:52:46Z</time>
      </trkpt>
      <trkpt lat="47.91508" lon="6.80459">
        <ele>700.6</ele>
        <time>2022-09-02T09:52:47Z</time>
      </trkpt>
      <trkpt lat="47.91507" lon="6.80458">
        <ele>700.5</ele>
        <time>2022-09-02T09:52:48Z</time>
      </trkpt>
      <trkpt lat="47.91506" lon="6.80457">
        <ele>700.3</ele>
        <time>2022-09-02T09:52:49Z</time>
      </trkpt>
      <trkpt lat="47.91505" lon="6.80457">
        <ele>700.3</ele>
        <time>2022-09-02T09:52:50Z</time>
      </trkpt>
      <trkpt lat="47.91504" lon="6.80457">
        <ele>700.2</ele>
        <time>2022-09-02T09:52:51Z</time>
      </trkpt>
      <trkpt lat="47.91504" lon="6.80456">
        <ele>700.1</ele>
        <time>2022-09-02T09:52:52Z</time>
      </trkpt>
      <trkpt lat="47.91503" lon="6.80456">
        <ele>700</ele>
        <time>2022-09-02T09:52:53Z</time>
      </trkpt>
      <trkpt lat="47.91502" lon="6.80456">
        <ele>700</ele>
        <time>2022-09-02T09:52:54Z</time>
      </trkpt>
      <trkpt lat="47.91501" lon="6.80456">
        <ele>699.9</ele>
        <time>2022-09-02T09:52:55Z</time>
      </trkpt>
      <trkpt lat="47.915" lon="6.80456">
        <ele>699.8</ele>
        <time>2022-09-02T09:52:56Z</time>
      </trkpt>
      <trkpt lat="47.91498" lon="6.80457">
        <ele>699.6</ele>
        <time>2022-09-02T09:52:57Z</time>
      </trkpt>
      <trkpt lat="47.91497" lon="6.80457">
        <ele>699.5</ele>
        <time>2022-09-02T09:52:58Z</time>
      </trkpt>
      <trkpt lat="47.91496" lon="6.80457">
        <ele>699.3</ele>
        <time>2022-09-02T09:52:59Z</time>
      </trkpt>
      <trkpt lat="47.91495" lon="6.80457">
        <ele>699.2</ele>
        <time>2022-09-02T09:53:00Z</time>
      </trkpt>
      <trkpt lat="47.91494" lon="6.80457">
        <ele>699.1</ele>
        <time>2022-09-02T09:53:01Z</time>
      </trkpt>
      <trkpt lat="47.91493" lon="6.80457">
        <ele>698.9</ele>
        <time>2022-09-02T09:53:02Z</time>
      </trkpt>
      <trkpt lat="47.91492" lon="6.80457">
        <ele>698.8</ele>
        <time>2022-09-02T09:53:04Z</time>
      </trkpt>
      <trkpt lat="47.91491" lon="6.80457">
        <ele>698.6</ele>
        <time>2022-09-02T09:53:05Z</time>
      </trkpt>
      <trkpt lat="47.9149" lon="6.80456">
        <ele>698.5</ele>
        <time>2022-09-02T09:53:06Z</time>
      </trkpt>
      <trkpt lat="47.91489" lon="6.80456">
        <ele>698.3</ele>
        <time>2022-09-02T09:53:07Z</time>
      </trkpt>
      <trkpt lat="47.91488" lon="6.80456">
        <ele>698.2</ele>
        <time>2022-09-02T09:53:08Z</time>
      </trkpt>
      <trkpt lat="47.91487" lon="6.80455">
        <ele>698</ele>
        <time>2022-09-02T09:53:09Z</time>
      </trkpt>
      <trkpt lat="47.91486" lon="6.80455">
        <ele>697.9</ele>
        <time>2022-09-02T09:53:10Z</time>
      </trkpt>
      <trkpt lat="47.91486" lon="6.80454">
        <ele>697.8</ele>
        <time>2022-09-02T09:53:11Z</time>
      </trkpt>
      <trkpt lat="47.91485" lon="6.80454">
        <ele>697.7</ele>
        <time>2022-09-02T09:53:12Z</time>
      </trkpt>
      <trkpt lat="47.91484" lon="6.80453">
        <ele>697.5</ele>
        <time>2022-09-02T09:53:13Z</time>
      </trkpt>
      <trkpt lat="47.91483" lon="6.80453">
        <ele>697.4</ele>
        <time>2022-09-02T09:53:14Z</time>
      </trkpt>
      <trkpt lat="47.91482" lon="6.80452">
        <ele>697.2</ele>
        <time>2022-09-02T09:53:15Z</time>
      </trkpt>
      <trkpt lat="47.91482" lon="6.80451">
        <ele>697.2</ele>
        <time>2022-09-02T09:53:16Z</time>
      </trkpt>
      <trkpt lat="47.91481" lon="6.8045">
        <ele>697.1</ele>
        <time>2022-09-02T09:53:17Z</time>
      </trkpt>
      <trkpt lat="47.91481" lon="6.80449">
        <ele>697.1</ele>
        <time>2022-09-02T09:53:18Z</time>
      </trkpt>
      <trkpt lat="47.9148" lon="6.80448">
        <ele>696.9</ele>
        <time>2022-09-02T09:53:19Z</time>
      </trkpt>
      <trkpt lat="47.9148" lon="6.80447">
        <ele>696.9</ele>
        <time>2022-09-02T09:53:20Z</time>
      </trkpt>
      <trkpt lat="47.91479" lon="6.80446">
        <ele>696.8</ele>
        <time>2022-09-02T09:53:21Z</time>
      </trkpt>
      <trkpt lat="47.91479" lon="6.80445">
        <ele>696.7</ele>
        <time>2022-09-02T09:53:22Z</time>
      </trkpt>
      <trkpt lat="47.91478" lon="6.80444">
        <ele>696.6</ele>
        <time>2022-09-02T09:53:23Z</time>
      </trkpt>
      <trkpt lat="47.91478" lon="6.80443">
        <ele>696.5</ele>
        <time>2022-09-02T09:53:24Z</time>
      </trkpt>
      <trkpt lat="47.91477" lon="6.80442">
        <ele>696.4</ele>
        <time>2022-09-02T09:53:25Z</time>
      </trkpt>
      <trkpt lat="47.91477" lon="6.80441">
        <ele>696.3</ele>
        <time>2022-09-02T09:53:26Z</time>
      </trkpt>
      <trkpt lat="47.91476" lon="6.8044">
        <ele>696.2</ele>
        <time>2022-09-02T09:53:27Z</time>
      </trkpt>
      <trkpt lat="47.91476" lon="6.80439">
        <ele>696.1</ele>
        <time>2022-09-02T09:53:28Z</time>
      </trkpt>
      <trkpt lat="47.91475" lon="6.80438">
        <ele>696</ele>
        <time>2022-09-02T09:53:29Z</time>
      </trkpt>
      <trkpt lat="47.91475" lon="6.80437">
        <ele>696</ele>
        <time>2022-09-02T09:53:30Z</time>
      </trkpt>
      <trkpt lat="47.91474" lon="6.80436">
        <ele>695.8</ele>
        <time>2022-09-02T09:53:31Z</time>
      </trkpt>
      <trkpt lat="47.91473" lon="6.80435">
        <ele>695.7</ele>
        <time>2022-09-02T09:53:33Z</time>
      </trkpt>
      <trkpt lat="47.91473" lon="6.80434">
        <ele>695.7</ele>
        <time>2022-09-02T09:53:34Z</time>
      </trkpt>
      <trkpt lat="47.91472" lon="6.80433">
        <ele>695.6</ele>
        <time>2022-09-02T09:53:35Z</time>
      </trkpt>
      <trkpt lat="47.91471" lon="6.80433">
        <ele>695.5</ele>
        <time>2022-09-02T09:53:36Z</time>
      </trkpt>
      <trkpt lat="47.9147" lon="6.80432">
        <ele>695.4</ele>
        <time>2022-09-02T09:53:37Z</time>
      </trkpt>
      <trkpt lat="47.9147" lon="6.80431">
        <ele>695.4</ele>
        <time>2022-09-02T09:53:38Z</time>
      </trkpt>
      <trkpt lat="47.91469" lon="6.80431">
        <ele>695.3</ele>
        <time>2022-09-02T09:53:39Z</time>
      </trkpt>
      <trkpt lat="47.91468" lon="6.8043">
        <ele>695.2</ele>
        <time>2022-09-02T09:53:40Z</time>
      </trkpt>
      <trkpt lat="47.91467" lon="6.80429">
        <ele>695.1</ele>
        <time>2022-09-02T09:53:41Z</time>
      </trkpt>
      <trkpt lat="47.91466" lon="6.80428">
        <ele>695</ele>
        <time>2022-09-02T09:53:42Z</time>
      </trkpt>
      <trkpt lat="47.91465" lon="6.80427">
        <ele>694.9</ele>
        <time>2022-09-02T09:53:43Z</time>
      </trkpt>
      <trkpt lat="47.91464" lon="6.80426">
        <ele>694.8</ele>
        <time>2022-09-02T09:53:44Z</time>
      </trkpt>
      <trkpt lat="47.91463" lon="6.80425">
        <ele>694.8</ele>
        <time>2022-09-02T09:53:45Z</time>
      </trkpt>
      <trkpt lat="47.91462" lon="6.80425">
        <ele>694.7</ele>
        <time>2022-09-02T09:53:46Z</time>
      </trkpt>
      <trkpt lat="47.91461" lon="6.80424">
        <ele>694.6</ele>
        <time>2022-09-02T09:53:47Z</time>
      </trkpt>
      <trkpt lat="47.91461" lon="6.80423">
        <ele>694.6</ele>
        <time>2022-09-02T09:53:48Z</time>
      </trkpt>
      <trkpt lat="47.9146" lon="6.80422">
        <ele>694.6</ele>
        <time>2022-09-02T09:53:49Z</time>
      </trkpt>
      <trkpt lat="47.91459" lon="6.80421">
        <ele>694.5</ele>
        <time>2022-09-02T09:53:50Z</time>
      </trkpt>
      <trkpt lat="47.91458" lon="6.8042">
        <ele>694.5</ele>
        <time>2022-09-02T09:53:51Z</time>
      </trkpt>
      <trkpt lat="47.91457" lon="6.80419">
        <ele>694.4</ele>
        <time>2022-09-02T09:53:52Z</time>
      </trkpt>
      <trkpt lat="47.91456" lon="6.80418">
        <ele>694.4</ele>
        <time>2022-09-02T09:53:53Z</time>
      </trkpt>
      <trkpt lat="47.91456" lon="6.80417">
        <ele>694.4</ele>
        <time>2022-09-02T09:53:54Z</time>
      </trkpt>
      <trkpt lat="47.91455" lon="6.80416">
        <ele>694.4</ele>
        <time>2022-09-02T09:53:55Z</time>
      </trkpt>
      <trkpt lat="47.91454" lon="6.80414">
        <ele>694.4</ele>
        <time>2022-09-02T09:53:56Z</time>
      </trkpt>
      <trkpt lat="47.91453" lon="6.80413">
        <ele>694.4</ele>
        <time>2022-09-02T09:53:57Z</time>
      </trkpt>
      <trkpt lat="47.91453" lon="6.80412">
        <ele>694.4</ele>
        <time>2022-09-02T09:53:58Z</time>
      </trkpt>
      <trkpt lat="47.91452" lon="6.80411">
        <ele>694.5</ele>
        <time>2022-09-02T09:53:59Z</time>
      </trkpt>
      <trkpt lat="47.91451" lon="6.80409">
        <ele>694.5</ele>
        <time>2022-09-02T09:54:00Z</time>
      </trkpt>
      <trkpt lat="47.91451" lon="6.80408">
        <ele>694.6</ele>
        <time>2022-09-02T09:54:01Z</time>
      </trkpt>
      <trkpt lat="47.9145" lon="6.80407">
        <ele>694.6</ele>
        <time>2022-09-02T09:54:02Z</time>
      </trkpt>
      <trkpt lat="47.91449" lon="6.80406">
        <ele>694.7</ele>
        <time>2022-09-02T09:54:03Z</time>
      </trkpt>
      <trkpt lat="47.91448" lon="6.80404">
        <ele>694.8</ele>
        <time>2022-09-02T09:54:09Z</time>
      </trkpt>
      <trkpt lat="47.91447" lon="6.80403">
        <ele>694.9</ele>
        <time>2022-09-02T09:54:11Z</time>
      </trkpt>
      <trkpt lat="47.91446" lon="6.80402">
        <ele>695</ele>
        <time>2022-09-02T09:54:12Z</time>
      </trkpt>
      <trkpt lat="47.91446" lon="6.80401">
        <ele>695.1</ele>
        <time>2022-09-02T09:54:13Z</time>
      </trkpt>
      <trkpt lat="47.91445" lon="6.804">
        <ele>695.2</ele>
        <time>2022-09-02T09:54:14Z</time>
      </trkpt>
      <trkpt lat="47.91444" lon="6.80399">
        <ele>695.2</ele>
        <time>2022-09-02T09:54:25Z</time>
      </trkpt>
      <trkpt lat="47.91443" lon="6.80398">
        <ele>695.2</ele>
        <time>2022-09-02T09:54:27Z</time>
      </trkpt>
      <trkpt lat="47.91442" lon="6.80398">
        <ele>695.1</ele>
        <time>2022-09-02T09:54:29Z</time>
      </trkpt>
      <trkpt lat="47.91441" lon="6.80398">
        <ele>694.9</ele>
        <time>2022-09-02T09:54:30Z</time>
      </trkpt>
      <trkpt lat="47.91441" lon="6.80397">
        <ele>695</ele>
        <time>2022-09-02T09:54:31Z</time>
      </trkpt>
      <trkpt lat="47.91439" lon="6.80397">
        <ele>694.8</ele>
        <time>2022-09-02T09:54:53Z</time>
      </trkpt>
      <trkpt lat="47.91438" lon="6.80397">
        <ele>694.7</ele>
        <time>2022-09-02T09:54:54Z</time>
      </trkpt>
      <trkpt lat="47.91438" lon="6.80396">
        <ele>694.7</ele>
        <time>2022-09-02T09:54:56Z</time>
      </trkpt>
      <trkpt lat="47.91437" lon="6.80396">
        <ele>694.6</ele>
        <time>2022-09-02T09:54:57Z</time>
      </trkpt>
      <trkpt lat="47.91437" lon="6.80394">
        <ele>694.8</ele>
        <time>2022-09-02T09:54:58Z</time>
      </trkpt>
      <trkpt lat="47.91437" lon="6.80393">
        <ele>694.9</ele>
        <time>2022-09-02T09:54:59Z</time>
      </trkpt>
      <trkpt lat="47.91436" lon="6.80392">
        <ele>694.8</ele>
        <time>2022-09-02T09:55:00Z</time>
      </trkpt>
      <trkpt lat="47.91436" lon="6.80391">
        <ele>694.9</ele>
        <time>2022-09-02T09:55:01Z</time>
      </trkpt>
      <trkpt lat="47.91435" lon="6.80389">
        <ele>695</ele>
        <time>2022-09-02T09:55:02Z</time>
      </trkpt>
      <trkpt lat="47.91435" lon="6.80388">
        <ele>694.8</ele>
        <time>2022-09-02T09:55:03Z</time>
      </trkpt>
      <trkpt lat="47.91434" lon="6.80387">
        <ele>694.6</ele>
        <time>2022-09-02T09:55:04Z</time>
      </trkpt>
      <trkpt lat="47.91434" lon="6.80385">
        <ele>694.2</ele>
        <time>2022-09-02T09:55:05Z</time>
      </trkpt>
      <trkpt lat="47.91434" lon="6.80384">
        <ele>694.1</ele>
        <time>2022-09-02T09:55:06Z</time>
      </trkpt>
      <trkpt lat="47.91433" lon="6.80382">
        <ele>693.6</ele>
        <time>2022-09-02T09:55:07Z</time>
      </trkpt>
      <trkpt lat="47.91433" lon="6.80381">
        <ele>693.4</ele>
        <time>2022-09-02T09:55:08Z</time>
      </trkpt>
      <trkpt lat="47.91433" lon="6.8038">
        <ele>693.3</ele>
        <time>2022-09-02T09:55:09Z</time>
      </trkpt>
      <trkpt lat="47.91432" lon="6.80379">
        <ele>693</ele>
        <time>2022-09-02T09:55:10Z</time>
      </trkpt>
      <trkpt lat="47.91432" lon="6.80378">
        <ele>692.8</ele>
        <time>2022-09-02T09:55:11Z</time>
      </trkpt>
      <trkpt lat="47.91431" lon="6.80378">
        <ele>692.6</ele>
        <time>2022-09-02T09:55:12Z</time>
      </trkpt>
      <trkpt lat="47.91431" lon="6.80377">
        <ele>692.4</ele>
        <time>2022-09-02T09:55:13Z</time>
      </trkpt>
      <trkpt lat="47.9143" lon="6.80376">
        <ele>692.1</ele>
        <time>2022-09-02T09:55:14Z</time>
      </trkpt>
      <trkpt lat="47.91429" lon="6.80376">
        <ele>691.9</ele>
        <time>2022-09-02T09:55:15Z</time>
      </trkpt>
      <trkpt lat="47.91428" lon="6.80376">
        <ele>691.7</ele>
        <time>2022-09-02T09:55:17Z</time>
      </trkpt>
      <trkpt lat="47.91426" lon="6.80376">
        <ele>691.4</ele>
        <time>2022-09-02T09:55:34Z</time>
      </trkpt>
      <trkpt lat="47.91425" lon="6.80376">
        <ele>691.2</ele>
        <time>2022-09-02T09:55:35Z</time>
      </trkpt>
      <trkpt lat="47.91424" lon="6.80376">
        <ele>691</ele>
        <time>2022-09-02T09:55:36Z</time>
      </trkpt>
      <trkpt lat="47.91424" lon="6.80377">
        <ele>691.2</ele>
        <time>2022-09-02T09:55:37Z</time>
      </trkpt>
      <trkpt lat="47.91423" lon="6.80377">
        <ele>691.1</ele>
        <time>2022-09-02T09:55:38Z</time>
      </trkpt>
      <trkpt lat="47.91422" lon="6.80377">
        <ele>690.9</ele>
        <time>2022-09-02T09:55:39Z</time>
      </trkpt>
      <trkpt lat="47.91421" lon="6.80378">
        <ele>691</ele>
        <time>2022-09-02T09:55:40Z</time>
      </trkpt>
      <trkpt lat="47.9142" lon="6.80378">
        <ele>690.8</ele>
        <time>2022-09-02T09:55:42Z</time>
      </trkpt>
      <trkpt lat="47.91419" lon="6.80379">
        <ele>690.9</ele>
        <time>2022-09-02T09:55:43Z</time>
      </trkpt>
      <trkpt lat="47.91418" lon="6.80379">
        <ele>690.7</ele>
        <time>2022-09-02T09:55:44Z</time>
      </trkpt>
      <trkpt lat="47.91417" lon="6.8038">
        <ele>690.8</ele>
        <time>2022-09-02T09:55:45Z</time>
      </trkpt>
      <trkpt lat="47.91416" lon="6.8038">
        <ele>690.5</ele>
        <time>2022-09-02T09:55:46Z</time>
      </trkpt>
      <trkpt lat="47.91415" lon="6.80381">
        <ele>690.2</ele>
        <time>2022-09-02T09:55:47Z</time>
      </trkpt>
      <trkpt lat="47.91415" lon="6.80382">
        <ele>690.5</ele>
        <time>2022-09-02T09:55:48Z</time>
      </trkpt>
      <trkpt lat="47.91414" lon="6.80382">
        <ele>690</ele>
        <time>2022-09-02T09:55:49Z</time>
      </trkpt>
      <trkpt lat="47.91413" lon="6.80383">
        <ele>689.8</ele>
        <time>2022-09-02T09:55:50Z</time>
      </trkpt>
      <trkpt lat="47.91413" lon="6.80384">
        <ele>690.1</ele>
        <time>2022-09-02T09:55:51Z</time>
      </trkpt>
      <trkpt lat="47.91412" lon="6.80385">
        <ele>689.9</ele>
        <time>2022-09-02T09:55:52Z</time>
      </trkpt>
      <trkpt lat="47.91411" lon="6.80386">
        <ele>689.6</ele>
        <time>2022-09-02T09:55:53Z</time>
      </trkpt>
      <trkpt lat="47.91411" lon="6.80387">
        <ele>689.9</ele>
        <time>2022-09-02T09:55:54Z</time>
      </trkpt>
      <trkpt lat="47.9141" lon="6.80388">
        <ele>689.7</ele>
        <time>2022-09-02T09:55:55Z</time>
      </trkpt>
      <trkpt lat="47.9141" lon="6.80389">
        <ele>689.9</ele>
        <time>2022-09-02T09:55:56Z</time>
      </trkpt>
      <trkpt lat="47.91409" lon="6.80389">
        <ele>689.4</ele>
        <time>2022-09-02T09:55:57Z</time>
      </trkpt>
      <trkpt lat="47.91409" lon="6.8039">
        <ele>689.3</ele>
        <time>2022-09-02T09:55:58Z</time>
      </trkpt>
      <trkpt lat="47.91408" lon="6.80391">
        <ele>688.7</ele>
        <time>2022-09-02T09:55:59Z</time>
      </trkpt>
      <trkpt lat="47.91407" lon="6.80392">
        <ele>688.2</ele>
        <time>2022-09-02T09:56:00Z</time>
      </trkpt>
      <trkpt lat="47.91406" lon="6.80393">
        <ele>687.6</ele>
        <time>2022-09-02T09:56:02Z</time>
      </trkpt>
      <trkpt lat="47.91406" lon="6.80394">
        <ele>687.5</ele>
        <time>2022-09-02T09:56:03Z</time>
      </trkpt>
      <trkpt lat="47.91406" lon="6.80395">
        <ele>687.4</ele>
        <time>2022-09-02T09:56:04Z</time>
      </trkpt>
      <trkpt lat="47.91406" lon="6.80396">
        <ele>687.3</ele>
        <time>2022-09-02T09:56:05Z</time>
      </trkpt>
      <trkpt lat="47.91405" lon="6.80397">
        <ele>686.8</ele>
        <time>2022-09-02T09:56:06Z</time>
      </trkpt>
      <trkpt lat="47.91406" lon="6.80399">
        <ele>687.1</ele>
        <time>2022-09-02T09:56:07Z</time>
      </trkpt>
      <trkpt lat="47.91406" lon="6.804">
        <ele>687</ele>
        <time>2022-09-02T09:56:08Z</time>
      </trkpt>
      <trkpt lat="47.91406" lon="6.80401">
        <ele>686.9</ele>
        <time>2022-09-02T09:56:09Z</time>
      </trkpt>
      <trkpt lat="47.91407" lon="6.80402">
        <ele>687.2</ele>
        <time>2022-09-02T09:56:10Z</time>
      </trkpt>
      <trkpt lat="47.91407" lon="6.80403">
        <ele>687.1</ele>
        <time>2022-09-02T09:56:11Z</time>
      </trkpt>
      <trkpt lat="47.91408" lon="6.80404">
        <ele>687.5</ele>
        <time>2022-09-02T09:56:12Z</time>
      </trkpt>
      <trkpt lat="47.91408" lon="6.80405">
        <ele>687.4</ele>
        <time>2022-09-02T09:56:13Z</time>
      </trkpt>
      <trkpt lat="47.91408" lon="6.80406">
        <ele>687.3</ele>
        <time>2022-09-02T09:56:14Z</time>
      </trkpt>
      <trkpt lat="47.91409" lon="6.80407">
        <ele>687.6</ele>
        <time>2022-09-02T09:56:15Z</time>
      </trkpt>
      <trkpt lat="47.91409" lon="6.80409">
        <ele>687.4</ele>
        <time>2022-09-02T09:56:16Z</time>
      </trkpt>
      <trkpt lat="47.91409" lon="6.8041">
        <ele>687.3</ele>
        <time>2022-09-02T09:56:17Z</time>
      </trkpt>
      <trkpt lat="47.91409" lon="6.80411">
        <ele>687.2</ele>
        <time>2022-09-02T09:56:18Z</time>
      </trkpt>
      <trkpt lat="47.9141" lon="6.80412">
        <ele>687.6</ele>
        <time>2022-09-02T09:56:19Z</time>
      </trkpt>
      <trkpt lat="47.9141" lon="6.80414">
        <ele>687.4</ele>
        <time>2022-09-02T09:56:20Z</time>
      </trkpt>
      <trkpt lat="47.9141" lon="6.80415">
        <ele>687.3</ele>
        <time>2022-09-02T09:56:21Z</time>
      </trkpt>
      <trkpt lat="47.9141" lon="6.80417">
        <ele>687.1</ele>
        <time>2022-09-02T09:56:22Z</time>
      </trkpt>
      <trkpt lat="47.91411" lon="6.80418">
        <ele>687.3</ele>
        <time>2022-09-02T09:56:23Z</time>
      </trkpt>
      <trkpt lat="47.91411" lon="6.80419">
        <ele>687.1</ele>
        <time>2022-09-02T09:56:24Z</time>
      </trkpt>
      <trkpt lat="47.91411" lon="6.8042">
        <ele>687</ele>
        <time>2022-09-02T09:56:25Z</time>
      </trkpt>
      <trkpt lat="47.91411" lon="6.80421">
        <ele>686.8</ele>
        <time>2022-09-02T09:56:26Z</time>
      </trkpt>
      <trkpt lat="47.91412" lon="6.80422">
        <ele>687.1</ele>
        <time>2022-09-02T09:56:27Z</time>
      </trkpt>
      <trkpt lat="47.91412" lon="6.80424">
        <ele>686.7</ele>
        <time>2022-09-02T09:56:28Z</time>
      </trkpt>
      <trkpt lat="47.91412" lon="6.80425">
        <ele>686.5</ele>
        <time>2022-09-02T09:56:29Z</time>
      </trkpt>
      <trkpt lat="47.91412" lon="6.80427">
        <ele>686.2</ele>
        <time>2022-09-02T09:56:30Z</time>
      </trkpt>
      <trkpt lat="47.91413" lon="6.80428">
        <ele>686.4</ele>
        <time>2022-09-02T09:56:31Z</time>
      </trkpt>
      <trkpt lat="47.91413" lon="6.8043">
        <ele>686.1</ele>
        <time>2022-09-02T09:56:32Z</time>
      </trkpt>
      <trkpt lat="47.91413" lon="6.80431">
        <ele>685.9</ele>
        <time>2022-09-02T09:56:33Z</time>
      </trkpt>
      <trkpt lat="47.91413" lon="6.80433">
        <ele>685.6</ele>
        <time>2022-09-02T09:56:34Z</time>
      </trkpt>
      <trkpt lat="47.91413" lon="6.80434">
        <ele>685.4</ele>
        <time>2022-09-02T09:56:35Z</time>
      </trkpt>
      <trkpt lat="47.91413" lon="6.80436">
        <ele>685</ele>
        <time>2022-09-02T09:56:36Z</time>
      </trkpt>
      <trkpt lat="47.91413" lon="6.80437">
        <ele>684.9</ele>
        <time>2022-09-02T09:56:37Z</time>
      </trkpt>
      <trkpt lat="47.91413" lon="6.80439">
        <ele>684.5</ele>
        <time>2022-09-02T09:56:38Z</time>
      </trkpt>
      <trkpt lat="47.91414" lon="6.8044">
        <ele>684.7</ele>
        <time>2022-09-02T09:56:39Z</time>
      </trkpt>
      <trkpt lat="47.91414" lon="6.80441">
        <ele>684.6</ele>
        <time>2022-09-02T09:56:40Z</time>
      </trkpt>
      <trkpt lat="47.91414" lon="6.80443">
        <ele>684.2</ele>
        <time>2022-09-02T09:56:41Z</time>
      </trkpt>
      <trkpt lat="47.91414" lon="6.80444">
        <ele>684</ele>
        <time>2022-09-02T09:56:42Z</time>
      </trkpt>
      <trkpt lat="47.91414" lon="6.80445">
        <ele>683.9</ele>
        <time>2022-09-02T09:56:43Z</time>
      </trkpt>
      <trkpt lat="47.91414" lon="6.80446">
        <ele>683.8</ele>
        <time>2022-09-02T09:56:44Z</time>
      </trkpt>
      <trkpt lat="47.91414" lon="6.80448">
        <ele>683.7</ele>
        <time>2022-09-02T09:56:45Z</time>
      </trkpt>
      <trkpt lat="47.91414" lon="6.80449">
        <ele>683.6</ele>
        <time>2022-09-02T09:56:46Z</time>
      </trkpt>
      <trkpt lat="47.91414" lon="6.80451">
        <ele>683.4</ele>
        <time>2022-09-02T09:56:47Z</time>
      </trkpt>
      <trkpt lat="47.91414" lon="6.80452">
        <ele>683.4</ele>
        <time>2022-09-02T09:56:48Z</time>
      </trkpt>
      <trkpt lat="47.91414" lon="6.80454">
        <ele>683.2</ele>
        <time>2022-09-02T09:56:49Z</time>
      </trkpt>
      <trkpt lat="47.91414" lon="6.80455">
        <ele>683.1</ele>
        <time>2022-09-02T09:56:50Z</time>
      </trkpt>
      <trkpt lat="47.91413" lon="6.80457">
        <ele>682.6</ele>
        <time>2022-09-02T09:56:51Z</time>
      </trkpt>
      <trkpt lat="47.91413" lon="6.80458">
        <ele>682.5</ele>
        <time>2022-09-02T09:56:52Z</time>
      </trkpt>
      <trkpt lat="47.91412" lon="6.80459">
        <ele>682</ele>
        <time>2022-09-02T09:56:53Z</time>
      </trkpt>
      <trkpt lat="47.91412" lon="6.8046">
        <ele>681.9</ele>
        <time>2022-09-02T09:56:54Z</time>
      </trkpt>
      <trkpt lat="47.91411" lon="6.80461">
        <ele>681.4</ele>
        <time>2022-09-02T09:56:55Z</time>
      </trkpt>
      <trkpt lat="47.9141" lon="6.80462">
        <ele>680.9</ele>
        <time>2022-09-02T09:56:56Z</time>
      </trkpt>
      <trkpt lat="47.91409" lon="6.80462">
        <ele>680.5</ele>
        <time>2022-09-02T09:56:58Z</time>
      </trkpt>
      <trkpt lat="47.91408" lon="6.80462">
        <ele>680.1</ele>
        <time>2022-09-02T09:56:59Z</time>
      </trkpt>
      <trkpt lat="47.91408" lon="6.80461">
        <ele>680.2</ele>
        <time>2022-09-02T09:57:00Z</time>
      </trkpt>
      <trkpt lat="47.91407" lon="6.8046">
        <ele>679.9</ele>
        <time>2022-09-02T09:57:01Z</time>
      </trkpt>
      <trkpt lat="47.91406" lon="6.80459">
        <ele>679.5</ele>
        <time>2022-09-02T09:57:02Z</time>
      </trkpt>
      <trkpt lat="47.91406" lon="6.80458">
        <ele>679.6</ele>
        <time>2022-09-02T09:57:03Z</time>
      </trkpt>
      <trkpt lat="47.91405" lon="6.80456">
        <ele>679.4</ele>
        <time>2022-09-02T09:57:04Z</time>
      </trkpt>
      <trkpt lat="47.91405" lon="6.80455">
        <ele>679.5</ele>
        <time>2022-09-02T09:57:05Z</time>
      </trkpt>
      <trkpt lat="47.91404" lon="6.80454">
        <ele>679.1</ele>
        <time>2022-09-02T09:57:06Z</time>
      </trkpt>
      <trkpt lat="47.91404" lon="6.80453">
        <ele>679.2</ele>
        <time>2022-09-02T09:57:07Z</time>
      </trkpt>
      <trkpt lat="47.91403" lon="6.80452">
        <ele>678.9</ele>
        <time>2022-09-02T09:57:08Z</time>
      </trkpt>
      <trkpt lat="47.91403" lon="6.80451">
        <ele>679</ele>
        <time>2022-09-02T09:57:09Z</time>
      </trkpt>
      <trkpt lat="47.91402" lon="6.8045">
        <ele>678.7</ele>
        <time>2022-09-02T09:57:10Z</time>
      </trkpt>
      <trkpt lat="47.91401" lon="6.80449">
        <ele>678.4</ele>
        <time>2022-09-02T09:57:11Z</time>
      </trkpt>
      <trkpt lat="47.91401" lon="6.80448">
        <ele>678.5</ele>
        <time>2022-09-02T09:57:12Z</time>
      </trkpt>
      <trkpt lat="47.914" lon="6.80447">
        <ele>678.2</ele>
        <time>2022-09-02T09:57:13Z</time>
      </trkpt>
      <trkpt lat="47.91399" lon="6.80446">
        <ele>677.9</ele>
        <time>2022-09-02T09:57:14Z</time>
      </trkpt>
      <trkpt lat="47.91398" lon="6.80446">
        <ele>677.5</ele>
        <time>2022-09-02T09:57:15Z</time>
      </trkpt>
      <trkpt lat="47.91398" lon="6.80445">
        <ele>677.6</ele>
        <time>2022-09-02T09:57:16Z</time>
      </trkpt>
      <trkpt lat="47.91397" lon="6.80444">
        <ele>677.3</ele>
        <time>2022-09-02T09:57:17Z</time>
      </trkpt>
      <trkpt lat="47.91396" lon="6.80443">
        <ele>677</ele>
        <time>2022-09-02T09:57:18Z</time>
      </trkpt>
      <trkpt lat="47.91395" lon="6.80443">
        <ele>676.6</ele>
        <time>2022-09-02T09:57:19Z</time>
      </trkpt>
      <trkpt lat="47.91394" lon="6.80442">
        <ele>676.4</ele>
        <time>2022-09-02T09:57:20Z</time>
      </trkpt>
      <trkpt lat="47.91393" lon="6.80441">
        <ele>676.1</ele>
        <time>2022-09-02T09:57:21Z</time>
      </trkpt>
      <trkpt lat="47.91392" lon="6.8044">
        <ele>675.9</ele>
        <time>2022-09-02T09:57:23Z</time>
      </trkpt>
      <trkpt lat="47.91391" lon="6.80439">
        <ele>675.6</ele>
        <time>2022-09-02T09:57:24Z</time>
      </trkpt>
      <trkpt lat="47.91391" lon="6.80438">
        <ele>675.8</ele>
        <time>2022-09-02T09:57:25Z</time>
      </trkpt>
      <trkpt lat="47.9139" lon="6.80437">
        <ele>675.5</ele>
        <time>2022-09-02T09:57:26Z</time>
      </trkpt>
      <trkpt lat="47.9139" lon="6.80435">
        <ele>675.8</ele>
        <time>2022-09-02T09:57:27Z</time>
      </trkpt>
      <trkpt lat="47.91389" lon="6.80434">
        <ele>675.5</ele>
        <time>2022-09-02T09:57:28Z</time>
      </trkpt>
      <trkpt lat="47.91389" lon="6.80432">
        <ele>675.8</ele>
        <time>2022-09-02T09:57:29Z</time>
      </trkpt>
      <trkpt lat="47.91388" lon="6.80431">
        <ele>675.5</ele>
        <time>2022-09-02T09:57:30Z</time>
      </trkpt>
      <trkpt lat="47.91388" lon="6.8043">
        <ele>675.6</ele>
        <time>2022-09-02T09:57:31Z</time>
      </trkpt>
      <trkpt lat="47.91387" lon="6.8043">
        <ele>675.1</ele>
        <time>2022-09-02T09:57:32Z</time>
      </trkpt>
      <trkpt lat="47.91387" lon="6.80431">
        <ele>674.9</ele>
        <time>2022-09-02T09:57:33Z</time>
      </trkpt>
      <trkpt lat="47.91387" lon="6.80433">
        <ele>674.6</ele>
        <time>2022-09-02T09:57:41Z</time>
      </trkpt>
      <trkpt lat="47.91387" lon="6.80434">
        <ele>674.5</ele>
        <time>2022-09-02T09:57:42Z</time>
      </trkpt>
      <trkpt lat="47.91387" lon="6.80436">
        <ele>674.2</ele>
        <time>2022-09-02T09:57:43Z</time>
      </trkpt>
      <trkpt lat="47.91387" lon="6.80437">
        <ele>674.1</ele>
        <time>2022-09-02T09:57:44Z</time>
      </trkpt>
      <trkpt lat="47.91388" lon="6.80438">
        <ele>674.5</ele>
        <time>2022-09-02T09:57:45Z</time>
      </trkpt>
      <trkpt lat="47.91388" lon="6.80439">
        <ele>674.3</ele>
        <time>2022-09-02T09:57:46Z</time>
      </trkpt>
      <trkpt lat="47.91388" lon="6.8044">
        <ele>674.2</ele>
        <time>2022-09-02T09:57:47Z</time>
      </trkpt>
      <trkpt lat="47.91389" lon="6.80442">
        <ele>674.4</ele>
        <time>2022-09-02T09:57:48Z</time>
      </trkpt>
      <trkpt lat="47.91389" lon="6.80443">
        <ele>674.3</ele>
        <time>2022-09-02T09:57:49Z</time>
      </trkpt>
      <trkpt lat="47.91389" lon="6.80445">
        <ele>674</ele>
        <time>2022-09-02T09:57:50Z</time>
      </trkpt>
      <trkpt lat="47.9139" lon="6.80447">
        <ele>674.2</ele>
        <time>2022-09-02T09:57:51Z</time>
      </trkpt>
      <trkpt lat="47.9139" lon="6.80448">
        <ele>674.1</ele>
        <time>2022-09-02T09:57:52Z</time>
      </trkpt>
      <trkpt lat="47.9139" lon="6.8045">
        <ele>673.8</ele>
        <time>2022-09-02T09:57:53Z</time>
      </trkpt>
      <trkpt lat="47.91389" lon="6.80452">
        <ele>673.2</ele>
        <time>2022-09-02T09:57:54Z</time>
      </trkpt>
      <trkpt lat="47.91389" lon="6.80453">
        <ele>673.1</ele>
        <time>2022-09-02T09:57:55Z</time>
      </trkpt>
      <trkpt lat="47.9139" lon="6.80455">
        <ele>673.3</ele>
        <time>2022-09-02T09:57:56Z</time>
      </trkpt>
      <trkpt lat="47.9139" lon="6.80456">
        <ele>673.2</ele>
        <time>2022-09-02T09:57:57Z</time>
      </trkpt>
      <trkpt lat="47.9139" lon="6.80458">
        <ele>673</ele>
        <time>2022-09-02T09:57:58Z</time>
      </trkpt>
      <trkpt lat="47.9139" lon="6.80459">
        <ele>672.9</ele>
        <time>2022-09-02T09:57:59Z</time>
      </trkpt>
      <trkpt lat="47.91391" lon="6.80461">
        <ele>673.1</ele>
        <time>2022-09-02T09:58:00Z</time>
      </trkpt>
      <trkpt lat="47.91391" lon="6.80462">
        <ele>673</ele>
        <time>2022-09-02T09:58:01Z</time>
      </trkpt>
      <trkpt lat="47.91391" lon="6.80463">
        <ele>672.9</ele>
        <time>2022-09-02T09:58:02Z</time>
      </trkpt>
      <trkpt lat="47.91391" lon="6.80464">
        <ele>672.8</ele>
        <time>2022-09-02T09:58:03Z</time>
      </trkpt>
      <trkpt lat="47.91391" lon="6.80466">
        <ele>672.6</ele>
        <time>2022-09-02T09:58:04Z</time>
      </trkpt>
      <trkpt lat="47.91391" lon="6.80467">
        <ele>672.5</ele>
        <time>2022-09-02T09:58:05Z</time>
      </trkpt>
      <trkpt lat="47.91392" lon="6.80468">
        <ele>672.8</ele>
        <time>2022-09-02T09:58:06Z</time>
      </trkpt>
      <trkpt lat="47.91392" lon="6.8047">
        <ele>672.6</ele>
        <time>2022-09-02T09:58:07Z</time>
      </trkpt>
      <trkpt lat="47.91392" lon="6.80472">
        <ele>672.4</ele>
        <time>2022-09-02T09:58:08Z</time>
      </trkpt>
      <trkpt lat="47.91392" lon="6.80473">
        <ele>672.2</ele>
        <time>2022-09-02T09:58:09Z</time>
      </trkpt>
      <trkpt lat="47.91392" lon="6.80475">
        <ele>671.9</ele>
        <time>2022-09-02T09:58:10Z</time>
      </trkpt>
      <trkpt lat="47.91392" lon="6.80476">
        <ele>671.8</ele>
        <time>2022-09-02T09:58:11Z</time>
      </trkpt>
      <trkpt lat="47.91393" lon="6.80478">
        <ele>671.9</ele>
        <time>2022-09-02T09:58:12Z</time>
      </trkpt>
      <trkpt lat="47.91393" lon="6.8048">
        <ele>671.7</ele>
        <time>2022-09-02T09:58:13Z</time>
      </trkpt>
      <trkpt lat="47.91393" lon="6.80482">
        <ele>671.4</ele>
        <time>2022-09-02T09:58:14Z</time>
      </trkpt>
      <trkpt lat="47.91393" lon="6.80484">
        <ele>671.1</ele>
        <time>2022-09-02T09:58:15Z</time>
      </trkpt>
      <trkpt lat="47.91394" lon="6.80485">
        <ele>671.4</ele>
        <time>2022-09-02T09:58:16Z</time>
      </trkpt>
      <trkpt lat="47.91394" lon="6.80487">
        <ele>671.1</ele>
        <time>2022-09-02T09:58:17Z</time>
      </trkpt>
      <trkpt lat="47.91394" lon="6.80488">
        <ele>670.9</ele>
        <time>2022-09-02T09:58:18Z</time>
      </trkpt>
      <trkpt lat="47.91394" lon="6.80489">
        <ele>670.8</ele>
        <time>2022-09-02T09:58:19Z</time>
      </trkpt>
      <trkpt lat="47.91395" lon="6.8049">
        <ele>671.1</ele>
        <time>2022-09-02T09:58:20Z</time>
      </trkpt>
      <trkpt lat="47.91395" lon="6.80491">
        <ele>670.9</ele>
        <time>2022-09-02T09:58:21Z</time>
      </trkpt>
      <trkpt lat="47.91396" lon="6.80493">
        <ele>671.1</ele>
        <time>2022-09-02T09:58:22Z</time>
      </trkpt>
      <trkpt lat="47.91396" lon="6.80494">
        <ele>670.9</ele>
        <time>2022-09-02T09:58:23Z</time>
      </trkpt>
      <trkpt lat="47.91396" lon="6.80495">
        <ele>670.8</ele>
        <time>2022-09-02T09:58:24Z</time>
      </trkpt>
      <trkpt lat="47.91396" lon="6.80496">
        <ele>670.6</ele>
        <time>2022-09-02T09:58:25Z</time>
      </trkpt>
      <trkpt lat="47.91397" lon="6.80497">
        <ele>670.9</ele>
        <time>2022-09-02T09:58:26Z</time>
      </trkpt>
      <trkpt lat="47.91397" lon="6.80498">
        <ele>670.8</ele>
        <time>2022-09-02T09:58:27Z</time>
      </trkpt>
      <trkpt lat="47.91396" lon="6.80499">
        <ele>670.2</ele>
        <time>2022-09-02T09:58:28Z</time>
      </trkpt>
      <trkpt lat="47.91396" lon="6.805">
        <ele>670.1</ele>
        <time>2022-09-02T09:58:29Z</time>
      </trkpt>
      <trkpt lat="47.91395" lon="6.80501">
        <ele>669.6</ele>
        <time>2022-09-02T09:58:30Z</time>
      </trkpt>
      <trkpt lat="47.91394" lon="6.80501">
        <ele>669.1</ele>
        <time>2022-09-02T09:58:31Z</time>
      </trkpt>
      <trkpt lat="47.91393" lon="6.80501">
        <ele>668.7</ele>
        <time>2022-09-02T09:58:33Z</time>
      </trkpt>
      <trkpt lat="47.91392" lon="6.805">
        <ele>668.3</ele>
        <time>2022-09-02T09:58:34Z</time>
      </trkpt>
      <trkpt lat="47.91391" lon="6.80499">
        <ele>668.1</ele>
        <time>2022-09-02T09:58:35Z</time>
      </trkpt>
      <trkpt lat="47.91391" lon="6.80497">
        <ele>668.3</ele>
        <time>2022-09-02T09:58:36Z</time>
      </trkpt>
      <trkpt lat="47.9139" lon="6.80496">
        <ele>668.1</ele>
        <time>2022-09-02T09:58:37Z</time>
      </trkpt>
      <trkpt lat="47.91389" lon="6.80495">
        <ele>667.8</ele>
        <time>2022-09-02T09:58:38Z</time>
      </trkpt>
      <trkpt lat="47.91389" lon="6.80494">
        <ele>667.9</ele>
        <time>2022-09-02T09:58:39Z</time>
      </trkpt>
      <trkpt lat="47.91388" lon="6.80492">
        <ele>667.8</ele>
        <time>2022-09-02T09:58:40Z</time>
      </trkpt>
      <trkpt lat="47.91388" lon="6.80491">
        <ele>667.9</ele>
        <time>2022-09-02T09:58:41Z</time>
      </trkpt>
      <trkpt lat="47.91387" lon="6.80489">
        <ele>667.7</ele>
        <time>2022-09-02T09:58:42Z</time>
      </trkpt>
      <trkpt lat="47.91387" lon="6.80488">
        <ele>667.9</ele>
        <time>2022-09-02T09:58:43Z</time>
      </trkpt>
      <trkpt lat="47.91387" lon="6.80487">
        <ele>668</ele>
        <time>2022-09-02T09:58:44Z</time>
      </trkpt>
      <trkpt lat="47.91386" lon="6.80485">
        <ele>667.9</ele>
        <time>2022-09-02T09:58:45Z</time>
      </trkpt>
      <trkpt lat="47.91386" lon="6.80484">
        <ele>668</ele>
        <time>2022-09-02T09:58:46Z</time>
      </trkpt>
      <trkpt lat="47.91385" lon="6.80482">
        <ele>667.8</ele>
        <time>2022-09-02T09:58:47Z</time>
      </trkpt>
      <trkpt lat="47.91385" lon="6.80481">
        <ele>668</ele>
        <time>2022-09-02T09:58:48Z</time>
      </trkpt>
      <trkpt lat="47.91384" lon="6.80479">
        <ele>667.8</ele>
        <time>2022-09-02T09:58:49Z</time>
      </trkpt>
      <trkpt lat="47.91383" lon="6.80478">
        <ele>667.5</ele>
        <time>2022-09-02T09:58:50Z</time>
      </trkpt>
      <trkpt lat="47.91382" lon="6.80476">
        <ele>667.3</ele>
        <time>2022-09-02T09:58:51Z</time>
      </trkpt>
      <trkpt lat="47.91382" lon="6.80475">
        <ele>667.4</ele>
        <time>2022-09-02T09:58:52Z</time>
      </trkpt>
      <trkpt lat="47.91381" lon="6.80473">
        <ele>667.2</ele>
        <time>2022-09-02T09:58:53Z</time>
      </trkpt>
      <trkpt lat="47.9138" lon="6.80472">
        <ele>666.9</ele>
        <time>2022-09-02T09:58:54Z</time>
      </trkpt>
      <trkpt lat="47.9138" lon="6.80471">
        <ele>667</ele>
        <time>2022-09-02T09:58:55Z</time>
      </trkpt>
      <trkpt lat="47.91379" lon="6.8047">
        <ele>666.6</ele>
        <time>2022-09-02T09:58:56Z</time>
      </trkpt>
      <trkpt lat="47.91378" lon="6.80468">
        <ele>666.3</ele>
        <time>2022-09-02T09:58:57Z</time>
      </trkpt>
      <trkpt lat="47.91377" lon="6.80467">
        <ele>665.9</ele>
        <time>2022-09-02T09:58:58Z</time>
      </trkpt>
      <trkpt lat="47.91376" lon="6.80466">
        <ele>665.5</ele>
        <time>2022-09-02T09:58:59Z</time>
      </trkpt>
      <trkpt lat="47.91375" lon="6.80465">
        <ele>665.2</ele>
        <time>2022-09-02T09:59:00Z</time>
      </trkpt>
      <trkpt lat="47.91374" lon="6.80464">
        <ele>664.8</ele>
        <time>2022-09-02T09:59:01Z</time>
      </trkpt>
      <trkpt lat="47.91374" lon="6.80463">
        <ele>664.9</ele>
        <time>2022-09-02T09:59:02Z</time>
      </trkpt>
      <trkpt lat="47.91373" lon="6.80463">
        <ele>664.4</ele>
        <time>2022-09-02T09:59:03Z</time>
      </trkpt>
      <trkpt lat="47.91372" lon="6.80462">
        <ele>664</ele>
        <time>2022-09-02T09:59:04Z</time>
      </trkpt>
      <trkpt lat="47.91372" lon="6.80461">
        <ele>664.1</ele>
        <time>2022-09-02T09:59:05Z</time>
      </trkpt>
      <trkpt lat="47.91371" lon="6.8046">
        <ele>663.7</ele>
        <time>2022-09-02T09:59:06Z</time>
      </trkpt>
      <trkpt lat="47.91371" lon="6.80459">
        <ele>663.7</ele>
        <time>2022-09-02T09:59:07Z</time>
      </trkpt>
      <trkpt lat="47.9137" lon="6.80457">
        <ele>663.4</ele>
        <time>2022-09-02T09:59:08Z</time>
      </trkpt>
      <trkpt lat="47.9137" lon="6.80456">
        <ele>663.5</ele>
        <time>2022-09-02T09:59:09Z</time>
      </trkpt>
      <trkpt lat="47.91369" lon="6.80454">
        <ele>663.2</ele>
        <time>2022-09-02T09:59:10Z</time>
      </trkpt>
      <trkpt lat="47.91369" lon="6.80452">
        <ele>663.4</ele>
        <time>2022-09-02T09:59:11Z</time>
      </trkpt>
      <trkpt lat="47.91368" lon="6.80451">
        <ele>662.9</ele>
        <time>2022-09-02T09:59:12Z</time>
      </trkpt>
      <trkpt lat="47.91367" lon="6.80449">
        <ele>662.6</ele>
        <time>2022-09-02T09:59:13Z</time>
      </trkpt>
      <trkpt lat="47.91367" lon="6.80448">
        <ele>662.7</ele>
        <time>2022-09-02T09:59:14Z</time>
      </trkpt>
      <trkpt lat="47.91366" lon="6.80446">
        <ele>662.3</ele>
        <time>2022-09-02T09:59:15Z</time>
      </trkpt>
      <trkpt lat="47.91366" lon="6.80444">
        <ele>662.5</ele>
        <time>2022-09-02T09:59:16Z</time>
      </trkpt>
      <trkpt lat="47.91365" lon="6.80442">
        <ele>662.2</ele>
        <time>2022-09-02T09:59:17Z</time>
      </trkpt>
      <trkpt lat="47.91364" lon="6.80441">
        <ele>661.7</ele>
        <time>2022-09-02T09:59:18Z</time>
      </trkpt>
      <trkpt lat="47.91364" lon="6.80439">
        <ele>661.9</ele>
        <time>2022-09-02T09:59:19Z</time>
      </trkpt>
      <trkpt lat="47.91363" lon="6.80437">
        <ele>661.5</ele>
        <time>2022-09-02T09:59:20Z</time>
      </trkpt>
      <trkpt lat="47.91363" lon="6.80435">
        <ele>661.7</ele>
        <time>2022-09-02T09:59:21Z</time>
      </trkpt>
      <trkpt lat="47.91362" lon="6.80433">
        <ele>661.3</ele>
        <time>2022-09-02T09:59:22Z</time>
      </trkpt>
      <trkpt lat="47.91362" lon="6.80432">
        <ele>661.4</ele>
        <time>2022-09-02T09:59:23Z</time>
      </trkpt>
      <trkpt lat="47.91361" lon="6.8043">
        <ele>661</ele>
        <time>2022-09-02T09:59:24Z</time>
      </trkpt>
      <trkpt lat="47.91361" lon="6.80428">
        <ele>661.1</ele>
        <time>2022-09-02T09:59:25Z</time>
      </trkpt>
      <trkpt lat="47.9136" lon="6.80427">
        <ele>660.6</ele>
        <time>2022-09-02T09:59:26Z</time>
      </trkpt>
      <trkpt lat="47.9136" lon="6.80425">
        <ele>660.8</ele>
        <time>2022-09-02T09:59:27Z</time>
      </trkpt>
      <trkpt lat="47.9136" lon="6.80424">
        <ele>660.9</ele>
        <time>2022-09-02T09:59:28Z</time>
      </trkpt>
      <trkpt lat="47.91359" lon="6.80422">
        <ele>660.4</ele>
        <time>2022-09-02T09:59:29Z</time>
      </trkpt>
      <trkpt lat="47.91359" lon="6.80421">
        <ele>660.5</ele>
        <time>2022-09-02T09:59:30Z</time>
      </trkpt>
      <trkpt lat="47.91359" lon="6.80419">
        <ele>660.6</ele>
        <time>2022-09-02T09:59:31Z</time>
      </trkpt>
      <trkpt lat="47.91359" lon="6.80418">
        <ele>660.7</ele>
        <time>2022-09-02T09:59:32Z</time>
      </trkpt>
      <trkpt lat="47.91359" lon="6.80416">
        <ele>660.8</ele>
        <time>2022-09-02T09:59:33Z</time>
      </trkpt>
      <trkpt lat="47.91358" lon="6.80414">
        <ele>660.2</ele>
        <time>2022-09-02T09:59:34Z</time>
      </trkpt>
      <trkpt lat="47.91358" lon="6.80413">
        <ele>660.2</ele>
        <time>2022-09-02T09:59:35Z</time>
      </trkpt>
      <trkpt lat="47.91358" lon="6.80411">
        <ele>660.2</ele>
        <time>2022-09-02T09:59:36Z</time>
      </trkpt>
      <trkpt lat="47.91358" lon="6.80409">
        <ele>660.2</ele>
        <time>2022-09-02T09:59:37Z</time>
      </trkpt>
      <trkpt lat="47.91358" lon="6.80408">
        <ele>660.2</ele>
        <time>2022-09-02T09:59:38Z</time>
      </trkpt>
      <trkpt lat="47.91357" lon="6.80406">
        <ele>659.6</ele>
        <time>2022-09-02T09:59:39Z</time>
      </trkpt>
      <trkpt lat="47.91357" lon="6.80405">
        <ele>659.6</ele>
        <time>2022-09-02T09:59:40Z</time>
      </trkpt>
      <trkpt lat="47.91357" lon="6.80404">
        <ele>659.6</ele>
        <time>2022-09-02T09:59:41Z</time>
      </trkpt>
      <trkpt lat="47.91357" lon="6.80402">
        <ele>659.6</ele>
        <time>2022-09-02T09:59:42Z</time>
      </trkpt>
      <trkpt lat="47.91356" lon="6.80401">
        <ele>659</ele>
        <time>2022-09-02T09:59:43Z</time>
      </trkpt>
      <trkpt lat="47.91356" lon="6.80399">
        <ele>658.9</ele>
        <time>2022-09-02T09:59:44Z</time>
      </trkpt>
      <trkpt lat="47.91356" lon="6.80398">
        <ele>658.9</ele>
        <time>2022-09-02T09:59:45Z</time>
      </trkpt>
      <trkpt lat="47.91356" lon="6.80396">
        <ele>658.9</ele>
        <time>2022-09-02T09:59:46Z</time>
      </trkpt>
      <trkpt lat="47.91356" lon="6.80395">
        <ele>658.9</ele>
        <time>2022-09-02T09:59:47Z</time>
      </trkpt>
      <trkpt lat="47.91356" lon="6.80393">
        <ele>658.9</ele>
        <time>2022-09-02T09:59:48Z</time>
      </trkpt>
      <trkpt lat="47.91356" lon="6.80391">
        <ele>658.9</ele>
        <time>2022-09-02T09:59:49Z</time>
      </trkpt>
      <trkpt lat="47.91356" lon="6.80389">
        <ele>658.9</ele>
        <time>2022-09-02T09:59:50Z</time>
      </trkpt>
      <trkpt lat="47.91356" lon="6.80388">
        <ele>658.8</ele>
        <time>2022-09-02T09:59:51Z</time>
      </trkpt>
      <trkpt lat="47.91356" lon="6.80386">
        <ele>658.6</ele>
        <time>2022-09-02T09:59:52Z</time>
      </trkpt>
      <trkpt lat="47.91356" lon="6.80384">
        <ele>658.4</ele>
        <time>2022-09-02T09:59:53Z</time>
      </trkpt>
      <trkpt lat="47.91356" lon="6.80382">
        <ele>658.2</ele>
        <time>2022-09-02T09:59:54Z</time>
      </trkpt>
      <trkpt lat="47.91356" lon="6.8038">
        <ele>658</ele>
        <time>2022-09-02T09:59:55Z</time>
      </trkpt>
      <trkpt lat="47.91356" lon="6.80379">
        <ele>657.9</ele>
        <time>2022-09-02T09:59:56Z</time>
      </trkpt>
      <trkpt lat="47.91356" lon="6.80377">
        <ele>657.7</ele>
        <time>2022-09-02T09:59:57Z</time>
      </trkpt>
      <trkpt lat="47.91357" lon="6.80376">
        <ele>658.2</ele>
        <time>2022-09-02T09:59:58Z</time>
      </trkpt>
      <trkpt lat="47.91356" lon="6.80375">
        <ele>657.6</ele>
        <time>2022-09-02T09:59:59Z</time>
      </trkpt>
      <trkpt lat="47.91356" lon="6.80373">
        <ele>657.4</ele>
        <time>2022-09-02T10:00:00Z</time>
      </trkpt>
      <trkpt lat="47.91356" lon="6.80372">
        <ele>657.3</ele>
        <time>2022-09-02T10:00:01Z</time>
      </trkpt>
      <trkpt lat="47.91356" lon="6.80371">
        <ele>657.2</ele>
        <time>2022-09-02T10:00:02Z</time>
      </trkpt>
      <trkpt lat="47.91356" lon="6.80369">
        <ele>657</ele>
        <time>2022-09-02T10:00:03Z</time>
      </trkpt>
      <trkpt lat="47.91356" lon="6.80368">
        <ele>656.9</ele>
        <time>2022-09-02T10:00:04Z</time>
      </trkpt>
      <trkpt lat="47.91355" lon="6.80367">
        <ele>656.2</ele>
        <time>2022-09-02T10:00:05Z</time>
      </trkpt>
      <trkpt lat="47.91355" lon="6.80365">
        <ele>656.1</ele>
        <time>2022-09-02T10:00:06Z</time>
      </trkpt>
      <trkpt lat="47.91355" lon="6.80364">
        <ele>656</ele>
        <time>2022-09-02T10:00:07Z</time>
      </trkpt>
      <trkpt lat="47.91355" lon="6.80363">
        <ele>655.9</ele>
        <time>2022-09-02T10:00:08Z</time>
      </trkpt>
      <trkpt lat="47.91355" lon="6.80361">
        <ele>655.7</ele>
        <time>2022-09-02T10:00:09Z</time>
      </trkpt>
      <trkpt lat="47.91355" lon="6.8036">
        <ele>655.5</ele>
        <time>2022-09-02T10:00:10Z</time>
      </trkpt>
      <trkpt lat="47.91355" lon="6.80359">
        <ele>655.3</ele>
        <time>2022-09-02T10:00:11Z</time>
      </trkpt>
      <trkpt lat="47.91355" lon="6.80358">
        <ele>655.2</ele>
        <time>2022-09-02T10:00:12Z</time>
      </trkpt>
      <trkpt lat="47.91355" lon="6.80357">
        <ele>655</ele>
        <time>2022-09-02T10:00:13Z</time>
      </trkpt>
      <trkpt lat="47.91355" lon="6.80356">
        <ele>654.8</ele>
        <time>2022-09-02T10:00:14Z</time>
      </trkpt>
      <trkpt lat="47.91354" lon="6.80355">
        <ele>654.1</ele>
        <time>2022-09-02T10:00:15Z</time>
      </trkpt>
      <trkpt lat="47.91354" lon="6.80354">
        <ele>653.9</ele>
        <time>2022-09-02T10:00:16Z</time>
      </trkpt>
      <trkpt lat="47.91354" lon="6.80352">
        <ele>653.6</ele>
        <time>2022-09-02T10:00:17Z</time>
      </trkpt>
      <trkpt lat="47.91353" lon="6.80351">
        <ele>652.9</ele>
        <time>2022-09-02T10:00:18Z</time>
      </trkpt>
      <trkpt lat="47.91353" lon="6.8035">
        <ele>652.7</ele>
        <time>2022-09-02T10:00:19Z</time>
      </trkpt>
      <trkpt lat="47.91353" lon="6.80348">
        <ele>652.4</ele>
        <time>2022-09-02T10:00:20Z</time>
      </trkpt>
      <trkpt lat="47.91353" lon="6.80347">
        <ele>652.2</ele>
        <time>2022-09-02T10:00:21Z</time>
      </trkpt>
      <trkpt lat="47.91353" lon="6.80345">
        <ele>651.9</ele>
        <time>2022-09-02T10:00:22Z</time>
      </trkpt>
      <trkpt lat="47.91354" lon="6.80343">
        <ele>652.1</ele>
        <time>2022-09-02T10:00:23Z</time>
      </trkpt>
      <trkpt lat="47.91354" lon="6.80341">
        <ele>651.7</ele>
        <time>2022-09-02T10:00:24Z</time>
      </trkpt>
      <trkpt lat="47.91354" lon="6.80338">
        <ele>651.2</ele>
        <time>2022-09-02T10:00:25Z</time>
      </trkpt>
      <trkpt lat="47.91354" lon="6.80336">
        <ele>650.9</ele>
        <time>2022-09-02T10:00:26Z</time>
      </trkpt>
      <trkpt lat="47.91354" lon="6.80335">
        <ele>650.7</ele>
        <time>2022-09-02T10:00:27Z</time>
      </trkpt>
      <trkpt lat="47.91354" lon="6.80333">
        <ele>650.3</ele>
        <time>2022-09-02T10:00:28Z</time>
      </trkpt>
      <trkpt lat="47.91354" lon="6.80332">
        <ele>650</ele>
        <time>2022-09-02T10:00:29Z</time>
      </trkpt>
      <trkpt lat="47.91354" lon="6.8033">
        <ele>649.5</ele>
        <time>2022-09-02T10:00:30Z</time>
      </trkpt>
      <trkpt lat="47.91354" lon="6.80329">
        <ele>649.2</ele>
        <time>2022-09-02T10:00:31Z</time>
      </trkpt>
      <trkpt lat="47.91354" lon="6.80328">
        <ele>648.9</ele>
        <time>2022-09-02T10:00:32Z</time>
      </trkpt>
      <trkpt lat="47.91355" lon="6.80327">
        <ele>649.1</ele>
        <time>2022-09-02T10:00:33Z</time>
      </trkpt>
      <trkpt lat="47.91355" lon="6.80325">
        <ele>648.6</ele>
        <time>2022-09-02T10:00:34Z</time>
      </trkpt>
      <trkpt lat="47.91355" lon="6.80324">
        <ele>648.3</ele>
        <time>2022-09-02T10:00:35Z</time>
      </trkpt>
      <trkpt lat="47.91356" lon="6.80323">
        <ele>648.5</ele>
        <time>2022-09-02T10:00:36Z</time>
      </trkpt>
      <trkpt lat="47.91356" lon="6.80322">
        <ele>648.2</ele>
        <time>2022-09-02T10:00:37Z</time>
      </trkpt>
      <trkpt lat="47.91357" lon="6.80321">
        <ele>648.4</ele>
        <time>2022-09-02T10:00:38Z</time>
      </trkpt>
      <trkpt lat="47.91357" lon="6.8032">
        <ele>648.2</ele>
        <time>2022-09-02T10:00:39Z</time>
      </trkpt>
      <trkpt lat="47.91358" lon="6.8032">
        <ele>648.6</ele>
        <time>2022-09-02T10:00:40Z</time>
      </trkpt>
      <trkpt lat="47.91358" lon="6.80319">
        <ele>648.4</ele>
        <time>2022-09-02T10:00:41Z</time>
      </trkpt>
      <trkpt lat="47.91359" lon="6.80318">
        <ele>648.6</ele>
        <time>2022-09-02T10:00:42Z</time>
      </trkpt>
      <trkpt lat="47.91359" lon="6.80317">
        <ele>648.3</ele>
        <time>2022-09-02T10:00:43Z</time>
      </trkpt>
      <trkpt lat="47.91359" lon="6.80316">
        <ele>648</ele>
        <time>2022-09-02T10:00:44Z</time>
      </trkpt>
      <trkpt lat="47.91359" lon="6.80315">
        <ele>647.7</ele>
        <time>2022-09-02T10:00:45Z</time>
      </trkpt>
      <trkpt lat="47.9136" lon="6.80314">
        <ele>647.9</ele>
        <time>2022-09-02T10:00:46Z</time>
      </trkpt>
      <trkpt lat="47.9136" lon="6.80313">
        <ele>647.6</ele>
        <time>2022-09-02T10:00:47Z</time>
      </trkpt>
      <trkpt lat="47.9136" lon="6.80312">
        <ele>647.3</ele>
        <time>2022-09-02T10:00:48Z</time>
      </trkpt>
      <trkpt lat="47.91361" lon="6.80311">
        <ele>647.5</ele>
        <time>2022-09-02T10:00:49Z</time>
      </trkpt>
      <trkpt lat="47.91361" lon="6.8031">
        <ele>647.2</ele>
        <time>2022-09-02T10:00:50Z</time>
      </trkpt>
      <trkpt lat="47.91362" lon="6.80309">
        <ele>647.3</ele>
        <time>2022-09-02T10:00:51Z</time>
      </trkpt>
      <trkpt lat="47.91362" lon="6.80308">
        <ele>647</ele>
        <time>2022-09-02T10:00:52Z</time>
      </trkpt>
      <trkpt lat="47.91363" lon="6.80307">
        <ele>647</ele>
        <time>2022-09-02T10:00:53Z</time>
      </trkpt>
      <trkpt lat="47.91363" lon="6.80306">
        <ele>646.7</ele>
        <time>2022-09-02T10:00:54Z</time>
      </trkpt>
      <trkpt lat="47.91364" lon="6.80305">
        <ele>646.8</ele>
        <time>2022-09-02T10:00:55Z</time>
      </trkpt>
      <trkpt lat="47.91365" lon="6.80304">
        <ele>646.8</ele>
        <time>2022-09-02T10:00:56Z</time>
      </trkpt>
      <trkpt lat="47.91365" lon="6.80303">
        <ele>646.6</ele>
        <time>2022-09-02T10:00:57Z</time>
      </trkpt>
      <trkpt lat="47.91366" lon="6.80302">
        <ele>646.6</ele>
        <time>2022-09-02T10:00:58Z</time>
      </trkpt>
      <trkpt lat="47.91367" lon="6.80301">
        <ele>646.6</ele>
        <time>2022-09-02T10:00:59Z</time>
      </trkpt>
      <trkpt lat="47.91367" lon="6.803">
        <ele>646.3</ele>
        <time>2022-09-02T10:01:00Z</time>
      </trkpt>
      <trkpt lat="47.91368" lon="6.80299">
        <ele>646.3</ele>
        <time>2022-09-02T10:01:01Z</time>
      </trkpt>
      <trkpt lat="47.91368" lon="6.80298">
        <ele>646</ele>
        <time>2022-09-02T10:01:02Z</time>
      </trkpt>
      <trkpt lat="47.91368" lon="6.80296">
        <ele>645.4</ele>
        <time>2022-09-02T10:01:03Z</time>
      </trkpt>
      <trkpt lat="47.91368" lon="6.80295">
        <ele>645.1</ele>
        <time>2022-09-02T10:01:04Z</time>
      </trkpt>
      <trkpt lat="47.91368" lon="6.80294">
        <ele>644.8</ele>
        <time>2022-09-02T10:01:05Z</time>
      </trkpt>
      <trkpt lat="47.91368" lon="6.80293">
        <ele>644.5</ele>
        <time>2022-09-02T10:01:06Z</time>
      </trkpt>
      <trkpt lat="47.91368" lon="6.80292">
        <ele>644.2</ele>
        <time>2022-09-02T10:01:07Z</time>
      </trkpt>
      <trkpt lat="47.91368" lon="6.80291">
        <ele>643.9</ele>
        <time>2022-09-02T10:01:08Z</time>
      </trkpt>
      <trkpt lat="47.91367" lon="6.8029">
        <ele>643.4</ele>
        <time>2022-09-02T10:01:09Z</time>
      </trkpt>
      <trkpt lat="47.91366" lon="6.80291">
        <ele>643.5</ele>
        <time>2022-09-02T10:01:16Z</time>
      </trkpt>
      <trkpt lat="47.91365" lon="6.80292">
        <ele>643.5</ele>
        <time>2022-09-02T10:01:17Z</time>
      </trkpt>
      <trkpt lat="47.91364" lon="6.80293">
        <ele>643.5</ele>
        <time>2022-09-02T10:01:18Z</time>
      </trkpt>
      <trkpt lat="47.91363" lon="6.80294">
        <ele>643.6</ele>
        <time>2022-09-02T10:01:19Z</time>
      </trkpt>
      <trkpt lat="47.91363" lon="6.80295">
        <ele>643.8</ele>
        <time>2022-09-02T10:01:20Z</time>
      </trkpt>
      <trkpt lat="47.91362" lon="6.80296">
        <ele>643.8</ele>
        <time>2022-09-02T10:01:21Z</time>
      </trkpt>
      <trkpt lat="47.91361" lon="6.80297">
        <ele>643.8</ele>
        <time>2022-09-02T10:01:23Z</time>
      </trkpt>
      <trkpt lat="47.9136" lon="6.80297">
        <ele>643.3</ele>
        <time>2022-09-02T10:01:24Z</time>
      </trkpt>
      <trkpt lat="47.91359" lon="6.80298">
        <ele>643.1</ele>
        <time>2022-09-02T10:01:25Z</time>
      </trkpt>
      <trkpt lat="47.91358" lon="6.80298">
        <ele>642.6</ele>
        <time>2022-09-02T10:01:26Z</time>
      </trkpt>
      <trkpt lat="47.91357" lon="6.80298">
        <ele>642.2</ele>
        <time>2022-09-02T10:01:27Z</time>
      </trkpt>
      <trkpt lat="47.91357" lon="6.80299">
        <ele>642.4</ele>
        <time>2022-09-02T10:01:28Z</time>
      </trkpt>
      <trkpt lat="47.91356" lon="6.803">
        <ele>642.2</ele>
        <time>2022-09-02T10:01:29Z</time>
      </trkpt>
      <trkpt lat="47.91355" lon="6.803">
        <ele>641.7</ele>
        <time>2022-09-02T10:01:30Z</time>
      </trkpt>
      <trkpt lat="47.91354" lon="6.80301">
        <ele>641.5</ele>
        <time>2022-09-02T10:01:31Z</time>
      </trkpt>
      <trkpt lat="47.91354" lon="6.80302">
        <ele>641.8</ele>
        <time>2022-09-02T10:01:32Z</time>
      </trkpt>
      <trkpt lat="47.91353" lon="6.80303">
        <ele>641.6</ele>
        <time>2022-09-02T10:01:33Z</time>
      </trkpt>
      <trkpt lat="47.91352" lon="6.80304">
        <ele>641.3</ele>
        <time>2022-09-02T10:01:34Z</time>
      </trkpt>
      <trkpt lat="47.91352" lon="6.80305">
        <ele>641.6</ele>
        <time>2022-09-02T10:01:35Z</time>
      </trkpt>
      <trkpt lat="47.91351" lon="6.80306">
        <ele>641.4</ele>
        <time>2022-09-02T10:01:36Z</time>
      </trkpt>
      <trkpt lat="47.9135" lon="6.80307">
        <ele>641.2</ele>
        <time>2022-09-02T10:01:37Z</time>
      </trkpt>
      <trkpt lat="47.9135" lon="6.80309">
        <ele>641.7</ele>
        <time>2022-09-02T10:01:38Z</time>
      </trkpt>
      <trkpt lat="47.91349" lon="6.8031">
        <ele>641.5</ele>
        <time>2022-09-02T10:01:39Z</time>
      </trkpt>
      <trkpt lat="47.91349" lon="6.80312">
        <ele>642.1</ele>
        <time>2022-09-02T10:01:40Z</time>
      </trkpt>
      <trkpt lat="47.91348" lon="6.80313">
        <ele>641.9</ele>
        <time>2022-09-02T10:01:41Z</time>
      </trkpt>
      <trkpt lat="47.91347" lon="6.80314">
        <ele>641.7</ele>
        <time>2022-09-02T10:01:42Z</time>
      </trkpt>
      <trkpt lat="47.91347" lon="6.80315">
        <ele>641.9</ele>
        <time>2022-09-02T10:01:43Z</time>
      </trkpt>
      <trkpt lat="47.91346" lon="6.80317">
        <ele>642</ele>
        <time>2022-09-02T10:01:44Z</time>
      </trkpt>
      <trkpt lat="47.91346" lon="6.80318">
        <ele>642.3</ele>
        <time>2022-09-02T10:01:45Z</time>
      </trkpt>
      <trkpt lat="47.91345" lon="6.80319">
        <ele>642.1</ele>
        <time>2022-09-02T10:01:46Z</time>
      </trkpt>
      <trkpt lat="47.91344" lon="6.8032">
        <ele>641.8</ele>
        <time>2022-09-02T10:01:47Z</time>
      </trkpt>
      <trkpt lat="47.91343" lon="6.80321">
        <ele>641.6</ele>
        <time>2022-09-02T10:01:48Z</time>
      </trkpt>
      <trkpt lat="47.91342" lon="6.80322">
        <ele>641.4</ele>
        <time>2022-09-02T10:01:49Z</time>
      </trkpt>
      <trkpt lat="47.91342" lon="6.80323">
        <ele>641.6</ele>
        <time>2022-09-02T10:01:50Z</time>
      </trkpt>
      <trkpt lat="47.91341" lon="6.80324">
        <ele>641.4</ele>
        <time>2022-09-02T10:01:51Z</time>
      </trkpt>
      <trkpt lat="47.9134" lon="6.80325">
        <ele>641.2</ele>
        <time>2022-09-02T10:01:52Z</time>
      </trkpt>
      <trkpt lat="47.91339" lon="6.80327">
        <ele>641.2</ele>
        <time>2022-09-02T10:01:53Z</time>
      </trkpt>
      <trkpt lat="47.91338" lon="6.80328">
        <ele>641</ele>
        <time>2022-09-02T10:01:54Z</time>
      </trkpt>
      <trkpt lat="47.91337" lon="6.80329">
        <ele>640.7</ele>
        <time>2022-09-02T10:01:55Z</time>
      </trkpt>
      <trkpt lat="47.91336" lon="6.8033">
        <ele>640.5</ele>
        <time>2022-09-02T10:01:57Z</time>
      </trkpt>
      <trkpt lat="47.91335" lon="6.80331">
        <ele>640.2</ele>
        <time>2022-09-02T10:01:58Z</time>
      </trkpt>
      <trkpt lat="47.91335" lon="6.80332">
        <ele>640.5</ele>
        <time>2022-09-02T10:01:59Z</time>
      </trkpt>
      <trkpt lat="47.91334" lon="6.80333">
        <ele>640.3</ele>
        <time>2022-09-02T10:02:00Z</time>
      </trkpt>
      <trkpt lat="47.91333" lon="6.80334">
        <ele>639.9</ele>
        <time>2022-09-02T10:02:01Z</time>
      </trkpt>
      <trkpt lat="47.91333" lon="6.80335">
        <ele>640.1</ele>
        <time>2022-09-02T10:02:02Z</time>
      </trkpt>
      <trkpt lat="47.91332" lon="6.80336">
        <ele>639.7</ele>
        <time>2022-09-02T10:02:03Z</time>
      </trkpt>
      <trkpt lat="47.91331" lon="6.80336">
        <ele>639.2</ele>
        <time>2022-09-02T10:02:04Z</time>
      </trkpt>
      <trkpt lat="47.9133" lon="6.80337">
        <ele>638.8</ele>
        <time>2022-09-02T10:02:05Z</time>
      </trkpt>
      <trkpt lat="47.91329" lon="6.80338">
        <ele>638.4</ele>
        <time>2022-09-02T10:02:07Z</time>
      </trkpt>
      <trkpt lat="47.91328" lon="6.80338">
        <ele>637.9</ele>
        <time>2022-09-02T10:02:08Z</time>
      </trkpt>
      <trkpt lat="47.91328" lon="6.80339">
        <ele>638</ele>
        <time>2022-09-02T10:02:09Z</time>
      </trkpt>
      <trkpt lat="47.91327" lon="6.80339">
        <ele>637.5</ele>
        <time>2022-09-02T10:02:10Z</time>
      </trkpt>
      <trkpt lat="47.91327" lon="6.8034">
        <ele>637.6</ele>
        <time>2022-09-02T10:02:11Z</time>
      </trkpt>
      <trkpt lat="47.91326" lon="6.80341">
        <ele>637.2</ele>
        <time>2022-09-02T10:02:12Z</time>
      </trkpt>
      <trkpt lat="47.91326" lon="6.80342">
        <ele>637.3</ele>
        <time>2022-09-02T10:02:13Z</time>
      </trkpt>
      <trkpt lat="47.91326" lon="6.80343">
        <ele>637.4</ele>
        <time>2022-09-02T10:02:14Z</time>
      </trkpt>
      <trkpt lat="47.91325" lon="6.80344">
        <ele>637</ele>
        <time>2022-09-02T10:02:15Z</time>
      </trkpt>
      <trkpt lat="47.91325" lon="6.80345">
        <ele>637.1</ele>
        <time>2022-09-02T10:02:16Z</time>
      </trkpt>
      <trkpt lat="47.91324" lon="6.80346">
        <ele>636.7</ele>
        <time>2022-09-02T10:02:25Z</time>
      </trkpt>
      <trkpt lat="47.91323" lon="6.80345">
        <ele>636</ele>
        <time>2022-09-02T10:02:27Z</time>
      </trkpt>
      <trkpt lat="47.91323" lon="6.80344">
        <ele>635.9</ele>
        <time>2022-09-02T10:02:28Z</time>
      </trkpt>
      <trkpt lat="47.91323" lon="6.80343">
        <ele>635.8</ele>
        <time>2022-09-02T10:02:29Z</time>
      </trkpt>
      <trkpt lat="47.91323" lon="6.80342">
        <ele>635.7</ele>
        <time>2022-09-02T10:02:30Z</time>
      </trkpt>
      <trkpt lat="47.91323" lon="6.80341">
        <ele>635.6</ele>
        <time>2022-09-02T10:02:31Z</time>
      </trkpt>
      <trkpt lat="47.91323" lon="6.8034">
        <ele>635.5</ele>
        <time>2022-09-02T10:02:32Z</time>
      </trkpt>
      <trkpt lat="47.91323" lon="6.80339">
        <ele>635.4</ele>
        <time>2022-09-02T10:02:33Z</time>
      </trkpt>
      <trkpt lat="47.91324" lon="6.80337">
        <ele>635.7</ele>
        <time>2022-09-02T10:02:34Z</time>
      </trkpt>
      <trkpt lat="47.91324" lon="6.80336">
        <ele>635.6</ele>
        <time>2022-09-02T10:02:35Z</time>
      </trkpt>
      <trkpt lat="47.91324" lon="6.80335">
        <ele>635.5</ele>
        <time>2022-09-02T10:02:36Z</time>
      </trkpt>
      <trkpt lat="47.91324" lon="6.80334">
        <ele>635.4</ele>
        <time>2022-09-02T10:02:37Z</time>
      </trkpt>
      <trkpt lat="47.91325" lon="6.80333">
        <ele>635.7</ele>
        <time>2022-09-02T10:02:38Z</time>
      </trkpt>
      <trkpt lat="47.91325" lon="6.80332">
        <ele>635.5</ele>
        <time>2022-09-02T10:02:39Z</time>
      </trkpt>
      <trkpt lat="47.91325" lon="6.8033">
        <ele>635.1</ele>
        <time>2022-09-02T10:02:40Z</time>
      </trkpt>
      <trkpt lat="47.91326" lon="6.80329">
        <ele>635.3</ele>
        <time>2022-09-02T10:02:41Z</time>
      </trkpt>
      <trkpt lat="47.91326" lon="6.80327">
        <ele>634.9</ele>
        <time>2022-09-02T10:02:42Z</time>
      </trkpt>
      <trkpt lat="47.91326" lon="6.80326">
        <ele>634.7</ele>
        <time>2022-09-02T10:02:43Z</time>
      </trkpt>
      <trkpt lat="47.91326" lon="6.80324">
        <ele>634.2</ele>
        <time>2022-09-02T10:02:44Z</time>
      </trkpt>
      <trkpt lat="47.91326" lon="6.80322">
        <ele>633.8</ele>
        <time>2022-09-02T10:02:45Z</time>
      </trkpt>
      <trkpt lat="47.91327" lon="6.80321">
        <ele>634</ele>
        <time>2022-09-02T10:02:46Z</time>
      </trkpt>
      <trkpt lat="47.91327" lon="6.80319">
        <ele>633.5</ele>
        <time>2022-09-02T10:02:47Z</time>
      </trkpt>
      <trkpt lat="47.91327" lon="6.80317">
        <ele>633.1</ele>
        <time>2022-09-02T10:02:48Z</time>
      </trkpt>
      <trkpt lat="47.91327" lon="6.80316">
        <ele>632.9</ele>
        <time>2022-09-02T10:02:49Z</time>
      </trkpt>
      <trkpt lat="47.91327" lon="6.80314">
        <ele>632.4</ele>
        <time>2022-09-02T10:02:50Z</time>
      </trkpt>
      <trkpt lat="47.91327" lon="6.80312">
        <ele>632</ele>
        <time>2022-09-02T10:02:51Z</time>
      </trkpt>
      <trkpt lat="47.91327" lon="6.80311">
        <ele>631.7</ele>
        <time>2022-09-02T10:02:52Z</time>
      </trkpt>
      <trkpt lat="47.91327" lon="6.80309">
        <ele>631.3</ele>
        <time>2022-09-02T10:02:53Z</time>
      </trkpt>
      <trkpt lat="47.91327" lon="6.80308">
        <ele>631</ele>
        <time>2022-09-02T10:02:54Z</time>
      </trkpt>
      <trkpt lat="47.91327" lon="6.80306">
        <ele>630.6</ele>
        <time>2022-09-02T10:02:55Z</time>
      </trkpt>
      <trkpt lat="47.91327" lon="6.80305">
        <ele>630.4</ele>
        <time>2022-09-02T10:02:56Z</time>
      </trkpt>
      <trkpt lat="47.91327" lon="6.80303">
        <ele>629.9</ele>
        <time>2022-09-02T10:02:57Z</time>
      </trkpt>
      <trkpt lat="47.91328" lon="6.80302">
        <ele>630</ele>
        <time>2022-09-02T10:02:58Z</time>
      </trkpt>
      <trkpt lat="47.91328" lon="6.803">
        <ele>629.6</ele>
        <time>2022-09-02T10:02:59Z</time>
      </trkpt>
      <trkpt lat="47.91328" lon="6.80299">
        <ele>629.3</ele>
        <time>2022-09-02T10:03:00Z</time>
      </trkpt>
      <trkpt lat="47.91329" lon="6.80298">
        <ele>629.5</ele>
        <time>2022-09-02T10:03:01Z</time>
      </trkpt>
      <trkpt lat="47.91329" lon="6.80297">
        <ele>629.2</ele>
        <time>2022-09-02T10:03:02Z</time>
      </trkpt>
      <trkpt lat="47.9133" lon="6.80296">
        <ele>629.4</ele>
        <time>2022-09-02T10:03:03Z</time>
      </trkpt>
      <trkpt lat="47.9133" lon="6.80295">
        <ele>629.1</ele>
        <time>2022-09-02T10:03:04Z</time>
      </trkpt>
      <trkpt lat="47.91331" lon="6.80294">
        <ele>629.2</ele>
        <time>2022-09-02T10:03:05Z</time>
      </trkpt>
      <trkpt lat="47.91331" lon="6.80292">
        <ele>628.7</ele>
        <time>2022-09-02T10:03:11Z</time>
      </trkpt>
      <trkpt lat="47.91332" lon="6.80292">
        <ele>629.1</ele>
        <time>2022-09-02T10:03:12Z</time>
      </trkpt>
      <trkpt lat="47.91332" lon="6.80291">
        <ele>628.9</ele>
        <time>2022-09-02T10:03:13Z</time>
      </trkpt>
      <trkpt lat="47.91332" lon="6.8029">
        <ele>628.6</ele>
        <time>2022-09-02T10:03:14Z</time>
      </trkpt>
      <trkpt lat="47.91333" lon="6.80289">
        <ele>628.7</ele>
        <time>2022-09-02T10:03:15Z</time>
      </trkpt>
      <trkpt lat="47.91334" lon="6.80288">
        <ele>628.9</ele>
        <time>2022-09-02T10:03:16Z</time>
      </trkpt>
      <trkpt lat="47.91334" lon="6.80287">
        <ele>628.6</ele>
        <time>2022-09-02T10:03:17Z</time>
      </trkpt>
      <trkpt lat="47.91335" lon="6.80285">
        <ele>628.6</ele>
        <time>2022-09-02T10:03:18Z</time>
      </trkpt>
      <trkpt lat="47.91336" lon="6.80283">
        <ele>628.6</ele>
        <time>2022-09-02T10:03:19Z</time>
      </trkpt>
      <trkpt lat="47.91336" lon="6.80282">
        <ele>628.3</ele>
        <time>2022-09-02T10:03:20Z</time>
      </trkpt>
      <trkpt lat="47.91337" lon="6.8028">
        <ele>628.3</ele>
        <time>2022-09-02T10:03:21Z</time>
      </trkpt>
      <trkpt lat="47.91337" lon="6.80279">
        <ele>628</ele>
        <time>2022-09-02T10:03:22Z</time>
      </trkpt>
      <trkpt lat="47.91338" lon="6.80277">
        <ele>628</ele>
        <time>2022-09-02T10:03:23Z</time>
      </trkpt>
      <trkpt lat="47.91338" lon="6.80276">
        <ele>627.7</ele>
        <time>2022-09-02T10:03:24Z</time>
      </trkpt>
      <trkpt lat="47.91339" lon="6.80275">
        <ele>627.9</ele>
        <time>2022-09-02T10:03:25Z</time>
      </trkpt>
      <trkpt lat="47.9134" lon="6.80274">
        <ele>628.1</ele>
        <time>2022-09-02T10:03:26Z</time>
      </trkpt>
      <trkpt lat="47.9134" lon="6.80272">
        <ele>627.5</ele>
        <time>2022-09-02T10:03:27Z</time>
      </trkpt>
      <trkpt lat="47.91341" lon="6.80271">
        <ele>627.7</ele>
        <time>2022-09-02T10:03:28Z</time>
      </trkpt>
      <trkpt lat="47.91341" lon="6.80269">
        <ele>627.1</ele>
        <time>2022-09-02T10:03:29Z</time>
      </trkpt>
      <trkpt lat="47.91341" lon="6.80268">
        <ele>626.8</ele>
        <time>2022-09-02T10:03:30Z</time>
      </trkpt>
      <trkpt lat="47.91342" lon="6.80268">
        <ele>627.2</ele>
        <time>2022-09-02T10:03:31Z</time>
      </trkpt>
      <trkpt lat="47.91342" lon="6.80266">
        <ele>626.6</ele>
        <time>2022-09-02T10:03:32Z</time>
      </trkpt>
      <trkpt lat="47.91343" lon="6.80265">
        <ele>626.6</ele>
        <time>2022-09-02T10:03:33Z</time>
      </trkpt>
      <trkpt lat="47.91343" lon="6.80264">
        <ele>626.3</ele>
        <time>2022-09-02T10:03:34Z</time>
      </trkpt>
      <trkpt lat="47.91344" lon="6.80263">
        <ele>626.4</ele>
        <time>2022-09-02T10:03:35Z</time>
      </trkpt>
      <trkpt lat="47.91344" lon="6.80262">
        <ele>626.1</ele>
        <time>2022-09-02T10:03:36Z</time>
      </trkpt>
      <trkpt lat="47.91345" lon="6.80261">
        <ele>626.1</ele>
        <time>2022-09-02T10:03:37Z</time>
      </trkpt>
      <trkpt lat="47.91346" lon="6.8026">
        <ele>626</ele>
        <time>2022-09-02T10:03:38Z</time>
      </trkpt>
      <trkpt lat="47.91346" lon="6.80259">
        <ele>625.7</ele>
        <time>2022-09-02T10:03:39Z</time>
      </trkpt>
      <trkpt lat="47.91347" lon="6.80259">
        <ele>626</ele>
        <time>2022-09-02T10:03:40Z</time>
      </trkpt>
      <trkpt lat="47.91348" lon="6.80258">
        <ele>626</ele>
        <time>2022-09-02T10:03:41Z</time>
      </trkpt>
      <trkpt lat="47.91349" lon="6.80257">
        <ele>625.9</ele>
        <time>2022-09-02T10:03:42Z</time>
      </trkpt>
      <trkpt lat="47.9135" lon="6.80256">
        <ele>625.8</ele>
        <time>2022-09-02T10:03:43Z</time>
      </trkpt>
      <trkpt lat="47.91351" lon="6.80255">
        <ele>625.7</ele>
        <time>2022-09-02T10:03:44Z</time>
      </trkpt>
      <trkpt lat="47.91352" lon="6.80254">
        <ele>625.6</ele>
        <time>2022-09-02T10:03:45Z</time>
      </trkpt>
      <trkpt lat="47.91353" lon="6.80252">
        <ele>625</ele>
        <time>2022-09-02T10:03:46Z</time>
      </trkpt>
      <trkpt lat="47.91353" lon="6.80251">
        <ele>624.6</ele>
        <time>2022-09-02T10:03:47Z</time>
      </trkpt>
      <trkpt lat="47.91354" lon="6.8025">
        <ele>624.5</ele>
        <time>2022-09-02T10:03:48Z</time>
      </trkpt>
      <trkpt lat="47.91355" lon="6.80249">
        <ele>624.4</ele>
        <time>2022-09-02T10:03:49Z</time>
      </trkpt>
      <trkpt lat="47.91356" lon="6.80249">
        <ele>624.6</ele>
        <time>2022-09-02T10:03:50Z</time>
      </trkpt>
      <trkpt lat="47.91357" lon="6.80248">
        <ele>624.6</ele>
        <time>2022-09-02T10:03:51Z</time>
      </trkpt>
      <trkpt lat="47.91358" lon="6.80247">
        <ele>624.6</ele>
        <time>2022-09-02T10:03:52Z</time>
      </trkpt>
      <trkpt lat="47.91359" lon="6.80246">
        <ele>624.5</ele>
        <time>2022-09-02T10:03:53Z</time>
      </trkpt>
      <trkpt lat="47.9136" lon="6.80245">
        <ele>624.5</ele>
        <time>2022-09-02T10:03:54Z</time>
      </trkpt>
      <trkpt lat="47.91361" lon="6.80244">
        <ele>624.5</ele>
        <time>2022-09-02T10:03:55Z</time>
      </trkpt>
      <trkpt lat="47.91362" lon="6.80243">
        <ele>624.4</ele>
        <time>2022-09-02T10:03:56Z</time>
      </trkpt>
      <trkpt lat="47.91363" lon="6.80242">
        <ele>624.4</ele>
        <time>2022-09-02T10:03:57Z</time>
      </trkpt>
      <trkpt lat="47.91363" lon="6.80241">
        <ele>624.2</ele>
        <time>2022-09-02T10:03:58Z</time>
      </trkpt>
      <trkpt lat="47.91364" lon="6.8024">
        <ele>624.1</ele>
        <time>2022-09-02T10:03:59Z</time>
      </trkpt>
      <trkpt lat="47.91365" lon="6.80239">
        <ele>624.1</ele>
        <time>2022-09-02T10:04:00Z</time>
      </trkpt>
      <trkpt lat="47.91366" lon="6.80239">
        <ele>624.3</ele>
        <time>2022-09-02T10:04:01Z</time>
      </trkpt>
      <trkpt lat="47.91367" lon="6.80238">
        <ele>624.3</ele>
        <time>2022-09-02T10:04:02Z</time>
      </trkpt>
      <trkpt lat="47.91368" lon="6.80237">
        <ele>624.2</ele>
        <time>2022-09-02T10:04:03Z</time>
      </trkpt>
      <trkpt lat="47.91369" lon="6.80237">
        <ele>624.4</ele>
        <time>2022-09-02T10:04:04Z</time>
      </trkpt>
      <trkpt lat="47.9137" lon="6.80236">
        <ele>624.4</ele>
        <time>2022-09-02T10:04:05Z</time>
      </trkpt>
      <trkpt lat="47.91371" lon="6.80235">
        <ele>624.3</ele>
        <time>2022-09-02T10:04:06Z</time>
      </trkpt>
      <trkpt lat="47.91372" lon="6.80234">
        <ele>624.3</ele>
        <time>2022-09-02T10:04:07Z</time>
      </trkpt>
      <trkpt lat="47.91373" lon="6.80233">
        <ele>624.2</ele>
        <time>2022-09-02T10:04:08Z</time>
      </trkpt>
      <trkpt lat="47.91374" lon="6.80232">
        <ele>624.1</ele>
        <time>2022-09-02T10:04:09Z</time>
      </trkpt>
      <trkpt lat="47.91374" lon="6.80231">
        <ele>623.8</ele>
        <time>2022-09-02T10:04:10Z</time>
      </trkpt>
      <trkpt lat="47.91375" lon="6.8023">
        <ele>623.7</ele>
        <time>2022-09-02T10:04:11Z</time>
      </trkpt>
      <trkpt lat="47.91375" lon="6.80229">
        <ele>623.5</ele>
        <time>2022-09-02T10:04:12Z</time>
      </trkpt>
      <trkpt lat="47.91375" lon="6.80228">
        <ele>623.2</ele>
        <time>2022-09-02T10:04:13Z</time>
      </trkpt>
      <trkpt lat="47.91376" lon="6.80227">
        <ele>623.1</ele>
        <time>2022-09-02T10:04:14Z</time>
      </trkpt>
      <trkpt lat="47.91376" lon="6.80226">
        <ele>622.8</ele>
        <time>2022-09-02T10:04:15Z</time>
      </trkpt>
      <trkpt lat="47.91376" lon="6.80225">
        <ele>622.5</ele>
        <time>2022-09-02T10:04:16Z</time>
      </trkpt>
      <trkpt lat="47.91377" lon="6.80224">
        <ele>622.4</ele>
        <time>2022-09-02T10:04:17Z</time>
      </trkpt>
      <trkpt lat="47.91377" lon="6.80222">
        <ele>621.8</ele>
        <time>2022-09-02T10:04:18Z</time>
      </trkpt>
      <trkpt lat="47.91378" lon="6.80221">
        <ele>621.8</ele>
        <time>2022-09-02T10:04:19Z</time>
      </trkpt>
      <trkpt lat="47.91378" lon="6.80219">
        <ele>621.4</ele>
        <time>2022-09-02T10:04:20Z</time>
      </trkpt>
      <trkpt lat="47.91379" lon="6.80217">
        <ele>621.2</ele>
        <time>2022-09-02T10:04:21Z</time>
      </trkpt>
      <trkpt lat="47.9138" lon="6.80216">
        <ele>621.2</ele>
        <time>2022-09-02T10:04:22Z</time>
      </trkpt>
      <trkpt lat="47.9138" lon="6.80214">
        <ele>620.8</ele>
        <time>2022-09-02T10:04:23Z</time>
      </trkpt>
      <trkpt lat="47.91381" lon="6.80213">
        <ele>620.8</ele>
        <time>2022-09-02T10:04:24Z</time>
      </trkpt>
      <trkpt lat="47.91382" lon="6.80211">
        <ele>620.6</ele>
        <time>2022-09-02T10:04:25Z</time>
      </trkpt>
      <trkpt lat="47.91382" lon="6.8021">
        <ele>620.5</ele>
        <time>2022-09-02T10:04:26Z</time>
      </trkpt>
      <trkpt lat="47.91383" lon="6.80209">
        <ele>620.5</ele>
        <time>2022-09-02T10:04:27Z</time>
      </trkpt>
      <trkpt lat="47.91383" lon="6.80208">
        <ele>620.3</ele>
        <time>2022-09-02T10:04:28Z</time>
      </trkpt>
      <trkpt lat="47.91384" lon="6.80207">
        <ele>620.3</ele>
        <time>2022-09-02T10:04:29Z</time>
      </trkpt>
      <trkpt lat="47.91384" lon="6.80206">
        <ele>620.1</ele>
        <time>2022-09-02T10:04:30Z</time>
      </trkpt>
      <trkpt lat="47.91385" lon="6.80205">
        <ele>620.1</ele>
        <time>2022-09-02T10:04:31Z</time>
      </trkpt>
      <trkpt lat="47.91385" lon="6.80204">
        <ele>619.9</ele>
        <time>2022-09-02T10:04:32Z</time>
      </trkpt>
      <trkpt lat="47.91386" lon="6.80203">
        <ele>619.9</ele>
        <time>2022-09-02T10:04:33Z</time>
      </trkpt>
      <trkpt lat="47.91386" lon="6.80201">
        <ele>619.6</ele>
        <time>2022-09-02T10:04:34Z</time>
      </trkpt>
      <trkpt lat="47.91387" lon="6.802">
        <ele>619.6</ele>
        <time>2022-09-02T10:04:35Z</time>
      </trkpt>
      <trkpt lat="47.91387" lon="6.80199">
        <ele>619.4</ele>
        <time>2022-09-02T10:04:36Z</time>
      </trkpt>
      <trkpt lat="47.91387" lon="6.80198">
        <ele>619.2</ele>
        <time>2022-09-02T10:04:37Z</time>
      </trkpt>
      <trkpt lat="47.91388" lon="6.80197">
        <ele>619.3</ele>
        <time>2022-09-02T10:04:38Z</time>
      </trkpt>
      <trkpt lat="47.91388" lon="6.80196">
        <ele>619.1</ele>
        <time>2022-09-02T10:04:39Z</time>
      </trkpt>
      <trkpt lat="47.91388" lon="6.80195">
        <ele>618.9</ele>
        <time>2022-09-02T10:04:40Z</time>
      </trkpt>
      <trkpt lat="47.91388" lon="6.80194">
        <ele>618.8</ele>
        <time>2022-09-02T10:04:41Z</time>
      </trkpt>
      <trkpt lat="47.91388" lon="6.80193">
        <ele>618.7</ele>
        <time>2022-09-02T10:04:42Z</time>
      </trkpt>
      <trkpt lat="47.91388" lon="6.80192">
        <ele>618.6</ele>
        <time>2022-09-02T10:04:43Z</time>
      </trkpt>
      <trkpt lat="47.91388" lon="6.80191">
        <ele>618.6</ele>
        <time>2022-09-02T10:04:44Z</time>
      </trkpt>
      <trkpt lat="47.91388" lon="6.80189">
        <ele>618.4</ele>
        <time>2022-09-02T10:04:45Z</time>
      </trkpt>
      <trkpt lat="47.91388" lon="6.80187">
        <ele>618.3</ele>
        <time>2022-09-02T10:04:46Z</time>
      </trkpt>
      <trkpt lat="47.91388" lon="6.80186">
        <ele>618.2</ele>
        <time>2022-09-02T10:04:47Z</time>
      </trkpt>
      <trkpt lat="47.91389" lon="6.80184">
        <ele>618.3</ele>
        <time>2022-09-02T10:04:48Z</time>
      </trkpt>
      <trkpt lat="47.91389" lon="6.80182">
        <ele>618.1</ele>
        <time>2022-09-02T10:04:49Z</time>
      </trkpt>
      <trkpt lat="47.91389" lon="6.8018">
        <ele>618</ele>
        <time>2022-09-02T10:04:50Z</time>
      </trkpt>
      <trkpt lat="47.91389" lon="6.80179">
        <ele>617.9</ele>
        <time>2022-09-02T10:04:51Z</time>
      </trkpt>
      <trkpt lat="47.91389" lon="6.80178">
        <ele>617.9</ele>
        <time>2022-09-02T10:04:52Z</time>
      </trkpt>
      <trkpt lat="47.9139" lon="6.80177">
        <ele>618.1</ele>
        <time>2022-09-02T10:04:53Z</time>
      </trkpt>
      <trkpt lat="47.9139" lon="6.80175">
        <ele>618</ele>
        <time>2022-09-02T10:04:54Z</time>
      </trkpt>
      <trkpt lat="47.91391" lon="6.80174">
        <ele>618.3</ele>
        <time>2022-09-02T10:04:55Z</time>
      </trkpt>
      <trkpt lat="47.91391" lon="6.80173">
        <ele>618.2</ele>
        <time>2022-09-02T10:04:56Z</time>
      </trkpt>
      <trkpt lat="47.91392" lon="6.80172">
        <ele>618.5</ele>
        <time>2022-09-02T10:04:57Z</time>
      </trkpt>
      <trkpt lat="47.91392" lon="6.80171">
        <ele>618.4</ele>
        <time>2022-09-02T10:04:58Z</time>
      </trkpt>
      <trkpt lat="47.91392" lon="6.80169">
        <ele>618.2</ele>
        <time>2022-09-02T10:04:59Z</time>
      </trkpt>
      <trkpt lat="47.91392" lon="6.80168">
        <ele>618.1</ele>
        <time>2022-09-02T10:05:00Z</time>
      </trkpt>
      <trkpt lat="47.91392" lon="6.80167">
        <ele>618</ele>
        <time>2022-09-02T10:05:01Z</time>
      </trkpt>
      <trkpt lat="47.91393" lon="6.80165">
        <ele>618.1</ele>
        <time>2022-09-02T10:05:02Z</time>
      </trkpt>
      <trkpt lat="47.91393" lon="6.80164">
        <ele>618</ele>
        <time>2022-09-02T10:05:03Z</time>
      </trkpt>
      <trkpt lat="47.91393" lon="6.80163">
        <ele>617.9</ele>
        <time>2022-09-02T10:05:04Z</time>
      </trkpt>
      <trkpt lat="47.91393" lon="6.80161">
        <ele>617.7</ele>
        <time>2022-09-02T10:05:05Z</time>
      </trkpt>
      <trkpt lat="47.91393" lon="6.8016">
        <ele>617.5</ele>
        <time>2022-09-02T10:05:06Z</time>
      </trkpt>
      <trkpt lat="47.91393" lon="6.80159">
        <ele>617.4</ele>
        <time>2022-09-02T10:05:07Z</time>
      </trkpt>
      <trkpt lat="47.91393" lon="6.80158">
        <ele>617.3</ele>
        <time>2022-09-02T10:05:08Z</time>
      </trkpt>
      <trkpt lat="47.91394" lon="6.80158">
        <ele>617.6</ele>
        <time>2022-09-02T10:05:09Z</time>
      </trkpt>
      <trkpt lat="47.91394" lon="6.80157">
        <ele>617.5</ele>
        <time>2022-09-02T10:05:10Z</time>
      </trkpt>
      <trkpt lat="47.91394" lon="6.80156">
        <ele>617.4</ele>
        <time>2022-09-02T10:05:12Z</time>
      </trkpt>
      <trkpt lat="47.91394" lon="6.80154">
        <ele>617.1</ele>
        <time>2022-09-02T10:05:14Z</time>
      </trkpt>
      <trkpt lat="47.91395" lon="6.80153">
        <ele>617.3</ele>
        <time>2022-09-02T10:05:15Z</time>
      </trkpt>
      <trkpt lat="47.91395" lon="6.80151">
        <ele>617</ele>
        <time>2022-09-02T10:05:16Z</time>
      </trkpt>
      <trkpt lat="47.91395" lon="6.80149">
        <ele>616.8</ele>
        <time>2022-09-02T10:05:17Z</time>
      </trkpt>
      <trkpt lat="47.91396" lon="6.80148">
        <ele>616.9</ele>
        <time>2022-09-02T10:05:18Z</time>
      </trkpt>
      <trkpt lat="47.91396" lon="6.80146">
        <ele>616.7</ele>
        <time>2022-09-02T10:05:19Z</time>
      </trkpt>
      <trkpt lat="47.91396" lon="6.80144">
        <ele>616.4</ele>
        <time>2022-09-02T10:05:20Z</time>
      </trkpt>
      <trkpt lat="47.91397" lon="6.80143">
        <ele>616.6</ele>
        <time>2022-09-02T10:05:21Z</time>
      </trkpt>
      <trkpt lat="47.91397" lon="6.80142">
        <ele>616.4</ele>
        <time>2022-09-02T10:05:22Z</time>
      </trkpt>
      <trkpt lat="47.91397" lon="6.8014">
        <ele>616.2</ele>
        <time>2022-09-02T10:05:23Z</time>
      </trkpt>
      <trkpt lat="47.91398" lon="6.80139">
        <ele>616.3</ele>
        <time>2022-09-02T10:05:24Z</time>
      </trkpt>
      <trkpt lat="47.91398" lon="6.80138">
        <ele>616.2</ele>
        <time>2022-09-02T10:05:25Z</time>
      </trkpt>
      <trkpt lat="47.91398" lon="6.80137">
        <ele>616</ele>
        <time>2022-09-02T10:05:26Z</time>
      </trkpt>
      <trkpt lat="47.91399" lon="6.80136">
        <ele>616.1</ele>
        <time>2022-09-02T10:05:27Z</time>
      </trkpt>
      <trkpt lat="47.91399" lon="6.80134">
        <ele>615.8</ele>
        <time>2022-09-02T10:05:28Z</time>
      </trkpt>
      <trkpt lat="47.91399" lon="6.80133">
        <ele>615.6</ele>
        <time>2022-09-02T10:05:29Z</time>
      </trkpt>
      <trkpt lat="47.914" lon="6.80131">
        <ele>615.5</ele>
        <time>2022-09-02T10:05:30Z</time>
      </trkpt>
      <trkpt lat="47.914" lon="6.8013">
        <ele>615.3</ele>
        <time>2022-09-02T10:05:31Z</time>
      </trkpt>
      <trkpt lat="47.914" lon="6.80129">
        <ele>615.2</ele>
        <time>2022-09-02T10:05:33Z</time>
      </trkpt>
      <trkpt lat="47.914" lon="6.80128">
        <ele>615</ele>
        <time>2022-09-02T10:05:35Z</time>
      </trkpt>
      <trkpt lat="47.914" lon="6.80127">
        <ele>614.8</ele>
        <time>2022-09-02T10:05:36Z</time>
      </trkpt>
      <trkpt lat="47.91399" lon="6.80127">
        <ele>614.6</ele>
        <time>2022-09-02T10:05:37Z</time>
      </trkpt>
      <trkpt lat="47.91398" lon="6.80127">
        <ele>614.5</ele>
        <time>2022-09-02T10:05:39Z</time>
      </trkpt>
      <trkpt lat="47.91397" lon="6.80127">
        <ele>614.3</ele>
        <time>2022-09-02T10:05:41Z</time>
      </trkpt>
      <trkpt lat="47.91397" lon="6.80128">
        <ele>614.4</ele>
        <time>2022-09-02T10:05:42Z</time>
      </trkpt>
      <trkpt lat="47.91396" lon="6.80128">
        <ele>614.2</ele>
        <time>2022-09-02T10:05:43Z</time>
      </trkpt>
      <trkpt lat="47.91395" lon="6.80128">
        <ele>614</ele>
        <time>2022-09-02T10:05:44Z</time>
      </trkpt>
      <trkpt lat="47.91394" lon="6.80128">
        <ele>613.8</ele>
        <time>2022-09-02T10:05:46Z</time>
      </trkpt>
      <trkpt lat="47.91393" lon="6.80128">
        <ele>613.6</ele>
        <time>2022-09-02T10:05:47Z</time>
      </trkpt>
      <trkpt lat="47.91392" lon="6.80128">
        <ele>613.4</ele>
        <time>2022-09-02T10:05:48Z</time>
      </trkpt>
      <trkpt lat="47.91391" lon="6.80128">
        <ele>613.2</ele>
        <time>2022-09-02T10:05:49Z</time>
      </trkpt>
      <trkpt lat="47.9139" lon="6.80129">
        <ele>613.2</ele>
        <time>2022-09-02T10:05:50Z</time>
      </trkpt>
      <trkpt lat="47.91389" lon="6.8013">
        <ele>613.1</ele>
        <time>2022-09-02T10:05:52Z</time>
      </trkpt>
      <trkpt lat="47.91388" lon="6.8013">
        <ele>612.9</ele>
        <time>2022-09-02T10:05:53Z</time>
      </trkpt>
      <trkpt lat="47.91387" lon="6.8013">
        <ele>612.8</ele>
        <time>2022-09-02T10:05:54Z</time>
      </trkpt>
      <trkpt lat="47.91386" lon="6.80131">
        <ele>612.8</ele>
        <time>2022-09-02T10:05:55Z</time>
      </trkpt>
      <trkpt lat="47.91385" lon="6.80131">
        <ele>612.6</ele>
        <time>2022-09-02T10:05:56Z</time>
      </trkpt>
      <trkpt lat="47.91384" lon="6.80132">
        <ele>612.6</ele>
        <time>2022-09-02T10:05:57Z</time>
      </trkpt>
      <trkpt lat="47.91383" lon="6.80132">
        <ele>612.5</ele>
        <time>2022-09-02T10:05:58Z</time>
      </trkpt>
      <trkpt lat="47.91382" lon="6.80132">
        <ele>612.3</ele>
        <time>2022-09-02T10:05:59Z</time>
      </trkpt>
      <trkpt lat="47.91381" lon="6.80132">
        <ele>612.2</ele>
        <time>2022-09-02T10:06:00Z</time>
      </trkpt>
      <trkpt lat="47.9138" lon="6.80133">
        <ele>612.2</ele>
        <time>2022-09-02T10:06:01Z</time>
      </trkpt>
      <trkpt lat="47.91379" lon="6.80133">
        <ele>612</ele>
        <time>2022-09-02T10:06:02Z</time>
      </trkpt>
      <trkpt lat="47.91378" lon="6.80133">
        <ele>611.9</ele>
        <time>2022-09-02T10:06:03Z</time>
      </trkpt>
      <trkpt lat="47.91377" lon="6.80133">
        <ele>611.7</ele>
        <time>2022-09-02T10:06:04Z</time>
      </trkpt>
      <trkpt lat="47.91376" lon="6.80133">
        <ele>611.6</ele>
        <time>2022-09-02T10:06:05Z</time>
      </trkpt>
      <trkpt lat="47.91375" lon="6.80134">
        <ele>611.6</ele>
        <time>2022-09-02T10:06:07Z</time>
      </trkpt>
      <trkpt lat="47.91374" lon="6.80134">
        <ele>611.4</ele>
        <time>2022-09-02T10:06:08Z</time>
      </trkpt>
      <trkpt lat="47.91373" lon="6.80135">
        <ele>611.4</ele>
        <time>2022-09-02T10:06:09Z</time>
      </trkpt>
      <trkpt lat="47.91372" lon="6.80135">
        <ele>611.2</ele>
        <time>2022-09-02T10:06:10Z</time>
      </trkpt>
      <trkpt lat="47.91371" lon="6.80136">
        <ele>611.2</ele>
        <time>2022-09-02T10:06:11Z</time>
      </trkpt>
      <trkpt lat="47.9137" lon="6.80136">
        <ele>611</ele>
        <time>2022-09-02T10:06:12Z</time>
      </trkpt>
      <trkpt lat="47.91369" lon="6.80136">
        <ele>610.9</ele>
        <time>2022-09-02T10:06:13Z</time>
      </trkpt>
      <trkpt lat="47.91368" lon="6.80136">
        <ele>610.8</ele>
        <time>2022-09-02T10:06:14Z</time>
      </trkpt>
      <trkpt lat="47.91367" lon="6.80136">
        <ele>610.6</ele>
        <time>2022-09-02T10:06:15Z</time>
      </trkpt>
      <trkpt lat="47.91366" lon="6.80137">
        <ele>610.6</ele>
        <time>2022-09-02T10:06:16Z</time>
      </trkpt>
      <trkpt lat="47.91365" lon="6.80137">
        <ele>610.4</ele>
        <time>2022-09-02T10:06:17Z</time>
      </trkpt>
      <trkpt lat="47.91364" lon="6.80137">
        <ele>610.3</ele>
        <time>2022-09-02T10:06:18Z</time>
      </trkpt>
      <trkpt lat="47.91363" lon="6.80137">
        <ele>610.1</ele>
        <time>2022-09-02T10:06:19Z</time>
      </trkpt>
      <trkpt lat="47.91362" lon="6.80137">
        <ele>610</ele>
        <time>2022-09-02T10:06:21Z</time>
      </trkpt>
      <trkpt lat="47.91361" lon="6.80136">
        <ele>609.8</ele>
        <time>2022-09-02T10:06:22Z</time>
      </trkpt>
      <trkpt lat="47.9136" lon="6.80136">
        <ele>609.6</ele>
        <time>2022-09-02T10:06:23Z</time>
      </trkpt>
      <trkpt lat="47.91359" lon="6.80136">
        <ele>609.5</ele>
        <time>2022-09-02T10:06:24Z</time>
      </trkpt>
      <trkpt lat="47.91359" lon="6.80135">
        <ele>609.4</ele>
        <time>2022-09-02T10:06:25Z</time>
      </trkpt>
      <trkpt lat="47.91358" lon="6.80135">
        <ele>609.3</ele>
        <time>2022-09-02T10:06:26Z</time>
      </trkpt>
      <trkpt lat="47.91358" lon="6.80134">
        <ele>609.2</ele>
        <time>2022-09-02T10:06:27Z</time>
      </trkpt>
      <trkpt lat="47.91358" lon="6.80132">
        <ele>609.1</ele>
        <time>2022-09-02T10:06:28Z</time>
      </trkpt>
      <trkpt lat="47.91358" lon="6.80131">
        <ele>609</ele>
        <time>2022-09-02T10:06:29Z</time>
      </trkpt>
      <trkpt lat="47.91358" lon="6.8013">
        <ele>608.9</ele>
        <time>2022-09-02T10:06:30Z</time>
      </trkpt>
      <trkpt lat="47.91359" lon="6.80128">
        <ele>608.9</ele>
        <time>2022-09-02T10:06:31Z</time>
      </trkpt>
      <trkpt lat="47.9136" lon="6.80127">
        <ele>609</ele>
        <time>2022-09-02T10:06:32Z</time>
      </trkpt>
      <trkpt lat="47.91361" lon="6.80126">
        <ele>609.1</ele>
        <time>2022-09-02T10:06:33Z</time>
      </trkpt>
      <trkpt lat="47.91362" lon="6.80125">
        <ele>609.1</ele>
        <time>2022-09-02T10:06:34Z</time>
      </trkpt>
      <trkpt lat="47.91363" lon="6.80124">
        <ele>609.2</ele>
        <time>2022-09-02T10:06:35Z</time>
      </trkpt>
      <trkpt lat="47.91364" lon="6.80123">
        <ele>609.2</ele>
        <time>2022-09-02T10:06:36Z</time>
      </trkpt>
      <trkpt lat="47.91365" lon="6.80123">
        <ele>609.3</ele>
        <time>2022-09-02T10:06:37Z</time>
      </trkpt>
      <trkpt lat="47.91367" lon="6.80122">
        <ele>609.5</ele>
        <time>2022-09-02T10:06:38Z</time>
      </trkpt>
      <trkpt lat="47.91368" lon="6.80121">
        <ele>609.5</ele>
        <time>2022-09-02T10:06:39Z</time>
      </trkpt>
      <trkpt lat="47.91369" lon="6.80121">
        <ele>609.7</ele>
        <time>2022-09-02T10:06:40Z</time>
      </trkpt>
      <trkpt lat="47.9137" lon="6.8012">
        <ele>609.7</ele>
        <time>2022-09-02T10:06:41Z</time>
      </trkpt>
      <trkpt lat="47.91371" lon="6.8012">
        <ele>609.8</ele>
        <time>2022-09-02T10:06:42Z</time>
      </trkpt>
      <trkpt lat="47.91372" lon="6.80119">
        <ele>609.9</ele>
        <time>2022-09-02T10:06:43Z</time>
      </trkpt>
      <trkpt lat="47.91373" lon="6.80119">
        <ele>610</ele>
        <time>2022-09-02T10:06:44Z</time>
      </trkpt>
      <trkpt lat="47.91375" lon="6.80118">
        <ele>610.1</ele>
        <time>2022-09-02T10:06:45Z</time>
      </trkpt>
      <trkpt lat="47.91376" lon="6.80118">
        <ele>610.2</ele>
        <time>2022-09-02T10:06:46Z</time>
      </trkpt>
      <trkpt lat="47.91377" lon="6.80117">
        <ele>610.3</ele>
        <time>2022-09-02T10:06:47Z</time>
      </trkpt>
      <trkpt lat="47.91378" lon="6.80117">
        <ele>610.4</ele>
        <time>2022-09-02T10:06:48Z</time>
      </trkpt>
      <trkpt lat="47.91379" lon="6.80116">
        <ele>610.4</ele>
        <time>2022-09-02T10:06:49Z</time>
      </trkpt>
      <trkpt lat="47.9138" lon="6.80116">
        <ele>610.5</ele>
        <time>2022-09-02T10:06:50Z</time>
      </trkpt>
      <trkpt lat="47.91381" lon="6.80116">
        <ele>610.6</ele>
        <time>2022-09-02T10:06:51Z</time>
      </trkpt>
      <trkpt lat="47.91382" lon="6.80116">
        <ele>610.7</ele>
        <time>2022-09-02T10:06:52Z</time>
      </trkpt>
      <trkpt lat="47.91383" lon="6.80116">
        <ele>610.9</ele>
        <time>2022-09-02T10:06:53Z</time>
      </trkpt>
      <trkpt lat="47.91385" lon="6.80117">
        <ele>611.2</ele>
        <time>2022-09-02T10:06:54Z</time>
      </trkpt>
      <trkpt lat="47.91387" lon="6.80117">
        <ele>611.4</ele>
        <time>2022-09-02T10:06:55Z</time>
      </trkpt>
    </trkseg>
  </trk>
</gpx>